<?xml version="1.0" encoding="utf-8" standalone="yes"?>
<gpx version="1.1" creator="Locus Map, Android"
 xmlns="http://www.topografix.com/GPX/1/1"
 xmlns:xsi="http://www.w3.org/2001/XMLSchema-instance"
 xsi:schemaLocation="http://www.topografix.com/GPX/1/1 http://www.topografix.com/GPX/1/1/gpx.xsd"
 xmlns:gpxx="http://www.garmin.com/xmlschemas/GpxExtensions/v3"
 xmlns:gpxtrkx="http://www.garmin.com/xmlschemas/TrackStatsExtension/v1"
 xmlns:gpxtpx="http://www.garmin.com/xmlschemas/TrackPointExtension/v2"
 xmlns:locus="http://www.locusmap.eu">
	<metadata>
		<desc>File with points/tracks from Locus Map Classic/3.69.2</desc>
		<time>2023-09-04T16:49:06.986Z</time>
	</metadata>
<trk>
<name>Rifugio Maria e Franco - Rifugio Lissone</name>
	<extensions>
		<line xmlns="http://www.topografix.com/GPX/gpx_style/0/2">
			<color>0000FF</color>
			<opacity>0.59</opacity>
			<width>6.0</width>
			<extensions>
				<locus:lsColorBase>#960000FF</locus:lsColorBase>
				<locus:lsWidth>6.0</locus:lsWidth>
				<locus:lsUnits>PIXELS</locus:lsUnits>
			</extensions>
		</line>
	</extensions>
<trkseg>
<trkpt lat="46.0246280" lon="10.4648300">
	<ele>2580.60</ele>
	<time>2023-08-06T05:50:31.000Z</time>
</trkpt>
<trkpt lat="46.0246320" lon="10.4648320">
	<ele>2580.60</ele>
	<time>2023-08-06T05:50:32.000Z</time>
</trkpt>
<trkpt lat="46.0246420" lon="10.4648520">
	<ele>2580.60</ele>
	<time>2023-08-06T05:50:33.000Z</time>
</trkpt>
<trkpt lat="46.0246480" lon="10.4648530">
	<ele>2580.60</ele>
	<time>2023-08-06T05:50:34.000Z</time>
</trkpt>
<trkpt lat="46.0246540" lon="10.4648520">
	<ele>2580.60</ele>
	<time>2023-08-06T05:50:35.000Z</time>
</trkpt>
<trkpt lat="46.0246610" lon="10.4648570">
	<ele>2580.60</ele>
	<time>2023-08-06T05:50:36.000Z</time>
</trkpt>
<trkpt lat="46.0246690" lon="10.4648620">
	<ele>2580.60</ele>
	<time>2023-08-06T05:50:37.000Z</time>
</trkpt>
<trkpt lat="46.0246770" lon="10.4648710">
	<ele>2580.60</ele>
	<time>2023-08-06T05:50:38.000Z</time>
</trkpt>
<trkpt lat="46.0246840" lon="10.4648790">
	<ele>2580.60</ele>
	<time>2023-08-06T05:50:39.000Z</time>
</trkpt>
<trkpt lat="46.0246860" lon="10.4648840">
	<ele>2581.20</ele>
	<time>2023-08-06T05:50:40.000Z</time>
</trkpt>
<trkpt lat="46.0246900" lon="10.4648900">
	<ele>2581.60</ele>
	<time>2023-08-06T05:50:41.000Z</time>
</trkpt>
<trkpt lat="46.0246960" lon="10.4648890">
	<ele>2582.00</ele>
	<time>2023-08-06T05:50:42.000Z</time>
</trkpt>
<trkpt lat="46.0246950" lon="10.4648930">
	<ele>2582.00</ele>
	<time>2023-08-06T05:50:43.000Z</time>
</trkpt>
<trkpt lat="46.0246920" lon="10.4648930">
	<ele>2582.20</ele>
	<time>2023-08-06T05:50:44.000Z</time>
</trkpt>
<trkpt lat="46.0246880" lon="10.4648870">
	<ele>2582.20</ele>
	<time>2023-08-06T05:50:45.000Z</time>
</trkpt>
<trkpt lat="46.0246880" lon="10.4648820">
	<ele>2582.20</ele>
	<time>2023-08-06T05:50:46.000Z</time>
</trkpt>
<trkpt lat="46.0246880" lon="10.4648820">
	<ele>2582.20</ele>
	<time>2023-08-06T05:50:47.000Z</time>
</trkpt>
<trkpt lat="46.0246880" lon="10.4648820">
	<ele>2582.20</ele>
	<time>2023-08-06T05:50:48.000Z</time>
</trkpt>
<trkpt lat="46.0246880" lon="10.4648820">
	<ele>2582.20</ele>
	<time>2023-08-06T05:50:49.000Z</time>
</trkpt>
<trkpt lat="46.0246880" lon="10.4648820">
	<ele>2582.20</ele>
	<time>2023-08-06T05:50:50.000Z</time>
</trkpt>
<trkpt lat="46.0246880" lon="10.4648820">
	<ele>2582.40</ele>
	<time>2023-08-06T05:50:51.000Z</time>
</trkpt>
<trkpt lat="46.0246880" lon="10.4648820">
	<ele>2582.40</ele>
	<time>2023-08-06T05:50:52.000Z</time>
</trkpt>
<trkpt lat="46.0246880" lon="10.4648820">
	<ele>2582.40</ele>
	<time>2023-08-06T05:50:53.000Z</time>
</trkpt>
<trkpt lat="46.0246880" lon="10.4648820">
	<ele>2582.40</ele>
	<time>2023-08-06T05:50:54.000Z</time>
</trkpt>
<trkpt lat="46.0246880" lon="10.4648820">
	<ele>2582.60</ele>
	<time>2023-08-06T05:50:55.000Z</time>
</trkpt>
<trkpt lat="46.0246900" lon="10.4648820">
	<ele>2582.60</ele>
	<time>2023-08-06T05:50:56.000Z</time>
</trkpt>
<trkpt lat="46.0246900" lon="10.4648820">
	<ele>2582.40</ele>
	<time>2023-08-06T05:50:57.000Z</time>
</trkpt>
<trkpt lat="46.0246900" lon="10.4648820">
	<ele>2582.40</ele>
	<time>2023-08-06T05:50:58.000Z</time>
</trkpt>
<trkpt lat="46.0246920" lon="10.4648820">
	<ele>2582.20</ele>
	<time>2023-08-06T05:50:59.000Z</time>
</trkpt>
<trkpt lat="46.0246920" lon="10.4648820">
	<ele>2582.20</ele>
	<time>2023-08-06T05:51:00.000Z</time>
</trkpt>
<trkpt lat="46.0246920" lon="10.4648820">
	<ele>2582.00</ele>
	<time>2023-08-06T05:51:01.000Z</time>
</trkpt>
<trkpt lat="46.0246930" lon="10.4648820">
	<ele>2581.80</ele>
	<time>2023-08-06T05:51:02.000Z</time>
</trkpt>
<trkpt lat="46.0246940" lon="10.4648820">
	<ele>2581.80</ele>
	<time>2023-08-06T05:51:03.000Z</time>
</trkpt>
<trkpt lat="46.0246950" lon="10.4648820">
	<ele>2581.80</ele>
	<time>2023-08-06T05:51:04.000Z</time>
</trkpt>
<trkpt lat="46.0246960" lon="10.4648820">
	<ele>2581.80</ele>
	<time>2023-08-06T05:51:05.000Z</time>
</trkpt>
<trkpt lat="46.0247030" lon="10.4648810">
	<ele>2581.60</ele>
	<time>2023-08-06T05:51:06.000Z</time>
</trkpt>
<trkpt lat="46.0247190" lon="10.4648780">
	<ele>2581.60</ele>
	<time>2023-08-06T05:51:07.000Z</time>
</trkpt>
<trkpt lat="46.0247340" lon="10.4648750">
	<ele>2581.40</ele>
	<time>2023-08-06T05:51:08.000Z</time>
</trkpt>
<trkpt lat="46.0247510" lon="10.4648710">
	<ele>2581.40</ele>
	<time>2023-08-06T05:51:09.000Z</time>
</trkpt>
<trkpt lat="46.0247670" lon="10.4648660">
	<ele>2581.40</ele>
	<time>2023-08-06T05:51:10.000Z</time>
</trkpt>
<trkpt lat="46.0247830" lon="10.4648640">
	<ele>2581.40</ele>
	<time>2023-08-06T05:51:11.000Z</time>
</trkpt>
<trkpt lat="46.0247970" lon="10.4648600">
	<ele>2581.40</ele>
	<time>2023-08-06T05:51:12.000Z</time>
</trkpt>
<trkpt lat="46.0248140" lon="10.4648560">
	<ele>2581.20</ele>
	<time>2023-08-06T05:51:13.000Z</time>
</trkpt>
<trkpt lat="46.0248330" lon="10.4648550">
	<ele>2581.20</ele>
	<time>2023-08-06T05:51:14.000Z</time>
</trkpt>
<trkpt lat="46.0248470" lon="10.4648520">
	<ele>2581.20</ele>
	<time>2023-08-06T05:51:15.000Z</time>
</trkpt>
<trkpt lat="46.0248520" lon="10.4648480">
	<ele>2581.40</ele>
	<time>2023-08-06T05:51:16.000Z</time>
</trkpt>
<trkpt lat="46.0248580" lon="10.4648440">
	<ele>2581.40</ele>
	<time>2023-08-06T05:51:17.000Z</time>
</trkpt>
<trkpt lat="46.0248640" lon="10.4648400">
	<ele>2581.60</ele>
	<time>2023-08-06T05:51:18.000Z</time>
</trkpt>
<trkpt lat="46.0248710" lon="10.4648380">
	<ele>2581.80</ele>
	<time>2023-08-06T05:51:19.000Z</time>
</trkpt>
<trkpt lat="46.0248790" lon="10.4648370">
	<ele>2581.80</ele>
	<time>2023-08-06T05:51:20.000Z</time>
</trkpt>
<trkpt lat="46.0248840" lon="10.4648370">
	<ele>2582.00</ele>
	<time>2023-08-06T05:51:21.000Z</time>
</trkpt>
<trkpt lat="46.0248920" lon="10.4648390">
	<ele>2582.20</ele>
	<time>2023-08-06T05:51:22.000Z</time>
</trkpt>
<trkpt lat="46.0248960" lon="10.4648370">
	<ele>2582.20</ele>
	<time>2023-08-06T05:51:23.000Z</time>
</trkpt>
<trkpt lat="46.0249010" lon="10.4648360">
	<ele>2582.20</ele>
	<time>2023-08-06T05:51:24.000Z</time>
</trkpt>
<trkpt lat="46.0249070" lon="10.4648390">
	<ele>2582.40</ele>
	<time>2023-08-06T05:51:25.000Z</time>
</trkpt>
<trkpt lat="46.0249110" lon="10.4648430">
	<ele>2582.40</ele>
	<time>2023-08-06T05:51:26.000Z</time>
</trkpt>
<trkpt lat="46.0249180" lon="10.4648480">
	<ele>2582.20</ele>
	<time>2023-08-06T05:51:27.000Z</time>
</trkpt>
<trkpt lat="46.0249240" lon="10.4648520">
	<ele>2582.20</ele>
	<time>2023-08-06T05:51:28.000Z</time>
</trkpt>
<trkpt lat="46.0249290" lon="10.4648540">
	<ele>2582.20</ele>
	<time>2023-08-06T05:51:29.000Z</time>
</trkpt>
<trkpt lat="46.0249370" lon="10.4648540">
	<ele>2582.00</ele>
	<time>2023-08-06T05:51:30.000Z</time>
</trkpt>
<trkpt lat="46.0249440" lon="10.4648550">
	<ele>2582.00</ele>
	<time>2023-08-06T05:51:31.000Z</time>
</trkpt>
<trkpt lat="46.0249500" lon="10.4648550">
	<ele>2581.80</ele>
	<time>2023-08-06T05:51:32.000Z</time>
</trkpt>
<trkpt lat="46.0249560" lon="10.4648550">
	<ele>2581.80</ele>
	<time>2023-08-06T05:51:33.000Z</time>
</trkpt>
<trkpt lat="46.0249610" lon="10.4648550">
	<ele>2581.80</ele>
	<time>2023-08-06T05:51:34.000Z</time>
</trkpt>
<trkpt lat="46.0249690" lon="10.4648540">
	<ele>2581.80</ele>
	<time>2023-08-06T05:51:35.000Z</time>
</trkpt>
<trkpt lat="46.0249790" lon="10.4648530">
	<ele>2581.80</ele>
	<time>2023-08-06T05:51:36.000Z</time>
</trkpt>
<trkpt lat="46.0249870" lon="10.4648510">
	<ele>2581.80</ele>
	<time>2023-08-06T05:51:37.000Z</time>
</trkpt>
<trkpt lat="46.0249920" lon="10.4648500">
	<ele>2581.80</ele>
	<time>2023-08-06T05:51:38.000Z</time>
</trkpt>
<trkpt lat="46.0250010" lon="10.4648490">
	<ele>2581.80</ele>
	<time>2023-08-06T05:51:39.000Z</time>
</trkpt>
<trkpt lat="46.0250130" lon="10.4648510">
	<ele>2581.80</ele>
	<time>2023-08-06T05:51:40.000Z</time>
</trkpt>
<trkpt lat="46.0250220" lon="10.4648520">
	<ele>2581.80</ele>
	<time>2023-08-06T05:51:41.000Z</time>
</trkpt>
<trkpt lat="46.0250290" lon="10.4648510">
	<ele>2581.80</ele>
	<time>2023-08-06T05:51:42.000Z</time>
</trkpt>
<trkpt lat="46.0250370" lon="10.4648480">
	<ele>2581.80</ele>
	<time>2023-08-06T05:51:43.000Z</time>
</trkpt>
<trkpt lat="46.0250450" lon="10.4648530">
	<ele>2582.00</ele>
	<time>2023-08-06T05:51:44.000Z</time>
</trkpt>
<trkpt lat="46.0250520" lon="10.4648550">
	<ele>2582.00</ele>
	<time>2023-08-06T05:51:45.000Z</time>
</trkpt>
<trkpt lat="46.0250600" lon="10.4648540">
	<ele>2582.00</ele>
	<time>2023-08-06T05:51:46.000Z</time>
</trkpt>
<trkpt lat="46.0250670" lon="10.4648530">
	<ele>2582.00</ele>
	<time>2023-08-06T05:51:47.000Z</time>
</trkpt>
<trkpt lat="46.0250760" lon="10.4648520">
	<ele>2582.00</ele>
	<time>2023-08-06T05:51:48.000Z</time>
</trkpt>
<trkpt lat="46.0250840" lon="10.4648510">
	<ele>2582.00</ele>
	<time>2023-08-06T05:51:49.000Z</time>
</trkpt>
<trkpt lat="46.0250900" lon="10.4648500">
	<ele>2582.00</ele>
	<time>2023-08-06T05:51:50.000Z</time>
</trkpt>
<trkpt lat="46.0250990" lon="10.4648490">
	<ele>2582.00</ele>
	<time>2023-08-06T05:51:51.000Z</time>
</trkpt>
<trkpt lat="46.0251120" lon="10.4648480">
	<ele>2582.00</ele>
	<time>2023-08-06T05:51:52.000Z</time>
</trkpt>
<trkpt lat="46.0251200" lon="10.4648480">
	<ele>2582.00</ele>
	<time>2023-08-06T05:51:53.000Z</time>
</trkpt>
<trkpt lat="46.0251280" lon="10.4648450">
	<ele>2582.00</ele>
	<time>2023-08-06T05:51:54.000Z</time>
</trkpt>
<trkpt lat="46.0251340" lon="10.4648400">
	<ele>2582.00</ele>
	<time>2023-08-06T05:51:55.000Z</time>
</trkpt>
<trkpt lat="46.0251440" lon="10.4648360">
	<ele>2582.00</ele>
	<time>2023-08-06T05:51:56.000Z</time>
</trkpt>
<trkpt lat="46.0251570" lon="10.4648350">
	<ele>2582.00</ele>
	<time>2023-08-06T05:51:57.000Z</time>
</trkpt>
<trkpt lat="46.0251690" lon="10.4648350">
	<ele>2582.00</ele>
	<time>2023-08-06T05:51:58.000Z</time>
</trkpt>
<trkpt lat="46.0251810" lon="10.4648310">
	<ele>2582.00</ele>
	<time>2023-08-06T05:51:59.000Z</time>
</trkpt>
<trkpt lat="46.0251900" lon="10.4648290">
	<ele>2582.00</ele>
	<time>2023-08-06T05:52:00.000Z</time>
</trkpt>
<trkpt lat="46.0251970" lon="10.4648290">
	<ele>2582.00</ele>
	<time>2023-08-06T05:52:01.000Z</time>
</trkpt>
<trkpt lat="46.0252050" lon="10.4648310">
	<ele>2582.00</ele>
	<time>2023-08-06T05:52:02.000Z</time>
</trkpt>
<trkpt lat="46.0252130" lon="10.4648360">
	<ele>2582.00</ele>
	<time>2023-08-06T05:52:03.000Z</time>
</trkpt>
<trkpt lat="46.0252240" lon="10.4648370">
	<ele>2582.00</ele>
	<time>2023-08-06T05:52:04.000Z</time>
</trkpt>
<trkpt lat="46.0252340" lon="10.4648350">
	<ele>2582.00</ele>
	<time>2023-08-06T05:52:05.000Z</time>
</trkpt>
<trkpt lat="46.0252430" lon="10.4648310">
	<ele>2582.00</ele>
	<time>2023-08-06T05:52:06.000Z</time>
</trkpt>
<trkpt lat="46.0252520" lon="10.4648300">
	<ele>2582.00</ele>
	<time>2023-08-06T05:52:07.000Z</time>
</trkpt>
<trkpt lat="46.0252580" lon="10.4648290">
	<ele>2582.00</ele>
	<time>2023-08-06T05:52:08.000Z</time>
</trkpt>
<trkpt lat="46.0252640" lon="10.4648270">
	<ele>2582.00</ele>
	<time>2023-08-06T05:52:09.000Z</time>
</trkpt>
<trkpt lat="46.0252700" lon="10.4648220">
	<ele>2582.00</ele>
	<time>2023-08-06T05:52:10.000Z</time>
</trkpt>
<trkpt lat="46.0252750" lon="10.4648180">
	<ele>2582.00</ele>
	<time>2023-08-06T05:52:11.000Z</time>
</trkpt>
<trkpt lat="46.0252790" lon="10.4648130">
	<ele>2582.00</ele>
	<time>2023-08-06T05:52:12.000Z</time>
</trkpt>
<trkpt lat="46.0252840" lon="10.4648070">
	<ele>2582.00</ele>
	<time>2023-08-06T05:52:13.000Z</time>
</trkpt>
<trkpt lat="46.0252900" lon="10.4648030">
	<ele>2582.00</ele>
	<time>2023-08-06T05:52:14.000Z</time>
</trkpt>
<trkpt lat="46.0252950" lon="10.4648030">
	<ele>2582.00</ele>
	<time>2023-08-06T05:52:15.000Z</time>
</trkpt>
<trkpt lat="46.0253020" lon="10.4648000">
	<ele>2582.00</ele>
	<time>2023-08-06T05:52:16.000Z</time>
</trkpt>
<trkpt lat="46.0253100" lon="10.4647960">
	<ele>2582.00</ele>
	<time>2023-08-06T05:52:17.000Z</time>
</trkpt>
<trkpt lat="46.0253160" lon="10.4647890">
	<ele>2582.00</ele>
	<time>2023-08-06T05:52:18.000Z</time>
</trkpt>
<trkpt lat="46.0253210" lon="10.4647850">
	<ele>2582.00</ele>
	<time>2023-08-06T05:52:19.000Z</time>
</trkpt>
<trkpt lat="46.0253230" lon="10.4647830">
	<ele>2582.00</ele>
	<time>2023-08-06T05:52:20.000Z</time>
</trkpt>
<trkpt lat="46.0253290" lon="10.4647790">
	<ele>2582.00</ele>
	<time>2023-08-06T05:52:21.000Z</time>
</trkpt>
<trkpt lat="46.0253380" lon="10.4647730">
	<ele>2582.00</ele>
	<time>2023-08-06T05:52:22.000Z</time>
</trkpt>
<trkpt lat="46.0253460" lon="10.4647720">
	<ele>2582.00</ele>
	<time>2023-08-06T05:52:23.000Z</time>
</trkpt>
<trkpt lat="46.0253530" lon="10.4647720">
	<ele>2582.00</ele>
	<time>2023-08-06T05:52:24.000Z</time>
</trkpt>
<trkpt lat="46.0253620" lon="10.4647740">
	<ele>2582.00</ele>
	<time>2023-08-06T05:52:25.000Z</time>
</trkpt>
<trkpt lat="46.0253710" lon="10.4647770">
	<ele>2582.00</ele>
	<time>2023-08-06T05:52:26.000Z</time>
</trkpt>
<trkpt lat="46.0253780" lon="10.4647760">
	<ele>2582.00</ele>
	<time>2023-08-06T05:52:27.000Z</time>
</trkpt>
<trkpt lat="46.0253830" lon="10.4647730">
	<ele>2582.00</ele>
	<time>2023-08-06T05:52:28.000Z</time>
</trkpt>
<trkpt lat="46.0253890" lon="10.4647640">
	<ele>2582.00</ele>
	<time>2023-08-06T05:52:29.000Z</time>
</trkpt>
<trkpt lat="46.0253970" lon="10.4647600">
	<ele>2582.00</ele>
	<time>2023-08-06T05:52:30.000Z</time>
</trkpt>
<trkpt lat="46.0254020" lon="10.4647580">
	<ele>2582.00</ele>
	<time>2023-08-06T05:52:31.000Z</time>
</trkpt>
<trkpt lat="46.0254080" lon="10.4647590">
	<ele>2582.00</ele>
	<time>2023-08-06T05:52:32.000Z</time>
</trkpt>
<trkpt lat="46.0254150" lon="10.4647600">
	<ele>2582.00</ele>
	<time>2023-08-06T05:52:33.000Z</time>
</trkpt>
<trkpt lat="46.0254240" lon="10.4647590">
	<ele>2582.00</ele>
	<time>2023-08-06T05:52:34.000Z</time>
</trkpt>
<trkpt lat="46.0254370" lon="10.4647580">
	<ele>2582.00</ele>
	<time>2023-08-06T05:52:35.000Z</time>
</trkpt>
<trkpt lat="46.0254470" lon="10.4647570">
	<ele>2582.00</ele>
	<time>2023-08-06T05:52:36.000Z</time>
</trkpt>
<trkpt lat="46.0254530" lon="10.4647560">
	<ele>2582.00</ele>
	<time>2023-08-06T05:52:37.000Z</time>
</trkpt>
<trkpt lat="46.0254580" lon="10.4647570">
	<ele>2582.00</ele>
	<time>2023-08-06T05:52:38.000Z</time>
</trkpt>
<trkpt lat="46.0254630" lon="10.4647570">
	<ele>2582.00</ele>
	<time>2023-08-06T05:52:39.000Z</time>
</trkpt>
<trkpt lat="46.0254720" lon="10.4647550">
	<ele>2582.00</ele>
	<time>2023-08-06T05:52:40.000Z</time>
</trkpt>
<trkpt lat="46.0254780" lon="10.4647510">
	<ele>2582.00</ele>
	<time>2023-08-06T05:52:41.000Z</time>
</trkpt>
<trkpt lat="46.0254850" lon="10.4647430">
	<ele>2582.00</ele>
	<time>2023-08-06T05:52:42.000Z</time>
</trkpt>
<trkpt lat="46.0254940" lon="10.4647430">
	<ele>2582.00</ele>
	<time>2023-08-06T05:52:43.000Z</time>
</trkpt>
<trkpt lat="46.0255040" lon="10.4647450">
	<ele>2582.00</ele>
	<time>2023-08-06T05:52:44.000Z</time>
</trkpt>
<trkpt lat="46.0255130" lon="10.4647420">
	<ele>2586.60</ele>
	<time>2023-08-06T05:52:45.000Z</time>
</trkpt>
<trkpt lat="46.0255210" lon="10.4647440">
	<ele>2586.60</ele>
	<time>2023-08-06T05:52:46.000Z</time>
</trkpt>
<trkpt lat="46.0255310" lon="10.4647460">
	<ele>2586.60</ele>
	<time>2023-08-06T05:52:47.000Z</time>
</trkpt>
<trkpt lat="46.0255410" lon="10.4647460">
	<ele>2586.60</ele>
	<time>2023-08-06T05:52:48.000Z</time>
</trkpt>
<trkpt lat="46.0255500" lon="10.4647460">
	<ele>2586.60</ele>
	<time>2023-08-06T05:52:49.000Z</time>
</trkpt>
<trkpt lat="46.0255530" lon="10.4647440">
	<ele>2586.40</ele>
	<time>2023-08-06T05:52:50.000Z</time>
</trkpt>
<trkpt lat="46.0255580" lon="10.4647350">
	<ele>2586.20</ele>
	<time>2023-08-06T05:52:51.000Z</time>
</trkpt>
<trkpt lat="46.0255630" lon="10.4647270">
	<ele>2586.20</ele>
	<time>2023-08-06T05:52:52.000Z</time>
</trkpt>
<trkpt lat="46.0255650" lon="10.4647170">
	<ele>2586.20</ele>
	<time>2023-08-06T05:52:53.000Z</time>
</trkpt>
<trkpt lat="46.0255670" lon="10.4647130">
	<ele>2586.20</ele>
	<time>2023-08-06T05:52:54.000Z</time>
</trkpt>
<trkpt lat="46.0255690" lon="10.4647120">
	<ele>2586.20</ele>
	<time>2023-08-06T05:52:55.000Z</time>
</trkpt>
<trkpt lat="46.0255710" lon="10.4647060">
	<ele>2586.40</ele>
	<time>2023-08-06T05:52:56.000Z</time>
</trkpt>
<trkpt lat="46.0255710" lon="10.4647000">
	<ele>2586.40</ele>
	<time>2023-08-06T05:52:57.000Z</time>
</trkpt>
<trkpt lat="46.0255710" lon="10.4647090">
	<ele>2586.40</ele>
	<time>2023-08-06T05:52:58.000Z</time>
</trkpt>
<trkpt lat="46.0255690" lon="10.4647230">
	<ele>2586.40</ele>
	<time>2023-08-06T05:52:59.000Z</time>
</trkpt>
<trkpt lat="46.0255680" lon="10.4647360">
	<ele>2586.20</ele>
	<time>2023-08-06T05:53:00.000Z</time>
</trkpt>
<trkpt lat="46.0255580" lon="10.4647470">
	<ele>2586.60</ele>
	<time>2023-08-06T05:53:01.000Z</time>
</trkpt>
<trkpt lat="46.0255540" lon="10.4647590">
	<ele>2586.60</ele>
	<time>2023-08-06T05:53:02.000Z</time>
</trkpt>
<trkpt lat="46.0255500" lon="10.4647610">
	<ele>2586.60</ele>
	<time>2023-08-06T05:53:03.000Z</time>
</trkpt>
<trkpt lat="46.0255480" lon="10.4647650">
	<ele>2586.60</ele>
	<time>2023-08-06T05:53:04.000Z</time>
</trkpt>
<trkpt lat="46.0255480" lon="10.4647660">
	<ele>2586.40</ele>
	<time>2023-08-06T05:53:05.000Z</time>
</trkpt>
<trkpt lat="46.0255480" lon="10.4647670">
	<ele>2586.20</ele>
	<time>2023-08-06T05:53:06.000Z</time>
</trkpt>
<trkpt lat="46.0255480" lon="10.4647670">
	<ele>2586.20</ele>
	<time>2023-08-06T05:53:07.000Z</time>
</trkpt>
<trkpt lat="46.0255480" lon="10.4647670">
	<ele>2586.00</ele>
	<time>2023-08-06T05:53:08.000Z</time>
</trkpt>
<trkpt lat="46.0255480" lon="10.4647670">
	<ele>2586.20</ele>
	<time>2023-08-06T05:53:09.000Z</time>
</trkpt>
<trkpt lat="46.0255480" lon="10.4647670">
	<ele>2586.20</ele>
	<time>2023-08-06T05:53:10.000Z</time>
</trkpt>
<trkpt lat="46.0255480" lon="10.4647670">
	<ele>2586.20</ele>
	<time>2023-08-06T05:53:11.000Z</time>
</trkpt>
<trkpt lat="46.0255480" lon="10.4647670">
	<ele>2586.20</ele>
	<time>2023-08-06T05:53:12.000Z</time>
</trkpt>
<trkpt lat="46.0255480" lon="10.4647670">
	<ele>2586.20</ele>
	<time>2023-08-06T05:53:13.000Z</time>
</trkpt>
<trkpt lat="46.0255480" lon="10.4647670">
	<ele>2586.20</ele>
	<time>2023-08-06T05:53:14.000Z</time>
</trkpt>
<trkpt lat="46.0255480" lon="10.4647670">
	<ele>2586.20</ele>
	<time>2023-08-06T05:53:15.000Z</time>
</trkpt>
<trkpt lat="46.0255480" lon="10.4647670">
	<ele>2586.00</ele>
	<time>2023-08-06T05:53:16.000Z</time>
</trkpt>
<trkpt lat="46.0255480" lon="10.4647670">
	<ele>2586.00</ele>
	<time>2023-08-06T05:53:17.000Z</time>
</trkpt>
<trkpt lat="46.0255480" lon="10.4647670">
	<ele>2586.00</ele>
	<time>2023-08-06T05:53:18.000Z</time>
</trkpt>
<trkpt lat="46.0255480" lon="10.4647670">
	<ele>2585.60</ele>
	<time>2023-08-06T05:53:19.000Z</time>
</trkpt>
<trkpt lat="46.0255480" lon="10.4647670">
	<ele>2585.40</ele>
	<time>2023-08-06T05:53:20.000Z</time>
</trkpt>
<trkpt lat="46.0255480" lon="10.4647670">
	<ele>2585.40</ele>
	<time>2023-08-06T05:53:21.000Z</time>
</trkpt>
<trkpt lat="46.0255480" lon="10.4647670">
	<ele>2585.20</ele>
	<time>2023-08-06T05:53:22.000Z</time>
</trkpt>
<trkpt lat="46.0255480" lon="10.4647670">
	<ele>2584.80</ele>
	<time>2023-08-06T05:53:23.000Z</time>
</trkpt>
<trkpt lat="46.0255480" lon="10.4647690">
	<ele>2584.80</ele>
	<time>2023-08-06T05:53:24.000Z</time>
</trkpt>
<trkpt lat="46.0255480" lon="10.4647690">
	<ele>2584.40</ele>
	<time>2023-08-06T05:53:25.000Z</time>
</trkpt>
<trkpt lat="46.0255480" lon="10.4647740">
	<ele>2584.20</ele>
	<time>2023-08-06T05:53:26.000Z</time>
</trkpt>
<trkpt lat="46.0255480" lon="10.4647810">
	<ele>2584.00</ele>
	<time>2023-08-06T05:53:27.000Z</time>
</trkpt>
<trkpt lat="46.0255480" lon="10.4647870">
	<ele>2584.00</ele>
	<time>2023-08-06T05:53:28.000Z</time>
</trkpt>
<trkpt lat="46.0255480" lon="10.4647960">
	<ele>2583.80</ele>
	<time>2023-08-06T05:53:29.000Z</time>
</trkpt>
<trkpt lat="46.0255480" lon="10.4648040">
	<ele>2583.80</ele>
	<time>2023-08-06T05:53:30.000Z</time>
</trkpt>
<trkpt lat="46.0255480" lon="10.4648120">
	<ele>2583.60</ele>
	<time>2023-08-06T05:53:31.000Z</time>
</trkpt>
<trkpt lat="46.0255460" lon="10.4648210">
	<ele>2583.40</ele>
	<time>2023-08-06T05:53:32.000Z</time>
</trkpt>
<trkpt lat="46.0255460" lon="10.4648280">
	<ele>2583.00</ele>
	<time>2023-08-06T05:53:33.000Z</time>
</trkpt>
<trkpt lat="46.0255460" lon="10.4648330">
	<ele>2582.80</ele>
	<time>2023-08-06T05:53:34.000Z</time>
</trkpt>
<trkpt lat="46.0255460" lon="10.4648380">
	<ele>2582.60</ele>
	<time>2023-08-06T05:53:35.000Z</time>
</trkpt>
<trkpt lat="46.0255460" lon="10.4648460">
	<ele>2582.40</ele>
	<time>2023-08-06T05:53:36.000Z</time>
</trkpt>
<trkpt lat="46.0255460" lon="10.4648560">
	<ele>2582.20</ele>
	<time>2023-08-06T05:53:37.000Z</time>
</trkpt>
<trkpt lat="46.0255490" lon="10.4648620">
	<ele>2582.00</ele>
	<time>2023-08-06T05:53:38.000Z</time>
</trkpt>
<trkpt lat="46.0255580" lon="10.4648640">
	<ele>2581.80</ele>
	<time>2023-08-06T05:53:39.000Z</time>
</trkpt>
<trkpt lat="46.0255680" lon="10.4648670">
	<ele>2581.80</ele>
	<time>2023-08-06T05:53:40.000Z</time>
</trkpt>
<trkpt lat="46.0255770" lon="10.4648730">
	<ele>2581.60</ele>
	<time>2023-08-06T05:53:41.000Z</time>
</trkpt>
<trkpt lat="46.0255870" lon="10.4648810">
	<ele>2581.40</ele>
	<time>2023-08-06T05:53:42.000Z</time>
</trkpt>
<trkpt lat="46.0255980" lon="10.4648840">
	<ele>2581.40</ele>
	<time>2023-08-06T05:53:43.000Z</time>
</trkpt>
<trkpt lat="46.0256070" lon="10.4648910">
	<ele>2581.00</ele>
	<time>2023-08-06T05:53:44.000Z</time>
</trkpt>
<trkpt lat="46.0256180" lon="10.4649010">
	<ele>2580.80</ele>
	<time>2023-08-06T05:53:45.000Z</time>
</trkpt>
<trkpt lat="46.0256290" lon="10.4649160">
	<ele>2580.80</ele>
	<time>2023-08-06T05:53:46.000Z</time>
</trkpt>
<trkpt lat="46.0256370" lon="10.4649330">
	<ele>2580.60</ele>
	<time>2023-08-06T05:53:47.000Z</time>
</trkpt>
<trkpt lat="46.0256410" lon="10.4649410">
	<ele>2580.40</ele>
	<time>2023-08-06T05:53:48.000Z</time>
</trkpt>
<trkpt lat="46.0256450" lon="10.4649480">
	<ele>2580.40</ele>
	<time>2023-08-06T05:53:49.000Z</time>
</trkpt>
<trkpt lat="46.0256520" lon="10.4649550">
	<ele>2580.00</ele>
	<time>2023-08-06T05:53:50.000Z</time>
</trkpt>
<trkpt lat="46.0256560" lon="10.4649610">
	<ele>2579.80</ele>
	<time>2023-08-06T05:53:51.000Z</time>
</trkpt>
<trkpt lat="46.0256620" lon="10.4649680">
	<ele>2579.60</ele>
	<time>2023-08-06T05:53:52.000Z</time>
</trkpt>
<trkpt lat="46.0256650" lon="10.4649750">
	<ele>2579.40</ele>
	<time>2023-08-06T05:53:53.000Z</time>
</trkpt>
<trkpt lat="46.0256680" lon="10.4649800">
	<ele>2579.40</ele>
	<time>2023-08-06T05:53:54.000Z</time>
</trkpt>
<trkpt lat="46.0256720" lon="10.4649820">
	<ele>2579.20</ele>
	<time>2023-08-06T05:53:55.000Z</time>
</trkpt>
<trkpt lat="46.0256770" lon="10.4649860">
	<ele>2579.00</ele>
	<time>2023-08-06T05:53:56.000Z</time>
</trkpt>
<trkpt lat="46.0256800" lon="10.4649880">
	<ele>2579.00</ele>
	<time>2023-08-06T05:53:57.000Z</time>
</trkpt>
<trkpt lat="46.0256840" lon="10.4649900">
	<ele>2578.80</ele>
	<time>2023-08-06T05:53:58.000Z</time>
</trkpt>
<trkpt lat="46.0256870" lon="10.4649940">
	<ele>2578.60</ele>
	<time>2023-08-06T05:53:59.000Z</time>
</trkpt>
<trkpt lat="46.0256890" lon="10.4650030">
	<ele>2578.40</ele>
	<time>2023-08-06T05:54:00.000Z</time>
</trkpt>
<trkpt lat="46.0256880" lon="10.4650120">
	<ele>2578.40</ele>
	<time>2023-08-06T05:54:01.000Z</time>
</trkpt>
<trkpt lat="46.0256890" lon="10.4650180">
	<ele>2578.00</ele>
	<time>2023-08-06T05:54:02.000Z</time>
</trkpt>
<trkpt lat="46.0256900" lon="10.4650290">
	<ele>2578.00</ele>
	<time>2023-08-06T05:54:03.000Z</time>
</trkpt>
<trkpt lat="46.0256880" lon="10.4650360">
	<ele>2577.80</ele>
	<time>2023-08-06T05:54:04.000Z</time>
</trkpt>
<trkpt lat="46.0256870" lon="10.4650450">
	<ele>2577.60</ele>
	<time>2023-08-06T05:54:05.000Z</time>
</trkpt>
<trkpt lat="46.0256860" lon="10.4650550">
	<ele>2577.60</ele>
	<time>2023-08-06T05:54:06.000Z</time>
</trkpt>
<trkpt lat="46.0256860" lon="10.4650620">
	<ele>2577.40</ele>
	<time>2023-08-06T05:54:07.000Z</time>
</trkpt>
<trkpt lat="46.0256870" lon="10.4650680">
	<ele>2577.40</ele>
	<time>2023-08-06T05:54:08.000Z</time>
</trkpt>
<trkpt lat="46.0256900" lon="10.4650730">
	<ele>2577.20</ele>
	<time>2023-08-06T05:54:09.000Z</time>
</trkpt>
<trkpt lat="46.0256930" lon="10.4650770">
	<ele>2577.20</ele>
	<time>2023-08-06T05:54:10.000Z</time>
</trkpt>
<trkpt lat="46.0256960" lon="10.4650800">
	<ele>2577.00</ele>
	<time>2023-08-06T05:54:11.000Z</time>
</trkpt>
<trkpt lat="46.0257010" lon="10.4650860">
	<ele>2576.80</ele>
	<time>2023-08-06T05:54:12.000Z</time>
</trkpt>
<trkpt lat="46.0257050" lon="10.4650940">
	<ele>2576.60</ele>
	<time>2023-08-06T05:54:13.000Z</time>
</trkpt>
<trkpt lat="46.0257080" lon="10.4650990">
	<ele>2576.40</ele>
	<time>2023-08-06T05:54:14.000Z</time>
</trkpt>
<trkpt lat="46.0257110" lon="10.4651060">
	<ele>2576.20</ele>
	<time>2023-08-06T05:54:15.000Z</time>
</trkpt>
<trkpt lat="46.0257140" lon="10.4651100">
	<ele>2576.00</ele>
	<time>2023-08-06T05:54:16.000Z</time>
</trkpt>
<trkpt lat="46.0257190" lon="10.4651110">
	<ele>2575.80</ele>
	<time>2023-08-06T05:54:17.000Z</time>
</trkpt>
<trkpt lat="46.0257210" lon="10.4651150">
	<ele>2575.60</ele>
	<time>2023-08-06T05:54:18.000Z</time>
</trkpt>
<trkpt lat="46.0257210" lon="10.4651200">
	<ele>2575.40</ele>
	<time>2023-08-06T05:54:19.000Z</time>
</trkpt>
<trkpt lat="46.0257200" lon="10.4651250">
	<ele>2575.20</ele>
	<time>2023-08-06T05:54:20.000Z</time>
</trkpt>
<trkpt lat="46.0257190" lon="10.4651240">
	<ele>2575.20</ele>
	<time>2023-08-06T05:54:21.000Z</time>
</trkpt>
<trkpt lat="46.0257180" lon="10.4651280">
	<ele>2575.00</ele>
	<time>2023-08-06T05:54:22.000Z</time>
</trkpt>
<trkpt lat="46.0257210" lon="10.4651340">
	<ele>2574.80</ele>
	<time>2023-08-06T05:54:23.000Z</time>
</trkpt>
<trkpt lat="46.0257250" lon="10.4651370">
	<ele>2574.60</ele>
	<time>2023-08-06T05:54:24.000Z</time>
</trkpt>
<trkpt lat="46.0257280" lon="10.4651400">
	<ele>2574.60</ele>
	<time>2023-08-06T05:54:25.000Z</time>
</trkpt>
<trkpt lat="46.0257300" lon="10.4651420">
	<ele>2574.40</ele>
	<time>2023-08-06T05:54:26.000Z</time>
</trkpt>
<trkpt lat="46.0257330" lon="10.4651420">
	<ele>2574.20</ele>
	<time>2023-08-06T05:54:27.000Z</time>
</trkpt>
<trkpt lat="46.0257360" lon="10.4651430">
	<ele>2574.00</ele>
	<time>2023-08-06T05:54:28.000Z</time>
</trkpt>
<trkpt lat="46.0257380" lon="10.4651450">
	<ele>2573.80</ele>
	<time>2023-08-06T05:54:29.000Z</time>
</trkpt>
<trkpt lat="46.0257410" lon="10.4651500">
	<ele>2573.80</ele>
	<time>2023-08-06T05:54:30.000Z</time>
</trkpt>
<trkpt lat="46.0257460" lon="10.4651540">
	<ele>2573.60</ele>
	<time>2023-08-06T05:54:31.000Z</time>
</trkpt>
<trkpt lat="46.0257510" lon="10.4651590">
	<ele>2573.60</ele>
	<time>2023-08-06T05:54:32.000Z</time>
</trkpt>
<trkpt lat="46.0257540" lon="10.4651650">
	<ele>2573.20</ele>
	<time>2023-08-06T05:54:33.000Z</time>
</trkpt>
<trkpt lat="46.0257580" lon="10.4651680">
	<ele>2573.00</ele>
	<time>2023-08-06T05:54:34.000Z</time>
</trkpt>
<trkpt lat="46.0257630" lon="10.4651670">
	<ele>2572.60</ele>
	<time>2023-08-06T05:54:35.000Z</time>
</trkpt>
<trkpt lat="46.0257710" lon="10.4651640">
	<ele>2572.20</ele>
	<time>2023-08-06T05:54:36.000Z</time>
</trkpt>
<trkpt lat="46.0257800" lon="10.4651650">
	<ele>2572.00</ele>
	<time>2023-08-06T05:54:37.000Z</time>
</trkpt>
<trkpt lat="46.0257900" lon="10.4651630">
	<ele>2572.00</ele>
	<time>2023-08-06T05:54:38.000Z</time>
</trkpt>
<trkpt lat="46.0257970" lon="10.4651640">
	<ele>2571.80</ele>
	<time>2023-08-06T05:54:39.000Z</time>
</trkpt>
<trkpt lat="46.0258060" lon="10.4651680">
	<ele>2571.80</ele>
	<time>2023-08-06T05:54:40.000Z</time>
</trkpt>
<trkpt lat="46.0258150" lon="10.4651750">
	<ele>2571.60</ele>
	<time>2023-08-06T05:54:41.000Z</time>
</trkpt>
<trkpt lat="46.0258270" lon="10.4651800">
	<ele>2571.40</ele>
	<time>2023-08-06T05:54:42.000Z</time>
</trkpt>
<trkpt lat="46.0258360" lon="10.4651840">
	<ele>2571.40</ele>
	<time>2023-08-06T05:54:43.000Z</time>
</trkpt>
<trkpt lat="46.0258440" lon="10.4651890">
	<ele>2571.20</ele>
	<time>2023-08-06T05:54:44.000Z</time>
</trkpt>
<trkpt lat="46.0258500" lon="10.4651910">
	<ele>2571.00</ele>
	<time>2023-08-06T05:54:45.000Z</time>
</trkpt>
<trkpt lat="46.0258540" lon="10.4651920">
	<ele>2570.80</ele>
	<time>2023-08-06T05:54:46.000Z</time>
</trkpt>
<trkpt lat="46.0258590" lon="10.4651930">
	<ele>2570.60</ele>
	<time>2023-08-06T05:54:47.000Z</time>
</trkpt>
<trkpt lat="46.0258580" lon="10.4651930">
	<ele>2570.40</ele>
	<time>2023-08-06T05:54:48.000Z</time>
</trkpt>
<trkpt lat="46.0258570" lon="10.4651930">
	<ele>2570.40</ele>
	<time>2023-08-06T05:54:49.000Z</time>
</trkpt>
<trkpt lat="46.0258560" lon="10.4651940">
	<ele>2570.40</ele>
	<time>2023-08-06T05:54:50.000Z</time>
</trkpt>
<trkpt lat="46.0258560" lon="10.4651950">
	<ele>2570.40</ele>
	<time>2023-08-06T05:54:51.000Z</time>
</trkpt>
<trkpt lat="46.0258550" lon="10.4651950">
	<ele>2570.40</ele>
	<time>2023-08-06T05:54:52.000Z</time>
</trkpt>
<trkpt lat="46.0258550" lon="10.4651950">
	<ele>2570.40</ele>
	<time>2023-08-06T05:54:53.000Z</time>
</trkpt>
<trkpt lat="46.0258540" lon="10.4651930">
	<ele>2570.40</ele>
	<time>2023-08-06T05:54:54.000Z</time>
</trkpt>
<trkpt lat="46.0258550" lon="10.4651910">
	<ele>2570.60</ele>
	<time>2023-08-06T05:54:55.000Z</time>
</trkpt>
<trkpt lat="46.0258560" lon="10.4651890">
	<ele>2570.60</ele>
	<time>2023-08-06T05:54:56.000Z</time>
</trkpt>
<trkpt lat="46.0258570" lon="10.4651880">
	<ele>2570.80</ele>
	<time>2023-08-06T05:54:57.000Z</time>
</trkpt>
<trkpt lat="46.0258560" lon="10.4651860">
	<ele>2570.80</ele>
	<time>2023-08-06T05:54:58.000Z</time>
</trkpt>
<trkpt lat="46.0258560" lon="10.4651860">
	<ele>2570.80</ele>
	<time>2023-08-06T05:54:59.000Z</time>
</trkpt>
<trkpt lat="46.0258560" lon="10.4651860">
	<ele>2570.80</ele>
	<time>2023-08-06T05:55:00.000Z</time>
</trkpt>
<trkpt lat="46.0258560" lon="10.4651860">
	<ele>2570.60</ele>
	<time>2023-08-06T05:55:01.000Z</time>
</trkpt>
<trkpt lat="46.0258560" lon="10.4651860">
	<ele>2570.60</ele>
	<time>2023-08-06T05:55:02.000Z</time>
</trkpt>
<trkpt lat="46.0258560" lon="10.4651860">
	<ele>2570.60</ele>
	<time>2023-08-06T05:55:03.000Z</time>
</trkpt>
<trkpt lat="46.0258560" lon="10.4651860">
	<ele>2570.60</ele>
	<time>2023-08-06T05:55:04.000Z</time>
</trkpt>
<trkpt lat="46.0258560" lon="10.4651860">
	<ele>2570.60</ele>
	<time>2023-08-06T05:55:05.000Z</time>
</trkpt>
<trkpt lat="46.0258560" lon="10.4651860">
	<ele>2570.60</ele>
	<time>2023-08-06T05:55:06.000Z</time>
</trkpt>
<trkpt lat="46.0258560" lon="10.4651860">
	<ele>2570.60</ele>
	<time>2023-08-06T05:55:07.000Z</time>
</trkpt>
<trkpt lat="46.0258560" lon="10.4651860">
	<ele>2570.60</ele>
	<time>2023-08-06T05:55:08.000Z</time>
</trkpt>
<trkpt lat="46.0258590" lon="10.4651880">
	<ele>2570.60</ele>
	<time>2023-08-06T05:55:09.000Z</time>
</trkpt>
<trkpt lat="46.0258660" lon="10.4651930">
	<ele>2570.60</ele>
	<time>2023-08-06T05:55:10.000Z</time>
</trkpt>
<trkpt lat="46.0258730" lon="10.4651960">
	<ele>2570.60</ele>
	<time>2023-08-06T05:55:11.000Z</time>
</trkpt>
<trkpt lat="46.0258840" lon="10.4652030">
	<ele>2570.60</ele>
	<time>2023-08-06T05:55:12.000Z</time>
</trkpt>
<trkpt lat="46.0258940" lon="10.4652100">
	<ele>2570.60</ele>
	<time>2023-08-06T05:55:13.000Z</time>
</trkpt>
<trkpt lat="46.0259040" lon="10.4652150">
	<ele>2570.60</ele>
	<time>2023-08-06T05:55:14.000Z</time>
</trkpt>
<trkpt lat="46.0259120" lon="10.4652210">
	<ele>2570.40</ele>
	<time>2023-08-06T05:55:15.000Z</time>
</trkpt>
<trkpt lat="46.0259220" lon="10.4652240">
	<ele>2570.20</ele>
	<time>2023-08-06T05:55:16.000Z</time>
</trkpt>
<trkpt lat="46.0259320" lon="10.4652330">
	<ele>2570.00</ele>
	<time>2023-08-06T05:55:17.000Z</time>
</trkpt>
<trkpt lat="46.0259450" lon="10.4652430">
	<ele>2570.00</ele>
	<time>2023-08-06T05:55:18.000Z</time>
</trkpt>
<trkpt lat="46.0259550" lon="10.4652510">
	<ele>2570.00</ele>
	<time>2023-08-06T05:55:19.000Z</time>
</trkpt>
<trkpt lat="46.0259620" lon="10.4652560">
	<ele>2569.80</ele>
	<time>2023-08-06T05:55:20.000Z</time>
</trkpt>
<trkpt lat="46.0259670" lon="10.4652580">
	<ele>2569.80</ele>
	<time>2023-08-06T05:55:21.000Z</time>
</trkpt>
<trkpt lat="46.0259720" lon="10.4652590">
	<ele>2569.60</ele>
	<time>2023-08-06T05:55:22.000Z</time>
</trkpt>
<trkpt lat="46.0259750" lon="10.4652640">
	<ele>2569.40</ele>
	<time>2023-08-06T05:55:23.000Z</time>
</trkpt>
<trkpt lat="46.0259790" lon="10.4652730">
	<ele>2568.60</ele>
	<time>2023-08-06T05:55:24.000Z</time>
</trkpt>
<trkpt lat="46.0259870" lon="10.4652820">
	<ele>2568.20</ele>
	<time>2023-08-06T05:55:25.000Z</time>
</trkpt>
<trkpt lat="46.0259960" lon="10.4652900">
	<ele>2568.00</ele>
	<time>2023-08-06T05:55:26.000Z</time>
</trkpt>
<trkpt lat="46.0260030" lon="10.4652970">
	<ele>2567.80</ele>
	<time>2023-08-06T05:55:27.000Z</time>
</trkpt>
<trkpt lat="46.0260100" lon="10.4653030">
	<ele>2567.60</ele>
	<time>2023-08-06T05:55:28.000Z</time>
</trkpt>
<trkpt lat="46.0260160" lon="10.4653110">
	<ele>2567.40</ele>
	<time>2023-08-06T05:55:29.000Z</time>
</trkpt>
<trkpt lat="46.0260230" lon="10.4653160">
	<ele>2567.40</ele>
	<time>2023-08-06T05:55:30.000Z</time>
</trkpt>
<trkpt lat="46.0260290" lon="10.4653230">
	<ele>2567.40</ele>
	<time>2023-08-06T05:55:31.000Z</time>
</trkpt>
<trkpt lat="46.0260360" lon="10.4653270">
	<ele>2567.40</ele>
	<time>2023-08-06T05:55:32.000Z</time>
</trkpt>
<trkpt lat="46.0260430" lon="10.4653310">
	<ele>2567.40</ele>
	<time>2023-08-06T05:55:33.000Z</time>
</trkpt>
<trkpt lat="46.0260490" lon="10.4653360">
	<ele>2567.40</ele>
	<time>2023-08-06T05:55:34.000Z</time>
</trkpt>
<trkpt lat="46.0260540" lon="10.4653430">
	<ele>2567.40</ele>
	<time>2023-08-06T05:55:35.000Z</time>
</trkpt>
<trkpt lat="46.0260630" lon="10.4653490">
	<ele>2567.60</ele>
	<time>2023-08-06T05:55:36.000Z</time>
</trkpt>
<trkpt lat="46.0260750" lon="10.4653540">
	<ele>2567.60</ele>
	<time>2023-08-06T05:55:37.000Z</time>
</trkpt>
<trkpt lat="46.0260850" lon="10.4653590">
	<ele>2567.60</ele>
	<time>2023-08-06T05:55:38.000Z</time>
</trkpt>
<trkpt lat="46.0260940" lon="10.4653630">
	<ele>2567.40</ele>
	<time>2023-08-06T05:55:39.000Z</time>
</trkpt>
<trkpt lat="46.0261020" lon="10.4653670">
	<ele>2567.20</ele>
	<time>2023-08-06T05:55:40.000Z</time>
</trkpt>
<trkpt lat="46.0261090" lon="10.4653700">
	<ele>2567.00</ele>
	<time>2023-08-06T05:55:41.000Z</time>
</trkpt>
<trkpt lat="46.0261160" lon="10.4653700">
	<ele>2566.80</ele>
	<time>2023-08-06T05:55:42.000Z</time>
</trkpt>
<trkpt lat="46.0261260" lon="10.4653690">
	<ele>2566.60</ele>
	<time>2023-08-06T05:55:43.000Z</time>
</trkpt>
<trkpt lat="46.0261350" lon="10.4653740">
	<ele>2566.60</ele>
	<time>2023-08-06T05:55:44.000Z</time>
</trkpt>
<trkpt lat="46.0261430" lon="10.4653850">
	<ele>2566.40</ele>
	<time>2023-08-06T05:55:45.000Z</time>
</trkpt>
<trkpt lat="46.0261480" lon="10.4653970">
	<ele>2566.20</ele>
	<time>2023-08-06T05:55:46.000Z</time>
</trkpt>
<trkpt lat="46.0261500" lon="10.4654040">
	<ele>2566.00</ele>
	<time>2023-08-06T05:55:47.000Z</time>
</trkpt>
<trkpt lat="46.0261520" lon="10.4654070">
	<ele>2566.00</ele>
	<time>2023-08-06T05:55:48.000Z</time>
</trkpt>
<trkpt lat="46.0261580" lon="10.4654140">
	<ele>2565.80</ele>
	<time>2023-08-06T05:55:49.000Z</time>
</trkpt>
<trkpt lat="46.0261610" lon="10.4654190">
	<ele>2565.80</ele>
	<time>2023-08-06T05:55:50.000Z</time>
</trkpt>
<trkpt lat="46.0261630" lon="10.4654280">
	<ele>2565.40</ele>
	<time>2023-08-06T05:55:51.000Z</time>
</trkpt>
<trkpt lat="46.0261650" lon="10.4654330">
	<ele>2565.40</ele>
	<time>2023-08-06T05:55:52.000Z</time>
</trkpt>
<trkpt lat="46.0261710" lon="10.4654400">
	<ele>2565.20</ele>
	<time>2023-08-06T05:55:53.000Z</time>
</trkpt>
<trkpt lat="46.0261760" lon="10.4654460">
	<ele>2565.00</ele>
	<time>2023-08-06T05:55:54.000Z</time>
</trkpt>
<trkpt lat="46.0261810" lon="10.4654510">
	<ele>2564.80</ele>
	<time>2023-08-06T05:55:55.000Z</time>
</trkpt>
<trkpt lat="46.0261850" lon="10.4654550">
	<ele>2564.80</ele>
	<time>2023-08-06T05:55:56.000Z</time>
</trkpt>
<trkpt lat="46.0261890" lon="10.4654580">
	<ele>2564.60</ele>
	<time>2023-08-06T05:55:57.000Z</time>
</trkpt>
<trkpt lat="46.0261940" lon="10.4654610">
	<ele>2564.60</ele>
	<time>2023-08-06T05:55:58.000Z</time>
</trkpt>
<trkpt lat="46.0262000" lon="10.4654680">
	<ele>2564.20</ele>
	<time>2023-08-06T05:55:59.000Z</time>
</trkpt>
<trkpt lat="46.0262060" lon="10.4654720">
	<ele>2564.00</ele>
	<time>2023-08-06T05:56:00.000Z</time>
</trkpt>
<trkpt lat="46.0262150" lon="10.4654800">
	<ele>2564.00</ele>
	<time>2023-08-06T05:56:01.000Z</time>
</trkpt>
<trkpt lat="46.0262230" lon="10.4654890">
	<ele>2563.60</ele>
	<time>2023-08-06T05:56:02.000Z</time>
</trkpt>
<trkpt lat="46.0262300" lon="10.4654960">
	<ele>2563.40</ele>
	<time>2023-08-06T05:56:03.000Z</time>
</trkpt>
<trkpt lat="46.0262340" lon="10.4655010">
	<ele>2563.20</ele>
	<time>2023-08-06T05:56:04.000Z</time>
</trkpt>
<trkpt lat="46.0262420" lon="10.4655060">
	<ele>2563.20</ele>
	<time>2023-08-06T05:56:05.000Z</time>
</trkpt>
<trkpt lat="46.0262510" lon="10.4655140">
	<ele>2563.00</ele>
	<time>2023-08-06T05:56:06.000Z</time>
</trkpt>
<trkpt lat="46.0262580" lon="10.4655180">
	<ele>2562.80</ele>
	<time>2023-08-06T05:56:07.000Z</time>
</trkpt>
<trkpt lat="46.0262650" lon="10.4655190">
	<ele>2562.80</ele>
	<time>2023-08-06T05:56:08.000Z</time>
</trkpt>
<trkpt lat="46.0262700" lon="10.4655220">
	<ele>2562.60</ele>
	<time>2023-08-06T05:56:09.000Z</time>
</trkpt>
<trkpt lat="46.0262750" lon="10.4655250">
	<ele>2562.60</ele>
	<time>2023-08-06T05:56:10.000Z</time>
</trkpt>
<trkpt lat="46.0262790" lon="10.4655310">
	<ele>2562.60</ele>
	<time>2023-08-06T05:56:11.000Z</time>
</trkpt>
<trkpt lat="46.0262840" lon="10.4655340">
	<ele>2562.40</ele>
	<time>2023-08-06T05:56:12.000Z</time>
</trkpt>
<trkpt lat="46.0262900" lon="10.4655370">
	<ele>2562.40</ele>
	<time>2023-08-06T05:56:13.000Z</time>
</trkpt>
<trkpt lat="46.0262960" lon="10.4655390">
	<ele>2562.20</ele>
	<time>2023-08-06T05:56:14.000Z</time>
</trkpt>
<trkpt lat="46.0263050" lon="10.4655460">
	<ele>2562.20</ele>
	<time>2023-08-06T05:56:15.000Z</time>
</trkpt>
<trkpt lat="46.0263120" lon="10.4655510">
	<ele>2562.00</ele>
	<time>2023-08-06T05:56:16.000Z</time>
</trkpt>
<trkpt lat="46.0263200" lon="10.4655540">
	<ele>2561.60</ele>
	<time>2023-08-06T05:56:17.000Z</time>
</trkpt>
<trkpt lat="46.0263310" lon="10.4655600">
	<ele>2561.40</ele>
	<time>2023-08-06T05:56:18.000Z</time>
</trkpt>
<trkpt lat="46.0263430" lon="10.4655670">
	<ele>2561.40</ele>
	<time>2023-08-06T05:56:19.000Z</time>
</trkpt>
<trkpt lat="46.0263520" lon="10.4655710">
	<ele>2561.40</ele>
	<time>2023-08-06T05:56:20.000Z</time>
</trkpt>
<trkpt lat="46.0263600" lon="10.4655740">
	<ele>2561.40</ele>
	<time>2023-08-06T05:56:21.000Z</time>
</trkpt>
<trkpt lat="46.0263660" lon="10.4655770">
	<ele>2561.40</ele>
	<time>2023-08-06T05:56:22.000Z</time>
</trkpt>
<trkpt lat="46.0263690" lon="10.4655780">
	<ele>2561.60</ele>
	<time>2023-08-06T05:56:23.000Z</time>
</trkpt>
<trkpt lat="46.0263730" lon="10.4655840">
	<ele>2561.60</ele>
	<time>2023-08-06T05:56:24.000Z</time>
</trkpt>
<trkpt lat="46.0263750" lon="10.4655920">
	<ele>2561.80</ele>
	<time>2023-08-06T05:56:25.000Z</time>
</trkpt>
<trkpt lat="46.0263810" lon="10.4656000">
	<ele>2561.60</ele>
	<time>2023-08-06T05:56:26.000Z</time>
</trkpt>
<trkpt lat="46.0263910" lon="10.4656010">
	<ele>2561.60</ele>
	<time>2023-08-06T05:56:27.000Z</time>
</trkpt>
<trkpt lat="46.0263970" lon="10.4656020">
	<ele>2561.60</ele>
	<time>2023-08-06T05:56:28.000Z</time>
</trkpt>
<trkpt lat="46.0264030" lon="10.4656090">
	<ele>2561.40</ele>
	<time>2023-08-06T05:56:29.000Z</time>
</trkpt>
<trkpt lat="46.0264070" lon="10.4656160">
	<ele>2561.40</ele>
	<time>2023-08-06T05:56:30.000Z</time>
</trkpt>
<trkpt lat="46.0264130" lon="10.4656160">
	<ele>2561.40</ele>
	<time>2023-08-06T05:56:31.000Z</time>
</trkpt>
<trkpt lat="46.0264180" lon="10.4656060">
	<ele>2561.20</ele>
	<time>2023-08-06T05:56:32.000Z</time>
</trkpt>
<trkpt lat="46.0264240" lon="10.4656160">
	<ele>2561.20</ele>
	<time>2023-08-06T05:56:33.000Z</time>
</trkpt>
<trkpt lat="46.0264260" lon="10.4656200">
	<ele>2561.00</ele>
	<time>2023-08-06T05:56:34.000Z</time>
</trkpt>
<trkpt lat="46.0264260" lon="10.4656310">
	<ele>2560.80</ele>
	<time>2023-08-06T05:56:35.000Z</time>
</trkpt>
<trkpt lat="46.0264320" lon="10.4656450">
	<ele>2560.60</ele>
	<time>2023-08-06T05:56:36.000Z</time>
</trkpt>
<trkpt lat="46.0264340" lon="10.4656510">
	<ele>2560.40</ele>
	<time>2023-08-06T05:56:37.000Z</time>
</trkpt>
<trkpt lat="46.0264380" lon="10.4656550">
	<ele>2560.20</ele>
	<time>2023-08-06T05:56:38.000Z</time>
</trkpt>
<trkpt lat="46.0264400" lon="10.4656580">
	<ele>2560.20</ele>
	<time>2023-08-06T05:56:39.000Z</time>
</trkpt>
<trkpt lat="46.0264410" lon="10.4656640">
	<ele>2560.20</ele>
	<time>2023-08-06T05:56:40.000Z</time>
</trkpt>
<trkpt lat="46.0264420" lon="10.4656720">
	<ele>2560.00</ele>
	<time>2023-08-06T05:56:41.000Z</time>
</trkpt>
<trkpt lat="46.0264460" lon="10.4656760">
	<ele>2560.00</ele>
	<time>2023-08-06T05:56:42.000Z</time>
</trkpt>
<trkpt lat="46.0264480" lon="10.4656790">
	<ele>2560.20</ele>
	<time>2023-08-06T05:56:43.000Z</time>
</trkpt>
<trkpt lat="46.0264530" lon="10.4656810">
	<ele>2560.20</ele>
	<time>2023-08-06T05:56:44.000Z</time>
</trkpt>
<trkpt lat="46.0264600" lon="10.4656860">
	<ele>2560.20</ele>
	<time>2023-08-06T05:56:45.000Z</time>
</trkpt>
<trkpt lat="46.0264680" lon="10.4656840">
	<ele>2560.00</ele>
	<time>2023-08-06T05:56:46.000Z</time>
</trkpt>
<trkpt lat="46.0264780" lon="10.4656830">
	<ele>2559.60</ele>
	<time>2023-08-06T05:56:47.000Z</time>
</trkpt>
<trkpt lat="46.0264840" lon="10.4656830">
	<ele>2559.40</ele>
	<time>2023-08-06T05:56:48.000Z</time>
</trkpt>
<trkpt lat="46.0264910" lon="10.4656850">
	<ele>2559.20</ele>
	<time>2023-08-06T05:56:49.000Z</time>
</trkpt>
<trkpt lat="46.0265000" lon="10.4656900">
	<ele>2559.20</ele>
	<time>2023-08-06T05:56:50.000Z</time>
</trkpt>
<trkpt lat="46.0265080" lon="10.4656960">
	<ele>2559.00</ele>
	<time>2023-08-06T05:56:51.000Z</time>
</trkpt>
<trkpt lat="46.0265150" lon="10.4656960">
	<ele>2559.00</ele>
	<time>2023-08-06T05:56:52.000Z</time>
</trkpt>
<trkpt lat="46.0265220" lon="10.4656980">
	<ele>2558.80</ele>
	<time>2023-08-06T05:56:53.000Z</time>
</trkpt>
<trkpt lat="46.0265320" lon="10.4656980">
	<ele>2558.80</ele>
	<time>2023-08-06T05:56:54.000Z</time>
</trkpt>
<trkpt lat="46.0265420" lon="10.4656990">
	<ele>2558.60</ele>
	<time>2023-08-06T05:56:55.000Z</time>
</trkpt>
<trkpt lat="46.0265490" lon="10.4657000">
	<ele>2558.20</ele>
	<time>2023-08-06T05:56:56.000Z</time>
</trkpt>
<trkpt lat="46.0265560" lon="10.4657020">
	<ele>2558.00</ele>
	<time>2023-08-06T05:56:57.000Z</time>
</trkpt>
<trkpt lat="46.0265650" lon="10.4657080">
	<ele>2558.00</ele>
	<time>2023-08-06T05:56:58.000Z</time>
</trkpt>
<trkpt lat="46.0265750" lon="10.4657140">
	<ele>2557.80</ele>
	<time>2023-08-06T05:56:59.000Z</time>
</trkpt>
<trkpt lat="46.0265810" lon="10.4657150">
	<ele>2557.80</ele>
	<time>2023-08-06T05:57:00.000Z</time>
</trkpt>
<trkpt lat="46.0265900" lon="10.4657170">
	<ele>2557.80</ele>
	<time>2023-08-06T05:57:01.000Z</time>
</trkpt>
<trkpt lat="46.0265960" lon="10.4657170">
	<ele>2557.60</ele>
	<time>2023-08-06T05:57:02.000Z</time>
</trkpt>
<trkpt lat="46.0266020" lon="10.4657120">
	<ele>2557.40</ele>
	<time>2023-08-06T05:57:03.000Z</time>
</trkpt>
<trkpt lat="46.0266080" lon="10.4657110">
	<ele>2557.40</ele>
	<time>2023-08-06T05:57:04.000Z</time>
</trkpt>
<trkpt lat="46.0266160" lon="10.4657170">
	<ele>2557.40</ele>
	<time>2023-08-06T05:57:05.000Z</time>
</trkpt>
<trkpt lat="46.0266210" lon="10.4657230">
	<ele>2557.40</ele>
	<time>2023-08-06T05:57:06.000Z</time>
</trkpt>
<trkpt lat="46.0266240" lon="10.4657330">
	<ele>2557.20</ele>
	<time>2023-08-06T05:57:07.000Z</time>
</trkpt>
<trkpt lat="46.0266230" lon="10.4657420">
	<ele>2557.20</ele>
	<time>2023-08-06T05:57:08.000Z</time>
</trkpt>
<trkpt lat="46.0266230" lon="10.4657470">
	<ele>2557.20</ele>
	<time>2023-08-06T05:57:09.000Z</time>
</trkpt>
<trkpt lat="46.0266250" lon="10.4657510">
	<ele>2557.20</ele>
	<time>2023-08-06T05:57:10.000Z</time>
</trkpt>
<trkpt lat="46.0266270" lon="10.4657600">
	<ele>2557.20</ele>
	<time>2023-08-06T05:57:11.000Z</time>
</trkpt>
<trkpt lat="46.0266330" lon="10.4657650">
	<ele>2557.20</ele>
	<time>2023-08-06T05:57:12.000Z</time>
</trkpt>
<trkpt lat="46.0266380" lon="10.4657700">
	<ele>2557.20</ele>
	<time>2023-08-06T05:57:13.000Z</time>
</trkpt>
<trkpt lat="46.0266480" lon="10.4657730">
	<ele>2557.20</ele>
	<time>2023-08-06T05:57:14.000Z</time>
</trkpt>
<trkpt lat="46.0266580" lon="10.4657740">
	<ele>2556.80</ele>
	<time>2023-08-06T05:57:15.000Z</time>
</trkpt>
<trkpt lat="46.0266690" lon="10.4657800">
	<ele>2556.40</ele>
	<time>2023-08-06T05:57:16.000Z</time>
</trkpt>
<trkpt lat="46.0266770" lon="10.4657840">
	<ele>2556.20</ele>
	<time>2023-08-06T05:57:17.000Z</time>
</trkpt>
<trkpt lat="46.0266880" lon="10.4657840">
	<ele>2556.00</ele>
	<time>2023-08-06T05:57:18.000Z</time>
</trkpt>
<trkpt lat="46.0266980" lon="10.4657750">
	<ele>2556.00</ele>
	<time>2023-08-06T05:57:19.000Z</time>
</trkpt>
<trkpt lat="46.0267120" lon="10.4657640">
	<ele>2555.80</ele>
	<time>2023-08-06T05:57:20.000Z</time>
</trkpt>
<trkpt lat="46.0267190" lon="10.4657540">
	<ele>2555.80</ele>
	<time>2023-08-06T05:57:21.000Z</time>
</trkpt>
<trkpt lat="46.0267270" lon="10.4657530">
	<ele>2555.60</ele>
	<time>2023-08-06T05:57:22.000Z</time>
</trkpt>
<trkpt lat="46.0267310" lon="10.4657520">
	<ele>2555.40</ele>
	<time>2023-08-06T05:57:23.000Z</time>
</trkpt>
<trkpt lat="46.0267380" lon="10.4657540">
	<ele>2555.20</ele>
	<time>2023-08-06T05:57:24.000Z</time>
</trkpt>
<trkpt lat="46.0267430" lon="10.4657550">
	<ele>2555.20</ele>
	<time>2023-08-06T05:57:25.000Z</time>
</trkpt>
<trkpt lat="46.0267500" lon="10.4657460">
	<ele>2555.20</ele>
	<time>2023-08-06T05:57:26.000Z</time>
</trkpt>
<trkpt lat="46.0267550" lon="10.4657450">
	<ele>2555.20</ele>
	<time>2023-08-06T05:57:27.000Z</time>
</trkpt>
<trkpt lat="46.0267610" lon="10.4657370">
	<ele>2555.00</ele>
	<time>2023-08-06T05:57:28.000Z</time>
</trkpt>
<trkpt lat="46.0267680" lon="10.4657280">
	<ele>2555.00</ele>
	<time>2023-08-06T05:57:29.000Z</time>
</trkpt>
<trkpt lat="46.0267740" lon="10.4657200">
	<ele>2555.00</ele>
	<time>2023-08-06T05:57:30.000Z</time>
</trkpt>
<trkpt lat="46.0267820" lon="10.4657140">
	<ele>2555.00</ele>
	<time>2023-08-06T05:57:31.000Z</time>
</trkpt>
<trkpt lat="46.0267910" lon="10.4657160">
	<ele>2555.00</ele>
	<time>2023-08-06T05:57:32.000Z</time>
</trkpt>
<trkpt lat="46.0268000" lon="10.4657200">
	<ele>2554.80</ele>
	<time>2023-08-06T05:57:33.000Z</time>
</trkpt>
<trkpt lat="46.0268030" lon="10.4657160">
	<ele>2554.80</ele>
	<time>2023-08-06T05:57:34.000Z</time>
</trkpt>
<trkpt lat="46.0268020" lon="10.4657070">
	<ele>2554.80</ele>
	<time>2023-08-06T05:57:35.000Z</time>
</trkpt>
<trkpt lat="46.0268060" lon="10.4656940">
	<ele>2554.60</ele>
	<time>2023-08-06T05:57:36.000Z</time>
</trkpt>
<trkpt lat="46.0268100" lon="10.4656780">
	<ele>2554.40</ele>
	<time>2023-08-06T05:57:37.000Z</time>
</trkpt>
<trkpt lat="46.0268120" lon="10.4656670">
	<ele>2554.40</ele>
	<time>2023-08-06T05:57:38.000Z</time>
</trkpt>
<trkpt lat="46.0268130" lon="10.4656560">
	<ele>2554.40</ele>
	<time>2023-08-06T05:57:39.000Z</time>
</trkpt>
<trkpt lat="46.0268160" lon="10.4656450">
	<ele>2554.40</ele>
	<time>2023-08-06T05:57:40.000Z</time>
</trkpt>
<trkpt lat="46.0268210" lon="10.4656350">
	<ele>2554.40</ele>
	<time>2023-08-06T05:57:41.000Z</time>
</trkpt>
<trkpt lat="46.0268310" lon="10.4656300">
	<ele>2554.40</ele>
	<time>2023-08-06T05:57:42.000Z</time>
</trkpt>
<trkpt lat="46.0268390" lon="10.4656250">
	<ele>2554.20</ele>
	<time>2023-08-06T05:57:43.000Z</time>
</trkpt>
<trkpt lat="46.0268440" lon="10.4656220">
	<ele>2554.20</ele>
	<time>2023-08-06T05:57:44.000Z</time>
</trkpt>
<trkpt lat="46.0268510" lon="10.4656190">
	<ele>2554.00</ele>
	<time>2023-08-06T05:57:45.000Z</time>
</trkpt>
<trkpt lat="46.0268600" lon="10.4656180">
	<ele>2553.80</ele>
	<time>2023-08-06T05:57:46.000Z</time>
</trkpt>
<trkpt lat="46.0268720" lon="10.4656180">
	<ele>2553.80</ele>
	<time>2023-08-06T05:57:47.000Z</time>
</trkpt>
<trkpt lat="46.0268810" lon="10.4656180">
	<ele>2553.80</ele>
	<time>2023-08-06T05:57:48.000Z</time>
</trkpt>
<trkpt lat="46.0268900" lon="10.4656140">
	<ele>2553.60</ele>
	<time>2023-08-06T05:57:49.000Z</time>
</trkpt>
<trkpt lat="46.0268960" lon="10.4656090">
	<ele>2553.60</ele>
	<time>2023-08-06T05:57:50.000Z</time>
</trkpt>
<trkpt lat="46.0269000" lon="10.4656090">
	<ele>2553.60</ele>
	<time>2023-08-06T05:57:51.000Z</time>
</trkpt>
<trkpt lat="46.0269100" lon="10.4656140">
	<ele>2553.60</ele>
	<time>2023-08-06T05:57:52.000Z</time>
</trkpt>
<trkpt lat="46.0269130" lon="10.4656170">
	<ele>2553.40</ele>
	<time>2023-08-06T05:57:53.000Z</time>
</trkpt>
<trkpt lat="46.0269160" lon="10.4656240">
	<ele>2553.40</ele>
	<time>2023-08-06T05:57:54.000Z</time>
</trkpt>
<trkpt lat="46.0269180" lon="10.4656260">
	<ele>2553.40</ele>
	<time>2023-08-06T05:57:55.000Z</time>
</trkpt>
<trkpt lat="46.0269190" lon="10.4656290">
	<ele>2553.20</ele>
	<time>2023-08-06T05:57:56.000Z</time>
</trkpt>
<trkpt lat="46.0269170" lon="10.4656300">
	<ele>2553.20</ele>
	<time>2023-08-06T05:57:57.000Z</time>
</trkpt>
<trkpt lat="46.0269160" lon="10.4656300">
	<ele>2553.20</ele>
	<time>2023-08-06T05:57:58.000Z</time>
</trkpt>
<trkpt lat="46.0269130" lon="10.4656300">
	<ele>2553.20</ele>
	<time>2023-08-06T05:57:59.000Z</time>
</trkpt>
<trkpt lat="46.0269070" lon="10.4656330">
	<ele>2553.20</ele>
	<time>2023-08-06T05:58:00.000Z</time>
</trkpt>
<trkpt lat="46.0268980" lon="10.4656360">
	<ele>2553.00</ele>
	<time>2023-08-06T05:58:01.000Z</time>
</trkpt>
<trkpt lat="46.0268910" lon="10.4656390">
	<ele>2553.00</ele>
	<time>2023-08-06T05:58:02.000Z</time>
</trkpt>
<trkpt lat="46.0268840" lon="10.4656410">
	<ele>2553.20</ele>
	<time>2023-08-06T05:58:03.000Z</time>
</trkpt>
<trkpt lat="46.0268780" lon="10.4656470">
	<ele>2553.40</ele>
	<time>2023-08-06T05:58:04.000Z</time>
</trkpt>
<trkpt lat="46.0268750" lon="10.4656500">
	<ele>2553.40</ele>
	<time>2023-08-06T05:58:05.000Z</time>
</trkpt>
<trkpt lat="46.0268750" lon="10.4656530">
	<ele>2553.60</ele>
	<time>2023-08-06T05:58:06.000Z</time>
</trkpt>
<trkpt lat="46.0268770" lon="10.4656570">
	<ele>2553.60</ele>
	<time>2023-08-06T05:58:07.000Z</time>
</trkpt>
<trkpt lat="46.0268810" lon="10.4656630">
	<ele>2553.60</ele>
	<time>2023-08-06T05:58:08.000Z</time>
</trkpt>
<trkpt lat="46.0268840" lon="10.4656750">
	<ele>2553.60</ele>
	<time>2023-08-06T05:58:09.000Z</time>
</trkpt>
<trkpt lat="46.0268860" lon="10.4656880">
	<ele>2553.60</ele>
	<time>2023-08-06T05:58:10.000Z</time>
</trkpt>
<trkpt lat="46.0268890" lon="10.4657020">
	<ele>2553.60</ele>
	<time>2023-08-06T05:58:11.000Z</time>
</trkpt>
<trkpt lat="46.0268920" lon="10.4657120">
	<ele>2553.60</ele>
	<time>2023-08-06T05:58:12.000Z</time>
</trkpt>
<trkpt lat="46.0268940" lon="10.4657190">
	<ele>2553.60</ele>
	<time>2023-08-06T05:58:13.000Z</time>
</trkpt>
<trkpt lat="46.0268980" lon="10.4657270">
	<ele>2553.60</ele>
	<time>2023-08-06T05:58:14.000Z</time>
</trkpt>
<trkpt lat="46.0269010" lon="10.4657350">
	<ele>2553.60</ele>
	<time>2023-08-06T05:58:15.000Z</time>
</trkpt>
<trkpt lat="46.0269090" lon="10.4657440">
	<ele>2553.60</ele>
	<time>2023-08-06T05:58:16.000Z</time>
</trkpt>
<trkpt lat="46.0269200" lon="10.4657520">
	<ele>2553.40</ele>
	<time>2023-08-06T05:58:17.000Z</time>
</trkpt>
<trkpt lat="46.0269290" lon="10.4657600">
	<ele>2553.20</ele>
	<time>2023-08-06T05:58:18.000Z</time>
</trkpt>
<trkpt lat="46.0269310" lon="10.4657690">
	<ele>2553.20</ele>
	<time>2023-08-06T05:58:19.000Z</time>
</trkpt>
<trkpt lat="46.0269360" lon="10.4657800">
	<ele>2553.00</ele>
	<time>2023-08-06T05:58:20.000Z</time>
</trkpt>
<trkpt lat="46.0269420" lon="10.4657890">
	<ele>2552.80</ele>
	<time>2023-08-06T05:58:21.000Z</time>
</trkpt>
<trkpt lat="46.0269500" lon="10.4657950">
	<ele>2552.80</ele>
	<time>2023-08-06T05:58:22.000Z</time>
</trkpt>
<trkpt lat="46.0269560" lon="10.4658030">
	<ele>2552.80</ele>
	<time>2023-08-06T05:58:23.000Z</time>
</trkpt>
<trkpt lat="46.0269620" lon="10.4658130">
	<ele>2552.60</ele>
	<time>2023-08-06T05:58:24.000Z</time>
</trkpt>
<trkpt lat="46.0269660" lon="10.4658270">
	<ele>2552.60</ele>
	<time>2023-08-06T05:58:25.000Z</time>
</trkpt>
<trkpt lat="46.0269670" lon="10.4658400">
	<ele>2552.40</ele>
	<time>2023-08-06T05:58:26.000Z</time>
</trkpt>
<trkpt lat="46.0269700" lon="10.4658580">
	<ele>2552.20</ele>
	<time>2023-08-06T05:58:27.000Z</time>
</trkpt>
<trkpt lat="46.0269720" lon="10.4658730">
	<ele>2552.20</ele>
	<time>2023-08-06T05:58:28.000Z</time>
</trkpt>
<trkpt lat="46.0269710" lon="10.4658850">
	<ele>2551.80</ele>
	<time>2023-08-06T05:58:29.000Z</time>
</trkpt>
<trkpt lat="46.0269690" lon="10.4658930">
	<ele>2551.80</ele>
	<time>2023-08-06T05:58:30.000Z</time>
</trkpt>
<trkpt lat="46.0269660" lon="10.4659030">
	<ele>2551.60</ele>
	<time>2023-08-06T05:58:31.000Z</time>
</trkpt>
<trkpt lat="46.0269620" lon="10.4659090">
	<ele>2551.60</ele>
	<time>2023-08-06T05:58:32.000Z</time>
</trkpt>
<trkpt lat="46.0269590" lon="10.4659190">
	<ele>2551.60</ele>
	<time>2023-08-06T05:58:33.000Z</time>
</trkpt>
<trkpt lat="46.0269560" lon="10.4659280">
	<ele>2551.40</ele>
	<time>2023-08-06T05:58:34.000Z</time>
</trkpt>
<trkpt lat="46.0269560" lon="10.4659370">
	<ele>2551.20</ele>
	<time>2023-08-06T05:58:35.000Z</time>
</trkpt>
<trkpt lat="46.0269610" lon="10.4659510">
	<ele>2551.20</ele>
	<time>2023-08-06T05:58:36.000Z</time>
</trkpt>
<trkpt lat="46.0269690" lon="10.4659560">
	<ele>2551.00</ele>
	<time>2023-08-06T05:58:37.000Z</time>
</trkpt>
<trkpt lat="46.0269670" lon="10.4659650">
	<ele>2551.00</ele>
	<time>2023-08-06T05:58:38.000Z</time>
</trkpt>
<trkpt lat="46.0269720" lon="10.4659690">
	<ele>2550.80</ele>
	<time>2023-08-06T05:58:39.000Z</time>
</trkpt>
<trkpt lat="46.0269770" lon="10.4659790">
	<ele>2550.60</ele>
	<time>2023-08-06T05:58:40.000Z</time>
</trkpt>
<trkpt lat="46.0269810" lon="10.4659900">
	<ele>2550.40</ele>
	<time>2023-08-06T05:58:41.000Z</time>
</trkpt>
<trkpt lat="46.0269860" lon="10.4660040">
	<ele>2550.40</ele>
	<time>2023-08-06T05:58:42.000Z</time>
</trkpt>
<trkpt lat="46.0269900" lon="10.4660140">
	<ele>2549.60</ele>
	<time>2023-08-06T05:58:43.000Z</time>
</trkpt>
<trkpt lat="46.0269930" lon="10.4660230">
	<ele>2549.20</ele>
	<time>2023-08-06T05:58:44.000Z</time>
</trkpt>
<trkpt lat="46.0269970" lon="10.4660290">
	<ele>2549.00</ele>
	<time>2023-08-06T05:58:45.000Z</time>
</trkpt>
<trkpt lat="46.0269980" lon="10.4660340">
	<ele>2548.80</ele>
	<time>2023-08-06T05:58:46.000Z</time>
</trkpt>
<trkpt lat="46.0270000" lon="10.4660450">
	<ele>2548.60</ele>
	<time>2023-08-06T05:58:47.000Z</time>
</trkpt>
<trkpt lat="46.0270010" lon="10.4660530">
	<ele>2548.60</ele>
	<time>2023-08-06T05:58:48.000Z</time>
</trkpt>
<trkpt lat="46.0270010" lon="10.4660600">
	<ele>2548.60</ele>
	<time>2023-08-06T05:58:49.000Z</time>
</trkpt>
<trkpt lat="46.0270020" lon="10.4660650">
	<ele>2548.40</ele>
	<time>2023-08-06T05:58:50.000Z</time>
</trkpt>
<trkpt lat="46.0270040" lon="10.4660680">
	<ele>2548.40</ele>
	<time>2023-08-06T05:58:51.000Z</time>
</trkpt>
<trkpt lat="46.0270060" lon="10.4660700">
	<ele>2548.20</ele>
	<time>2023-08-06T05:58:52.000Z</time>
</trkpt>
<trkpt lat="46.0270070" lon="10.4660760">
	<ele>2547.80</ele>
	<time>2023-08-06T05:58:53.000Z</time>
</trkpt>
<trkpt lat="46.0270070" lon="10.4660840">
	<ele>2547.60</ele>
	<time>2023-08-06T05:58:54.000Z</time>
</trkpt>
<trkpt lat="46.0270110" lon="10.4660910">
	<ele>2547.20</ele>
	<time>2023-08-06T05:58:55.000Z</time>
</trkpt>
<trkpt lat="46.0270160" lon="10.4661000">
	<ele>2547.00</ele>
	<time>2023-08-06T05:58:56.000Z</time>
</trkpt>
<trkpt lat="46.0270230" lon="10.4661070">
	<ele>2547.00</ele>
	<time>2023-08-06T05:58:57.000Z</time>
</trkpt>
<trkpt lat="46.0270280" lon="10.4661100">
	<ele>2546.80</ele>
	<time>2023-08-06T05:58:58.000Z</time>
</trkpt>
<trkpt lat="46.0270310" lon="10.4661160">
	<ele>2546.60</ele>
	<time>2023-08-06T05:58:59.000Z</time>
</trkpt>
<trkpt lat="46.0270330" lon="10.4661190">
	<ele>2546.40</ele>
	<time>2023-08-06T05:59:00.000Z</time>
</trkpt>
<trkpt lat="46.0270360" lon="10.4661210">
	<ele>2546.20</ele>
	<time>2023-08-06T05:59:01.000Z</time>
</trkpt>
<trkpt lat="46.0270410" lon="10.4661220">
	<ele>2546.00</ele>
	<time>2023-08-06T05:59:02.000Z</time>
</trkpt>
<trkpt lat="46.0270480" lon="10.4661160">
	<ele>2546.00</ele>
	<time>2023-08-06T05:59:03.000Z</time>
</trkpt>
<trkpt lat="46.0270520" lon="10.4661140">
	<ele>2545.80</ele>
	<time>2023-08-06T05:59:04.000Z</time>
</trkpt>
<trkpt lat="46.0270570" lon="10.4661240">
	<ele>2545.80</ele>
	<time>2023-08-06T05:59:05.000Z</time>
</trkpt>
<trkpt lat="46.0270590" lon="10.4661340">
	<ele>2545.80</ele>
	<time>2023-08-06T05:59:06.000Z</time>
</trkpt>
<trkpt lat="46.0270580" lon="10.4661420">
	<ele>2545.80</ele>
	<time>2023-08-06T05:59:07.000Z</time>
</trkpt>
<trkpt lat="46.0270570" lon="10.4661480">
	<ele>2545.60</ele>
	<time>2023-08-06T05:59:08.000Z</time>
</trkpt>
<trkpt lat="46.0270640" lon="10.4661560">
	<ele>2545.40</ele>
	<time>2023-08-06T05:59:09.000Z</time>
</trkpt>
<trkpt lat="46.0270680" lon="10.4661650">
	<ele>2545.20</ele>
	<time>2023-08-06T05:59:10.000Z</time>
</trkpt>
<trkpt lat="46.0270720" lon="10.4661710">
	<ele>2545.00</ele>
	<time>2023-08-06T05:59:11.000Z</time>
</trkpt>
<trkpt lat="46.0270750" lon="10.4661790">
	<ele>2544.80</ele>
	<time>2023-08-06T05:59:12.000Z</time>
</trkpt>
<trkpt lat="46.0270770" lon="10.4661910">
	<ele>2544.60</ele>
	<time>2023-08-06T05:59:13.000Z</time>
</trkpt>
<trkpt lat="46.0270770" lon="10.4662010">
	<ele>2544.60</ele>
	<time>2023-08-06T05:59:14.000Z</time>
</trkpt>
<trkpt lat="46.0270750" lon="10.4662070">
	<ele>2544.60</ele>
	<time>2023-08-06T05:59:15.000Z</time>
</trkpt>
<trkpt lat="46.0270740" lon="10.4662160">
	<ele>2544.40</ele>
	<time>2023-08-06T05:59:16.000Z</time>
</trkpt>
<trkpt lat="46.0270730" lon="10.4662280">
	<ele>2544.40</ele>
	<time>2023-08-06T05:59:17.000Z</time>
</trkpt>
<trkpt lat="46.0270740" lon="10.4662340">
	<ele>2544.20</ele>
	<time>2023-08-06T05:59:18.000Z</time>
</trkpt>
<trkpt lat="46.0270750" lon="10.4662360">
	<ele>2544.20</ele>
	<time>2023-08-06T05:59:19.000Z</time>
</trkpt>
<trkpt lat="46.0270790" lon="10.4662420">
	<ele>2544.00</ele>
	<time>2023-08-06T05:59:20.000Z</time>
</trkpt>
<trkpt lat="46.0270820" lon="10.4662520">
	<ele>2544.00</ele>
	<time>2023-08-06T05:59:21.000Z</time>
</trkpt>
<trkpt lat="46.0270830" lon="10.4662610">
	<ele>2543.80</ele>
	<time>2023-08-06T05:59:22.000Z</time>
</trkpt>
<trkpt lat="46.0270830" lon="10.4662660">
	<ele>2543.80</ele>
	<time>2023-08-06T05:59:23.000Z</time>
</trkpt>
<trkpt lat="46.0270810" lon="10.4662660">
	<ele>2543.60</ele>
	<time>2023-08-06T05:59:24.000Z</time>
</trkpt>
<trkpt lat="46.0270790" lon="10.4662710">
	<ele>2543.20</ele>
	<time>2023-08-06T05:59:25.000Z</time>
</trkpt>
<trkpt lat="46.0270810" lon="10.4662750">
	<ele>2543.00</ele>
	<time>2023-08-06T05:59:26.000Z</time>
</trkpt>
<trkpt lat="46.0270800" lon="10.4662800">
	<ele>2543.00</ele>
	<time>2023-08-06T05:59:27.000Z</time>
</trkpt>
<trkpt lat="46.0270810" lon="10.4662850">
	<ele>2542.80</ele>
	<time>2023-08-06T05:59:28.000Z</time>
</trkpt>
<trkpt lat="46.0270840" lon="10.4662870">
	<ele>2542.80</ele>
	<time>2023-08-06T05:59:29.000Z</time>
</trkpt>
<trkpt lat="46.0270870" lon="10.4662980">
	<ele>2542.40</ele>
	<time>2023-08-06T05:59:30.000Z</time>
</trkpt>
<trkpt lat="46.0270880" lon="10.4663110">
	<ele>2542.00</ele>
	<time>2023-08-06T05:59:31.000Z</time>
</trkpt>
<trkpt lat="46.0270880" lon="10.4663190">
	<ele>2541.60</ele>
	<time>2023-08-06T05:59:32.000Z</time>
</trkpt>
<trkpt lat="46.0270930" lon="10.4663250">
	<ele>2541.40</ele>
	<time>2023-08-06T05:59:33.000Z</time>
</trkpt>
<trkpt lat="46.0270970" lon="10.4663290">
	<ele>2541.40</ele>
	<time>2023-08-06T05:59:34.000Z</time>
</trkpt>
<trkpt lat="46.0271040" lon="10.4663370">
	<ele>2541.20</ele>
	<time>2023-08-06T05:59:35.000Z</time>
</trkpt>
<trkpt lat="46.0271070" lon="10.4663450">
	<ele>2541.20</ele>
	<time>2023-08-06T05:59:36.000Z</time>
</trkpt>
<trkpt lat="46.0271110" lon="10.4663520">
	<ele>2541.00</ele>
	<time>2023-08-06T05:59:37.000Z</time>
</trkpt>
<trkpt lat="46.0271170" lon="10.4663610">
	<ele>2541.00</ele>
	<time>2023-08-06T05:59:38.000Z</time>
</trkpt>
<trkpt lat="46.0271210" lon="10.4663710">
	<ele>2540.60</ele>
	<time>2023-08-06T05:59:39.000Z</time>
</trkpt>
<trkpt lat="46.0271210" lon="10.4663760">
	<ele>2540.20</ele>
	<time>2023-08-06T05:59:40.000Z</time>
</trkpt>
<trkpt lat="46.0271260" lon="10.4663820">
	<ele>2540.00</ele>
	<time>2023-08-06T05:59:41.000Z</time>
</trkpt>
<trkpt lat="46.0271280" lon="10.4663850">
	<ele>2539.80</ele>
	<time>2023-08-06T05:59:42.000Z</time>
</trkpt>
<trkpt lat="46.0271270" lon="10.4663870">
	<ele>2539.60</ele>
	<time>2023-08-06T05:59:43.000Z</time>
</trkpt>
<trkpt lat="46.0271260" lon="10.4663940">
	<ele>2539.40</ele>
	<time>2023-08-06T05:59:44.000Z</time>
</trkpt>
<trkpt lat="46.0271260" lon="10.4663990">
	<ele>2539.20</ele>
	<time>2023-08-06T05:59:45.000Z</time>
</trkpt>
<trkpt lat="46.0271270" lon="10.4664080">
	<ele>2539.20</ele>
	<time>2023-08-06T05:59:46.000Z</time>
</trkpt>
<trkpt lat="46.0271330" lon="10.4664170">
	<ele>2539.00</ele>
	<time>2023-08-06T05:59:47.000Z</time>
</trkpt>
<trkpt lat="46.0271380" lon="10.4664210">
	<ele>2539.00</ele>
	<time>2023-08-06T05:59:48.000Z</time>
</trkpt>
<trkpt lat="46.0271480" lon="10.4664280">
	<ele>2538.80</ele>
	<time>2023-08-06T05:59:49.000Z</time>
</trkpt>
<trkpt lat="46.0271530" lon="10.4664300">
	<ele>2538.60</ele>
	<time>2023-08-06T05:59:50.000Z</time>
</trkpt>
<trkpt lat="46.0271560" lon="10.4664320">
	<ele>2538.20</ele>
	<time>2023-08-06T05:59:51.000Z</time>
</trkpt>
<trkpt lat="46.0271600" lon="10.4664400">
	<ele>2537.80</ele>
	<time>2023-08-06T05:59:52.000Z</time>
</trkpt>
<trkpt lat="46.0271630" lon="10.4664470">
	<ele>2537.60</ele>
	<time>2023-08-06T05:59:53.000Z</time>
</trkpt>
<trkpt lat="46.0271650" lon="10.4664550">
	<ele>2537.40</ele>
	<time>2023-08-06T05:59:54.000Z</time>
</trkpt>
<trkpt lat="46.0271630" lon="10.4664650">
	<ele>2537.20</ele>
	<time>2023-08-06T05:59:55.000Z</time>
</trkpt>
<trkpt lat="46.0271590" lon="10.4664750">
	<ele>2537.00</ele>
	<time>2023-08-06T05:59:56.000Z</time>
</trkpt>
<trkpt lat="46.0271580" lon="10.4664820">
	<ele>2536.60</ele>
	<time>2023-08-06T05:59:57.000Z</time>
</trkpt>
<trkpt lat="46.0271570" lon="10.4664880">
	<ele>2536.00</ele>
	<time>2023-08-06T05:59:58.000Z</time>
</trkpt>
<trkpt lat="46.0271490" lon="10.4665000">
	<ele>2535.60</ele>
	<time>2023-08-06T05:59:59.000Z</time>
</trkpt>
<trkpt lat="46.0271430" lon="10.4665050">
	<ele>2535.40</ele>
	<time>2023-08-06T06:00:00.000Z</time>
</trkpt>
<trkpt lat="46.0271400" lon="10.4665110">
	<ele>2535.20</ele>
	<time>2023-08-06T06:00:01.000Z</time>
</trkpt>
<trkpt lat="46.0271400" lon="10.4665170">
	<ele>2535.00</ele>
	<time>2023-08-06T06:00:02.000Z</time>
</trkpt>
<trkpt lat="46.0271410" lon="10.4665310">
	<ele>2535.00</ele>
	<time>2023-08-06T06:00:03.000Z</time>
</trkpt>
<trkpt lat="46.0271400" lon="10.4665460">
	<ele>2534.80</ele>
	<time>2023-08-06T06:00:04.000Z</time>
</trkpt>
<trkpt lat="46.0271400" lon="10.4665550">
	<ele>2534.80</ele>
	<time>2023-08-06T06:00:05.000Z</time>
</trkpt>
<trkpt lat="46.0271440" lon="10.4665700">
	<ele>2534.80</ele>
	<time>2023-08-06T06:00:06.000Z</time>
</trkpt>
<trkpt lat="46.0271460" lon="10.4665800">
	<ele>2534.60</ele>
	<time>2023-08-06T06:00:07.000Z</time>
</trkpt>
<trkpt lat="46.0271480" lon="10.4665900">
	<ele>2534.40</ele>
	<time>2023-08-06T06:00:08.000Z</time>
</trkpt>
<trkpt lat="46.0271480" lon="10.4666010">
	<ele>2534.40</ele>
	<time>2023-08-06T06:00:09.000Z</time>
</trkpt>
<trkpt lat="46.0271510" lon="10.4666110">
	<ele>2534.20</ele>
	<time>2023-08-06T06:00:10.000Z</time>
</trkpt>
<trkpt lat="46.0271530" lon="10.4666240">
	<ele>2534.00</ele>
	<time>2023-08-06T06:00:11.000Z</time>
</trkpt>
<trkpt lat="46.0271520" lon="10.4666340">
	<ele>2534.00</ele>
	<time>2023-08-06T06:00:12.000Z</time>
</trkpt>
<trkpt lat="46.0271470" lon="10.4666480">
	<ele>2533.80</ele>
	<time>2023-08-06T06:00:13.000Z</time>
</trkpt>
<trkpt lat="46.0271400" lon="10.4666600">
	<ele>2533.60</ele>
	<time>2023-08-06T06:00:14.000Z</time>
</trkpt>
<trkpt lat="46.0271350" lon="10.4666700">
	<ele>2533.20</ele>
	<time>2023-08-06T06:00:15.000Z</time>
</trkpt>
<trkpt lat="46.0271320" lon="10.4666800">
	<ele>2533.00</ele>
	<time>2023-08-06T06:00:16.000Z</time>
</trkpt>
<trkpt lat="46.0271290" lon="10.4666900">
	<ele>2533.00</ele>
	<time>2023-08-06T06:00:17.000Z</time>
</trkpt>
<trkpt lat="46.0271280" lon="10.4666990">
	<ele>2533.00</ele>
	<time>2023-08-06T06:00:18.000Z</time>
</trkpt>
<trkpt lat="46.0271280" lon="10.4667070">
	<ele>2533.00</ele>
	<time>2023-08-06T06:00:19.000Z</time>
</trkpt>
<trkpt lat="46.0271300" lon="10.4667120">
	<ele>2533.00</ele>
	<time>2023-08-06T06:00:20.000Z</time>
</trkpt>
<trkpt lat="46.0271260" lon="10.4667250">
	<ele>2532.80</ele>
	<time>2023-08-06T06:00:21.000Z</time>
</trkpt>
<trkpt lat="46.0271170" lon="10.4667330">
	<ele>2532.80</ele>
	<time>2023-08-06T06:00:22.000Z</time>
</trkpt>
<trkpt lat="46.0271160" lon="10.4667390">
	<ele>2532.60</ele>
	<time>2023-08-06T06:00:23.000Z</time>
</trkpt>
<trkpt lat="46.0271150" lon="10.4667490">
	<ele>2532.40</ele>
	<time>2023-08-06T06:00:24.000Z</time>
</trkpt>
<trkpt lat="46.0271150" lon="10.4667590">
	<ele>2532.20</ele>
	<time>2023-08-06T06:00:25.000Z</time>
</trkpt>
<trkpt lat="46.0271140" lon="10.4667670">
	<ele>2532.20</ele>
	<time>2023-08-06T06:00:26.000Z</time>
</trkpt>
<trkpt lat="46.0271130" lon="10.4667750">
	<ele>2532.00</ele>
	<time>2023-08-06T06:00:27.000Z</time>
</trkpt>
<trkpt lat="46.0271120" lon="10.4667830">
	<ele>2532.00</ele>
	<time>2023-08-06T06:00:28.000Z</time>
</trkpt>
<trkpt lat="46.0271140" lon="10.4667950">
	<ele>2532.00</ele>
	<time>2023-08-06T06:00:29.000Z</time>
</trkpt>
<trkpt lat="46.0271150" lon="10.4668100">
	<ele>2532.00</ele>
	<time>2023-08-06T06:00:30.000Z</time>
</trkpt>
<trkpt lat="46.0271150" lon="10.4668220">
	<ele>2532.20</ele>
	<time>2023-08-06T06:00:31.000Z</time>
</trkpt>
<trkpt lat="46.0271180" lon="10.4668340">
	<ele>2532.40</ele>
	<time>2023-08-06T06:00:32.000Z</time>
</trkpt>
<trkpt lat="46.0271210" lon="10.4668460">
	<ele>2532.40</ele>
	<time>2023-08-06T06:00:33.000Z</time>
</trkpt>
<trkpt lat="46.0271230" lon="10.4668550">
	<ele>2532.40</ele>
	<time>2023-08-06T06:00:34.000Z</time>
</trkpt>
<trkpt lat="46.0271270" lon="10.4668620">
	<ele>2532.40</ele>
	<time>2023-08-06T06:00:35.000Z</time>
</trkpt>
<trkpt lat="46.0271340" lon="10.4668730">
	<ele>2532.40</ele>
	<time>2023-08-06T06:00:36.000Z</time>
</trkpt>
<trkpt lat="46.0271360" lon="10.4668850">
	<ele>2532.40</ele>
	<time>2023-08-06T06:00:37.000Z</time>
</trkpt>
<trkpt lat="46.0271360" lon="10.4668960">
	<ele>2531.80</ele>
	<time>2023-08-06T06:00:38.000Z</time>
</trkpt>
<trkpt lat="46.0271340" lon="10.4669080">
	<ele>2531.20</ele>
	<time>2023-08-06T06:00:39.000Z</time>
</trkpt>
<trkpt lat="46.0271320" lon="10.4669130">
	<ele>2530.80</ele>
	<time>2023-08-06T06:00:40.000Z</time>
</trkpt>
<trkpt lat="46.0271300" lon="10.4669170">
	<ele>2530.40</ele>
	<time>2023-08-06T06:00:41.000Z</time>
</trkpt>
<trkpt lat="46.0271290" lon="10.4669200">
	<ele>2530.20</ele>
	<time>2023-08-06T06:00:42.000Z</time>
</trkpt>
<trkpt lat="46.0271320" lon="10.4669240">
	<ele>2530.00</ele>
	<time>2023-08-06T06:00:43.000Z</time>
</trkpt>
<trkpt lat="46.0271380" lon="10.4669290">
	<ele>2529.80</ele>
	<time>2023-08-06T06:00:44.000Z</time>
</trkpt>
<trkpt lat="46.0271430" lon="10.4669360">
	<ele>2529.80</ele>
	<time>2023-08-06T06:00:45.000Z</time>
</trkpt>
<trkpt lat="46.0271450" lon="10.4669410">
	<ele>2529.80</ele>
	<time>2023-08-06T06:00:46.000Z</time>
</trkpt>
<trkpt lat="46.0271470" lon="10.4669450">
	<ele>2529.60</ele>
	<time>2023-08-06T06:00:47.000Z</time>
</trkpt>
<trkpt lat="46.0271510" lon="10.4669460">
	<ele>2529.60</ele>
	<time>2023-08-06T06:00:48.000Z</time>
</trkpt>
<trkpt lat="46.0271530" lon="10.4669480">
	<ele>2529.40</ele>
	<time>2023-08-06T06:00:49.000Z</time>
</trkpt>
<trkpt lat="46.0271550" lon="10.4669520">
	<ele>2529.00</ele>
	<time>2023-08-06T06:00:50.000Z</time>
</trkpt>
<trkpt lat="46.0271570" lon="10.4669570">
	<ele>2528.80</ele>
	<time>2023-08-06T06:00:51.000Z</time>
</trkpt>
<trkpt lat="46.0271590" lon="10.4669640">
	<ele>2528.60</ele>
	<time>2023-08-06T06:00:52.000Z</time>
</trkpt>
<trkpt lat="46.0271590" lon="10.4669700">
	<ele>2528.40</ele>
	<time>2023-08-06T06:00:53.000Z</time>
</trkpt>
<trkpt lat="46.0271620" lon="10.4669770">
	<ele>2528.40</ele>
	<time>2023-08-06T06:00:54.000Z</time>
</trkpt>
<trkpt lat="46.0271640" lon="10.4669820">
	<ele>2528.20</ele>
	<time>2023-08-06T06:00:55.000Z</time>
</trkpt>
<trkpt lat="46.0271670" lon="10.4669900">
	<ele>2528.00</ele>
	<time>2023-08-06T06:00:56.000Z</time>
</trkpt>
<trkpt lat="46.0271730" lon="10.4669970">
	<ele>2527.80</ele>
	<time>2023-08-06T06:00:57.000Z</time>
</trkpt>
<trkpt lat="46.0271790" lon="10.4669980">
	<ele>2527.80</ele>
	<time>2023-08-06T06:00:58.000Z</time>
</trkpt>
<trkpt lat="46.0271810" lon="10.4670010">
	<ele>2527.60</ele>
	<time>2023-08-06T06:00:59.000Z</time>
</trkpt>
<trkpt lat="46.0271880" lon="10.4670070">
	<ele>2527.60</ele>
	<time>2023-08-06T06:01:00.000Z</time>
</trkpt>
<trkpt lat="46.0271960" lon="10.4670130">
	<ele>2527.60</ele>
	<time>2023-08-06T06:01:01.000Z</time>
</trkpt>
<trkpt lat="46.0272040" lon="10.4670190">
	<ele>2527.40</ele>
	<time>2023-08-06T06:01:02.000Z</time>
</trkpt>
<trkpt lat="46.0272090" lon="10.4670290">
	<ele>2526.80</ele>
	<time>2023-08-06T06:01:03.000Z</time>
</trkpt>
<trkpt lat="46.0272120" lon="10.4670400">
	<ele>2526.60</ele>
	<time>2023-08-06T06:01:04.000Z</time>
</trkpt>
<trkpt lat="46.0272190" lon="10.4670510">
	<ele>2526.40</ele>
	<time>2023-08-06T06:01:05.000Z</time>
</trkpt>
<trkpt lat="46.0272240" lon="10.4670660">
	<ele>2526.40</ele>
	<time>2023-08-06T06:01:06.000Z</time>
</trkpt>
<trkpt lat="46.0272290" lon="10.4670780">
	<ele>2526.20</ele>
	<time>2023-08-06T06:01:07.000Z</time>
</trkpt>
<trkpt lat="46.0272300" lon="10.4670870">
	<ele>2526.00</ele>
	<time>2023-08-06T06:01:08.000Z</time>
</trkpt>
<trkpt lat="46.0272360" lon="10.4670970">
	<ele>2525.80</ele>
	<time>2023-08-06T06:01:09.000Z</time>
</trkpt>
<trkpt lat="46.0272390" lon="10.4671060">
	<ele>2525.60</ele>
	<time>2023-08-06T06:01:10.000Z</time>
</trkpt>
<trkpt lat="46.0272430" lon="10.4671150">
	<ele>2525.20</ele>
	<time>2023-08-06T06:01:11.000Z</time>
</trkpt>
<trkpt lat="46.0272480" lon="10.4671280">
	<ele>2525.20</ele>
	<time>2023-08-06T06:01:12.000Z</time>
</trkpt>
<trkpt lat="46.0272520" lon="10.4671410">
	<ele>2525.20</ele>
	<time>2023-08-06T06:01:13.000Z</time>
</trkpt>
<trkpt lat="46.0272520" lon="10.4671530">
	<ele>2525.40</ele>
	<time>2023-08-06T06:01:14.000Z</time>
</trkpt>
<trkpt lat="46.0272510" lon="10.4671660">
	<ele>2525.40</ele>
	<time>2023-08-06T06:01:15.000Z</time>
</trkpt>
<trkpt lat="46.0272520" lon="10.4671760">
	<ele>2525.40</ele>
	<time>2023-08-06T06:01:16.000Z</time>
</trkpt>
<trkpt lat="46.0272510" lon="10.4671810">
	<ele>2525.40</ele>
	<time>2023-08-06T06:01:17.000Z</time>
</trkpt>
<trkpt lat="46.0272520" lon="10.4671910">
	<ele>2525.60</ele>
	<time>2023-08-06T06:01:18.000Z</time>
</trkpt>
<trkpt lat="46.0272560" lon="10.4672030">
	<ele>2525.60</ele>
	<time>2023-08-06T06:01:19.000Z</time>
</trkpt>
<trkpt lat="46.0272620" lon="10.4672170">
	<ele>2525.60</ele>
	<time>2023-08-06T06:01:20.000Z</time>
</trkpt>
<trkpt lat="46.0272700" lon="10.4672240">
	<ele>2525.80</ele>
	<time>2023-08-06T06:01:21.000Z</time>
</trkpt>
<trkpt lat="46.0272820" lon="10.4672280">
	<ele>2525.80</ele>
	<time>2023-08-06T06:01:22.000Z</time>
</trkpt>
<trkpt lat="46.0272870" lon="10.4672290">
	<ele>2525.80</ele>
	<time>2023-08-06T06:01:23.000Z</time>
</trkpt>
<trkpt lat="46.0272920" lon="10.4672390">
	<ele>2526.00</ele>
	<time>2023-08-06T06:01:24.000Z</time>
</trkpt>
<trkpt lat="46.0272930" lon="10.4672500">
	<ele>2526.40</ele>
	<time>2023-08-06T06:01:25.000Z</time>
</trkpt>
<trkpt lat="46.0272950" lon="10.4672610">
	<ele>2526.60</ele>
	<time>2023-08-06T06:01:26.000Z</time>
</trkpt>
<trkpt lat="46.0272990" lon="10.4672700">
	<ele>2526.60</ele>
	<time>2023-08-06T06:01:27.000Z</time>
</trkpt>
<trkpt lat="46.0273000" lon="10.4672760">
	<ele>2526.60</ele>
	<time>2023-08-06T06:01:28.000Z</time>
</trkpt>
<trkpt lat="46.0273000" lon="10.4672780">
	<ele>2526.00</ele>
	<time>2023-08-06T06:01:29.000Z</time>
</trkpt>
<trkpt lat="46.0273000" lon="10.4672780">
	<ele>2525.60</ele>
	<time>2023-08-06T06:01:30.000Z</time>
</trkpt>
<trkpt lat="46.0273000" lon="10.4672780">
	<ele>2525.40</ele>
	<time>2023-08-06T06:01:31.000Z</time>
</trkpt>
<trkpt lat="46.0272990" lon="10.4672790">
	<ele>2525.40</ele>
	<time>2023-08-06T06:01:32.000Z</time>
</trkpt>
<trkpt lat="46.0272990" lon="10.4672800">
	<ele>2525.20</ele>
	<time>2023-08-06T06:01:33.000Z</time>
</trkpt>
<trkpt lat="46.0272990" lon="10.4672830">
	<ele>2525.60</ele>
	<time>2023-08-06T06:01:34.000Z</time>
</trkpt>
<trkpt lat="46.0272990" lon="10.4672840">
	<ele>2525.80</ele>
	<time>2023-08-06T06:01:35.000Z</time>
</trkpt>
<trkpt lat="46.0273000" lon="10.4672850">
	<ele>2525.80</ele>
	<time>2023-08-06T06:01:36.000Z</time>
</trkpt>
<trkpt lat="46.0273000" lon="10.4672840">
	<ele>2525.80</ele>
	<time>2023-08-06T06:01:37.000Z</time>
</trkpt>
<trkpt lat="46.0272960" lon="10.4672880">
	<ele>2526.00</ele>
	<time>2023-08-06T06:01:38.000Z</time>
</trkpt>
<trkpt lat="46.0272950" lon="10.4672930">
	<ele>2526.20</ele>
	<time>2023-08-06T06:01:39.000Z</time>
</trkpt>
<trkpt lat="46.0272950" lon="10.4672990">
	<ele>2526.20</ele>
	<time>2023-08-06T06:01:40.000Z</time>
</trkpt>
<trkpt lat="46.0272950" lon="10.4673060">
	<ele>2526.20</ele>
	<time>2023-08-06T06:01:41.000Z</time>
</trkpt>
<trkpt lat="46.0272950" lon="10.4673060">
	<ele>2526.20</ele>
	<time>2023-08-06T06:01:42.000Z</time>
</trkpt>
<trkpt lat="46.0272990" lon="10.4673090">
	<ele>2526.40</ele>
	<time>2023-08-06T06:01:43.000Z</time>
</trkpt>
<trkpt lat="46.0272980" lon="10.4673090">
	<ele>2526.40</ele>
	<time>2023-08-06T06:01:44.000Z</time>
</trkpt>
<trkpt lat="46.0272980" lon="10.4673090">
	<ele>2526.60</ele>
	<time>2023-08-06T06:01:45.000Z</time>
</trkpt>
<trkpt lat="46.0272980" lon="10.4673090">
	<ele>2526.60</ele>
	<time>2023-08-06T06:01:46.000Z</time>
</trkpt>
<trkpt lat="46.0272980" lon="10.4673090">
	<ele>2526.80</ele>
	<time>2023-08-06T06:01:47.000Z</time>
</trkpt>
<trkpt lat="46.0272980" lon="10.4673090">
	<ele>2527.20</ele>
	<time>2023-08-06T06:01:48.000Z</time>
</trkpt>
<trkpt lat="46.0272980" lon="10.4673090">
	<ele>2527.40</ele>
	<time>2023-08-06T06:01:49.000Z</time>
</trkpt>
<trkpt lat="46.0272980" lon="10.4673090">
	<ele>2527.40</ele>
	<time>2023-08-06T06:01:50.000Z</time>
</trkpt>
<trkpt lat="46.0272980" lon="10.4673090">
	<ele>2527.40</ele>
	<time>2023-08-06T06:01:51.000Z</time>
</trkpt>
<trkpt lat="46.0272980" lon="10.4673090">
	<ele>2527.40</ele>
	<time>2023-08-06T06:01:52.000Z</time>
</trkpt>
<trkpt lat="46.0272980" lon="10.4673090">
	<ele>2527.40</ele>
	<time>2023-08-06T06:01:53.000Z</time>
</trkpt>
<trkpt lat="46.0272980" lon="10.4673090">
	<ele>2527.00</ele>
	<time>2023-08-06T06:01:54.000Z</time>
</trkpt>
<trkpt lat="46.0272980" lon="10.4673080">
	<ele>2526.80</ele>
	<time>2023-08-06T06:01:55.000Z</time>
</trkpt>
<trkpt lat="46.0272970" lon="10.4673080">
	<ele>2526.60</ele>
	<time>2023-08-06T06:01:56.000Z</time>
</trkpt>
<trkpt lat="46.0272970" lon="10.4673070">
	<ele>2526.40</ele>
	<time>2023-08-06T06:01:57.000Z</time>
</trkpt>
<trkpt lat="46.0272970" lon="10.4673070">
	<ele>2526.40</ele>
	<time>2023-08-06T06:01:58.000Z</time>
</trkpt>
<trkpt lat="46.0272970" lon="10.4673070">
	<ele>2526.40</ele>
	<time>2023-08-06T06:01:59.000Z</time>
</trkpt>
<trkpt lat="46.0272970" lon="10.4673060">
	<ele>2526.60</ele>
	<time>2023-08-06T06:02:00.000Z</time>
</trkpt>
<trkpt lat="46.0272960" lon="10.4673060">
	<ele>2526.60</ele>
	<time>2023-08-06T06:02:01.000Z</time>
</trkpt>
<trkpt lat="46.0272960" lon="10.4673060">
	<ele>2526.60</ele>
	<time>2023-08-06T06:02:02.000Z</time>
</trkpt>
<trkpt lat="46.0272960" lon="10.4673060">
	<ele>2526.60</ele>
	<time>2023-08-06T06:02:03.000Z</time>
</trkpt>
<trkpt lat="46.0272950" lon="10.4673060">
	<ele>2526.60</ele>
	<time>2023-08-06T06:02:04.000Z</time>
</trkpt>
<trkpt lat="46.0272950" lon="10.4673050">
	<ele>2526.60</ele>
	<time>2023-08-06T06:02:05.000Z</time>
</trkpt>
<trkpt lat="46.0272950" lon="10.4673010">
	<ele>2526.00</ele>
	<time>2023-08-06T06:02:06.000Z</time>
</trkpt>
<trkpt lat="46.0272950" lon="10.4673010">
	<ele>2525.80</ele>
	<time>2023-08-06T06:02:07.000Z</time>
</trkpt>
<trkpt lat="46.0272950" lon="10.4673010">
	<ele>2525.80</ele>
	<time>2023-08-06T06:02:08.000Z</time>
</trkpt>
<trkpt lat="46.0272950" lon="10.4673030">
	<ele>2525.60</ele>
	<time>2023-08-06T06:02:09.000Z</time>
</trkpt>
<trkpt lat="46.0272960" lon="10.4673050">
	<ele>2525.60</ele>
	<time>2023-08-06T06:02:10.000Z</time>
</trkpt>
<trkpt lat="46.0272960" lon="10.4673050">
	<ele>2525.60</ele>
	<time>2023-08-06T06:02:11.000Z</time>
</trkpt>
<trkpt lat="46.0272970" lon="10.4673050">
	<ele>2525.40</ele>
	<time>2023-08-06T06:02:12.000Z</time>
</trkpt>
<trkpt lat="46.0272970" lon="10.4673050">
	<ele>2525.20</ele>
	<time>2023-08-06T06:02:13.000Z</time>
</trkpt>
<trkpt lat="46.0272970" lon="10.4673050">
	<ele>2525.00</ele>
	<time>2023-08-06T06:02:14.000Z</time>
</trkpt>
<trkpt lat="46.0272970" lon="10.4673050">
	<ele>2525.00</ele>
	<time>2023-08-06T06:02:15.000Z</time>
</trkpt>
<trkpt lat="46.0272970" lon="10.4673050">
	<ele>2524.60</ele>
	<time>2023-08-06T06:02:16.000Z</time>
</trkpt>
<trkpt lat="46.0272970" lon="10.4673050">
	<ele>2524.20</ele>
	<time>2023-08-06T06:02:17.000Z</time>
</trkpt>
<trkpt lat="46.0272970" lon="10.4673050">
	<ele>2523.80</ele>
	<time>2023-08-06T06:02:18.000Z</time>
</trkpt>
<trkpt lat="46.0272970" lon="10.4673060">
	<ele>2523.40</ele>
	<time>2023-08-06T06:02:19.000Z</time>
</trkpt>
<trkpt lat="46.0272970" lon="10.4673060">
	<ele>2523.00</ele>
	<time>2023-08-06T06:02:20.000Z</time>
</trkpt>
<trkpt lat="46.0273010" lon="10.4673060">
	<ele>2522.60</ele>
	<time>2023-08-06T06:02:21.000Z</time>
</trkpt>
<trkpt lat="46.0273030" lon="10.4673060">
	<ele>2522.60</ele>
	<time>2023-08-06T06:02:22.000Z</time>
</trkpt>
<trkpt lat="46.0273030" lon="10.4673060">
	<ele>2522.40</ele>
	<time>2023-08-06T06:02:23.000Z</time>
</trkpt>
<trkpt lat="46.0273040" lon="10.4673120">
	<ele>2522.20</ele>
	<time>2023-08-06T06:02:24.000Z</time>
</trkpt>
<trkpt lat="46.0273090" lon="10.4673180">
	<ele>2521.80</ele>
	<time>2023-08-06T06:02:25.000Z</time>
</trkpt>
<trkpt lat="46.0273140" lon="10.4673320">
	<ele>2521.80</ele>
	<time>2023-08-06T06:02:26.000Z</time>
</trkpt>
<trkpt lat="46.0273170" lon="10.4673540">
	<ele>2521.60</ele>
	<time>2023-08-06T06:02:27.000Z</time>
</trkpt>
<trkpt lat="46.0273220" lon="10.4673730">
	<ele>2521.60</ele>
	<time>2023-08-06T06:02:28.000Z</time>
</trkpt>
<trkpt lat="46.0273310" lon="10.4673930">
	<ele>2521.60</ele>
	<time>2023-08-06T06:02:29.000Z</time>
</trkpt>
<trkpt lat="46.0273420" lon="10.4674170">
	<ele>2521.60</ele>
	<time>2023-08-06T06:02:30.000Z</time>
</trkpt>
<trkpt lat="46.0273510" lon="10.4674410">
	<ele>2521.40</ele>
	<time>2023-08-06T06:02:31.000Z</time>
</trkpt>
<trkpt lat="46.0273590" lon="10.4674610">
	<ele>2521.40</ele>
	<time>2023-08-06T06:02:32.000Z</time>
</trkpt>
<trkpt lat="46.0273680" lon="10.4674830">
	<ele>2521.40</ele>
	<time>2023-08-06T06:02:33.000Z</time>
</trkpt>
<trkpt lat="46.0273760" lon="10.4675010">
	<ele>2521.20</ele>
	<time>2023-08-06T06:02:34.000Z</time>
</trkpt>
<trkpt lat="46.0273880" lon="10.4675220">
	<ele>2521.00</ele>
	<time>2023-08-06T06:02:35.000Z</time>
</trkpt>
<trkpt lat="46.0273980" lon="10.4675280">
	<ele>2521.00</ele>
	<time>2023-08-06T06:02:36.000Z</time>
</trkpt>
<trkpt lat="46.0274030" lon="10.4675340">
	<ele>2520.80</ele>
	<time>2023-08-06T06:02:37.000Z</time>
</trkpt>
<trkpt lat="46.0274100" lon="10.4675420">
	<ele>2520.80</ele>
	<time>2023-08-06T06:02:38.000Z</time>
</trkpt>
<trkpt lat="46.0274130" lon="10.4675450">
	<ele>2520.60</ele>
	<time>2023-08-06T06:02:39.000Z</time>
</trkpt>
<trkpt lat="46.0274150" lon="10.4675560">
	<ele>2520.00</ele>
	<time>2023-08-06T06:02:40.000Z</time>
</trkpt>
<trkpt lat="46.0274160" lon="10.4675660">
	<ele>2519.60</ele>
	<time>2023-08-06T06:02:41.000Z</time>
</trkpt>
<trkpt lat="46.0274200" lon="10.4675790">
	<ele>2519.20</ele>
	<time>2023-08-06T06:02:42.000Z</time>
</trkpt>
<trkpt lat="46.0274240" lon="10.4675820">
	<ele>2518.80</ele>
	<time>2023-08-06T06:02:43.000Z</time>
</trkpt>
<trkpt lat="46.0274260" lon="10.4675930">
	<ele>2518.40</ele>
	<time>2023-08-06T06:02:44.000Z</time>
</trkpt>
<trkpt lat="46.0274300" lon="10.4676040">
	<ele>2518.20</ele>
	<time>2023-08-06T06:02:45.000Z</time>
</trkpt>
<trkpt lat="46.0274330" lon="10.4676100">
	<ele>2518.00</ele>
	<time>2023-08-06T06:02:46.000Z</time>
</trkpt>
<trkpt lat="46.0274350" lon="10.4676160">
	<ele>2517.80</ele>
	<time>2023-08-06T06:02:47.000Z</time>
</trkpt>
<trkpt lat="46.0274390" lon="10.4676220">
	<ele>2517.60</ele>
	<time>2023-08-06T06:02:48.000Z</time>
</trkpt>
<trkpt lat="46.0274440" lon="10.4676290">
	<ele>2517.40</ele>
	<time>2023-08-06T06:02:49.000Z</time>
</trkpt>
<trkpt lat="46.0274510" lon="10.4676390">
	<ele>2517.20</ele>
	<time>2023-08-06T06:02:50.000Z</time>
</trkpt>
<trkpt lat="46.0274600" lon="10.4676510">
	<ele>2516.80</ele>
	<time>2023-08-06T06:02:51.000Z</time>
</trkpt>
<trkpt lat="46.0274650" lon="10.4676610">
	<ele>2516.40</ele>
	<time>2023-08-06T06:02:52.000Z</time>
</trkpt>
<trkpt lat="46.0274700" lon="10.4676690">
	<ele>2516.20</ele>
	<time>2023-08-06T06:02:53.000Z</time>
</trkpt>
<trkpt lat="46.0274780" lon="10.4676810">
	<ele>2516.20</ele>
	<time>2023-08-06T06:02:54.000Z</time>
</trkpt>
<trkpt lat="46.0274820" lon="10.4676930">
	<ele>2516.00</ele>
	<time>2023-08-06T06:02:55.000Z</time>
</trkpt>
<trkpt lat="46.0274880" lon="10.4677030">
	<ele>2516.00</ele>
	<time>2023-08-06T06:02:56.000Z</time>
</trkpt>
<trkpt lat="46.0274950" lon="10.4677150">
	<ele>2515.80</ele>
	<time>2023-08-06T06:02:57.000Z</time>
</trkpt>
<trkpt lat="46.0274990" lon="10.4677230">
	<ele>2515.60</ele>
	<time>2023-08-06T06:02:58.000Z</time>
</trkpt>
<trkpt lat="46.0275070" lon="10.4677370">
	<ele>2515.60</ele>
	<time>2023-08-06T06:02:59.000Z</time>
</trkpt>
<trkpt lat="46.0275130" lon="10.4677550">
	<ele>2515.40</ele>
	<time>2023-08-06T06:03:00.000Z</time>
</trkpt>
<trkpt lat="46.0275140" lon="10.4677710">
	<ele>2515.40</ele>
	<time>2023-08-06T06:03:01.000Z</time>
</trkpt>
<trkpt lat="46.0275150" lon="10.4677870">
	<ele>2515.40</ele>
	<time>2023-08-06T06:03:02.000Z</time>
</trkpt>
<trkpt lat="46.0275130" lon="10.4678040">
	<ele>2515.40</ele>
	<time>2023-08-06T06:03:03.000Z</time>
</trkpt>
<trkpt lat="46.0275110" lon="10.4678120">
	<ele>2515.40</ele>
	<time>2023-08-06T06:03:04.000Z</time>
</trkpt>
<trkpt lat="46.0275100" lon="10.4678200">
	<ele>2515.60</ele>
	<time>2023-08-06T06:03:05.000Z</time>
</trkpt>
<trkpt lat="46.0275070" lon="10.4678260">
	<ele>2516.00</ele>
	<time>2023-08-06T06:03:06.000Z</time>
</trkpt>
<trkpt lat="46.0275040" lon="10.4678340">
	<ele>2516.20</ele>
	<time>2023-08-06T06:03:07.000Z</time>
</trkpt>
<trkpt lat="46.0275020" lon="10.4678430">
	<ele>2516.40</ele>
	<time>2023-08-06T06:03:08.000Z</time>
</trkpt>
<trkpt lat="46.0274960" lon="10.4678530">
	<ele>2516.60</ele>
	<time>2023-08-06T06:03:09.000Z</time>
</trkpt>
<trkpt lat="46.0274970" lon="10.4678600">
	<ele>2516.60</ele>
	<time>2023-08-06T06:03:10.000Z</time>
</trkpt>
<trkpt lat="46.0274980" lon="10.4678680">
	<ele>2516.60</ele>
	<time>2023-08-06T06:03:11.000Z</time>
</trkpt>
<trkpt lat="46.0274990" lon="10.4678770">
	<ele>2516.80</ele>
	<time>2023-08-06T06:03:12.000Z</time>
</trkpt>
<trkpt lat="46.0274980" lon="10.4678900">
	<ele>2516.80</ele>
	<time>2023-08-06T06:03:13.000Z</time>
</trkpt>
<trkpt lat="46.0274950" lon="10.4679000">
	<ele>2516.80</ele>
	<time>2023-08-06T06:03:14.000Z</time>
</trkpt>
<trkpt lat="46.0274940" lon="10.4679110">
	<ele>2517.00</ele>
	<time>2023-08-06T06:03:15.000Z</time>
</trkpt>
<trkpt lat="46.0274990" lon="10.4679260">
	<ele>2517.00</ele>
	<time>2023-08-06T06:03:16.000Z</time>
</trkpt>
<trkpt lat="46.0274980" lon="10.4679360">
	<ele>2516.80</ele>
	<time>2023-08-06T06:03:17.000Z</time>
</trkpt>
<trkpt lat="46.0275000" lon="10.4679490">
	<ele>2516.60</ele>
	<time>2023-08-06T06:03:18.000Z</time>
</trkpt>
<trkpt lat="46.0275030" lon="10.4679580">
	<ele>2516.40</ele>
	<time>2023-08-06T06:03:19.000Z</time>
</trkpt>
<trkpt lat="46.0275050" lon="10.4679640">
	<ele>2516.20</ele>
	<time>2023-08-06T06:03:20.000Z</time>
</trkpt>
<trkpt lat="46.0275090" lon="10.4679710">
	<ele>2516.00</ele>
	<time>2023-08-06T06:03:21.000Z</time>
</trkpt>
<trkpt lat="46.0275090" lon="10.4679810">
	<ele>2516.00</ele>
	<time>2023-08-06T06:03:22.000Z</time>
</trkpt>
<trkpt lat="46.0275110" lon="10.4679920">
	<ele>2515.80</ele>
	<time>2023-08-06T06:03:23.000Z</time>
</trkpt>
<trkpt lat="46.0275130" lon="10.4680030">
	<ele>2515.80</ele>
	<time>2023-08-06T06:03:24.000Z</time>
</trkpt>
<trkpt lat="46.0275140" lon="10.4680060">
	<ele>2515.80</ele>
	<time>2023-08-06T06:03:25.000Z</time>
</trkpt>
<trkpt lat="46.0275180" lon="10.4680080">
	<ele>2515.80</ele>
	<time>2023-08-06T06:03:26.000Z</time>
</trkpt>
<trkpt lat="46.0275200" lon="10.4680080">
	<ele>2515.80</ele>
	<time>2023-08-06T06:03:27.000Z</time>
</trkpt>
<trkpt lat="46.0275250" lon="10.4680070">
	<ele>2516.00</ele>
	<time>2023-08-06T06:03:28.000Z</time>
</trkpt>
<trkpt lat="46.0275300" lon="10.4679980">
	<ele>2515.80</ele>
	<time>2023-08-06T06:03:29.000Z</time>
</trkpt>
<trkpt lat="46.0275370" lon="10.4679910">
	<ele>2515.80</ele>
	<time>2023-08-06T06:03:30.000Z</time>
</trkpt>
<trkpt lat="46.0275400" lon="10.4679870">
	<ele>2515.60</ele>
	<time>2023-08-06T06:03:31.000Z</time>
</trkpt>
<trkpt lat="46.0275430" lon="10.4679840">
	<ele>2515.40</ele>
	<time>2023-08-06T06:03:32.000Z</time>
</trkpt>
<trkpt lat="46.0275480" lon="10.4679770">
	<ele>2515.20</ele>
	<time>2023-08-06T06:03:33.000Z</time>
</trkpt>
<trkpt lat="46.0275540" lon="10.4679710">
	<ele>2515.00</ele>
	<time>2023-08-06T06:03:34.000Z</time>
</trkpt>
<trkpt lat="46.0275600" lon="10.4679740">
	<ele>2514.60</ele>
	<time>2023-08-06T06:03:35.000Z</time>
</trkpt>
<trkpt lat="46.0275640" lon="10.4679820">
	<ele>2514.40</ele>
	<time>2023-08-06T06:03:36.000Z</time>
</trkpt>
<trkpt lat="46.0275670" lon="10.4679910">
	<ele>2514.20</ele>
	<time>2023-08-06T06:03:37.000Z</time>
</trkpt>
<trkpt lat="46.0275700" lon="10.4680020">
	<ele>2514.00</ele>
	<time>2023-08-06T06:03:38.000Z</time>
</trkpt>
<trkpt lat="46.0275690" lon="10.4680100">
	<ele>2513.80</ele>
	<time>2023-08-06T06:03:39.000Z</time>
</trkpt>
<trkpt lat="46.0275700" lon="10.4680200">
	<ele>2513.80</ele>
	<time>2023-08-06T06:03:40.000Z</time>
</trkpt>
<trkpt lat="46.0275700" lon="10.4680270">
	<ele>2513.80</ele>
	<time>2023-08-06T06:03:41.000Z</time>
</trkpt>
<trkpt lat="46.0275720" lon="10.4680310">
	<ele>2513.80</ele>
	<time>2023-08-06T06:03:42.000Z</time>
</trkpt>
<trkpt lat="46.0275790" lon="10.4680340">
	<ele>2513.60</ele>
	<time>2023-08-06T06:03:43.000Z</time>
</trkpt>
<trkpt lat="46.0275830" lon="10.4680350">
	<ele>2513.60</ele>
	<time>2023-08-06T06:03:44.000Z</time>
</trkpt>
<trkpt lat="46.0275880" lon="10.4680330">
	<ele>2513.80</ele>
	<time>2023-08-06T06:03:45.000Z</time>
</trkpt>
<trkpt lat="46.0275910" lon="10.4680250">
	<ele>2513.80</ele>
	<time>2023-08-06T06:03:46.000Z</time>
</trkpt>
<trkpt lat="46.0275940" lon="10.4680170">
	<ele>2513.60</ele>
	<time>2023-08-06T06:03:47.000Z</time>
</trkpt>
<trkpt lat="46.0276000" lon="10.4680100">
	<ele>2513.60</ele>
	<time>2023-08-06T06:03:48.000Z</time>
</trkpt>
<trkpt lat="46.0276050" lon="10.4680050">
	<ele>2513.60</ele>
	<time>2023-08-06T06:03:49.000Z</time>
</trkpt>
<trkpt lat="46.0276140" lon="10.4680030">
	<ele>2513.40</ele>
	<time>2023-08-06T06:03:50.000Z</time>
</trkpt>
<trkpt lat="46.0276210" lon="10.4680030">
	<ele>2513.00</ele>
	<time>2023-08-06T06:03:51.000Z</time>
</trkpt>
<trkpt lat="46.0276250" lon="10.4680020">
	<ele>2512.80</ele>
	<time>2023-08-06T06:03:52.000Z</time>
</trkpt>
<trkpt lat="46.0276330" lon="10.4680030">
	<ele>2512.60</ele>
	<time>2023-08-06T06:03:53.000Z</time>
</trkpt>
<trkpt lat="46.0276410" lon="10.4680070">
	<ele>2512.40</ele>
	<time>2023-08-06T06:03:54.000Z</time>
</trkpt>
<trkpt lat="46.0276480" lon="10.4680120">
	<ele>2511.80</ele>
	<time>2023-08-06T06:03:55.000Z</time>
</trkpt>
<trkpt lat="46.0276510" lon="10.4680200">
	<ele>2511.40</ele>
	<time>2023-08-06T06:03:56.000Z</time>
</trkpt>
<trkpt lat="46.0276530" lon="10.4680260">
	<ele>2511.20</ele>
	<time>2023-08-06T06:03:57.000Z</time>
</trkpt>
<trkpt lat="46.0276530" lon="10.4680300">
	<ele>2511.20</ele>
	<time>2023-08-06T06:03:58.000Z</time>
</trkpt>
<trkpt lat="46.0276540" lon="10.4680340">
	<ele>2511.00</ele>
	<time>2023-08-06T06:03:59.000Z</time>
</trkpt>
<trkpt lat="46.0276600" lon="10.4680360">
	<ele>2510.80</ele>
	<time>2023-08-06T06:04:00.000Z</time>
</trkpt>
<trkpt lat="46.0276620" lon="10.4680400">
	<ele>2510.60</ele>
	<time>2023-08-06T06:04:01.000Z</time>
</trkpt>
<trkpt lat="46.0276670" lon="10.4680450">
	<ele>2510.40</ele>
	<time>2023-08-06T06:04:02.000Z</time>
</trkpt>
<trkpt lat="46.0276690" lon="10.4680500">
	<ele>2510.20</ele>
	<time>2023-08-06T06:04:03.000Z</time>
</trkpt>
<trkpt lat="46.0276720" lon="10.4680560">
	<ele>2509.40</ele>
	<time>2023-08-06T06:04:04.000Z</time>
</trkpt>
<trkpt lat="46.0276770" lon="10.4680590">
	<ele>2509.00</ele>
	<time>2023-08-06T06:04:05.000Z</time>
</trkpt>
<trkpt lat="46.0276800" lon="10.4680660">
	<ele>2508.60</ele>
	<time>2023-08-06T06:04:06.000Z</time>
</trkpt>
<trkpt lat="46.0276790" lon="10.4680720">
	<ele>2508.80</ele>
	<time>2023-08-06T06:04:07.000Z</time>
</trkpt>
<trkpt lat="46.0276810" lon="10.4680770">
	<ele>2508.60</ele>
	<time>2023-08-06T06:04:08.000Z</time>
</trkpt>
<trkpt lat="46.0276850" lon="10.4680830">
	<ele>2508.40</ele>
	<time>2023-08-06T06:04:09.000Z</time>
</trkpt>
<trkpt lat="46.0276900" lon="10.4680890">
	<ele>2508.20</ele>
	<time>2023-08-06T06:04:10.000Z</time>
</trkpt>
<trkpt lat="46.0276940" lon="10.4680940">
	<ele>2507.80</ele>
	<time>2023-08-06T06:04:11.000Z</time>
</trkpt>
<trkpt lat="46.0276980" lon="10.4681010">
	<ele>2507.40</ele>
	<time>2023-08-06T06:04:12.000Z</time>
</trkpt>
<trkpt lat="46.0277020" lon="10.4681110">
	<ele>2507.20</ele>
	<time>2023-08-06T06:04:13.000Z</time>
</trkpt>
<trkpt lat="46.0277040" lon="10.4681320">
	<ele>2507.00</ele>
	<time>2023-08-06T06:04:14.000Z</time>
</trkpt>
<trkpt lat="46.0277040" lon="10.4681490">
	<ele>2507.20</ele>
	<time>2023-08-06T06:04:15.000Z</time>
</trkpt>
<trkpt lat="46.0277050" lon="10.4681620">
	<ele>2507.40</ele>
	<time>2023-08-06T06:04:16.000Z</time>
</trkpt>
<trkpt lat="46.0277030" lon="10.4681750">
	<ele>2507.60</ele>
	<time>2023-08-06T06:04:17.000Z</time>
</trkpt>
<trkpt lat="46.0277010" lon="10.4681840">
	<ele>2507.80</ele>
	<time>2023-08-06T06:04:18.000Z</time>
</trkpt>
<trkpt lat="46.0277000" lon="10.4681930">
	<ele>2507.80</ele>
	<time>2023-08-06T06:04:19.000Z</time>
</trkpt>
<trkpt lat="46.0277040" lon="10.4682000">
	<ele>2507.80</ele>
	<time>2023-08-06T06:04:20.000Z</time>
</trkpt>
<trkpt lat="46.0277080" lon="10.4682050">
	<ele>2507.80</ele>
	<time>2023-08-06T06:04:21.000Z</time>
</trkpt>
<trkpt lat="46.0277120" lon="10.4682140">
	<ele>2507.80</ele>
	<time>2023-08-06T06:04:22.000Z</time>
</trkpt>
<trkpt lat="46.0277130" lon="10.4682230">
	<ele>2507.60</ele>
	<time>2023-08-06T06:04:23.000Z</time>
</trkpt>
<trkpt lat="46.0277150" lon="10.4682340">
	<ele>2507.40</ele>
	<time>2023-08-06T06:04:24.000Z</time>
</trkpt>
<trkpt lat="46.0277180" lon="10.4682490">
	<ele>2507.40</ele>
	<time>2023-08-06T06:04:25.000Z</time>
</trkpt>
<trkpt lat="46.0277180" lon="10.4682630">
	<ele>2507.20</ele>
	<time>2023-08-06T06:04:26.000Z</time>
</trkpt>
<trkpt lat="46.0277130" lon="10.4682790">
	<ele>2507.20</ele>
	<time>2023-08-06T06:04:27.000Z</time>
</trkpt>
<trkpt lat="46.0277060" lon="10.4682920">
	<ele>2507.20</ele>
	<time>2023-08-06T06:04:28.000Z</time>
</trkpt>
<trkpt lat="46.0277040" lon="10.4682960">
	<ele>2507.20</ele>
	<time>2023-08-06T06:04:29.000Z</time>
</trkpt>
<trkpt lat="46.0277050" lon="10.4683060">
	<ele>2507.20</ele>
	<time>2023-08-06T06:04:30.000Z</time>
</trkpt>
<trkpt lat="46.0277080" lon="10.4683170">
	<ele>2507.20</ele>
	<time>2023-08-06T06:04:31.000Z</time>
</trkpt>
<trkpt lat="46.0277100" lon="10.4683350">
	<ele>2507.20</ele>
	<time>2023-08-06T06:04:32.000Z</time>
</trkpt>
<trkpt lat="46.0277130" lon="10.4683540">
	<ele>2507.40</ele>
	<time>2023-08-06T06:04:33.000Z</time>
</trkpt>
<trkpt lat="46.0277130" lon="10.4683650">
	<ele>2507.20</ele>
	<time>2023-08-06T06:04:34.000Z</time>
</trkpt>
<trkpt lat="46.0277100" lon="10.4683790">
	<ele>2507.20</ele>
	<time>2023-08-06T06:04:35.000Z</time>
</trkpt>
<trkpt lat="46.0277080" lon="10.4683930">
	<ele>2507.20</ele>
	<time>2023-08-06T06:04:36.000Z</time>
</trkpt>
<trkpt lat="46.0277100" lon="10.4684060">
	<ele>2507.40</ele>
	<time>2023-08-06T06:04:37.000Z</time>
</trkpt>
<trkpt lat="46.0277140" lon="10.4684210">
	<ele>2507.60</ele>
	<time>2023-08-06T06:04:38.000Z</time>
</trkpt>
<trkpt lat="46.0277180" lon="10.4684330">
	<ele>2507.60</ele>
	<time>2023-08-06T06:04:39.000Z</time>
</trkpt>
<trkpt lat="46.0277220" lon="10.4684480">
	<ele>2507.80</ele>
	<time>2023-08-06T06:04:40.000Z</time>
</trkpt>
<trkpt lat="46.0277250" lon="10.4684580">
	<ele>2507.80</ele>
	<time>2023-08-06T06:04:41.000Z</time>
</trkpt>
<trkpt lat="46.0277290" lon="10.4684630">
	<ele>2507.80</ele>
	<time>2023-08-06T06:04:42.000Z</time>
</trkpt>
<trkpt lat="46.0277340" lon="10.4684680">
	<ele>2507.80</ele>
	<time>2023-08-06T06:04:43.000Z</time>
</trkpt>
<trkpt lat="46.0277370" lon="10.4684730">
	<ele>2507.80</ele>
	<time>2023-08-06T06:04:44.000Z</time>
</trkpt>
<trkpt lat="46.0277410" lon="10.4684810">
	<ele>2507.80</ele>
	<time>2023-08-06T06:04:45.000Z</time>
</trkpt>
<trkpt lat="46.0277440" lon="10.4684930">
	<ele>2507.80</ele>
	<time>2023-08-06T06:04:46.000Z</time>
</trkpt>
<trkpt lat="46.0277490" lon="10.4685080">
	<ele>2507.80</ele>
	<time>2023-08-06T06:04:47.000Z</time>
</trkpt>
<trkpt lat="46.0277570" lon="10.4685150">
	<ele>2507.80</ele>
	<time>2023-08-06T06:04:48.000Z</time>
</trkpt>
<trkpt lat="46.0277660" lon="10.4685230">
	<ele>2507.80</ele>
	<time>2023-08-06T06:04:49.000Z</time>
</trkpt>
<trkpt lat="46.0277760" lon="10.4685250">
	<ele>2507.80</ele>
	<time>2023-08-06T06:04:50.000Z</time>
</trkpt>
<trkpt lat="46.0277820" lon="10.4685350">
	<ele>2508.00</ele>
	<time>2023-08-06T06:04:51.000Z</time>
</trkpt>
<trkpt lat="46.0277840" lon="10.4685380">
	<ele>2507.80</ele>
	<time>2023-08-06T06:04:52.000Z</time>
</trkpt>
<trkpt lat="46.0277950" lon="10.4685370">
	<ele>2507.20</ele>
	<time>2023-08-06T06:04:53.000Z</time>
</trkpt>
<trkpt lat="46.0278040" lon="10.4685450">
	<ele>2507.00</ele>
	<time>2023-08-06T06:04:54.000Z</time>
</trkpt>
<trkpt lat="46.0278090" lon="10.4685520">
	<ele>2506.80</ele>
	<time>2023-08-06T06:04:55.000Z</time>
</trkpt>
<trkpt lat="46.0278120" lon="10.4685580">
	<ele>2506.60</ele>
	<time>2023-08-06T06:04:56.000Z</time>
</trkpt>
<trkpt lat="46.0278130" lon="10.4685670">
	<ele>2506.60</ele>
	<time>2023-08-06T06:04:57.000Z</time>
</trkpt>
<trkpt lat="46.0278160" lon="10.4685710">
	<ele>2506.40</ele>
	<time>2023-08-06T06:04:58.000Z</time>
</trkpt>
<trkpt lat="46.0278170" lon="10.4685690">
	<ele>2506.40</ele>
	<time>2023-08-06T06:04:59.000Z</time>
</trkpt>
<trkpt lat="46.0278200" lon="10.4685720">
	<ele>2506.40</ele>
	<time>2023-08-06T06:05:00.000Z</time>
</trkpt>
<trkpt lat="46.0278290" lon="10.4685770">
	<ele>2506.20</ele>
	<time>2023-08-06T06:05:01.000Z</time>
</trkpt>
<trkpt lat="46.0278320" lon="10.4685820">
	<ele>2506.20</ele>
	<time>2023-08-06T06:05:02.000Z</time>
</trkpt>
<trkpt lat="46.0278340" lon="10.4685930">
	<ele>2506.20</ele>
	<time>2023-08-06T06:05:03.000Z</time>
</trkpt>
<trkpt lat="46.0278350" lon="10.4686020">
	<ele>2506.20</ele>
	<time>2023-08-06T06:05:04.000Z</time>
</trkpt>
<trkpt lat="46.0278380" lon="10.4686110">
	<ele>2506.00</ele>
	<time>2023-08-06T06:05:05.000Z</time>
</trkpt>
<trkpt lat="46.0278390" lon="10.4686240">
	<ele>2505.80</ele>
	<time>2023-08-06T06:05:06.000Z</time>
</trkpt>
<trkpt lat="46.0278410" lon="10.4686300">
	<ele>2505.80</ele>
	<time>2023-08-06T06:05:07.000Z</time>
</trkpt>
<trkpt lat="46.0278420" lon="10.4686330">
	<ele>2505.80</ele>
	<time>2023-08-06T06:05:08.000Z</time>
</trkpt>
<trkpt lat="46.0278440" lon="10.4686330">
	<ele>2505.60</ele>
	<time>2023-08-06T06:05:09.000Z</time>
</trkpt>
<trkpt lat="46.0278440" lon="10.4686320">
	<ele>2505.60</ele>
	<time>2023-08-06T06:05:10.000Z</time>
</trkpt>
<trkpt lat="46.0278430" lon="10.4686350">
	<ele>2505.60</ele>
	<time>2023-08-06T06:05:11.000Z</time>
</trkpt>
<trkpt lat="46.0278420" lon="10.4686350">
	<ele>2505.60</ele>
	<time>2023-08-06T06:05:12.000Z</time>
</trkpt>
<trkpt lat="46.0278410" lon="10.4686350">
	<ele>2505.60</ele>
	<time>2023-08-06T06:05:13.000Z</time>
</trkpt>
<trkpt lat="46.0278400" lon="10.4686310">
	<ele>2505.60</ele>
	<time>2023-08-06T06:05:14.000Z</time>
</trkpt>
<trkpt lat="46.0278400" lon="10.4686300">
	<ele>2505.60</ele>
	<time>2023-08-06T06:05:15.000Z</time>
</trkpt>
<trkpt lat="46.0278400" lon="10.4686300">
	<ele>2505.60</ele>
	<time>2023-08-06T06:05:16.000Z</time>
</trkpt>
<trkpt lat="46.0278410" lon="10.4686290">
	<ele>2505.80</ele>
	<time>2023-08-06T06:05:17.000Z</time>
</trkpt>
<trkpt lat="46.0278410" lon="10.4686310">
	<ele>2505.80</ele>
	<time>2023-08-06T06:05:18.000Z</time>
</trkpt>
<trkpt lat="46.0278400" lon="10.4686310">
	<ele>2505.80</ele>
	<time>2023-08-06T06:05:19.000Z</time>
</trkpt>
<trkpt lat="46.0278400" lon="10.4686310">
	<ele>2505.80</ele>
	<time>2023-08-06T06:05:20.000Z</time>
</trkpt>
<trkpt lat="46.0278400" lon="10.4686310">
	<ele>2506.00</ele>
	<time>2023-08-06T06:05:21.000Z</time>
</trkpt>
<trkpt lat="46.0278400" lon="10.4686310">
	<ele>2506.00</ele>
	<time>2023-08-06T06:05:22.000Z</time>
</trkpt>
<trkpt lat="46.0278400" lon="10.4686310">
	<ele>2506.00</ele>
	<time>2023-08-06T06:05:23.000Z</time>
</trkpt>
<trkpt lat="46.0278400" lon="10.4686310">
	<ele>2506.00</ele>
	<time>2023-08-06T06:05:24.000Z</time>
</trkpt>
<trkpt lat="46.0278400" lon="10.4686310">
	<ele>2506.00</ele>
	<time>2023-08-06T06:05:25.000Z</time>
</trkpt>
<trkpt lat="46.0278400" lon="10.4686310">
	<ele>2506.00</ele>
	<time>2023-08-06T06:05:26.000Z</time>
</trkpt>
<trkpt lat="46.0278400" lon="10.4686310">
	<ele>2506.00</ele>
	<time>2023-08-06T06:05:27.000Z</time>
</trkpt>
<trkpt lat="46.0278400" lon="10.4686310">
	<ele>2506.00</ele>
	<time>2023-08-06T06:05:28.000Z</time>
</trkpt>
<trkpt lat="46.0278400" lon="10.4686310">
	<ele>2506.00</ele>
	<time>2023-08-06T06:05:29.000Z</time>
</trkpt>
<trkpt lat="46.0278400" lon="10.4686310">
	<ele>2506.00</ele>
	<time>2023-08-06T06:05:30.000Z</time>
</trkpt>
<trkpt lat="46.0278400" lon="10.4686310">
	<ele>2506.20</ele>
	<time>2023-08-06T06:05:31.000Z</time>
</trkpt>
<trkpt lat="46.0278400" lon="10.4686300">
	<ele>2506.20</ele>
	<time>2023-08-06T06:05:32.000Z</time>
</trkpt>
<trkpt lat="46.0278400" lon="10.4686300">
	<ele>2506.20</ele>
	<time>2023-08-06T06:05:33.000Z</time>
</trkpt>
<trkpt lat="46.0278400" lon="10.4686300">
	<ele>2506.00</ele>
	<time>2023-08-06T06:05:34.000Z</time>
</trkpt>
<trkpt lat="46.0278400" lon="10.4686290">
	<ele>2505.80</ele>
	<time>2023-08-06T06:05:35.000Z</time>
</trkpt>
<trkpt lat="46.0278400" lon="10.4686290">
	<ele>2505.80</ele>
	<time>2023-08-06T06:05:36.000Z</time>
</trkpt>
<trkpt lat="46.0278400" lon="10.4686290">
	<ele>2505.60</ele>
	<time>2023-08-06T06:05:37.000Z</time>
</trkpt>
<trkpt lat="46.0278400" lon="10.4686290">
	<ele>2505.60</ele>
	<time>2023-08-06T06:05:38.000Z</time>
</trkpt>
<trkpt lat="46.0278400" lon="10.4686290">
	<ele>2505.60</ele>
	<time>2023-08-06T06:05:39.000Z</time>
</trkpt>
<trkpt lat="46.0278400" lon="10.4686290">
	<ele>2505.60</ele>
	<time>2023-08-06T06:05:40.000Z</time>
</trkpt>
<trkpt lat="46.0278400" lon="10.4686280">
	<ele>2505.40</ele>
	<time>2023-08-06T06:05:41.000Z</time>
</trkpt>
<trkpt lat="46.0278400" lon="10.4686280">
	<ele>2505.40</ele>
	<time>2023-08-06T06:05:42.000Z</time>
</trkpt>
<trkpt lat="46.0278400" lon="10.4686280">
	<ele>2505.40</ele>
	<time>2023-08-06T06:05:43.000Z</time>
</trkpt>
<trkpt lat="46.0278400" lon="10.4686280">
	<ele>2505.40</ele>
	<time>2023-08-06T06:05:44.000Z</time>
</trkpt>
<trkpt lat="46.0278410" lon="10.4686280">
	<ele>2505.20</ele>
	<time>2023-08-06T06:05:45.000Z</time>
</trkpt>
<trkpt lat="46.0278410" lon="10.4686280">
	<ele>2505.20</ele>
	<time>2023-08-06T06:05:46.000Z</time>
</trkpt>
<trkpt lat="46.0278410" lon="10.4686280">
	<ele>2505.20</ele>
	<time>2023-08-06T06:05:47.000Z</time>
</trkpt>
<trkpt lat="46.0278410" lon="10.4686280">
	<ele>2505.20</ele>
	<time>2023-08-06T06:05:48.000Z</time>
</trkpt>
<trkpt lat="46.0278410" lon="10.4686280">
	<ele>2505.20</ele>
	<time>2023-08-06T06:05:49.000Z</time>
</trkpt>
<trkpt lat="46.0278410" lon="10.4686280">
	<ele>2505.20</ele>
	<time>2023-08-06T06:05:50.000Z</time>
</trkpt>
<trkpt lat="46.0278410" lon="10.4686280">
	<ele>2505.40</ele>
	<time>2023-08-06T06:05:51.000Z</time>
</trkpt>
<trkpt lat="46.0278430" lon="10.4686280">
	<ele>2505.40</ele>
	<time>2023-08-06T06:05:52.000Z</time>
</trkpt>
<trkpt lat="46.0278440" lon="10.4686280">
	<ele>2505.40</ele>
	<time>2023-08-06T06:05:53.000Z</time>
</trkpt>
<trkpt lat="46.0278450" lon="10.4686280">
	<ele>2505.60</ele>
	<time>2023-08-06T06:05:54.000Z</time>
</trkpt>
<trkpt lat="46.0278450" lon="10.4686280">
	<ele>2505.60</ele>
	<time>2023-08-06T06:05:55.000Z</time>
</trkpt>
<trkpt lat="46.0278450" lon="10.4686290">
	<ele>2505.80</ele>
	<time>2023-08-06T06:05:56.000Z</time>
</trkpt>
<trkpt lat="46.0278470" lon="10.4686290">
	<ele>2505.80</ele>
	<time>2023-08-06T06:05:57.000Z</time>
</trkpt>
<trkpt lat="46.0278490" lon="10.4686290">
	<ele>2505.80</ele>
	<time>2023-08-06T06:05:58.000Z</time>
</trkpt>
<trkpt lat="46.0278500" lon="10.4686290">
	<ele>2505.80</ele>
	<time>2023-08-06T06:05:59.000Z</time>
</trkpt>
<trkpt lat="46.0278530" lon="10.4686310">
	<ele>2505.80</ele>
	<time>2023-08-06T06:06:00.000Z</time>
</trkpt>
<trkpt lat="46.0278570" lon="10.4686380">
	<ele>2505.80</ele>
	<time>2023-08-06T06:06:01.000Z</time>
</trkpt>
<trkpt lat="46.0278590" lon="10.4686470">
	<ele>2505.80</ele>
	<time>2023-08-06T06:06:02.000Z</time>
</trkpt>
<trkpt lat="46.0278610" lon="10.4686540">
	<ele>2505.80</ele>
	<time>2023-08-06T06:06:03.000Z</time>
</trkpt>
<trkpt lat="46.0278620" lon="10.4686570">
	<ele>2505.60</ele>
	<time>2023-08-06T06:06:04.000Z</time>
</trkpt>
<trkpt lat="46.0278630" lon="10.4686590">
	<ele>2505.60</ele>
	<time>2023-08-06T06:06:05.000Z</time>
</trkpt>
<trkpt lat="46.0278630" lon="10.4686610">
	<ele>2505.40</ele>
	<time>2023-08-06T06:06:06.000Z</time>
</trkpt>
<trkpt lat="46.0278640" lon="10.4686630">
	<ele>2505.40</ele>
	<time>2023-08-06T06:06:07.000Z</time>
</trkpt>
<trkpt lat="46.0278640" lon="10.4686640">
	<ele>2505.40</ele>
	<time>2023-08-06T06:06:08.000Z</time>
</trkpt>
<trkpt lat="46.0278640" lon="10.4686640">
	<ele>2505.40</ele>
	<time>2023-08-06T06:06:09.000Z</time>
</trkpt>
<trkpt lat="46.0278650" lon="10.4686650">
	<ele>2505.20</ele>
	<time>2023-08-06T06:06:10.000Z</time>
</trkpt>
<trkpt lat="46.0278660" lon="10.4686660">
	<ele>2505.00</ele>
	<time>2023-08-06T06:06:11.000Z</time>
</trkpt>
<trkpt lat="46.0278660" lon="10.4686660">
	<ele>2505.00</ele>
	<time>2023-08-06T06:06:12.000Z</time>
</trkpt>
<trkpt lat="46.0278670" lon="10.4686660">
	<ele>2505.20</ele>
	<time>2023-08-06T06:06:13.000Z</time>
</trkpt>
<trkpt lat="46.0278680" lon="10.4686660">
	<ele>2505.20</ele>
	<time>2023-08-06T06:06:14.000Z</time>
</trkpt>
<trkpt lat="46.0278690" lon="10.4686660">
	<ele>2505.40</ele>
	<time>2023-08-06T06:06:15.000Z</time>
</trkpt>
<trkpt lat="46.0278690" lon="10.4686660">
	<ele>2505.40</ele>
	<time>2023-08-06T06:06:16.000Z</time>
</trkpt>
<trkpt lat="46.0278700" lon="10.4686670">
	<ele>2505.60</ele>
	<time>2023-08-06T06:06:17.000Z</time>
</trkpt>
<trkpt lat="46.0278710" lon="10.4686670">
	<ele>2505.60</ele>
	<time>2023-08-06T06:06:18.000Z</time>
</trkpt>
<trkpt lat="46.0278730" lon="10.4686670">
	<ele>2505.80</ele>
	<time>2023-08-06T06:06:19.000Z</time>
</trkpt>
<trkpt lat="46.0278740" lon="10.4686680">
	<ele>2505.80</ele>
	<time>2023-08-06T06:06:20.000Z</time>
</trkpt>
<trkpt lat="46.0278760" lon="10.4686690">
	<ele>2505.80</ele>
	<time>2023-08-06T06:06:21.000Z</time>
</trkpt>
<trkpt lat="46.0278760" lon="10.4686690">
	<ele>2505.60</ele>
	<time>2023-08-06T06:06:22.000Z</time>
</trkpt>
<trkpt lat="46.0278760" lon="10.4686700">
	<ele>2505.00</ele>
	<time>2023-08-06T06:06:23.000Z</time>
</trkpt>
<trkpt lat="46.0278760" lon="10.4686700">
	<ele>2504.80</ele>
	<time>2023-08-06T06:06:24.000Z</time>
</trkpt>
<trkpt lat="46.0278770" lon="10.4686710">
	<ele>2504.60</ele>
	<time>2023-08-06T06:06:25.000Z</time>
</trkpt>
<trkpt lat="46.0278770" lon="10.4686710">
	<ele>2504.40</ele>
	<time>2023-08-06T06:06:26.000Z</time>
</trkpt>
<trkpt lat="46.0278770" lon="10.4686720">
	<ele>2504.20</ele>
	<time>2023-08-06T06:06:27.000Z</time>
</trkpt>
<trkpt lat="46.0278780" lon="10.4686720">
	<ele>2504.00</ele>
	<time>2023-08-06T06:06:28.000Z</time>
</trkpt>
<trkpt lat="46.0278810" lon="10.4686760">
	<ele>2503.80</ele>
	<time>2023-08-06T06:06:29.000Z</time>
</trkpt>
<trkpt lat="46.0278870" lon="10.4686940">
	<ele>2503.80</ele>
	<time>2023-08-06T06:06:30.000Z</time>
</trkpt>
<trkpt lat="46.0278920" lon="10.4687100">
	<ele>2503.80</ele>
	<time>2023-08-06T06:06:31.000Z</time>
</trkpt>
<trkpt lat="46.0278960" lon="10.4687270">
	<ele>2503.80</ele>
	<time>2023-08-06T06:06:32.000Z</time>
</trkpt>
<trkpt lat="46.0279020" lon="10.4687480">
	<ele>2503.80</ele>
	<time>2023-08-06T06:06:33.000Z</time>
</trkpt>
<trkpt lat="46.0279060" lon="10.4687680">
	<ele>2503.80</ele>
	<time>2023-08-06T06:06:34.000Z</time>
</trkpt>
<trkpt lat="46.0279100" lon="10.4687810">
	<ele>2503.60</ele>
	<time>2023-08-06T06:06:35.000Z</time>
</trkpt>
<trkpt lat="46.0279140" lon="10.4687920">
	<ele>2503.60</ele>
	<time>2023-08-06T06:06:36.000Z</time>
</trkpt>
<trkpt lat="46.0279190" lon="10.4688020">
	<ele>2503.40</ele>
	<time>2023-08-06T06:06:37.000Z</time>
</trkpt>
<trkpt lat="46.0279240" lon="10.4688150">
	<ele>2503.40</ele>
	<time>2023-08-06T06:06:38.000Z</time>
</trkpt>
<trkpt lat="46.0279300" lon="10.4688300">
	<ele>2503.40</ele>
	<time>2023-08-06T06:06:39.000Z</time>
</trkpt>
<trkpt lat="46.0279340" lon="10.4688430">
	<ele>2503.40</ele>
	<time>2023-08-06T06:06:40.000Z</time>
</trkpt>
<trkpt lat="46.0279330" lon="10.4688570">
	<ele>2503.40</ele>
	<time>2023-08-06T06:06:41.000Z</time>
</trkpt>
<trkpt lat="46.0279290" lon="10.4688670">
	<ele>2503.60</ele>
	<time>2023-08-06T06:06:42.000Z</time>
</trkpt>
<trkpt lat="46.0279220" lon="10.4688780">
	<ele>2503.60</ele>
	<time>2023-08-06T06:06:43.000Z</time>
</trkpt>
<trkpt lat="46.0279170" lon="10.4688870">
	<ele>2503.60</ele>
	<time>2023-08-06T06:06:44.000Z</time>
</trkpt>
<trkpt lat="46.0279130" lon="10.4688950">
	<ele>2503.80</ele>
	<time>2023-08-06T06:06:45.000Z</time>
</trkpt>
<trkpt lat="46.0279110" lon="10.4689020">
	<ele>2503.80</ele>
	<time>2023-08-06T06:06:46.000Z</time>
</trkpt>
<trkpt lat="46.0279070" lon="10.4689150">
	<ele>2503.80</ele>
	<time>2023-08-06T06:06:47.000Z</time>
</trkpt>
<trkpt lat="46.0279050" lon="10.4689220">
	<ele>2504.00</ele>
	<time>2023-08-06T06:06:48.000Z</time>
</trkpt>
<trkpt lat="46.0279050" lon="10.4689270">
	<ele>2504.00</ele>
	<time>2023-08-06T06:06:49.000Z</time>
</trkpt>
<trkpt lat="46.0279020" lon="10.4689310">
	<ele>2504.00</ele>
	<time>2023-08-06T06:06:50.000Z</time>
</trkpt>
<trkpt lat="46.0278990" lon="10.4689390">
	<ele>2504.00</ele>
	<time>2023-08-06T06:06:51.000Z</time>
</trkpt>
<trkpt lat="46.0278990" lon="10.4689520">
	<ele>2504.00</ele>
	<time>2023-08-06T06:06:52.000Z</time>
</trkpt>
<trkpt lat="46.0278990" lon="10.4689660">
	<ele>2504.00</ele>
	<time>2023-08-06T06:06:53.000Z</time>
</trkpt>
<trkpt lat="46.0278970" lon="10.4689790">
	<ele>2503.80</ele>
	<time>2023-08-06T06:06:54.000Z</time>
</trkpt>
<trkpt lat="46.0278950" lon="10.4689890">
	<ele>2503.80</ele>
	<time>2023-08-06T06:06:55.000Z</time>
</trkpt>
<trkpt lat="46.0278970" lon="10.4689990">
	<ele>2503.60</ele>
	<time>2023-08-06T06:06:56.000Z</time>
</trkpt>
<trkpt lat="46.0279000" lon="10.4690070">
	<ele>2503.60</ele>
	<time>2023-08-06T06:06:57.000Z</time>
</trkpt>
<trkpt lat="46.0279020" lon="10.4690160">
	<ele>2503.60</ele>
	<time>2023-08-06T06:06:58.000Z</time>
</trkpt>
<trkpt lat="46.0279060" lon="10.4690200">
	<ele>2503.60</ele>
	<time>2023-08-06T06:06:59.000Z</time>
</trkpt>
<trkpt lat="46.0279140" lon="10.4690220">
	<ele>2503.60</ele>
	<time>2023-08-06T06:07:00.000Z</time>
</trkpt>
<trkpt lat="46.0279200" lon="10.4690220">
	<ele>2503.40</ele>
	<time>2023-08-06T06:07:01.000Z</time>
</trkpt>
<trkpt lat="46.0279250" lon="10.4690230">
	<ele>2503.40</ele>
	<time>2023-08-06T06:07:02.000Z</time>
</trkpt>
<trkpt lat="46.0279330" lon="10.4690250">
	<ele>2503.40</ele>
	<time>2023-08-06T06:07:03.000Z</time>
</trkpt>
<trkpt lat="46.0279420" lon="10.4690300">
	<ele>2503.20</ele>
	<time>2023-08-06T06:07:04.000Z</time>
</trkpt>
<trkpt lat="46.0279460" lon="10.4690340">
	<ele>2503.20</ele>
	<time>2023-08-06T06:07:05.000Z</time>
</trkpt>
<trkpt lat="46.0279520" lon="10.4690450">
	<ele>2503.20</ele>
	<time>2023-08-06T06:07:06.000Z</time>
</trkpt>
<trkpt lat="46.0279550" lon="10.4690520">
	<ele>2503.00</ele>
	<time>2023-08-06T06:07:07.000Z</time>
</trkpt>
<trkpt lat="46.0279560" lon="10.4690580">
	<ele>2502.80</ele>
	<time>2023-08-06T06:07:08.000Z</time>
</trkpt>
<trkpt lat="46.0279590" lon="10.4690700">
	<ele>2502.80</ele>
	<time>2023-08-06T06:07:09.000Z</time>
</trkpt>
<trkpt lat="46.0279590" lon="10.4690770">
	<ele>2502.80</ele>
	<time>2023-08-06T06:07:10.000Z</time>
</trkpt>
<trkpt lat="46.0279600" lon="10.4690840">
	<ele>2502.80</ele>
	<time>2023-08-06T06:07:11.000Z</time>
</trkpt>
<trkpt lat="46.0279650" lon="10.4690900">
	<ele>2502.80</ele>
	<time>2023-08-06T06:07:12.000Z</time>
</trkpt>
<trkpt lat="46.0279670" lon="10.4690950">
	<ele>2502.40</ele>
	<time>2023-08-06T06:07:13.000Z</time>
</trkpt>
<trkpt lat="46.0279690" lon="10.4691000">
	<ele>2502.20</ele>
	<time>2023-08-06T06:07:14.000Z</time>
</trkpt>
<trkpt lat="46.0279710" lon="10.4691000">
	<ele>2502.00</ele>
	<time>2023-08-06T06:07:15.000Z</time>
</trkpt>
<trkpt lat="46.0279770" lon="10.4691020">
	<ele>2501.80</ele>
	<time>2023-08-06T06:07:16.000Z</time>
</trkpt>
<trkpt lat="46.0279860" lon="10.4691020">
	<ele>2501.60</ele>
	<time>2023-08-06T06:07:17.000Z</time>
</trkpt>
<trkpt lat="46.0279890" lon="10.4691040">
	<ele>2501.20</ele>
	<time>2023-08-06T06:07:18.000Z</time>
</trkpt>
<trkpt lat="46.0279920" lon="10.4691070">
	<ele>2501.20</ele>
	<time>2023-08-06T06:07:19.000Z</time>
</trkpt>
<trkpt lat="46.0279990" lon="10.4691100">
	<ele>2501.00</ele>
	<time>2023-08-06T06:07:20.000Z</time>
</trkpt>
<trkpt lat="46.0280060" lon="10.4691110">
	<ele>2501.00</ele>
	<time>2023-08-06T06:07:21.000Z</time>
</trkpt>
<trkpt lat="46.0280160" lon="10.4691170">
	<ele>2500.80</ele>
	<time>2023-08-06T06:07:22.000Z</time>
</trkpt>
<trkpt lat="46.0280190" lon="10.4691160">
	<ele>2500.60</ele>
	<time>2023-08-06T06:07:23.000Z</time>
</trkpt>
<trkpt lat="46.0280210" lon="10.4691160">
	<ele>2500.40</ele>
	<time>2023-08-06T06:07:24.000Z</time>
</trkpt>
<trkpt lat="46.0280230" lon="10.4691120">
	<ele>2500.20</ele>
	<time>2023-08-06T06:07:25.000Z</time>
</trkpt>
<trkpt lat="46.0280280" lon="10.4691080">
	<ele>2500.00</ele>
	<time>2023-08-06T06:07:26.000Z</time>
</trkpt>
<trkpt lat="46.0280300" lon="10.4691060">
	<ele>2499.80</ele>
	<time>2023-08-06T06:07:27.000Z</time>
</trkpt>
<trkpt lat="46.0280360" lon="10.4691030">
	<ele>2499.60</ele>
	<time>2023-08-06T06:07:28.000Z</time>
</trkpt>
<trkpt lat="46.0280420" lon="10.4691010">
	<ele>2499.40</ele>
	<time>2023-08-06T06:07:29.000Z</time>
</trkpt>
<trkpt lat="46.0280480" lon="10.4690980">
	<ele>2499.20</ele>
	<time>2023-08-06T06:07:30.000Z</time>
</trkpt>
<trkpt lat="46.0280530" lon="10.4690970">
	<ele>2499.00</ele>
	<time>2023-08-06T06:07:31.000Z</time>
</trkpt>
<trkpt lat="46.0280560" lon="10.4690940">
	<ele>2498.60</ele>
	<time>2023-08-06T06:07:32.000Z</time>
</trkpt>
<trkpt lat="46.0280620" lon="10.4690950">
	<ele>2498.20</ele>
	<time>2023-08-06T06:07:33.000Z</time>
</trkpt>
<trkpt lat="46.0280690" lon="10.4691000">
	<ele>2497.80</ele>
	<time>2023-08-06T06:07:34.000Z</time>
</trkpt>
<trkpt lat="46.0280720" lon="10.4691100">
	<ele>2497.80</ele>
	<time>2023-08-06T06:07:35.000Z</time>
</trkpt>
<trkpt lat="46.0280740" lon="10.4691180">
	<ele>2497.60</ele>
	<time>2023-08-06T06:07:36.000Z</time>
</trkpt>
<trkpt lat="46.0280770" lon="10.4691240">
	<ele>2497.40</ele>
	<time>2023-08-06T06:07:37.000Z</time>
</trkpt>
<trkpt lat="46.0280790" lon="10.4691300">
	<ele>2497.40</ele>
	<time>2023-08-06T06:07:38.000Z</time>
</trkpt>
<trkpt lat="46.0280790" lon="10.4691380">
	<ele>2497.40</ele>
	<time>2023-08-06T06:07:39.000Z</time>
</trkpt>
<trkpt lat="46.0280790" lon="10.4691440">
	<ele>2497.40</ele>
	<time>2023-08-06T06:07:40.000Z</time>
</trkpt>
<trkpt lat="46.0280810" lon="10.4691530">
	<ele>2497.20</ele>
	<time>2023-08-06T06:07:41.000Z</time>
</trkpt>
<trkpt lat="46.0280830" lon="10.4691600">
	<ele>2497.00</ele>
	<time>2023-08-06T06:07:42.000Z</time>
</trkpt>
<trkpt lat="46.0280850" lon="10.4691660">
	<ele>2496.80</ele>
	<time>2023-08-06T06:07:43.000Z</time>
</trkpt>
<trkpt lat="46.0280870" lon="10.4691750">
	<ele>2496.60</ele>
	<time>2023-08-06T06:07:44.000Z</time>
</trkpt>
<trkpt lat="46.0280870" lon="10.4691800">
	<ele>2496.40</ele>
	<time>2023-08-06T06:07:45.000Z</time>
</trkpt>
<trkpt lat="46.0280890" lon="10.4691850">
	<ele>2496.40</ele>
	<time>2023-08-06T06:07:46.000Z</time>
</trkpt>
<trkpt lat="46.0280910" lon="10.4691880">
	<ele>2496.20</ele>
	<time>2023-08-06T06:07:47.000Z</time>
</trkpt>
<trkpt lat="46.0280960" lon="10.4691900">
	<ele>2496.20</ele>
	<time>2023-08-06T06:07:48.000Z</time>
</trkpt>
<trkpt lat="46.0281030" lon="10.4691910">
	<ele>2496.00</ele>
	<time>2023-08-06T06:07:49.000Z</time>
</trkpt>
<trkpt lat="46.0281110" lon="10.4691930">
	<ele>2495.80</ele>
	<time>2023-08-06T06:07:50.000Z</time>
</trkpt>
<trkpt lat="46.0281190" lon="10.4692000">
	<ele>2495.60</ele>
	<time>2023-08-06T06:07:51.000Z</time>
</trkpt>
<trkpt lat="46.0281260" lon="10.4692080">
	<ele>2495.40</ele>
	<time>2023-08-06T06:07:52.000Z</time>
</trkpt>
<trkpt lat="46.0281330" lon="10.4692150">
	<ele>2495.20</ele>
	<time>2023-08-06T06:07:53.000Z</time>
</trkpt>
<trkpt lat="46.0281420" lon="10.4692220">
	<ele>2495.00</ele>
	<time>2023-08-06T06:07:54.000Z</time>
</trkpt>
<trkpt lat="46.0281480" lon="10.4692280">
	<ele>2495.00</ele>
	<time>2023-08-06T06:07:55.000Z</time>
</trkpt>
<trkpt lat="46.0281490" lon="10.4692380">
	<ele>2494.80</ele>
	<time>2023-08-06T06:07:56.000Z</time>
</trkpt>
<trkpt lat="46.0281550" lon="10.4692500">
	<ele>2494.80</ele>
	<time>2023-08-06T06:07:57.000Z</time>
</trkpt>
<trkpt lat="46.0281600" lon="10.4692570">
	<ele>2494.80</ele>
	<time>2023-08-06T06:07:58.000Z</time>
</trkpt>
<trkpt lat="46.0281650" lon="10.4692670">
	<ele>2494.40</ele>
	<time>2023-08-06T06:07:59.000Z</time>
</trkpt>
<trkpt lat="46.0281690" lon="10.4692780">
	<ele>2494.20</ele>
	<time>2023-08-06T06:08:00.000Z</time>
</trkpt>
<trkpt lat="46.0281690" lon="10.4692870">
	<ele>2494.00</ele>
	<time>2023-08-06T06:08:01.000Z</time>
</trkpt>
<trkpt lat="46.0281700" lon="10.4692960">
	<ele>2493.80</ele>
	<time>2023-08-06T06:08:02.000Z</time>
</trkpt>
<trkpt lat="46.0281680" lon="10.4693000">
	<ele>2493.80</ele>
	<time>2023-08-06T06:08:03.000Z</time>
</trkpt>
<trkpt lat="46.0281670" lon="10.4693090">
	<ele>2493.60</ele>
	<time>2023-08-06T06:08:04.000Z</time>
</trkpt>
<trkpt lat="46.0281680" lon="10.4693170">
	<ele>2493.40</ele>
	<time>2023-08-06T06:08:05.000Z</time>
</trkpt>
<trkpt lat="46.0281700" lon="10.4693240">
	<ele>2493.20</ele>
	<time>2023-08-06T06:08:06.000Z</time>
</trkpt>
<trkpt lat="46.0281740" lon="10.4693340">
	<ele>2493.20</ele>
	<time>2023-08-06T06:08:07.000Z</time>
</trkpt>
<trkpt lat="46.0281770" lon="10.4693430">
	<ele>2493.00</ele>
	<time>2023-08-06T06:08:08.000Z</time>
</trkpt>
<trkpt lat="46.0281790" lon="10.4693550">
	<ele>2493.00</ele>
	<time>2023-08-06T06:08:09.000Z</time>
</trkpt>
<trkpt lat="46.0281800" lon="10.4693670">
	<ele>2492.80</ele>
	<time>2023-08-06T06:08:10.000Z</time>
</trkpt>
<trkpt lat="46.0281820" lon="10.4693740">
	<ele>2492.40</ele>
	<time>2023-08-06T06:08:11.000Z</time>
</trkpt>
<trkpt lat="46.0281850" lon="10.4693790">
	<ele>2492.40</ele>
	<time>2023-08-06T06:08:12.000Z</time>
</trkpt>
<trkpt lat="46.0281880" lon="10.4693900">
	<ele>2492.20</ele>
	<time>2023-08-06T06:08:13.000Z</time>
</trkpt>
<trkpt lat="46.0281960" lon="10.4694030">
	<ele>2492.20</ele>
	<time>2023-08-06T06:08:14.000Z</time>
</trkpt>
<trkpt lat="46.0282040" lon="10.4694100">
	<ele>2492.00</ele>
	<time>2023-08-06T06:08:15.000Z</time>
</trkpt>
<trkpt lat="46.0282110" lon="10.4694150">
	<ele>2492.00</ele>
	<time>2023-08-06T06:08:16.000Z</time>
</trkpt>
<trkpt lat="46.0282170" lon="10.4694180">
	<ele>2491.80</ele>
	<time>2023-08-06T06:08:17.000Z</time>
</trkpt>
<trkpt lat="46.0282200" lon="10.4694230">
	<ele>2491.80</ele>
	<time>2023-08-06T06:08:18.000Z</time>
</trkpt>
<trkpt lat="46.0282230" lon="10.4694350">
	<ele>2491.80</ele>
	<time>2023-08-06T06:08:19.000Z</time>
</trkpt>
<trkpt lat="46.0282280" lon="10.4694430">
	<ele>2491.80</ele>
	<time>2023-08-06T06:08:20.000Z</time>
</trkpt>
<trkpt lat="46.0282310" lon="10.4694520">
	<ele>2491.60</ele>
	<time>2023-08-06T06:08:21.000Z</time>
</trkpt>
<trkpt lat="46.0282370" lon="10.4694630">
	<ele>2491.60</ele>
	<time>2023-08-06T06:08:22.000Z</time>
</trkpt>
<trkpt lat="46.0282410" lon="10.4694630">
	<ele>2491.60</ele>
	<time>2023-08-06T06:08:23.000Z</time>
</trkpt>
<trkpt lat="46.0282450" lon="10.4694660">
	<ele>2491.60</ele>
	<time>2023-08-06T06:08:24.000Z</time>
</trkpt>
<trkpt lat="46.0282480" lon="10.4694750">
	<ele>2491.40</ele>
	<time>2023-08-06T06:08:25.000Z</time>
</trkpt>
<trkpt lat="46.0282560" lon="10.4694830">
	<ele>2491.20</ele>
	<time>2023-08-06T06:08:26.000Z</time>
</trkpt>
<trkpt lat="46.0282610" lon="10.4694970">
	<ele>2491.00</ele>
	<time>2023-08-06T06:08:27.000Z</time>
</trkpt>
<trkpt lat="46.0282610" lon="10.4695060">
	<ele>2490.80</ele>
	<time>2023-08-06T06:08:28.000Z</time>
</trkpt>
<trkpt lat="46.0282600" lon="10.4695160">
	<ele>2490.80</ele>
	<time>2023-08-06T06:08:29.000Z</time>
</trkpt>
<trkpt lat="46.0282580" lon="10.4695280">
	<ele>2490.60</ele>
	<time>2023-08-06T06:08:30.000Z</time>
</trkpt>
<trkpt lat="46.0282600" lon="10.4695370">
	<ele>2490.40</ele>
	<time>2023-08-06T06:08:31.000Z</time>
</trkpt>
<trkpt lat="46.0282630" lon="10.4695450">
	<ele>2490.40</ele>
	<time>2023-08-06T06:08:32.000Z</time>
</trkpt>
<trkpt lat="46.0282670" lon="10.4695530">
	<ele>2490.20</ele>
	<time>2023-08-06T06:08:33.000Z</time>
</trkpt>
<trkpt lat="46.0282700" lon="10.4695630">
	<ele>2490.00</ele>
	<time>2023-08-06T06:08:34.000Z</time>
</trkpt>
<trkpt lat="46.0282700" lon="10.4695670">
	<ele>2489.60</ele>
	<time>2023-08-06T06:08:35.000Z</time>
</trkpt>
<trkpt lat="46.0282710" lon="10.4695730">
	<ele>2489.60</ele>
	<time>2023-08-06T06:08:36.000Z</time>
</trkpt>
<trkpt lat="46.0282710" lon="10.4695800">
	<ele>2489.40</ele>
	<time>2023-08-06T06:08:37.000Z</time>
</trkpt>
<trkpt lat="46.0282710" lon="10.4695840">
	<ele>2489.40</ele>
	<time>2023-08-06T06:08:38.000Z</time>
</trkpt>
<trkpt lat="46.0282710" lon="10.4695900">
	<ele>2489.40</ele>
	<time>2023-08-06T06:08:39.000Z</time>
</trkpt>
<trkpt lat="46.0282700" lon="10.4695960">
	<ele>2489.20</ele>
	<time>2023-08-06T06:08:40.000Z</time>
</trkpt>
<trkpt lat="46.0282680" lon="10.4696010">
	<ele>2489.00</ele>
	<time>2023-08-06T06:08:41.000Z</time>
</trkpt>
<trkpt lat="46.0282690" lon="10.4696050">
	<ele>2488.80</ele>
	<time>2023-08-06T06:08:42.000Z</time>
</trkpt>
<trkpt lat="46.0282720" lon="10.4696090">
	<ele>2488.60</ele>
	<time>2023-08-06T06:08:43.000Z</time>
</trkpt>
<trkpt lat="46.0282740" lon="10.4696140">
	<ele>2488.40</ele>
	<time>2023-08-06T06:08:44.000Z</time>
</trkpt>
<trkpt lat="46.0282760" lon="10.4696210">
	<ele>2488.20</ele>
	<time>2023-08-06T06:08:45.000Z</time>
</trkpt>
<trkpt lat="46.0282750" lon="10.4696280">
	<ele>2488.00</ele>
	<time>2023-08-06T06:08:46.000Z</time>
</trkpt>
<trkpt lat="46.0282720" lon="10.4696340">
	<ele>2487.80</ele>
	<time>2023-08-06T06:08:47.000Z</time>
</trkpt>
<trkpt lat="46.0282700" lon="10.4696360">
	<ele>2487.60</ele>
	<time>2023-08-06T06:08:48.000Z</time>
</trkpt>
<trkpt lat="46.0282720" lon="10.4696410">
	<ele>2487.20</ele>
	<time>2023-08-06T06:08:49.000Z</time>
</trkpt>
<trkpt lat="46.0282720" lon="10.4696450">
	<ele>2487.00</ele>
	<time>2023-08-06T06:08:50.000Z</time>
</trkpt>
<trkpt lat="46.0282740" lon="10.4696510">
	<ele>2486.80</ele>
	<time>2023-08-06T06:08:51.000Z</time>
</trkpt>
<trkpt lat="46.0282750" lon="10.4696550">
	<ele>2486.60</ele>
	<time>2023-08-06T06:08:52.000Z</time>
</trkpt>
<trkpt lat="46.0282770" lon="10.4696640">
	<ele>2486.40</ele>
	<time>2023-08-06T06:08:53.000Z</time>
</trkpt>
<trkpt lat="46.0282800" lon="10.4696740">
	<ele>2486.20</ele>
	<time>2023-08-06T06:08:54.000Z</time>
</trkpt>
<trkpt lat="46.0282810" lon="10.4696850">
	<ele>2486.00</ele>
	<time>2023-08-06T06:08:55.000Z</time>
</trkpt>
<trkpt lat="46.0282800" lon="10.4696930">
	<ele>2486.00</ele>
	<time>2023-08-06T06:08:56.000Z</time>
</trkpt>
<trkpt lat="46.0282790" lon="10.4697010">
	<ele>2485.80</ele>
	<time>2023-08-06T06:08:57.000Z</time>
</trkpt>
<trkpt lat="46.0282810" lon="10.4697120">
	<ele>2485.40</ele>
	<time>2023-08-06T06:08:58.000Z</time>
</trkpt>
<trkpt lat="46.0282810" lon="10.4697200">
	<ele>2485.20</ele>
	<time>2023-08-06T06:08:59.000Z</time>
</trkpt>
<trkpt lat="46.0282800" lon="10.4697300">
	<ele>2485.00</ele>
	<time>2023-08-06T06:09:00.000Z</time>
</trkpt>
<trkpt lat="46.0282820" lon="10.4697400">
	<ele>2485.00</ele>
	<time>2023-08-06T06:09:01.000Z</time>
</trkpt>
<trkpt lat="46.0282850" lon="10.4697440">
	<ele>2484.80</ele>
	<time>2023-08-06T06:09:02.000Z</time>
</trkpt>
<trkpt lat="46.0282880" lon="10.4697530">
	<ele>2484.80</ele>
	<time>2023-08-06T06:09:03.000Z</time>
</trkpt>
<trkpt lat="46.0282900" lon="10.4697610">
	<ele>2484.20</ele>
	<time>2023-08-06T06:09:04.000Z</time>
</trkpt>
<trkpt lat="46.0282930" lon="10.4697670">
	<ele>2484.00</ele>
	<time>2023-08-06T06:09:05.000Z</time>
</trkpt>
<trkpt lat="46.0282970" lon="10.4697700">
	<ele>2484.00</ele>
	<time>2023-08-06T06:09:06.000Z</time>
</trkpt>
<trkpt lat="46.0282990" lon="10.4697710">
	<ele>2483.80</ele>
	<time>2023-08-06T06:09:07.000Z</time>
</trkpt>
<trkpt lat="46.0283000" lon="10.4697730">
	<ele>2483.80</ele>
	<time>2023-08-06T06:09:08.000Z</time>
</trkpt>
<trkpt lat="46.0282980" lon="10.4697740">
	<ele>2483.60</ele>
	<time>2023-08-06T06:09:09.000Z</time>
</trkpt>
<trkpt lat="46.0283000" lon="10.4697820">
	<ele>2483.60</ele>
	<time>2023-08-06T06:09:10.000Z</time>
</trkpt>
<trkpt lat="46.0283000" lon="10.4697870">
	<ele>2483.40</ele>
	<time>2023-08-06T06:09:11.000Z</time>
</trkpt>
<trkpt lat="46.0283010" lon="10.4697900">
	<ele>2483.40</ele>
	<time>2023-08-06T06:09:12.000Z</time>
</trkpt>
<trkpt lat="46.0283010" lon="10.4697920">
	<ele>2483.40</ele>
	<time>2023-08-06T06:09:13.000Z</time>
</trkpt>
<trkpt lat="46.0283020" lon="10.4697930">
	<ele>2483.40</ele>
	<time>2023-08-06T06:09:14.000Z</time>
</trkpt>
<trkpt lat="46.0283020" lon="10.4697930">
	<ele>2483.40</ele>
	<time>2023-08-06T06:09:15.000Z</time>
</trkpt>
<trkpt lat="46.0283020" lon="10.4697940">
	<ele>2483.40</ele>
	<time>2023-08-06T06:09:16.000Z</time>
</trkpt>
<trkpt lat="46.0283020" lon="10.4697940">
	<ele>2483.60</ele>
	<time>2023-08-06T06:09:17.000Z</time>
</trkpt>
<trkpt lat="46.0283020" lon="10.4697940">
	<ele>2483.60</ele>
	<time>2023-08-06T06:09:18.000Z</time>
</trkpt>
<trkpt lat="46.0283020" lon="10.4697940">
	<ele>2483.20</ele>
	<time>2023-08-06T06:09:19.000Z</time>
</trkpt>
<trkpt lat="46.0283020" lon="10.4697940">
	<ele>2483.00</ele>
	<time>2023-08-06T06:09:20.000Z</time>
</trkpt>
<trkpt lat="46.0283020" lon="10.4697940">
	<ele>2482.80</ele>
	<time>2023-08-06T06:09:21.000Z</time>
</trkpt>
<trkpt lat="46.0283020" lon="10.4697940">
	<ele>2482.60</ele>
	<time>2023-08-06T06:09:22.000Z</time>
</trkpt>
<trkpt lat="46.0283020" lon="10.4697940">
	<ele>2482.40</ele>
	<time>2023-08-06T06:09:23.000Z</time>
</trkpt>
<trkpt lat="46.0283020" lon="10.4697940">
	<ele>2482.40</ele>
	<time>2023-08-06T06:09:24.000Z</time>
</trkpt>
<trkpt lat="46.0283020" lon="10.4697940">
	<ele>2482.20</ele>
	<time>2023-08-06T06:09:25.000Z</time>
</trkpt>
<trkpt lat="46.0283020" lon="10.4697940">
	<ele>2482.20</ele>
	<time>2023-08-06T06:09:26.000Z</time>
</trkpt>
<trkpt lat="46.0283020" lon="10.4697940">
	<ele>2482.20</ele>
	<time>2023-08-06T06:09:27.000Z</time>
</trkpt>
<trkpt lat="46.0283020" lon="10.4697940">
	<ele>2482.20</ele>
	<time>2023-08-06T06:09:28.000Z</time>
</trkpt>
<trkpt lat="46.0283020" lon="10.4697940">
	<ele>2482.20</ele>
	<time>2023-08-06T06:09:29.000Z</time>
</trkpt>
<trkpt lat="46.0283020" lon="10.4697940">
	<ele>2482.20</ele>
	<time>2023-08-06T06:09:30.000Z</time>
</trkpt>
<trkpt lat="46.0283020" lon="10.4697940">
	<ele>2482.20</ele>
	<time>2023-08-06T06:09:31.000Z</time>
</trkpt>
<trkpt lat="46.0283020" lon="10.4697950">
	<ele>2482.00</ele>
	<time>2023-08-06T06:09:32.000Z</time>
</trkpt>
<trkpt lat="46.0283020" lon="10.4697980">
	<ele>2482.00</ele>
	<time>2023-08-06T06:09:33.000Z</time>
</trkpt>
<trkpt lat="46.0283060" lon="10.4698000">
	<ele>2481.80</ele>
	<time>2023-08-06T06:09:34.000Z</time>
</trkpt>
<trkpt lat="46.0283080" lon="10.4698020">
	<ele>2481.80</ele>
	<time>2023-08-06T06:09:35.000Z</time>
</trkpt>
<trkpt lat="46.0283110" lon="10.4698070">
	<ele>2481.60</ele>
	<time>2023-08-06T06:09:36.000Z</time>
</trkpt>
<trkpt lat="46.0283130" lon="10.4698110">
	<ele>2481.40</ele>
	<time>2023-08-06T06:09:37.000Z</time>
</trkpt>
<trkpt lat="46.0283150" lon="10.4698140">
	<ele>2481.40</ele>
	<time>2023-08-06T06:09:38.000Z</time>
</trkpt>
<trkpt lat="46.0283160" lon="10.4698170">
	<ele>2481.60</ele>
	<time>2023-08-06T06:09:39.000Z</time>
</trkpt>
<trkpt lat="46.0283190" lon="10.4698250">
	<ele>2481.60</ele>
	<time>2023-08-06T06:09:40.000Z</time>
</trkpt>
<trkpt lat="46.0283210" lon="10.4698290">
	<ele>2481.80</ele>
	<time>2023-08-06T06:09:41.000Z</time>
</trkpt>
<trkpt lat="46.0283210" lon="10.4698340">
	<ele>2482.00</ele>
	<time>2023-08-06T06:09:42.000Z</time>
</trkpt>
<trkpt lat="46.0283210" lon="10.4698450">
	<ele>2482.00</ele>
	<time>2023-08-06T06:09:43.000Z</time>
</trkpt>
<trkpt lat="46.0283210" lon="10.4698620">
	<ele>2482.00</ele>
	<time>2023-08-06T06:09:44.000Z</time>
</trkpt>
<trkpt lat="46.0283210" lon="10.4698690">
	<ele>2482.20</ele>
	<time>2023-08-06T06:09:45.000Z</time>
</trkpt>
<trkpt lat="46.0283210" lon="10.4698730">
	<ele>2482.20</ele>
	<time>2023-08-06T06:09:46.000Z</time>
</trkpt>
<trkpt lat="46.0283220" lon="10.4698770">
	<ele>2482.20</ele>
	<time>2023-08-06T06:09:47.000Z</time>
</trkpt>
<trkpt lat="46.0283220" lon="10.4698840">
	<ele>2482.00</ele>
	<time>2023-08-06T06:09:48.000Z</time>
</trkpt>
<trkpt lat="46.0283230" lon="10.4698880">
	<ele>2482.00</ele>
	<time>2023-08-06T06:09:49.000Z</time>
</trkpt>
<trkpt lat="46.0283230" lon="10.4698910">
	<ele>2482.00</ele>
	<time>2023-08-06T06:09:50.000Z</time>
</trkpt>
<trkpt lat="46.0283230" lon="10.4698950">
	<ele>2482.00</ele>
	<time>2023-08-06T06:09:51.000Z</time>
</trkpt>
<trkpt lat="46.0283230" lon="10.4698950">
	<ele>2482.00</ele>
	<time>2023-08-06T06:09:52.000Z</time>
</trkpt>
<trkpt lat="46.0283230" lon="10.4698960">
	<ele>2482.00</ele>
	<time>2023-08-06T06:09:53.000Z</time>
</trkpt>
<trkpt lat="46.0283240" lon="10.4698960">
	<ele>2482.00</ele>
	<time>2023-08-06T06:09:54.000Z</time>
</trkpt>
<trkpt lat="46.0283240" lon="10.4698960">
	<ele>2481.80</ele>
	<time>2023-08-06T06:09:55.000Z</time>
</trkpt>
<trkpt lat="46.0283240" lon="10.4698960">
	<ele>2481.60</ele>
	<time>2023-08-06T06:09:56.000Z</time>
</trkpt>
<trkpt lat="46.0283240" lon="10.4698970">
	<ele>2481.60</ele>
	<time>2023-08-06T06:09:57.000Z</time>
</trkpt>
<trkpt lat="46.0283240" lon="10.4698970">
	<ele>2481.40</ele>
	<time>2023-08-06T06:09:58.000Z</time>
</trkpt>
<trkpt lat="46.0283240" lon="10.4698970">
	<ele>2481.40</ele>
	<time>2023-08-06T06:09:59.000Z</time>
</trkpt>
<trkpt lat="46.0283240" lon="10.4698970">
	<ele>2481.40</ele>
	<time>2023-08-06T06:10:00.000Z</time>
</trkpt>
<trkpt lat="46.0283240" lon="10.4698970">
	<ele>2481.20</ele>
	<time>2023-08-06T06:10:01.000Z</time>
</trkpt>
<trkpt lat="46.0283240" lon="10.4698970">
	<ele>2481.20</ele>
	<time>2023-08-06T06:10:02.000Z</time>
</trkpt>
<trkpt lat="46.0283240" lon="10.4698970">
	<ele>2481.00</ele>
	<time>2023-08-06T06:10:03.000Z</time>
</trkpt>
<trkpt lat="46.0283240" lon="10.4698980">
	<ele>2481.00</ele>
	<time>2023-08-06T06:10:04.000Z</time>
</trkpt>
<trkpt lat="46.0283240" lon="10.4698980">
	<ele>2481.00</ele>
	<time>2023-08-06T06:10:05.000Z</time>
</trkpt>
<trkpt lat="46.0283240" lon="10.4698980">
	<ele>2481.00</ele>
	<time>2023-08-06T06:10:06.000Z</time>
</trkpt>
<trkpt lat="46.0283250" lon="10.4698990">
	<ele>2481.00</ele>
	<time>2023-08-06T06:10:07.000Z</time>
</trkpt>
<trkpt lat="46.0283250" lon="10.4699020">
	<ele>2481.00</ele>
	<time>2023-08-06T06:10:08.000Z</time>
</trkpt>
<trkpt lat="46.0283250" lon="10.4699020">
	<ele>2481.00</ele>
	<time>2023-08-06T06:10:09.000Z</time>
</trkpt>
<trkpt lat="46.0283250" lon="10.4699020">
	<ele>2481.00</ele>
	<time>2023-08-06T06:10:10.000Z</time>
</trkpt>
<trkpt lat="46.0283250" lon="10.4699020">
	<ele>2481.00</ele>
	<time>2023-08-06T06:10:11.000Z</time>
</trkpt>
<trkpt lat="46.0283250" lon="10.4699020">
	<ele>2481.00</ele>
	<time>2023-08-06T06:10:12.000Z</time>
</trkpt>
<trkpt lat="46.0283250" lon="10.4699020">
	<ele>2481.00</ele>
	<time>2023-08-06T06:10:13.000Z</time>
</trkpt>
<trkpt lat="46.0283250" lon="10.4699020">
	<ele>2481.00</ele>
	<time>2023-08-06T06:10:14.000Z</time>
</trkpt>
<trkpt lat="46.0283250" lon="10.4699020">
	<ele>2480.80</ele>
	<time>2023-08-06T06:10:15.000Z</time>
</trkpt>
<trkpt lat="46.0283250" lon="10.4699020">
	<ele>2480.60</ele>
	<time>2023-08-06T06:10:16.000Z</time>
</trkpt>
<trkpt lat="46.0283250" lon="10.4699020">
	<ele>2480.40</ele>
	<time>2023-08-06T06:10:17.000Z</time>
</trkpt>
<trkpt lat="46.0283250" lon="10.4699020">
	<ele>2480.40</ele>
	<time>2023-08-06T06:10:18.000Z</time>
</trkpt>
<trkpt lat="46.0283250" lon="10.4699020">
	<ele>2480.20</ele>
	<time>2023-08-06T06:10:19.000Z</time>
</trkpt>
<trkpt lat="46.0283250" lon="10.4699020">
	<ele>2480.00</ele>
	<time>2023-08-06T06:10:20.000Z</time>
</trkpt>
<trkpt lat="46.0283240" lon="10.4699020">
	<ele>2480.00</ele>
	<time>2023-08-06T06:10:21.000Z</time>
</trkpt>
<trkpt lat="46.0283180" lon="10.4698960">
	<ele>2479.80</ele>
	<time>2023-08-06T06:10:22.000Z</time>
</trkpt>
<trkpt lat="46.0283010" lon="10.4698830">
	<ele>2479.60</ele>
	<time>2023-08-06T06:10:23.000Z</time>
</trkpt>
<trkpt lat="46.0282850" lon="10.4698710">
	<ele>2479.40</ele>
	<time>2023-08-06T06:10:24.000Z</time>
</trkpt>
<trkpt lat="46.0282650" lon="10.4698570">
	<ele>2479.20</ele>
	<time>2023-08-06T06:10:25.000Z</time>
</trkpt>
<trkpt lat="46.0282480" lon="10.4698390">
	<ele>2479.00</ele>
	<time>2023-08-06T06:10:26.000Z</time>
</trkpt>
<trkpt lat="46.0282350" lon="10.4698200">
	<ele>2478.80</ele>
	<time>2023-08-06T06:10:27.000Z</time>
</trkpt>
<trkpt lat="46.0282240" lon="10.4698020">
	<ele>2478.80</ele>
	<time>2023-08-06T06:10:28.000Z</time>
</trkpt>
<trkpt lat="46.0282120" lon="10.4697910">
	<ele>2478.80</ele>
	<time>2023-08-06T06:10:29.000Z</time>
</trkpt>
<trkpt lat="46.0281950" lon="10.4697850">
	<ele>2478.80</ele>
	<time>2023-08-06T06:10:30.000Z</time>
</trkpt>
<trkpt lat="46.0281730" lon="10.4697780">
	<ele>2478.60</ele>
	<time>2023-08-06T06:10:31.000Z</time>
</trkpt>
<trkpt lat="46.0281630" lon="10.4697780">
	<ele>2478.60</ele>
	<time>2023-08-06T06:10:32.000Z</time>
</trkpt>
<trkpt lat="46.0281570" lon="10.4697770">
	<ele>2478.40</ele>
	<time>2023-08-06T06:10:33.000Z</time>
</trkpt>
<trkpt lat="46.0281510" lon="10.4697770">
	<ele>2478.40</ele>
	<time>2023-08-06T06:10:34.000Z</time>
</trkpt>
<trkpt lat="46.0281420" lon="10.4697790">
	<ele>2478.20</ele>
	<time>2023-08-06T06:10:35.000Z</time>
</trkpt>
<trkpt lat="46.0281330" lon="10.4697750">
	<ele>2477.80</ele>
	<time>2023-08-06T06:10:36.000Z</time>
</trkpt>
<trkpt lat="46.0281270" lon="10.4697730">
	<ele>2477.60</ele>
	<time>2023-08-06T06:10:37.000Z</time>
</trkpt>
<trkpt lat="46.0281210" lon="10.4697690">
	<ele>2477.40</ele>
	<time>2023-08-06T06:10:38.000Z</time>
</trkpt>
<trkpt lat="46.0281150" lon="10.4697630">
	<ele>2477.20</ele>
	<time>2023-08-06T06:10:39.000Z</time>
</trkpt>
<trkpt lat="46.0281110" lon="10.4697660">
	<ele>2477.00</ele>
	<time>2023-08-06T06:10:40.000Z</time>
</trkpt>
<trkpt lat="46.0281030" lon="10.4697680">
	<ele>2476.80</ele>
	<time>2023-08-06T06:10:41.000Z</time>
</trkpt>
<trkpt lat="46.0280940" lon="10.4697650">
	<ele>2476.80</ele>
	<time>2023-08-06T06:10:42.000Z</time>
</trkpt>
<trkpt lat="46.0280880" lon="10.4697490">
	<ele>2476.60</ele>
	<time>2023-08-06T06:10:43.000Z</time>
</trkpt>
<trkpt lat="46.0280850" lon="10.4697370">
	<ele>2476.60</ele>
	<time>2023-08-06T06:10:44.000Z</time>
</trkpt>
<trkpt lat="46.0280740" lon="10.4697280">
	<ele>2476.40</ele>
	<time>2023-08-06T06:10:45.000Z</time>
</trkpt>
<trkpt lat="46.0280700" lon="10.4697240">
	<ele>2476.40</ele>
	<time>2023-08-06T06:10:46.000Z</time>
</trkpt>
<trkpt lat="46.0280610" lon="10.4697210">
	<ele>2476.40</ele>
	<time>2023-08-06T06:10:47.000Z</time>
</trkpt>
<trkpt lat="46.0280560" lon="10.4697200">
	<ele>2476.20</ele>
	<time>2023-08-06T06:10:48.000Z</time>
</trkpt>
<trkpt lat="46.0280500" lon="10.4697160">
	<ele>2476.00</ele>
	<time>2023-08-06T06:10:49.000Z</time>
</trkpt>
<trkpt lat="46.0280410" lon="10.4697130">
	<ele>2476.00</ele>
	<time>2023-08-06T06:10:50.000Z</time>
</trkpt>
<trkpt lat="46.0280400" lon="10.4697110">
	<ele>2475.80</ele>
	<time>2023-08-06T06:10:51.000Z</time>
</trkpt>
<trkpt lat="46.0280350" lon="10.4697070">
	<ele>2475.60</ele>
	<time>2023-08-06T06:10:52.000Z</time>
</trkpt>
<trkpt lat="46.0280290" lon="10.4697070">
	<ele>2475.40</ele>
	<time>2023-08-06T06:10:53.000Z</time>
</trkpt>
<trkpt lat="46.0280250" lon="10.4697110">
	<ele>2475.40</ele>
	<time>2023-08-06T06:10:54.000Z</time>
</trkpt>
<trkpt lat="46.0280230" lon="10.4697190">
	<ele>2475.20</ele>
	<time>2023-08-06T06:10:55.000Z</time>
</trkpt>
<trkpt lat="46.0280210" lon="10.4697290">
	<ele>2475.20</ele>
	<time>2023-08-06T06:10:56.000Z</time>
</trkpt>
<trkpt lat="46.0280200" lon="10.4697350">
	<ele>2475.00</ele>
	<time>2023-08-06T06:10:57.000Z</time>
</trkpt>
<trkpt lat="46.0280180" lon="10.4697470">
	<ele>2474.80</ele>
	<time>2023-08-06T06:10:58.000Z</time>
</trkpt>
<trkpt lat="46.0280170" lon="10.4697590">
	<ele>2474.60</ele>
	<time>2023-08-06T06:10:59.000Z</time>
</trkpt>
<trkpt lat="46.0280140" lon="10.4697720">
	<ele>2474.60</ele>
	<time>2023-08-06T06:11:00.000Z</time>
</trkpt>
<trkpt lat="46.0280120" lon="10.4697860">
	<ele>2474.40</ele>
	<time>2023-08-06T06:11:01.000Z</time>
</trkpt>
<trkpt lat="46.0280090" lon="10.4697970">
	<ele>2474.40</ele>
	<time>2023-08-06T06:11:02.000Z</time>
</trkpt>
<trkpt lat="46.0280040" lon="10.4698110">
	<ele>2474.20</ele>
	<time>2023-08-06T06:11:03.000Z</time>
</trkpt>
<trkpt lat="46.0280010" lon="10.4698220">
	<ele>2474.20</ele>
	<time>2023-08-06T06:11:04.000Z</time>
</trkpt>
<trkpt lat="46.0279960" lon="10.4698300">
	<ele>2474.20</ele>
	<time>2023-08-06T06:11:05.000Z</time>
</trkpt>
<trkpt lat="46.0279930" lon="10.4698340">
	<ele>2474.00</ele>
	<time>2023-08-06T06:11:06.000Z</time>
</trkpt>
<trkpt lat="46.0279890" lon="10.4698410">
	<ele>2474.00</ele>
	<time>2023-08-06T06:11:07.000Z</time>
</trkpt>
<trkpt lat="46.0279890" lon="10.4698500">
	<ele>2474.00</ele>
	<time>2023-08-06T06:11:08.000Z</time>
</trkpt>
<trkpt lat="46.0279880" lon="10.4698620">
	<ele>2474.00</ele>
	<time>2023-08-06T06:11:09.000Z</time>
</trkpt>
<trkpt lat="46.0279900" lon="10.4698810">
	<ele>2474.00</ele>
	<time>2023-08-06T06:11:10.000Z</time>
</trkpt>
<trkpt lat="46.0279910" lon="10.4698930">
	<ele>2474.00</ele>
	<time>2023-08-06T06:11:11.000Z</time>
</trkpt>
<trkpt lat="46.0279940" lon="10.4699040">
	<ele>2474.00</ele>
	<time>2023-08-06T06:11:12.000Z</time>
</trkpt>
<trkpt lat="46.0279960" lon="10.4699120">
	<ele>2473.80</ele>
	<time>2023-08-06T06:11:13.000Z</time>
</trkpt>
<trkpt lat="46.0280000" lon="10.4699180">
	<ele>2473.80</ele>
	<time>2023-08-06T06:11:14.000Z</time>
</trkpt>
<trkpt lat="46.0280030" lon="10.4699280">
	<ele>2473.80</ele>
	<time>2023-08-06T06:11:15.000Z</time>
</trkpt>
<trkpt lat="46.0280050" lon="10.4699330">
	<ele>2473.80</ele>
	<time>2023-08-06T06:11:16.000Z</time>
</trkpt>
<trkpt lat="46.0280060" lon="10.4699440">
	<ele>2473.60</ele>
	<time>2023-08-06T06:11:17.000Z</time>
</trkpt>
<trkpt lat="46.0280090" lon="10.4699570">
	<ele>2473.40</ele>
	<time>2023-08-06T06:11:18.000Z</time>
</trkpt>
<trkpt lat="46.0280150" lon="10.4699750">
	<ele>2473.40</ele>
	<time>2023-08-06T06:11:19.000Z</time>
</trkpt>
<trkpt lat="46.0280200" lon="10.4699920">
	<ele>2473.40</ele>
	<time>2023-08-06T06:11:20.000Z</time>
</trkpt>
<trkpt lat="46.0280250" lon="10.4700080">
	<ele>2473.20</ele>
	<time>2023-08-06T06:11:21.000Z</time>
</trkpt>
<trkpt lat="46.0280310" lon="10.4700210">
	<ele>2473.20</ele>
	<time>2023-08-06T06:11:22.000Z</time>
</trkpt>
<trkpt lat="46.0280350" lon="10.4700330">
	<ele>2473.40</ele>
	<time>2023-08-06T06:11:23.000Z</time>
</trkpt>
<trkpt lat="46.0280370" lon="10.4700480">
	<ele>2473.40</ele>
	<time>2023-08-06T06:11:24.000Z</time>
</trkpt>
<trkpt lat="46.0280410" lon="10.4700630">
	<ele>2473.60</ele>
	<time>2023-08-06T06:11:25.000Z</time>
</trkpt>
<trkpt lat="46.0280460" lon="10.4700780">
	<ele>2473.60</ele>
	<time>2023-08-06T06:11:26.000Z</time>
</trkpt>
<trkpt lat="46.0280520" lon="10.4700910">
	<ele>2473.80</ele>
	<time>2023-08-06T06:11:27.000Z</time>
</trkpt>
<trkpt lat="46.0280550" lon="10.4701070">
	<ele>2474.00</ele>
	<time>2023-08-06T06:11:28.000Z</time>
</trkpt>
<trkpt lat="46.0280560" lon="10.4701210">
	<ele>2474.20</ele>
	<time>2023-08-06T06:11:29.000Z</time>
</trkpt>
<trkpt lat="46.0280560" lon="10.4701360">
	<ele>2474.40</ele>
	<time>2023-08-06T06:11:30.000Z</time>
</trkpt>
<trkpt lat="46.0280550" lon="10.4701500">
	<ele>2474.60</ele>
	<time>2023-08-06T06:11:31.000Z</time>
</trkpt>
<trkpt lat="46.0280550" lon="10.4701590">
	<ele>2474.80</ele>
	<time>2023-08-06T06:11:32.000Z</time>
</trkpt>
<trkpt lat="46.0280570" lon="10.4701750">
	<ele>2475.20</ele>
	<time>2023-08-06T06:11:33.000Z</time>
</trkpt>
<trkpt lat="46.0280540" lon="10.4701830">
	<ele>2475.60</ele>
	<time>2023-08-06T06:11:34.000Z</time>
</trkpt>
<trkpt lat="46.0280540" lon="10.4701970">
	<ele>2475.80</ele>
	<time>2023-08-06T06:11:35.000Z</time>
</trkpt>
<trkpt lat="46.0280570" lon="10.4702090">
	<ele>2475.80</ele>
	<time>2023-08-06T06:11:36.000Z</time>
</trkpt>
<trkpt lat="46.0280640" lon="10.4702210">
	<ele>2475.80</ele>
	<time>2023-08-06T06:11:37.000Z</time>
</trkpt>
<trkpt lat="46.0280740" lon="10.4702380">
	<ele>2475.80</ele>
	<time>2023-08-06T06:11:38.000Z</time>
</trkpt>
<trkpt lat="46.0280840" lon="10.4702420">
	<ele>2475.60</ele>
	<time>2023-08-06T06:11:39.000Z</time>
</trkpt>
<trkpt lat="46.0280910" lon="10.4702540">
	<ele>2475.40</ele>
	<time>2023-08-06T06:11:40.000Z</time>
</trkpt>
<trkpt lat="46.0280910" lon="10.4702670">
	<ele>2475.20</ele>
	<time>2023-08-06T06:11:41.000Z</time>
</trkpt>
<trkpt lat="46.0280910" lon="10.4702740">
	<ele>2475.00</ele>
	<time>2023-08-06T06:11:42.000Z</time>
</trkpt>
<trkpt lat="46.0280850" lon="10.4702830">
	<ele>2475.00</ele>
	<time>2023-08-06T06:11:43.000Z</time>
</trkpt>
<trkpt lat="46.0280920" lon="10.4702840">
	<ele>2474.80</ele>
	<time>2023-08-06T06:11:44.000Z</time>
</trkpt>
<trkpt lat="46.0281030" lon="10.4702910">
	<ele>2474.60</ele>
	<time>2023-08-06T06:11:45.000Z</time>
</trkpt>
<trkpt lat="46.0281130" lon="10.4703030">
	<ele>2474.60</ele>
	<time>2023-08-06T06:11:46.000Z</time>
</trkpt>
<trkpt lat="46.0281230" lon="10.4703160">
	<ele>2474.40</ele>
	<time>2023-08-06T06:11:47.000Z</time>
</trkpt>
<trkpt lat="46.0281280" lon="10.4703290">
	<ele>2474.40</ele>
	<time>2023-08-06T06:11:48.000Z</time>
</trkpt>
<trkpt lat="46.0281350" lon="10.4703420">
	<ele>2474.40</ele>
	<time>2023-08-06T06:11:49.000Z</time>
</trkpt>
<trkpt lat="46.0281380" lon="10.4703550">
	<ele>2474.40</ele>
	<time>2023-08-06T06:11:50.000Z</time>
</trkpt>
<trkpt lat="46.0281380" lon="10.4703670">
	<ele>2474.40</ele>
	<time>2023-08-06T06:11:51.000Z</time>
</trkpt>
<trkpt lat="46.0281380" lon="10.4703800">
	<ele>2474.40</ele>
	<time>2023-08-06T06:11:52.000Z</time>
</trkpt>
<trkpt lat="46.0281410" lon="10.4703980">
	<ele>2474.40</ele>
	<time>2023-08-06T06:11:53.000Z</time>
</trkpt>
<trkpt lat="46.0281410" lon="10.4704110">
	<ele>2474.40</ele>
	<time>2023-08-06T06:11:54.000Z</time>
</trkpt>
<trkpt lat="46.0281430" lon="10.4704220">
	<ele>2474.60</ele>
	<time>2023-08-06T06:11:55.000Z</time>
</trkpt>
<trkpt lat="46.0281440" lon="10.4704320">
	<ele>2474.80</ele>
	<time>2023-08-06T06:11:56.000Z</time>
</trkpt>
<trkpt lat="46.0281460" lon="10.4704400">
	<ele>2474.80</ele>
	<time>2023-08-06T06:11:57.000Z</time>
</trkpt>
<trkpt lat="46.0281470" lon="10.4704500">
	<ele>2475.00</ele>
	<time>2023-08-06T06:11:58.000Z</time>
</trkpt>
<trkpt lat="46.0281500" lon="10.4704600">
	<ele>2475.00</ele>
	<time>2023-08-06T06:11:59.000Z</time>
</trkpt>
<trkpt lat="46.0281540" lon="10.4704690">
	<ele>2475.00</ele>
	<time>2023-08-06T06:12:00.000Z</time>
</trkpt>
<trkpt lat="46.0281590" lon="10.4704790">
	<ele>2475.00</ele>
	<time>2023-08-06T06:12:01.000Z</time>
</trkpt>
<trkpt lat="46.0281620" lon="10.4704870">
	<ele>2475.00</ele>
	<time>2023-08-06T06:12:02.000Z</time>
</trkpt>
<trkpt lat="46.0281660" lon="10.4705010">
	<ele>2475.00</ele>
	<time>2023-08-06T06:12:03.000Z</time>
</trkpt>
<trkpt lat="46.0281730" lon="10.4705170">
	<ele>2474.80</ele>
	<time>2023-08-06T06:12:04.000Z</time>
</trkpt>
<trkpt lat="46.0281780" lon="10.4705310">
	<ele>2474.80</ele>
	<time>2023-08-06T06:12:05.000Z</time>
</trkpt>
<trkpt lat="46.0281820" lon="10.4705490">
	<ele>2474.80</ele>
	<time>2023-08-06T06:12:06.000Z</time>
</trkpt>
<trkpt lat="46.0281800" lon="10.4705590">
	<ele>2474.80</ele>
	<time>2023-08-06T06:12:07.000Z</time>
</trkpt>
<trkpt lat="46.0281850" lon="10.4705550">
	<ele>2474.80</ele>
	<time>2023-08-06T06:12:08.000Z</time>
</trkpt>
<trkpt lat="46.0281930" lon="10.4705620">
	<ele>2474.80</ele>
	<time>2023-08-06T06:12:09.000Z</time>
</trkpt>
<trkpt lat="46.0282030" lon="10.4705630">
	<ele>2474.80</ele>
	<time>2023-08-06T06:12:10.000Z</time>
</trkpt>
<trkpt lat="46.0282080" lon="10.4705720">
	<ele>2474.80</ele>
	<time>2023-08-06T06:12:11.000Z</time>
</trkpt>
<trkpt lat="46.0282140" lon="10.4705810">
	<ele>2475.00</ele>
	<time>2023-08-06T06:12:12.000Z</time>
</trkpt>
<trkpt lat="46.0282220" lon="10.4705900">
	<ele>2475.00</ele>
	<time>2023-08-06T06:12:13.000Z</time>
</trkpt>
<trkpt lat="46.0282280" lon="10.4705990">
	<ele>2475.00</ele>
	<time>2023-08-06T06:12:14.000Z</time>
</trkpt>
<trkpt lat="46.0282360" lon="10.4706070">
	<ele>2475.20</ele>
	<time>2023-08-06T06:12:15.000Z</time>
</trkpt>
<trkpt lat="46.0282390" lon="10.4706170">
	<ele>2475.40</ele>
	<time>2023-08-06T06:12:16.000Z</time>
</trkpt>
<trkpt lat="46.0282450" lon="10.4706310">
	<ele>2475.60</ele>
	<time>2023-08-06T06:12:17.000Z</time>
</trkpt>
<trkpt lat="46.0282540" lon="10.4706370">
	<ele>2475.80</ele>
	<time>2023-08-06T06:12:18.000Z</time>
</trkpt>
<trkpt lat="46.0282620" lon="10.4706440">
	<ele>2476.00</ele>
	<time>2023-08-06T06:12:19.000Z</time>
</trkpt>
<trkpt lat="46.0282700" lon="10.4706540">
	<ele>2476.20</ele>
	<time>2023-08-06T06:12:20.000Z</time>
</trkpt>
<trkpt lat="46.0282750" lon="10.4706660">
	<ele>2476.20</ele>
	<time>2023-08-06T06:12:21.000Z</time>
</trkpt>
<trkpt lat="46.0282810" lon="10.4706730">
	<ele>2476.20</ele>
	<time>2023-08-06T06:12:22.000Z</time>
</trkpt>
<trkpt lat="46.0282880" lon="10.4706780">
	<ele>2476.20</ele>
	<time>2023-08-06T06:12:23.000Z</time>
</trkpt>
<trkpt lat="46.0282950" lon="10.4706850">
	<ele>2476.20</ele>
	<time>2023-08-06T06:12:24.000Z</time>
</trkpt>
<trkpt lat="46.0283050" lon="10.4706900">
	<ele>2476.20</ele>
	<time>2023-08-06T06:12:25.000Z</time>
</trkpt>
<trkpt lat="46.0283160" lon="10.4707000">
	<ele>2476.20</ele>
	<time>2023-08-06T06:12:26.000Z</time>
</trkpt>
<trkpt lat="46.0283250" lon="10.4707050">
	<ele>2476.20</ele>
	<time>2023-08-06T06:12:27.000Z</time>
</trkpt>
<trkpt lat="46.0283340" lon="10.4707120">
	<ele>2476.20</ele>
	<time>2023-08-06T06:12:28.000Z</time>
</trkpt>
<trkpt lat="46.0283430" lon="10.4707200">
	<ele>2476.20</ele>
	<time>2023-08-06T06:12:29.000Z</time>
</trkpt>
<trkpt lat="46.0283510" lon="10.4707270">
	<ele>2476.20</ele>
	<time>2023-08-06T06:12:30.000Z</time>
</trkpt>
<trkpt lat="46.0283570" lon="10.4707360">
	<ele>2476.20</ele>
	<time>2023-08-06T06:12:31.000Z</time>
</trkpt>
<trkpt lat="46.0283630" lon="10.4707480">
	<ele>2476.20</ele>
	<time>2023-08-06T06:12:32.000Z</time>
</trkpt>
<trkpt lat="46.0283680" lon="10.4707560">
	<ele>2476.40</ele>
	<time>2023-08-06T06:12:33.000Z</time>
</trkpt>
<trkpt lat="46.0283700" lon="10.4707660">
	<ele>2476.60</ele>
	<time>2023-08-06T06:12:34.000Z</time>
</trkpt>
<trkpt lat="46.0283700" lon="10.4707800">
	<ele>2476.80</ele>
	<time>2023-08-06T06:12:35.000Z</time>
</trkpt>
<trkpt lat="46.0283660" lon="10.4707910">
	<ele>2477.00</ele>
	<time>2023-08-06T06:12:36.000Z</time>
</trkpt>
<trkpt lat="46.0283570" lon="10.4707970">
	<ele>2477.00</ele>
	<time>2023-08-06T06:12:37.000Z</time>
</trkpt>
<trkpt lat="46.0283490" lon="10.4708030">
	<ele>2477.20</ele>
	<time>2023-08-06T06:12:38.000Z</time>
</trkpt>
<trkpt lat="46.0283440" lon="10.4708110">
	<ele>2477.60</ele>
	<time>2023-08-06T06:12:39.000Z</time>
</trkpt>
<trkpt lat="46.0283400" lon="10.4708200">
	<ele>2477.60</ele>
	<time>2023-08-06T06:12:40.000Z</time>
</trkpt>
<trkpt lat="46.0283350" lon="10.4708260">
	<ele>2477.80</ele>
	<time>2023-08-06T06:12:41.000Z</time>
</trkpt>
<trkpt lat="46.0283280" lon="10.4708330">
	<ele>2478.00</ele>
	<time>2023-08-06T06:12:42.000Z</time>
</trkpt>
<trkpt lat="46.0283240" lon="10.4708410">
	<ele>2478.20</ele>
	<time>2023-08-06T06:12:43.000Z</time>
</trkpt>
<trkpt lat="46.0283220" lon="10.4708430">
	<ele>2478.40</ele>
	<time>2023-08-06T06:12:44.000Z</time>
</trkpt>
<trkpt lat="46.0283210" lon="10.4708450">
	<ele>2478.40</ele>
	<time>2023-08-06T06:12:45.000Z</time>
</trkpt>
<trkpt lat="46.0283230" lon="10.4708530">
	<ele>2478.60</ele>
	<time>2023-08-06T06:12:46.000Z</time>
</trkpt>
<trkpt lat="46.0283250" lon="10.4708610">
	<ele>2478.80</ele>
	<time>2023-08-06T06:12:47.000Z</time>
</trkpt>
<trkpt lat="46.0283260" lon="10.4708650">
	<ele>2479.00</ele>
	<time>2023-08-06T06:12:48.000Z</time>
</trkpt>
<trkpt lat="46.0283280" lon="10.4708690">
	<ele>2479.20</ele>
	<time>2023-08-06T06:12:49.000Z</time>
</trkpt>
<trkpt lat="46.0283310" lon="10.4708720">
	<ele>2479.40</ele>
	<time>2023-08-06T06:12:50.000Z</time>
</trkpt>
<trkpt lat="46.0283340" lon="10.4708730">
	<ele>2479.60</ele>
	<time>2023-08-06T06:12:51.000Z</time>
</trkpt>
<trkpt lat="46.0283380" lon="10.4708800">
	<ele>2479.60</ele>
	<time>2023-08-06T06:12:52.000Z</time>
</trkpt>
<trkpt lat="46.0283430" lon="10.4708860">
	<ele>2479.80</ele>
	<time>2023-08-06T06:12:53.000Z</time>
</trkpt>
<trkpt lat="46.0283450" lon="10.4708900">
	<ele>2479.80</ele>
	<time>2023-08-06T06:12:54.000Z</time>
</trkpt>
<trkpt lat="46.0283490" lon="10.4708940">
	<ele>2480.00</ele>
	<time>2023-08-06T06:12:55.000Z</time>
</trkpt>
<trkpt lat="46.0283560" lon="10.4709020">
	<ele>2480.00</ele>
	<time>2023-08-06T06:12:56.000Z</time>
</trkpt>
<trkpt lat="46.0283610" lon="10.4709080">
	<ele>2480.00</ele>
	<time>2023-08-06T06:12:57.000Z</time>
</trkpt>
<trkpt lat="46.0283650" lon="10.4709160">
	<ele>2480.20</ele>
	<time>2023-08-06T06:12:58.000Z</time>
</trkpt>
<trkpt lat="46.0283700" lon="10.4709260">
	<ele>2480.20</ele>
	<time>2023-08-06T06:12:59.000Z</time>
</trkpt>
<trkpt lat="46.0283760" lon="10.4709370">
	<ele>2480.40</ele>
	<time>2023-08-06T06:13:00.000Z</time>
</trkpt>
<trkpt lat="46.0283810" lon="10.4709500">
	<ele>2480.60</ele>
	<time>2023-08-06T06:13:01.000Z</time>
</trkpt>
<trkpt lat="46.0283820" lon="10.4709580">
	<ele>2481.00</ele>
	<time>2023-08-06T06:13:02.000Z</time>
</trkpt>
<trkpt lat="46.0283830" lon="10.4709690">
	<ele>2481.20</ele>
	<time>2023-08-06T06:13:03.000Z</time>
</trkpt>
<trkpt lat="46.0283850" lon="10.4709750">
	<ele>2481.20</ele>
	<time>2023-08-06T06:13:04.000Z</time>
</trkpt>
<trkpt lat="46.0283890" lon="10.4709860">
	<ele>2481.40</ele>
	<time>2023-08-06T06:13:05.000Z</time>
</trkpt>
<trkpt lat="46.0283940" lon="10.4709950">
	<ele>2481.60</ele>
	<time>2023-08-06T06:13:06.000Z</time>
</trkpt>
<trkpt lat="46.0283970" lon="10.4710010">
	<ele>2481.60</ele>
	<time>2023-08-06T06:13:07.000Z</time>
</trkpt>
<trkpt lat="46.0284010" lon="10.4710060">
	<ele>2481.80</ele>
	<time>2023-08-06T06:13:08.000Z</time>
</trkpt>
<trkpt lat="46.0284050" lon="10.4710140">
	<ele>2482.00</ele>
	<time>2023-08-06T06:13:09.000Z</time>
</trkpt>
<trkpt lat="46.0284080" lon="10.4710230">
	<ele>2482.00</ele>
	<time>2023-08-06T06:13:10.000Z</time>
</trkpt>
<trkpt lat="46.0284130" lon="10.4710240">
	<ele>2482.00</ele>
	<time>2023-08-06T06:13:11.000Z</time>
</trkpt>
<trkpt lat="46.0284190" lon="10.4710280">
	<ele>2482.00</ele>
	<time>2023-08-06T06:13:12.000Z</time>
</trkpt>
<trkpt lat="46.0284280" lon="10.4710290">
	<ele>2482.00</ele>
	<time>2023-08-06T06:13:13.000Z</time>
</trkpt>
<trkpt lat="46.0284360" lon="10.4710320">
	<ele>2482.00</ele>
	<time>2023-08-06T06:13:14.000Z</time>
</trkpt>
<trkpt lat="46.0284460" lon="10.4710340">
	<ele>2482.00</ele>
	<time>2023-08-06T06:13:15.000Z</time>
</trkpt>
<trkpt lat="46.0284550" lon="10.4710360">
	<ele>2482.00</ele>
	<time>2023-08-06T06:13:16.000Z</time>
</trkpt>
<trkpt lat="46.0284580" lon="10.4710390">
	<ele>2482.20</ele>
	<time>2023-08-06T06:13:17.000Z</time>
</trkpt>
<trkpt lat="46.0284680" lon="10.4710330">
	<ele>2482.20</ele>
	<time>2023-08-06T06:13:18.000Z</time>
</trkpt>
<trkpt lat="46.0284710" lon="10.4710360">
	<ele>2482.20</ele>
	<time>2023-08-06T06:13:19.000Z</time>
</trkpt>
<trkpt lat="46.0284780" lon="10.4710410">
	<ele>2482.40</ele>
	<time>2023-08-06T06:13:20.000Z</time>
</trkpt>
<trkpt lat="46.0284850" lon="10.4710480">
	<ele>2482.60</ele>
	<time>2023-08-06T06:13:21.000Z</time>
</trkpt>
<trkpt lat="46.0284930" lon="10.4710610">
	<ele>2482.80</ele>
	<time>2023-08-06T06:13:22.000Z</time>
</trkpt>
<trkpt lat="46.0285000" lon="10.4710660">
	<ele>2482.80</ele>
	<time>2023-08-06T06:13:23.000Z</time>
</trkpt>
<trkpt lat="46.0285020" lon="10.4710730">
	<ele>2482.80</ele>
	<time>2023-08-06T06:13:24.000Z</time>
</trkpt>
<trkpt lat="46.0285070" lon="10.4710780">
	<ele>2483.00</ele>
	<time>2023-08-06T06:13:25.000Z</time>
</trkpt>
<trkpt lat="46.0285120" lon="10.4710820">
	<ele>2483.00</ele>
	<time>2023-08-06T06:13:26.000Z</time>
</trkpt>
<trkpt lat="46.0285200" lon="10.4710880">
	<ele>2483.00</ele>
	<time>2023-08-06T06:13:27.000Z</time>
</trkpt>
<trkpt lat="46.0285290" lon="10.4710960">
	<ele>2483.00</ele>
	<time>2023-08-06T06:13:28.000Z</time>
</trkpt>
<trkpt lat="46.0285370" lon="10.4711050">
	<ele>2483.20</ele>
	<time>2023-08-06T06:13:29.000Z</time>
</trkpt>
<trkpt lat="46.0285430" lon="10.4711100">
	<ele>2483.20</ele>
	<time>2023-08-06T06:13:30.000Z</time>
</trkpt>
<trkpt lat="46.0285490" lon="10.4711150">
	<ele>2483.00</ele>
	<time>2023-08-06T06:13:31.000Z</time>
</trkpt>
<trkpt lat="46.0285560" lon="10.4711180">
	<ele>2483.00</ele>
	<time>2023-08-06T06:13:32.000Z</time>
</trkpt>
<trkpt lat="46.0285640" lon="10.4711220">
	<ele>2483.00</ele>
	<time>2023-08-06T06:13:33.000Z</time>
</trkpt>
<trkpt lat="46.0285730" lon="10.4711250">
	<ele>2483.00</ele>
	<time>2023-08-06T06:13:34.000Z</time>
</trkpt>
<trkpt lat="46.0285770" lon="10.4711260">
	<ele>2483.00</ele>
	<time>2023-08-06T06:13:35.000Z</time>
</trkpt>
<trkpt lat="46.0285830" lon="10.4711270">
	<ele>2483.00</ele>
	<time>2023-08-06T06:13:36.000Z</time>
</trkpt>
<trkpt lat="46.0285900" lon="10.4711280">
	<ele>2483.00</ele>
	<time>2023-08-06T06:13:37.000Z</time>
</trkpt>
<trkpt lat="46.0285960" lon="10.4711320">
	<ele>2482.80</ele>
	<time>2023-08-06T06:13:38.000Z</time>
</trkpt>
<trkpt lat="46.0285980" lon="10.4711340">
	<ele>2482.40</ele>
	<time>2023-08-06T06:13:39.000Z</time>
</trkpt>
<trkpt lat="46.0286030" lon="10.4711360">
	<ele>2482.20</ele>
	<time>2023-08-06T06:13:40.000Z</time>
</trkpt>
<trkpt lat="46.0286050" lon="10.4711400">
	<ele>2482.00</ele>
	<time>2023-08-06T06:13:41.000Z</time>
</trkpt>
<trkpt lat="46.0286090" lon="10.4711440">
	<ele>2482.00</ele>
	<time>2023-08-06T06:13:42.000Z</time>
</trkpt>
<trkpt lat="46.0286120" lon="10.4711450">
	<ele>2481.80</ele>
	<time>2023-08-06T06:13:43.000Z</time>
</trkpt>
<trkpt lat="46.0286140" lon="10.4711500">
	<ele>2481.60</ele>
	<time>2023-08-06T06:13:44.000Z</time>
</trkpt>
<trkpt lat="46.0286190" lon="10.4711530">
	<ele>2481.40</ele>
	<time>2023-08-06T06:13:45.000Z</time>
</trkpt>
<trkpt lat="46.0286240" lon="10.4711520">
	<ele>2481.40</ele>
	<time>2023-08-06T06:13:46.000Z</time>
</trkpt>
<trkpt lat="46.0286290" lon="10.4711510">
	<ele>2481.20</ele>
	<time>2023-08-06T06:13:47.000Z</time>
</trkpt>
<trkpt lat="46.0286370" lon="10.4711550">
	<ele>2481.20</ele>
	<time>2023-08-06T06:13:48.000Z</time>
</trkpt>
<trkpt lat="46.0286420" lon="10.4711620">
	<ele>2481.00</ele>
	<time>2023-08-06T06:13:49.000Z</time>
</trkpt>
<trkpt lat="46.0286490" lon="10.4711710">
	<ele>2480.80</ele>
	<time>2023-08-06T06:13:50.000Z</time>
</trkpt>
<trkpt lat="46.0286510" lon="10.4711750">
	<ele>2480.60</ele>
	<time>2023-08-06T06:13:51.000Z</time>
</trkpt>
<trkpt lat="46.0286560" lon="10.4711800">
	<ele>2480.60</ele>
	<time>2023-08-06T06:13:52.000Z</time>
</trkpt>
<trkpt lat="46.0286610" lon="10.4711830">
	<ele>2480.40</ele>
	<time>2023-08-06T06:13:53.000Z</time>
</trkpt>
<trkpt lat="46.0286670" lon="10.4711890">
	<ele>2480.20</ele>
	<time>2023-08-06T06:13:54.000Z</time>
</trkpt>
<trkpt lat="46.0286700" lon="10.4711940">
	<ele>2480.20</ele>
	<time>2023-08-06T06:13:55.000Z</time>
</trkpt>
<trkpt lat="46.0286740" lon="10.4711980">
	<ele>2480.00</ele>
	<time>2023-08-06T06:13:56.000Z</time>
</trkpt>
<trkpt lat="46.0286780" lon="10.4712020">
	<ele>2479.60</ele>
	<time>2023-08-06T06:13:57.000Z</time>
</trkpt>
<trkpt lat="46.0286810" lon="10.4712040">
	<ele>2479.60</ele>
	<time>2023-08-06T06:13:58.000Z</time>
</trkpt>
<trkpt lat="46.0286830" lon="10.4712080">
	<ele>2479.40</ele>
	<time>2023-08-06T06:13:59.000Z</time>
</trkpt>
<trkpt lat="46.0286850" lon="10.4712110">
	<ele>2479.40</ele>
	<time>2023-08-06T06:14:00.000Z</time>
</trkpt>
<trkpt lat="46.0286880" lon="10.4712090">
	<ele>2479.20</ele>
	<time>2023-08-06T06:14:01.000Z</time>
</trkpt>
<trkpt lat="46.0286910" lon="10.4712110">
	<ele>2479.00</ele>
	<time>2023-08-06T06:14:02.000Z</time>
</trkpt>
<trkpt lat="46.0286930" lon="10.4712110">
	<ele>2478.80</ele>
	<time>2023-08-06T06:14:03.000Z</time>
</trkpt>
<trkpt lat="46.0286980" lon="10.4712090">
	<ele>2478.60</ele>
	<time>2023-08-06T06:14:04.000Z</time>
</trkpt>
<trkpt lat="46.0287020" lon="10.4712120">
	<ele>2478.40</ele>
	<time>2023-08-06T06:14:05.000Z</time>
</trkpt>
<trkpt lat="46.0287060" lon="10.4712160">
	<ele>2478.20</ele>
	<time>2023-08-06T06:14:06.000Z</time>
</trkpt>
<trkpt lat="46.0287080" lon="10.4712230">
	<ele>2478.20</ele>
	<time>2023-08-06T06:14:07.000Z</time>
</trkpt>
<trkpt lat="46.0287100" lon="10.4712270">
	<ele>2477.80</ele>
	<time>2023-08-06T06:14:08.000Z</time>
</trkpt>
<trkpt lat="46.0287140" lon="10.4712300">
	<ele>2477.80</ele>
	<time>2023-08-06T06:14:09.000Z</time>
</trkpt>
<trkpt lat="46.0287190" lon="10.4712310">
	<ele>2477.60</ele>
	<time>2023-08-06T06:14:10.000Z</time>
</trkpt>
<trkpt lat="46.0287260" lon="10.4712340">
	<ele>2477.40</ele>
	<time>2023-08-06T06:14:11.000Z</time>
</trkpt>
<trkpt lat="46.0287290" lon="10.4712400">
	<ele>2477.40</ele>
	<time>2023-08-06T06:14:12.000Z</time>
</trkpt>
<trkpt lat="46.0287270" lon="10.4712460">
	<ele>2477.20</ele>
	<time>2023-08-06T06:14:13.000Z</time>
</trkpt>
<trkpt lat="46.0287270" lon="10.4712490">
	<ele>2477.20</ele>
	<time>2023-08-06T06:14:14.000Z</time>
</trkpt>
<trkpt lat="46.0287270" lon="10.4712510">
	<ele>2477.00</ele>
	<time>2023-08-06T06:14:15.000Z</time>
</trkpt>
<trkpt lat="46.0287300" lon="10.4712580">
	<ele>2477.00</ele>
	<time>2023-08-06T06:14:16.000Z</time>
</trkpt>
<trkpt lat="46.0287310" lon="10.4712620">
	<ele>2477.00</ele>
	<time>2023-08-06T06:14:17.000Z</time>
</trkpt>
<trkpt lat="46.0287310" lon="10.4712640">
	<ele>2477.00</ele>
	<time>2023-08-06T06:14:18.000Z</time>
</trkpt>
<trkpt lat="46.0287310" lon="10.4712660">
	<ele>2477.00</ele>
	<time>2023-08-06T06:14:19.000Z</time>
</trkpt>
<trkpt lat="46.0287310" lon="10.4712670">
	<ele>2477.20</ele>
	<time>2023-08-06T06:14:20.000Z</time>
</trkpt>
<trkpt lat="46.0287310" lon="10.4712680">
	<ele>2477.40</ele>
	<time>2023-08-06T06:14:21.000Z</time>
</trkpt>
<trkpt lat="46.0287310" lon="10.4712680">
	<ele>2477.60</ele>
	<time>2023-08-06T06:14:22.000Z</time>
</trkpt>
<trkpt lat="46.0287310" lon="10.4712680">
	<ele>2477.80</ele>
	<time>2023-08-06T06:14:23.000Z</time>
</trkpt>
<trkpt lat="46.0287310" lon="10.4712680">
	<ele>2477.80</ele>
	<time>2023-08-06T06:14:24.000Z</time>
</trkpt>
<trkpt lat="46.0287310" lon="10.4712680">
	<ele>2477.80</ele>
	<time>2023-08-06T06:14:25.000Z</time>
</trkpt>
<trkpt lat="46.0287310" lon="10.4712680">
	<ele>2477.80</ele>
	<time>2023-08-06T06:14:26.000Z</time>
</trkpt>
<trkpt lat="46.0287310" lon="10.4712680">
	<ele>2478.00</ele>
	<time>2023-08-06T06:14:27.000Z</time>
</trkpt>
<trkpt lat="46.0287310" lon="10.4712680">
	<ele>2478.00</ele>
	<time>2023-08-06T06:14:28.000Z</time>
</trkpt>
<trkpt lat="46.0287310" lon="10.4712680">
	<ele>2478.00</ele>
	<time>2023-08-06T06:14:29.000Z</time>
</trkpt>
<trkpt lat="46.0287310" lon="10.4712680">
	<ele>2477.80</ele>
	<time>2023-08-06T06:14:30.000Z</time>
</trkpt>
<trkpt lat="46.0287310" lon="10.4712680">
	<ele>2477.80</ele>
	<time>2023-08-06T06:14:31.000Z</time>
</trkpt>
<trkpt lat="46.0287310" lon="10.4712680">
	<ele>2477.40</ele>
	<time>2023-08-06T06:14:32.000Z</time>
</trkpt>
<trkpt lat="46.0287310" lon="10.4712680">
	<ele>2477.20</ele>
	<time>2023-08-06T06:14:33.000Z</time>
</trkpt>
<trkpt lat="46.0287310" lon="10.4712670">
	<ele>2477.20</ele>
	<time>2023-08-06T06:14:34.000Z</time>
</trkpt>
<trkpt lat="46.0287310" lon="10.4712670">
	<ele>2477.00</ele>
	<time>2023-08-06T06:14:35.000Z</time>
</trkpt>
<trkpt lat="46.0287310" lon="10.4712670">
	<ele>2477.00</ele>
	<time>2023-08-06T06:14:36.000Z</time>
</trkpt>
<trkpt lat="46.0287320" lon="10.4712670">
	<ele>2477.00</ele>
	<time>2023-08-06T06:14:37.000Z</time>
</trkpt>
<trkpt lat="46.0287320" lon="10.4712670">
	<ele>2477.00</ele>
	<time>2023-08-06T06:14:38.000Z</time>
</trkpt>
<trkpt lat="46.0287320" lon="10.4712670">
	<ele>2477.00</ele>
	<time>2023-08-06T06:14:39.000Z</time>
</trkpt>
<trkpt lat="46.0287320" lon="10.4712670">
	<ele>2477.00</ele>
	<time>2023-08-06T06:14:40.000Z</time>
</trkpt>
<trkpt lat="46.0287320" lon="10.4712670">
	<ele>2477.00</ele>
	<time>2023-08-06T06:14:41.000Z</time>
</trkpt>
<trkpt lat="46.0287320" lon="10.4712670">
	<ele>2476.80</ele>
	<time>2023-08-06T06:14:42.000Z</time>
</trkpt>
<trkpt lat="46.0287330" lon="10.4712680">
	<ele>2476.80</ele>
	<time>2023-08-06T06:14:43.000Z</time>
</trkpt>
<trkpt lat="46.0287330" lon="10.4712680">
	<ele>2476.80</ele>
	<time>2023-08-06T06:14:44.000Z</time>
</trkpt>
<trkpt lat="46.0287330" lon="10.4712680">
	<ele>2476.80</ele>
	<time>2023-08-06T06:14:45.000Z</time>
</trkpt>
<trkpt lat="46.0287330" lon="10.4712680">
	<ele>2476.80</ele>
	<time>2023-08-06T06:14:46.000Z</time>
</trkpt>
<trkpt lat="46.0287330" lon="10.4712690">
	<ele>2476.80</ele>
	<time>2023-08-06T06:14:47.000Z</time>
</trkpt>
<trkpt lat="46.0287330" lon="10.4712690">
	<ele>2476.60</ele>
	<time>2023-08-06T06:14:48.000Z</time>
</trkpt>
<trkpt lat="46.0287330" lon="10.4712700">
	<ele>2476.60</ele>
	<time>2023-08-06T06:14:49.000Z</time>
</trkpt>
<trkpt lat="46.0287330" lon="10.4712730">
	<ele>2476.60</ele>
	<time>2023-08-06T06:14:50.000Z</time>
</trkpt>
<trkpt lat="46.0287340" lon="10.4712740">
	<ele>2476.40</ele>
	<time>2023-08-06T06:14:51.000Z</time>
</trkpt>
<trkpt lat="46.0287340" lon="10.4712740">
	<ele>2476.40</ele>
	<time>2023-08-06T06:14:52.000Z</time>
</trkpt>
<trkpt lat="46.0287350" lon="10.4712740">
	<ele>2476.20</ele>
	<time>2023-08-06T06:14:53.000Z</time>
</trkpt>
<trkpt lat="46.0287350" lon="10.4712740">
	<ele>2476.00</ele>
	<time>2023-08-06T06:14:54.000Z</time>
</trkpt>
<trkpt lat="46.0287350" lon="10.4712740">
	<ele>2475.80</ele>
	<time>2023-08-06T06:14:55.000Z</time>
</trkpt>
<trkpt lat="46.0287350" lon="10.4712750">
	<ele>2475.80</ele>
	<time>2023-08-06T06:14:56.000Z</time>
</trkpt>
<trkpt lat="46.0287350" lon="10.4712770">
	<ele>2475.40</ele>
	<time>2023-08-06T06:14:57.000Z</time>
</trkpt>
<trkpt lat="46.0287360" lon="10.4712800">
	<ele>2475.20</ele>
	<time>2023-08-06T06:14:58.000Z</time>
</trkpt>
<trkpt lat="46.0287360" lon="10.4712850">
	<ele>2475.00</ele>
	<time>2023-08-06T06:14:59.000Z</time>
</trkpt>
<trkpt lat="46.0287360" lon="10.4712880">
	<ele>2474.80</ele>
	<time>2023-08-06T06:15:00.000Z</time>
</trkpt>
<trkpt lat="46.0287370" lon="10.4712900">
	<ele>2474.60</ele>
	<time>2023-08-06T06:15:01.000Z</time>
</trkpt>
<trkpt lat="46.0287380" lon="10.4712930">
	<ele>2474.40</ele>
	<time>2023-08-06T06:15:02.000Z</time>
</trkpt>
<trkpt lat="46.0287390" lon="10.4712940">
	<ele>2474.40</ele>
	<time>2023-08-06T06:15:03.000Z</time>
</trkpt>
<trkpt lat="46.0287430" lon="10.4712960">
	<ele>2474.20</ele>
	<time>2023-08-06T06:15:04.000Z</time>
</trkpt>
<trkpt lat="46.0287510" lon="10.4713010">
	<ele>2474.00</ele>
	<time>2023-08-06T06:15:05.000Z</time>
</trkpt>
<trkpt lat="46.0287560" lon="10.4713060">
	<ele>2474.00</ele>
	<time>2023-08-06T06:15:06.000Z</time>
</trkpt>
<trkpt lat="46.0287580" lon="10.4713190">
	<ele>2473.80</ele>
	<time>2023-08-06T06:15:07.000Z</time>
</trkpt>
<trkpt lat="46.0287590" lon="10.4713400">
	<ele>2473.40</ele>
	<time>2023-08-06T06:15:08.000Z</time>
</trkpt>
<trkpt lat="46.0287580" lon="10.4713630">
	<ele>2473.20</ele>
	<time>2023-08-06T06:15:09.000Z</time>
</trkpt>
<trkpt lat="46.0287600" lon="10.4713880">
	<ele>2473.00</ele>
	<time>2023-08-06T06:15:10.000Z</time>
</trkpt>
<trkpt lat="46.0287630" lon="10.4714080">
	<ele>2473.00</ele>
	<time>2023-08-06T06:15:11.000Z</time>
</trkpt>
<trkpt lat="46.0287640" lon="10.4714310">
	<ele>2472.80</ele>
	<time>2023-08-06T06:15:12.000Z</time>
</trkpt>
<trkpt lat="46.0287670" lon="10.4714530">
	<ele>2472.80</ele>
	<time>2023-08-06T06:15:13.000Z</time>
</trkpt>
<trkpt lat="46.0287700" lon="10.4714730">
	<ele>2472.80</ele>
	<time>2023-08-06T06:15:14.000Z</time>
</trkpt>
<trkpt lat="46.0287730" lon="10.4714970">
	<ele>2472.60</ele>
	<time>2023-08-06T06:15:15.000Z</time>
</trkpt>
<trkpt lat="46.0287730" lon="10.4715140">
	<ele>2472.60</ele>
	<time>2023-08-06T06:15:16.000Z</time>
</trkpt>
<trkpt lat="46.0287740" lon="10.4715190">
	<ele>2472.40</ele>
	<time>2023-08-06T06:15:17.000Z</time>
</trkpt>
<trkpt lat="46.0287760" lon="10.4715260">
	<ele>2472.20</ele>
	<time>2023-08-06T06:15:18.000Z</time>
</trkpt>
<trkpt lat="46.0287760" lon="10.4715390">
	<ele>2472.00</ele>
	<time>2023-08-06T06:15:19.000Z</time>
</trkpt>
<trkpt lat="46.0287750" lon="10.4715480">
	<ele>2471.80</ele>
	<time>2023-08-06T06:15:20.000Z</time>
</trkpt>
<trkpt lat="46.0287750" lon="10.4715530">
	<ele>2471.60</ele>
	<time>2023-08-06T06:15:21.000Z</time>
</trkpt>
<trkpt lat="46.0287730" lon="10.4715580">
	<ele>2471.40</ele>
	<time>2023-08-06T06:15:22.000Z</time>
</trkpt>
<trkpt lat="46.0287710" lon="10.4715640">
	<ele>2471.20</ele>
	<time>2023-08-06T06:15:23.000Z</time>
</trkpt>
<trkpt lat="46.0287670" lon="10.4715680">
	<ele>2471.20</ele>
	<time>2023-08-06T06:15:24.000Z</time>
</trkpt>
<trkpt lat="46.0287670" lon="10.4715740">
	<ele>2471.00</ele>
	<time>2023-08-06T06:15:25.000Z</time>
</trkpt>
<trkpt lat="46.0287720" lon="10.4715800">
	<ele>2470.60</ele>
	<time>2023-08-06T06:15:26.000Z</time>
</trkpt>
<trkpt lat="46.0287740" lon="10.4715900">
	<ele>2470.40</ele>
	<time>2023-08-06T06:15:27.000Z</time>
</trkpt>
<trkpt lat="46.0287730" lon="10.4715960">
	<ele>2470.20</ele>
	<time>2023-08-06T06:15:28.000Z</time>
</trkpt>
<trkpt lat="46.0287720" lon="10.4716060">
	<ele>2470.20</ele>
	<time>2023-08-06T06:15:29.000Z</time>
</trkpt>
<trkpt lat="46.0287710" lon="10.4716120">
	<ele>2470.00</ele>
	<time>2023-08-06T06:15:30.000Z</time>
</trkpt>
<trkpt lat="46.0287710" lon="10.4716170">
	<ele>2469.80</ele>
	<time>2023-08-06T06:15:31.000Z</time>
</trkpt>
<trkpt lat="46.0287730" lon="10.4716240">
	<ele>2469.60</ele>
	<time>2023-08-06T06:15:32.000Z</time>
</trkpt>
<trkpt lat="46.0287770" lon="10.4716330">
	<ele>2469.40</ele>
	<time>2023-08-06T06:15:33.000Z</time>
</trkpt>
<trkpt lat="46.0287780" lon="10.4716400">
	<ele>2469.20</ele>
	<time>2023-08-06T06:15:34.000Z</time>
</trkpt>
<trkpt lat="46.0287790" lon="10.4716490">
	<ele>2469.00</ele>
	<time>2023-08-06T06:15:35.000Z</time>
</trkpt>
<trkpt lat="46.0287800" lon="10.4716610">
	<ele>2468.60</ele>
	<time>2023-08-06T06:15:36.000Z</time>
</trkpt>
<trkpt lat="46.0287790" lon="10.4716730">
	<ele>2468.40</ele>
	<time>2023-08-06T06:15:37.000Z</time>
</trkpt>
<trkpt lat="46.0287790" lon="10.4716820">
	<ele>2468.00</ele>
	<time>2023-08-06T06:15:38.000Z</time>
</trkpt>
<trkpt lat="46.0287800" lon="10.4716930">
	<ele>2468.00</ele>
	<time>2023-08-06T06:15:39.000Z</time>
</trkpt>
<trkpt lat="46.0287800" lon="10.4717030">
	<ele>2467.80</ele>
	<time>2023-08-06T06:15:40.000Z</time>
</trkpt>
<trkpt lat="46.0287810" lon="10.4717120">
	<ele>2467.80</ele>
	<time>2023-08-06T06:15:41.000Z</time>
</trkpt>
<trkpt lat="46.0287830" lon="10.4717170">
	<ele>2467.40</ele>
	<time>2023-08-06T06:15:42.000Z</time>
</trkpt>
<trkpt lat="46.0287880" lon="10.4717260">
	<ele>2467.00</ele>
	<time>2023-08-06T06:15:43.000Z</time>
</trkpt>
<trkpt lat="46.0287910" lon="10.4717340">
	<ele>2466.80</ele>
	<time>2023-08-06T06:15:44.000Z</time>
</trkpt>
<trkpt lat="46.0287960" lon="10.4717400">
	<ele>2466.60</ele>
	<time>2023-08-06T06:15:45.000Z</time>
</trkpt>
<trkpt lat="46.0288020" lon="10.4717510">
	<ele>2466.40</ele>
	<time>2023-08-06T06:15:46.000Z</time>
</trkpt>
<trkpt lat="46.0288020" lon="10.4717580">
	<ele>2466.20</ele>
	<time>2023-08-06T06:15:47.000Z</time>
</trkpt>
<trkpt lat="46.0288030" lon="10.4717660">
	<ele>2466.00</ele>
	<time>2023-08-06T06:15:48.000Z</time>
</trkpt>
<trkpt lat="46.0288070" lon="10.4717710">
	<ele>2466.00</ele>
	<time>2023-08-06T06:15:49.000Z</time>
</trkpt>
<trkpt lat="46.0288150" lon="10.4717790">
	<ele>2465.80</ele>
	<time>2023-08-06T06:15:50.000Z</time>
</trkpt>
<trkpt lat="46.0288210" lon="10.4717850">
	<ele>2465.60</ele>
	<time>2023-08-06T06:15:51.000Z</time>
</trkpt>
<trkpt lat="46.0288250" lon="10.4717900">
	<ele>2465.40</ele>
	<time>2023-08-06T06:15:52.000Z</time>
</trkpt>
<trkpt lat="46.0288290" lon="10.4717970">
	<ele>2465.00</ele>
	<time>2023-08-06T06:15:53.000Z</time>
</trkpt>
<trkpt lat="46.0288330" lon="10.4718070">
	<ele>2464.80</ele>
	<time>2023-08-06T06:15:54.000Z</time>
</trkpt>
<trkpt lat="46.0288320" lon="10.4718150">
	<ele>2464.60</ele>
	<time>2023-08-06T06:15:55.000Z</time>
</trkpt>
<trkpt lat="46.0288350" lon="10.4718260">
	<ele>2464.40</ele>
	<time>2023-08-06T06:15:56.000Z</time>
</trkpt>
<trkpt lat="46.0288380" lon="10.4718350">
	<ele>2464.40</ele>
	<time>2023-08-06T06:15:57.000Z</time>
</trkpt>
<trkpt lat="46.0288420" lon="10.4718410">
	<ele>2464.20</ele>
	<time>2023-08-06T06:15:58.000Z</time>
</trkpt>
<trkpt lat="46.0288440" lon="10.4718500">
	<ele>2464.20</ele>
	<time>2023-08-06T06:15:59.000Z</time>
</trkpt>
<trkpt lat="46.0288500" lon="10.4718650">
	<ele>2464.20</ele>
	<time>2023-08-06T06:16:00.000Z</time>
</trkpt>
<trkpt lat="46.0288520" lon="10.4718720">
	<ele>2464.00</ele>
	<time>2023-08-06T06:16:01.000Z</time>
</trkpt>
<trkpt lat="46.0288550" lon="10.4718820">
	<ele>2464.00</ele>
	<time>2023-08-06T06:16:02.000Z</time>
</trkpt>
<trkpt lat="46.0288570" lon="10.4718910">
	<ele>2463.80</ele>
	<time>2023-08-06T06:16:03.000Z</time>
</trkpt>
<trkpt lat="46.0288560" lon="10.4719000">
	<ele>2463.80</ele>
	<time>2023-08-06T06:16:04.000Z</time>
</trkpt>
<trkpt lat="46.0288550" lon="10.4719090">
	<ele>2463.60</ele>
	<time>2023-08-06T06:16:05.000Z</time>
</trkpt>
<trkpt lat="46.0288560" lon="10.4719150">
	<ele>2463.60</ele>
	<time>2023-08-06T06:16:06.000Z</time>
</trkpt>
<trkpt lat="46.0288590" lon="10.4719250">
	<ele>2463.60</ele>
	<time>2023-08-06T06:16:07.000Z</time>
</trkpt>
<trkpt lat="46.0288640" lon="10.4719360">
	<ele>2463.40</ele>
	<time>2023-08-06T06:16:08.000Z</time>
</trkpt>
<trkpt lat="46.0288650" lon="10.4719410">
	<ele>2463.40</ele>
	<time>2023-08-06T06:16:09.000Z</time>
</trkpt>
<trkpt lat="46.0288700" lon="10.4719520">
	<ele>2463.20</ele>
	<time>2023-08-06T06:16:10.000Z</time>
</trkpt>
<trkpt lat="46.0288750" lon="10.4719580">
	<ele>2463.00</ele>
	<time>2023-08-06T06:16:11.000Z</time>
</trkpt>
<trkpt lat="46.0288790" lon="10.4719640">
	<ele>2463.00</ele>
	<time>2023-08-06T06:16:12.000Z</time>
</trkpt>
<trkpt lat="46.0288860" lon="10.4719730">
	<ele>2462.80</ele>
	<time>2023-08-06T06:16:13.000Z</time>
</trkpt>
<trkpt lat="46.0288920" lon="10.4719820">
	<ele>2462.80</ele>
	<time>2023-08-06T06:16:14.000Z</time>
</trkpt>
<trkpt lat="46.0288950" lon="10.4719920">
	<ele>2462.80</ele>
	<time>2023-08-06T06:16:15.000Z</time>
</trkpt>
<trkpt lat="46.0288980" lon="10.4719980">
	<ele>2462.60</ele>
	<time>2023-08-06T06:16:16.000Z</time>
</trkpt>
<trkpt lat="46.0289040" lon="10.4720070">
	<ele>2462.40</ele>
	<time>2023-08-06T06:16:17.000Z</time>
</trkpt>
<trkpt lat="46.0289070" lon="10.4720140">
	<ele>2462.40</ele>
	<time>2023-08-06T06:16:18.000Z</time>
</trkpt>
<trkpt lat="46.0289110" lon="10.4720210">
	<ele>2462.20</ele>
	<time>2023-08-06T06:16:19.000Z</time>
</trkpt>
<trkpt lat="46.0289140" lon="10.4720290">
	<ele>2462.00</ele>
	<time>2023-08-06T06:16:20.000Z</time>
</trkpt>
<trkpt lat="46.0289190" lon="10.4720350">
	<ele>2462.00</ele>
	<time>2023-08-06T06:16:21.000Z</time>
</trkpt>
<trkpt lat="46.0289240" lon="10.4720400">
	<ele>2461.80</ele>
	<time>2023-08-06T06:16:22.000Z</time>
</trkpt>
<trkpt lat="46.0289270" lon="10.4720460">
	<ele>2461.60</ele>
	<time>2023-08-06T06:16:23.000Z</time>
</trkpt>
<trkpt lat="46.0289310" lon="10.4720540">
	<ele>2461.60</ele>
	<time>2023-08-06T06:16:24.000Z</time>
</trkpt>
<trkpt lat="46.0289350" lon="10.4720630">
	<ele>2461.20</ele>
	<time>2023-08-06T06:16:25.000Z</time>
</trkpt>
<trkpt lat="46.0289370" lon="10.4720680">
	<ele>2461.20</ele>
	<time>2023-08-06T06:16:26.000Z</time>
</trkpt>
<trkpt lat="46.0289430" lon="10.4720710">
	<ele>2461.00</ele>
	<time>2023-08-06T06:16:27.000Z</time>
</trkpt>
<trkpt lat="46.0289500" lon="10.4720770">
	<ele>2460.80</ele>
	<time>2023-08-06T06:16:28.000Z</time>
</trkpt>
<trkpt lat="46.0289550" lon="10.4720780">
	<ele>2460.60</ele>
	<time>2023-08-06T06:16:29.000Z</time>
</trkpt>
<trkpt lat="46.0289600" lon="10.4720770">
	<ele>2460.60</ele>
	<time>2023-08-06T06:16:30.000Z</time>
</trkpt>
<trkpt lat="46.0289640" lon="10.4720750">
	<ele>2460.40</ele>
	<time>2023-08-06T06:16:31.000Z</time>
</trkpt>
<trkpt lat="46.0289700" lon="10.4720760">
	<ele>2460.20</ele>
	<time>2023-08-06T06:16:32.000Z</time>
</trkpt>
<trkpt lat="46.0289770" lon="10.4720810">
	<ele>2460.20</ele>
	<time>2023-08-06T06:16:33.000Z</time>
</trkpt>
<trkpt lat="46.0289840" lon="10.4720870">
	<ele>2460.00</ele>
	<time>2023-08-06T06:16:34.000Z</time>
</trkpt>
<trkpt lat="46.0289930" lon="10.4720950">
	<ele>2460.00</ele>
	<time>2023-08-06T06:16:35.000Z</time>
</trkpt>
<trkpt lat="46.0289980" lon="10.4721030">
	<ele>2459.60</ele>
	<time>2023-08-06T06:16:36.000Z</time>
</trkpt>
<trkpt lat="46.0290060" lon="10.4721150">
	<ele>2459.60</ele>
	<time>2023-08-06T06:16:37.000Z</time>
</trkpt>
<trkpt lat="46.0290120" lon="10.4721280">
	<ele>2459.40</ele>
	<time>2023-08-06T06:16:38.000Z</time>
</trkpt>
<trkpt lat="46.0290200" lon="10.4721390">
	<ele>2459.40</ele>
	<time>2023-08-06T06:16:39.000Z</time>
</trkpt>
<trkpt lat="46.0290270" lon="10.4721470">
	<ele>2459.20</ele>
	<time>2023-08-06T06:16:40.000Z</time>
</trkpt>
<trkpt lat="46.0290350" lon="10.4721550">
	<ele>2459.20</ele>
	<time>2023-08-06T06:16:41.000Z</time>
</trkpt>
<trkpt lat="46.0290390" lon="10.4721620">
	<ele>2459.20</ele>
	<time>2023-08-06T06:16:42.000Z</time>
</trkpt>
<trkpt lat="46.0290430" lon="10.4721720">
	<ele>2459.20</ele>
	<time>2023-08-06T06:16:43.000Z</time>
</trkpt>
<trkpt lat="46.0290460" lon="10.4721830">
	<ele>2459.20</ele>
	<time>2023-08-06T06:16:44.000Z</time>
</trkpt>
<trkpt lat="46.0290470" lon="10.4721910">
	<ele>2459.20</ele>
	<time>2023-08-06T06:16:45.000Z</time>
</trkpt>
<trkpt lat="46.0290500" lon="10.4722020">
	<ele>2459.20</ele>
	<time>2023-08-06T06:16:46.000Z</time>
</trkpt>
<trkpt lat="46.0290530" lon="10.4722200">
	<ele>2459.20</ele>
	<time>2023-08-06T06:16:47.000Z</time>
</trkpt>
<trkpt lat="46.0290580" lon="10.4722350">
	<ele>2459.20</ele>
	<time>2023-08-06T06:16:48.000Z</time>
</trkpt>
<trkpt lat="46.0290630" lon="10.4722460">
	<ele>2459.20</ele>
	<time>2023-08-06T06:16:49.000Z</time>
</trkpt>
<trkpt lat="46.0290670" lon="10.4722550">
	<ele>2459.20</ele>
	<time>2023-08-06T06:16:50.000Z</time>
</trkpt>
<trkpt lat="46.0290690" lon="10.4722640">
	<ele>2459.40</ele>
	<time>2023-08-06T06:16:51.000Z</time>
</trkpt>
<trkpt lat="46.0290760" lon="10.4722690">
	<ele>2459.40</ele>
	<time>2023-08-06T06:16:52.000Z</time>
</trkpt>
<trkpt lat="46.0290830" lon="10.4722770">
	<ele>2459.40</ele>
	<time>2023-08-06T06:16:53.000Z</time>
</trkpt>
<trkpt lat="46.0290880" lon="10.4722840">
	<ele>2459.20</ele>
	<time>2023-08-06T06:16:54.000Z</time>
</trkpt>
<trkpt lat="46.0290920" lon="10.4722890">
	<ele>2459.20</ele>
	<time>2023-08-06T06:16:55.000Z</time>
</trkpt>
<trkpt lat="46.0290960" lon="10.4722960">
	<ele>2459.00</ele>
	<time>2023-08-06T06:16:56.000Z</time>
</trkpt>
<trkpt lat="46.0290980" lon="10.4723010">
	<ele>2458.80</ele>
	<time>2023-08-06T06:16:57.000Z</time>
</trkpt>
<trkpt lat="46.0291010" lon="10.4723040">
	<ele>2458.80</ele>
	<time>2023-08-06T06:16:58.000Z</time>
</trkpt>
<trkpt lat="46.0291030" lon="10.4723050">
	<ele>2458.80</ele>
	<time>2023-08-06T06:16:59.000Z</time>
</trkpt>
<trkpt lat="46.0291110" lon="10.4723030">
	<ele>2458.60</ele>
	<time>2023-08-06T06:17:00.000Z</time>
</trkpt>
<trkpt lat="46.0291180" lon="10.4723040">
	<ele>2458.40</ele>
	<time>2023-08-06T06:17:01.000Z</time>
</trkpt>
<trkpt lat="46.0291240" lon="10.4723030">
	<ele>2458.40</ele>
	<time>2023-08-06T06:17:02.000Z</time>
</trkpt>
<trkpt lat="46.0291330" lon="10.4723070">
	<ele>2458.20</ele>
	<time>2023-08-06T06:17:03.000Z</time>
</trkpt>
<trkpt lat="46.0291400" lon="10.4723130">
	<ele>2458.00</ele>
	<time>2023-08-06T06:17:04.000Z</time>
</trkpt>
<trkpt lat="46.0291460" lon="10.4723190">
	<ele>2457.80</ele>
	<time>2023-08-06T06:17:05.000Z</time>
</trkpt>
<trkpt lat="46.0291500" lon="10.4723260">
	<ele>2457.60</ele>
	<time>2023-08-06T06:17:06.000Z</time>
</trkpt>
<trkpt lat="46.0291520" lon="10.4723340">
	<ele>2457.40</ele>
	<time>2023-08-06T06:17:07.000Z</time>
</trkpt>
<trkpt lat="46.0291540" lon="10.4723470">
	<ele>2457.20</ele>
	<time>2023-08-06T06:17:08.000Z</time>
</trkpt>
<trkpt lat="46.0291580" lon="10.4723600">
	<ele>2457.00</ele>
	<time>2023-08-06T06:17:09.000Z</time>
</trkpt>
<trkpt lat="46.0291610" lon="10.4723750">
	<ele>2456.80</ele>
	<time>2023-08-06T06:17:10.000Z</time>
</trkpt>
<trkpt lat="46.0291630" lon="10.4723920">
	<ele>2456.80</ele>
	<time>2023-08-06T06:17:11.000Z</time>
</trkpt>
<trkpt lat="46.0291680" lon="10.4724030">
	<ele>2456.80</ele>
	<time>2023-08-06T06:17:12.000Z</time>
</trkpt>
<trkpt lat="46.0291760" lon="10.4724190">
	<ele>2457.00</ele>
	<time>2023-08-06T06:17:13.000Z</time>
</trkpt>
<trkpt lat="46.0291830" lon="10.4724300">
	<ele>2457.00</ele>
	<time>2023-08-06T06:17:14.000Z</time>
</trkpt>
<trkpt lat="46.0291900" lon="10.4724390">
	<ele>2457.20</ele>
	<time>2023-08-06T06:17:15.000Z</time>
</trkpt>
<trkpt lat="46.0291980" lon="10.4724480">
	<ele>2457.20</ele>
	<time>2023-08-06T06:17:16.000Z</time>
</trkpt>
<trkpt lat="46.0292020" lon="10.4724510">
	<ele>2457.20</ele>
	<time>2023-08-06T06:17:17.000Z</time>
</trkpt>
<trkpt lat="46.0292080" lon="10.4724550">
	<ele>2457.20</ele>
	<time>2023-08-06T06:17:18.000Z</time>
</trkpt>
<trkpt lat="46.0292160" lon="10.4724610">
	<ele>2457.00</ele>
	<time>2023-08-06T06:17:19.000Z</time>
</trkpt>
<trkpt lat="46.0292230" lon="10.4724730">
	<ele>2456.80</ele>
	<time>2023-08-06T06:17:20.000Z</time>
</trkpt>
<trkpt lat="46.0292280" lon="10.4724850">
	<ele>2456.60</ele>
	<time>2023-08-06T06:17:21.000Z</time>
</trkpt>
<trkpt lat="46.0292300" lon="10.4724960">
	<ele>2456.60</ele>
	<time>2023-08-06T06:17:22.000Z</time>
</trkpt>
<trkpt lat="46.0292380" lon="10.4725080">
	<ele>2456.60</ele>
	<time>2023-08-06T06:17:23.000Z</time>
</trkpt>
<trkpt lat="46.0292450" lon="10.4725250">
	<ele>2456.60</ele>
	<time>2023-08-06T06:17:24.000Z</time>
</trkpt>
<trkpt lat="46.0292520" lon="10.4725330">
	<ele>2456.60</ele>
	<time>2023-08-06T06:17:25.000Z</time>
</trkpt>
<trkpt lat="46.0292550" lon="10.4725440">
	<ele>2456.40</ele>
	<time>2023-08-06T06:17:26.000Z</time>
</trkpt>
<trkpt lat="46.0292590" lon="10.4725580">
	<ele>2456.40</ele>
	<time>2023-08-06T06:17:27.000Z</time>
</trkpt>
<trkpt lat="46.0292660" lon="10.4725730">
	<ele>2456.40</ele>
	<time>2023-08-06T06:17:28.000Z</time>
</trkpt>
<trkpt lat="46.0292690" lon="10.4725880">
	<ele>2456.40</ele>
	<time>2023-08-06T06:17:29.000Z</time>
</trkpt>
<trkpt lat="46.0292700" lon="10.4725990">
	<ele>2456.40</ele>
	<time>2023-08-06T06:17:30.000Z</time>
</trkpt>
<trkpt lat="46.0292720" lon="10.4726130">
	<ele>2456.40</ele>
	<time>2023-08-06T06:17:31.000Z</time>
</trkpt>
<trkpt lat="46.0292740" lon="10.4726250">
	<ele>2456.40</ele>
	<time>2023-08-06T06:17:32.000Z</time>
</trkpt>
<trkpt lat="46.0292800" lon="10.4726370">
	<ele>2456.40</ele>
	<time>2023-08-06T06:17:33.000Z</time>
</trkpt>
<trkpt lat="46.0292860" lon="10.4726490">
	<ele>2456.40</ele>
	<time>2023-08-06T06:17:34.000Z</time>
</trkpt>
<trkpt lat="46.0292910" lon="10.4726590">
	<ele>2456.20</ele>
	<time>2023-08-06T06:17:35.000Z</time>
</trkpt>
<trkpt lat="46.0292970" lon="10.4726710">
	<ele>2456.20</ele>
	<time>2023-08-06T06:17:36.000Z</time>
</trkpt>
<trkpt lat="46.0293030" lon="10.4726820">
	<ele>2456.20</ele>
	<time>2023-08-06T06:17:37.000Z</time>
</trkpt>
<trkpt lat="46.0293060" lon="10.4726930">
	<ele>2456.00</ele>
	<time>2023-08-06T06:17:38.000Z</time>
</trkpt>
<trkpt lat="46.0293100" lon="10.4727000">
	<ele>2456.00</ele>
	<time>2023-08-06T06:17:39.000Z</time>
</trkpt>
<trkpt lat="46.0293150" lon="10.4727060">
	<ele>2455.80</ele>
	<time>2023-08-06T06:17:40.000Z</time>
</trkpt>
<trkpt lat="46.0293220" lon="10.4727090">
	<ele>2455.80</ele>
	<time>2023-08-06T06:17:41.000Z</time>
</trkpt>
<trkpt lat="46.0293320" lon="10.4727190">
	<ele>2455.60</ele>
	<time>2023-08-06T06:17:42.000Z</time>
</trkpt>
<trkpt lat="46.0293400" lon="10.4727330">
	<ele>2455.60</ele>
	<time>2023-08-06T06:17:43.000Z</time>
</trkpt>
<trkpt lat="46.0293460" lon="10.4727450">
	<ele>2455.60</ele>
	<time>2023-08-06T06:17:44.000Z</time>
</trkpt>
<trkpt lat="46.0293520" lon="10.4727560">
	<ele>2455.60</ele>
	<time>2023-08-06T06:17:45.000Z</time>
</trkpt>
<trkpt lat="46.0293570" lon="10.4727680">
	<ele>2455.60</ele>
	<time>2023-08-06T06:17:46.000Z</time>
</trkpt>
<trkpt lat="46.0293630" lon="10.4727780">
	<ele>2455.60</ele>
	<time>2023-08-06T06:17:47.000Z</time>
</trkpt>
<trkpt lat="46.0293700" lon="10.4727870">
	<ele>2455.60</ele>
	<time>2023-08-06T06:17:48.000Z</time>
</trkpt>
<trkpt lat="46.0293760" lon="10.4727970">
	<ele>2455.60</ele>
	<time>2023-08-06T06:17:49.000Z</time>
</trkpt>
<trkpt lat="46.0293820" lon="10.4728070">
	<ele>2455.60</ele>
	<time>2023-08-06T06:17:50.000Z</time>
</trkpt>
<trkpt lat="46.0293870" lon="10.4728130">
	<ele>2455.60</ele>
	<time>2023-08-06T06:17:51.000Z</time>
</trkpt>
<trkpt lat="46.0293960" lon="10.4728190">
	<ele>2455.60</ele>
	<time>2023-08-06T06:17:52.000Z</time>
</trkpt>
<trkpt lat="46.0294000" lon="10.4728270">
	<ele>2455.80</ele>
	<time>2023-08-06T06:17:53.000Z</time>
</trkpt>
<trkpt lat="46.0294060" lon="10.4728350">
	<ele>2455.80</ele>
	<time>2023-08-06T06:17:54.000Z</time>
</trkpt>
<trkpt lat="46.0294140" lon="10.4728460">
	<ele>2455.60</ele>
	<time>2023-08-06T06:17:55.000Z</time>
</trkpt>
<trkpt lat="46.0294230" lon="10.4728620">
	<ele>2455.60</ele>
	<time>2023-08-06T06:17:56.000Z</time>
</trkpt>
<trkpt lat="46.0294300" lon="10.4728750">
	<ele>2455.60</ele>
	<time>2023-08-06T06:17:57.000Z</time>
</trkpt>
<trkpt lat="46.0294370" lon="10.4728880">
	<ele>2455.40</ele>
	<time>2023-08-06T06:17:58.000Z</time>
</trkpt>
<trkpt lat="46.0294450" lon="10.4729040">
	<ele>2455.40</ele>
	<time>2023-08-06T06:17:59.000Z</time>
</trkpt>
<trkpt lat="46.0294540" lon="10.4729160">
	<ele>2455.20</ele>
	<time>2023-08-06T06:18:00.000Z</time>
</trkpt>
<trkpt lat="46.0294610" lon="10.4729270">
	<ele>2455.20</ele>
	<time>2023-08-06T06:18:01.000Z</time>
</trkpt>
<trkpt lat="46.0294680" lon="10.4729380">
	<ele>2454.80</ele>
	<time>2023-08-06T06:18:02.000Z</time>
</trkpt>
<trkpt lat="46.0294730" lon="10.4729480">
	<ele>2454.60</ele>
	<time>2023-08-06T06:18:03.000Z</time>
</trkpt>
<trkpt lat="46.0294770" lon="10.4729620">
	<ele>2454.40</ele>
	<time>2023-08-06T06:18:04.000Z</time>
</trkpt>
<trkpt lat="46.0294810" lon="10.4729740">
	<ele>2454.40</ele>
	<time>2023-08-06T06:18:05.000Z</time>
</trkpt>
<trkpt lat="46.0294870" lon="10.4729840">
	<ele>2454.40</ele>
	<time>2023-08-06T06:18:06.000Z</time>
</trkpt>
<trkpt lat="46.0294940" lon="10.4729950">
	<ele>2454.20</ele>
	<time>2023-08-06T06:18:07.000Z</time>
</trkpt>
<trkpt lat="46.0295000" lon="10.4730050">
	<ele>2454.20</ele>
	<time>2023-08-06T06:18:08.000Z</time>
</trkpt>
<trkpt lat="46.0295030" lon="10.4730150">
	<ele>2454.20</ele>
	<time>2023-08-06T06:18:09.000Z</time>
</trkpt>
<trkpt lat="46.0295070" lon="10.4730260">
	<ele>2454.00</ele>
	<time>2023-08-06T06:18:10.000Z</time>
</trkpt>
<trkpt lat="46.0295120" lon="10.4730380">
	<ele>2453.60</ele>
	<time>2023-08-06T06:18:11.000Z</time>
</trkpt>
<trkpt lat="46.0295170" lon="10.4730510">
	<ele>2453.40</ele>
	<time>2023-08-06T06:18:12.000Z</time>
</trkpt>
<trkpt lat="46.0295200" lon="10.4730630">
	<ele>2453.40</ele>
	<time>2023-08-06T06:18:13.000Z</time>
</trkpt>
<trkpt lat="46.0295240" lon="10.4730720">
	<ele>2453.20</ele>
	<time>2023-08-06T06:18:14.000Z</time>
</trkpt>
<trkpt lat="46.0295280" lon="10.4730830">
	<ele>2453.20</ele>
	<time>2023-08-06T06:18:15.000Z</time>
</trkpt>
<trkpt lat="46.0295330" lon="10.4730960">
	<ele>2453.20</ele>
	<time>2023-08-06T06:18:16.000Z</time>
</trkpt>
<trkpt lat="46.0295370" lon="10.4731090">
	<ele>2453.20</ele>
	<time>2023-08-06T06:18:17.000Z</time>
</trkpt>
<trkpt lat="46.0295420" lon="10.4731220">
	<ele>2453.40</ele>
	<time>2023-08-06T06:18:18.000Z</time>
</trkpt>
<trkpt lat="46.0295500" lon="10.4731320">
	<ele>2453.40</ele>
	<time>2023-08-06T06:18:19.000Z</time>
</trkpt>
<trkpt lat="46.0295600" lon="10.4731410">
	<ele>2453.40</ele>
	<time>2023-08-06T06:18:20.000Z</time>
</trkpt>
<trkpt lat="46.0295650" lon="10.4731480">
	<ele>2453.60</ele>
	<time>2023-08-06T06:18:21.000Z</time>
</trkpt>
<trkpt lat="46.0295660" lon="10.4731580">
	<ele>2453.80</ele>
	<time>2023-08-06T06:18:22.000Z</time>
</trkpt>
<trkpt lat="46.0295680" lon="10.4731680">
	<ele>2453.80</ele>
	<time>2023-08-06T06:18:23.000Z</time>
</trkpt>
<trkpt lat="46.0295740" lon="10.4731750">
	<ele>2453.80</ele>
	<time>2023-08-06T06:18:24.000Z</time>
</trkpt>
<trkpt lat="46.0295800" lon="10.4731830">
	<ele>2453.80</ele>
	<time>2023-08-06T06:18:25.000Z</time>
</trkpt>
<trkpt lat="46.0295880" lon="10.4731940">
	<ele>2454.00</ele>
	<time>2023-08-06T06:18:26.000Z</time>
</trkpt>
<trkpt lat="46.0295960" lon="10.4732030">
	<ele>2454.00</ele>
	<time>2023-08-06T06:18:27.000Z</time>
</trkpt>
<trkpt lat="46.0296040" lon="10.4732100">
	<ele>2454.00</ele>
	<time>2023-08-06T06:18:28.000Z</time>
</trkpt>
<trkpt lat="46.0296120" lon="10.4732180">
	<ele>2453.80</ele>
	<time>2023-08-06T06:18:29.000Z</time>
</trkpt>
<trkpt lat="46.0296190" lon="10.4732270">
	<ele>2453.80</ele>
	<time>2023-08-06T06:18:30.000Z</time>
</trkpt>
<trkpt lat="46.0296230" lon="10.4732380">
	<ele>2453.80</ele>
	<time>2023-08-06T06:18:31.000Z</time>
</trkpt>
<trkpt lat="46.0296280" lon="10.4732470">
	<ele>2453.60</ele>
	<time>2023-08-06T06:18:32.000Z</time>
</trkpt>
<trkpt lat="46.0296350" lon="10.4732560">
	<ele>2453.60</ele>
	<time>2023-08-06T06:18:33.000Z</time>
</trkpt>
<trkpt lat="46.0296410" lon="10.4732660">
	<ele>2453.80</ele>
	<time>2023-08-06T06:18:34.000Z</time>
</trkpt>
<trkpt lat="46.0296410" lon="10.4732770">
	<ele>2453.80</ele>
	<time>2023-08-06T06:18:35.000Z</time>
</trkpt>
<trkpt lat="46.0296430" lon="10.4732870">
	<ele>2453.80</ele>
	<time>2023-08-06T06:18:36.000Z</time>
</trkpt>
<trkpt lat="46.0296450" lon="10.4732950">
	<ele>2453.80</ele>
	<time>2023-08-06T06:18:37.000Z</time>
</trkpt>
<trkpt lat="46.0296480" lon="10.4733040">
	<ele>2453.80</ele>
	<time>2023-08-06T06:18:38.000Z</time>
</trkpt>
<trkpt lat="46.0296510" lon="10.4733100">
	<ele>2453.80</ele>
	<time>2023-08-06T06:18:39.000Z</time>
</trkpt>
<trkpt lat="46.0296530" lon="10.4733110">
	<ele>2453.60</ele>
	<time>2023-08-06T06:18:40.000Z</time>
</trkpt>
<trkpt lat="46.0296570" lon="10.4733130">
	<ele>2453.60</ele>
	<time>2023-08-06T06:18:41.000Z</time>
</trkpt>
<trkpt lat="46.0296610" lon="10.4733180">
	<ele>2453.40</ele>
	<time>2023-08-06T06:18:42.000Z</time>
</trkpt>
<trkpt lat="46.0296650" lon="10.4733270">
	<ele>2453.40</ele>
	<time>2023-08-06T06:18:43.000Z</time>
</trkpt>
<trkpt lat="46.0296680" lon="10.4733360">
	<ele>2453.40</ele>
	<time>2023-08-06T06:18:44.000Z</time>
</trkpt>
<trkpt lat="46.0296710" lon="10.4733420">
	<ele>2453.40</ele>
	<time>2023-08-06T06:18:45.000Z</time>
</trkpt>
<trkpt lat="46.0296730" lon="10.4733450">
	<ele>2453.20</ele>
	<time>2023-08-06T06:18:46.000Z</time>
</trkpt>
<trkpt lat="46.0296750" lon="10.4733490">
	<ele>2453.20</ele>
	<time>2023-08-06T06:18:47.000Z</time>
</trkpt>
<trkpt lat="46.0296780" lon="10.4733530">
	<ele>2453.20</ele>
	<time>2023-08-06T06:18:48.000Z</time>
</trkpt>
<trkpt lat="46.0296820" lon="10.4733540">
	<ele>2453.00</ele>
	<time>2023-08-06T06:18:49.000Z</time>
</trkpt>
<trkpt lat="46.0296870" lon="10.4733540">
	<ele>2453.00</ele>
	<time>2023-08-06T06:18:50.000Z</time>
</trkpt>
<trkpt lat="46.0296930" lon="10.4733600">
	<ele>2452.80</ele>
	<time>2023-08-06T06:18:51.000Z</time>
</trkpt>
<trkpt lat="46.0296980" lon="10.4733690">
	<ele>2452.60</ele>
	<time>2023-08-06T06:18:52.000Z</time>
</trkpt>
<trkpt lat="46.0297040" lon="10.4733780">
	<ele>2452.40</ele>
	<time>2023-08-06T06:18:53.000Z</time>
</trkpt>
<trkpt lat="46.0297120" lon="10.4733830">
	<ele>2452.40</ele>
	<time>2023-08-06T06:18:54.000Z</time>
</trkpt>
<trkpt lat="46.0297150" lon="10.4733880">
	<ele>2452.20</ele>
	<time>2023-08-06T06:18:55.000Z</time>
</trkpt>
<trkpt lat="46.0297220" lon="10.4733940">
	<ele>2452.20</ele>
	<time>2023-08-06T06:18:56.000Z</time>
</trkpt>
<trkpt lat="46.0297280" lon="10.4734010">
	<ele>2452.20</ele>
	<time>2023-08-06T06:18:57.000Z</time>
</trkpt>
<trkpt lat="46.0297370" lon="10.4734060">
	<ele>2452.00</ele>
	<time>2023-08-06T06:18:58.000Z</time>
</trkpt>
<trkpt lat="46.0297470" lon="10.4734100">
	<ele>2452.00</ele>
	<time>2023-08-06T06:18:59.000Z</time>
</trkpt>
<trkpt lat="46.0297540" lon="10.4734130">
	<ele>2451.80</ele>
	<time>2023-08-06T06:19:00.000Z</time>
</trkpt>
<trkpt lat="46.0297600" lon="10.4734140">
	<ele>2451.80</ele>
	<time>2023-08-06T06:19:01.000Z</time>
</trkpt>
<trkpt lat="46.0297660" lon="10.4734180">
	<ele>2451.80</ele>
	<time>2023-08-06T06:19:02.000Z</time>
</trkpt>
<trkpt lat="46.0297710" lon="10.4734210">
	<ele>2451.80</ele>
	<time>2023-08-06T06:19:03.000Z</time>
</trkpt>
<trkpt lat="46.0297760" lon="10.4734210">
	<ele>2451.60</ele>
	<time>2023-08-06T06:19:04.000Z</time>
</trkpt>
<trkpt lat="46.0297800" lon="10.4734200">
	<ele>2451.40</ele>
	<time>2023-08-06T06:19:05.000Z</time>
</trkpt>
<trkpt lat="46.0297860" lon="10.4734200">
	<ele>2451.20</ele>
	<time>2023-08-06T06:19:06.000Z</time>
</trkpt>
<trkpt lat="46.0297930" lon="10.4734220">
	<ele>2451.20</ele>
	<time>2023-08-06T06:19:07.000Z</time>
</trkpt>
<trkpt lat="46.0297970" lon="10.4734240">
	<ele>2451.00</ele>
	<time>2023-08-06T06:19:08.000Z</time>
</trkpt>
<trkpt lat="46.0298010" lon="10.4734260">
	<ele>2450.80</ele>
	<time>2023-08-06T06:19:09.000Z</time>
</trkpt>
<trkpt lat="46.0298050" lon="10.4734280">
	<ele>2450.80</ele>
	<time>2023-08-06T06:19:10.000Z</time>
</trkpt>
<trkpt lat="46.0298090" lon="10.4734310">
	<ele>2450.40</ele>
	<time>2023-08-06T06:19:11.000Z</time>
</trkpt>
<trkpt lat="46.0298130" lon="10.4734320">
	<ele>2450.20</ele>
	<time>2023-08-06T06:19:12.000Z</time>
</trkpt>
<trkpt lat="46.0298170" lon="10.4734330">
	<ele>2450.00</ele>
	<time>2023-08-06T06:19:13.000Z</time>
</trkpt>
<trkpt lat="46.0298240" lon="10.4734380">
	<ele>2449.60</ele>
	<time>2023-08-06T06:19:14.000Z</time>
</trkpt>
<trkpt lat="46.0298290" lon="10.4734380">
	<ele>2449.40</ele>
	<time>2023-08-06T06:19:15.000Z</time>
</trkpt>
<trkpt lat="46.0298350" lon="10.4734390">
	<ele>2449.20</ele>
	<time>2023-08-06T06:19:16.000Z</time>
</trkpt>
<trkpt lat="46.0298390" lon="10.4734390">
	<ele>2449.20</ele>
	<time>2023-08-06T06:19:17.000Z</time>
</trkpt>
<trkpt lat="46.0298430" lon="10.4734390">
	<ele>2449.20</ele>
	<time>2023-08-06T06:19:18.000Z</time>
</trkpt>
<trkpt lat="46.0298470" lon="10.4734400">
	<ele>2449.00</ele>
	<time>2023-08-06T06:19:19.000Z</time>
</trkpt>
<trkpt lat="46.0298510" lon="10.4734380">
	<ele>2449.00</ele>
	<time>2023-08-06T06:19:20.000Z</time>
</trkpt>
<trkpt lat="46.0298550" lon="10.4734360">
	<ele>2449.00</ele>
	<time>2023-08-06T06:19:21.000Z</time>
</trkpt>
<trkpt lat="46.0298570" lon="10.4734320">
	<ele>2449.00</ele>
	<time>2023-08-06T06:19:22.000Z</time>
</trkpt>
<trkpt lat="46.0298620" lon="10.4734290">
	<ele>2449.00</ele>
	<time>2023-08-06T06:19:23.000Z</time>
</trkpt>
<trkpt lat="46.0298670" lon="10.4734280">
	<ele>2448.40</ele>
	<time>2023-08-06T06:19:24.000Z</time>
</trkpt>
<trkpt lat="46.0298710" lon="10.4734310">
	<ele>2447.80</ele>
	<time>2023-08-06T06:19:25.000Z</time>
</trkpt>
<trkpt lat="46.0298750" lon="10.4734340">
	<ele>2447.40</ele>
	<time>2023-08-06T06:19:26.000Z</time>
</trkpt>
<trkpt lat="46.0298800" lon="10.4734400">
	<ele>2447.20</ele>
	<time>2023-08-06T06:19:27.000Z</time>
</trkpt>
<trkpt lat="46.0298840" lon="10.4734450">
	<ele>2447.00</ele>
	<time>2023-08-06T06:19:28.000Z</time>
</trkpt>
<trkpt lat="46.0298890" lon="10.4734500">
	<ele>2446.80</ele>
	<time>2023-08-06T06:19:29.000Z</time>
</trkpt>
<trkpt lat="46.0298940" lon="10.4734570">
	<ele>2446.80</ele>
	<time>2023-08-06T06:19:30.000Z</time>
</trkpt>
<trkpt lat="46.0298980" lon="10.4734640">
	<ele>2446.80</ele>
	<time>2023-08-06T06:19:31.000Z</time>
</trkpt>
<trkpt lat="46.0299010" lon="10.4734730">
	<ele>2446.60</ele>
	<time>2023-08-06T06:19:32.000Z</time>
</trkpt>
<trkpt lat="46.0299090" lon="10.4734830">
	<ele>2446.60</ele>
	<time>2023-08-06T06:19:33.000Z</time>
</trkpt>
<trkpt lat="46.0299140" lon="10.4734920">
	<ele>2446.40</ele>
	<time>2023-08-06T06:19:34.000Z</time>
</trkpt>
<trkpt lat="46.0299170" lon="10.4735020">
	<ele>2446.20</ele>
	<time>2023-08-06T06:19:35.000Z</time>
</trkpt>
<trkpt lat="46.0299200" lon="10.4735120">
	<ele>2446.00</ele>
	<time>2023-08-06T06:19:36.000Z</time>
</trkpt>
<trkpt lat="46.0299250" lon="10.4735220">
	<ele>2445.80</ele>
	<time>2023-08-06T06:19:37.000Z</time>
</trkpt>
<trkpt lat="46.0299290" lon="10.4735330">
	<ele>2445.60</ele>
	<time>2023-08-06T06:19:38.000Z</time>
</trkpt>
<trkpt lat="46.0299320" lon="10.4735420">
	<ele>2445.60</ele>
	<time>2023-08-06T06:19:39.000Z</time>
</trkpt>
<trkpt lat="46.0299350" lon="10.4735520">
	<ele>2445.60</ele>
	<time>2023-08-06T06:19:40.000Z</time>
</trkpt>
<trkpt lat="46.0299390" lon="10.4735650">
	<ele>2445.60</ele>
	<time>2023-08-06T06:19:41.000Z</time>
</trkpt>
<trkpt lat="46.0299420" lon="10.4735740">
	<ele>2445.60</ele>
	<time>2023-08-06T06:19:42.000Z</time>
</trkpt>
<trkpt lat="46.0299450" lon="10.4735830">
	<ele>2445.80</ele>
	<time>2023-08-06T06:19:43.000Z</time>
</trkpt>
<trkpt lat="46.0299480" lon="10.4735880">
	<ele>2446.00</ele>
	<time>2023-08-06T06:19:44.000Z</time>
</trkpt>
<trkpt lat="46.0299500" lon="10.4735960">
	<ele>2446.20</ele>
	<time>2023-08-06T06:19:45.000Z</time>
</trkpt>
<trkpt lat="46.0299560" lon="10.4736060">
	<ele>2446.20</ele>
	<time>2023-08-06T06:19:46.000Z</time>
</trkpt>
<trkpt lat="46.0299600" lon="10.4736180">
	<ele>2446.20</ele>
	<time>2023-08-06T06:19:47.000Z</time>
</trkpt>
<trkpt lat="46.0299640" lon="10.4736250">
	<ele>2446.20</ele>
	<time>2023-08-06T06:19:48.000Z</time>
</trkpt>
<trkpt lat="46.0299680" lon="10.4736320">
	<ele>2446.20</ele>
	<time>2023-08-06T06:19:49.000Z</time>
</trkpt>
<trkpt lat="46.0299710" lon="10.4736410">
	<ele>2446.00</ele>
	<time>2023-08-06T06:19:50.000Z</time>
</trkpt>
<trkpt lat="46.0299760" lon="10.4736510">
	<ele>2446.00</ele>
	<time>2023-08-06T06:19:51.000Z</time>
</trkpt>
<trkpt lat="46.0299820" lon="10.4736600">
	<ele>2446.00</ele>
	<time>2023-08-06T06:19:52.000Z</time>
</trkpt>
<trkpt lat="46.0299900" lon="10.4736700">
	<ele>2445.80</ele>
	<time>2023-08-06T06:19:53.000Z</time>
</trkpt>
<trkpt lat="46.0300010" lon="10.4736810">
	<ele>2445.80</ele>
	<time>2023-08-06T06:19:54.000Z</time>
</trkpt>
<trkpt lat="46.0300060" lon="10.4736960">
	<ele>2445.60</ele>
	<time>2023-08-06T06:19:55.000Z</time>
</trkpt>
<trkpt lat="46.0300100" lon="10.4737100">
	<ele>2445.40</ele>
	<time>2023-08-06T06:19:56.000Z</time>
</trkpt>
<trkpt lat="46.0300140" lon="10.4737230">
	<ele>2445.20</ele>
	<time>2023-08-06T06:19:57.000Z</time>
</trkpt>
<trkpt lat="46.0300190" lon="10.4737360">
	<ele>2445.00</ele>
	<time>2023-08-06T06:19:58.000Z</time>
</trkpt>
<trkpt lat="46.0300260" lon="10.4737470">
	<ele>2444.80</ele>
	<time>2023-08-06T06:19:59.000Z</time>
</trkpt>
<trkpt lat="46.0300300" lon="10.4737550">
	<ele>2444.60</ele>
	<time>2023-08-06T06:20:00.000Z</time>
</trkpt>
<trkpt lat="46.0300350" lon="10.4737630">
	<ele>2444.60</ele>
	<time>2023-08-06T06:20:01.000Z</time>
</trkpt>
<trkpt lat="46.0300450" lon="10.4737710">
	<ele>2444.40</ele>
	<time>2023-08-06T06:20:02.000Z</time>
</trkpt>
<trkpt lat="46.0300550" lon="10.4737830">
	<ele>2444.40</ele>
	<time>2023-08-06T06:20:03.000Z</time>
</trkpt>
<trkpt lat="46.0300630" lon="10.4737920">
	<ele>2444.40</ele>
	<time>2023-08-06T06:20:04.000Z</time>
</trkpt>
<trkpt lat="46.0300710" lon="10.4738020">
	<ele>2444.40</ele>
	<time>2023-08-06T06:20:05.000Z</time>
</trkpt>
<trkpt lat="46.0300760" lon="10.4738150">
	<ele>2444.40</ele>
	<time>2023-08-06T06:20:06.000Z</time>
</trkpt>
<trkpt lat="46.0300850" lon="10.4738250">
	<ele>2444.40</ele>
	<time>2023-08-06T06:20:07.000Z</time>
</trkpt>
<trkpt lat="46.0300940" lon="10.4738360">
	<ele>2444.40</ele>
	<time>2023-08-06T06:20:08.000Z</time>
</trkpt>
<trkpt lat="46.0301030" lon="10.4738480">
	<ele>2444.20</ele>
	<time>2023-08-06T06:20:09.000Z</time>
</trkpt>
<trkpt lat="46.0301090" lon="10.4738600">
	<ele>2444.20</ele>
	<time>2023-08-06T06:20:10.000Z</time>
</trkpt>
<trkpt lat="46.0301110" lon="10.4738670">
	<ele>2444.20</ele>
	<time>2023-08-06T06:20:11.000Z</time>
</trkpt>
<trkpt lat="46.0301130" lon="10.4738740">
	<ele>2444.20</ele>
	<time>2023-08-06T06:20:12.000Z</time>
</trkpt>
<trkpt lat="46.0301110" lon="10.4738750">
	<ele>2444.20</ele>
	<time>2023-08-06T06:20:13.000Z</time>
</trkpt>
<trkpt lat="46.0301100" lon="10.4738780">
	<ele>2444.40</ele>
	<time>2023-08-06T06:20:14.000Z</time>
</trkpt>
<trkpt lat="46.0301090" lon="10.4738770">
	<ele>2444.40</ele>
	<time>2023-08-06T06:20:15.000Z</time>
</trkpt>
<trkpt lat="46.0301090" lon="10.4738750">
	<ele>2444.60</ele>
	<time>2023-08-06T06:20:16.000Z</time>
</trkpt>
<trkpt lat="46.0301090" lon="10.4738750">
	<ele>2444.60</ele>
	<time>2023-08-06T06:20:17.000Z</time>
</trkpt>
<trkpt lat="46.0301100" lon="10.4738750">
	<ele>2444.60</ele>
	<time>2023-08-06T06:20:18.000Z</time>
</trkpt>
<trkpt lat="46.0301100" lon="10.4738760">
	<ele>2444.80</ele>
	<time>2023-08-06T06:20:19.000Z</time>
</trkpt>
<trkpt lat="46.0301110" lon="10.4738760">
	<ele>2444.80</ele>
	<time>2023-08-06T06:20:20.000Z</time>
</trkpt>
<trkpt lat="46.0301110" lon="10.4738760">
	<ele>2445.00</ele>
	<time>2023-08-06T06:20:21.000Z</time>
</trkpt>
<trkpt lat="46.0301110" lon="10.4738760">
	<ele>2445.00</ele>
	<time>2023-08-06T06:20:22.000Z</time>
</trkpt>
<trkpt lat="46.0301110" lon="10.4738760">
	<ele>2445.00</ele>
	<time>2023-08-06T06:20:23.000Z</time>
</trkpt>
<trkpt lat="46.0301110" lon="10.4738760">
	<ele>2445.00</ele>
	<time>2023-08-06T06:20:24.000Z</time>
</trkpt>
<trkpt lat="46.0301110" lon="10.4738760">
	<ele>2445.00</ele>
	<time>2023-08-06T06:20:25.000Z</time>
</trkpt>
<trkpt lat="46.0301110" lon="10.4738760">
	<ele>2445.00</ele>
	<time>2023-08-06T06:20:26.000Z</time>
</trkpt>
<trkpt lat="46.0301110" lon="10.4738760">
	<ele>2445.00</ele>
	<time>2023-08-06T06:20:27.000Z</time>
</trkpt>
<trkpt lat="46.0301110" lon="10.4738760">
	<ele>2445.00</ele>
	<time>2023-08-06T06:20:28.000Z</time>
</trkpt>
<trkpt lat="46.0301110" lon="10.4738760">
	<ele>2445.00</ele>
	<time>2023-08-06T06:20:29.000Z</time>
</trkpt>
<trkpt lat="46.0301110" lon="10.4738760">
	<ele>2445.20</ele>
	<time>2023-08-06T06:20:30.000Z</time>
</trkpt>
<trkpt lat="46.0301110" lon="10.4738760">
	<ele>2445.20</ele>
	<time>2023-08-06T06:20:31.000Z</time>
</trkpt>
<trkpt lat="46.0301110" lon="10.4738760">
	<ele>2445.20</ele>
	<time>2023-08-06T06:20:32.000Z</time>
</trkpt>
<trkpt lat="46.0301110" lon="10.4738760">
	<ele>2445.20</ele>
	<time>2023-08-06T06:20:33.000Z</time>
</trkpt>
<trkpt lat="46.0301110" lon="10.4738760">
	<ele>2445.20</ele>
	<time>2023-08-06T06:20:34.000Z</time>
</trkpt>
<trkpt lat="46.0301110" lon="10.4738760">
	<ele>2445.20</ele>
	<time>2023-08-06T06:20:35.000Z</time>
</trkpt>
<trkpt lat="46.0301110" lon="10.4738760">
	<ele>2445.00</ele>
	<time>2023-08-06T06:20:36.000Z</time>
</trkpt>
<trkpt lat="46.0301110" lon="10.4738760">
	<ele>2444.80</ele>
	<time>2023-08-06T06:20:37.000Z</time>
</trkpt>
<trkpt lat="46.0301110" lon="10.4738760">
	<ele>2444.60</ele>
	<time>2023-08-06T06:20:38.000Z</time>
</trkpt>
<trkpt lat="46.0301110" lon="10.4738760">
	<ele>2444.60</ele>
	<time>2023-08-06T06:20:39.000Z</time>
</trkpt>
<trkpt lat="46.0301110" lon="10.4738770">
	<ele>2444.60</ele>
	<time>2023-08-06T06:20:40.000Z</time>
</trkpt>
<trkpt lat="46.0301110" lon="10.4738770">
	<ele>2444.60</ele>
	<time>2023-08-06T06:20:41.000Z</time>
</trkpt>
<trkpt lat="46.0301120" lon="10.4738770">
	<ele>2444.60</ele>
	<time>2023-08-06T06:20:42.000Z</time>
</trkpt>
<trkpt lat="46.0301120" lon="10.4738770">
	<ele>2444.60</ele>
	<time>2023-08-06T06:20:43.000Z</time>
</trkpt>
<trkpt lat="46.0301120" lon="10.4738770">
	<ele>2444.60</ele>
	<time>2023-08-06T06:20:44.000Z</time>
</trkpt>
<trkpt lat="46.0301120" lon="10.4738780">
	<ele>2444.80</ele>
	<time>2023-08-06T06:20:45.000Z</time>
</trkpt>
<trkpt lat="46.0301120" lon="10.4738780">
	<ele>2444.80</ele>
	<time>2023-08-06T06:20:46.000Z</time>
</trkpt>
<trkpt lat="46.0301120" lon="10.4738780">
	<ele>2444.60</ele>
	<time>2023-08-06T06:20:47.000Z</time>
</trkpt>
<trkpt lat="46.0301120" lon="10.4738780">
	<ele>2444.40</ele>
	<time>2023-08-06T06:20:48.000Z</time>
</trkpt>
<trkpt lat="46.0301120" lon="10.4738780">
	<ele>2444.40</ele>
	<time>2023-08-06T06:20:49.000Z</time>
</trkpt>
<trkpt lat="46.0301120" lon="10.4738780">
	<ele>2444.40</ele>
	<time>2023-08-06T06:20:50.000Z</time>
</trkpt>
<trkpt lat="46.0301120" lon="10.4738790">
	<ele>2444.40</ele>
	<time>2023-08-06T06:20:51.000Z</time>
</trkpt>
<trkpt lat="46.0301120" lon="10.4738790">
	<ele>2444.20</ele>
	<time>2023-08-06T06:20:52.000Z</time>
</trkpt>
<trkpt lat="46.0301120" lon="10.4738790">
	<ele>2444.20</ele>
	<time>2023-08-06T06:20:53.000Z</time>
</trkpt>
<trkpt lat="46.0301120" lon="10.4738820">
	<ele>2444.40</ele>
	<time>2023-08-06T06:20:54.000Z</time>
</trkpt>
<trkpt lat="46.0301120" lon="10.4738860">
	<ele>2444.40</ele>
	<time>2023-08-06T06:20:55.000Z</time>
</trkpt>
<trkpt lat="46.0301120" lon="10.4738890">
	<ele>2444.40</ele>
	<time>2023-08-06T06:20:56.000Z</time>
</trkpt>
<trkpt lat="46.0301110" lon="10.4738910">
	<ele>2444.40</ele>
	<time>2023-08-06T06:20:57.000Z</time>
</trkpt>
<trkpt lat="46.0301110" lon="10.4738930">
	<ele>2444.40</ele>
	<time>2023-08-06T06:20:58.000Z</time>
</trkpt>
<trkpt lat="46.0301110" lon="10.4738940">
	<ele>2444.40</ele>
	<time>2023-08-06T06:20:59.000Z</time>
</trkpt>
<trkpt lat="46.0301110" lon="10.4738950">
	<ele>2444.40</ele>
	<time>2023-08-06T06:21:00.000Z</time>
</trkpt>
<trkpt lat="46.0301110" lon="10.4738960">
	<ele>2444.40</ele>
	<time>2023-08-06T06:21:01.000Z</time>
</trkpt>
<trkpt lat="46.0301110" lon="10.4738960">
	<ele>2444.40</ele>
	<time>2023-08-06T06:21:02.000Z</time>
</trkpt>
<trkpt lat="46.0301110" lon="10.4738970">
	<ele>2444.40</ele>
	<time>2023-08-06T06:21:03.000Z</time>
</trkpt>
<trkpt lat="46.0301110" lon="10.4739010">
	<ele>2444.40</ele>
	<time>2023-08-06T06:21:04.000Z</time>
</trkpt>
<trkpt lat="46.0301110" lon="10.4739030">
	<ele>2444.60</ele>
	<time>2023-08-06T06:21:05.000Z</time>
</trkpt>
<trkpt lat="46.0301110" lon="10.4739070">
	<ele>2444.60</ele>
	<time>2023-08-06T06:21:06.000Z</time>
</trkpt>
<trkpt lat="46.0301110" lon="10.4739090">
	<ele>2444.60</ele>
	<time>2023-08-06T06:21:07.000Z</time>
</trkpt>
<trkpt lat="46.0301110" lon="10.4739100">
	<ele>2444.60</ele>
	<time>2023-08-06T06:21:08.000Z</time>
</trkpt>
<trkpt lat="46.0301110" lon="10.4739110">
	<ele>2444.60</ele>
	<time>2023-08-06T06:21:09.000Z</time>
</trkpt>
<trkpt lat="46.0301110" lon="10.4739120">
	<ele>2444.60</ele>
	<time>2023-08-06T06:21:10.000Z</time>
</trkpt>
<trkpt lat="46.0301110" lon="10.4739120">
	<ele>2444.40</ele>
	<time>2023-08-06T06:21:11.000Z</time>
</trkpt>
<trkpt lat="46.0301110" lon="10.4739120">
	<ele>2444.20</ele>
	<time>2023-08-06T06:21:12.000Z</time>
</trkpt>
<trkpt lat="46.0301110" lon="10.4739130">
	<ele>2444.20</ele>
	<time>2023-08-06T06:21:13.000Z</time>
</trkpt>
<trkpt lat="46.0301110" lon="10.4739130">
	<ele>2444.00</ele>
	<time>2023-08-06T06:21:14.000Z</time>
</trkpt>
<trkpt lat="46.0301150" lon="10.4739180">
	<ele>2444.00</ele>
	<time>2023-08-06T06:21:15.000Z</time>
</trkpt>
<trkpt lat="46.0301250" lon="10.4739310">
	<ele>2443.80</ele>
	<time>2023-08-06T06:21:16.000Z</time>
</trkpt>
<trkpt lat="46.0301360" lon="10.4739450">
	<ele>2443.80</ele>
	<time>2023-08-06T06:21:17.000Z</time>
</trkpt>
<trkpt lat="46.0301460" lon="10.4739590">
	<ele>2443.60</ele>
	<time>2023-08-06T06:21:18.000Z</time>
</trkpt>
<trkpt lat="46.0301530" lon="10.4739770">
	<ele>2443.40</ele>
	<time>2023-08-06T06:21:19.000Z</time>
</trkpt>
<trkpt lat="46.0301590" lon="10.4739940">
	<ele>2443.20</ele>
	<time>2023-08-06T06:21:20.000Z</time>
</trkpt>
<trkpt lat="46.0301670" lon="10.4740090">
	<ele>2443.00</ele>
	<time>2023-08-06T06:21:21.000Z</time>
</trkpt>
<trkpt lat="46.0301760" lon="10.4740230">
	<ele>2442.80</ele>
	<time>2023-08-06T06:21:22.000Z</time>
</trkpt>
<trkpt lat="46.0301870" lon="10.4740370">
	<ele>2442.60</ele>
	<time>2023-08-06T06:21:23.000Z</time>
</trkpt>
<trkpt lat="46.0301970" lon="10.4740520">
	<ele>2442.60</ele>
	<time>2023-08-06T06:21:24.000Z</time>
</trkpt>
<trkpt lat="46.0302010" lon="10.4740600">
	<ele>2442.40</ele>
	<time>2023-08-06T06:21:25.000Z</time>
</trkpt>
<trkpt lat="46.0302070" lon="10.4740670">
	<ele>2442.20</ele>
	<time>2023-08-06T06:21:26.000Z</time>
</trkpt>
<trkpt lat="46.0302090" lon="10.4740740">
	<ele>2442.00</ele>
	<time>2023-08-06T06:21:27.000Z</time>
</trkpt>
<trkpt lat="46.0302140" lon="10.4740820">
	<ele>2441.80</ele>
	<time>2023-08-06T06:21:28.000Z</time>
</trkpt>
<trkpt lat="46.0302200" lon="10.4740900">
	<ele>2441.80</ele>
	<time>2023-08-06T06:21:29.000Z</time>
</trkpt>
<trkpt lat="46.0302250" lon="10.4740960">
	<ele>2441.60</ele>
	<time>2023-08-06T06:21:30.000Z</time>
</trkpt>
<trkpt lat="46.0302280" lon="10.4740990">
	<ele>2441.40</ele>
	<time>2023-08-06T06:21:31.000Z</time>
</trkpt>
<trkpt lat="46.0302320" lon="10.4741010">
	<ele>2441.20</ele>
	<time>2023-08-06T06:21:32.000Z</time>
</trkpt>
<trkpt lat="46.0302380" lon="10.4741010">
	<ele>2441.00</ele>
	<time>2023-08-06T06:21:33.000Z</time>
</trkpt>
<trkpt lat="46.0302430" lon="10.4741020">
	<ele>2441.00</ele>
	<time>2023-08-06T06:21:34.000Z</time>
</trkpt>
<trkpt lat="46.0302480" lon="10.4741060">
	<ele>2440.80</ele>
	<time>2023-08-06T06:21:35.000Z</time>
</trkpt>
<trkpt lat="46.0302550" lon="10.4741120">
	<ele>2440.80</ele>
	<time>2023-08-06T06:21:36.000Z</time>
</trkpt>
<trkpt lat="46.0302620" lon="10.4741170">
	<ele>2440.80</ele>
	<time>2023-08-06T06:21:37.000Z</time>
</trkpt>
<trkpt lat="46.0302680" lon="10.4741210">
	<ele>2440.40</ele>
	<time>2023-08-06T06:21:38.000Z</time>
</trkpt>
<trkpt lat="46.0302750" lon="10.4741270">
	<ele>2440.40</ele>
	<time>2023-08-06T06:21:39.000Z</time>
</trkpt>
<trkpt lat="46.0302810" lon="10.4741350">
	<ele>2440.20</ele>
	<time>2023-08-06T06:21:40.000Z</time>
</trkpt>
<trkpt lat="46.0302860" lon="10.4741450">
	<ele>2440.00</ele>
	<time>2023-08-06T06:21:41.000Z</time>
</trkpt>
<trkpt lat="46.0302880" lon="10.4741540">
	<ele>2440.00</ele>
	<time>2023-08-06T06:21:42.000Z</time>
</trkpt>
<trkpt lat="46.0302900" lon="10.4741580">
	<ele>2440.00</ele>
	<time>2023-08-06T06:21:43.000Z</time>
</trkpt>
<trkpt lat="46.0302900" lon="10.4741580">
	<ele>2440.00</ele>
	<time>2023-08-06T06:21:44.000Z</time>
</trkpt>
<trkpt lat="46.0302920" lon="10.4741610">
	<ele>2440.00</ele>
	<time>2023-08-06T06:21:45.000Z</time>
</trkpt>
<trkpt lat="46.0302940" lon="10.4741630">
	<ele>2440.00</ele>
	<time>2023-08-06T06:21:46.000Z</time>
</trkpt>
<trkpt lat="46.0302960" lon="10.4741660">
	<ele>2440.00</ele>
	<time>2023-08-06T06:21:47.000Z</time>
</trkpt>
<trkpt lat="46.0302980" lon="10.4741730">
	<ele>2439.80</ele>
	<time>2023-08-06T06:21:48.000Z</time>
</trkpt>
<trkpt lat="46.0303000" lon="10.4741820">
	<ele>2439.20</ele>
	<time>2023-08-06T06:21:49.000Z</time>
</trkpt>
<trkpt lat="46.0303000" lon="10.4741940">
	<ele>2439.00</ele>
	<time>2023-08-06T06:21:50.000Z</time>
</trkpt>
<trkpt lat="46.0303000" lon="10.4742080">
	<ele>2438.60</ele>
	<time>2023-08-06T06:21:51.000Z</time>
</trkpt>
<trkpt lat="46.0303030" lon="10.4742210">
	<ele>2438.40</ele>
	<time>2023-08-06T06:21:52.000Z</time>
</trkpt>
<trkpt lat="46.0303060" lon="10.4742290">
	<ele>2438.20</ele>
	<time>2023-08-06T06:21:53.000Z</time>
</trkpt>
<trkpt lat="46.0303060" lon="10.4742370">
	<ele>2438.00</ele>
	<time>2023-08-06T06:21:54.000Z</time>
</trkpt>
<trkpt lat="46.0303080" lon="10.4742420">
	<ele>2438.00</ele>
	<time>2023-08-06T06:21:55.000Z</time>
</trkpt>
<trkpt lat="46.0303100" lon="10.4742500">
	<ele>2437.80</ele>
	<time>2023-08-06T06:21:56.000Z</time>
</trkpt>
<trkpt lat="46.0303120" lon="10.4742590">
	<ele>2437.60</ele>
	<time>2023-08-06T06:21:57.000Z</time>
</trkpt>
<trkpt lat="46.0303140" lon="10.4742650">
	<ele>2437.60</ele>
	<time>2023-08-06T06:21:58.000Z</time>
</trkpt>
<trkpt lat="46.0303200" lon="10.4742670">
	<ele>2437.40</ele>
	<time>2023-08-06T06:21:59.000Z</time>
</trkpt>
<trkpt lat="46.0303240" lon="10.4742680">
	<ele>2437.40</ele>
	<time>2023-08-06T06:22:00.000Z</time>
</trkpt>
<trkpt lat="46.0303280" lon="10.4742650">
	<ele>2437.40</ele>
	<time>2023-08-06T06:22:01.000Z</time>
</trkpt>
<trkpt lat="46.0303330" lon="10.4742550">
	<ele>2437.00</ele>
	<time>2023-08-06T06:22:02.000Z</time>
</trkpt>
<trkpt lat="46.0303350" lon="10.4742430">
	<ele>2436.80</ele>
	<time>2023-08-06T06:22:03.000Z</time>
</trkpt>
<trkpt lat="46.0303400" lon="10.4742330">
	<ele>2436.80</ele>
	<time>2023-08-06T06:22:04.000Z</time>
</trkpt>
<trkpt lat="46.0303470" lon="10.4742280">
	<ele>2436.40</ele>
	<time>2023-08-06T06:22:05.000Z</time>
</trkpt>
<trkpt lat="46.0303530" lon="10.4742230">
	<ele>2436.40</ele>
	<time>2023-08-06T06:22:06.000Z</time>
</trkpt>
<trkpt lat="46.0303600" lon="10.4742210">
	<ele>2436.00</ele>
	<time>2023-08-06T06:22:07.000Z</time>
</trkpt>
<trkpt lat="46.0303680" lon="10.4742250">
	<ele>2436.00</ele>
	<time>2023-08-06T06:22:08.000Z</time>
</trkpt>
<trkpt lat="46.0303720" lon="10.4742340">
	<ele>2435.80</ele>
	<time>2023-08-06T06:22:09.000Z</time>
</trkpt>
<trkpt lat="46.0303740" lon="10.4742380">
	<ele>2435.80</ele>
	<time>2023-08-06T06:22:10.000Z</time>
</trkpt>
<trkpt lat="46.0303750" lon="10.4742360">
	<ele>2435.60</ele>
	<time>2023-08-06T06:22:11.000Z</time>
</trkpt>
<trkpt lat="46.0303750" lon="10.4742360">
	<ele>2435.40</ele>
	<time>2023-08-06T06:22:12.000Z</time>
</trkpt>
<trkpt lat="46.0303790" lon="10.4742430">
	<ele>2435.20</ele>
	<time>2023-08-06T06:22:13.000Z</time>
</trkpt>
<trkpt lat="46.0303840" lon="10.4742540">
	<ele>2434.80</ele>
	<time>2023-08-06T06:22:14.000Z</time>
</trkpt>
<trkpt lat="46.0303860" lon="10.4742660">
	<ele>2434.60</ele>
	<time>2023-08-06T06:22:15.000Z</time>
</trkpt>
<trkpt lat="46.0303880" lon="10.4742730">
	<ele>2434.60</ele>
	<time>2023-08-06T06:22:16.000Z</time>
</trkpt>
<trkpt lat="46.0303900" lon="10.4742770">
	<ele>2434.40</ele>
	<time>2023-08-06T06:22:17.000Z</time>
</trkpt>
<trkpt lat="46.0303970" lon="10.4742770">
	<ele>2434.20</ele>
	<time>2023-08-06T06:22:18.000Z</time>
</trkpt>
<trkpt lat="46.0304030" lon="10.4742730">
	<ele>2434.20</ele>
	<time>2023-08-06T06:22:19.000Z</time>
</trkpt>
<trkpt lat="46.0304100" lon="10.4742760">
	<ele>2434.00</ele>
	<time>2023-08-06T06:22:20.000Z</time>
</trkpt>
<trkpt lat="46.0304140" lon="10.4742850">
	<ele>2433.60</ele>
	<time>2023-08-06T06:22:21.000Z</time>
</trkpt>
<trkpt lat="46.0304130" lon="10.4742960">
	<ele>2433.40</ele>
	<time>2023-08-06T06:22:22.000Z</time>
</trkpt>
<trkpt lat="46.0304110" lon="10.4743050">
	<ele>2433.20</ele>
	<time>2023-08-06T06:22:23.000Z</time>
</trkpt>
<trkpt lat="46.0304100" lon="10.4743140">
	<ele>2433.00</ele>
	<time>2023-08-06T06:22:24.000Z</time>
</trkpt>
<trkpt lat="46.0304100" lon="10.4743230">
	<ele>2433.00</ele>
	<time>2023-08-06T06:22:25.000Z</time>
</trkpt>
<trkpt lat="46.0304080" lon="10.4743320">
	<ele>2432.80</ele>
	<time>2023-08-06T06:22:26.000Z</time>
</trkpt>
<trkpt lat="46.0304080" lon="10.4743390">
	<ele>2432.80</ele>
	<time>2023-08-06T06:22:27.000Z</time>
</trkpt>
<trkpt lat="46.0304100" lon="10.4743490">
	<ele>2432.80</ele>
	<time>2023-08-06T06:22:28.000Z</time>
</trkpt>
<trkpt lat="46.0304090" lon="10.4743570">
	<ele>2432.60</ele>
	<time>2023-08-06T06:22:29.000Z</time>
</trkpt>
<trkpt lat="46.0304090" lon="10.4743630">
	<ele>2432.40</ele>
	<time>2023-08-06T06:22:30.000Z</time>
</trkpt>
<trkpt lat="46.0304100" lon="10.4743690">
	<ele>2432.40</ele>
	<time>2023-08-06T06:22:31.000Z</time>
</trkpt>
<trkpt lat="46.0304100" lon="10.4743800">
	<ele>2432.20</ele>
	<time>2023-08-06T06:22:32.000Z</time>
</trkpt>
<trkpt lat="46.0304100" lon="10.4743870">
	<ele>2432.20</ele>
	<time>2023-08-06T06:22:33.000Z</time>
</trkpt>
<trkpt lat="46.0304110" lon="10.4743890">
	<ele>2431.80</ele>
	<time>2023-08-06T06:22:34.000Z</time>
</trkpt>
<trkpt lat="46.0304180" lon="10.4743910">
	<ele>2431.60</ele>
	<time>2023-08-06T06:22:35.000Z</time>
</trkpt>
<trkpt lat="46.0304230" lon="10.4743930">
	<ele>2431.40</ele>
	<time>2023-08-06T06:22:36.000Z</time>
</trkpt>
<trkpt lat="46.0304270" lon="10.4743930">
	<ele>2431.40</ele>
	<time>2023-08-06T06:22:37.000Z</time>
</trkpt>
<trkpt lat="46.0304330" lon="10.4743870">
	<ele>2431.40</ele>
	<time>2023-08-06T06:22:38.000Z</time>
</trkpt>
<trkpt lat="46.0304390" lon="10.4743830">
	<ele>2431.20</ele>
	<time>2023-08-06T06:22:39.000Z</time>
</trkpt>
<trkpt lat="46.0304440" lon="10.4743830">
	<ele>2431.20</ele>
	<time>2023-08-06T06:22:40.000Z</time>
</trkpt>
<trkpt lat="46.0304490" lon="10.4743860">
	<ele>2430.80</ele>
	<time>2023-08-06T06:22:41.000Z</time>
</trkpt>
<trkpt lat="46.0304520" lon="10.4743940">
	<ele>2430.40</ele>
	<time>2023-08-06T06:22:42.000Z</time>
</trkpt>
<trkpt lat="46.0304520" lon="10.4744060">
	<ele>2430.20</ele>
	<time>2023-08-06T06:22:43.000Z</time>
</trkpt>
<trkpt lat="46.0304510" lon="10.4744150">
	<ele>2430.00</ele>
	<time>2023-08-06T06:22:44.000Z</time>
</trkpt>
<trkpt lat="46.0304500" lon="10.4744200">
	<ele>2429.80</ele>
	<time>2023-08-06T06:22:45.000Z</time>
</trkpt>
<trkpt lat="46.0304480" lon="10.4744260">
	<ele>2429.60</ele>
	<time>2023-08-06T06:22:46.000Z</time>
</trkpt>
<trkpt lat="46.0304470" lon="10.4744350">
	<ele>2429.40</ele>
	<time>2023-08-06T06:22:47.000Z</time>
</trkpt>
<trkpt lat="46.0304480" lon="10.4744460">
	<ele>2429.40</ele>
	<time>2023-08-06T06:22:48.000Z</time>
</trkpt>
<trkpt lat="46.0304450" lon="10.4744530">
	<ele>2429.20</ele>
	<time>2023-08-06T06:22:49.000Z</time>
</trkpt>
<trkpt lat="46.0304420" lon="10.4744650">
	<ele>2429.00</ele>
	<time>2023-08-06T06:22:50.000Z</time>
</trkpt>
<trkpt lat="46.0304380" lon="10.4744730">
	<ele>2428.80</ele>
	<time>2023-08-06T06:22:51.000Z</time>
</trkpt>
<trkpt lat="46.0304390" lon="10.4744820">
	<ele>2428.60</ele>
	<time>2023-08-06T06:22:52.000Z</time>
</trkpt>
<trkpt lat="46.0304400" lon="10.4744920">
	<ele>2428.60</ele>
	<time>2023-08-06T06:22:53.000Z</time>
</trkpt>
<trkpt lat="46.0304420" lon="10.4744990">
	<ele>2428.40</ele>
	<time>2023-08-06T06:22:54.000Z</time>
</trkpt>
<trkpt lat="46.0304450" lon="10.4745060">
	<ele>2428.20</ele>
	<time>2023-08-06T06:22:55.000Z</time>
</trkpt>
<trkpt lat="46.0304470" lon="10.4745150">
	<ele>2428.00</ele>
	<time>2023-08-06T06:22:56.000Z</time>
</trkpt>
<trkpt lat="46.0304490" lon="10.4745260">
	<ele>2427.80</ele>
	<time>2023-08-06T06:22:57.000Z</time>
</trkpt>
<trkpt lat="46.0304520" lon="10.4745380">
	<ele>2427.60</ele>
	<time>2023-08-06T06:22:58.000Z</time>
</trkpt>
<trkpt lat="46.0304540" lon="10.4745480">
	<ele>2427.40</ele>
	<time>2023-08-06T06:22:59.000Z</time>
</trkpt>
<trkpt lat="46.0304540" lon="10.4745570">
	<ele>2427.20</ele>
	<time>2023-08-06T06:23:00.000Z</time>
</trkpt>
<trkpt lat="46.0304530" lon="10.4745630">
	<ele>2427.00</ele>
	<time>2023-08-06T06:23:01.000Z</time>
</trkpt>
<trkpt lat="46.0304570" lon="10.4745710">
	<ele>2426.80</ele>
	<time>2023-08-06T06:23:02.000Z</time>
</trkpt>
<trkpt lat="46.0304610" lon="10.4745790">
	<ele>2426.60</ele>
	<time>2023-08-06T06:23:03.000Z</time>
</trkpt>
<trkpt lat="46.0304650" lon="10.4745860">
	<ele>2426.60</ele>
	<time>2023-08-06T06:23:04.000Z</time>
</trkpt>
<trkpt lat="46.0304670" lon="10.4745910">
	<ele>2426.40</ele>
	<time>2023-08-06T06:23:05.000Z</time>
</trkpt>
<trkpt lat="46.0304690" lon="10.4745940">
	<ele>2426.20</ele>
	<time>2023-08-06T06:23:06.000Z</time>
</trkpt>
<trkpt lat="46.0304710" lon="10.4745970">
	<ele>2426.00</ele>
	<time>2023-08-06T06:23:07.000Z</time>
</trkpt>
<trkpt lat="46.0304750" lon="10.4746010">
	<ele>2425.80</ele>
	<time>2023-08-06T06:23:08.000Z</time>
</trkpt>
<trkpt lat="46.0304790" lon="10.4746090">
	<ele>2425.60</ele>
	<time>2023-08-06T06:23:09.000Z</time>
</trkpt>
<trkpt lat="46.0304840" lon="10.4746150">
	<ele>2425.40</ele>
	<time>2023-08-06T06:23:10.000Z</time>
</trkpt>
<trkpt lat="46.0304880" lon="10.4746240">
	<ele>2425.20</ele>
	<time>2023-08-06T06:23:11.000Z</time>
</trkpt>
<trkpt lat="46.0304910" lon="10.4746300">
	<ele>2425.20</ele>
	<time>2023-08-06T06:23:12.000Z</time>
</trkpt>
<trkpt lat="46.0304930" lon="10.4746340">
	<ele>2424.80</ele>
	<time>2023-08-06T06:23:13.000Z</time>
</trkpt>
<trkpt lat="46.0304960" lon="10.4746400">
	<ele>2424.80</ele>
	<time>2023-08-06T06:23:14.000Z</time>
</trkpt>
<trkpt lat="46.0304990" lon="10.4746450">
	<ele>2424.60</ele>
	<time>2023-08-06T06:23:15.000Z</time>
</trkpt>
<trkpt lat="46.0305040" lon="10.4746590">
	<ele>2424.40</ele>
	<time>2023-08-06T06:23:16.000Z</time>
</trkpt>
<trkpt lat="46.0305070" lon="10.4746690">
	<ele>2424.20</ele>
	<time>2023-08-06T06:23:17.000Z</time>
</trkpt>
<trkpt lat="46.0305100" lon="10.4746780">
	<ele>2424.00</ele>
	<time>2023-08-06T06:23:18.000Z</time>
</trkpt>
<trkpt lat="46.0305130" lon="10.4746820">
	<ele>2423.80</ele>
	<time>2023-08-06T06:23:19.000Z</time>
</trkpt>
<trkpt lat="46.0305150" lon="10.4746900">
	<ele>2423.60</ele>
	<time>2023-08-06T06:23:20.000Z</time>
</trkpt>
<trkpt lat="46.0305180" lon="10.4747010">
	<ele>2423.60</ele>
	<time>2023-08-06T06:23:21.000Z</time>
</trkpt>
<trkpt lat="46.0305200" lon="10.4747120">
	<ele>2423.40</ele>
	<time>2023-08-06T06:23:22.000Z</time>
</trkpt>
<trkpt lat="46.0305210" lon="10.4747210">
	<ele>2423.20</ele>
	<time>2023-08-06T06:23:23.000Z</time>
</trkpt>
<trkpt lat="46.0305220" lon="10.4747310">
	<ele>2423.20</ele>
	<time>2023-08-06T06:23:24.000Z</time>
</trkpt>
<trkpt lat="46.0305220" lon="10.4747400">
	<ele>2423.00</ele>
	<time>2023-08-06T06:23:25.000Z</time>
</trkpt>
<trkpt lat="46.0305230" lon="10.4747520">
	<ele>2422.80</ele>
	<time>2023-08-06T06:23:26.000Z</time>
</trkpt>
<trkpt lat="46.0305260" lon="10.4747640">
	<ele>2422.80</ele>
	<time>2023-08-06T06:23:27.000Z</time>
</trkpt>
<trkpt lat="46.0305320" lon="10.4747730">
	<ele>2422.60</ele>
	<time>2023-08-06T06:23:28.000Z</time>
</trkpt>
<trkpt lat="46.0305350" lon="10.4747840">
	<ele>2422.60</ele>
	<time>2023-08-06T06:23:29.000Z</time>
</trkpt>
<trkpt lat="46.0305370" lon="10.4747980">
	<ele>2422.40</ele>
	<time>2023-08-06T06:23:30.000Z</time>
</trkpt>
<trkpt lat="46.0305390" lon="10.4748080">
	<ele>2422.40</ele>
	<time>2023-08-06T06:23:31.000Z</time>
</trkpt>
<trkpt lat="46.0305410" lon="10.4748180">
	<ele>2422.40</ele>
	<time>2023-08-06T06:23:32.000Z</time>
</trkpt>
<trkpt lat="46.0305430" lon="10.4748260">
	<ele>2422.20</ele>
	<time>2023-08-06T06:23:33.000Z</time>
</trkpt>
<trkpt lat="46.0305490" lon="10.4748330">
	<ele>2422.00</ele>
	<time>2023-08-06T06:23:34.000Z</time>
</trkpt>
<trkpt lat="46.0305540" lon="10.4748400">
	<ele>2421.80</ele>
	<time>2023-08-06T06:23:35.000Z</time>
</trkpt>
<trkpt lat="46.0305570" lon="10.4748510">
	<ele>2421.80</ele>
	<time>2023-08-06T06:23:36.000Z</time>
</trkpt>
<trkpt lat="46.0305600" lon="10.4748580">
	<ele>2421.60</ele>
	<time>2023-08-06T06:23:37.000Z</time>
</trkpt>
<trkpt lat="46.0305620" lon="10.4748620">
	<ele>2421.40</ele>
	<time>2023-08-06T06:23:38.000Z</time>
</trkpt>
<trkpt lat="46.0305650" lon="10.4748640">
	<ele>2421.40</ele>
	<time>2023-08-06T06:23:39.000Z</time>
</trkpt>
<trkpt lat="46.0305680" lon="10.4748670">
	<ele>2421.40</ele>
	<time>2023-08-06T06:23:40.000Z</time>
</trkpt>
<trkpt lat="46.0305720" lon="10.4748680">
	<ele>2421.20</ele>
	<time>2023-08-06T06:23:41.000Z</time>
</trkpt>
<trkpt lat="46.0305780" lon="10.4748770">
	<ele>2421.00</ele>
	<time>2023-08-06T06:23:42.000Z</time>
</trkpt>
<trkpt lat="46.0305800" lon="10.4748850">
	<ele>2420.60</ele>
	<time>2023-08-06T06:23:43.000Z</time>
</trkpt>
<trkpt lat="46.0305810" lon="10.4748920">
	<ele>2420.60</ele>
	<time>2023-08-06T06:23:44.000Z</time>
</trkpt>
<trkpt lat="46.0305800" lon="10.4748980">
	<ele>2420.20</ele>
	<time>2023-08-06T06:23:45.000Z</time>
</trkpt>
<trkpt lat="46.0305760" lon="10.4749070">
	<ele>2419.80</ele>
	<time>2023-08-06T06:23:46.000Z</time>
</trkpt>
<trkpt lat="46.0305730" lon="10.4749150">
	<ele>2419.80</ele>
	<time>2023-08-06T06:23:47.000Z</time>
</trkpt>
<trkpt lat="46.0305720" lon="10.4749200">
	<ele>2419.60</ele>
	<time>2023-08-06T06:23:48.000Z</time>
</trkpt>
<trkpt lat="46.0305720" lon="10.4749270">
	<ele>2419.60</ele>
	<time>2023-08-06T06:23:49.000Z</time>
</trkpt>
<trkpt lat="46.0305730" lon="10.4749340">
	<ele>2419.40</ele>
	<time>2023-08-06T06:23:50.000Z</time>
</trkpt>
<trkpt lat="46.0305730" lon="10.4749410">
	<ele>2419.20</ele>
	<time>2023-08-06T06:23:51.000Z</time>
</trkpt>
<trkpt lat="46.0305740" lon="10.4749490">
	<ele>2418.80</ele>
	<time>2023-08-06T06:23:52.000Z</time>
</trkpt>
<trkpt lat="46.0305770" lon="10.4749550">
	<ele>2418.60</ele>
	<time>2023-08-06T06:23:53.000Z</time>
</trkpt>
<trkpt lat="46.0305810" lon="10.4749560">
	<ele>2418.40</ele>
	<time>2023-08-06T06:23:54.000Z</time>
</trkpt>
<trkpt lat="46.0305850" lon="10.4749600">
	<ele>2418.20</ele>
	<time>2023-08-06T06:23:55.000Z</time>
</trkpt>
<trkpt lat="46.0305900" lon="10.4749650">
	<ele>2418.20</ele>
	<time>2023-08-06T06:23:56.000Z</time>
</trkpt>
<trkpt lat="46.0305960" lon="10.4749690">
	<ele>2418.20</ele>
	<time>2023-08-06T06:23:57.000Z</time>
</trkpt>
<trkpt lat="46.0305990" lon="10.4749730">
	<ele>2418.00</ele>
	<time>2023-08-06T06:23:58.000Z</time>
</trkpt>
<trkpt lat="46.0305980" lon="10.4749800">
	<ele>2417.60</ele>
	<time>2023-08-06T06:23:59.000Z</time>
</trkpt>
<trkpt lat="46.0305980" lon="10.4749910">
	<ele>2417.40</ele>
	<time>2023-08-06T06:24:00.000Z</time>
</trkpt>
<trkpt lat="46.0305980" lon="10.4750010">
	<ele>2417.20</ele>
	<time>2023-08-06T06:24:01.000Z</time>
</trkpt>
<trkpt lat="46.0305950" lon="10.4750080">
	<ele>2417.00</ele>
	<time>2023-08-06T06:24:02.000Z</time>
</trkpt>
<trkpt lat="46.0305940" lon="10.4750150">
	<ele>2416.80</ele>
	<time>2023-08-06T06:24:03.000Z</time>
</trkpt>
<trkpt lat="46.0305930" lon="10.4750230">
	<ele>2416.60</ele>
	<time>2023-08-06T06:24:04.000Z</time>
</trkpt>
<trkpt lat="46.0305910" lon="10.4750300">
	<ele>2416.40</ele>
	<time>2023-08-06T06:24:05.000Z</time>
</trkpt>
<trkpt lat="46.0305930" lon="10.4750380">
	<ele>2416.20</ele>
	<time>2023-08-06T06:24:06.000Z</time>
</trkpt>
<trkpt lat="46.0305950" lon="10.4750440">
	<ele>2416.00</ele>
	<time>2023-08-06T06:24:07.000Z</time>
</trkpt>
<trkpt lat="46.0305940" lon="10.4750540">
	<ele>2415.80</ele>
	<time>2023-08-06T06:24:08.000Z</time>
</trkpt>
<trkpt lat="46.0305900" lon="10.4750660">
	<ele>2415.80</ele>
	<time>2023-08-06T06:24:09.000Z</time>
</trkpt>
<trkpt lat="46.0305860" lon="10.4750760">
	<ele>2415.60</ele>
	<time>2023-08-06T06:24:10.000Z</time>
</trkpt>
<trkpt lat="46.0305850" lon="10.4750850">
	<ele>2415.40</ele>
	<time>2023-08-06T06:24:11.000Z</time>
</trkpt>
<trkpt lat="46.0305840" lon="10.4750920">
	<ele>2415.20</ele>
	<time>2023-08-06T06:24:12.000Z</time>
</trkpt>
<trkpt lat="46.0305840" lon="10.4751050">
	<ele>2415.20</ele>
	<time>2023-08-06T06:24:13.000Z</time>
</trkpt>
<trkpt lat="46.0305870" lon="10.4751160">
	<ele>2415.00</ele>
	<time>2023-08-06T06:24:14.000Z</time>
</trkpt>
<trkpt lat="46.0305900" lon="10.4751270">
	<ele>2414.80</ele>
	<time>2023-08-06T06:24:15.000Z</time>
</trkpt>
<trkpt lat="46.0305920" lon="10.4751350">
	<ele>2414.60</ele>
	<time>2023-08-06T06:24:16.000Z</time>
</trkpt>
<trkpt lat="46.0305950" lon="10.4751440">
	<ele>2414.60</ele>
	<time>2023-08-06T06:24:17.000Z</time>
</trkpt>
<trkpt lat="46.0305990" lon="10.4751550">
	<ele>2414.40</ele>
	<time>2023-08-06T06:24:18.000Z</time>
</trkpt>
<trkpt lat="46.0306010" lon="10.4751650">
	<ele>2414.40</ele>
	<time>2023-08-06T06:24:19.000Z</time>
</trkpt>
<trkpt lat="46.0306020" lon="10.4751730">
	<ele>2414.20</ele>
	<time>2023-08-06T06:24:20.000Z</time>
</trkpt>
<trkpt lat="46.0306050" lon="10.4751830">
	<ele>2414.00</ele>
	<time>2023-08-06T06:24:21.000Z</time>
</trkpt>
<trkpt lat="46.0306070" lon="10.4751930">
	<ele>2413.80</ele>
	<time>2023-08-06T06:24:22.000Z</time>
</trkpt>
<trkpt lat="46.0306070" lon="10.4751960">
	<ele>2413.60</ele>
	<time>2023-08-06T06:24:23.000Z</time>
</trkpt>
<trkpt lat="46.0306090" lon="10.4752020">
	<ele>2413.40</ele>
	<time>2023-08-06T06:24:24.000Z</time>
</trkpt>
<trkpt lat="46.0306110" lon="10.4752110">
	<ele>2413.20</ele>
	<time>2023-08-06T06:24:25.000Z</time>
</trkpt>
<trkpt lat="46.0306140" lon="10.4752170">
	<ele>2413.20</ele>
	<time>2023-08-06T06:24:26.000Z</time>
</trkpt>
<trkpt lat="46.0306180" lon="10.4752240">
	<ele>2412.80</ele>
	<time>2023-08-06T06:24:27.000Z</time>
</trkpt>
<trkpt lat="46.0306230" lon="10.4752300">
	<ele>2412.80</ele>
	<time>2023-08-06T06:24:28.000Z</time>
</trkpt>
<trkpt lat="46.0306250" lon="10.4752340">
	<ele>2412.40</ele>
	<time>2023-08-06T06:24:29.000Z</time>
</trkpt>
<trkpt lat="46.0306300" lon="10.4752410">
	<ele>2412.40</ele>
	<time>2023-08-06T06:24:30.000Z</time>
</trkpt>
<trkpt lat="46.0306340" lon="10.4752510">
	<ele>2412.20</ele>
	<time>2023-08-06T06:24:31.000Z</time>
</trkpt>
<trkpt lat="46.0306380" lon="10.4752610">
	<ele>2412.00</ele>
	<time>2023-08-06T06:24:32.000Z</time>
</trkpt>
<trkpt lat="46.0306410" lon="10.4752730">
	<ele>2411.60</ele>
	<time>2023-08-06T06:24:33.000Z</time>
</trkpt>
<trkpt lat="46.0306440" lon="10.4752850">
	<ele>2411.60</ele>
	<time>2023-08-06T06:24:34.000Z</time>
</trkpt>
<trkpt lat="46.0306470" lon="10.4752980">
	<ele>2411.40</ele>
	<time>2023-08-06T06:24:35.000Z</time>
</trkpt>
<trkpt lat="46.0306490" lon="10.4753070">
	<ele>2411.20</ele>
	<time>2023-08-06T06:24:36.000Z</time>
</trkpt>
<trkpt lat="46.0306530" lon="10.4753160">
	<ele>2411.20</ele>
	<time>2023-08-06T06:24:37.000Z</time>
</trkpt>
<trkpt lat="46.0306570" lon="10.4753250">
	<ele>2411.00</ele>
	<time>2023-08-06T06:24:38.000Z</time>
</trkpt>
<trkpt lat="46.0306660" lon="10.4753400">
	<ele>2411.00</ele>
	<time>2023-08-06T06:24:39.000Z</time>
</trkpt>
<trkpt lat="46.0306710" lon="10.4753460">
	<ele>2410.80</ele>
	<time>2023-08-06T06:24:40.000Z</time>
</trkpt>
<trkpt lat="46.0306760" lon="10.4753590">
	<ele>2410.60</ele>
	<time>2023-08-06T06:24:41.000Z</time>
</trkpt>
<trkpt lat="46.0306800" lon="10.4753670">
	<ele>2410.40</ele>
	<time>2023-08-06T06:24:42.000Z</time>
</trkpt>
<trkpt lat="46.0306850" lon="10.4753800">
	<ele>2410.40</ele>
	<time>2023-08-06T06:24:43.000Z</time>
</trkpt>
<trkpt lat="46.0306870" lon="10.4753890">
	<ele>2410.40</ele>
	<time>2023-08-06T06:24:44.000Z</time>
</trkpt>
<trkpt lat="46.0306880" lon="10.4753990">
	<ele>2410.40</ele>
	<time>2023-08-06T06:24:45.000Z</time>
</trkpt>
<trkpt lat="46.0306870" lon="10.4754100">
	<ele>2410.40</ele>
	<time>2023-08-06T06:24:46.000Z</time>
</trkpt>
<trkpt lat="46.0306850" lon="10.4754250">
	<ele>2410.40</ele>
	<time>2023-08-06T06:24:47.000Z</time>
</trkpt>
<trkpt lat="46.0306810" lon="10.4754340">
	<ele>2410.60</ele>
	<time>2023-08-06T06:24:48.000Z</time>
</trkpt>
<trkpt lat="46.0306790" lon="10.4754410">
	<ele>2410.60</ele>
	<time>2023-08-06T06:24:49.000Z</time>
</trkpt>
<trkpt lat="46.0306750" lon="10.4754470">
	<ele>2410.80</ele>
	<time>2023-08-06T06:24:50.000Z</time>
</trkpt>
<trkpt lat="46.0306700" lon="10.4754530">
	<ele>2411.00</ele>
	<time>2023-08-06T06:24:51.000Z</time>
</trkpt>
<trkpt lat="46.0306650" lon="10.4754610">
	<ele>2411.00</ele>
	<time>2023-08-06T06:24:52.000Z</time>
</trkpt>
<trkpt lat="46.0306610" lon="10.4754700">
	<ele>2411.00</ele>
	<time>2023-08-06T06:24:53.000Z</time>
</trkpt>
<trkpt lat="46.0306580" lon="10.4754740">
	<ele>2411.20</ele>
	<time>2023-08-06T06:24:54.000Z</time>
</trkpt>
<trkpt lat="46.0306580" lon="10.4754830">
	<ele>2411.40</ele>
	<time>2023-08-06T06:24:55.000Z</time>
</trkpt>
<trkpt lat="46.0306580" lon="10.4754920">
	<ele>2411.40</ele>
	<time>2023-08-06T06:24:56.000Z</time>
</trkpt>
<trkpt lat="46.0306600" lon="10.4755060">
	<ele>2411.60</ele>
	<time>2023-08-06T06:24:57.000Z</time>
</trkpt>
<trkpt lat="46.0306590" lon="10.4755180">
	<ele>2411.60</ele>
	<time>2023-08-06T06:24:58.000Z</time>
</trkpt>
<trkpt lat="46.0306560" lon="10.4755260">
	<ele>2411.80</ele>
	<time>2023-08-06T06:24:59.000Z</time>
</trkpt>
<trkpt lat="46.0306520" lon="10.4755330">
	<ele>2411.80</ele>
	<time>2023-08-06T06:25:00.000Z</time>
</trkpt>
<trkpt lat="46.0306480" lon="10.4755400">
	<ele>2412.00</ele>
	<time>2023-08-06T06:25:01.000Z</time>
</trkpt>
<trkpt lat="46.0306430" lon="10.4755440">
	<ele>2412.00</ele>
	<time>2023-08-06T06:25:02.000Z</time>
</trkpt>
<trkpt lat="46.0306360" lon="10.4755430">
	<ele>2412.40</ele>
	<time>2023-08-06T06:25:03.000Z</time>
</trkpt>
<trkpt lat="46.0306290" lon="10.4755430">
	<ele>2412.60</ele>
	<time>2023-08-06T06:25:04.000Z</time>
</trkpt>
<trkpt lat="46.0306240" lon="10.4755400">
	<ele>2412.80</ele>
	<time>2023-08-06T06:25:05.000Z</time>
</trkpt>
<trkpt lat="46.0306190" lon="10.4755350">
	<ele>2412.80</ele>
	<time>2023-08-06T06:25:06.000Z</time>
</trkpt>
<trkpt lat="46.0306160" lon="10.4755310">
	<ele>2413.00</ele>
	<time>2023-08-06T06:25:07.000Z</time>
</trkpt>
<trkpt lat="46.0306130" lon="10.4755290">
	<ele>2413.20</ele>
	<time>2023-08-06T06:25:08.000Z</time>
</trkpt>
<trkpt lat="46.0306090" lon="10.4755280">
	<ele>2413.40</ele>
	<time>2023-08-06T06:25:09.000Z</time>
</trkpt>
<trkpt lat="46.0306030" lon="10.4755290">
	<ele>2413.40</ele>
	<time>2023-08-06T06:25:10.000Z</time>
</trkpt>
<trkpt lat="46.0305980" lon="10.4755290">
	<ele>2413.60</ele>
	<time>2023-08-06T06:25:11.000Z</time>
</trkpt>
<trkpt lat="46.0305940" lon="10.4755260">
	<ele>2413.80</ele>
	<time>2023-08-06T06:25:12.000Z</time>
</trkpt>
<trkpt lat="46.0305890" lon="10.4755270">
	<ele>2414.00</ele>
	<time>2023-08-06T06:25:13.000Z</time>
</trkpt>
<trkpt lat="46.0305840" lon="10.4755300">
	<ele>2414.20</ele>
	<time>2023-08-06T06:25:14.000Z</time>
</trkpt>
<trkpt lat="46.0305810" lon="10.4755350">
	<ele>2414.20</ele>
	<time>2023-08-06T06:25:15.000Z</time>
</trkpt>
<trkpt lat="46.0305790" lon="10.4755430">
	<ele>2414.20</ele>
	<time>2023-08-06T06:25:16.000Z</time>
</trkpt>
<trkpt lat="46.0305780" lon="10.4755510">
	<ele>2414.20</ele>
	<time>2023-08-06T06:25:17.000Z</time>
</trkpt>
<trkpt lat="46.0305770" lon="10.4755660">
	<ele>2414.40</ele>
	<time>2023-08-06T06:25:18.000Z</time>
</trkpt>
<trkpt lat="46.0305760" lon="10.4755800">
	<ele>2414.40</ele>
	<time>2023-08-06T06:25:19.000Z</time>
</trkpt>
<trkpt lat="46.0305730" lon="10.4755920">
	<ele>2414.40</ele>
	<time>2023-08-06T06:25:20.000Z</time>
</trkpt>
<trkpt lat="46.0305710" lon="10.4756000">
	<ele>2414.40</ele>
	<time>2023-08-06T06:25:21.000Z</time>
</trkpt>
<trkpt lat="46.0305690" lon="10.4756120">
	<ele>2414.40</ele>
	<time>2023-08-06T06:25:22.000Z</time>
</trkpt>
<trkpt lat="46.0305680" lon="10.4756210">
	<ele>2414.40</ele>
	<time>2023-08-06T06:25:23.000Z</time>
</trkpt>
<trkpt lat="46.0305670" lon="10.4756300">
	<ele>2414.40</ele>
	<time>2023-08-06T06:25:24.000Z</time>
</trkpt>
<trkpt lat="46.0305670" lon="10.4756440">
	<ele>2414.20</ele>
	<time>2023-08-06T06:25:25.000Z</time>
</trkpt>
<trkpt lat="46.0305700" lon="10.4756540">
	<ele>2414.20</ele>
	<time>2023-08-06T06:25:26.000Z</time>
</trkpt>
<trkpt lat="46.0305740" lon="10.4756670">
	<ele>2414.20</ele>
	<time>2023-08-06T06:25:27.000Z</time>
</trkpt>
<trkpt lat="46.0305790" lon="10.4756790">
	<ele>2414.20</ele>
	<time>2023-08-06T06:25:28.000Z</time>
</trkpt>
<trkpt lat="46.0305810" lon="10.4756920">
	<ele>2414.20</ele>
	<time>2023-08-06T06:25:29.000Z</time>
</trkpt>
<trkpt lat="46.0305820" lon="10.4757050">
	<ele>2414.20</ele>
	<time>2023-08-06T06:25:30.000Z</time>
</trkpt>
<trkpt lat="46.0305820" lon="10.4757160">
	<ele>2414.20</ele>
	<time>2023-08-06T06:25:31.000Z</time>
</trkpt>
<trkpt lat="46.0305800" lon="10.4757270">
	<ele>2414.40</ele>
	<time>2023-08-06T06:25:32.000Z</time>
</trkpt>
<trkpt lat="46.0305750" lon="10.4757400">
	<ele>2414.40</ele>
	<time>2023-08-06T06:25:33.000Z</time>
</trkpt>
<trkpt lat="46.0305730" lon="10.4757520">
	<ele>2414.40</ele>
	<time>2023-08-06T06:25:34.000Z</time>
</trkpt>
<trkpt lat="46.0305720" lon="10.4757670">
	<ele>2414.40</ele>
	<time>2023-08-06T06:25:35.000Z</time>
</trkpt>
<trkpt lat="46.0305740" lon="10.4757840">
	<ele>2414.60</ele>
	<time>2023-08-06T06:25:36.000Z</time>
</trkpt>
<trkpt lat="46.0305750" lon="10.4757980">
	<ele>2414.60</ele>
	<time>2023-08-06T06:25:37.000Z</time>
</trkpt>
<trkpt lat="46.0305760" lon="10.4758100">
	<ele>2414.60</ele>
	<time>2023-08-06T06:25:38.000Z</time>
</trkpt>
<trkpt lat="46.0305780" lon="10.4758220">
	<ele>2414.80</ele>
	<time>2023-08-06T06:25:39.000Z</time>
</trkpt>
<trkpt lat="46.0305800" lon="10.4758340">
	<ele>2414.80</ele>
	<time>2023-08-06T06:25:40.000Z</time>
</trkpt>
<trkpt lat="46.0305820" lon="10.4758440">
	<ele>2414.80</ele>
	<time>2023-08-06T06:25:41.000Z</time>
</trkpt>
<trkpt lat="46.0305830" lon="10.4758560">
	<ele>2414.80</ele>
	<time>2023-08-06T06:25:42.000Z</time>
</trkpt>
<trkpt lat="46.0305870" lon="10.4758710">
	<ele>2414.80</ele>
	<time>2023-08-06T06:25:43.000Z</time>
</trkpt>
<trkpt lat="46.0305900" lon="10.4758790">
	<ele>2414.80</ele>
	<time>2023-08-06T06:25:44.000Z</time>
</trkpt>
<trkpt lat="46.0305940" lon="10.4758920">
	<ele>2414.80</ele>
	<time>2023-08-06T06:25:45.000Z</time>
</trkpt>
<trkpt lat="46.0306000" lon="10.4759050">
	<ele>2414.80</ele>
	<time>2023-08-06T06:25:46.000Z</time>
</trkpt>
<trkpt lat="46.0306040" lon="10.4759130">
	<ele>2414.80</ele>
	<time>2023-08-06T06:25:47.000Z</time>
</trkpt>
<trkpt lat="46.0306090" lon="10.4759240">
	<ele>2415.00</ele>
	<time>2023-08-06T06:25:48.000Z</time>
</trkpt>
<trkpt lat="46.0306100" lon="10.4759400">
	<ele>2415.20</ele>
	<time>2023-08-06T06:25:49.000Z</time>
</trkpt>
<trkpt lat="46.0306100" lon="10.4759520">
	<ele>2415.40</ele>
	<time>2023-08-06T06:25:50.000Z</time>
</trkpt>
<trkpt lat="46.0306120" lon="10.4759640">
	<ele>2415.40</ele>
	<time>2023-08-06T06:25:51.000Z</time>
</trkpt>
<trkpt lat="46.0306140" lon="10.4759800">
	<ele>2415.60</ele>
	<time>2023-08-06T06:25:52.000Z</time>
</trkpt>
<trkpt lat="46.0306160" lon="10.4759930">
	<ele>2415.60</ele>
	<time>2023-08-06T06:25:53.000Z</time>
</trkpt>
<trkpt lat="46.0306200" lon="10.4760040">
	<ele>2415.60</ele>
	<time>2023-08-06T06:25:54.000Z</time>
</trkpt>
<trkpt lat="46.0306240" lon="10.4760170">
	<ele>2415.80</ele>
	<time>2023-08-06T06:25:55.000Z</time>
</trkpt>
<trkpt lat="46.0306240" lon="10.4760300">
	<ele>2415.80</ele>
	<time>2023-08-06T06:25:56.000Z</time>
</trkpt>
<trkpt lat="46.0306220" lon="10.4760440">
	<ele>2415.80</ele>
	<time>2023-08-06T06:25:57.000Z</time>
</trkpt>
<trkpt lat="46.0306210" lon="10.4760580">
	<ele>2415.80</ele>
	<time>2023-08-06T06:25:58.000Z</time>
</trkpt>
<trkpt lat="46.0306200" lon="10.4760700">
	<ele>2415.80</ele>
	<time>2023-08-06T06:25:59.000Z</time>
</trkpt>
<trkpt lat="46.0306180" lon="10.4760850">
	<ele>2415.80</ele>
	<time>2023-08-06T06:26:00.000Z</time>
</trkpt>
<trkpt lat="46.0306180" lon="10.4760980">
	<ele>2415.80</ele>
	<time>2023-08-06T06:26:01.000Z</time>
</trkpt>
<trkpt lat="46.0306200" lon="10.4761120">
	<ele>2416.00</ele>
	<time>2023-08-06T06:26:02.000Z</time>
</trkpt>
<trkpt lat="46.0306230" lon="10.4761260">
	<ele>2416.00</ele>
	<time>2023-08-06T06:26:03.000Z</time>
</trkpt>
<trkpt lat="46.0306300" lon="10.4761400">
	<ele>2415.80</ele>
	<time>2023-08-06T06:26:04.000Z</time>
</trkpt>
<trkpt lat="46.0306340" lon="10.4761550">
	<ele>2415.80</ele>
	<time>2023-08-06T06:26:05.000Z</time>
</trkpt>
<trkpt lat="46.0306360" lon="10.4761690">
	<ele>2416.00</ele>
	<time>2023-08-06T06:26:06.000Z</time>
</trkpt>
<trkpt lat="46.0306410" lon="10.4761800">
	<ele>2416.00</ele>
	<time>2023-08-06T06:26:07.000Z</time>
</trkpt>
<trkpt lat="46.0306430" lon="10.4761910">
	<ele>2416.00</ele>
	<time>2023-08-06T06:26:08.000Z</time>
</trkpt>
<trkpt lat="46.0306460" lon="10.4762020">
	<ele>2416.00</ele>
	<time>2023-08-06T06:26:09.000Z</time>
</trkpt>
<trkpt lat="46.0306500" lon="10.4762100">
	<ele>2416.00</ele>
	<time>2023-08-06T06:26:10.000Z</time>
</trkpt>
<trkpt lat="46.0306550" lon="10.4762260">
	<ele>2416.00</ele>
	<time>2023-08-06T06:26:11.000Z</time>
</trkpt>
<trkpt lat="46.0306610" lon="10.4762410">
	<ele>2416.00</ele>
	<time>2023-08-06T06:26:12.000Z</time>
</trkpt>
<trkpt lat="46.0306640" lon="10.4762510">
	<ele>2416.00</ele>
	<time>2023-08-06T06:26:13.000Z</time>
</trkpt>
<trkpt lat="46.0306670" lon="10.4762630">
	<ele>2416.00</ele>
	<time>2023-08-06T06:26:14.000Z</time>
</trkpt>
<trkpt lat="46.0306720" lon="10.4762750">
	<ele>2416.00</ele>
	<time>2023-08-06T06:26:15.000Z</time>
</trkpt>
<trkpt lat="46.0306750" lon="10.4762870">
	<ele>2416.00</ele>
	<time>2023-08-06T06:26:16.000Z</time>
</trkpt>
<trkpt lat="46.0306790" lon="10.4763000">
	<ele>2416.00</ele>
	<time>2023-08-06T06:26:17.000Z</time>
</trkpt>
<trkpt lat="46.0306830" lon="10.4763130">
	<ele>2415.80</ele>
	<time>2023-08-06T06:26:18.000Z</time>
</trkpt>
<trkpt lat="46.0306900" lon="10.4763260">
	<ele>2415.80</ele>
	<time>2023-08-06T06:26:19.000Z</time>
</trkpt>
<trkpt lat="46.0306940" lon="10.4763350">
	<ele>2415.80</ele>
	<time>2023-08-06T06:26:20.000Z</time>
</trkpt>
<trkpt lat="46.0307010" lon="10.4763460">
	<ele>2415.80</ele>
	<time>2023-08-06T06:26:21.000Z</time>
</trkpt>
<trkpt lat="46.0307080" lon="10.4763560">
	<ele>2415.80</ele>
	<time>2023-08-06T06:26:22.000Z</time>
</trkpt>
<trkpt lat="46.0307170" lon="10.4763670">
	<ele>2415.80</ele>
	<time>2023-08-06T06:26:23.000Z</time>
</trkpt>
<trkpt lat="46.0307230" lon="10.4763790">
	<ele>2415.80</ele>
	<time>2023-08-06T06:26:24.000Z</time>
</trkpt>
<trkpt lat="46.0307310" lon="10.4763890">
	<ele>2415.80</ele>
	<time>2023-08-06T06:26:25.000Z</time>
</trkpt>
<trkpt lat="46.0307370" lon="10.4763940">
	<ele>2415.80</ele>
	<time>2023-08-06T06:26:26.000Z</time>
</trkpt>
<trkpt lat="46.0307460" lon="10.4763990">
	<ele>2415.80</ele>
	<time>2023-08-06T06:26:27.000Z</time>
</trkpt>
<trkpt lat="46.0307490" lon="10.4764020">
	<ele>2416.00</ele>
	<time>2023-08-06T06:26:28.000Z</time>
</trkpt>
<trkpt lat="46.0307510" lon="10.4764030">
	<ele>2416.20</ele>
	<time>2023-08-06T06:26:29.000Z</time>
</trkpt>
<trkpt lat="46.0307530" lon="10.4764030">
	<ele>2416.20</ele>
	<time>2023-08-06T06:26:30.000Z</time>
</trkpt>
<trkpt lat="46.0307540" lon="10.4764030">
	<ele>2416.20</ele>
	<time>2023-08-06T06:26:31.000Z</time>
</trkpt>
<trkpt lat="46.0307540" lon="10.4764040">
	<ele>2416.20</ele>
	<time>2023-08-06T06:26:32.000Z</time>
</trkpt>
<trkpt lat="46.0307540" lon="10.4764040">
	<ele>2416.20</ele>
	<time>2023-08-06T06:26:33.000Z</time>
</trkpt>
<trkpt lat="46.0307540" lon="10.4764040">
	<ele>2416.20</ele>
	<time>2023-08-06T06:26:34.000Z</time>
</trkpt>
<trkpt lat="46.0307550" lon="10.4764050">
	<ele>2416.20</ele>
	<time>2023-08-06T06:26:35.000Z</time>
</trkpt>
<trkpt lat="46.0307550" lon="10.4764050">
	<ele>2416.20</ele>
	<time>2023-08-06T06:26:36.000Z</time>
</trkpt>
<trkpt lat="46.0307540" lon="10.4764050">
	<ele>2416.20</ele>
	<time>2023-08-06T06:26:37.000Z</time>
</trkpt>
<trkpt lat="46.0307540" lon="10.4764050">
	<ele>2416.20</ele>
	<time>2023-08-06T06:26:38.000Z</time>
</trkpt>
<trkpt lat="46.0307540" lon="10.4764050">
	<ele>2416.20</ele>
	<time>2023-08-06T06:26:39.000Z</time>
</trkpt>
<trkpt lat="46.0307540" lon="10.4764050">
	<ele>2416.20</ele>
	<time>2023-08-06T06:26:40.000Z</time>
</trkpt>
<trkpt lat="46.0307540" lon="10.4764050">
	<ele>2416.20</ele>
	<time>2023-08-06T06:26:41.000Z</time>
</trkpt>
<trkpt lat="46.0307540" lon="10.4764050">
	<ele>2416.20</ele>
	<time>2023-08-06T06:26:42.000Z</time>
</trkpt>
<trkpt lat="46.0307540" lon="10.4764050">
	<ele>2416.20</ele>
	<time>2023-08-06T06:26:43.000Z</time>
</trkpt>
<trkpt lat="46.0307540" lon="10.4764050">
	<ele>2416.20</ele>
	<time>2023-08-06T06:26:44.000Z</time>
</trkpt>
<trkpt lat="46.0307540" lon="10.4764050">
	<ele>2416.20</ele>
	<time>2023-08-06T06:26:45.000Z</time>
</trkpt>
<trkpt lat="46.0307540" lon="10.4764050">
	<ele>2416.40</ele>
	<time>2023-08-06T06:26:46.000Z</time>
</trkpt>
<trkpt lat="46.0307540" lon="10.4764050">
	<ele>2416.40</ele>
	<time>2023-08-06T06:26:47.000Z</time>
</trkpt>
<trkpt lat="46.0307540" lon="10.4764050">
	<ele>2416.20</ele>
	<time>2023-08-06T06:26:48.000Z</time>
</trkpt>
<trkpt lat="46.0307540" lon="10.4764050">
	<ele>2416.20</ele>
	<time>2023-08-06T06:26:49.000Z</time>
</trkpt>
<trkpt lat="46.0307540" lon="10.4764050">
	<ele>2416.20</ele>
	<time>2023-08-06T06:26:50.000Z</time>
</trkpt>
<trkpt lat="46.0307540" lon="10.4764050">
	<ele>2416.00</ele>
	<time>2023-08-06T06:26:51.000Z</time>
</trkpt>
<trkpt lat="46.0307540" lon="10.4764050">
	<ele>2416.00</ele>
	<time>2023-08-06T06:26:52.000Z</time>
</trkpt>
<trkpt lat="46.0307540" lon="10.4764050">
	<ele>2416.00</ele>
	<time>2023-08-06T06:26:53.000Z</time>
</trkpt>
<trkpt lat="46.0307540" lon="10.4764050">
	<ele>2416.00</ele>
	<time>2023-08-06T06:26:54.000Z</time>
</trkpt>
<trkpt lat="46.0307530" lon="10.4764040">
	<ele>2416.00</ele>
	<time>2023-08-06T06:26:55.000Z</time>
</trkpt>
<trkpt lat="46.0307530" lon="10.4764040">
	<ele>2415.80</ele>
	<time>2023-08-06T06:26:56.000Z</time>
</trkpt>
<trkpt lat="46.0307530" lon="10.4764040">
	<ele>2415.80</ele>
	<time>2023-08-06T06:26:57.000Z</time>
</trkpt>
<trkpt lat="46.0307530" lon="10.4764040">
	<ele>2415.60</ele>
	<time>2023-08-06T06:26:58.000Z</time>
</trkpt>
<trkpt lat="46.0307530" lon="10.4764040">
	<ele>2415.60</ele>
	<time>2023-08-06T06:26:59.000Z</time>
</trkpt>
<trkpt lat="46.0307530" lon="10.4764040">
	<ele>2415.60</ele>
	<time>2023-08-06T06:27:00.000Z</time>
</trkpt>
<trkpt lat="46.0307520" lon="10.4764040">
	<ele>2415.60</ele>
	<time>2023-08-06T06:27:01.000Z</time>
</trkpt>
<trkpt lat="46.0307510" lon="10.4764040">
	<ele>2415.60</ele>
	<time>2023-08-06T06:27:02.000Z</time>
</trkpt>
<trkpt lat="46.0307500" lon="10.4764040">
	<ele>2415.60</ele>
	<time>2023-08-06T06:27:03.000Z</time>
</trkpt>
<trkpt lat="46.0307490" lon="10.4764040">
	<ele>2415.60</ele>
	<time>2023-08-06T06:27:04.000Z</time>
</trkpt>
<trkpt lat="46.0307470" lon="10.4764040">
	<ele>2415.40</ele>
	<time>2023-08-06T06:27:05.000Z</time>
</trkpt>
<trkpt lat="46.0307460" lon="10.4764040">
	<ele>2415.60</ele>
	<time>2023-08-06T06:27:06.000Z</time>
</trkpt>
<trkpt lat="46.0307450" lon="10.4764040">
	<ele>2415.60</ele>
	<time>2023-08-06T06:27:07.000Z</time>
</trkpt>
<trkpt lat="46.0307440" lon="10.4764040">
	<ele>2415.60</ele>
	<time>2023-08-06T06:27:08.000Z</time>
</trkpt>
<trkpt lat="46.0307440" lon="10.4764040">
	<ele>2415.60</ele>
	<time>2023-08-06T06:27:09.000Z</time>
</trkpt>
<trkpt lat="46.0307430" lon="10.4764000">
	<ele>2415.60</ele>
	<time>2023-08-06T06:27:10.000Z</time>
</trkpt>
<trkpt lat="46.0307420" lon="10.4764000">
	<ele>2415.60</ele>
	<time>2023-08-06T06:27:11.000Z</time>
</trkpt>
<trkpt lat="46.0307420" lon="10.4763970">
	<ele>2415.80</ele>
	<time>2023-08-06T06:27:12.000Z</time>
</trkpt>
<trkpt lat="46.0307420" lon="10.4763970">
	<ele>2415.80</ele>
	<time>2023-08-06T06:27:13.000Z</time>
</trkpt>
<trkpt lat="46.0307420" lon="10.4763970">
	<ele>2415.80</ele>
	<time>2023-08-06T06:27:14.000Z</time>
</trkpt>
<trkpt lat="46.0307410" lon="10.4763970">
	<ele>2416.00</ele>
	<time>2023-08-06T06:27:15.000Z</time>
</trkpt>
<trkpt lat="46.0307410" lon="10.4763960">
	<ele>2416.00</ele>
	<time>2023-08-06T06:27:16.000Z</time>
</trkpt>
<trkpt lat="46.0307410" lon="10.4763960">
	<ele>2416.00</ele>
	<time>2023-08-06T06:27:17.000Z</time>
</trkpt>
<trkpt lat="46.0307410" lon="10.4763960">
	<ele>2416.00</ele>
	<time>2023-08-06T06:27:18.000Z</time>
</trkpt>
<trkpt lat="46.0307400" lon="10.4763960">
	<ele>2416.00</ele>
	<time>2023-08-06T06:27:19.000Z</time>
</trkpt>
<trkpt lat="46.0307400" lon="10.4763950">
	<ele>2416.00</ele>
	<time>2023-08-06T06:27:20.000Z</time>
</trkpt>
<trkpt lat="46.0307400" lon="10.4763950">
	<ele>2416.00</ele>
	<time>2023-08-06T06:27:21.000Z</time>
</trkpt>
<trkpt lat="46.0307400" lon="10.4763950">
	<ele>2416.00</ele>
	<time>2023-08-06T06:27:22.000Z</time>
</trkpt>
<trkpt lat="46.0307390" lon="10.4763900">
	<ele>2416.00</ele>
	<time>2023-08-06T06:27:23.000Z</time>
</trkpt>
<trkpt lat="46.0307390" lon="10.4763820">
	<ele>2416.00</ele>
	<time>2023-08-06T06:27:24.000Z</time>
</trkpt>
<trkpt lat="46.0307380" lon="10.4763810">
	<ele>2416.00</ele>
	<time>2023-08-06T06:27:25.000Z</time>
</trkpt>
<trkpt lat="46.0307380" lon="10.4763800">
	<ele>2415.80</ele>
	<time>2023-08-06T06:27:26.000Z</time>
</trkpt>
<trkpt lat="46.0307380" lon="10.4763800">
	<ele>2415.80</ele>
	<time>2023-08-06T06:27:27.000Z</time>
</trkpt>
<trkpt lat="46.0307380" lon="10.4763800">
	<ele>2415.80</ele>
	<time>2023-08-06T06:27:28.000Z</time>
</trkpt>
<trkpt lat="46.0307380" lon="10.4763800">
	<ele>2415.80</ele>
	<time>2023-08-06T06:27:29.000Z</time>
</trkpt>
<trkpt lat="46.0307380" lon="10.4763800">
	<ele>2415.60</ele>
	<time>2023-08-06T06:27:30.000Z</time>
</trkpt>
<trkpt lat="46.0307380" lon="10.4763800">
	<ele>2415.60</ele>
	<time>2023-08-06T06:27:31.000Z</time>
</trkpt>
<trkpt lat="46.0307380" lon="10.4763800">
	<ele>2415.60</ele>
	<time>2023-08-06T06:27:32.000Z</time>
</trkpt>
<trkpt lat="46.0307380" lon="10.4763800">
	<ele>2415.60</ele>
	<time>2023-08-06T06:27:33.000Z</time>
</trkpt>
<trkpt lat="46.0307380" lon="10.4763800">
	<ele>2415.60</ele>
	<time>2023-08-06T06:27:34.000Z</time>
</trkpt>
<trkpt lat="46.0307380" lon="10.4763800">
	<ele>2415.60</ele>
	<time>2023-08-06T06:27:35.000Z</time>
</trkpt>
<trkpt lat="46.0307380" lon="10.4763800">
	<ele>2415.40</ele>
	<time>2023-08-06T06:27:36.000Z</time>
</trkpt>
<trkpt lat="46.0307380" lon="10.4763800">
	<ele>2415.40</ele>
	<time>2023-08-06T06:27:37.000Z</time>
</trkpt>
<trkpt lat="46.0307380" lon="10.4763800">
	<ele>2415.20</ele>
	<time>2023-08-06T06:27:38.000Z</time>
</trkpt>
<trkpt lat="46.0307370" lon="10.4763820">
	<ele>2415.20</ele>
	<time>2023-08-06T06:27:39.000Z</time>
</trkpt>
<trkpt lat="46.0307370" lon="10.4763820">
	<ele>2415.20</ele>
	<time>2023-08-06T06:27:40.000Z</time>
</trkpt>
<trkpt lat="46.0307360" lon="10.4763870">
	<ele>2415.20</ele>
	<time>2023-08-06T06:27:41.000Z</time>
</trkpt>
<trkpt lat="46.0307390" lon="10.4764060">
	<ele>2415.00</ele>
	<time>2023-08-06T06:27:42.000Z</time>
</trkpt>
<trkpt lat="46.0307430" lon="10.4764250">
	<ele>2415.00</ele>
	<time>2023-08-06T06:27:43.000Z</time>
</trkpt>
<trkpt lat="46.0307460" lon="10.4764400">
	<ele>2415.00</ele>
	<time>2023-08-06T06:27:44.000Z</time>
</trkpt>
<trkpt lat="46.0307490" lon="10.4764630">
	<ele>2415.00</ele>
	<time>2023-08-06T06:27:45.000Z</time>
</trkpt>
<trkpt lat="46.0307530" lon="10.4764790">
	<ele>2414.80</ele>
	<time>2023-08-06T06:27:46.000Z</time>
</trkpt>
<trkpt lat="46.0307620" lon="10.4764980">
	<ele>2414.80</ele>
	<time>2023-08-06T06:27:47.000Z</time>
</trkpt>
<trkpt lat="46.0307660" lon="10.4765120">
	<ele>2414.80</ele>
	<time>2023-08-06T06:27:48.000Z</time>
</trkpt>
<trkpt lat="46.0307700" lon="10.4765290">
	<ele>2414.80</ele>
	<time>2023-08-06T06:27:49.000Z</time>
</trkpt>
<trkpt lat="46.0307740" lon="10.4765400">
	<ele>2414.80</ele>
	<time>2023-08-06T06:27:50.000Z</time>
</trkpt>
<trkpt lat="46.0307820" lon="10.4765490">
	<ele>2414.80</ele>
	<time>2023-08-06T06:27:51.000Z</time>
</trkpt>
<trkpt lat="46.0307880" lon="10.4765550">
	<ele>2414.60</ele>
	<time>2023-08-06T06:27:52.000Z</time>
</trkpt>
<trkpt lat="46.0307950" lon="10.4765650">
	<ele>2414.60</ele>
	<time>2023-08-06T06:27:53.000Z</time>
</trkpt>
<trkpt lat="46.0308020" lon="10.4765740">
	<ele>2414.60</ele>
	<time>2023-08-06T06:27:54.000Z</time>
</trkpt>
<trkpt lat="46.0308080" lon="10.4765840">
	<ele>2414.40</ele>
	<time>2023-08-06T06:27:55.000Z</time>
</trkpt>
<trkpt lat="46.0308100" lon="10.4765940">
	<ele>2414.40</ele>
	<time>2023-08-06T06:27:56.000Z</time>
</trkpt>
<trkpt lat="46.0308130" lon="10.4766000">
	<ele>2414.20</ele>
	<time>2023-08-06T06:27:57.000Z</time>
</trkpt>
<trkpt lat="46.0308210" lon="10.4766030">
	<ele>2414.00</ele>
	<time>2023-08-06T06:27:58.000Z</time>
</trkpt>
<trkpt lat="46.0308320" lon="10.4766060">
	<ele>2414.00</ele>
	<time>2023-08-06T06:27:59.000Z</time>
</trkpt>
<trkpt lat="46.0308400" lon="10.4766070">
	<ele>2414.00</ele>
	<time>2023-08-06T06:28:00.000Z</time>
</trkpt>
<trkpt lat="46.0308500" lon="10.4766060">
	<ele>2413.80</ele>
	<time>2023-08-06T06:28:01.000Z</time>
</trkpt>
<trkpt lat="46.0308570" lon="10.4766050">
	<ele>2413.80</ele>
	<time>2023-08-06T06:28:02.000Z</time>
</trkpt>
<trkpt lat="46.0308660" lon="10.4766110">
	<ele>2413.80</ele>
	<time>2023-08-06T06:28:03.000Z</time>
</trkpt>
<trkpt lat="46.0308740" lon="10.4766200">
	<ele>2413.60</ele>
	<time>2023-08-06T06:28:04.000Z</time>
</trkpt>
<trkpt lat="46.0308800" lon="10.4766280">
	<ele>2413.60</ele>
	<time>2023-08-06T06:28:05.000Z</time>
</trkpt>
<trkpt lat="46.0308860" lon="10.4766390">
	<ele>2413.40</ele>
	<time>2023-08-06T06:28:06.000Z</time>
</trkpt>
<trkpt lat="46.0308900" lon="10.4766450">
	<ele>2413.40</ele>
	<time>2023-08-06T06:28:07.000Z</time>
</trkpt>
<trkpt lat="46.0308940" lon="10.4766530">
	<ele>2413.40</ele>
	<time>2023-08-06T06:28:08.000Z</time>
</trkpt>
<trkpt lat="46.0308940" lon="10.4766610">
	<ele>2413.20</ele>
	<time>2023-08-06T06:28:09.000Z</time>
</trkpt>
<trkpt lat="46.0308910" lon="10.4766700">
	<ele>2413.20</ele>
	<time>2023-08-06T06:28:10.000Z</time>
</trkpt>
<trkpt lat="46.0308910" lon="10.4766770">
	<ele>2413.20</ele>
	<time>2023-08-06T06:28:11.000Z</time>
</trkpt>
<trkpt lat="46.0308920" lon="10.4766850">
	<ele>2413.20</ele>
	<time>2023-08-06T06:28:12.000Z</time>
</trkpt>
<trkpt lat="46.0308980" lon="10.4766930">
	<ele>2413.20</ele>
	<time>2023-08-06T06:28:13.000Z</time>
</trkpt>
<trkpt lat="46.0309030" lon="10.4767060">
	<ele>2413.20</ele>
	<time>2023-08-06T06:28:14.000Z</time>
</trkpt>
<trkpt lat="46.0309070" lon="10.4767200">
	<ele>2413.20</ele>
	<time>2023-08-06T06:28:15.000Z</time>
</trkpt>
<trkpt lat="46.0309090" lon="10.4767340">
	<ele>2413.20</ele>
	<time>2023-08-06T06:28:16.000Z</time>
</trkpt>
<trkpt lat="46.0309110" lon="10.4767470">
	<ele>2413.20</ele>
	<time>2023-08-06T06:28:17.000Z</time>
</trkpt>
<trkpt lat="46.0309130" lon="10.4767590">
	<ele>2413.20</ele>
	<time>2023-08-06T06:28:18.000Z</time>
</trkpt>
<trkpt lat="46.0309120" lon="10.4767670">
	<ele>2413.20</ele>
	<time>2023-08-06T06:28:19.000Z</time>
</trkpt>
<trkpt lat="46.0309130" lon="10.4767700">
	<ele>2413.00</ele>
	<time>2023-08-06T06:28:20.000Z</time>
</trkpt>
<trkpt lat="46.0309180" lon="10.4767740">
	<ele>2413.00</ele>
	<time>2023-08-06T06:28:21.000Z</time>
</trkpt>
<trkpt lat="46.0309220" lon="10.4767760">
	<ele>2413.00</ele>
	<time>2023-08-06T06:28:22.000Z</time>
</trkpt>
<trkpt lat="46.0309300" lon="10.4767810">
	<ele>2413.00</ele>
	<time>2023-08-06T06:28:23.000Z</time>
</trkpt>
<trkpt lat="46.0309410" lon="10.4767870">
	<ele>2413.00</ele>
	<time>2023-08-06T06:28:24.000Z</time>
</trkpt>
<trkpt lat="46.0309510" lon="10.4767880">
	<ele>2413.00</ele>
	<time>2023-08-06T06:28:25.000Z</time>
</trkpt>
<trkpt lat="46.0309600" lon="10.4767900">
	<ele>2413.00</ele>
	<time>2023-08-06T06:28:26.000Z</time>
</trkpt>
<trkpt lat="46.0309660" lon="10.4767970">
	<ele>2413.20</ele>
	<time>2023-08-06T06:28:27.000Z</time>
</trkpt>
<trkpt lat="46.0309740" lon="10.4768020">
	<ele>2413.20</ele>
	<time>2023-08-06T06:28:28.000Z</time>
</trkpt>
<trkpt lat="46.0309840" lon="10.4768110">
	<ele>2413.40</ele>
	<time>2023-08-06T06:28:29.000Z</time>
</trkpt>
<trkpt lat="46.0309920" lon="10.4768170">
	<ele>2413.60</ele>
	<time>2023-08-06T06:28:30.000Z</time>
</trkpt>
<trkpt lat="46.0309980" lon="10.4768270">
	<ele>2413.60</ele>
	<time>2023-08-06T06:28:31.000Z</time>
</trkpt>
<trkpt lat="46.0310030" lon="10.4768390">
	<ele>2413.80</ele>
	<time>2023-08-06T06:28:32.000Z</time>
</trkpt>
<trkpt lat="46.0310110" lon="10.4768480">
	<ele>2413.80</ele>
	<time>2023-08-06T06:28:33.000Z</time>
</trkpt>
<trkpt lat="46.0310180" lon="10.4768570">
	<ele>2414.00</ele>
	<time>2023-08-06T06:28:34.000Z</time>
</trkpt>
<trkpt lat="46.0310250" lon="10.4768690">
	<ele>2414.00</ele>
	<time>2023-08-06T06:28:35.000Z</time>
</trkpt>
<trkpt lat="46.0310310" lon="10.4768780">
	<ele>2414.20</ele>
	<time>2023-08-06T06:28:36.000Z</time>
</trkpt>
<trkpt lat="46.0310370" lon="10.4768910">
	<ele>2414.20</ele>
	<time>2023-08-06T06:28:37.000Z</time>
</trkpt>
<trkpt lat="46.0310400" lon="10.4769040">
	<ele>2414.20</ele>
	<time>2023-08-06T06:28:38.000Z</time>
</trkpt>
<trkpt lat="46.0310430" lon="10.4769130">
	<ele>2414.20</ele>
	<time>2023-08-06T06:28:39.000Z</time>
</trkpt>
<trkpt lat="46.0310460" lon="10.4769210">
	<ele>2414.20</ele>
	<time>2023-08-06T06:28:40.000Z</time>
</trkpt>
<trkpt lat="46.0310500" lon="10.4769270">
	<ele>2414.40</ele>
	<time>2023-08-06T06:28:41.000Z</time>
</trkpt>
<trkpt lat="46.0310540" lon="10.4769380">
	<ele>2414.40</ele>
	<time>2023-08-06T06:28:42.000Z</time>
</trkpt>
<trkpt lat="46.0310590" lon="10.4769470">
	<ele>2414.60</ele>
	<time>2023-08-06T06:28:43.000Z</time>
</trkpt>
<trkpt lat="46.0310620" lon="10.4769520">
	<ele>2414.80</ele>
	<time>2023-08-06T06:28:44.000Z</time>
</trkpt>
<trkpt lat="46.0310700" lon="10.4769560">
	<ele>2414.80</ele>
	<time>2023-08-06T06:28:45.000Z</time>
</trkpt>
<trkpt lat="46.0310770" lon="10.4769640">
	<ele>2415.00</ele>
	<time>2023-08-06T06:28:46.000Z</time>
</trkpt>
<trkpt lat="46.0310830" lon="10.4769740">
	<ele>2415.00</ele>
	<time>2023-08-06T06:28:47.000Z</time>
</trkpt>
<trkpt lat="46.0310870" lon="10.4769790">
	<ele>2415.20</ele>
	<time>2023-08-06T06:28:48.000Z</time>
</trkpt>
<trkpt lat="46.0310940" lon="10.4769860">
	<ele>2415.20</ele>
	<time>2023-08-06T06:28:49.000Z</time>
</trkpt>
<trkpt lat="46.0311000" lon="10.4769960">
	<ele>2415.20</ele>
	<time>2023-08-06T06:28:50.000Z</time>
</trkpt>
<trkpt lat="46.0311060" lon="10.4770030">
	<ele>2415.40</ele>
	<time>2023-08-06T06:28:51.000Z</time>
</trkpt>
<trkpt lat="46.0311090" lon="10.4770090">
	<ele>2415.60</ele>
	<time>2023-08-06T06:28:52.000Z</time>
</trkpt>
<trkpt lat="46.0311140" lon="10.4770120">
	<ele>2415.60</ele>
	<time>2023-08-06T06:28:53.000Z</time>
</trkpt>
<trkpt lat="46.0311230" lon="10.4770150">
	<ele>2415.80</ele>
	<time>2023-08-06T06:28:54.000Z</time>
</trkpt>
<trkpt lat="46.0311310" lon="10.4770190">
	<ele>2416.00</ele>
	<time>2023-08-06T06:28:55.000Z</time>
</trkpt>
<trkpt lat="46.0311380" lon="10.4770230">
	<ele>2416.00</ele>
	<time>2023-08-06T06:28:56.000Z</time>
</trkpt>
<trkpt lat="46.0311430" lon="10.4770290">
	<ele>2416.00</ele>
	<time>2023-08-06T06:28:57.000Z</time>
</trkpt>
<trkpt lat="46.0311500" lon="10.4770370">
	<ele>2416.00</ele>
	<time>2023-08-06T06:28:58.000Z</time>
</trkpt>
<trkpt lat="46.0311600" lon="10.4770420">
	<ele>2416.00</ele>
	<time>2023-08-06T06:28:59.000Z</time>
</trkpt>
<trkpt lat="46.0311680" lon="10.4770470">
	<ele>2416.00</ele>
	<time>2023-08-06T06:29:00.000Z</time>
</trkpt>
<trkpt lat="46.0311730" lon="10.4770510">
	<ele>2416.00</ele>
	<time>2023-08-06T06:29:01.000Z</time>
</trkpt>
<trkpt lat="46.0311810" lon="10.4770580">
	<ele>2415.80</ele>
	<time>2023-08-06T06:29:02.000Z</time>
</trkpt>
<trkpt lat="46.0311900" lon="10.4770670">
	<ele>2415.80</ele>
	<time>2023-08-06T06:29:03.000Z</time>
</trkpt>
<trkpt lat="46.0311970" lon="10.4770740">
	<ele>2415.80</ele>
	<time>2023-08-06T06:29:04.000Z</time>
</trkpt>
<trkpt lat="46.0312020" lon="10.4770750">
	<ele>2415.60</ele>
	<time>2023-08-06T06:29:05.000Z</time>
</trkpt>
<trkpt lat="46.0312080" lon="10.4770820">
	<ele>2415.60</ele>
	<time>2023-08-06T06:29:06.000Z</time>
</trkpt>
<trkpt lat="46.0312180" lon="10.4770890">
	<ele>2415.60</ele>
	<time>2023-08-06T06:29:07.000Z</time>
</trkpt>
<trkpt lat="46.0312260" lon="10.4770890">
	<ele>2415.40</ele>
	<time>2023-08-06T06:29:08.000Z</time>
</trkpt>
<trkpt lat="46.0312330" lon="10.4770880">
	<ele>2415.40</ele>
	<time>2023-08-06T06:29:09.000Z</time>
</trkpt>
<trkpt lat="46.0312410" lon="10.4770890">
	<ele>2415.20</ele>
	<time>2023-08-06T06:29:10.000Z</time>
</trkpt>
<trkpt lat="46.0312540" lon="10.4770940">
	<ele>2415.20</ele>
	<time>2023-08-06T06:29:11.000Z</time>
</trkpt>
<trkpt lat="46.0312650" lon="10.4771010">
	<ele>2415.20</ele>
	<time>2023-08-06T06:29:12.000Z</time>
</trkpt>
<trkpt lat="46.0312720" lon="10.4771060">
	<ele>2415.00</ele>
	<time>2023-08-06T06:29:13.000Z</time>
</trkpt>
<trkpt lat="46.0312780" lon="10.4771120">
	<ele>2414.80</ele>
	<time>2023-08-06T06:29:14.000Z</time>
</trkpt>
<trkpt lat="46.0312840" lon="10.4771210">
	<ele>2414.80</ele>
	<time>2023-08-06T06:29:15.000Z</time>
</trkpt>
<trkpt lat="46.0312930" lon="10.4771360">
	<ele>2414.80</ele>
	<time>2023-08-06T06:29:16.000Z</time>
</trkpt>
<trkpt lat="46.0313030" lon="10.4771480">
	<ele>2414.60</ele>
	<time>2023-08-06T06:29:17.000Z</time>
</trkpt>
<trkpt lat="46.0313100" lon="10.4771580">
	<ele>2414.60</ele>
	<time>2023-08-06T06:29:18.000Z</time>
</trkpt>
<trkpt lat="46.0313180" lon="10.4771720">
	<ele>2414.60</ele>
	<time>2023-08-06T06:29:19.000Z</time>
</trkpt>
<trkpt lat="46.0313240" lon="10.4771870">
	<ele>2414.40</ele>
	<time>2023-08-06T06:29:20.000Z</time>
</trkpt>
<trkpt lat="46.0313280" lon="10.4771990">
	<ele>2414.40</ele>
	<time>2023-08-06T06:29:21.000Z</time>
</trkpt>
<trkpt lat="46.0313290" lon="10.4772090">
	<ele>2414.40</ele>
	<time>2023-08-06T06:29:22.000Z</time>
</trkpt>
<trkpt lat="46.0313280" lon="10.4772250">
	<ele>2414.40</ele>
	<time>2023-08-06T06:29:23.000Z</time>
</trkpt>
<trkpt lat="46.0313280" lon="10.4772430">
	<ele>2414.40</ele>
	<time>2023-08-06T06:29:24.000Z</time>
</trkpt>
<trkpt lat="46.0313310" lon="10.4772570">
	<ele>2414.40</ele>
	<time>2023-08-06T06:29:25.000Z</time>
</trkpt>
<trkpt lat="46.0313340" lon="10.4772700">
	<ele>2414.40</ele>
	<time>2023-08-06T06:29:26.000Z</time>
</trkpt>
<trkpt lat="46.0313360" lon="10.4772800">
	<ele>2414.40</ele>
	<time>2023-08-06T06:29:27.000Z</time>
</trkpt>
<trkpt lat="46.0313390" lon="10.4772860">
	<ele>2414.60</ele>
	<time>2023-08-06T06:29:28.000Z</time>
</trkpt>
<trkpt lat="46.0313400" lon="10.4772890">
	<ele>2414.60</ele>
	<time>2023-08-06T06:29:29.000Z</time>
</trkpt>
<trkpt lat="46.0313410" lon="10.4772910">
	<ele>2414.60</ele>
	<time>2023-08-06T06:29:30.000Z</time>
</trkpt>
<trkpt lat="46.0313410" lon="10.4772920">
	<ele>2414.60</ele>
	<time>2023-08-06T06:29:31.000Z</time>
</trkpt>
<trkpt lat="46.0313430" lon="10.4772990">
	<ele>2414.60</ele>
	<time>2023-08-06T06:29:32.000Z</time>
</trkpt>
<trkpt lat="46.0313460" lon="10.4773080">
	<ele>2414.60</ele>
	<time>2023-08-06T06:29:33.000Z</time>
</trkpt>
<trkpt lat="46.0313460" lon="10.4773180">
	<ele>2414.60</ele>
	<time>2023-08-06T06:29:34.000Z</time>
</trkpt>
<trkpt lat="46.0313460" lon="10.4773310">
	<ele>2414.60</ele>
	<time>2023-08-06T06:29:35.000Z</time>
</trkpt>
<trkpt lat="46.0313460" lon="10.4773450">
	<ele>2414.60</ele>
	<time>2023-08-06T06:29:36.000Z</time>
</trkpt>
<trkpt lat="46.0313470" lon="10.4773600">
	<ele>2414.60</ele>
	<time>2023-08-06T06:29:37.000Z</time>
</trkpt>
<trkpt lat="46.0313460" lon="10.4773710">
	<ele>2414.60</ele>
	<time>2023-08-06T06:29:38.000Z</time>
</trkpt>
<trkpt lat="46.0313450" lon="10.4773770">
	<ele>2414.80</ele>
	<time>2023-08-06T06:29:39.000Z</time>
</trkpt>
<trkpt lat="46.0313460" lon="10.4773890">
	<ele>2414.80</ele>
	<time>2023-08-06T06:29:40.000Z</time>
</trkpt>
<trkpt lat="46.0313460" lon="10.4773990">
	<ele>2415.00</ele>
	<time>2023-08-06T06:29:41.000Z</time>
</trkpt>
<trkpt lat="46.0313460" lon="10.4774090">
	<ele>2415.00</ele>
	<time>2023-08-06T06:29:42.000Z</time>
</trkpt>
<trkpt lat="46.0313480" lon="10.4774180">
	<ele>2415.20</ele>
	<time>2023-08-06T06:29:43.000Z</time>
</trkpt>
<trkpt lat="46.0313500" lon="10.4774270">
	<ele>2415.40</ele>
	<time>2023-08-06T06:29:44.000Z</time>
</trkpt>
<trkpt lat="46.0313510" lon="10.4774380">
	<ele>2415.40</ele>
	<time>2023-08-06T06:29:45.000Z</time>
</trkpt>
<trkpt lat="46.0313530" lon="10.4774500">
	<ele>2415.60</ele>
	<time>2023-08-06T06:29:46.000Z</time>
</trkpt>
<trkpt lat="46.0313540" lon="10.4774600">
	<ele>2415.60</ele>
	<time>2023-08-06T06:29:47.000Z</time>
</trkpt>
<trkpt lat="46.0313510" lon="10.4774700">
	<ele>2415.80</ele>
	<time>2023-08-06T06:29:48.000Z</time>
</trkpt>
<trkpt lat="46.0313480" lon="10.4774770">
	<ele>2415.80</ele>
	<time>2023-08-06T06:29:49.000Z</time>
</trkpt>
<trkpt lat="46.0313430" lon="10.4774780">
	<ele>2416.00</ele>
	<time>2023-08-06T06:29:50.000Z</time>
</trkpt>
<trkpt lat="46.0313380" lon="10.4774830">
	<ele>2416.00</ele>
	<time>2023-08-06T06:29:51.000Z</time>
</trkpt>
<trkpt lat="46.0313310" lon="10.4774870">
	<ele>2416.20</ele>
	<time>2023-08-06T06:29:52.000Z</time>
</trkpt>
<trkpt lat="46.0313220" lon="10.4774860">
	<ele>2416.40</ele>
	<time>2023-08-06T06:29:53.000Z</time>
</trkpt>
<trkpt lat="46.0313170" lon="10.4774860">
	<ele>2416.60</ele>
	<time>2023-08-06T06:29:54.000Z</time>
</trkpt>
<trkpt lat="46.0313100" lon="10.4774860">
	<ele>2416.60</ele>
	<time>2023-08-06T06:29:55.000Z</time>
</trkpt>
<trkpt lat="46.0313010" lon="10.4774870">
	<ele>2416.80</ele>
	<time>2023-08-06T06:29:56.000Z</time>
</trkpt>
<trkpt lat="46.0312940" lon="10.4774910">
	<ele>2416.80</ele>
	<time>2023-08-06T06:29:57.000Z</time>
</trkpt>
<trkpt lat="46.0312890" lon="10.4774960">
	<ele>2417.00</ele>
	<time>2023-08-06T06:29:58.000Z</time>
</trkpt>
<trkpt lat="46.0312860" lon="10.4775040">
	<ele>2417.00</ele>
	<time>2023-08-06T06:29:59.000Z</time>
</trkpt>
<trkpt lat="46.0312800" lon="10.4775060">
	<ele>2417.00</ele>
	<time>2023-08-06T06:30:00.000Z</time>
</trkpt>
<trkpt lat="46.0312730" lon="10.4775090">
	<ele>2417.20</ele>
	<time>2023-08-06T06:30:01.000Z</time>
</trkpt>
<trkpt lat="46.0312680" lon="10.4775090">
	<ele>2417.40</ele>
	<time>2023-08-06T06:30:02.000Z</time>
</trkpt>
<trkpt lat="46.0312650" lon="10.4775130">
	<ele>2417.40</ele>
	<time>2023-08-06T06:30:03.000Z</time>
</trkpt>
<trkpt lat="46.0312590" lon="10.4775180">
	<ele>2417.60</ele>
	<time>2023-08-06T06:30:04.000Z</time>
</trkpt>
<trkpt lat="46.0312520" lon="10.4775230">
	<ele>2417.60</ele>
	<time>2023-08-06T06:30:05.000Z</time>
</trkpt>
<trkpt lat="46.0312460" lon="10.4775280">
	<ele>2417.80</ele>
	<time>2023-08-06T06:30:06.000Z</time>
</trkpt>
<trkpt lat="46.0312440" lon="10.4775360">
	<ele>2418.00</ele>
	<time>2023-08-06T06:30:07.000Z</time>
</trkpt>
<trkpt lat="46.0312400" lon="10.4775450">
	<ele>2418.20</ele>
	<time>2023-08-06T06:30:08.000Z</time>
</trkpt>
<trkpt lat="46.0312350" lon="10.4775540">
	<ele>2418.20</ele>
	<time>2023-08-06T06:30:09.000Z</time>
</trkpt>
<trkpt lat="46.0312270" lon="10.4775620">
	<ele>2418.20</ele>
	<time>2023-08-06T06:30:10.000Z</time>
</trkpt>
<trkpt lat="46.0312180" lon="10.4775630">
	<ele>2418.40</ele>
	<time>2023-08-06T06:30:11.000Z</time>
</trkpt>
<trkpt lat="46.0312110" lon="10.4775650">
	<ele>2418.40</ele>
	<time>2023-08-06T06:30:12.000Z</time>
</trkpt>
<trkpt lat="46.0312080" lon="10.4775650">
	<ele>2418.60</ele>
	<time>2023-08-06T06:30:13.000Z</time>
</trkpt>
<trkpt lat="46.0312010" lon="10.4775640">
	<ele>2418.80</ele>
	<time>2023-08-06T06:30:14.000Z</time>
</trkpt>
<trkpt lat="46.0311930" lon="10.4775640">
	<ele>2419.00</ele>
	<time>2023-08-06T06:30:15.000Z</time>
</trkpt>
<trkpt lat="46.0311900" lon="10.4775630">
	<ele>2419.20</ele>
	<time>2023-08-06T06:30:16.000Z</time>
</trkpt>
<trkpt lat="46.0311880" lon="10.4775630">
	<ele>2419.20</ele>
	<time>2023-08-06T06:30:17.000Z</time>
</trkpt>
<trkpt lat="46.0311860" lon="10.4775670">
	<ele>2419.40</ele>
	<time>2023-08-06T06:30:18.000Z</time>
</trkpt>
<trkpt lat="46.0311800" lon="10.4775740">
	<ele>2419.60</ele>
	<time>2023-08-06T06:30:19.000Z</time>
</trkpt>
<trkpt lat="46.0311770" lon="10.4775800">
	<ele>2419.80</ele>
	<time>2023-08-06T06:30:20.000Z</time>
</trkpt>
<trkpt lat="46.0311750" lon="10.4775880">
	<ele>2419.80</ele>
	<time>2023-08-06T06:30:21.000Z</time>
</trkpt>
<trkpt lat="46.0311740" lon="10.4775940">
	<ele>2420.00</ele>
	<time>2023-08-06T06:30:22.000Z</time>
</trkpt>
<trkpt lat="46.0311740" lon="10.4776000">
	<ele>2420.00</ele>
	<time>2023-08-06T06:30:23.000Z</time>
</trkpt>
<trkpt lat="46.0311700" lon="10.4776070">
	<ele>2420.00</ele>
	<time>2023-08-06T06:30:24.000Z</time>
</trkpt>
<trkpt lat="46.0311630" lon="10.4776140">
	<ele>2420.20</ele>
	<time>2023-08-06T06:30:25.000Z</time>
</trkpt>
<trkpt lat="46.0311610" lon="10.4776190">
	<ele>2420.20</ele>
	<time>2023-08-06T06:30:26.000Z</time>
</trkpt>
<trkpt lat="46.0311580" lon="10.4776280">
	<ele>2420.40</ele>
	<time>2023-08-06T06:30:27.000Z</time>
</trkpt>
<trkpt lat="46.0311530" lon="10.4776360">
	<ele>2420.40</ele>
	<time>2023-08-06T06:30:28.000Z</time>
</trkpt>
<trkpt lat="46.0311490" lon="10.4776380">
	<ele>2420.60</ele>
	<time>2023-08-06T06:30:29.000Z</time>
</trkpt>
<trkpt lat="46.0311450" lon="10.4776380">
	<ele>2420.60</ele>
	<time>2023-08-06T06:30:30.000Z</time>
</trkpt>
<trkpt lat="46.0311410" lon="10.4776380">
	<ele>2420.80</ele>
	<time>2023-08-06T06:30:31.000Z</time>
</trkpt>
<trkpt lat="46.0311390" lon="10.4776430">
	<ele>2420.80</ele>
	<time>2023-08-06T06:30:32.000Z</time>
</trkpt>
<trkpt lat="46.0311370" lon="10.4776530">
	<ele>2420.80</ele>
	<time>2023-08-06T06:30:33.000Z</time>
</trkpt>
<trkpt lat="46.0311370" lon="10.4776610">
	<ele>2421.00</ele>
	<time>2023-08-06T06:30:34.000Z</time>
</trkpt>
<trkpt lat="46.0311340" lon="10.4776700">
	<ele>2421.00</ele>
	<time>2023-08-06T06:30:35.000Z</time>
</trkpt>
<trkpt lat="46.0311310" lon="10.4776810">
	<ele>2421.20</ele>
	<time>2023-08-06T06:30:36.000Z</time>
</trkpt>
<trkpt lat="46.0311290" lon="10.4776910">
	<ele>2421.20</ele>
	<time>2023-08-06T06:30:37.000Z</time>
</trkpt>
<trkpt lat="46.0311270" lon="10.4777000">
	<ele>2421.20</ele>
	<time>2023-08-06T06:30:38.000Z</time>
</trkpt>
<trkpt lat="46.0311240" lon="10.4777140">
	<ele>2421.20</ele>
	<time>2023-08-06T06:30:39.000Z</time>
</trkpt>
<trkpt lat="46.0311190" lon="10.4777260">
	<ele>2421.40</ele>
	<time>2023-08-06T06:30:40.000Z</time>
</trkpt>
<trkpt lat="46.0311120" lon="10.4777360">
	<ele>2421.40</ele>
	<time>2023-08-06T06:30:41.000Z</time>
</trkpt>
<trkpt lat="46.0311070" lon="10.4777440">
	<ele>2421.60</ele>
	<time>2023-08-06T06:30:42.000Z</time>
</trkpt>
<trkpt lat="46.0311000" lon="10.4777510">
	<ele>2421.80</ele>
	<time>2023-08-06T06:30:43.000Z</time>
</trkpt>
<trkpt lat="46.0310970" lon="10.4777540">
	<ele>2422.00</ele>
	<time>2023-08-06T06:30:44.000Z</time>
</trkpt>
<trkpt lat="46.0310950" lon="10.4777610">
	<ele>2422.20</ele>
	<time>2023-08-06T06:30:45.000Z</time>
</trkpt>
<trkpt lat="46.0310900" lon="10.4777640">
	<ele>2422.40</ele>
	<time>2023-08-06T06:30:46.000Z</time>
</trkpt>
<trkpt lat="46.0310870" lon="10.4777680">
	<ele>2422.40</ele>
	<time>2023-08-06T06:30:47.000Z</time>
</trkpt>
<trkpt lat="46.0310840" lon="10.4777690">
	<ele>2422.40</ele>
	<time>2023-08-06T06:30:48.000Z</time>
</trkpt>
<trkpt lat="46.0310770" lon="10.4777770">
	<ele>2422.60</ele>
	<time>2023-08-06T06:30:49.000Z</time>
</trkpt>
<trkpt lat="46.0310710" lon="10.4777860">
	<ele>2422.80</ele>
	<time>2023-08-06T06:30:50.000Z</time>
</trkpt>
<trkpt lat="46.0310670" lon="10.4777960">
	<ele>2422.80</ele>
	<time>2023-08-06T06:30:51.000Z</time>
</trkpt>
<trkpt lat="46.0310640" lon="10.4778090">
	<ele>2423.00</ele>
	<time>2023-08-06T06:30:52.000Z</time>
</trkpt>
<trkpt lat="46.0310590" lon="10.4778210">
	<ele>2423.00</ele>
	<time>2023-08-06T06:30:53.000Z</time>
</trkpt>
<trkpt lat="46.0310550" lon="10.4778280">
	<ele>2423.00</ele>
	<time>2023-08-06T06:30:54.000Z</time>
</trkpt>
<trkpt lat="46.0310520" lon="10.4778380">
	<ele>2423.00</ele>
	<time>2023-08-06T06:30:55.000Z</time>
</trkpt>
<trkpt lat="46.0310490" lon="10.4778450">
	<ele>2423.00</ele>
	<time>2023-08-06T06:30:56.000Z</time>
</trkpt>
<trkpt lat="46.0310470" lon="10.4778500">
	<ele>2423.00</ele>
	<time>2023-08-06T06:30:57.000Z</time>
</trkpt>
<trkpt lat="46.0310420" lon="10.4778580">
	<ele>2423.00</ele>
	<time>2023-08-06T06:30:58.000Z</time>
</trkpt>
<trkpt lat="46.0310390" lon="10.4778680">
	<ele>2423.00</ele>
	<time>2023-08-06T06:30:59.000Z</time>
</trkpt>
<trkpt lat="46.0310390" lon="10.4778790">
	<ele>2422.80</ele>
	<time>2023-08-06T06:31:00.000Z</time>
</trkpt>
<trkpt lat="46.0310400" lon="10.4778860">
	<ele>2422.80</ele>
	<time>2023-08-06T06:31:01.000Z</time>
</trkpt>
<trkpt lat="46.0310400" lon="10.4778940">
	<ele>2422.60</ele>
	<time>2023-08-06T06:31:02.000Z</time>
</trkpt>
<trkpt lat="46.0310420" lon="10.4779080">
	<ele>2422.40</ele>
	<time>2023-08-06T06:31:03.000Z</time>
</trkpt>
<trkpt lat="46.0310430" lon="10.4779140">
	<ele>2422.40</ele>
	<time>2023-08-06T06:31:04.000Z</time>
</trkpt>
<trkpt lat="46.0310470" lon="10.4779210">
	<ele>2422.20</ele>
	<time>2023-08-06T06:31:05.000Z</time>
</trkpt>
<trkpt lat="46.0310480" lon="10.4779280">
	<ele>2422.20</ele>
	<time>2023-08-06T06:31:06.000Z</time>
</trkpt>
<trkpt lat="46.0310520" lon="10.4779400">
	<ele>2422.00</ele>
	<time>2023-08-06T06:31:07.000Z</time>
</trkpt>
<trkpt lat="46.0310560" lon="10.4779480">
	<ele>2421.80</ele>
	<time>2023-08-06T06:31:08.000Z</time>
</trkpt>
<trkpt lat="46.0310570" lon="10.4779560">
	<ele>2421.80</ele>
	<time>2023-08-06T06:31:09.000Z</time>
</trkpt>
<trkpt lat="46.0310570" lon="10.4779620">
	<ele>2421.60</ele>
	<time>2023-08-06T06:31:10.000Z</time>
</trkpt>
<trkpt lat="46.0310560" lon="10.4779710">
	<ele>2421.40</ele>
	<time>2023-08-06T06:31:11.000Z</time>
</trkpt>
<trkpt lat="46.0310560" lon="10.4779820">
	<ele>2421.20</ele>
	<time>2023-08-06T06:31:12.000Z</time>
</trkpt>
<trkpt lat="46.0310550" lon="10.4779920">
	<ele>2421.00</ele>
	<time>2023-08-06T06:31:13.000Z</time>
</trkpt>
<trkpt lat="46.0310530" lon="10.4780010">
	<ele>2420.60</ele>
	<time>2023-08-06T06:31:14.000Z</time>
</trkpt>
<trkpt lat="46.0310510" lon="10.4780070">
	<ele>2420.40</ele>
	<time>2023-08-06T06:31:15.000Z</time>
</trkpt>
<trkpt lat="46.0310510" lon="10.4780170">
	<ele>2420.40</ele>
	<time>2023-08-06T06:31:16.000Z</time>
</trkpt>
<trkpt lat="46.0310500" lon="10.4780290">
	<ele>2420.20</ele>
	<time>2023-08-06T06:31:17.000Z</time>
</trkpt>
<trkpt lat="46.0310460" lon="10.4780410">
	<ele>2420.00</ele>
	<time>2023-08-06T06:31:18.000Z</time>
</trkpt>
<trkpt lat="46.0310460" lon="10.4780540">
	<ele>2420.00</ele>
	<time>2023-08-06T06:31:19.000Z</time>
</trkpt>
<trkpt lat="46.0310450" lon="10.4780640">
	<ele>2419.80</ele>
	<time>2023-08-06T06:31:20.000Z</time>
</trkpt>
<trkpt lat="46.0310460" lon="10.4780770">
	<ele>2419.60</ele>
	<time>2023-08-06T06:31:21.000Z</time>
</trkpt>
<trkpt lat="46.0310510" lon="10.4780880">
	<ele>2419.60</ele>
	<time>2023-08-06T06:31:22.000Z</time>
</trkpt>
<trkpt lat="46.0310540" lon="10.4781020">
	<ele>2419.40</ele>
	<time>2023-08-06T06:31:23.000Z</time>
</trkpt>
<trkpt lat="46.0310530" lon="10.4781150">
	<ele>2419.40</ele>
	<time>2023-08-06T06:31:24.000Z</time>
</trkpt>
<trkpt lat="46.0310550" lon="10.4781260">
	<ele>2419.40</ele>
	<time>2023-08-06T06:31:25.000Z</time>
</trkpt>
<trkpt lat="46.0310570" lon="10.4781310">
	<ele>2419.20</ele>
	<time>2023-08-06T06:31:26.000Z</time>
</trkpt>
<trkpt lat="46.0310580" lon="10.4781380">
	<ele>2419.20</ele>
	<time>2023-08-06T06:31:27.000Z</time>
</trkpt>
<trkpt lat="46.0310570" lon="10.4781460">
	<ele>2419.20</ele>
	<time>2023-08-06T06:31:28.000Z</time>
</trkpt>
<trkpt lat="46.0310560" lon="10.4781540">
	<ele>2418.80</ele>
	<time>2023-08-06T06:31:29.000Z</time>
</trkpt>
<trkpt lat="46.0310560" lon="10.4781620">
	<ele>2418.60</ele>
	<time>2023-08-06T06:31:30.000Z</time>
</trkpt>
<trkpt lat="46.0310550" lon="10.4781710">
	<ele>2418.40</ele>
	<time>2023-08-06T06:31:31.000Z</time>
</trkpt>
<trkpt lat="46.0310560" lon="10.4781820">
	<ele>2418.40</ele>
	<time>2023-08-06T06:31:32.000Z</time>
</trkpt>
<trkpt lat="46.0310560" lon="10.4781910">
	<ele>2418.20</ele>
	<time>2023-08-06T06:31:33.000Z</time>
</trkpt>
<trkpt lat="46.0310560" lon="10.4782000">
	<ele>2418.00</ele>
	<time>2023-08-06T06:31:34.000Z</time>
</trkpt>
<trkpt lat="46.0310580" lon="10.4782090">
	<ele>2417.80</ele>
	<time>2023-08-06T06:31:35.000Z</time>
</trkpt>
<trkpt lat="46.0310580" lon="10.4782150">
	<ele>2417.80</ele>
	<time>2023-08-06T06:31:36.000Z</time>
</trkpt>
<trkpt lat="46.0310610" lon="10.4782240">
	<ele>2417.60</ele>
	<time>2023-08-06T06:31:37.000Z</time>
</trkpt>
<trkpt lat="46.0310640" lon="10.4782340">
	<ele>2417.40</ele>
	<time>2023-08-06T06:31:38.000Z</time>
</trkpt>
<trkpt lat="46.0310670" lon="10.4782460">
	<ele>2417.40</ele>
	<time>2023-08-06T06:31:39.000Z</time>
</trkpt>
<trkpt lat="46.0310650" lon="10.4782550">
	<ele>2417.20</ele>
	<time>2023-08-06T06:31:40.000Z</time>
</trkpt>
<trkpt lat="46.0310650" lon="10.4782680">
	<ele>2417.20</ele>
	<time>2023-08-06T06:31:41.000Z</time>
</trkpt>
<trkpt lat="46.0310600" lon="10.4782800">
	<ele>2417.00</ele>
	<time>2023-08-06T06:31:42.000Z</time>
</trkpt>
<trkpt lat="46.0310560" lon="10.4782930">
	<ele>2416.80</ele>
	<time>2023-08-06T06:31:43.000Z</time>
</trkpt>
<trkpt lat="46.0310550" lon="10.4783030">
	<ele>2416.80</ele>
	<time>2023-08-06T06:31:44.000Z</time>
</trkpt>
<trkpt lat="46.0310530" lon="10.4783110">
	<ele>2416.60</ele>
	<time>2023-08-06T06:31:45.000Z</time>
</trkpt>
<trkpt lat="46.0310520" lon="10.4783190">
	<ele>2416.40</ele>
	<time>2023-08-06T06:31:46.000Z</time>
</trkpt>
<trkpt lat="46.0310520" lon="10.4783270">
	<ele>2416.40</ele>
	<time>2023-08-06T06:31:47.000Z</time>
</trkpt>
<trkpt lat="46.0310540" lon="10.4783360">
	<ele>2416.20</ele>
	<time>2023-08-06T06:31:48.000Z</time>
</trkpt>
<trkpt lat="46.0310550" lon="10.4783490">
	<ele>2416.20</ele>
	<time>2023-08-06T06:31:49.000Z</time>
</trkpt>
<trkpt lat="46.0310560" lon="10.4783570">
	<ele>2416.00</ele>
	<time>2023-08-06T06:31:50.000Z</time>
</trkpt>
<trkpt lat="46.0310550" lon="10.4783670">
	<ele>2416.00</ele>
	<time>2023-08-06T06:31:51.000Z</time>
</trkpt>
<trkpt lat="46.0310550" lon="10.4783770">
	<ele>2415.80</ele>
	<time>2023-08-06T06:31:52.000Z</time>
</trkpt>
<trkpt lat="46.0310530" lon="10.4783850">
	<ele>2415.80</ele>
	<time>2023-08-06T06:31:53.000Z</time>
</trkpt>
<trkpt lat="46.0310520" lon="10.4783930">
	<ele>2415.80</ele>
	<time>2023-08-06T06:31:54.000Z</time>
</trkpt>
<trkpt lat="46.0310520" lon="10.4784010">
	<ele>2415.60</ele>
	<time>2023-08-06T06:31:55.000Z</time>
</trkpt>
<trkpt lat="46.0310580" lon="10.4784080">
	<ele>2415.60</ele>
	<time>2023-08-06T06:31:56.000Z</time>
</trkpt>
<trkpt lat="46.0310580" lon="10.4784190">
	<ele>2415.40</ele>
	<time>2023-08-06T06:31:57.000Z</time>
</trkpt>
<trkpt lat="46.0310550" lon="10.4784290">
	<ele>2415.40</ele>
	<time>2023-08-06T06:31:58.000Z</time>
</trkpt>
<trkpt lat="46.0310530" lon="10.4784400">
	<ele>2415.40</ele>
	<time>2023-08-06T06:31:59.000Z</time>
</trkpt>
<trkpt lat="46.0310530" lon="10.4784520">
	<ele>2415.20</ele>
	<time>2023-08-06T06:32:00.000Z</time>
</trkpt>
<trkpt lat="46.0310560" lon="10.4784660">
	<ele>2415.20</ele>
	<time>2023-08-06T06:32:01.000Z</time>
</trkpt>
<trkpt lat="46.0310560" lon="10.4784820">
	<ele>2415.00</ele>
	<time>2023-08-06T06:32:02.000Z</time>
</trkpt>
<trkpt lat="46.0310540" lon="10.4784910">
	<ele>2415.00</ele>
	<time>2023-08-06T06:32:03.000Z</time>
</trkpt>
<trkpt lat="46.0310490" lon="10.4785000">
	<ele>2415.00</ele>
	<time>2023-08-06T06:32:04.000Z</time>
</trkpt>
<trkpt lat="46.0310470" lon="10.4785090">
	<ele>2415.00</ele>
	<time>2023-08-06T06:32:05.000Z</time>
</trkpt>
<trkpt lat="46.0310490" lon="10.4785210">
	<ele>2415.00</ele>
	<time>2023-08-06T06:32:06.000Z</time>
</trkpt>
<trkpt lat="46.0310460" lon="10.4785340">
	<ele>2414.80</ele>
	<time>2023-08-06T06:32:07.000Z</time>
</trkpt>
<trkpt lat="46.0310440" lon="10.4785400">
	<ele>2414.80</ele>
	<time>2023-08-06T06:32:08.000Z</time>
</trkpt>
<trkpt lat="46.0310390" lon="10.4785470">
	<ele>2414.80</ele>
	<time>2023-08-06T06:32:09.000Z</time>
</trkpt>
<trkpt lat="46.0310340" lon="10.4785530">
	<ele>2414.60</ele>
	<time>2023-08-06T06:32:10.000Z</time>
</trkpt>
<trkpt lat="46.0310300" lon="10.4785640">
	<ele>2414.60</ele>
	<time>2023-08-06T06:32:11.000Z</time>
</trkpt>
<trkpt lat="46.0310230" lon="10.4785720">
	<ele>2414.40</ele>
	<time>2023-08-06T06:32:12.000Z</time>
</trkpt>
<trkpt lat="46.0310160" lon="10.4785850">
	<ele>2414.40</ele>
	<time>2023-08-06T06:32:13.000Z</time>
</trkpt>
<trkpt lat="46.0310110" lon="10.4785900">
	<ele>2414.60</ele>
	<time>2023-08-06T06:32:14.000Z</time>
</trkpt>
<trkpt lat="46.0310040" lon="10.4785980">
	<ele>2414.60</ele>
	<time>2023-08-06T06:32:15.000Z</time>
</trkpt>
<trkpt lat="46.0309990" lon="10.4786090">
	<ele>2414.40</ele>
	<time>2023-08-06T06:32:16.000Z</time>
</trkpt>
<trkpt lat="46.0309970" lon="10.4786200">
	<ele>2414.40</ele>
	<time>2023-08-06T06:32:17.000Z</time>
</trkpt>
<trkpt lat="46.0309940" lon="10.4786310">
	<ele>2414.40</ele>
	<time>2023-08-06T06:32:18.000Z</time>
</trkpt>
<trkpt lat="46.0309910" lon="10.4786420">
	<ele>2414.40</ele>
	<time>2023-08-06T06:32:19.000Z</time>
</trkpt>
<trkpt lat="46.0309920" lon="10.4786520">
	<ele>2414.20</ele>
	<time>2023-08-06T06:32:20.000Z</time>
</trkpt>
<trkpt lat="46.0309960" lon="10.4786630">
	<ele>2414.20</ele>
	<time>2023-08-06T06:32:21.000Z</time>
</trkpt>
<trkpt lat="46.0309980" lon="10.4786740">
	<ele>2414.20</ele>
	<time>2023-08-06T06:32:22.000Z</time>
</trkpt>
<trkpt lat="46.0310000" lon="10.4786810">
	<ele>2414.00</ele>
	<time>2023-08-06T06:32:23.000Z</time>
</trkpt>
<trkpt lat="46.0310030" lon="10.4786890">
	<ele>2414.00</ele>
	<time>2023-08-06T06:32:24.000Z</time>
</trkpt>
<trkpt lat="46.0310080" lon="10.4787010">
	<ele>2414.00</ele>
	<time>2023-08-06T06:32:25.000Z</time>
</trkpt>
<trkpt lat="46.0310100" lon="10.4787100">
	<ele>2414.00</ele>
	<time>2023-08-06T06:32:26.000Z</time>
</trkpt>
<trkpt lat="46.0310120" lon="10.4787150">
	<ele>2413.80</ele>
	<time>2023-08-06T06:32:27.000Z</time>
</trkpt>
<trkpt lat="46.0310170" lon="10.4787200">
	<ele>2413.80</ele>
	<time>2023-08-06T06:32:28.000Z</time>
</trkpt>
<trkpt lat="46.0310220" lon="10.4787240">
	<ele>2413.60</ele>
	<time>2023-08-06T06:32:29.000Z</time>
</trkpt>
<trkpt lat="46.0310230" lon="10.4787290">
	<ele>2413.60</ele>
	<time>2023-08-06T06:32:30.000Z</time>
</trkpt>
<trkpt lat="46.0310270" lon="10.4787340">
	<ele>2413.40</ele>
	<time>2023-08-06T06:32:31.000Z</time>
</trkpt>
<trkpt lat="46.0310340" lon="10.4787440">
	<ele>2413.40</ele>
	<time>2023-08-06T06:32:32.000Z</time>
</trkpt>
<trkpt lat="46.0310380" lon="10.4787560">
	<ele>2413.40</ele>
	<time>2023-08-06T06:32:33.000Z</time>
</trkpt>
<trkpt lat="46.0310380" lon="10.4787680">
	<ele>2413.20</ele>
	<time>2023-08-06T06:32:34.000Z</time>
</trkpt>
<trkpt lat="46.0310330" lon="10.4787790">
	<ele>2413.00</ele>
	<time>2023-08-06T06:32:35.000Z</time>
</trkpt>
<trkpt lat="46.0310290" lon="10.4787890">
	<ele>2412.80</ele>
	<time>2023-08-06T06:32:36.000Z</time>
</trkpt>
<trkpt lat="46.0310260" lon="10.4787980">
	<ele>2412.80</ele>
	<time>2023-08-06T06:32:37.000Z</time>
</trkpt>
<trkpt lat="46.0310240" lon="10.4788040">
	<ele>2412.80</ele>
	<time>2023-08-06T06:32:38.000Z</time>
</trkpt>
<trkpt lat="46.0310210" lon="10.4788120">
	<ele>2412.80</ele>
	<time>2023-08-06T06:32:39.000Z</time>
</trkpt>
<trkpt lat="46.0310180" lon="10.4788190">
	<ele>2412.80</ele>
	<time>2023-08-06T06:32:40.000Z</time>
</trkpt>
<trkpt lat="46.0310160" lon="10.4788300">
	<ele>2412.80</ele>
	<time>2023-08-06T06:32:41.000Z</time>
</trkpt>
<trkpt lat="46.0310160" lon="10.4788390">
	<ele>2412.80</ele>
	<time>2023-08-06T06:32:42.000Z</time>
</trkpt>
<trkpt lat="46.0310200" lon="10.4788490">
	<ele>2412.80</ele>
	<time>2023-08-06T06:32:43.000Z</time>
</trkpt>
<trkpt lat="46.0310210" lon="10.4788580">
	<ele>2412.80</ele>
	<time>2023-08-06T06:32:44.000Z</time>
</trkpt>
<trkpt lat="46.0310210" lon="10.4788690">
	<ele>2412.60</ele>
	<time>2023-08-06T06:32:45.000Z</time>
</trkpt>
<trkpt lat="46.0310160" lon="10.4788740">
	<ele>2412.60</ele>
	<time>2023-08-06T06:32:46.000Z</time>
</trkpt>
<trkpt lat="46.0310130" lon="10.4788820">
	<ele>2412.40</ele>
	<time>2023-08-06T06:32:47.000Z</time>
</trkpt>
<trkpt lat="46.0310100" lon="10.4788890">
	<ele>2412.20</ele>
	<time>2023-08-06T06:32:48.000Z</time>
</trkpt>
<trkpt lat="46.0310080" lon="10.4788980">
	<ele>2411.80</ele>
	<time>2023-08-06T06:32:49.000Z</time>
</trkpt>
<trkpt lat="46.0310080" lon="10.4789050">
	<ele>2411.60</ele>
	<time>2023-08-06T06:32:50.000Z</time>
</trkpt>
<trkpt lat="46.0310080" lon="10.4789110">
	<ele>2411.40</ele>
	<time>2023-08-06T06:32:51.000Z</time>
</trkpt>
<trkpt lat="46.0310090" lon="10.4789200">
	<ele>2411.40</ele>
	<time>2023-08-06T06:32:52.000Z</time>
</trkpt>
<trkpt lat="46.0310140" lon="10.4789290">
	<ele>2411.20</ele>
	<time>2023-08-06T06:32:53.000Z</time>
</trkpt>
<trkpt lat="46.0310160" lon="10.4789390">
	<ele>2411.20</ele>
	<time>2023-08-06T06:32:54.000Z</time>
</trkpt>
<trkpt lat="46.0310130" lon="10.4789510">
	<ele>2410.80</ele>
	<time>2023-08-06T06:32:55.000Z</time>
</trkpt>
<trkpt lat="46.0310110" lon="10.4789580">
	<ele>2410.80</ele>
	<time>2023-08-06T06:32:56.000Z</time>
</trkpt>
<trkpt lat="46.0310120" lon="10.4789640">
	<ele>2410.40</ele>
	<time>2023-08-06T06:32:57.000Z</time>
</trkpt>
<trkpt lat="46.0310080" lon="10.4789750">
	<ele>2410.20</ele>
	<time>2023-08-06T06:32:58.000Z</time>
</trkpt>
<trkpt lat="46.0310070" lon="10.4789800">
	<ele>2410.00</ele>
	<time>2023-08-06T06:32:59.000Z</time>
</trkpt>
<trkpt lat="46.0310070" lon="10.4789880">
	<ele>2409.80</ele>
	<time>2023-08-06T06:33:00.000Z</time>
</trkpt>
<trkpt lat="46.0310100" lon="10.4789960">
	<ele>2409.60</ele>
	<time>2023-08-06T06:33:01.000Z</time>
</trkpt>
<trkpt lat="46.0310130" lon="10.4790020">
	<ele>2409.60</ele>
	<time>2023-08-06T06:33:02.000Z</time>
</trkpt>
<trkpt lat="46.0310150" lon="10.4790080">
	<ele>2409.40</ele>
	<time>2023-08-06T06:33:03.000Z</time>
</trkpt>
<trkpt lat="46.0310190" lon="10.4790140">
	<ele>2409.40</ele>
	<time>2023-08-06T06:33:04.000Z</time>
</trkpt>
<trkpt lat="46.0310200" lon="10.4790220">
	<ele>2409.20</ele>
	<time>2023-08-06T06:33:05.000Z</time>
</trkpt>
<trkpt lat="46.0310180" lon="10.4790260">
	<ele>2409.00</ele>
	<time>2023-08-06T06:33:06.000Z</time>
</trkpt>
<trkpt lat="46.0310160" lon="10.4790330">
	<ele>2408.80</ele>
	<time>2023-08-06T06:33:07.000Z</time>
</trkpt>
<trkpt lat="46.0310150" lon="10.4790390">
	<ele>2408.40</ele>
	<time>2023-08-06T06:33:08.000Z</time>
</trkpt>
<trkpt lat="46.0310160" lon="10.4790450">
	<ele>2408.20</ele>
	<time>2023-08-06T06:33:09.000Z</time>
</trkpt>
<trkpt lat="46.0310170" lon="10.4790500">
	<ele>2408.00</ele>
	<time>2023-08-06T06:33:10.000Z</time>
</trkpt>
<trkpt lat="46.0310170" lon="10.4790560">
	<ele>2408.00</ele>
	<time>2023-08-06T06:33:11.000Z</time>
</trkpt>
<trkpt lat="46.0310220" lon="10.4790590">
	<ele>2407.80</ele>
	<time>2023-08-06T06:33:12.000Z</time>
</trkpt>
<trkpt lat="46.0310250" lon="10.4790630">
	<ele>2407.80</ele>
	<time>2023-08-06T06:33:13.000Z</time>
</trkpt>
<trkpt lat="46.0310320" lon="10.4790710">
	<ele>2407.60</ele>
	<time>2023-08-06T06:33:14.000Z</time>
</trkpt>
<trkpt lat="46.0310360" lon="10.4790800">
	<ele>2407.40</ele>
	<time>2023-08-06T06:33:15.000Z</time>
</trkpt>
<trkpt lat="46.0310390" lon="10.4790920">
	<ele>2407.40</ele>
	<time>2023-08-06T06:33:16.000Z</time>
</trkpt>
<trkpt lat="46.0310410" lon="10.4791000">
	<ele>2407.00</ele>
	<time>2023-08-06T06:33:17.000Z</time>
</trkpt>
<trkpt lat="46.0310410" lon="10.4791060">
	<ele>2406.80</ele>
	<time>2023-08-06T06:33:18.000Z</time>
</trkpt>
<trkpt lat="46.0310420" lon="10.4791090">
	<ele>2406.80</ele>
	<time>2023-08-06T06:33:19.000Z</time>
</trkpt>
<trkpt lat="46.0310440" lon="10.4791160">
	<ele>2406.60</ele>
	<time>2023-08-06T06:33:20.000Z</time>
</trkpt>
<trkpt lat="46.0310460" lon="10.4791240">
	<ele>2406.60</ele>
	<time>2023-08-06T06:33:21.000Z</time>
</trkpt>
<trkpt lat="46.0310470" lon="10.4791290">
	<ele>2406.40</ele>
	<time>2023-08-06T06:33:22.000Z</time>
</trkpt>
<trkpt lat="46.0310470" lon="10.4791350">
	<ele>2406.00</ele>
	<time>2023-08-06T06:33:23.000Z</time>
</trkpt>
<trkpt lat="46.0310470" lon="10.4791420">
	<ele>2405.80</ele>
	<time>2023-08-06T06:33:24.000Z</time>
</trkpt>
<trkpt lat="46.0310440" lon="10.4791510">
	<ele>2405.60</ele>
	<time>2023-08-06T06:33:25.000Z</time>
</trkpt>
<trkpt lat="46.0310430" lon="10.4791570">
	<ele>2405.40</ele>
	<time>2023-08-06T06:33:26.000Z</time>
</trkpt>
<trkpt lat="46.0310430" lon="10.4791640">
	<ele>2405.20</ele>
	<time>2023-08-06T06:33:27.000Z</time>
</trkpt>
<trkpt lat="46.0310430" lon="10.4791690">
	<ele>2405.00</ele>
	<time>2023-08-06T06:33:28.000Z</time>
</trkpt>
<trkpt lat="46.0310430" lon="10.4791740">
	<ele>2404.80</ele>
	<time>2023-08-06T06:33:29.000Z</time>
</trkpt>
<trkpt lat="46.0310420" lon="10.4791800">
	<ele>2404.60</ele>
	<time>2023-08-06T06:33:30.000Z</time>
</trkpt>
<trkpt lat="46.0310410" lon="10.4791850">
	<ele>2404.60</ele>
	<time>2023-08-06T06:33:31.000Z</time>
</trkpt>
<trkpt lat="46.0310430" lon="10.4791890">
	<ele>2404.40</ele>
	<time>2023-08-06T06:33:32.000Z</time>
</trkpt>
<trkpt lat="46.0310450" lon="10.4791940">
	<ele>2404.20</ele>
	<time>2023-08-06T06:33:33.000Z</time>
</trkpt>
<trkpt lat="46.0310460" lon="10.4792000">
	<ele>2404.00</ele>
	<time>2023-08-06T06:33:34.000Z</time>
</trkpt>
<trkpt lat="46.0310470" lon="10.4792050">
	<ele>2404.00</ele>
	<time>2023-08-06T06:33:35.000Z</time>
</trkpt>
<trkpt lat="46.0310460" lon="10.4792070">
	<ele>2403.80</ele>
	<time>2023-08-06T06:33:36.000Z</time>
</trkpt>
<trkpt lat="46.0310470" lon="10.4792090">
	<ele>2403.80</ele>
	<time>2023-08-06T06:33:37.000Z</time>
</trkpt>
<trkpt lat="46.0310480" lon="10.4792110">
	<ele>2403.60</ele>
	<time>2023-08-06T06:33:38.000Z</time>
</trkpt>
<trkpt lat="46.0310470" lon="10.4792120">
	<ele>2403.60</ele>
	<time>2023-08-06T06:33:39.000Z</time>
</trkpt>
<trkpt lat="46.0310460" lon="10.4792130">
	<ele>2403.40</ele>
	<time>2023-08-06T06:33:40.000Z</time>
</trkpt>
<trkpt lat="46.0310470" lon="10.4792160">
	<ele>2403.40</ele>
	<time>2023-08-06T06:33:41.000Z</time>
</trkpt>
<trkpt lat="46.0310490" lon="10.4792190">
	<ele>2403.40</ele>
	<time>2023-08-06T06:33:42.000Z</time>
</trkpt>
<trkpt lat="46.0310490" lon="10.4792190">
	<ele>2403.20</ele>
	<time>2023-08-06T06:33:43.000Z</time>
</trkpt>
<trkpt lat="46.0310490" lon="10.4792190">
	<ele>2403.20</ele>
	<time>2023-08-06T06:33:44.000Z</time>
</trkpt>
<trkpt lat="46.0310490" lon="10.4792190">
	<ele>2403.20</ele>
	<time>2023-08-06T06:33:45.000Z</time>
</trkpt>
<trkpt lat="46.0310490" lon="10.4792190">
	<ele>2403.20</ele>
	<time>2023-08-06T06:33:46.000Z</time>
</trkpt>
<trkpt lat="46.0310490" lon="10.4792190">
	<ele>2403.20</ele>
	<time>2023-08-06T06:33:47.000Z</time>
</trkpt>
<trkpt lat="46.0310490" lon="10.4792190">
	<ele>2403.20</ele>
	<time>2023-08-06T06:33:48.000Z</time>
</trkpt>
<trkpt lat="46.0310490" lon="10.4792190">
	<ele>2403.20</ele>
	<time>2023-08-06T06:33:49.000Z</time>
</trkpt>
<trkpt lat="46.0310490" lon="10.4792190">
	<ele>2403.20</ele>
	<time>2023-08-06T06:33:50.000Z</time>
</trkpt>
<trkpt lat="46.0310490" lon="10.4792190">
	<ele>2403.20</ele>
	<time>2023-08-06T06:33:51.000Z</time>
</trkpt>
<trkpt lat="46.0310490" lon="10.4792180">
	<ele>2403.20</ele>
	<time>2023-08-06T06:33:52.000Z</time>
</trkpt>
<trkpt lat="46.0310480" lon="10.4792160">
	<ele>2403.20</ele>
	<time>2023-08-06T06:33:53.000Z</time>
</trkpt>
<trkpt lat="46.0310480" lon="10.4792160">
	<ele>2403.20</ele>
	<time>2023-08-06T06:33:54.000Z</time>
</trkpt>
<trkpt lat="46.0310480" lon="10.4792160">
	<ele>2403.20</ele>
	<time>2023-08-06T06:33:55.000Z</time>
</trkpt>
<trkpt lat="46.0310470" lon="10.4792160">
	<ele>2403.20</ele>
	<time>2023-08-06T06:33:56.000Z</time>
</trkpt>
<trkpt lat="46.0310470" lon="10.4792160">
	<ele>2403.20</ele>
	<time>2023-08-06T06:33:57.000Z</time>
</trkpt>
<trkpt lat="46.0310470" lon="10.4792160">
	<ele>2403.00</ele>
	<time>2023-08-06T06:33:58.000Z</time>
</trkpt>
<trkpt lat="46.0310470" lon="10.4792160">
	<ele>2402.80</ele>
	<time>2023-08-06T06:33:59.000Z</time>
</trkpt>
<trkpt lat="46.0310460" lon="10.4792210">
	<ele>2402.60</ele>
	<time>2023-08-06T06:34:00.000Z</time>
</trkpt>
<trkpt lat="46.0310430" lon="10.4792330">
	<ele>2402.40</ele>
	<time>2023-08-06T06:34:01.000Z</time>
</trkpt>
<trkpt lat="46.0310440" lon="10.4792490">
	<ele>2402.20</ele>
	<time>2023-08-06T06:34:02.000Z</time>
</trkpt>
<trkpt lat="46.0310400" lon="10.4792650">
	<ele>2402.00</ele>
	<time>2023-08-06T06:34:03.000Z</time>
</trkpt>
<trkpt lat="46.0310350" lon="10.4792770">
	<ele>2401.80</ele>
	<time>2023-08-06T06:34:04.000Z</time>
</trkpt>
<trkpt lat="46.0310320" lon="10.4792890">
	<ele>2401.80</ele>
	<time>2023-08-06T06:34:05.000Z</time>
</trkpt>
<trkpt lat="46.0310340" lon="10.4793070">
	<ele>2401.60</ele>
	<time>2023-08-06T06:34:06.000Z</time>
</trkpt>
<trkpt lat="46.0310350" lon="10.4793190">
	<ele>2401.60</ele>
	<time>2023-08-06T06:34:07.000Z</time>
</trkpt>
<trkpt lat="46.0310350" lon="10.4793300">
	<ele>2401.60</ele>
	<time>2023-08-06T06:34:08.000Z</time>
</trkpt>
<trkpt lat="46.0310360" lon="10.4793400">
	<ele>2401.40</ele>
	<time>2023-08-06T06:34:09.000Z</time>
</trkpt>
<trkpt lat="46.0310380" lon="10.4793450">
	<ele>2401.40</ele>
	<time>2023-08-06T06:34:10.000Z</time>
</trkpt>
<trkpt lat="46.0310430" lon="10.4793470">
	<ele>2401.20</ele>
	<time>2023-08-06T06:34:11.000Z</time>
</trkpt>
<trkpt lat="46.0310460" lon="10.4793530">
	<ele>2401.20</ele>
	<time>2023-08-06T06:34:12.000Z</time>
</trkpt>
<trkpt lat="46.0310480" lon="10.4793600">
	<ele>2401.00</ele>
	<time>2023-08-06T06:34:13.000Z</time>
</trkpt>
<trkpt lat="46.0310520" lon="10.4793660">
	<ele>2401.00</ele>
	<time>2023-08-06T06:34:14.000Z</time>
</trkpt>
<trkpt lat="46.0310540" lon="10.4793720">
	<ele>2400.80</ele>
	<time>2023-08-06T06:34:15.000Z</time>
</trkpt>
<trkpt lat="46.0310540" lon="10.4793780">
	<ele>2400.40</ele>
	<time>2023-08-06T06:34:16.000Z</time>
</trkpt>
<trkpt lat="46.0310550" lon="10.4793880">
	<ele>2400.00</ele>
	<time>2023-08-06T06:34:17.000Z</time>
</trkpt>
<trkpt lat="46.0310570" lon="10.4793990">
	<ele>2399.80</ele>
	<time>2023-08-06T06:34:18.000Z</time>
</trkpt>
<trkpt lat="46.0310570" lon="10.4794060">
	<ele>2399.60</ele>
	<time>2023-08-06T06:34:19.000Z</time>
</trkpt>
<trkpt lat="46.0310580" lon="10.4794150">
	<ele>2399.60</ele>
	<time>2023-08-06T06:34:20.000Z</time>
</trkpt>
<trkpt lat="46.0310600" lon="10.4794260">
	<ele>2399.20</ele>
	<time>2023-08-06T06:34:21.000Z</time>
</trkpt>
<trkpt lat="46.0310640" lon="10.4794340">
	<ele>2399.20</ele>
	<time>2023-08-06T06:34:22.000Z</time>
</trkpt>
<trkpt lat="46.0310620" lon="10.4794360">
	<ele>2399.00</ele>
	<time>2023-08-06T06:34:23.000Z</time>
</trkpt>
<trkpt lat="46.0310640" lon="10.4794370">
	<ele>2398.60</ele>
	<time>2023-08-06T06:34:24.000Z</time>
</trkpt>
<trkpt lat="46.0310700" lon="10.4794400">
	<ele>2398.60</ele>
	<time>2023-08-06T06:34:25.000Z</time>
</trkpt>
<trkpt lat="46.0310750" lon="10.4794440">
	<ele>2398.40</ele>
	<time>2023-08-06T06:34:26.000Z</time>
</trkpt>
<trkpt lat="46.0310760" lon="10.4794450">
	<ele>2398.40</ele>
	<time>2023-08-06T06:34:27.000Z</time>
</trkpt>
<trkpt lat="46.0310750" lon="10.4794460">
	<ele>2398.60</ele>
	<time>2023-08-06T06:34:28.000Z</time>
</trkpt>
<trkpt lat="46.0310750" lon="10.4794450">
	<ele>2398.80</ele>
	<time>2023-08-06T06:34:29.000Z</time>
</trkpt>
<trkpt lat="46.0310750" lon="10.4794450">
	<ele>2398.80</ele>
	<time>2023-08-06T06:34:30.000Z</time>
</trkpt>
<trkpt lat="46.0310750" lon="10.4794460">
	<ele>2398.80</ele>
	<time>2023-08-06T06:34:31.000Z</time>
</trkpt>
<trkpt lat="46.0310750" lon="10.4794470">
	<ele>2398.80</ele>
	<time>2023-08-06T06:34:32.000Z</time>
</trkpt>
<trkpt lat="46.0310740" lon="10.4794470">
	<ele>2398.80</ele>
	<time>2023-08-06T06:34:33.000Z</time>
</trkpt>
<trkpt lat="46.0310740" lon="10.4794470">
	<ele>2398.80</ele>
	<time>2023-08-06T06:34:34.000Z</time>
</trkpt>
<trkpt lat="46.0310740" lon="10.4794470">
	<ele>2398.80</ele>
	<time>2023-08-06T06:34:35.000Z</time>
</trkpt>
<trkpt lat="46.0310740" lon="10.4794470">
	<ele>2398.80</ele>
	<time>2023-08-06T06:34:36.000Z</time>
</trkpt>
<trkpt lat="46.0310740" lon="10.4794470">
	<ele>2398.80</ele>
	<time>2023-08-06T06:34:37.000Z</time>
</trkpt>
<trkpt lat="46.0310740" lon="10.4794470">
	<ele>2398.80</ele>
	<time>2023-08-06T06:34:38.000Z</time>
</trkpt>
<trkpt lat="46.0310740" lon="10.4794470">
	<ele>2398.60</ele>
	<time>2023-08-06T06:34:39.000Z</time>
</trkpt>
<trkpt lat="46.0310740" lon="10.4794470">
	<ele>2398.40</ele>
	<time>2023-08-06T06:34:40.000Z</time>
</trkpt>
<trkpt lat="46.0310740" lon="10.4794470">
	<ele>2398.20</ele>
	<time>2023-08-06T06:34:41.000Z</time>
</trkpt>
<trkpt lat="46.0310740" lon="10.4794470">
	<ele>2398.00</ele>
	<time>2023-08-06T06:34:42.000Z</time>
</trkpt>
<trkpt lat="46.0310740" lon="10.4794470">
	<ele>2398.00</ele>
	<time>2023-08-06T06:34:43.000Z</time>
</trkpt>
<trkpt lat="46.0310740" lon="10.4794470">
	<ele>2397.80</ele>
	<time>2023-08-06T06:34:44.000Z</time>
</trkpt>
<trkpt lat="46.0310740" lon="10.4794460">
	<ele>2397.80</ele>
	<time>2023-08-06T06:34:45.000Z</time>
</trkpt>
<trkpt lat="46.0310740" lon="10.4794460">
	<ele>2397.80</ele>
	<time>2023-08-06T06:34:46.000Z</time>
</trkpt>
<trkpt lat="46.0310740" lon="10.4794460">
	<ele>2397.80</ele>
	<time>2023-08-06T06:34:47.000Z</time>
</trkpt>
<trkpt lat="46.0310730" lon="10.4794450">
	<ele>2397.80</ele>
	<time>2023-08-06T06:34:48.000Z</time>
</trkpt>
<trkpt lat="46.0310730" lon="10.4794450">
	<ele>2398.00</ele>
	<time>2023-08-06T06:34:49.000Z</time>
</trkpt>
<trkpt lat="46.0310720" lon="10.4794450">
	<ele>2398.00</ele>
	<time>2023-08-06T06:34:50.000Z</time>
</trkpt>
<trkpt lat="46.0310710" lon="10.4794450">
	<ele>2398.00</ele>
	<time>2023-08-06T06:34:51.000Z</time>
</trkpt>
<trkpt lat="46.0310700" lon="10.4794450">
	<ele>2398.00</ele>
	<time>2023-08-06T06:34:52.000Z</time>
</trkpt>
<trkpt lat="46.0310700" lon="10.4794450">
	<ele>2397.80</ele>
	<time>2023-08-06T06:34:53.000Z</time>
</trkpt>
<trkpt lat="46.0310690" lon="10.4794450">
	<ele>2397.60</ele>
	<time>2023-08-06T06:34:54.000Z</time>
</trkpt>
<trkpt lat="46.0310670" lon="10.4794450">
	<ele>2397.60</ele>
	<time>2023-08-06T06:34:55.000Z</time>
</trkpt>
<trkpt lat="46.0310660" lon="10.4794450">
	<ele>2397.40</ele>
	<time>2023-08-06T06:34:56.000Z</time>
</trkpt>
<trkpt lat="46.0310630" lon="10.4794460">
	<ele>2397.40</ele>
	<time>2023-08-06T06:34:57.000Z</time>
</trkpt>
<trkpt lat="46.0310600" lon="10.4794460">
	<ele>2397.20</ele>
	<time>2023-08-06T06:34:58.000Z</time>
</trkpt>
<trkpt lat="46.0310590" lon="10.4794460">
	<ele>2397.00</ele>
	<time>2023-08-06T06:34:59.000Z</time>
</trkpt>
<trkpt lat="46.0310610" lon="10.4794550">
	<ele>2397.00</ele>
	<time>2023-08-06T06:35:00.000Z</time>
</trkpt>
<trkpt lat="46.0310680" lon="10.4794790">
	<ele>2396.80</ele>
	<time>2023-08-06T06:35:01.000Z</time>
</trkpt>
<trkpt lat="46.0310730" lon="10.4795010">
	<ele>2396.60</ele>
	<time>2023-08-06T06:35:02.000Z</time>
</trkpt>
<trkpt lat="46.0310740" lon="10.4795210">
	<ele>2396.40</ele>
	<time>2023-08-06T06:35:03.000Z</time>
</trkpt>
<trkpt lat="46.0310690" lon="10.4795400">
	<ele>2396.40</ele>
	<time>2023-08-06T06:35:04.000Z</time>
</trkpt>
<trkpt lat="46.0310680" lon="10.4795580">
	<ele>2396.20</ele>
	<time>2023-08-06T06:35:05.000Z</time>
</trkpt>
<trkpt lat="46.0310650" lon="10.4795830">
	<ele>2396.00</ele>
	<time>2023-08-06T06:35:06.000Z</time>
</trkpt>
<trkpt lat="46.0310660" lon="10.4796010">
	<ele>2395.80</ele>
	<time>2023-08-06T06:35:07.000Z</time>
</trkpt>
<trkpt lat="46.0310690" lon="10.4796170">
	<ele>2395.80</ele>
	<time>2023-08-06T06:35:08.000Z</time>
</trkpt>
<trkpt lat="46.0310750" lon="10.4796320">
	<ele>2395.60</ele>
	<time>2023-08-06T06:35:09.000Z</time>
</trkpt>
<trkpt lat="46.0310810" lon="10.4796400">
	<ele>2395.40</ele>
	<time>2023-08-06T06:35:10.000Z</time>
</trkpt>
<trkpt lat="46.0310870" lon="10.4796470">
	<ele>2395.40</ele>
	<time>2023-08-06T06:35:11.000Z</time>
</trkpt>
<trkpt lat="46.0310910" lon="10.4796550">
	<ele>2395.20</ele>
	<time>2023-08-06T06:35:12.000Z</time>
</trkpt>
<trkpt lat="46.0310930" lon="10.4796640">
	<ele>2395.00</ele>
	<time>2023-08-06T06:35:13.000Z</time>
</trkpt>
<trkpt lat="46.0310990" lon="10.4796790">
	<ele>2394.80</ele>
	<time>2023-08-06T06:35:14.000Z</time>
</trkpt>
<trkpt lat="46.0311070" lon="10.4796860">
	<ele>2394.80</ele>
	<time>2023-08-06T06:35:15.000Z</time>
</trkpt>
<trkpt lat="46.0311120" lon="10.4796960">
	<ele>2394.60</ele>
	<time>2023-08-06T06:35:16.000Z</time>
</trkpt>
<trkpt lat="46.0311110" lon="10.4797050">
	<ele>2394.40</ele>
	<time>2023-08-06T06:35:17.000Z</time>
</trkpt>
<trkpt lat="46.0311090" lon="10.4797120">
	<ele>2394.20</ele>
	<time>2023-08-06T06:35:18.000Z</time>
</trkpt>
<trkpt lat="46.0311060" lon="10.4797190">
	<ele>2394.00</ele>
	<time>2023-08-06T06:35:19.000Z</time>
</trkpt>
<trkpt lat="46.0311080" lon="10.4797270">
	<ele>2394.00</ele>
	<time>2023-08-06T06:35:20.000Z</time>
</trkpt>
<trkpt lat="46.0311100" lon="10.4797370">
	<ele>2393.80</ele>
	<time>2023-08-06T06:35:21.000Z</time>
</trkpt>
<trkpt lat="46.0311070" lon="10.4797430">
	<ele>2393.60</ele>
	<time>2023-08-06T06:35:22.000Z</time>
</trkpt>
<trkpt lat="46.0311060" lon="10.4797480">
	<ele>2393.40</ele>
	<time>2023-08-06T06:35:23.000Z</time>
</trkpt>
<trkpt lat="46.0311060" lon="10.4797550">
	<ele>2393.20</ele>
	<time>2023-08-06T06:35:24.000Z</time>
</trkpt>
<trkpt lat="46.0311060" lon="10.4797660">
	<ele>2393.20</ele>
	<time>2023-08-06T06:35:25.000Z</time>
</trkpt>
<trkpt lat="46.0311060" lon="10.4797760">
	<ele>2393.20</ele>
	<time>2023-08-06T06:35:26.000Z</time>
</trkpt>
<trkpt lat="46.0311050" lon="10.4797840">
	<ele>2393.20</ele>
	<time>2023-08-06T06:35:27.000Z</time>
</trkpt>
<trkpt lat="46.0311060" lon="10.4797890">
	<ele>2393.00</ele>
	<time>2023-08-06T06:35:28.000Z</time>
</trkpt>
<trkpt lat="46.0311100" lon="10.4797910">
	<ele>2392.80</ele>
	<time>2023-08-06T06:35:29.000Z</time>
</trkpt>
<trkpt lat="46.0311140" lon="10.4797930">
	<ele>2392.80</ele>
	<time>2023-08-06T06:35:30.000Z</time>
</trkpt>
<trkpt lat="46.0311150" lon="10.4797830">
	<ele>2392.80</ele>
	<time>2023-08-06T06:35:31.000Z</time>
</trkpt>
<trkpt lat="46.0311180" lon="10.4797750">
	<ele>2392.60</ele>
	<time>2023-08-06T06:35:32.000Z</time>
</trkpt>
<trkpt lat="46.0311220" lon="10.4797690">
	<ele>2392.40</ele>
	<time>2023-08-06T06:35:33.000Z</time>
</trkpt>
<trkpt lat="46.0311290" lon="10.4797670">
	<ele>2392.20</ele>
	<time>2023-08-06T06:35:34.000Z</time>
</trkpt>
<trkpt lat="46.0311380" lon="10.4797650">
	<ele>2392.00</ele>
	<time>2023-08-06T06:35:35.000Z</time>
</trkpt>
<trkpt lat="46.0311440" lon="10.4797590">
	<ele>2391.80</ele>
	<time>2023-08-06T06:35:36.000Z</time>
</trkpt>
<trkpt lat="46.0311470" lon="10.4797530">
	<ele>2391.40</ele>
	<time>2023-08-06T06:35:37.000Z</time>
</trkpt>
<trkpt lat="46.0311500" lon="10.4797480">
	<ele>2391.00</ele>
	<time>2023-08-06T06:35:38.000Z</time>
</trkpt>
<trkpt lat="46.0311530" lon="10.4797410">
	<ele>2390.80</ele>
	<time>2023-08-06T06:35:39.000Z</time>
</trkpt>
<trkpt lat="46.0311570" lon="10.4797300">
	<ele>2390.60</ele>
	<time>2023-08-06T06:35:40.000Z</time>
</trkpt>
<trkpt lat="46.0311580" lon="10.4797190">
	<ele>2390.40</ele>
	<time>2023-08-06T06:35:41.000Z</time>
</trkpt>
<trkpt lat="46.0311620" lon="10.4797130">
	<ele>2390.40</ele>
	<time>2023-08-06T06:35:42.000Z</time>
</trkpt>
<trkpt lat="46.0311660" lon="10.4797070">
	<ele>2390.20</ele>
	<time>2023-08-06T06:35:43.000Z</time>
</trkpt>
<trkpt lat="46.0311700" lon="10.4796970">
	<ele>2390.00</ele>
	<time>2023-08-06T06:35:44.000Z</time>
</trkpt>
<trkpt lat="46.0311720" lon="10.4796900">
	<ele>2390.00</ele>
	<time>2023-08-06T06:35:45.000Z</time>
</trkpt>
<trkpt lat="46.0311760" lon="10.4796830">
	<ele>2389.80</ele>
	<time>2023-08-06T06:35:46.000Z</time>
</trkpt>
<trkpt lat="46.0311810" lon="10.4796780">
	<ele>2389.60</ele>
	<time>2023-08-06T06:35:47.000Z</time>
</trkpt>
<trkpt lat="46.0311870" lon="10.4796700">
	<ele>2389.60</ele>
	<time>2023-08-06T06:35:48.000Z</time>
</trkpt>
<trkpt lat="46.0311940" lon="10.4796670">
	<ele>2389.40</ele>
	<time>2023-08-06T06:35:49.000Z</time>
</trkpt>
<trkpt lat="46.0311970" lon="10.4796630">
	<ele>2389.00</ele>
	<time>2023-08-06T06:35:50.000Z</time>
</trkpt>
<trkpt lat="46.0312010" lon="10.4796620">
	<ele>2388.80</ele>
	<time>2023-08-06T06:35:51.000Z</time>
</trkpt>
<trkpt lat="46.0312050" lon="10.4796590">
	<ele>2388.60</ele>
	<time>2023-08-06T06:35:52.000Z</time>
</trkpt>
<trkpt lat="46.0312140" lon="10.4796590">
	<ele>2388.40</ele>
	<time>2023-08-06T06:35:53.000Z</time>
</trkpt>
<trkpt lat="46.0312200" lon="10.4796550">
	<ele>2388.20</ele>
	<time>2023-08-06T06:35:54.000Z</time>
</trkpt>
<trkpt lat="46.0312220" lon="10.4796500">
	<ele>2387.80</ele>
	<time>2023-08-06T06:35:55.000Z</time>
</trkpt>
<trkpt lat="46.0312260" lon="10.4796450">
	<ele>2387.60</ele>
	<time>2023-08-06T06:35:56.000Z</time>
</trkpt>
<trkpt lat="46.0312300" lon="10.4796420">
	<ele>2387.40</ele>
	<time>2023-08-06T06:35:57.000Z</time>
</trkpt>
<trkpt lat="46.0312380" lon="10.4796450">
	<ele>2387.40</ele>
	<time>2023-08-06T06:35:58.000Z</time>
</trkpt>
<trkpt lat="46.0312430" lon="10.4796490">
	<ele>2387.20</ele>
	<time>2023-08-06T06:35:59.000Z</time>
</trkpt>
<trkpt lat="46.0312480" lon="10.4796550">
	<ele>2387.00</ele>
	<time>2023-08-06T06:36:00.000Z</time>
</trkpt>
<trkpt lat="46.0312540" lon="10.4796630">
	<ele>2387.00</ele>
	<time>2023-08-06T06:36:01.000Z</time>
</trkpt>
<trkpt lat="46.0312580" lon="10.4796700">
	<ele>2386.80</ele>
	<time>2023-08-06T06:36:02.000Z</time>
</trkpt>
<trkpt lat="46.0312660" lon="10.4796800">
	<ele>2386.40</ele>
	<time>2023-08-06T06:36:03.000Z</time>
</trkpt>
<trkpt lat="46.0312680" lon="10.4796900">
	<ele>2386.20</ele>
	<time>2023-08-06T06:36:04.000Z</time>
</trkpt>
<trkpt lat="46.0312700" lon="10.4796980">
	<ele>2386.00</ele>
	<time>2023-08-06T06:36:05.000Z</time>
</trkpt>
<trkpt lat="46.0312750" lon="10.4797140">
	<ele>2385.60</ele>
	<time>2023-08-06T06:36:06.000Z</time>
</trkpt>
<trkpt lat="46.0312750" lon="10.4797250">
	<ele>2385.40</ele>
	<time>2023-08-06T06:36:07.000Z</time>
</trkpt>
<trkpt lat="46.0312740" lon="10.4797340">
	<ele>2385.20</ele>
	<time>2023-08-06T06:36:08.000Z</time>
</trkpt>
<trkpt lat="46.0312700" lon="10.4797420">
	<ele>2385.20</ele>
	<time>2023-08-06T06:36:09.000Z</time>
</trkpt>
<trkpt lat="46.0312680" lon="10.4797510">
	<ele>2385.00</ele>
	<time>2023-08-06T06:36:10.000Z</time>
</trkpt>
<trkpt lat="46.0312690" lon="10.4797590">
	<ele>2385.00</ele>
	<time>2023-08-06T06:36:11.000Z</time>
</trkpt>
<trkpt lat="46.0312690" lon="10.4797670">
	<ele>2384.80</ele>
	<time>2023-08-06T06:36:12.000Z</time>
</trkpt>
<trkpt lat="46.0312690" lon="10.4797780">
	<ele>2384.60</ele>
	<time>2023-08-06T06:36:13.000Z</time>
</trkpt>
<trkpt lat="46.0312700" lon="10.4797840">
	<ele>2384.40</ele>
	<time>2023-08-06T06:36:14.000Z</time>
</trkpt>
<trkpt lat="46.0312700" lon="10.4797910">
	<ele>2384.20</ele>
	<time>2023-08-06T06:36:15.000Z</time>
</trkpt>
<trkpt lat="46.0312660" lon="10.4797990">
	<ele>2384.20</ele>
	<time>2023-08-06T06:36:16.000Z</time>
</trkpt>
<trkpt lat="46.0312640" lon="10.4798050">
	<ele>2384.00</ele>
	<time>2023-08-06T06:36:17.000Z</time>
</trkpt>
<trkpt lat="46.0312630" lon="10.4798100">
	<ele>2384.00</ele>
	<time>2023-08-06T06:36:18.000Z</time>
</trkpt>
<trkpt lat="46.0312630" lon="10.4798190">
	<ele>2383.80</ele>
	<time>2023-08-06T06:36:19.000Z</time>
</trkpt>
<trkpt lat="46.0312620" lon="10.4798230">
	<ele>2383.80</ele>
	<time>2023-08-06T06:36:20.000Z</time>
</trkpt>
<trkpt lat="46.0312630" lon="10.4798280">
	<ele>2383.80</ele>
	<time>2023-08-06T06:36:21.000Z</time>
</trkpt>
<trkpt lat="46.0312640" lon="10.4798330">
	<ele>2383.60</ele>
	<time>2023-08-06T06:36:22.000Z</time>
</trkpt>
<trkpt lat="46.0312640" lon="10.4798370">
	<ele>2383.60</ele>
	<time>2023-08-06T06:36:23.000Z</time>
</trkpt>
<trkpt lat="46.0312680" lon="10.4798430">
	<ele>2383.40</ele>
	<time>2023-08-06T06:36:24.000Z</time>
</trkpt>
<trkpt lat="46.0312700" lon="10.4798500">
	<ele>2383.20</ele>
	<time>2023-08-06T06:36:25.000Z</time>
</trkpt>
<trkpt lat="46.0312740" lon="10.4798560">
	<ele>2382.80</ele>
	<time>2023-08-06T06:36:26.000Z</time>
</trkpt>
<trkpt lat="46.0312770" lon="10.4798610">
	<ele>2382.80</ele>
	<time>2023-08-06T06:36:27.000Z</time>
</trkpt>
<trkpt lat="46.0312790" lon="10.4798660">
	<ele>2382.60</ele>
	<time>2023-08-06T06:36:28.000Z</time>
</trkpt>
<trkpt lat="46.0312810" lon="10.4798750">
	<ele>2382.40</ele>
	<time>2023-08-06T06:36:29.000Z</time>
</trkpt>
<trkpt lat="46.0312810" lon="10.4798810">
	<ele>2382.20</ele>
	<time>2023-08-06T06:36:30.000Z</time>
</trkpt>
<trkpt lat="46.0312810" lon="10.4798860">
	<ele>2382.00</ele>
	<time>2023-08-06T06:36:31.000Z</time>
</trkpt>
<trkpt lat="46.0312810" lon="10.4798940">
	<ele>2381.80</ele>
	<time>2023-08-06T06:36:32.000Z</time>
</trkpt>
<trkpt lat="46.0312810" lon="10.4799010">
	<ele>2381.40</ele>
	<time>2023-08-06T06:36:33.000Z</time>
</trkpt>
<trkpt lat="46.0312820" lon="10.4799120">
	<ele>2381.40</ele>
	<time>2023-08-06T06:36:34.000Z</time>
</trkpt>
<trkpt lat="46.0312810" lon="10.4799230">
	<ele>2381.00</ele>
	<time>2023-08-06T06:36:35.000Z</time>
</trkpt>
<trkpt lat="46.0312790" lon="10.4799300">
	<ele>2380.80</ele>
	<time>2023-08-06T06:36:36.000Z</time>
</trkpt>
<trkpt lat="46.0312780" lon="10.4799370">
	<ele>2380.60</ele>
	<time>2023-08-06T06:36:37.000Z</time>
</trkpt>
<trkpt lat="46.0312780" lon="10.4799470">
	<ele>2380.60</ele>
	<time>2023-08-06T06:36:38.000Z</time>
</trkpt>
<trkpt lat="46.0312800" lon="10.4799520">
	<ele>2380.60</ele>
	<time>2023-08-06T06:36:39.000Z</time>
</trkpt>
<trkpt lat="46.0312850" lon="10.4799610">
	<ele>2380.20</ele>
	<time>2023-08-06T06:36:40.000Z</time>
</trkpt>
<trkpt lat="46.0312870" lon="10.4799700">
	<ele>2379.80</ele>
	<time>2023-08-06T06:36:41.000Z</time>
</trkpt>
<trkpt lat="46.0312850" lon="10.4799800">
	<ele>2379.80</ele>
	<time>2023-08-06T06:36:42.000Z</time>
</trkpt>
<trkpt lat="46.0312850" lon="10.4799900">
	<ele>2379.60</ele>
	<time>2023-08-06T06:36:43.000Z</time>
</trkpt>
<trkpt lat="46.0312850" lon="10.4799990">
	<ele>2379.40</ele>
	<time>2023-08-06T06:36:44.000Z</time>
</trkpt>
<trkpt lat="46.0312860" lon="10.4800050">
	<ele>2379.20</ele>
	<time>2023-08-06T06:36:45.000Z</time>
</trkpt>
<trkpt lat="46.0312880" lon="10.4800110">
	<ele>2379.20</ele>
	<time>2023-08-06T06:36:46.000Z</time>
</trkpt>
<trkpt lat="46.0312900" lon="10.4800090">
	<ele>2379.00</ele>
	<time>2023-08-06T06:36:47.000Z</time>
</trkpt>
<trkpt lat="46.0312960" lon="10.4800090">
	<ele>2378.80</ele>
	<time>2023-08-06T06:36:48.000Z</time>
</trkpt>
<trkpt lat="46.0313030" lon="10.4800110">
	<ele>2378.60</ele>
	<time>2023-08-06T06:36:49.000Z</time>
</trkpt>
<trkpt lat="46.0313070" lon="10.4800180">
	<ele>2378.40</ele>
	<time>2023-08-06T06:36:50.000Z</time>
</trkpt>
<trkpt lat="46.0313070" lon="10.4800280">
	<ele>2378.20</ele>
	<time>2023-08-06T06:36:51.000Z</time>
</trkpt>
<trkpt lat="46.0313040" lon="10.4800380">
	<ele>2378.00</ele>
	<time>2023-08-06T06:36:52.000Z</time>
</trkpt>
<trkpt lat="46.0313010" lon="10.4800460">
	<ele>2378.00</ele>
	<time>2023-08-06T06:36:53.000Z</time>
</trkpt>
<trkpt lat="46.0312990" lon="10.4800540">
	<ele>2377.80</ele>
	<time>2023-08-06T06:36:54.000Z</time>
</trkpt>
<trkpt lat="46.0312980" lon="10.4800640">
	<ele>2377.60</ele>
	<time>2023-08-06T06:36:55.000Z</time>
</trkpt>
<trkpt lat="46.0312960" lon="10.4800720">
	<ele>2377.40</ele>
	<time>2023-08-06T06:36:56.000Z</time>
</trkpt>
<trkpt lat="46.0312950" lon="10.4800790">
	<ele>2377.40</ele>
	<time>2023-08-06T06:36:57.000Z</time>
</trkpt>
<trkpt lat="46.0312970" lon="10.4800870">
	<ele>2377.20</ele>
	<time>2023-08-06T06:36:58.000Z</time>
</trkpt>
<trkpt lat="46.0312990" lon="10.4800960">
	<ele>2377.20</ele>
	<time>2023-08-06T06:36:59.000Z</time>
</trkpt>
<trkpt lat="46.0313020" lon="10.4801030">
	<ele>2377.00</ele>
	<time>2023-08-06T06:37:00.000Z</time>
</trkpt>
<trkpt lat="46.0313100" lon="10.4801110">
	<ele>2376.80</ele>
	<time>2023-08-06T06:37:01.000Z</time>
</trkpt>
<trkpt lat="46.0313150" lon="10.4801230">
	<ele>2376.60</ele>
	<time>2023-08-06T06:37:02.000Z</time>
</trkpt>
<trkpt lat="46.0313160" lon="10.4801300">
	<ele>2376.60</ele>
	<time>2023-08-06T06:37:03.000Z</time>
</trkpt>
<trkpt lat="46.0313170" lon="10.4801430">
	<ele>2376.40</ele>
	<time>2023-08-06T06:37:04.000Z</time>
</trkpt>
<trkpt lat="46.0313210" lon="10.4801520">
	<ele>2376.20</ele>
	<time>2023-08-06T06:37:05.000Z</time>
</trkpt>
<trkpt lat="46.0313260" lon="10.4801610">
	<ele>2376.00</ele>
	<time>2023-08-06T06:37:06.000Z</time>
</trkpt>
<trkpt lat="46.0313280" lon="10.4801700">
	<ele>2375.80</ele>
	<time>2023-08-06T06:37:07.000Z</time>
</trkpt>
<trkpt lat="46.0313290" lon="10.4801780">
	<ele>2375.60</ele>
	<time>2023-08-06T06:37:08.000Z</time>
</trkpt>
<trkpt lat="46.0313280" lon="10.4801840">
	<ele>2375.40</ele>
	<time>2023-08-06T06:37:09.000Z</time>
</trkpt>
<trkpt lat="46.0313290" lon="10.4801890">
	<ele>2375.20</ele>
	<time>2023-08-06T06:37:10.000Z</time>
</trkpt>
<trkpt lat="46.0313300" lon="10.4801930">
	<ele>2375.20</ele>
	<time>2023-08-06T06:37:11.000Z</time>
</trkpt>
<trkpt lat="46.0313340" lon="10.4801950">
	<ele>2374.80</ele>
	<time>2023-08-06T06:37:12.000Z</time>
</trkpt>
<trkpt lat="46.0313370" lon="10.4802050">
	<ele>2374.60</ele>
	<time>2023-08-06T06:37:13.000Z</time>
</trkpt>
<trkpt lat="46.0313390" lon="10.4802160">
	<ele>2374.40</ele>
	<time>2023-08-06T06:37:14.000Z</time>
</trkpt>
<trkpt lat="46.0313430" lon="10.4802300">
	<ele>2374.00</ele>
	<time>2023-08-06T06:37:15.000Z</time>
</trkpt>
<trkpt lat="46.0313450" lon="10.4802420">
	<ele>2373.80</ele>
	<time>2023-08-06T06:37:16.000Z</time>
</trkpt>
<trkpt lat="46.0313470" lon="10.4802510">
	<ele>2373.40</ele>
	<time>2023-08-06T06:37:17.000Z</time>
</trkpt>
<trkpt lat="46.0313480" lon="10.4802630">
	<ele>2373.00</ele>
	<time>2023-08-06T06:37:18.000Z</time>
</trkpt>
<trkpt lat="46.0313520" lon="10.4802720">
	<ele>2373.00</ele>
	<time>2023-08-06T06:37:19.000Z</time>
</trkpt>
<trkpt lat="46.0313580" lon="10.4802790">
	<ele>2372.80</ele>
	<time>2023-08-06T06:37:20.000Z</time>
</trkpt>
<trkpt lat="46.0313620" lon="10.4802850">
	<ele>2372.80</ele>
	<time>2023-08-06T06:37:21.000Z</time>
</trkpt>
<trkpt lat="46.0313600" lon="10.4802940">
	<ele>2372.60</ele>
	<time>2023-08-06T06:37:22.000Z</time>
</trkpt>
<trkpt lat="46.0313570" lon="10.4803040">
	<ele>2372.40</ele>
	<time>2023-08-06T06:37:23.000Z</time>
</trkpt>
<trkpt lat="46.0313570" lon="10.4803190">
	<ele>2372.20</ele>
	<time>2023-08-06T06:37:24.000Z</time>
</trkpt>
<trkpt lat="46.0313580" lon="10.4803300">
	<ele>2372.20</ele>
	<time>2023-08-06T06:37:25.000Z</time>
</trkpt>
<trkpt lat="46.0313610" lon="10.4803390">
	<ele>2372.20</ele>
	<time>2023-08-06T06:37:26.000Z</time>
</trkpt>
<trkpt lat="46.0313610" lon="10.4803520">
	<ele>2372.20</ele>
	<time>2023-08-06T06:37:27.000Z</time>
</trkpt>
<trkpt lat="46.0313590" lon="10.4803600">
	<ele>2372.00</ele>
	<time>2023-08-06T06:37:28.000Z</time>
</trkpt>
<trkpt lat="46.0313560" lon="10.4803740">
	<ele>2371.80</ele>
	<time>2023-08-06T06:37:29.000Z</time>
</trkpt>
<trkpt lat="46.0313550" lon="10.4803840">
	<ele>2371.80</ele>
	<time>2023-08-06T06:37:30.000Z</time>
</trkpt>
<trkpt lat="46.0313540" lon="10.4803980">
	<ele>2371.60</ele>
	<time>2023-08-06T06:37:31.000Z</time>
</trkpt>
<trkpt lat="46.0313530" lon="10.4804160">
	<ele>2371.60</ele>
	<time>2023-08-06T06:37:32.000Z</time>
</trkpt>
<trkpt lat="46.0313490" lon="10.4804290">
	<ele>2371.60</ele>
	<time>2023-08-06T06:37:33.000Z</time>
</trkpt>
<trkpt lat="46.0313460" lon="10.4804380">
	<ele>2371.60</ele>
	<time>2023-08-06T06:37:34.000Z</time>
</trkpt>
<trkpt lat="46.0313450" lon="10.4804450">
	<ele>2371.80</ele>
	<time>2023-08-06T06:37:35.000Z</time>
</trkpt>
<trkpt lat="46.0313430" lon="10.4804550">
	<ele>2371.80</ele>
	<time>2023-08-06T06:37:36.000Z</time>
</trkpt>
<trkpt lat="46.0313410" lon="10.4804680">
	<ele>2371.80</ele>
	<time>2023-08-06T06:37:37.000Z</time>
</trkpt>
<trkpt lat="46.0313380" lon="10.4804840">
	<ele>2371.80</ele>
	<time>2023-08-06T06:37:38.000Z</time>
</trkpt>
<trkpt lat="46.0313360" lon="10.4804930">
	<ele>2372.00</ele>
	<time>2023-08-06T06:37:39.000Z</time>
</trkpt>
<trkpt lat="46.0313320" lon="10.4804990">
	<ele>2372.00</ele>
	<time>2023-08-06T06:37:40.000Z</time>
</trkpt>
<trkpt lat="46.0313260" lon="10.4805100">
	<ele>2372.20</ele>
	<time>2023-08-06T06:37:41.000Z</time>
</trkpt>
<trkpt lat="46.0313230" lon="10.4805180">
	<ele>2372.20</ele>
	<time>2023-08-06T06:37:42.000Z</time>
</trkpt>
<trkpt lat="46.0313200" lon="10.4805260">
	<ele>2372.20</ele>
	<time>2023-08-06T06:37:43.000Z</time>
</trkpt>
<trkpt lat="46.0313200" lon="10.4805320">
	<ele>2372.20</ele>
	<time>2023-08-06T06:37:44.000Z</time>
</trkpt>
<trkpt lat="46.0313180" lon="10.4805440">
	<ele>2372.20</ele>
	<time>2023-08-06T06:37:45.000Z</time>
</trkpt>
<trkpt lat="46.0313210" lon="10.4805510">
	<ele>2372.20</ele>
	<time>2023-08-06T06:37:46.000Z</time>
</trkpt>
<trkpt lat="46.0313230" lon="10.4805590">
	<ele>2372.20</ele>
	<time>2023-08-06T06:37:47.000Z</time>
</trkpt>
<trkpt lat="46.0313260" lon="10.4805690">
	<ele>2372.00</ele>
	<time>2023-08-06T06:37:48.000Z</time>
</trkpt>
<trkpt lat="46.0313280" lon="10.4805790">
	<ele>2372.00</ele>
	<time>2023-08-06T06:37:49.000Z</time>
</trkpt>
<trkpt lat="46.0313270" lon="10.4805830">
	<ele>2372.00</ele>
	<time>2023-08-06T06:37:50.000Z</time>
</trkpt>
<trkpt lat="46.0313270" lon="10.4805890">
	<ele>2371.80</ele>
	<time>2023-08-06T06:37:51.000Z</time>
</trkpt>
<trkpt lat="46.0313270" lon="10.4805960">
	<ele>2371.60</ele>
	<time>2023-08-06T06:37:52.000Z</time>
</trkpt>
<trkpt lat="46.0313290" lon="10.4806050">
	<ele>2371.40</ele>
	<time>2023-08-06T06:37:53.000Z</time>
</trkpt>
<trkpt lat="46.0313340" lon="10.4806150">
	<ele>2371.20</ele>
	<time>2023-08-06T06:37:54.000Z</time>
</trkpt>
<trkpt lat="46.0313390" lon="10.4806260">
	<ele>2371.00</ele>
	<time>2023-08-06T06:37:55.000Z</time>
</trkpt>
<trkpt lat="46.0313440" lon="10.4806390">
	<ele>2371.00</ele>
	<time>2023-08-06T06:37:56.000Z</time>
</trkpt>
<trkpt lat="46.0313440" lon="10.4806490">
	<ele>2370.80</ele>
	<time>2023-08-06T06:37:57.000Z</time>
</trkpt>
<trkpt lat="46.0313400" lon="10.4806610">
	<ele>2370.80</ele>
	<time>2023-08-06T06:37:58.000Z</time>
</trkpt>
<trkpt lat="46.0313360" lon="10.4806730">
	<ele>2370.80</ele>
	<time>2023-08-06T06:37:59.000Z</time>
</trkpt>
<trkpt lat="46.0313350" lon="10.4806820">
	<ele>2370.80</ele>
	<time>2023-08-06T06:38:00.000Z</time>
</trkpt>
<trkpt lat="46.0313320" lon="10.4806930">
	<ele>2370.80</ele>
	<time>2023-08-06T06:38:01.000Z</time>
</trkpt>
<trkpt lat="46.0313290" lon="10.4807040">
	<ele>2371.00</ele>
	<time>2023-08-06T06:38:02.000Z</time>
</trkpt>
<trkpt lat="46.0313240" lon="10.4807160">
	<ele>2371.00</ele>
	<time>2023-08-06T06:38:03.000Z</time>
</trkpt>
<trkpt lat="46.0313210" lon="10.4807230">
	<ele>2371.00</ele>
	<time>2023-08-06T06:38:04.000Z</time>
</trkpt>
<trkpt lat="46.0313190" lon="10.4807290">
	<ele>2371.20</ele>
	<time>2023-08-06T06:38:05.000Z</time>
</trkpt>
<trkpt lat="46.0313150" lon="10.4807390">
	<ele>2371.40</ele>
	<time>2023-08-06T06:38:06.000Z</time>
</trkpt>
<trkpt lat="46.0313110" lon="10.4807470">
	<ele>2371.60</ele>
	<time>2023-08-06T06:38:07.000Z</time>
</trkpt>
<trkpt lat="46.0313090" lon="10.4807540">
	<ele>2371.60</ele>
	<time>2023-08-06T06:38:08.000Z</time>
</trkpt>
<trkpt lat="46.0313060" lon="10.4807640">
	<ele>2371.60</ele>
	<time>2023-08-06T06:38:09.000Z</time>
</trkpt>
<trkpt lat="46.0313030" lon="10.4807780">
	<ele>2371.80</ele>
	<time>2023-08-06T06:38:10.000Z</time>
</trkpt>
<trkpt lat="46.0313030" lon="10.4807940">
	<ele>2371.80</ele>
	<time>2023-08-06T06:38:11.000Z</time>
</trkpt>
<trkpt lat="46.0313030" lon="10.4808080">
	<ele>2371.80</ele>
	<time>2023-08-06T06:38:12.000Z</time>
</trkpt>
<trkpt lat="46.0313020" lon="10.4808220">
	<ele>2372.00</ele>
	<time>2023-08-06T06:38:13.000Z</time>
</trkpt>
<trkpt lat="46.0312990" lon="10.4808330">
	<ele>2372.00</ele>
	<time>2023-08-06T06:38:14.000Z</time>
</trkpt>
<trkpt lat="46.0312960" lon="10.4808450">
	<ele>2372.20</ele>
	<time>2023-08-06T06:38:15.000Z</time>
</trkpt>
<trkpt lat="46.0312980" lon="10.4808580">
	<ele>2372.40</ele>
	<time>2023-08-06T06:38:16.000Z</time>
</trkpt>
<trkpt lat="46.0312970" lon="10.4808700">
	<ele>2372.40</ele>
	<time>2023-08-06T06:38:17.000Z</time>
</trkpt>
<trkpt lat="46.0312950" lon="10.4808820">
	<ele>2372.40</ele>
	<time>2023-08-06T06:38:18.000Z</time>
</trkpt>
<trkpt lat="46.0312940" lon="10.4808890">
	<ele>2372.40</ele>
	<time>2023-08-06T06:38:19.000Z</time>
</trkpt>
<trkpt lat="46.0312910" lon="10.4809000">
	<ele>2372.40</ele>
	<time>2023-08-06T06:38:20.000Z</time>
</trkpt>
<trkpt lat="46.0312850" lon="10.4809110">
	<ele>2372.40</ele>
	<time>2023-08-06T06:38:21.000Z</time>
</trkpt>
<trkpt lat="46.0312840" lon="10.4809210">
	<ele>2372.20</ele>
	<time>2023-08-06T06:38:22.000Z</time>
</trkpt>
<trkpt lat="46.0312850" lon="10.4809320">
	<ele>2372.20</ele>
	<time>2023-08-06T06:38:23.000Z</time>
</trkpt>
<trkpt lat="46.0312870" lon="10.4809410">
	<ele>2372.00</ele>
	<time>2023-08-06T06:38:24.000Z</time>
</trkpt>
<trkpt lat="46.0312920" lon="10.4809550">
	<ele>2372.00</ele>
	<time>2023-08-06T06:38:25.000Z</time>
</trkpt>
<trkpt lat="46.0312950" lon="10.4809640">
	<ele>2372.00</ele>
	<time>2023-08-06T06:38:26.000Z</time>
</trkpt>
<trkpt lat="46.0312990" lon="10.4809740">
	<ele>2372.00</ele>
	<time>2023-08-06T06:38:27.000Z</time>
</trkpt>
<trkpt lat="46.0313030" lon="10.4809850">
	<ele>2372.00</ele>
	<time>2023-08-06T06:38:28.000Z</time>
</trkpt>
<trkpt lat="46.0313080" lon="10.4809980">
	<ele>2371.80</ele>
	<time>2023-08-06T06:38:29.000Z</time>
</trkpt>
<trkpt lat="46.0313120" lon="10.4810080">
	<ele>2371.80</ele>
	<time>2023-08-06T06:38:30.000Z</time>
</trkpt>
<trkpt lat="46.0313160" lon="10.4810160">
	<ele>2371.80</ele>
	<time>2023-08-06T06:38:31.000Z</time>
</trkpt>
<trkpt lat="46.0313190" lon="10.4810330">
	<ele>2371.80</ele>
	<time>2023-08-06T06:38:32.000Z</time>
</trkpt>
<trkpt lat="46.0313220" lon="10.4810510">
	<ele>2371.80</ele>
	<time>2023-08-06T06:38:33.000Z</time>
</trkpt>
<trkpt lat="46.0313250" lon="10.4810670">
	<ele>2371.80</ele>
	<time>2023-08-06T06:38:34.000Z</time>
</trkpt>
<trkpt lat="46.0313250" lon="10.4810790">
	<ele>2371.80</ele>
	<time>2023-08-06T06:38:35.000Z</time>
</trkpt>
<trkpt lat="46.0313240" lon="10.4810900">
	<ele>2371.80</ele>
	<time>2023-08-06T06:38:36.000Z</time>
</trkpt>
<trkpt lat="46.0313210" lon="10.4811030">
	<ele>2371.80</ele>
	<time>2023-08-06T06:38:37.000Z</time>
</trkpt>
<trkpt lat="46.0313160" lon="10.4811110">
	<ele>2372.00</ele>
	<time>2023-08-06T06:38:38.000Z</time>
</trkpt>
<trkpt lat="46.0313130" lon="10.4811220">
	<ele>2372.00</ele>
	<time>2023-08-06T06:38:39.000Z</time>
</trkpt>
<trkpt lat="46.0313110" lon="10.4811330">
	<ele>2372.00</ele>
	<time>2023-08-06T06:38:40.000Z</time>
</trkpt>
<trkpt lat="46.0313080" lon="10.4811430">
	<ele>2372.20</ele>
	<time>2023-08-06T06:38:41.000Z</time>
</trkpt>
<trkpt lat="46.0313030" lon="10.4811510">
	<ele>2372.20</ele>
	<time>2023-08-06T06:38:42.000Z</time>
</trkpt>
<trkpt lat="46.0313000" lon="10.4811600">
	<ele>2372.40</ele>
	<time>2023-08-06T06:38:43.000Z</time>
</trkpt>
<trkpt lat="46.0312990" lon="10.4811690">
	<ele>2372.60</ele>
	<time>2023-08-06T06:38:44.000Z</time>
</trkpt>
<trkpt lat="46.0312950" lon="10.4811760">
	<ele>2372.80</ele>
	<time>2023-08-06T06:38:45.000Z</time>
</trkpt>
<trkpt lat="46.0312890" lon="10.4811830">
	<ele>2373.00</ele>
	<time>2023-08-06T06:38:46.000Z</time>
</trkpt>
<trkpt lat="46.0312860" lon="10.4811870">
	<ele>2373.20</ele>
	<time>2023-08-06T06:38:47.000Z</time>
</trkpt>
<trkpt lat="46.0312830" lon="10.4811910">
	<ele>2373.40</ele>
	<time>2023-08-06T06:38:48.000Z</time>
</trkpt>
<trkpt lat="46.0312800" lon="10.4811990">
	<ele>2373.60</ele>
	<time>2023-08-06T06:38:49.000Z</time>
</trkpt>
<trkpt lat="46.0312780" lon="10.4812100">
	<ele>2373.60</ele>
	<time>2023-08-06T06:38:50.000Z</time>
</trkpt>
<trkpt lat="46.0312810" lon="10.4812210">
	<ele>2373.60</ele>
	<time>2023-08-06T06:38:51.000Z</time>
</trkpt>
<trkpt lat="46.0312830" lon="10.4812320">
	<ele>2373.60</ele>
	<time>2023-08-06T06:38:52.000Z</time>
</trkpt>
<trkpt lat="46.0312790" lon="10.4812430">
	<ele>2373.80</ele>
	<time>2023-08-06T06:38:53.000Z</time>
</trkpt>
<trkpt lat="46.0312760" lon="10.4812510">
	<ele>2373.80</ele>
	<time>2023-08-06T06:38:54.000Z</time>
</trkpt>
<trkpt lat="46.0312740" lon="10.4812610">
	<ele>2373.80</ele>
	<time>2023-08-06T06:38:55.000Z</time>
</trkpt>
<trkpt lat="46.0312720" lon="10.4812760">
	<ele>2373.80</ele>
	<time>2023-08-06T06:38:56.000Z</time>
</trkpt>
<trkpt lat="46.0312710" lon="10.4812890">
	<ele>2374.00</ele>
	<time>2023-08-06T06:38:57.000Z</time>
</trkpt>
<trkpt lat="46.0312700" lon="10.4813030">
	<ele>2374.00</ele>
	<time>2023-08-06T06:38:58.000Z</time>
</trkpt>
<trkpt lat="46.0312660" lon="10.4813160">
	<ele>2374.00</ele>
	<time>2023-08-06T06:38:59.000Z</time>
</trkpt>
<trkpt lat="46.0312650" lon="10.4813260">
	<ele>2374.00</ele>
	<time>2023-08-06T06:39:00.000Z</time>
</trkpt>
<trkpt lat="46.0312580" lon="10.4813380">
	<ele>2374.00</ele>
	<time>2023-08-06T06:39:01.000Z</time>
</trkpt>
<trkpt lat="46.0312530" lon="10.4813480">
	<ele>2374.00</ele>
	<time>2023-08-06T06:39:02.000Z</time>
</trkpt>
<trkpt lat="46.0312500" lon="10.4813570">
	<ele>2374.00</ele>
	<time>2023-08-06T06:39:03.000Z</time>
</trkpt>
<trkpt lat="46.0312470" lon="10.4813660">
	<ele>2374.20</ele>
	<time>2023-08-06T06:39:04.000Z</time>
</trkpt>
<trkpt lat="46.0312470" lon="10.4813750">
	<ele>2374.20</ele>
	<time>2023-08-06T06:39:05.000Z</time>
</trkpt>
<trkpt lat="46.0312470" lon="10.4813830">
	<ele>2374.20</ele>
	<time>2023-08-06T06:39:06.000Z</time>
</trkpt>
<trkpt lat="46.0312500" lon="10.4813930">
	<ele>2374.20</ele>
	<time>2023-08-06T06:39:07.000Z</time>
</trkpt>
<trkpt lat="46.0312540" lon="10.4814000">
	<ele>2374.20</ele>
	<time>2023-08-06T06:39:08.000Z</time>
</trkpt>
<trkpt lat="46.0312580" lon="10.4814070">
	<ele>2374.00</ele>
	<time>2023-08-06T06:39:09.000Z</time>
</trkpt>
<trkpt lat="46.0312620" lon="10.4814130">
	<ele>2374.00</ele>
	<time>2023-08-06T06:39:10.000Z</time>
</trkpt>
<trkpt lat="46.0312680" lon="10.4814180">
	<ele>2373.80</ele>
	<time>2023-08-06T06:39:11.000Z</time>
</trkpt>
<trkpt lat="46.0312720" lon="10.4814220">
	<ele>2373.60</ele>
	<time>2023-08-06T06:39:12.000Z</time>
</trkpt>
<trkpt lat="46.0312790" lon="10.4814240">
	<ele>2373.40</ele>
	<time>2023-08-06T06:39:13.000Z</time>
</trkpt>
<trkpt lat="46.0312820" lon="10.4814240">
	<ele>2373.20</ele>
	<time>2023-08-06T06:39:14.000Z</time>
</trkpt>
<trkpt lat="46.0312880" lon="10.4814240">
	<ele>2373.00</ele>
	<time>2023-08-06T06:39:15.000Z</time>
</trkpt>
<trkpt lat="46.0312950" lon="10.4814330">
	<ele>2372.80</ele>
	<time>2023-08-06T06:39:16.000Z</time>
</trkpt>
<trkpt lat="46.0313000" lon="10.4814410">
	<ele>2372.80</ele>
	<time>2023-08-06T06:39:17.000Z</time>
</trkpt>
<trkpt lat="46.0313040" lon="10.4814500">
	<ele>2372.60</ele>
	<time>2023-08-06T06:39:18.000Z</time>
</trkpt>
<trkpt lat="46.0313090" lon="10.4814610">
	<ele>2372.40</ele>
	<time>2023-08-06T06:39:19.000Z</time>
</trkpt>
<trkpt lat="46.0313110" lon="10.4814700">
	<ele>2372.20</ele>
	<time>2023-08-06T06:39:20.000Z</time>
</trkpt>
<trkpt lat="46.0313120" lon="10.4814800">
	<ele>2372.00</ele>
	<time>2023-08-06T06:39:21.000Z</time>
</trkpt>
<trkpt lat="46.0313140" lon="10.4814870">
	<ele>2371.80</ele>
	<time>2023-08-06T06:39:22.000Z</time>
</trkpt>
<trkpt lat="46.0313170" lon="10.4814890">
	<ele>2371.80</ele>
	<time>2023-08-06T06:39:23.000Z</time>
</trkpt>
<trkpt lat="46.0313220" lon="10.4814900">
	<ele>2371.60</ele>
	<time>2023-08-06T06:39:24.000Z</time>
</trkpt>
<trkpt lat="46.0313310" lon="10.4814900">
	<ele>2371.60</ele>
	<time>2023-08-06T06:39:25.000Z</time>
</trkpt>
<trkpt lat="46.0313370" lon="10.4814820">
	<ele>2371.40</ele>
	<time>2023-08-06T06:39:26.000Z</time>
</trkpt>
<trkpt lat="46.0313410" lon="10.4814740">
	<ele>2371.20</ele>
	<time>2023-08-06T06:39:27.000Z</time>
</trkpt>
<trkpt lat="46.0313450" lon="10.4814750">
	<ele>2371.00</ele>
	<time>2023-08-06T06:39:28.000Z</time>
</trkpt>
<trkpt lat="46.0313510" lon="10.4814850">
	<ele>2370.80</ele>
	<time>2023-08-06T06:39:29.000Z</time>
</trkpt>
<trkpt lat="46.0313520" lon="10.4814940">
	<ele>2370.60</ele>
	<time>2023-08-06T06:39:30.000Z</time>
</trkpt>
<trkpt lat="46.0313530" lon="10.4815020">
	<ele>2370.40</ele>
	<time>2023-08-06T06:39:31.000Z</time>
</trkpt>
<trkpt lat="46.0313550" lon="10.4815110">
	<ele>2370.20</ele>
	<time>2023-08-06T06:39:32.000Z</time>
</trkpt>
<trkpt lat="46.0313570" lon="10.4815210">
	<ele>2370.00</ele>
	<time>2023-08-06T06:39:33.000Z</time>
</trkpt>
<trkpt lat="46.0313580" lon="10.4815320">
	<ele>2369.80</ele>
	<time>2023-08-06T06:39:34.000Z</time>
</trkpt>
<trkpt lat="46.0313590" lon="10.4815420">
	<ele>2369.60</ele>
	<time>2023-08-06T06:39:35.000Z</time>
</trkpt>
<trkpt lat="46.0313580" lon="10.4815480">
	<ele>2369.60</ele>
	<time>2023-08-06T06:39:36.000Z</time>
</trkpt>
<trkpt lat="46.0313570" lon="10.4815540">
	<ele>2369.40</ele>
	<time>2023-08-06T06:39:37.000Z</time>
</trkpt>
<trkpt lat="46.0313560" lon="10.4815600">
	<ele>2369.20</ele>
	<time>2023-08-06T06:39:38.000Z</time>
</trkpt>
<trkpt lat="46.0313540" lon="10.4815650">
	<ele>2369.20</ele>
	<time>2023-08-06T06:39:39.000Z</time>
</trkpt>
<trkpt lat="46.0313520" lon="10.4815650">
	<ele>2369.00</ele>
	<time>2023-08-06T06:39:40.000Z</time>
</trkpt>
<trkpt lat="46.0313510" lon="10.4815680">
	<ele>2369.00</ele>
	<time>2023-08-06T06:39:41.000Z</time>
</trkpt>
<trkpt lat="46.0313520" lon="10.4815780">
	<ele>2368.80</ele>
	<time>2023-08-06T06:39:42.000Z</time>
</trkpt>
<trkpt lat="46.0313560" lon="10.4815910">
	<ele>2368.80</ele>
	<time>2023-08-06T06:39:43.000Z</time>
</trkpt>
<trkpt lat="46.0313590" lon="10.4816030">
	<ele>2368.80</ele>
	<time>2023-08-06T06:39:44.000Z</time>
</trkpt>
<trkpt lat="46.0313600" lon="10.4816110">
	<ele>2368.80</ele>
	<time>2023-08-06T06:39:45.000Z</time>
</trkpt>
<trkpt lat="46.0313590" lon="10.4816160">
	<ele>2368.60</ele>
	<time>2023-08-06T06:39:46.000Z</time>
</trkpt>
<trkpt lat="46.0313600" lon="10.4816220">
	<ele>2368.60</ele>
	<time>2023-08-06T06:39:47.000Z</time>
</trkpt>
<trkpt lat="46.0313570" lon="10.4816180">
	<ele>2368.40</ele>
	<time>2023-08-06T06:39:48.000Z</time>
</trkpt>
<trkpt lat="46.0313570" lon="10.4816160">
	<ele>2368.40</ele>
	<time>2023-08-06T06:39:49.000Z</time>
</trkpt>
<trkpt lat="46.0313560" lon="10.4816160">
	<ele>2368.40</ele>
	<time>2023-08-06T06:39:50.000Z</time>
</trkpt>
<trkpt lat="46.0313570" lon="10.4816170">
	<ele>2368.40</ele>
	<time>2023-08-06T06:39:51.000Z</time>
</trkpt>
<trkpt lat="46.0313580" lon="10.4816190">
	<ele>2368.40</ele>
	<time>2023-08-06T06:39:52.000Z</time>
</trkpt>
<trkpt lat="46.0313590" lon="10.4816180">
	<ele>2368.40</ele>
	<time>2023-08-06T06:39:53.000Z</time>
</trkpt>
<trkpt lat="46.0313630" lon="10.4816140">
	<ele>2368.40</ele>
	<time>2023-08-06T06:39:54.000Z</time>
</trkpt>
<trkpt lat="46.0313630" lon="10.4816140">
	<ele>2368.60</ele>
	<time>2023-08-06T06:39:55.000Z</time>
</trkpt>
<trkpt lat="46.0313630" lon="10.4816150">
	<ele>2368.80</ele>
	<time>2023-08-06T06:39:56.000Z</time>
</trkpt>
<trkpt lat="46.0313630" lon="10.4816150">
	<ele>2368.80</ele>
	<time>2023-08-06T06:39:57.000Z</time>
</trkpt>
<trkpt lat="46.0313630" lon="10.4816150">
	<ele>2368.80</ele>
	<time>2023-08-06T06:39:58.000Z</time>
</trkpt>
<trkpt lat="46.0313630" lon="10.4816150">
	<ele>2369.00</ele>
	<time>2023-08-06T06:39:59.000Z</time>
</trkpt>
<trkpt lat="46.0313630" lon="10.4816150">
	<ele>2369.00</ele>
	<time>2023-08-06T06:40:00.000Z</time>
</trkpt>
<trkpt lat="46.0313630" lon="10.4816150">
	<ele>2369.00</ele>
	<time>2023-08-06T06:40:01.000Z</time>
</trkpt>
<trkpt lat="46.0313630" lon="10.4816150">
	<ele>2369.00</ele>
	<time>2023-08-06T06:40:02.000Z</time>
</trkpt>
<trkpt lat="46.0313630" lon="10.4816150">
	<ele>2369.00</ele>
	<time>2023-08-06T06:40:03.000Z</time>
</trkpt>
<trkpt lat="46.0313630" lon="10.4816150">
	<ele>2369.00</ele>
	<time>2023-08-06T06:40:04.000Z</time>
</trkpt>
<trkpt lat="46.0313630" lon="10.4816150">
	<ele>2369.00</ele>
	<time>2023-08-06T06:40:05.000Z</time>
</trkpt>
<trkpt lat="46.0313630" lon="10.4816150">
	<ele>2369.00</ele>
	<time>2023-08-06T06:40:06.000Z</time>
</trkpt>
<trkpt lat="46.0313630" lon="10.4816150">
	<ele>2369.00</ele>
	<time>2023-08-06T06:40:07.000Z</time>
</trkpt>
<trkpt lat="46.0313630" lon="10.4816150">
	<ele>2369.00</ele>
	<time>2023-08-06T06:40:08.000Z</time>
</trkpt>
<trkpt lat="46.0313630" lon="10.4816150">
	<ele>2369.00</ele>
	<time>2023-08-06T06:40:09.000Z</time>
</trkpt>
<trkpt lat="46.0313630" lon="10.4816150">
	<ele>2369.00</ele>
	<time>2023-08-06T06:40:10.000Z</time>
</trkpt>
<trkpt lat="46.0313630" lon="10.4816150">
	<ele>2369.00</ele>
	<time>2023-08-06T06:40:11.000Z</time>
</trkpt>
<trkpt lat="46.0313630" lon="10.4816150">
	<ele>2369.00</ele>
	<time>2023-08-06T06:40:12.000Z</time>
</trkpt>
<trkpt lat="46.0313630" lon="10.4816150">
	<ele>2369.00</ele>
	<time>2023-08-06T06:40:13.000Z</time>
</trkpt>
<trkpt lat="46.0313630" lon="10.4816150">
	<ele>2369.00</ele>
	<time>2023-08-06T06:40:14.000Z</time>
</trkpt>
<trkpt lat="46.0313640" lon="10.4816150">
	<ele>2369.00</ele>
	<time>2023-08-06T06:40:15.000Z</time>
</trkpt>
<trkpt lat="46.0313640" lon="10.4816150">
	<ele>2369.00</ele>
	<time>2023-08-06T06:40:16.000Z</time>
</trkpt>
<trkpt lat="46.0313640" lon="10.4816150">
	<ele>2369.00</ele>
	<time>2023-08-06T06:40:17.000Z</time>
</trkpt>
<trkpt lat="46.0313640" lon="10.4816150">
	<ele>2369.00</ele>
	<time>2023-08-06T06:40:18.000Z</time>
</trkpt>
<trkpt lat="46.0313640" lon="10.4816150">
	<ele>2369.00</ele>
	<time>2023-08-06T06:40:19.000Z</time>
</trkpt>
<trkpt lat="46.0313640" lon="10.4816150">
	<ele>2368.80</ele>
	<time>2023-08-06T06:40:20.000Z</time>
</trkpt>
<trkpt lat="46.0313640" lon="10.4816150">
	<ele>2368.80</ele>
	<time>2023-08-06T06:40:21.000Z</time>
</trkpt>
<trkpt lat="46.0313640" lon="10.4816150">
	<ele>2368.80</ele>
	<time>2023-08-06T06:40:22.000Z</time>
</trkpt>
<trkpt lat="46.0313640" lon="10.4816150">
	<ele>2368.80</ele>
	<time>2023-08-06T06:40:23.000Z</time>
</trkpt>
<trkpt lat="46.0313640" lon="10.4816150">
	<ele>2368.80</ele>
	<time>2023-08-06T06:40:24.000Z</time>
</trkpt>
<trkpt lat="46.0313640" lon="10.4816150">
	<ele>2368.80</ele>
	<time>2023-08-06T06:40:25.000Z</time>
</trkpt>
<trkpt lat="46.0313640" lon="10.4816150">
	<ele>2368.80</ele>
	<time>2023-08-06T06:40:26.000Z</time>
</trkpt>
<trkpt lat="46.0313640" lon="10.4816150">
	<ele>2368.80</ele>
	<time>2023-08-06T06:40:27.000Z</time>
</trkpt>
<trkpt lat="46.0313640" lon="10.4816150">
	<ele>2368.80</ele>
	<time>2023-08-06T06:40:28.000Z</time>
</trkpt>
<trkpt lat="46.0313640" lon="10.4816150">
	<ele>2368.80</ele>
	<time>2023-08-06T06:40:29.000Z</time>
</trkpt>
<trkpt lat="46.0313640" lon="10.4816150">
	<ele>2368.80</ele>
	<time>2023-08-06T06:40:30.000Z</time>
</trkpt>
<trkpt lat="46.0313640" lon="10.4816160">
	<ele>2368.80</ele>
	<time>2023-08-06T06:40:31.000Z</time>
</trkpt>
<trkpt lat="46.0313640" lon="10.4816160">
	<ele>2368.80</ele>
	<time>2023-08-06T06:40:32.000Z</time>
</trkpt>
<trkpt lat="46.0313630" lon="10.4816160">
	<ele>2369.00</ele>
	<time>2023-08-06T06:40:33.000Z</time>
</trkpt>
<trkpt lat="46.0313620" lon="10.4816160">
	<ele>2369.00</ele>
	<time>2023-08-06T06:40:34.000Z</time>
</trkpt>
<trkpt lat="46.0313610" lon="10.4816160">
	<ele>2369.00</ele>
	<time>2023-08-06T06:40:35.000Z</time>
</trkpt>
<trkpt lat="46.0313600" lon="10.4816160">
	<ele>2369.00</ele>
	<time>2023-08-06T06:40:36.000Z</time>
</trkpt>
<trkpt lat="46.0313590" lon="10.4816160">
	<ele>2369.00</ele>
	<time>2023-08-06T06:40:37.000Z</time>
</trkpt>
<trkpt lat="46.0313580" lon="10.4816160">
	<ele>2369.00</ele>
	<time>2023-08-06T06:40:38.000Z</time>
</trkpt>
<trkpt lat="46.0313570" lon="10.4816160">
	<ele>2369.00</ele>
	<time>2023-08-06T06:40:39.000Z</time>
</trkpt>
<trkpt lat="46.0313560" lon="10.4816160">
	<ele>2368.80</ele>
	<time>2023-08-06T06:40:40.000Z</time>
</trkpt>
<trkpt lat="46.0313560" lon="10.4816160">
	<ele>2368.80</ele>
	<time>2023-08-06T06:40:41.000Z</time>
</trkpt>
<trkpt lat="46.0313560" lon="10.4816160">
	<ele>2369.00</ele>
	<time>2023-08-06T06:40:42.000Z</time>
</trkpt>
<trkpt lat="46.0313550" lon="10.4816160">
	<ele>2369.00</ele>
	<time>2023-08-06T06:40:43.000Z</time>
</trkpt>
<trkpt lat="46.0313550" lon="10.4816160">
	<ele>2368.80</ele>
	<time>2023-08-06T06:40:44.000Z</time>
</trkpt>
<trkpt lat="46.0313550" lon="10.4816160">
	<ele>2369.00</ele>
	<time>2023-08-06T06:40:45.000Z</time>
</trkpt>
<trkpt lat="46.0313550" lon="10.4816160">
	<ele>2369.00</ele>
	<time>2023-08-06T06:40:46.000Z</time>
</trkpt>
<trkpt lat="46.0313550" lon="10.4816160">
	<ele>2369.00</ele>
	<time>2023-08-06T06:40:47.000Z</time>
</trkpt>
<trkpt lat="46.0313550" lon="10.4816150">
	<ele>2369.00</ele>
	<time>2023-08-06T06:40:48.000Z</time>
</trkpt>
<trkpt lat="46.0313540" lon="10.4816150">
	<ele>2369.00</ele>
	<time>2023-08-06T06:40:49.000Z</time>
</trkpt>
<trkpt lat="46.0313540" lon="10.4816150">
	<ele>2369.00</ele>
	<time>2023-08-06T06:40:50.000Z</time>
</trkpt>
<trkpt lat="46.0313540" lon="10.4816150">
	<ele>2368.80</ele>
	<time>2023-08-06T06:40:51.000Z</time>
</trkpt>
<trkpt lat="46.0313540" lon="10.4816140">
	<ele>2368.80</ele>
	<time>2023-08-06T06:40:52.000Z</time>
</trkpt>
<trkpt lat="46.0313540" lon="10.4816140">
	<ele>2368.80</ele>
	<time>2023-08-06T06:40:53.000Z</time>
</trkpt>
<trkpt lat="46.0313530" lon="10.4816140">
	<ele>2368.60</ele>
	<time>2023-08-06T06:40:54.000Z</time>
</trkpt>
<trkpt lat="46.0313530" lon="10.4816140">
	<ele>2368.60</ele>
	<time>2023-08-06T06:40:55.000Z</time>
</trkpt>
<trkpt lat="46.0313530" lon="10.4816140">
	<ele>2368.40</ele>
	<time>2023-08-06T06:40:56.000Z</time>
</trkpt>
<trkpt lat="46.0313520" lon="10.4816140">
	<ele>2368.40</ele>
	<time>2023-08-06T06:40:57.000Z</time>
</trkpt>
<trkpt lat="46.0313520" lon="10.4816140">
	<ele>2368.40</ele>
	<time>2023-08-06T06:40:58.000Z</time>
</trkpt>
<trkpt lat="46.0313520" lon="10.4816140">
	<ele>2368.40</ele>
	<time>2023-08-06T06:40:59.000Z</time>
</trkpt>
<trkpt lat="46.0313520" lon="10.4816140">
	<ele>2368.40</ele>
	<time>2023-08-06T06:41:00.000Z</time>
</trkpt>
<trkpt lat="46.0313510" lon="10.4816140">
	<ele>2368.40</ele>
	<time>2023-08-06T06:41:01.000Z</time>
</trkpt>
<trkpt lat="46.0313510" lon="10.4816140">
	<ele>2368.40</ele>
	<time>2023-08-06T06:41:02.000Z</time>
</trkpt>
<trkpt lat="46.0313510" lon="10.4816140">
	<ele>2368.40</ele>
	<time>2023-08-06T06:41:03.000Z</time>
</trkpt>
<trkpt lat="46.0313510" lon="10.4816140">
	<ele>2368.40</ele>
	<time>2023-08-06T06:41:04.000Z</time>
</trkpt>
<trkpt lat="46.0313510" lon="10.4816130">
	<ele>2368.40</ele>
	<time>2023-08-06T06:41:05.000Z</time>
</trkpt>
<trkpt lat="46.0313510" lon="10.4816130">
	<ele>2368.00</ele>
	<time>2023-08-06T06:41:06.000Z</time>
</trkpt>
<trkpt lat="46.0313510" lon="10.4816130">
	<ele>2367.80</ele>
	<time>2023-08-06T06:41:07.000Z</time>
</trkpt>
<trkpt lat="46.0313500" lon="10.4816130">
	<ele>2367.60</ele>
	<time>2023-08-06T06:41:08.000Z</time>
</trkpt>
<trkpt lat="46.0313500" lon="10.4816130">
	<ele>2367.60</ele>
	<time>2023-08-06T06:41:09.000Z</time>
</trkpt>
<trkpt lat="46.0313500" lon="10.4816120">
	<ele>2367.40</ele>
	<time>2023-08-06T06:41:10.000Z</time>
</trkpt>
<trkpt lat="46.0313500" lon="10.4816110">
	<ele>2367.40</ele>
	<time>2023-08-06T06:41:11.000Z</time>
</trkpt>
<trkpt lat="46.0313490" lon="10.4816110">
	<ele>2367.40</ele>
	<time>2023-08-06T06:41:12.000Z</time>
</trkpt>
<trkpt lat="46.0313490" lon="10.4816090">
	<ele>2367.40</ele>
	<time>2023-08-06T06:41:13.000Z</time>
</trkpt>
<trkpt lat="46.0313490" lon="10.4816090">
	<ele>2367.40</ele>
	<time>2023-08-06T06:41:14.000Z</time>
</trkpt>
<trkpt lat="46.0313490" lon="10.4816090">
	<ele>2367.40</ele>
	<time>2023-08-06T06:41:15.000Z</time>
</trkpt>
<trkpt lat="46.0313490" lon="10.4816090">
	<ele>2367.20</ele>
	<time>2023-08-06T06:41:16.000Z</time>
</trkpt>
<trkpt lat="46.0313490" lon="10.4816090">
	<ele>2367.20</ele>
	<time>2023-08-06T06:41:17.000Z</time>
</trkpt>
<trkpt lat="46.0313480" lon="10.4816090">
	<ele>2367.40</ele>
	<time>2023-08-06T06:41:18.000Z</time>
</trkpt>
<trkpt lat="46.0313480" lon="10.4816090">
	<ele>2367.40</ele>
	<time>2023-08-06T06:41:19.000Z</time>
</trkpt>
<trkpt lat="46.0313480" lon="10.4816090">
	<ele>2367.40</ele>
	<time>2023-08-06T06:41:20.000Z</time>
</trkpt>
<trkpt lat="46.0313480" lon="10.4816090">
	<ele>2367.40</ele>
	<time>2023-08-06T06:41:21.000Z</time>
</trkpt>
<trkpt lat="46.0313480" lon="10.4816090">
	<ele>2367.40</ele>
	<time>2023-08-06T06:41:22.000Z</time>
</trkpt>
<trkpt lat="46.0313470" lon="10.4816090">
	<ele>2367.40</ele>
	<time>2023-08-06T06:41:23.000Z</time>
</trkpt>
<trkpt lat="46.0313470" lon="10.4816090">
	<ele>2367.40</ele>
	<time>2023-08-06T06:41:24.000Z</time>
</trkpt>
<trkpt lat="46.0313470" lon="10.4816090">
	<ele>2367.40</ele>
	<time>2023-08-06T06:41:25.000Z</time>
</trkpt>
<trkpt lat="46.0313470" lon="10.4816090">
	<ele>2367.20</ele>
	<time>2023-08-06T06:41:26.000Z</time>
</trkpt>
<trkpt lat="46.0313460" lon="10.4816090">
	<ele>2367.20</ele>
	<time>2023-08-06T06:41:27.000Z</time>
</trkpt>
<trkpt lat="46.0313460" lon="10.4816090">
	<ele>2367.20</ele>
	<time>2023-08-06T06:41:28.000Z</time>
</trkpt>
<trkpt lat="46.0313450" lon="10.4816090">
	<ele>2367.20</ele>
	<time>2023-08-06T06:41:29.000Z</time>
</trkpt>
<trkpt lat="46.0313450" lon="10.4816090">
	<ele>2367.20</ele>
	<time>2023-08-06T06:41:30.000Z</time>
</trkpt>
<trkpt lat="46.0313450" lon="10.4816100">
	<ele>2367.20</ele>
	<time>2023-08-06T06:41:31.000Z</time>
</trkpt>
<trkpt lat="46.0313450" lon="10.4816110">
	<ele>2367.20</ele>
	<time>2023-08-06T06:41:32.000Z</time>
</trkpt>
<trkpt lat="46.0313440" lon="10.4816110">
	<ele>2367.40</ele>
	<time>2023-08-06T06:41:33.000Z</time>
</trkpt>
<trkpt lat="46.0313440" lon="10.4816110">
	<ele>2367.40</ele>
	<time>2023-08-06T06:41:34.000Z</time>
</trkpt>
<trkpt lat="46.0313430" lon="10.4816110">
	<ele>2367.40</ele>
	<time>2023-08-06T06:41:35.000Z</time>
</trkpt>
<trkpt lat="46.0313430" lon="10.4816110">
	<ele>2367.40</ele>
	<time>2023-08-06T06:41:36.000Z</time>
</trkpt>
<trkpt lat="46.0313420" lon="10.4816110">
	<ele>2367.60</ele>
	<time>2023-08-06T06:41:37.000Z</time>
</trkpt>
<trkpt lat="46.0313420" lon="10.4816120">
	<ele>2367.60</ele>
	<time>2023-08-06T06:41:38.000Z</time>
</trkpt>
<trkpt lat="46.0313420" lon="10.4816120">
	<ele>2367.80</ele>
	<time>2023-08-06T06:41:39.000Z</time>
</trkpt>
<trkpt lat="46.0313420" lon="10.4816120">
	<ele>2368.00</ele>
	<time>2023-08-06T06:41:40.000Z</time>
</trkpt>
<trkpt lat="46.0313420" lon="10.4816120">
	<ele>2368.20</ele>
	<time>2023-08-06T06:41:41.000Z</time>
</trkpt>
<trkpt lat="46.0313420" lon="10.4816120">
	<ele>2368.40</ele>
	<time>2023-08-06T06:41:42.000Z</time>
</trkpt>
<trkpt lat="46.0313410" lon="10.4816120">
	<ele>2368.40</ele>
	<time>2023-08-06T06:41:43.000Z</time>
</trkpt>
<trkpt lat="46.0313410" lon="10.4816120">
	<ele>2368.40</ele>
	<time>2023-08-06T06:41:44.000Z</time>
</trkpt>
<trkpt lat="46.0313410" lon="10.4816120">
	<ele>2368.40</ele>
	<time>2023-08-06T06:41:45.000Z</time>
</trkpt>
<trkpt lat="46.0313410" lon="10.4816120">
	<ele>2368.40</ele>
	<time>2023-08-06T06:41:46.000Z</time>
</trkpt>
<trkpt lat="46.0313410" lon="10.4816120">
	<ele>2368.40</ele>
	<time>2023-08-06T06:41:47.000Z</time>
</trkpt>
<trkpt lat="46.0313410" lon="10.4816120">
	<ele>2368.40</ele>
	<time>2023-08-06T06:41:48.000Z</time>
</trkpt>
<trkpt lat="46.0313410" lon="10.4816120">
	<ele>2368.40</ele>
	<time>2023-08-06T06:41:49.000Z</time>
</trkpt>
<trkpt lat="46.0313410" lon="10.4816120">
	<ele>2368.40</ele>
	<time>2023-08-06T06:41:50.000Z</time>
</trkpt>
<trkpt lat="46.0313410" lon="10.4816130">
	<ele>2368.40</ele>
	<time>2023-08-06T06:41:51.000Z</time>
</trkpt>
<trkpt lat="46.0313410" lon="10.4816130">
	<ele>2368.40</ele>
	<time>2023-08-06T06:41:52.000Z</time>
</trkpt>
<trkpt lat="46.0313410" lon="10.4816130">
	<ele>2368.60</ele>
	<time>2023-08-06T06:41:53.000Z</time>
</trkpt>
<trkpt lat="46.0313420" lon="10.4816130">
	<ele>2368.60</ele>
	<time>2023-08-06T06:41:54.000Z</time>
</trkpt>
<trkpt lat="46.0313420" lon="10.4816140">
	<ele>2368.60</ele>
	<time>2023-08-06T06:41:55.000Z</time>
</trkpt>
<trkpt lat="46.0313420" lon="10.4816140">
	<ele>2368.60</ele>
	<time>2023-08-06T06:41:56.000Z</time>
</trkpt>
<trkpt lat="46.0313420" lon="10.4816140">
	<ele>2368.40</ele>
	<time>2023-08-06T06:41:57.000Z</time>
</trkpt>
<trkpt lat="46.0313430" lon="10.4816150">
	<ele>2368.40</ele>
	<time>2023-08-06T06:41:58.000Z</time>
</trkpt>
<trkpt lat="46.0313430" lon="10.4816150">
	<ele>2368.40</ele>
	<time>2023-08-06T06:41:59.000Z</time>
</trkpt>
<trkpt lat="46.0313430" lon="10.4816160">
	<ele>2368.20</ele>
	<time>2023-08-06T06:42:00.000Z</time>
</trkpt>
<trkpt lat="46.0313440" lon="10.4816160">
	<ele>2368.20</ele>
	<time>2023-08-06T06:42:01.000Z</time>
</trkpt>
<trkpt lat="46.0313440" lon="10.4816170">
	<ele>2368.00</ele>
	<time>2023-08-06T06:42:02.000Z</time>
</trkpt>
<trkpt lat="46.0313440" lon="10.4816170">
	<ele>2368.00</ele>
	<time>2023-08-06T06:42:03.000Z</time>
</trkpt>
<trkpt lat="46.0313440" lon="10.4816170">
	<ele>2368.00</ele>
	<time>2023-08-06T06:42:04.000Z</time>
</trkpt>
<trkpt lat="46.0313440" lon="10.4816180">
	<ele>2367.80</ele>
	<time>2023-08-06T06:42:05.000Z</time>
</trkpt>
<trkpt lat="46.0313440" lon="10.4816180">
	<ele>2367.20</ele>
	<time>2023-08-06T06:42:06.000Z</time>
</trkpt>
<trkpt lat="46.0313440" lon="10.4816180">
	<ele>2367.20</ele>
	<time>2023-08-06T06:42:07.000Z</time>
</trkpt>
<trkpt lat="46.0313440" lon="10.4816190">
	<ele>2367.20</ele>
	<time>2023-08-06T06:42:08.000Z</time>
</trkpt>
<trkpt lat="46.0313440" lon="10.4816200">
	<ele>2367.20</ele>
	<time>2023-08-06T06:42:09.000Z</time>
</trkpt>
<trkpt lat="46.0313450" lon="10.4816210">
	<ele>2367.20</ele>
	<time>2023-08-06T06:42:10.000Z</time>
</trkpt>
<trkpt lat="46.0313450" lon="10.4816230">
	<ele>2367.20</ele>
	<time>2023-08-06T06:42:11.000Z</time>
</trkpt>
<trkpt lat="46.0313450" lon="10.4816260">
	<ele>2367.20</ele>
	<time>2023-08-06T06:42:12.000Z</time>
</trkpt>
<trkpt lat="46.0313450" lon="10.4816300">
	<ele>2367.20</ele>
	<time>2023-08-06T06:42:13.000Z</time>
</trkpt>
<trkpt lat="46.0313450" lon="10.4816340">
	<ele>2367.20</ele>
	<time>2023-08-06T06:42:14.000Z</time>
</trkpt>
<trkpt lat="46.0313450" lon="10.4816370">
	<ele>2367.20</ele>
	<time>2023-08-06T06:42:15.000Z</time>
</trkpt>
<trkpt lat="46.0313460" lon="10.4816390">
	<ele>2367.20</ele>
	<time>2023-08-06T06:42:16.000Z</time>
</trkpt>
<trkpt lat="46.0313460" lon="10.4816400">
	<ele>2367.20</ele>
	<time>2023-08-06T06:42:17.000Z</time>
</trkpt>
<trkpt lat="46.0313460" lon="10.4816410">
	<ele>2367.20</ele>
	<time>2023-08-06T06:42:18.000Z</time>
</trkpt>
<trkpt lat="46.0313460" lon="10.4816420">
	<ele>2367.20</ele>
	<time>2023-08-06T06:42:19.000Z</time>
</trkpt>
<trkpt lat="46.0313470" lon="10.4816420">
	<ele>2367.20</ele>
	<time>2023-08-06T06:42:20.000Z</time>
</trkpt>
<trkpt lat="46.0313470" lon="10.4816420">
	<ele>2367.20</ele>
	<time>2023-08-06T06:42:21.000Z</time>
</trkpt>
<trkpt lat="46.0313480" lon="10.4816430">
	<ele>2367.20</ele>
	<time>2023-08-06T06:42:22.000Z</time>
</trkpt>
<trkpt lat="46.0313490" lon="10.4816430">
	<ele>2367.20</ele>
	<time>2023-08-06T06:42:23.000Z</time>
</trkpt>
<trkpt lat="46.0313500" lon="10.4816430">
	<ele>2367.20</ele>
	<time>2023-08-06T06:42:24.000Z</time>
</trkpt>
<trkpt lat="46.0313520" lon="10.4816450">
	<ele>2367.20</ele>
	<time>2023-08-06T06:42:25.000Z</time>
</trkpt>
<trkpt lat="46.0313540" lon="10.4816460">
	<ele>2367.20</ele>
	<time>2023-08-06T06:42:26.000Z</time>
</trkpt>
<trkpt lat="46.0313560" lon="10.4816480">
	<ele>2367.20</ele>
	<time>2023-08-06T06:42:27.000Z</time>
</trkpt>
<trkpt lat="46.0313590" lon="10.4816490">
	<ele>2367.20</ele>
	<time>2023-08-06T06:42:28.000Z</time>
</trkpt>
<trkpt lat="46.0313620" lon="10.4816510">
	<ele>2367.20</ele>
	<time>2023-08-06T06:42:29.000Z</time>
</trkpt>
<trkpt lat="46.0313640" lon="10.4816530">
	<ele>2367.20</ele>
	<time>2023-08-06T06:42:30.000Z</time>
</trkpt>
<trkpt lat="46.0313680" lon="10.4816550">
	<ele>2367.20</ele>
	<time>2023-08-06T06:42:31.000Z</time>
</trkpt>
<trkpt lat="46.0313710" lon="10.4816550">
	<ele>2367.20</ele>
	<time>2023-08-06T06:42:32.000Z</time>
</trkpt>
<trkpt lat="46.0313730" lon="10.4816550">
	<ele>2367.20</ele>
	<time>2023-08-06T06:42:33.000Z</time>
</trkpt>
<trkpt lat="46.0313750" lon="10.4816540">
	<ele>2367.20</ele>
	<time>2023-08-06T06:42:34.000Z</time>
</trkpt>
<trkpt lat="46.0313770" lon="10.4816530">
	<ele>2367.20</ele>
	<time>2023-08-06T06:42:35.000Z</time>
</trkpt>
<trkpt lat="46.0313780" lon="10.4816520">
	<ele>2367.20</ele>
	<time>2023-08-06T06:42:36.000Z</time>
</trkpt>
<trkpt lat="46.0313790" lon="10.4816500">
	<ele>2367.20</ele>
	<time>2023-08-06T06:42:37.000Z</time>
</trkpt>
<trkpt lat="46.0313810" lon="10.4816490">
	<ele>2367.20</ele>
	<time>2023-08-06T06:42:38.000Z</time>
</trkpt>
<trkpt lat="46.0313810" lon="10.4816470">
	<ele>2367.20</ele>
	<time>2023-08-06T06:42:39.000Z</time>
</trkpt>
<trkpt lat="46.0313820" lon="10.4816460">
	<ele>2367.20</ele>
	<time>2023-08-06T06:42:40.000Z</time>
</trkpt>
<trkpt lat="46.0313830" lon="10.4816450">
	<ele>2367.20</ele>
	<time>2023-08-06T06:42:41.000Z</time>
</trkpt>
<trkpt lat="46.0313830" lon="10.4816430">
	<ele>2367.20</ele>
	<time>2023-08-06T06:42:42.000Z</time>
</trkpt>
<trkpt lat="46.0313840" lon="10.4816420">
	<ele>2367.20</ele>
	<time>2023-08-06T06:42:43.000Z</time>
</trkpt>
<trkpt lat="46.0313850" lon="10.4816410">
	<ele>2367.20</ele>
	<time>2023-08-06T06:42:44.000Z</time>
</trkpt>
<trkpt lat="46.0313860" lon="10.4816400">
	<ele>2367.20</ele>
	<time>2023-08-06T06:42:45.000Z</time>
</trkpt>
<trkpt lat="46.0313880" lon="10.4816400">
	<ele>2367.20</ele>
	<time>2023-08-06T06:42:46.000Z</time>
</trkpt>
<trkpt lat="46.0313900" lon="10.4816410">
	<ele>2367.20</ele>
	<time>2023-08-06T06:42:47.000Z</time>
</trkpt>
<trkpt lat="46.0313920" lon="10.4816410">
	<ele>2367.20</ele>
	<time>2023-08-06T06:42:48.000Z</time>
</trkpt>
<trkpt lat="46.0313950" lon="10.4816420">
	<ele>2367.20</ele>
	<time>2023-08-06T06:42:49.000Z</time>
</trkpt>
<trkpt lat="46.0313970" lon="10.4816430">
	<ele>2367.20</ele>
	<time>2023-08-06T06:42:50.000Z</time>
</trkpt>
<trkpt lat="46.0314000" lon="10.4816440">
	<ele>2367.20</ele>
	<time>2023-08-06T06:42:51.000Z</time>
</trkpt>
<trkpt lat="46.0314020" lon="10.4816460">
	<ele>2367.20</ele>
	<time>2023-08-06T06:42:52.000Z</time>
</trkpt>
<trkpt lat="46.0314040" lon="10.4816470">
	<ele>2367.20</ele>
	<time>2023-08-06T06:42:53.000Z</time>
</trkpt>
<trkpt lat="46.0314060" lon="10.4816480">
	<ele>2367.20</ele>
	<time>2023-08-06T06:42:54.000Z</time>
</trkpt>
<trkpt lat="46.0314090" lon="10.4816480">
	<ele>2367.20</ele>
	<time>2023-08-06T06:42:55.000Z</time>
</trkpt>
<trkpt lat="46.0314110" lon="10.4816480">
	<ele>2367.20</ele>
	<time>2023-08-06T06:42:56.000Z</time>
</trkpt>
<trkpt lat="46.0314130" lon="10.4816480">
	<ele>2367.20</ele>
	<time>2023-08-06T06:42:57.000Z</time>
</trkpt>
<trkpt lat="46.0314150" lon="10.4816480">
	<ele>2367.20</ele>
	<time>2023-08-06T06:42:58.000Z</time>
</trkpt>
<trkpt lat="46.0314160" lon="10.4816480">
	<ele>2367.20</ele>
	<time>2023-08-06T06:42:59.000Z</time>
</trkpt>
<trkpt lat="46.0314170" lon="10.4816470">
	<ele>2367.20</ele>
	<time>2023-08-06T06:43:00.000Z</time>
</trkpt>
<trkpt lat="46.0314190" lon="10.4816460">
	<ele>2367.20</ele>
	<time>2023-08-06T06:43:01.000Z</time>
</trkpt>
<trkpt lat="46.0314250" lon="10.4816390">
	<ele>2367.20</ele>
	<time>2023-08-06T06:43:02.000Z</time>
</trkpt>
<trkpt lat="46.0314350" lon="10.4816240">
	<ele>2367.20</ele>
	<time>2023-08-06T06:43:03.000Z</time>
</trkpt>
<trkpt lat="46.0314480" lon="10.4816150">
	<ele>2367.20</ele>
	<time>2023-08-06T06:43:04.000Z</time>
</trkpt>
<trkpt lat="46.0314620" lon="10.4816130">
	<ele>2367.20</ele>
	<time>2023-08-06T06:43:05.000Z</time>
</trkpt>
<trkpt lat="46.0314700" lon="10.4816150">
	<ele>2367.20</ele>
	<time>2023-08-06T06:43:06.000Z</time>
</trkpt>
<trkpt lat="46.0314820" lon="10.4816160">
	<ele>2358.00</ele>
	<time>2023-08-06T06:43:07.000Z</time>
</trkpt>
<trkpt lat="46.0314880" lon="10.4816230">
	<ele>2358.00</ele>
	<time>2023-08-06T06:43:08.000Z</time>
</trkpt>
<trkpt lat="46.0314960" lon="10.4816270">
	<ele>2358.00</ele>
	<time>2023-08-06T06:43:09.000Z</time>
</trkpt>
<trkpt lat="46.0315030" lon="10.4816300">
	<ele>2358.00</ele>
	<time>2023-08-06T06:43:10.000Z</time>
</trkpt>
<trkpt lat="46.0315100" lon="10.4816380">
	<ele>2357.80</ele>
	<time>2023-08-06T06:43:11.000Z</time>
</trkpt>
<trkpt lat="46.0315100" lon="10.4816530">
	<ele>2357.80</ele>
	<time>2023-08-06T06:43:12.000Z</time>
</trkpt>
<trkpt lat="46.0315100" lon="10.4816670">
	<ele>2357.80</ele>
	<time>2023-08-06T06:43:13.000Z</time>
</trkpt>
<trkpt lat="46.0315130" lon="10.4816780">
	<ele>2357.60</ele>
	<time>2023-08-06T06:43:14.000Z</time>
</trkpt>
<trkpt lat="46.0315170" lon="10.4816970">
	<ele>2357.40</ele>
	<time>2023-08-06T06:43:15.000Z</time>
</trkpt>
<trkpt lat="46.0315140" lon="10.4817100">
	<ele>2357.20</ele>
	<time>2023-08-06T06:43:16.000Z</time>
</trkpt>
<trkpt lat="46.0315120" lon="10.4817210">
	<ele>2357.00</ele>
	<time>2023-08-06T06:43:17.000Z</time>
</trkpt>
<trkpt lat="46.0315110" lon="10.4817340">
	<ele>2356.80</ele>
	<time>2023-08-06T06:43:18.000Z</time>
</trkpt>
<trkpt lat="46.0315120" lon="10.4817410">
	<ele>2356.60</ele>
	<time>2023-08-06T06:43:19.000Z</time>
</trkpt>
<trkpt lat="46.0315120" lon="10.4817510">
	<ele>2356.60</ele>
	<time>2023-08-06T06:43:20.000Z</time>
</trkpt>
<trkpt lat="46.0315140" lon="10.4817650">
	<ele>2356.60</ele>
	<time>2023-08-06T06:43:21.000Z</time>
</trkpt>
<trkpt lat="46.0315200" lon="10.4817800">
	<ele>2356.40</ele>
	<time>2023-08-06T06:43:22.000Z</time>
</trkpt>
<trkpt lat="46.0315250" lon="10.4817930">
	<ele>2356.40</ele>
	<time>2023-08-06T06:43:23.000Z</time>
</trkpt>
<trkpt lat="46.0315260" lon="10.4818060">
	<ele>2356.40</ele>
	<time>2023-08-06T06:43:24.000Z</time>
</trkpt>
<trkpt lat="46.0315260" lon="10.4818230">
	<ele>2356.20</ele>
	<time>2023-08-06T06:43:25.000Z</time>
</trkpt>
<trkpt lat="46.0315250" lon="10.4818330">
	<ele>2356.20</ele>
	<time>2023-08-06T06:43:26.000Z</time>
</trkpt>
<trkpt lat="46.0315250" lon="10.4818420">
	<ele>2356.00</ele>
	<time>2023-08-06T06:43:27.000Z</time>
</trkpt>
<trkpt lat="46.0315250" lon="10.4818490">
	<ele>2356.00</ele>
	<time>2023-08-06T06:43:28.000Z</time>
</trkpt>
<trkpt lat="46.0315250" lon="10.4818560">
	<ele>2356.00</ele>
	<time>2023-08-06T06:43:29.000Z</time>
</trkpt>
<trkpt lat="46.0315260" lon="10.4818650">
	<ele>2356.00</ele>
	<time>2023-08-06T06:43:30.000Z</time>
</trkpt>
<trkpt lat="46.0315280" lon="10.4818690">
	<ele>2356.00</ele>
	<time>2023-08-06T06:43:31.000Z</time>
</trkpt>
<trkpt lat="46.0315280" lon="10.4818750">
	<ele>2356.00</ele>
	<time>2023-08-06T06:43:32.000Z</time>
</trkpt>
<trkpt lat="46.0315320" lon="10.4818830">
	<ele>2356.00</ele>
	<time>2023-08-06T06:43:33.000Z</time>
</trkpt>
<trkpt lat="46.0315360" lon="10.4818900">
	<ele>2355.80</ele>
	<time>2023-08-06T06:43:34.000Z</time>
</trkpt>
<trkpt lat="46.0315400" lon="10.4818980">
	<ele>2355.80</ele>
	<time>2023-08-06T06:43:35.000Z</time>
</trkpt>
<trkpt lat="46.0315460" lon="10.4819060">
	<ele>2355.80</ele>
	<time>2023-08-06T06:43:36.000Z</time>
</trkpt>
<trkpt lat="46.0315530" lon="10.4819170">
	<ele>2355.60</ele>
	<time>2023-08-06T06:43:37.000Z</time>
</trkpt>
<trkpt lat="46.0315610" lon="10.4819230">
	<ele>2355.60</ele>
	<time>2023-08-06T06:43:38.000Z</time>
</trkpt>
<trkpt lat="46.0315660" lon="10.4819280">
	<ele>2355.60</ele>
	<time>2023-08-06T06:43:39.000Z</time>
</trkpt>
<trkpt lat="46.0315700" lon="10.4819360">
	<ele>2355.40</ele>
	<time>2023-08-06T06:43:40.000Z</time>
</trkpt>
<trkpt lat="46.0315750" lon="10.4819480">
	<ele>2355.20</ele>
	<time>2023-08-06T06:43:41.000Z</time>
</trkpt>
<trkpt lat="46.0315780" lon="10.4819550">
	<ele>2355.20</ele>
	<time>2023-08-06T06:43:42.000Z</time>
</trkpt>
<trkpt lat="46.0315820" lon="10.4819590">
	<ele>2355.00</ele>
	<time>2023-08-06T06:43:43.000Z</time>
</trkpt>
<trkpt lat="46.0315840" lon="10.4819620">
	<ele>2354.80</ele>
	<time>2023-08-06T06:43:44.000Z</time>
</trkpt>
<trkpt lat="46.0315870" lon="10.4819620">
	<ele>2354.80</ele>
	<time>2023-08-06T06:43:45.000Z</time>
</trkpt>
<trkpt lat="46.0315930" lon="10.4819590">
	<ele>2354.60</ele>
	<time>2023-08-06T06:43:46.000Z</time>
</trkpt>
<trkpt lat="46.0315990" lon="10.4819570">
	<ele>2354.20</ele>
	<time>2023-08-06T06:43:47.000Z</time>
</trkpt>
<trkpt lat="46.0316030" lon="10.4819570">
	<ele>2354.00</ele>
	<time>2023-08-06T06:43:48.000Z</time>
</trkpt>
<trkpt lat="46.0316060" lon="10.4819550">
	<ele>2353.80</ele>
	<time>2023-08-06T06:43:49.000Z</time>
</trkpt>
<trkpt lat="46.0316100" lon="10.4819540">
	<ele>2353.80</ele>
	<time>2023-08-06T06:43:50.000Z</time>
</trkpt>
<trkpt lat="46.0316140" lon="10.4819480">
	<ele>2353.60</ele>
	<time>2023-08-06T06:43:51.000Z</time>
</trkpt>
<trkpt lat="46.0316140" lon="10.4819410">
	<ele>2353.40</ele>
	<time>2023-08-06T06:43:52.000Z</time>
</trkpt>
<trkpt lat="46.0316100" lon="10.4819300">
	<ele>2353.20</ele>
	<time>2023-08-06T06:43:53.000Z</time>
</trkpt>
<trkpt lat="46.0316110" lon="10.4819240">
	<ele>2353.20</ele>
	<time>2023-08-06T06:43:54.000Z</time>
</trkpt>
<trkpt lat="46.0316160" lon="10.4819210">
	<ele>2353.20</ele>
	<time>2023-08-06T06:43:55.000Z</time>
</trkpt>
<trkpt lat="46.0316220" lon="10.4819200">
	<ele>2352.80</ele>
	<time>2023-08-06T06:43:56.000Z</time>
</trkpt>
<trkpt lat="46.0316260" lon="10.4819250">
	<ele>2352.60</ele>
	<time>2023-08-06T06:43:57.000Z</time>
</trkpt>
<trkpt lat="46.0316310" lon="10.4819340">
	<ele>2352.20</ele>
	<time>2023-08-06T06:43:58.000Z</time>
</trkpt>
<trkpt lat="46.0316380" lon="10.4819450">
	<ele>2351.80</ele>
	<time>2023-08-06T06:43:59.000Z</time>
</trkpt>
<trkpt lat="46.0316440" lon="10.4819540">
	<ele>2351.60</ele>
	<time>2023-08-06T06:44:00.000Z</time>
</trkpt>
<trkpt lat="46.0316490" lon="10.4819670">
	<ele>2351.40</ele>
	<time>2023-08-06T06:44:01.000Z</time>
</trkpt>
<trkpt lat="46.0316540" lon="10.4819750">
	<ele>2351.40</ele>
	<time>2023-08-06T06:44:02.000Z</time>
</trkpt>
<trkpt lat="46.0316540" lon="10.4819900">
	<ele>2351.40</ele>
	<time>2023-08-06T06:44:03.000Z</time>
</trkpt>
<trkpt lat="46.0316530" lon="10.4820020">
	<ele>2351.40</ele>
	<time>2023-08-06T06:44:04.000Z</time>
</trkpt>
<trkpt lat="46.0316520" lon="10.4820180">
	<ele>2351.40</ele>
	<time>2023-08-06T06:44:05.000Z</time>
</trkpt>
<trkpt lat="46.0316530" lon="10.4820300">
	<ele>2351.60</ele>
	<time>2023-08-06T06:44:06.000Z</time>
</trkpt>
<trkpt lat="46.0316500" lon="10.4820440">
	<ele>2351.60</ele>
	<time>2023-08-06T06:44:07.000Z</time>
</trkpt>
<trkpt lat="46.0316500" lon="10.4820560">
	<ele>2351.60</ele>
	<time>2023-08-06T06:44:08.000Z</time>
</trkpt>
<trkpt lat="46.0316480" lon="10.4820690">
	<ele>2351.80</ele>
	<time>2023-08-06T06:44:09.000Z</time>
</trkpt>
<trkpt lat="46.0316450" lon="10.4820780">
	<ele>2352.00</ele>
	<time>2023-08-06T06:44:10.000Z</time>
</trkpt>
<trkpt lat="46.0316430" lon="10.4820870">
	<ele>2352.00</ele>
	<time>2023-08-06T06:44:11.000Z</time>
</trkpt>
<trkpt lat="46.0316410" lon="10.4820980">
	<ele>2352.20</ele>
	<time>2023-08-06T06:44:12.000Z</time>
</trkpt>
<trkpt lat="46.0316390" lon="10.4821020">
	<ele>2352.40</ele>
	<time>2023-08-06T06:44:13.000Z</time>
</trkpt>
<trkpt lat="46.0316390" lon="10.4821070">
	<ele>2352.60</ele>
	<time>2023-08-06T06:44:14.000Z</time>
</trkpt>
<trkpt lat="46.0316360" lon="10.4821140">
	<ele>2352.80</ele>
	<time>2023-08-06T06:44:15.000Z</time>
</trkpt>
<trkpt lat="46.0316330" lon="10.4821230">
	<ele>2352.80</ele>
	<time>2023-08-06T06:44:16.000Z</time>
</trkpt>
<trkpt lat="46.0316320" lon="10.4821380">
	<ele>2353.00</ele>
	<time>2023-08-06T06:44:17.000Z</time>
</trkpt>
<trkpt lat="46.0316310" lon="10.4821510">
	<ele>2353.20</ele>
	<time>2023-08-06T06:44:18.000Z</time>
</trkpt>
<trkpt lat="46.0316290" lon="10.4821590">
	<ele>2353.20</ele>
	<time>2023-08-06T06:44:19.000Z</time>
</trkpt>
<trkpt lat="46.0316310" lon="10.4821670">
	<ele>2353.20</ele>
	<time>2023-08-06T06:44:20.000Z</time>
</trkpt>
<trkpt lat="46.0316330" lon="10.4821710">
	<ele>2353.40</ele>
	<time>2023-08-06T06:44:21.000Z</time>
</trkpt>
<trkpt lat="46.0316380" lon="10.4821770">
	<ele>2353.40</ele>
	<time>2023-08-06T06:44:22.000Z</time>
</trkpt>
<trkpt lat="46.0316390" lon="10.4821820">
	<ele>2353.20</ele>
	<time>2023-08-06T06:44:23.000Z</time>
</trkpt>
<trkpt lat="46.0316390" lon="10.4821890">
	<ele>2353.20</ele>
	<time>2023-08-06T06:44:24.000Z</time>
</trkpt>
<trkpt lat="46.0316390" lon="10.4821920">
	<ele>2353.20</ele>
	<time>2023-08-06T06:44:25.000Z</time>
</trkpt>
<trkpt lat="46.0316400" lon="10.4821950">
	<ele>2353.00</ele>
	<time>2023-08-06T06:44:26.000Z</time>
</trkpt>
<trkpt lat="46.0316410" lon="10.4822050">
	<ele>2353.00</ele>
	<time>2023-08-06T06:44:27.000Z</time>
</trkpt>
<trkpt lat="46.0316410" lon="10.4822110">
	<ele>2353.00</ele>
	<time>2023-08-06T06:44:28.000Z</time>
</trkpt>
<trkpt lat="46.0316410" lon="10.4822210">
	<ele>2353.00</ele>
	<time>2023-08-06T06:44:29.000Z</time>
</trkpt>
<trkpt lat="46.0316380" lon="10.4822310">
	<ele>2353.00</ele>
	<time>2023-08-06T06:44:30.000Z</time>
</trkpt>
<trkpt lat="46.0316360" lon="10.4822400">
	<ele>2353.00</ele>
	<time>2023-08-06T06:44:31.000Z</time>
</trkpt>
<trkpt lat="46.0316330" lon="10.4822480">
	<ele>2353.00</ele>
	<time>2023-08-06T06:44:32.000Z</time>
</trkpt>
<trkpt lat="46.0316280" lon="10.4822590">
	<ele>2353.00</ele>
	<time>2023-08-06T06:44:33.000Z</time>
</trkpt>
<trkpt lat="46.0316250" lon="10.4822640">
	<ele>2353.00</ele>
	<time>2023-08-06T06:44:34.000Z</time>
</trkpt>
<trkpt lat="46.0316210" lon="10.4822660">
	<ele>2353.20</ele>
	<time>2023-08-06T06:44:35.000Z</time>
</trkpt>
<trkpt lat="46.0316150" lon="10.4822670">
	<ele>2353.40</ele>
	<time>2023-08-06T06:44:36.000Z</time>
</trkpt>
<trkpt lat="46.0316100" lon="10.4822680">
	<ele>2353.60</ele>
	<time>2023-08-06T06:44:37.000Z</time>
</trkpt>
<trkpt lat="46.0316050" lon="10.4822690">
	<ele>2353.60</ele>
	<time>2023-08-06T06:44:38.000Z</time>
</trkpt>
<trkpt lat="46.0316020" lon="10.4822790">
	<ele>2353.60</ele>
	<time>2023-08-06T06:44:39.000Z</time>
</trkpt>
<trkpt lat="46.0316000" lon="10.4822920">
	<ele>2353.60</ele>
	<time>2023-08-06T06:44:40.000Z</time>
</trkpt>
<trkpt lat="46.0315980" lon="10.4823020">
	<ele>2353.80</ele>
	<time>2023-08-06T06:44:41.000Z</time>
</trkpt>
<trkpt lat="46.0315940" lon="10.4823090">
	<ele>2354.00</ele>
	<time>2023-08-06T06:44:42.000Z</time>
</trkpt>
<trkpt lat="46.0315900" lon="10.4823200">
	<ele>2354.20</ele>
	<time>2023-08-06T06:44:43.000Z</time>
</trkpt>
<trkpt lat="46.0315890" lon="10.4823310">
	<ele>2354.20</ele>
	<time>2023-08-06T06:44:44.000Z</time>
</trkpt>
<trkpt lat="46.0315870" lon="10.4823370">
	<ele>2354.40</ele>
	<time>2023-08-06T06:44:45.000Z</time>
</trkpt>
<trkpt lat="46.0315880" lon="10.4823460">
	<ele>2354.40</ele>
	<time>2023-08-06T06:44:46.000Z</time>
</trkpt>
<trkpt lat="46.0315910" lon="10.4823580">
	<ele>2354.60</ele>
	<time>2023-08-06T06:44:47.000Z</time>
</trkpt>
<trkpt lat="46.0315930" lon="10.4823690">
	<ele>2354.60</ele>
	<time>2023-08-06T06:44:48.000Z</time>
</trkpt>
<trkpt lat="46.0315990" lon="10.4823790">
	<ele>2354.80</ele>
	<time>2023-08-06T06:44:49.000Z</time>
</trkpt>
<trkpt lat="46.0316030" lon="10.4823910">
	<ele>2354.80</ele>
	<time>2023-08-06T06:44:50.000Z</time>
</trkpt>
<trkpt lat="46.0316050" lon="10.4824030">
	<ele>2354.80</ele>
	<time>2023-08-06T06:44:51.000Z</time>
</trkpt>
<trkpt lat="46.0316040" lon="10.4824070">
	<ele>2355.00</ele>
	<time>2023-08-06T06:44:52.000Z</time>
</trkpt>
<trkpt lat="46.0316030" lon="10.4824130">
	<ele>2355.20</ele>
	<time>2023-08-06T06:44:53.000Z</time>
</trkpt>
<trkpt lat="46.0316050" lon="10.4824180">
	<ele>2355.20</ele>
	<time>2023-08-06T06:44:54.000Z</time>
</trkpt>
<trkpt lat="46.0316090" lon="10.4824260">
	<ele>2355.20</ele>
	<time>2023-08-06T06:44:55.000Z</time>
</trkpt>
<trkpt lat="46.0316130" lon="10.4824340">
	<ele>2355.20</ele>
	<time>2023-08-06T06:44:56.000Z</time>
</trkpt>
<trkpt lat="46.0316150" lon="10.4824420">
	<ele>2355.20</ele>
	<time>2023-08-06T06:44:57.000Z</time>
</trkpt>
<trkpt lat="46.0316170" lon="10.4824500">
	<ele>2355.20</ele>
	<time>2023-08-06T06:44:58.000Z</time>
</trkpt>
<trkpt lat="46.0316190" lon="10.4824600">
	<ele>2355.20</ele>
	<time>2023-08-06T06:44:59.000Z</time>
</trkpt>
<trkpt lat="46.0316250" lon="10.4824680">
	<ele>2355.00</ele>
	<time>2023-08-06T06:45:00.000Z</time>
</trkpt>
<trkpt lat="46.0316280" lon="10.4824750">
	<ele>2355.00</ele>
	<time>2023-08-06T06:45:01.000Z</time>
</trkpt>
<trkpt lat="46.0316300" lon="10.4824800">
	<ele>2355.00</ele>
	<time>2023-08-06T06:45:02.000Z</time>
</trkpt>
<trkpt lat="46.0316360" lon="10.4824880">
	<ele>2355.00</ele>
	<time>2023-08-06T06:45:03.000Z</time>
</trkpt>
<trkpt lat="46.0316420" lon="10.4824940">
	<ele>2355.00</ele>
	<time>2023-08-06T06:45:04.000Z</time>
</trkpt>
<trkpt lat="46.0316480" lon="10.4825000">
	<ele>2355.00</ele>
	<time>2023-08-06T06:45:05.000Z</time>
</trkpt>
<trkpt lat="46.0316550" lon="10.4825050">
	<ele>2355.00</ele>
	<time>2023-08-06T06:45:06.000Z</time>
</trkpt>
<trkpt lat="46.0316610" lon="10.4825090">
	<ele>2355.00</ele>
	<time>2023-08-06T06:45:07.000Z</time>
</trkpt>
<trkpt lat="46.0316700" lon="10.4825100">
	<ele>2355.00</ele>
	<time>2023-08-06T06:45:08.000Z</time>
</trkpt>
<trkpt lat="46.0316800" lon="10.4825090">
	<ele>2355.00</ele>
	<time>2023-08-06T06:45:09.000Z</time>
</trkpt>
<trkpt lat="46.0316900" lon="10.4825100">
	<ele>2354.80</ele>
	<time>2023-08-06T06:45:10.000Z</time>
</trkpt>
<trkpt lat="46.0316990" lon="10.4825120">
	<ele>2354.80</ele>
	<time>2023-08-06T06:45:11.000Z</time>
</trkpt>
<trkpt lat="46.0317030" lon="10.4825150">
	<ele>2354.60</ele>
	<time>2023-08-06T06:45:12.000Z</time>
</trkpt>
<trkpt lat="46.0317070" lon="10.4825200">
	<ele>2354.60</ele>
	<time>2023-08-06T06:45:13.000Z</time>
</trkpt>
<trkpt lat="46.0317130" lon="10.4825330">
	<ele>2354.40</ele>
	<time>2023-08-06T06:45:14.000Z</time>
</trkpt>
<trkpt lat="46.0317210" lon="10.4825430">
	<ele>2354.40</ele>
	<time>2023-08-06T06:45:15.000Z</time>
</trkpt>
<trkpt lat="46.0317220" lon="10.4825510">
	<ele>2354.20</ele>
	<time>2023-08-06T06:45:16.000Z</time>
</trkpt>
<trkpt lat="46.0317250" lon="10.4825550">
	<ele>2354.00</ele>
	<time>2023-08-06T06:45:17.000Z</time>
</trkpt>
<trkpt lat="46.0317270" lon="10.4825580">
	<ele>2353.80</ele>
	<time>2023-08-06T06:45:18.000Z</time>
</trkpt>
<trkpt lat="46.0317300" lon="10.4825580">
	<ele>2353.60</ele>
	<time>2023-08-06T06:45:19.000Z</time>
</trkpt>
<trkpt lat="46.0317330" lon="10.4825620">
	<ele>2353.40</ele>
	<time>2023-08-06T06:45:20.000Z</time>
</trkpt>
<trkpt lat="46.0317360" lon="10.4825680">
	<ele>2353.40</ele>
	<time>2023-08-06T06:45:21.000Z</time>
</trkpt>
<trkpt lat="46.0317390" lon="10.4825710">
	<ele>2353.20</ele>
	<time>2023-08-06T06:45:22.000Z</time>
</trkpt>
<trkpt lat="46.0317450" lon="10.4825760">
	<ele>2353.20</ele>
	<time>2023-08-06T06:45:23.000Z</time>
</trkpt>
<trkpt lat="46.0317500" lon="10.4825810">
	<ele>2353.20</ele>
	<time>2023-08-06T06:45:24.000Z</time>
</trkpt>
<trkpt lat="46.0317530" lon="10.4825830">
	<ele>2352.80</ele>
	<time>2023-08-06T06:45:25.000Z</time>
</trkpt>
<trkpt lat="46.0317560" lon="10.4825860">
	<ele>2352.60</ele>
	<time>2023-08-06T06:45:26.000Z</time>
</trkpt>
<trkpt lat="46.0317610" lon="10.4825890">
	<ele>2352.40</ele>
	<time>2023-08-06T06:45:27.000Z</time>
</trkpt>
<trkpt lat="46.0317680" lon="10.4825940">
	<ele>2352.20</ele>
	<time>2023-08-06T06:45:28.000Z</time>
</trkpt>
<trkpt lat="46.0317750" lon="10.4826020">
	<ele>2352.00</ele>
	<time>2023-08-06T06:45:29.000Z</time>
</trkpt>
<trkpt lat="46.0317820" lon="10.4826140">
	<ele>2352.00</ele>
	<time>2023-08-06T06:45:30.000Z</time>
</trkpt>
<trkpt lat="46.0317840" lon="10.4826230">
	<ele>2351.60</ele>
	<time>2023-08-06T06:45:31.000Z</time>
</trkpt>
<trkpt lat="46.0317860" lon="10.4826320">
	<ele>2351.60</ele>
	<time>2023-08-06T06:45:32.000Z</time>
</trkpt>
<trkpt lat="46.0317880" lon="10.4826390">
	<ele>2351.40</ele>
	<time>2023-08-06T06:45:33.000Z</time>
</trkpt>
<trkpt lat="46.0317940" lon="10.4826480">
	<ele>2351.40</ele>
	<time>2023-08-06T06:45:34.000Z</time>
</trkpt>
<trkpt lat="46.0318030" lon="10.4826580">
	<ele>2351.40</ele>
	<time>2023-08-06T06:45:35.000Z</time>
</trkpt>
<trkpt lat="46.0318120" lon="10.4826670">
	<ele>2351.20</ele>
	<time>2023-08-06T06:45:36.000Z</time>
</trkpt>
<trkpt lat="46.0318160" lon="10.4826750">
	<ele>2351.20</ele>
	<time>2023-08-06T06:45:37.000Z</time>
</trkpt>
<trkpt lat="46.0318190" lon="10.4826840">
	<ele>2351.00</ele>
	<time>2023-08-06T06:45:38.000Z</time>
</trkpt>
<trkpt lat="46.0318230" lon="10.4826940">
	<ele>2350.80</ele>
	<time>2023-08-06T06:45:39.000Z</time>
</trkpt>
<trkpt lat="46.0318280" lon="10.4827050">
	<ele>2350.80</ele>
	<time>2023-08-06T06:45:40.000Z</time>
</trkpt>
<trkpt lat="46.0318350" lon="10.4827180">
	<ele>2350.80</ele>
	<time>2023-08-06T06:45:41.000Z</time>
</trkpt>
<trkpt lat="46.0318410" lon="10.4827300">
	<ele>2350.60</ele>
	<time>2023-08-06T06:45:42.000Z</time>
</trkpt>
<trkpt lat="46.0318470" lon="10.4827440">
	<ele>2350.40</ele>
	<time>2023-08-06T06:45:43.000Z</time>
</trkpt>
<trkpt lat="46.0318510" lon="10.4827550">
	<ele>2350.40</ele>
	<time>2023-08-06T06:45:44.000Z</time>
</trkpt>
<trkpt lat="46.0318540" lon="10.4827630">
	<ele>2350.40</ele>
	<time>2023-08-06T06:45:45.000Z</time>
</trkpt>
<trkpt lat="46.0318570" lon="10.4827690">
	<ele>2350.40</ele>
	<time>2023-08-06T06:45:46.000Z</time>
</trkpt>
<trkpt lat="46.0318580" lon="10.4827730">
	<ele>2350.40</ele>
	<time>2023-08-06T06:45:47.000Z</time>
</trkpt>
<trkpt lat="46.0318570" lon="10.4827740">
	<ele>2350.40</ele>
	<time>2023-08-06T06:45:48.000Z</time>
</trkpt>
<trkpt lat="46.0318600" lon="10.4827790">
	<ele>2350.40</ele>
	<time>2023-08-06T06:45:49.000Z</time>
</trkpt>
<trkpt lat="46.0318610" lon="10.4827820">
	<ele>2350.40</ele>
	<time>2023-08-06T06:45:50.000Z</time>
</trkpt>
<trkpt lat="46.0318610" lon="10.4827850">
	<ele>2350.40</ele>
	<time>2023-08-06T06:45:51.000Z</time>
</trkpt>
<trkpt lat="46.0318610" lon="10.4827860">
	<ele>2350.40</ele>
	<time>2023-08-06T06:45:52.000Z</time>
</trkpt>
<trkpt lat="46.0318590" lon="10.4827860">
	<ele>2350.40</ele>
	<time>2023-08-06T06:45:53.000Z</time>
</trkpt>
<trkpt lat="46.0318590" lon="10.4827870">
	<ele>2350.60</ele>
	<time>2023-08-06T06:45:54.000Z</time>
</trkpt>
<trkpt lat="46.0318580" lon="10.4827860">
	<ele>2350.60</ele>
	<time>2023-08-06T06:45:55.000Z</time>
</trkpt>
<trkpt lat="46.0318580" lon="10.4827860">
	<ele>2350.80</ele>
	<time>2023-08-06T06:45:56.000Z</time>
</trkpt>
<trkpt lat="46.0318570" lon="10.4827860">
	<ele>2350.80</ele>
	<time>2023-08-06T06:45:57.000Z</time>
</trkpt>
<trkpt lat="46.0318570" lon="10.4827860">
	<ele>2350.80</ele>
	<time>2023-08-06T06:45:58.000Z</time>
</trkpt>
<trkpt lat="46.0318570" lon="10.4827860">
	<ele>2350.80</ele>
	<time>2023-08-06T06:45:59.000Z</time>
</trkpt>
<trkpt lat="46.0318570" lon="10.4827860">
	<ele>2350.80</ele>
	<time>2023-08-06T06:46:00.000Z</time>
</trkpt>
<trkpt lat="46.0318570" lon="10.4827860">
	<ele>2350.80</ele>
	<time>2023-08-06T06:46:01.000Z</time>
</trkpt>
<trkpt lat="46.0318570" lon="10.4827860">
	<ele>2351.00</ele>
	<time>2023-08-06T06:46:02.000Z</time>
</trkpt>
<trkpt lat="46.0318570" lon="10.4827860">
	<ele>2351.00</ele>
	<time>2023-08-06T06:46:03.000Z</time>
</trkpt>
<trkpt lat="46.0318570" lon="10.4827860">
	<ele>2351.00</ele>
	<time>2023-08-06T06:46:04.000Z</time>
</trkpt>
<trkpt lat="46.0318570" lon="10.4827860">
	<ele>2351.00</ele>
	<time>2023-08-06T06:46:05.000Z</time>
</trkpt>
<trkpt lat="46.0318570" lon="10.4827860">
	<ele>2351.00</ele>
	<time>2023-08-06T06:46:06.000Z</time>
</trkpt>
<trkpt lat="46.0318570" lon="10.4827860">
	<ele>2350.80</ele>
	<time>2023-08-06T06:46:07.000Z</time>
</trkpt>
<trkpt lat="46.0318570" lon="10.4827860">
	<ele>2350.80</ele>
	<time>2023-08-06T06:46:08.000Z</time>
</trkpt>
<trkpt lat="46.0318570" lon="10.4827860">
	<ele>2350.60</ele>
	<time>2023-08-06T06:46:09.000Z</time>
</trkpt>
<trkpt lat="46.0318570" lon="10.4827860">
	<ele>2350.60</ele>
	<time>2023-08-06T06:46:10.000Z</time>
</trkpt>
<trkpt lat="46.0318570" lon="10.4827860">
	<ele>2350.40</ele>
	<time>2023-08-06T06:46:11.000Z</time>
</trkpt>
<trkpt lat="46.0318570" lon="10.4827860">
	<ele>2350.20</ele>
	<time>2023-08-06T06:46:12.000Z</time>
</trkpt>
<trkpt lat="46.0318570" lon="10.4827860">
	<ele>2350.00</ele>
	<time>2023-08-06T06:46:13.000Z</time>
</trkpt>
<trkpt lat="46.0318570" lon="10.4827860">
	<ele>2350.00</ele>
	<time>2023-08-06T06:46:14.000Z</time>
</trkpt>
<trkpt lat="46.0318570" lon="10.4827860">
	<ele>2350.00</ele>
	<time>2023-08-06T06:46:15.000Z</time>
</trkpt>
<trkpt lat="46.0318570" lon="10.4827860">
	<ele>2349.80</ele>
	<time>2023-08-06T06:46:16.000Z</time>
</trkpt>
<trkpt lat="46.0318570" lon="10.4827860">
	<ele>2349.80</ele>
	<time>2023-08-06T06:46:17.000Z</time>
</trkpt>
<trkpt lat="46.0318570" lon="10.4827860">
	<ele>2349.60</ele>
	<time>2023-08-06T06:46:18.000Z</time>
</trkpt>
<trkpt lat="46.0318570" lon="10.4827860">
	<ele>2349.40</ele>
	<time>2023-08-06T06:46:19.000Z</time>
</trkpt>
<trkpt lat="46.0318620" lon="10.4827930">
	<ele>2349.40</ele>
	<time>2023-08-06T06:46:20.000Z</time>
</trkpt>
<trkpt lat="46.0318770" lon="10.4828090">
	<ele>2349.20</ele>
	<time>2023-08-06T06:46:21.000Z</time>
</trkpt>
<trkpt lat="46.0318880" lon="10.4828270">
	<ele>2348.80</ele>
	<time>2023-08-06T06:46:22.000Z</time>
</trkpt>
<trkpt lat="46.0318970" lon="10.4828510">
	<ele>2348.40</ele>
	<time>2023-08-06T06:46:23.000Z</time>
</trkpt>
<trkpt lat="46.0319020" lon="10.4828710">
	<ele>2348.40</ele>
	<time>2023-08-06T06:46:24.000Z</time>
</trkpt>
<trkpt lat="46.0319070" lon="10.4828880">
	<ele>2348.20</ele>
	<time>2023-08-06T06:46:25.000Z</time>
</trkpt>
<trkpt lat="46.0319110" lon="10.4829050">
	<ele>2348.00</ele>
	<time>2023-08-06T06:46:26.000Z</time>
</trkpt>
<trkpt lat="46.0319180" lon="10.4829210">
	<ele>2348.00</ele>
	<time>2023-08-06T06:46:27.000Z</time>
</trkpt>
<trkpt lat="46.0319290" lon="10.4829320">
	<ele>2348.00</ele>
	<time>2023-08-06T06:46:28.000Z</time>
</trkpt>
<trkpt lat="46.0319410" lon="10.4829470">
	<ele>2348.00</ele>
	<time>2023-08-06T06:46:29.000Z</time>
</trkpt>
<trkpt lat="46.0319440" lon="10.4829570">
	<ele>2348.00</ele>
	<time>2023-08-06T06:46:30.000Z</time>
</trkpt>
<trkpt lat="46.0319490" lon="10.4829670">
	<ele>2348.00</ele>
	<time>2023-08-06T06:46:31.000Z</time>
</trkpt>
<trkpt lat="46.0319530" lon="10.4829760">
	<ele>2348.00</ele>
	<time>2023-08-06T06:46:32.000Z</time>
</trkpt>
<trkpt lat="46.0319600" lon="10.4829840">
	<ele>2348.00</ele>
	<time>2023-08-06T06:46:33.000Z</time>
</trkpt>
<trkpt lat="46.0319680" lon="10.4829920">
	<ele>2348.00</ele>
	<time>2023-08-06T06:46:34.000Z</time>
</trkpt>
<trkpt lat="46.0319740" lon="10.4829990">
	<ele>2348.00</ele>
	<time>2023-08-06T06:46:35.000Z</time>
</trkpt>
<trkpt lat="46.0319790" lon="10.4830090">
	<ele>2348.00</ele>
	<time>2023-08-06T06:46:36.000Z</time>
</trkpt>
<trkpt lat="46.0319820" lon="10.4830220">
	<ele>2347.80</ele>
	<time>2023-08-06T06:46:37.000Z</time>
</trkpt>
<trkpt lat="46.0319850" lon="10.4830350">
	<ele>2347.80</ele>
	<time>2023-08-06T06:46:38.000Z</time>
</trkpt>
<trkpt lat="46.0319880" lon="10.4830510">
	<ele>2347.80</ele>
	<time>2023-08-06T06:46:39.000Z</time>
</trkpt>
<trkpt lat="46.0319910" lon="10.4830580">
	<ele>2347.80</ele>
	<time>2023-08-06T06:46:40.000Z</time>
</trkpt>
<trkpt lat="46.0319960" lon="10.4830700">
	<ele>2347.80</ele>
	<time>2023-08-06T06:46:41.000Z</time>
</trkpt>
<trkpt lat="46.0319990" lon="10.4830820">
	<ele>2347.80</ele>
	<time>2023-08-06T06:46:42.000Z</time>
</trkpt>
<trkpt lat="46.0320020" lon="10.4830930">
	<ele>2347.80</ele>
	<time>2023-08-06T06:46:43.000Z</time>
</trkpt>
<trkpt lat="46.0320040" lon="10.4831070">
	<ele>2348.00</ele>
	<time>2023-08-06T06:46:44.000Z</time>
</trkpt>
<trkpt lat="46.0320050" lon="10.4831220">
	<ele>2348.00</ele>
	<time>2023-08-06T06:46:45.000Z</time>
</trkpt>
<trkpt lat="46.0320060" lon="10.4831320">
	<ele>2348.20</ele>
	<time>2023-08-06T06:46:46.000Z</time>
</trkpt>
<trkpt lat="46.0320050" lon="10.4831420">
	<ele>2348.20</ele>
	<time>2023-08-06T06:46:47.000Z</time>
</trkpt>
<trkpt lat="46.0320060" lon="10.4831520">
	<ele>2348.20</ele>
	<time>2023-08-06T06:46:48.000Z</time>
</trkpt>
<trkpt lat="46.0320120" lon="10.4831640">
	<ele>2348.40</ele>
	<time>2023-08-06T06:46:49.000Z</time>
</trkpt>
<trkpt lat="46.0320170" lon="10.4831800">
	<ele>2348.40</ele>
	<time>2023-08-06T06:46:50.000Z</time>
</trkpt>
<trkpt lat="46.0320220" lon="10.4831970">
	<ele>2348.60</ele>
	<time>2023-08-06T06:46:51.000Z</time>
</trkpt>
<trkpt lat="46.0320270" lon="10.4832140">
	<ele>2348.60</ele>
	<time>2023-08-06T06:46:52.000Z</time>
</trkpt>
<trkpt lat="46.0320320" lon="10.4832240">
	<ele>2348.60</ele>
	<time>2023-08-06T06:46:53.000Z</time>
</trkpt>
<trkpt lat="46.0320380" lon="10.4832310">
	<ele>2348.60</ele>
	<time>2023-08-06T06:46:54.000Z</time>
</trkpt>
<trkpt lat="46.0320450" lon="10.4832420">
	<ele>2348.60</ele>
	<time>2023-08-06T06:46:55.000Z</time>
</trkpt>
<trkpt lat="46.0320510" lon="10.4832530">
	<ele>2348.60</ele>
	<time>2023-08-06T06:46:56.000Z</time>
</trkpt>
<trkpt lat="46.0320540" lon="10.4832650">
	<ele>2348.60</ele>
	<time>2023-08-06T06:46:57.000Z</time>
</trkpt>
<trkpt lat="46.0320570" lon="10.4832760">
	<ele>2348.60</ele>
	<time>2023-08-06T06:46:58.000Z</time>
</trkpt>
<trkpt lat="46.0320590" lon="10.4832860">
	<ele>2348.60</ele>
	<time>2023-08-06T06:46:59.000Z</time>
</trkpt>
<trkpt lat="46.0320630" lon="10.4832950">
	<ele>2348.60</ele>
	<time>2023-08-06T06:47:00.000Z</time>
</trkpt>
<trkpt lat="46.0320680" lon="10.4833060">
	<ele>2348.60</ele>
	<time>2023-08-06T06:47:01.000Z</time>
</trkpt>
<trkpt lat="46.0320690" lon="10.4833140">
	<ele>2348.60</ele>
	<time>2023-08-06T06:47:02.000Z</time>
</trkpt>
<trkpt lat="46.0320720" lon="10.4833220">
	<ele>2348.60</ele>
	<time>2023-08-06T06:47:03.000Z</time>
</trkpt>
<trkpt lat="46.0320750" lon="10.4833340">
	<ele>2348.80</ele>
	<time>2023-08-06T06:47:04.000Z</time>
</trkpt>
<trkpt lat="46.0320740" lon="10.4833420">
	<ele>2348.80</ele>
	<time>2023-08-06T06:47:05.000Z</time>
</trkpt>
<trkpt lat="46.0320740" lon="10.4833500">
	<ele>2348.80</ele>
	<time>2023-08-06T06:47:06.000Z</time>
</trkpt>
<trkpt lat="46.0320760" lon="10.4833570">
	<ele>2349.00</ele>
	<time>2023-08-06T06:47:07.000Z</time>
</trkpt>
<trkpt lat="46.0320810" lon="10.4833660">
	<ele>2349.20</ele>
	<time>2023-08-06T06:47:08.000Z</time>
</trkpt>
<trkpt lat="46.0320890" lon="10.4833790">
	<ele>2349.40</ele>
	<time>2023-08-06T06:47:09.000Z</time>
</trkpt>
<trkpt lat="46.0320980" lon="10.4833900">
	<ele>2349.40</ele>
	<time>2023-08-06T06:47:10.000Z</time>
</trkpt>
<trkpt lat="46.0321010" lon="10.4834000">
	<ele>2349.60</ele>
	<time>2023-08-06T06:47:11.000Z</time>
</trkpt>
<trkpt lat="46.0321050" lon="10.4834110">
	<ele>2349.60</ele>
	<time>2023-08-06T06:47:12.000Z</time>
</trkpt>
<trkpt lat="46.0321090" lon="10.4834250">
	<ele>2349.60</ele>
	<time>2023-08-06T06:47:13.000Z</time>
</trkpt>
<trkpt lat="46.0321150" lon="10.4834380">
	<ele>2349.60</ele>
	<time>2023-08-06T06:47:14.000Z</time>
</trkpt>
<trkpt lat="46.0321210" lon="10.4834490">
	<ele>2349.60</ele>
	<time>2023-08-06T06:47:15.000Z</time>
</trkpt>
<trkpt lat="46.0321240" lon="10.4834580">
	<ele>2349.60</ele>
	<time>2023-08-06T06:47:16.000Z</time>
</trkpt>
<trkpt lat="46.0321300" lon="10.4834670">
	<ele>2349.80</ele>
	<time>2023-08-06T06:47:17.000Z</time>
</trkpt>
<trkpt lat="46.0321320" lon="10.4834740">
	<ele>2349.80</ele>
	<time>2023-08-06T06:47:18.000Z</time>
</trkpt>
<trkpt lat="46.0321370" lon="10.4834870">
	<ele>2350.00</ele>
	<time>2023-08-06T06:47:19.000Z</time>
</trkpt>
<trkpt lat="46.0321420" lon="10.4835020">
	<ele>2350.00</ele>
	<time>2023-08-06T06:47:20.000Z</time>
</trkpt>
<trkpt lat="46.0321460" lon="10.4835120">
	<ele>2350.20</ele>
	<time>2023-08-06T06:47:21.000Z</time>
</trkpt>
<trkpt lat="46.0321450" lon="10.4835200">
	<ele>2350.40</ele>
	<time>2023-08-06T06:47:22.000Z</time>
</trkpt>
<trkpt lat="46.0321500" lon="10.4835280">
	<ele>2350.40</ele>
	<time>2023-08-06T06:47:23.000Z</time>
</trkpt>
<trkpt lat="46.0321510" lon="10.4835320">
	<ele>2350.60</ele>
	<time>2023-08-06T06:47:24.000Z</time>
</trkpt>
<trkpt lat="46.0321580" lon="10.4835410">
	<ele>2350.60</ele>
	<time>2023-08-06T06:47:25.000Z</time>
</trkpt>
<trkpt lat="46.0321650" lon="10.4835470">
	<ele>2350.60</ele>
	<time>2023-08-06T06:47:26.000Z</time>
</trkpt>
<trkpt lat="46.0321730" lon="10.4835580">
	<ele>2350.60</ele>
	<time>2023-08-06T06:47:27.000Z</time>
</trkpt>
<trkpt lat="46.0321810" lon="10.4835690">
	<ele>2350.60</ele>
	<time>2023-08-06T06:47:28.000Z</time>
</trkpt>
<trkpt lat="46.0321860" lon="10.4835770">
	<ele>2350.60</ele>
	<time>2023-08-06T06:47:29.000Z</time>
</trkpt>
<trkpt lat="46.0321940" lon="10.4835850">
	<ele>2350.60</ele>
	<time>2023-08-06T06:47:30.000Z</time>
</trkpt>
<trkpt lat="46.0322020" lon="10.4835960">
	<ele>2350.60</ele>
	<time>2023-08-06T06:47:31.000Z</time>
</trkpt>
<trkpt lat="46.0322050" lon="10.4836040">
	<ele>2350.60</ele>
	<time>2023-08-06T06:47:32.000Z</time>
</trkpt>
<trkpt lat="46.0322090" lon="10.4836170">
	<ele>2350.60</ele>
	<time>2023-08-06T06:47:33.000Z</time>
</trkpt>
<trkpt lat="46.0322100" lon="10.4836230">
	<ele>2350.80</ele>
	<time>2023-08-06T06:47:34.000Z</time>
</trkpt>
<trkpt lat="46.0322140" lon="10.4836320">
	<ele>2350.80</ele>
	<time>2023-08-06T06:47:35.000Z</time>
</trkpt>
<trkpt lat="46.0322210" lon="10.4836450">
	<ele>2350.80</ele>
	<time>2023-08-06T06:47:36.000Z</time>
</trkpt>
<trkpt lat="46.0322270" lon="10.4836610">
	<ele>2350.80</ele>
	<time>2023-08-06T06:47:37.000Z</time>
</trkpt>
<trkpt lat="46.0322330" lon="10.4836730">
	<ele>2350.80</ele>
	<time>2023-08-06T06:47:38.000Z</time>
</trkpt>
<trkpt lat="46.0322400" lon="10.4836840">
	<ele>2350.80</ele>
	<time>2023-08-06T06:47:39.000Z</time>
</trkpt>
<trkpt lat="46.0322490" lon="10.4836950">
	<ele>2350.80</ele>
	<time>2023-08-06T06:47:40.000Z</time>
</trkpt>
<trkpt lat="46.0322560" lon="10.4837040">
	<ele>2350.80</ele>
	<time>2023-08-06T06:47:41.000Z</time>
</trkpt>
<trkpt lat="46.0322630" lon="10.4837130">
	<ele>2350.80</ele>
	<time>2023-08-06T06:47:42.000Z</time>
</trkpt>
<trkpt lat="46.0322690" lon="10.4837240">
	<ele>2351.00</ele>
	<time>2023-08-06T06:47:43.000Z</time>
</trkpt>
<trkpt lat="46.0322740" lon="10.4837320">
	<ele>2351.20</ele>
	<time>2023-08-06T06:47:44.000Z</time>
</trkpt>
<trkpt lat="46.0322780" lon="10.4837400">
	<ele>2351.20</ele>
	<time>2023-08-06T06:47:45.000Z</time>
</trkpt>
<trkpt lat="46.0322820" lon="10.4837460">
	<ele>2351.20</ele>
	<time>2023-08-06T06:47:46.000Z</time>
</trkpt>
<trkpt lat="46.0322870" lon="10.4837510">
	<ele>2351.20</ele>
	<time>2023-08-06T06:47:47.000Z</time>
</trkpt>
<trkpt lat="46.0322960" lon="10.4837580">
	<ele>2351.20</ele>
	<time>2023-08-06T06:47:48.000Z</time>
</trkpt>
<trkpt lat="46.0323020" lon="10.4837680">
	<ele>2351.20</ele>
	<time>2023-08-06T06:47:49.000Z</time>
</trkpt>
<trkpt lat="46.0323060" lon="10.4837790">
	<ele>2351.20</ele>
	<time>2023-08-06T06:47:50.000Z</time>
</trkpt>
<trkpt lat="46.0323140" lon="10.4837880">
	<ele>2351.20</ele>
	<time>2023-08-06T06:47:51.000Z</time>
</trkpt>
<trkpt lat="46.0323230" lon="10.4837970">
	<ele>2351.20</ele>
	<time>2023-08-06T06:47:52.000Z</time>
</trkpt>
<trkpt lat="46.0323290" lon="10.4838050">
	<ele>2351.20</ele>
	<time>2023-08-06T06:47:53.000Z</time>
</trkpt>
<trkpt lat="46.0323330" lon="10.4838140">
	<ele>2351.20</ele>
	<time>2023-08-06T06:47:54.000Z</time>
</trkpt>
<trkpt lat="46.0323370" lon="10.4838190">
	<ele>2351.40</ele>
	<time>2023-08-06T06:47:55.000Z</time>
</trkpt>
<trkpt lat="46.0323430" lon="10.4838240">
	<ele>2351.40</ele>
	<time>2023-08-06T06:47:56.000Z</time>
</trkpt>
<trkpt lat="46.0323470" lon="10.4838310">
	<ele>2351.40</ele>
	<time>2023-08-06T06:47:57.000Z</time>
</trkpt>
<trkpt lat="46.0323490" lon="10.4838370">
	<ele>2351.40</ele>
	<time>2023-08-06T06:47:58.000Z</time>
</trkpt>
<trkpt lat="46.0323510" lon="10.4838430">
	<ele>2351.60</ele>
	<time>2023-08-06T06:47:59.000Z</time>
</trkpt>
<trkpt lat="46.0323530" lon="10.4838500">
	<ele>2351.60</ele>
	<time>2023-08-06T06:48:00.000Z</time>
</trkpt>
<trkpt lat="46.0323550" lon="10.4838640">
	<ele>2351.60</ele>
	<time>2023-08-06T06:48:01.000Z</time>
</trkpt>
<trkpt lat="46.0323550" lon="10.4838750">
	<ele>2351.80</ele>
	<time>2023-08-06T06:48:02.000Z</time>
</trkpt>
<trkpt lat="46.0323570" lon="10.4838860">
	<ele>2351.80</ele>
	<time>2023-08-06T06:48:03.000Z</time>
</trkpt>
<trkpt lat="46.0323630" lon="10.4838940">
	<ele>2351.80</ele>
	<time>2023-08-06T06:48:04.000Z</time>
</trkpt>
<trkpt lat="46.0323720" lon="10.4839050">
	<ele>2351.80</ele>
	<time>2023-08-06T06:48:05.000Z</time>
</trkpt>
<trkpt lat="46.0323760" lon="10.4839140">
	<ele>2351.80</ele>
	<time>2023-08-06T06:48:06.000Z</time>
</trkpt>
<trkpt lat="46.0323810" lon="10.4839240">
	<ele>2352.00</ele>
	<time>2023-08-06T06:48:07.000Z</time>
</trkpt>
<trkpt lat="46.0323850" lon="10.4839320">
	<ele>2352.00</ele>
	<time>2023-08-06T06:48:08.000Z</time>
</trkpt>
<trkpt lat="46.0323900" lon="10.4839380">
	<ele>2352.00</ele>
	<time>2023-08-06T06:48:09.000Z</time>
</trkpt>
<trkpt lat="46.0323940" lon="10.4839420">
	<ele>2352.00</ele>
	<time>2023-08-06T06:48:10.000Z</time>
</trkpt>
<trkpt lat="46.0323970" lon="10.4839440">
	<ele>2352.20</ele>
	<time>2023-08-06T06:48:11.000Z</time>
</trkpt>
<trkpt lat="46.0324010" lon="10.4839490">
	<ele>2352.20</ele>
	<time>2023-08-06T06:48:12.000Z</time>
</trkpt>
<trkpt lat="46.0324060" lon="10.4839530">
	<ele>2352.20</ele>
	<time>2023-08-06T06:48:13.000Z</time>
</trkpt>
<trkpt lat="46.0324110" lon="10.4839590">
	<ele>2352.20</ele>
	<time>2023-08-06T06:48:14.000Z</time>
</trkpt>
<trkpt lat="46.0324200" lon="10.4839680">
	<ele>2352.20</ele>
	<time>2023-08-06T06:48:15.000Z</time>
</trkpt>
<trkpt lat="46.0324260" lon="10.4839770">
	<ele>2352.00</ele>
	<time>2023-08-06T06:48:16.000Z</time>
</trkpt>
<trkpt lat="46.0324290" lon="10.4839880">
	<ele>2352.00</ele>
	<time>2023-08-06T06:48:17.000Z</time>
</trkpt>
<trkpt lat="46.0324310" lon="10.4839960">
	<ele>2352.00</ele>
	<time>2023-08-06T06:48:18.000Z</time>
</trkpt>
<trkpt lat="46.0324330" lon="10.4840050">
	<ele>2351.80</ele>
	<time>2023-08-06T06:48:19.000Z</time>
</trkpt>
<trkpt lat="46.0324350" lon="10.4840120">
	<ele>2351.80</ele>
	<time>2023-08-06T06:48:20.000Z</time>
</trkpt>
<trkpt lat="46.0324370" lon="10.4840170">
	<ele>2351.80</ele>
	<time>2023-08-06T06:48:21.000Z</time>
</trkpt>
<trkpt lat="46.0324430" lon="10.4840240">
	<ele>2352.00</ele>
	<time>2023-08-06T06:48:22.000Z</time>
</trkpt>
<trkpt lat="46.0324490" lon="10.4840350">
	<ele>2352.20</ele>
	<time>2023-08-06T06:48:23.000Z</time>
</trkpt>
<trkpt lat="46.0324540" lon="10.4840410">
	<ele>2352.40</ele>
	<time>2023-08-06T06:48:24.000Z</time>
</trkpt>
<trkpt lat="46.0324620" lon="10.4840510">
	<ele>2352.60</ele>
	<time>2023-08-06T06:48:25.000Z</time>
</trkpt>
<trkpt lat="46.0324680" lon="10.4840580">
	<ele>2352.60</ele>
	<time>2023-08-06T06:48:26.000Z</time>
</trkpt>
<trkpt lat="46.0324660" lon="10.4840660">
	<ele>2352.80</ele>
	<time>2023-08-06T06:48:27.000Z</time>
</trkpt>
<trkpt lat="46.0324670" lon="10.4840730">
	<ele>2352.80</ele>
	<time>2023-08-06T06:48:28.000Z</time>
</trkpt>
<trkpt lat="46.0324710" lon="10.4840810">
	<ele>2353.00</ele>
	<time>2023-08-06T06:48:29.000Z</time>
</trkpt>
<trkpt lat="46.0324720" lon="10.4840940">
	<ele>2353.00</ele>
	<time>2023-08-06T06:48:30.000Z</time>
</trkpt>
<trkpt lat="46.0324720" lon="10.4841030">
	<ele>2353.20</ele>
	<time>2023-08-06T06:48:31.000Z</time>
</trkpt>
<trkpt lat="46.0324720" lon="10.4841100">
	<ele>2353.20</ele>
	<time>2023-08-06T06:48:32.000Z</time>
</trkpt>
<trkpt lat="46.0324720" lon="10.4841160">
	<ele>2353.40</ele>
	<time>2023-08-06T06:48:33.000Z</time>
</trkpt>
<trkpt lat="46.0324730" lon="10.4841270">
	<ele>2353.60</ele>
	<time>2023-08-06T06:48:34.000Z</time>
</trkpt>
<trkpt lat="46.0324730" lon="10.4841340">
	<ele>2353.60</ele>
	<time>2023-08-06T06:48:35.000Z</time>
</trkpt>
<trkpt lat="46.0324730" lon="10.4841390">
	<ele>2353.80</ele>
	<time>2023-08-06T06:48:36.000Z</time>
</trkpt>
<trkpt lat="46.0324740" lon="10.4841490">
	<ele>2353.80</ele>
	<time>2023-08-06T06:48:37.000Z</time>
</trkpt>
<trkpt lat="46.0324740" lon="10.4841570">
	<ele>2354.00</ele>
	<time>2023-08-06T06:48:38.000Z</time>
</trkpt>
<trkpt lat="46.0324730" lon="10.4841620">
	<ele>2354.40</ele>
	<time>2023-08-06T06:48:39.000Z</time>
</trkpt>
<trkpt lat="46.0324720" lon="10.4841640">
	<ele>2354.40</ele>
	<time>2023-08-06T06:48:40.000Z</time>
</trkpt>
<trkpt lat="46.0324700" lon="10.4841640">
	<ele>2354.60</ele>
	<time>2023-08-06T06:48:41.000Z</time>
</trkpt>
<trkpt lat="46.0324690" lon="10.4841630">
	<ele>2354.80</ele>
	<time>2023-08-06T06:48:42.000Z</time>
</trkpt>
<trkpt lat="46.0324680" lon="10.4841600">
	<ele>2354.80</ele>
	<time>2023-08-06T06:48:43.000Z</time>
</trkpt>
<trkpt lat="46.0324670" lon="10.4841590">
	<ele>2355.00</ele>
	<time>2023-08-06T06:48:44.000Z</time>
</trkpt>
<trkpt lat="46.0324690" lon="10.4841610">
	<ele>2355.00</ele>
	<time>2023-08-06T06:48:45.000Z</time>
</trkpt>
<trkpt lat="46.0324710" lon="10.4841640">
	<ele>2354.80</ele>
	<time>2023-08-06T06:48:46.000Z</time>
</trkpt>
<trkpt lat="46.0324720" lon="10.4841650">
	<ele>2355.00</ele>
	<time>2023-08-06T06:48:47.000Z</time>
</trkpt>
<trkpt lat="46.0324720" lon="10.4841650">
	<ele>2355.00</ele>
	<time>2023-08-06T06:48:48.000Z</time>
</trkpt>
<trkpt lat="46.0324720" lon="10.4841650">
	<ele>2355.00</ele>
	<time>2023-08-06T06:48:49.000Z</time>
</trkpt>
<trkpt lat="46.0324720" lon="10.4841650">
	<ele>2354.80</ele>
	<time>2023-08-06T06:48:50.000Z</time>
</trkpt>
<trkpt lat="46.0324720" lon="10.4841650">
	<ele>2354.80</ele>
	<time>2023-08-06T06:48:51.000Z</time>
</trkpt>
<trkpt lat="46.0324720" lon="10.4841650">
	<ele>2354.80</ele>
	<time>2023-08-06T06:48:52.000Z</time>
</trkpt>
<trkpt lat="46.0324720" lon="10.4841650">
	<ele>2354.80</ele>
	<time>2023-08-06T06:48:53.000Z</time>
</trkpt>
<trkpt lat="46.0324720" lon="10.4841650">
	<ele>2354.80</ele>
	<time>2023-08-06T06:48:54.000Z</time>
</trkpt>
<trkpt lat="46.0324720" lon="10.4841650">
	<ele>2354.80</ele>
	<time>2023-08-06T06:48:55.000Z</time>
</trkpt>
<trkpt lat="46.0324720" lon="10.4841640">
	<ele>2354.80</ele>
	<time>2023-08-06T06:48:56.000Z</time>
</trkpt>
<trkpt lat="46.0324720" lon="10.4841640">
	<ele>2355.00</ele>
	<time>2023-08-06T06:48:57.000Z</time>
</trkpt>
<trkpt lat="46.0324710" lon="10.4841640">
	<ele>2355.20</ele>
	<time>2023-08-06T06:48:58.000Z</time>
</trkpt>
<trkpt lat="46.0324710" lon="10.4841640">
	<ele>2355.60</ele>
	<time>2023-08-06T06:48:59.000Z</time>
</trkpt>
<trkpt lat="46.0324700" lon="10.4841630">
	<ele>2355.80</ele>
	<time>2023-08-06T06:49:00.000Z</time>
</trkpt>
<trkpt lat="46.0324690" lon="10.4841620">
	<ele>2355.80</ele>
	<time>2023-08-06T06:49:01.000Z</time>
</trkpt>
<trkpt lat="46.0324690" lon="10.4841610">
	<ele>2356.00</ele>
	<time>2023-08-06T06:49:02.000Z</time>
</trkpt>
<trkpt lat="46.0324680" lon="10.4841600">
	<ele>2356.00</ele>
	<time>2023-08-06T06:49:03.000Z</time>
</trkpt>
<trkpt lat="46.0324680" lon="10.4841600">
	<ele>2355.80</ele>
	<time>2023-08-06T06:49:04.000Z</time>
</trkpt>
<trkpt lat="46.0324670" lon="10.4841600">
	<ele>2355.80</ele>
	<time>2023-08-06T06:49:05.000Z</time>
</trkpt>
<trkpt lat="46.0324650" lon="10.4841600">
	<ele>2355.60</ele>
	<time>2023-08-06T06:49:06.000Z</time>
</trkpt>
<trkpt lat="46.0324650" lon="10.4841600">
	<ele>2355.60</ele>
	<time>2023-08-06T06:49:07.000Z</time>
</trkpt>
<trkpt lat="46.0324640" lon="10.4841600">
	<ele>2355.60</ele>
	<time>2023-08-06T06:49:08.000Z</time>
</trkpt>
<trkpt lat="46.0324630" lon="10.4841600">
	<ele>2355.60</ele>
	<time>2023-08-06T06:49:09.000Z</time>
</trkpt>
<trkpt lat="46.0324630" lon="10.4841600">
	<ele>2356.00</ele>
	<time>2023-08-06T06:49:10.000Z</time>
</trkpt>
<trkpt lat="46.0324630" lon="10.4841600">
	<ele>2356.20</ele>
	<time>2023-08-06T06:49:11.000Z</time>
</trkpt>
<trkpt lat="46.0324630" lon="10.4841600">
	<ele>2356.40</ele>
	<time>2023-08-06T06:49:12.000Z</time>
</trkpt>
<trkpt lat="46.0324620" lon="10.4841600">
	<ele>2356.40</ele>
	<time>2023-08-06T06:49:13.000Z</time>
</trkpt>
<trkpt lat="46.0324620" lon="10.4841600">
	<ele>2356.60</ele>
	<time>2023-08-06T06:49:14.000Z</time>
</trkpt>
<trkpt lat="46.0324610" lon="10.4841600">
	<ele>2356.40</ele>
	<time>2023-08-06T06:49:15.000Z</time>
</trkpt>
<trkpt lat="46.0324610" lon="10.4841600">
	<ele>2356.40</ele>
	<time>2023-08-06T06:49:16.000Z</time>
</trkpt>
<trkpt lat="46.0324610" lon="10.4841600">
	<ele>2356.40</ele>
	<time>2023-08-06T06:49:17.000Z</time>
</trkpt>
<trkpt lat="46.0324610" lon="10.4841600">
	<ele>2356.40</ele>
	<time>2023-08-06T06:49:18.000Z</time>
</trkpt>
<trkpt lat="46.0324610" lon="10.4841600">
	<ele>2356.20</ele>
	<time>2023-08-06T06:49:19.000Z</time>
</trkpt>
<trkpt lat="46.0324600" lon="10.4841600">
	<ele>2356.20</ele>
	<time>2023-08-06T06:49:20.000Z</time>
</trkpt>
<trkpt lat="46.0324590" lon="10.4841620">
	<ele>2356.20</ele>
	<time>2023-08-06T06:49:21.000Z</time>
</trkpt>
<trkpt lat="46.0324590" lon="10.4841670">
	<ele>2356.20</ele>
	<time>2023-08-06T06:49:22.000Z</time>
</trkpt>
<trkpt lat="46.0324590" lon="10.4841730">
	<ele>2356.20</ele>
	<time>2023-08-06T06:49:23.000Z</time>
</trkpt>
<trkpt lat="46.0324590" lon="10.4841760">
	<ele>2356.20</ele>
	<time>2023-08-06T06:49:24.000Z</time>
</trkpt>
<trkpt lat="46.0324590" lon="10.4841770">
	<ele>2356.40</ele>
	<time>2023-08-06T06:49:25.000Z</time>
</trkpt>
<trkpt lat="46.0324590" lon="10.4841780">
	<ele>2356.60</ele>
	<time>2023-08-06T06:49:26.000Z</time>
</trkpt>
<trkpt lat="46.0324590" lon="10.4841780">
	<ele>2356.80</ele>
	<time>2023-08-06T06:49:27.000Z</time>
</trkpt>
<trkpt lat="46.0324590" lon="10.4841790">
	<ele>2357.00</ele>
	<time>2023-08-06T06:49:28.000Z</time>
</trkpt>
<trkpt lat="46.0324590" lon="10.4841800">
	<ele>2357.00</ele>
	<time>2023-08-06T06:49:29.000Z</time>
</trkpt>
<trkpt lat="46.0324590" lon="10.4841810">
	<ele>2357.20</ele>
	<time>2023-08-06T06:49:30.000Z</time>
</trkpt>
<trkpt lat="46.0324590" lon="10.4841820">
	<ele>2357.40</ele>
	<time>2023-08-06T06:49:31.000Z</time>
</trkpt>
<trkpt lat="46.0324590" lon="10.4841820">
	<ele>2357.80</ele>
	<time>2023-08-06T06:49:32.000Z</time>
</trkpt>
<trkpt lat="46.0324590" lon="10.4841820">
	<ele>2357.80</ele>
	<time>2023-08-06T06:49:33.000Z</time>
</trkpt>
<trkpt lat="46.0324590" lon="10.4841830">
	<ele>2358.00</ele>
	<time>2023-08-06T06:49:34.000Z</time>
</trkpt>
<trkpt lat="46.0324590" lon="10.4841830">
	<ele>2358.00</ele>
	<time>2023-08-06T06:49:35.000Z</time>
</trkpt>
<trkpt lat="46.0324590" lon="10.4841870">
	<ele>2358.00</ele>
	<time>2023-08-06T06:49:36.000Z</time>
</trkpt>
<trkpt lat="46.0324600" lon="10.4841930">
	<ele>2358.00</ele>
	<time>2023-08-06T06:49:37.000Z</time>
</trkpt>
<trkpt lat="46.0324610" lon="10.4841980">
	<ele>2358.00</ele>
	<time>2023-08-06T06:49:38.000Z</time>
</trkpt>
<trkpt lat="46.0324610" lon="10.4842050">
	<ele>2358.20</ele>
	<time>2023-08-06T06:49:39.000Z</time>
</trkpt>
<trkpt lat="46.0324610" lon="10.4842110">
	<ele>2358.20</ele>
	<time>2023-08-06T06:49:40.000Z</time>
</trkpt>
<trkpt lat="46.0324610" lon="10.4842160">
	<ele>2358.40</ele>
	<time>2023-08-06T06:49:41.000Z</time>
</trkpt>
<trkpt lat="46.0324620" lon="10.4842240">
	<ele>2358.40</ele>
	<time>2023-08-06T06:49:42.000Z</time>
</trkpt>
<trkpt lat="46.0324620" lon="10.4842290">
	<ele>2358.60</ele>
	<time>2023-08-06T06:49:43.000Z</time>
</trkpt>
<trkpt lat="46.0324620" lon="10.4842350">
	<ele>2358.60</ele>
	<time>2023-08-06T06:49:44.000Z</time>
</trkpt>
<trkpt lat="46.0324620" lon="10.4842390">
	<ele>2358.80</ele>
	<time>2023-08-06T06:49:45.000Z</time>
</trkpt>
<trkpt lat="46.0324620" lon="10.4842420">
	<ele>2358.80</ele>
	<time>2023-08-06T06:49:46.000Z</time>
</trkpt>
<trkpt lat="46.0324620" lon="10.4842440">
	<ele>2358.80</ele>
	<time>2023-08-06T06:49:47.000Z</time>
</trkpt>
<trkpt lat="46.0324620" lon="10.4842450">
	<ele>2358.80</ele>
	<time>2023-08-06T06:49:48.000Z</time>
</trkpt>
<trkpt lat="46.0324620" lon="10.4842460">
	<ele>2358.80</ele>
	<time>2023-08-06T06:49:49.000Z</time>
</trkpt>
<trkpt lat="46.0324620" lon="10.4842460">
	<ele>2358.80</ele>
	<time>2023-08-06T06:49:50.000Z</time>
</trkpt>
<trkpt lat="46.0324620" lon="10.4842470">
	<ele>2358.80</ele>
	<time>2023-08-06T06:49:51.000Z</time>
</trkpt>
<trkpt lat="46.0324620" lon="10.4842500">
	<ele>2359.00</ele>
	<time>2023-08-06T06:49:52.000Z</time>
</trkpt>
<trkpt lat="46.0324620" lon="10.4842530">
	<ele>2359.00</ele>
	<time>2023-08-06T06:49:53.000Z</time>
</trkpt>
<trkpt lat="46.0324620" lon="10.4842600">
	<ele>2359.00</ele>
	<time>2023-08-06T06:49:54.000Z</time>
</trkpt>
<trkpt lat="46.0324620" lon="10.4842660">
	<ele>2359.20</ele>
	<time>2023-08-06T06:49:55.000Z</time>
</trkpt>
<trkpt lat="46.0324620" lon="10.4842740">
	<ele>2359.20</ele>
	<time>2023-08-06T06:49:56.000Z</time>
</trkpt>
<trkpt lat="46.0324620" lon="10.4842830">
	<ele>2359.20</ele>
	<time>2023-08-06T06:49:57.000Z</time>
</trkpt>
<trkpt lat="46.0324620" lon="10.4842910">
	<ele>2359.20</ele>
	<time>2023-08-06T06:49:58.000Z</time>
</trkpt>
<trkpt lat="46.0324600" lon="10.4842940">
	<ele>2359.20</ele>
	<time>2023-08-06T06:49:59.000Z</time>
</trkpt>
<trkpt lat="46.0324600" lon="10.4842950">
	<ele>2359.20</ele>
	<time>2023-08-06T06:50:00.000Z</time>
</trkpt>
<trkpt lat="46.0324580" lon="10.4842950">
	<ele>2359.00</ele>
	<time>2023-08-06T06:50:01.000Z</time>
</trkpt>
<trkpt lat="46.0324580" lon="10.4842960">
	<ele>2359.00</ele>
	<time>2023-08-06T06:50:02.000Z</time>
</trkpt>
<trkpt lat="46.0324570" lon="10.4842960">
	<ele>2359.00</ele>
	<time>2023-08-06T06:50:03.000Z</time>
</trkpt>
<trkpt lat="46.0324560" lon="10.4842960">
	<ele>2359.20</ele>
	<time>2023-08-06T06:50:04.000Z</time>
</trkpt>
<trkpt lat="46.0324560" lon="10.4842960">
	<ele>2359.20</ele>
	<time>2023-08-06T06:50:05.000Z</time>
</trkpt>
<trkpt lat="46.0324550" lon="10.4842960">
	<ele>2359.20</ele>
	<time>2023-08-06T06:50:06.000Z</time>
</trkpt>
<trkpt lat="46.0324550" lon="10.4842960">
	<ele>2359.20</ele>
	<time>2023-08-06T06:50:07.000Z</time>
</trkpt>
<trkpt lat="46.0324550" lon="10.4842960">
	<ele>2359.20</ele>
	<time>2023-08-06T06:50:08.000Z</time>
</trkpt>
<trkpt lat="46.0324550" lon="10.4842960">
	<ele>2359.00</ele>
	<time>2023-08-06T06:50:09.000Z</time>
</trkpt>
<trkpt lat="46.0324550" lon="10.4842960">
	<ele>2359.00</ele>
	<time>2023-08-06T06:50:10.000Z</time>
</trkpt>
<trkpt lat="46.0324550" lon="10.4842960">
	<ele>2359.00</ele>
	<time>2023-08-06T06:50:11.000Z</time>
</trkpt>
<trkpt lat="46.0324550" lon="10.4842960">
	<ele>2359.00</ele>
	<time>2023-08-06T06:50:12.000Z</time>
</trkpt>
<trkpt lat="46.0324540" lon="10.4842960">
	<ele>2359.20</ele>
	<time>2023-08-06T06:50:13.000Z</time>
</trkpt>
<trkpt lat="46.0324540" lon="10.4842940">
	<ele>2359.20</ele>
	<time>2023-08-06T06:50:14.000Z</time>
</trkpt>
<trkpt lat="46.0324540" lon="10.4842920">
	<ele>2359.20</ele>
	<time>2023-08-06T06:50:15.000Z</time>
</trkpt>
<trkpt lat="46.0324540" lon="10.4842900">
	<ele>2359.20</ele>
	<time>2023-08-06T06:50:16.000Z</time>
</trkpt>
<trkpt lat="46.0324530" lon="10.4842880">
	<ele>2359.20</ele>
	<time>2023-08-06T06:50:17.000Z</time>
</trkpt>
<trkpt lat="46.0324530" lon="10.4842870">
	<ele>2359.20</ele>
	<time>2023-08-06T06:50:18.000Z</time>
</trkpt>
<trkpt lat="46.0324530" lon="10.4842860">
	<ele>2359.20</ele>
	<time>2023-08-06T06:50:19.000Z</time>
</trkpt>
<trkpt lat="46.0324530" lon="10.4842860">
	<ele>2359.20</ele>
	<time>2023-08-06T06:50:20.000Z</time>
</trkpt>
<trkpt lat="46.0324530" lon="10.4842850">
	<ele>2359.20</ele>
	<time>2023-08-06T06:50:21.000Z</time>
</trkpt>
<trkpt lat="46.0324530" lon="10.4842850">
	<ele>2359.40</ele>
	<time>2023-08-06T06:50:22.000Z</time>
</trkpt>
<trkpt lat="46.0324520" lon="10.4842850">
	<ele>2359.60</ele>
	<time>2023-08-06T06:50:23.000Z</time>
</trkpt>
<trkpt lat="46.0324520" lon="10.4842850">
	<ele>2359.60</ele>
	<time>2023-08-06T06:50:24.000Z</time>
</trkpt>
<trkpt lat="46.0324520" lon="10.4842850">
	<ele>2359.80</ele>
	<time>2023-08-06T06:50:25.000Z</time>
</trkpt>
<trkpt lat="46.0324520" lon="10.4842850">
	<ele>2359.80</ele>
	<time>2023-08-06T06:50:26.000Z</time>
</trkpt>
<trkpt lat="46.0324520" lon="10.4842850">
	<ele>2359.80</ele>
	<time>2023-08-06T06:50:27.000Z</time>
</trkpt>
<trkpt lat="46.0324520" lon="10.4842850">
	<ele>2359.60</ele>
	<time>2023-08-06T06:50:28.000Z</time>
</trkpt>
<trkpt lat="46.0324520" lon="10.4842850">
	<ele>2359.40</ele>
	<time>2023-08-06T06:50:29.000Z</time>
</trkpt>
<trkpt lat="46.0324520" lon="10.4842850">
	<ele>2359.20</ele>
	<time>2023-08-06T06:50:30.000Z</time>
</trkpt>
<trkpt lat="46.0324520" lon="10.4842850">
	<ele>2359.20</ele>
	<time>2023-08-06T06:50:31.000Z</time>
</trkpt>
<trkpt lat="46.0324520" lon="10.4842850">
	<ele>2359.20</ele>
	<time>2023-08-06T06:50:32.000Z</time>
</trkpt>
<trkpt lat="46.0324520" lon="10.4842860">
	<ele>2359.00</ele>
	<time>2023-08-06T06:50:33.000Z</time>
</trkpt>
<trkpt lat="46.0324530" lon="10.4842860">
	<ele>2359.00</ele>
	<time>2023-08-06T06:50:34.000Z</time>
</trkpt>
<trkpt lat="46.0324530" lon="10.4842870">
	<ele>2359.00</ele>
	<time>2023-08-06T06:50:35.000Z</time>
</trkpt>
<trkpt lat="46.0324530" lon="10.4842870">
	<ele>2358.80</ele>
	<time>2023-08-06T06:50:36.000Z</time>
</trkpt>
<trkpt lat="46.0324550" lon="10.4842880">
	<ele>2358.80</ele>
	<time>2023-08-06T06:50:37.000Z</time>
</trkpt>
<trkpt lat="46.0324570" lon="10.4842880">
	<ele>2358.80</ele>
	<time>2023-08-06T06:50:38.000Z</time>
</trkpt>
<trkpt lat="46.0324610" lon="10.4842880">
	<ele>2358.80</ele>
	<time>2023-08-06T06:50:39.000Z</time>
</trkpt>
<trkpt lat="46.0324620" lon="10.4842880">
	<ele>2358.60</ele>
	<time>2023-08-06T06:50:40.000Z</time>
</trkpt>
<trkpt lat="46.0324630" lon="10.4842890">
	<ele>2358.40</ele>
	<time>2023-08-06T06:50:41.000Z</time>
</trkpt>
<trkpt lat="46.0324640" lon="10.4842900">
	<ele>2358.00</ele>
	<time>2023-08-06T06:50:42.000Z</time>
</trkpt>
<trkpt lat="46.0324700" lon="10.4842920">
	<ele>2357.80</ele>
	<time>2023-08-06T06:50:43.000Z</time>
</trkpt>
<trkpt lat="46.0324770" lon="10.4842960">
	<ele>2357.80</ele>
	<time>2023-08-06T06:50:44.000Z</time>
</trkpt>
<trkpt lat="46.0324840" lon="10.4843010">
	<ele>2357.60</ele>
	<time>2023-08-06T06:50:45.000Z</time>
</trkpt>
<trkpt lat="46.0324890" lon="10.4843070">
	<ele>2357.60</ele>
	<time>2023-08-06T06:50:46.000Z</time>
</trkpt>
<trkpt lat="46.0324950" lon="10.4843090">
	<ele>2357.60</ele>
	<time>2023-08-06T06:50:47.000Z</time>
</trkpt>
<trkpt lat="46.0325020" lon="10.4843110">
	<ele>2357.60</ele>
	<time>2023-08-06T06:50:48.000Z</time>
</trkpt>
<trkpt lat="46.0325080" lon="10.4843130">
	<ele>2357.60</ele>
	<time>2023-08-06T06:50:49.000Z</time>
</trkpt>
<trkpt lat="46.0325120" lon="10.4843180">
	<ele>2357.60</ele>
	<time>2023-08-06T06:50:50.000Z</time>
</trkpt>
<trkpt lat="46.0325150" lon="10.4843210">
	<ele>2357.60</ele>
	<time>2023-08-06T06:50:51.000Z</time>
</trkpt>
<trkpt lat="46.0325210" lon="10.4843240">
	<ele>2357.80</ele>
	<time>2023-08-06T06:50:52.000Z</time>
</trkpt>
<trkpt lat="46.0325200" lon="10.4843250">
	<ele>2358.00</ele>
	<time>2023-08-06T06:50:53.000Z</time>
</trkpt>
<trkpt lat="46.0325200" lon="10.4843250">
	<ele>2358.20</ele>
	<time>2023-08-06T06:50:54.000Z</time>
</trkpt>
<trkpt lat="46.0325200" lon="10.4843250">
	<ele>2358.40</ele>
	<time>2023-08-06T06:50:55.000Z</time>
</trkpt>
<trkpt lat="46.0325200" lon="10.4843250">
	<ele>2358.40</ele>
	<time>2023-08-06T06:50:56.000Z</time>
</trkpt>
<trkpt lat="46.0325200" lon="10.4843250">
	<ele>2358.40</ele>
	<time>2023-08-06T06:50:57.000Z</time>
</trkpt>
<trkpt lat="46.0325200" lon="10.4843250">
	<ele>2358.80</ele>
	<time>2023-08-06T06:50:58.000Z</time>
</trkpt>
<trkpt lat="46.0325200" lon="10.4843250">
	<ele>2358.80</ele>
	<time>2023-08-06T06:50:59.000Z</time>
</trkpt>
<trkpt lat="46.0325200" lon="10.4843250">
	<ele>2358.80</ele>
	<time>2023-08-06T06:51:00.000Z</time>
</trkpt>
<trkpt lat="46.0325200" lon="10.4843250">
	<ele>2358.80</ele>
	<time>2023-08-06T06:51:01.000Z</time>
</trkpt>
<trkpt lat="46.0325200" lon="10.4843250">
	<ele>2358.80</ele>
	<time>2023-08-06T06:51:02.000Z</time>
</trkpt>
<trkpt lat="46.0325200" lon="10.4843250">
	<ele>2358.80</ele>
	<time>2023-08-06T06:51:03.000Z</time>
</trkpt>
<trkpt lat="46.0325200" lon="10.4843250">
	<ele>2358.80</ele>
	<time>2023-08-06T06:51:04.000Z</time>
</trkpt>
<trkpt lat="46.0325200" lon="10.4843250">
	<ele>2358.80</ele>
	<time>2023-08-06T06:51:05.000Z</time>
</trkpt>
<trkpt lat="46.0325200" lon="10.4843240">
	<ele>2358.80</ele>
	<time>2023-08-06T06:51:06.000Z</time>
</trkpt>
<trkpt lat="46.0325210" lon="10.4843240">
	<ele>2358.80</ele>
	<time>2023-08-06T06:51:07.000Z</time>
</trkpt>
<trkpt lat="46.0325230" lon="10.4843260">
	<ele>2358.80</ele>
	<time>2023-08-06T06:51:08.000Z</time>
</trkpt>
<trkpt lat="46.0325350" lon="10.4843380">
	<ele>2358.80</ele>
	<time>2023-08-06T06:51:09.000Z</time>
</trkpt>
<trkpt lat="46.0325440" lon="10.4843480">
	<ele>2358.80</ele>
	<time>2023-08-06T06:51:10.000Z</time>
</trkpt>
<trkpt lat="46.0325500" lon="10.4843490">
	<ele>2358.80</ele>
	<time>2023-08-06T06:51:11.000Z</time>
</trkpt>
<trkpt lat="46.0325580" lon="10.4843520">
	<ele>2358.80</ele>
	<time>2023-08-06T06:51:12.000Z</time>
</trkpt>
<trkpt lat="46.0325650" lon="10.4843570">
	<ele>2358.80</ele>
	<time>2023-08-06T06:51:13.000Z</time>
</trkpt>
<trkpt lat="46.0325760" lon="10.4843660">
	<ele>2358.80</ele>
	<time>2023-08-06T06:51:14.000Z</time>
</trkpt>
<trkpt lat="46.0325880" lon="10.4843780">
	<ele>2358.80</ele>
	<time>2023-08-06T06:51:15.000Z</time>
</trkpt>
<trkpt lat="46.0325990" lon="10.4843900">
	<ele>2358.80</ele>
	<time>2023-08-06T06:51:16.000Z</time>
</trkpt>
<trkpt lat="46.0326090" lon="10.4843960">
	<ele>2358.80</ele>
	<time>2023-08-06T06:51:17.000Z</time>
</trkpt>
<trkpt lat="46.0326150" lon="10.4843970">
	<ele>2358.80</ele>
	<time>2023-08-06T06:51:18.000Z</time>
</trkpt>
<trkpt lat="46.0326190" lon="10.4843990">
	<ele>2358.80</ele>
	<time>2023-08-06T06:51:19.000Z</time>
</trkpt>
<trkpt lat="46.0326290" lon="10.4844000">
	<ele>2358.80</ele>
	<time>2023-08-06T06:51:20.000Z</time>
</trkpt>
<trkpt lat="46.0326380" lon="10.4844000">
	<ele>2358.80</ele>
	<time>2023-08-06T06:51:21.000Z</time>
</trkpt>
<trkpt lat="46.0326380" lon="10.4844010">
	<ele>2358.80</ele>
	<time>2023-08-06T06:51:22.000Z</time>
</trkpt>
<trkpt lat="46.0326360" lon="10.4844020">
	<ele>2358.20</ele>
	<time>2023-08-06T06:51:23.000Z</time>
</trkpt>
<trkpt lat="46.0326350" lon="10.4844010">
	<ele>2357.80</ele>
	<time>2023-08-06T06:51:24.000Z</time>
</trkpt>
<trkpt lat="46.0326360" lon="10.4844000">
	<ele>2357.60</ele>
	<time>2023-08-06T06:51:25.000Z</time>
</trkpt>
<trkpt lat="46.0326370" lon="10.4843970">
	<ele>2357.40</ele>
	<time>2023-08-06T06:51:26.000Z</time>
</trkpt>
<trkpt lat="46.0326420" lon="10.4843930">
	<ele>2357.20</ele>
	<time>2023-08-06T06:51:27.000Z</time>
</trkpt>
<trkpt lat="46.0326450" lon="10.4843890">
	<ele>2357.00</ele>
	<time>2023-08-06T06:51:28.000Z</time>
</trkpt>
<trkpt lat="46.0326500" lon="10.4843850">
	<ele>2356.60</ele>
	<time>2023-08-06T06:51:29.000Z</time>
</trkpt>
<trkpt lat="46.0326600" lon="10.4843900">
	<ele>2356.40</ele>
	<time>2023-08-06T06:51:30.000Z</time>
</trkpt>
<trkpt lat="46.0326650" lon="10.4843910">
	<ele>2356.20</ele>
	<time>2023-08-06T06:51:31.000Z</time>
</trkpt>
<trkpt lat="46.0326720" lon="10.4843890">
	<ele>2356.00</ele>
	<time>2023-08-06T06:51:32.000Z</time>
</trkpt>
<trkpt lat="46.0326790" lon="10.4843880">
	<ele>2355.60</ele>
	<time>2023-08-06T06:51:33.000Z</time>
</trkpt>
<trkpt lat="46.0326830" lon="10.4843830">
	<ele>2355.60</ele>
	<time>2023-08-06T06:51:34.000Z</time>
</trkpt>
<trkpt lat="46.0326850" lon="10.4843750">
	<ele>2355.20</ele>
	<time>2023-08-06T06:51:35.000Z</time>
</trkpt>
<trkpt lat="46.0326900" lon="10.4843650">
	<ele>2355.00</ele>
	<time>2023-08-06T06:51:36.000Z</time>
</trkpt>
<trkpt lat="46.0326950" lon="10.4843580">
	<ele>2354.80</ele>
	<time>2023-08-06T06:51:37.000Z</time>
</trkpt>
<trkpt lat="46.0327000" lon="10.4843510">
	<ele>2354.60</ele>
	<time>2023-08-06T06:51:38.000Z</time>
</trkpt>
<trkpt lat="46.0327050" lon="10.4843410">
	<ele>2354.40</ele>
	<time>2023-08-06T06:51:39.000Z</time>
</trkpt>
<trkpt lat="46.0327140" lon="10.4843340">
	<ele>2354.20</ele>
	<time>2023-08-06T06:51:40.000Z</time>
</trkpt>
<trkpt lat="46.0327230" lon="10.4843270">
	<ele>2354.00</ele>
	<time>2023-08-06T06:51:41.000Z</time>
</trkpt>
<trkpt lat="46.0327340" lon="10.4843220">
	<ele>2354.00</ele>
	<time>2023-08-06T06:51:42.000Z</time>
</trkpt>
<trkpt lat="46.0327410" lon="10.4843180">
	<ele>2353.80</ele>
	<time>2023-08-06T06:51:43.000Z</time>
</trkpt>
<trkpt lat="46.0327510" lon="10.4843140">
	<ele>2353.80</ele>
	<time>2023-08-06T06:51:44.000Z</time>
</trkpt>
<trkpt lat="46.0327590" lon="10.4843090">
	<ele>2353.40</ele>
	<time>2023-08-06T06:51:45.000Z</time>
</trkpt>
<trkpt lat="46.0327690" lon="10.4843100">
	<ele>2353.40</ele>
	<time>2023-08-06T06:51:46.000Z</time>
</trkpt>
<trkpt lat="46.0327760" lon="10.4843160">
	<ele>2353.00</ele>
	<time>2023-08-06T06:51:47.000Z</time>
</trkpt>
<trkpt lat="46.0327870" lon="10.4843230">
	<ele>2352.80</ele>
	<time>2023-08-06T06:51:48.000Z</time>
</trkpt>
<trkpt lat="46.0327980" lon="10.4843310">
	<ele>2352.60</ele>
	<time>2023-08-06T06:51:49.000Z</time>
</trkpt>
<trkpt lat="46.0328080" lon="10.4843380">
	<ele>2352.40</ele>
	<time>2023-08-06T06:51:50.000Z</time>
</trkpt>
<trkpt lat="46.0328160" lon="10.4843400">
	<ele>2352.40</ele>
	<time>2023-08-06T06:51:51.000Z</time>
</trkpt>
<trkpt lat="46.0328250" lon="10.4843430">
	<ele>2352.40</ele>
	<time>2023-08-06T06:51:52.000Z</time>
</trkpt>
<trkpt lat="46.0328310" lon="10.4843450">
	<ele>2352.40</ele>
	<time>2023-08-06T06:51:53.000Z</time>
</trkpt>
<trkpt lat="46.0328410" lon="10.4843490">
	<ele>2352.00</ele>
	<time>2023-08-06T06:51:54.000Z</time>
</trkpt>
<trkpt lat="46.0328480" lon="10.4843510">
	<ele>2351.80</ele>
	<time>2023-08-06T06:51:55.000Z</time>
</trkpt>
<trkpt lat="46.0328560" lon="10.4843560">
	<ele>2351.80</ele>
	<time>2023-08-06T06:51:56.000Z</time>
</trkpt>
<trkpt lat="46.0328640" lon="10.4843590">
	<ele>2351.60</ele>
	<time>2023-08-06T06:51:57.000Z</time>
</trkpt>
<trkpt lat="46.0328720" lon="10.4843640">
	<ele>2351.40</ele>
	<time>2023-08-06T06:51:58.000Z</time>
</trkpt>
<trkpt lat="46.0328810" lon="10.4843620">
	<ele>2351.20</ele>
	<time>2023-08-06T06:51:59.000Z</time>
</trkpt>
<trkpt lat="46.0328880" lon="10.4843560">
	<ele>2350.80</ele>
	<time>2023-08-06T06:52:00.000Z</time>
</trkpt>
<trkpt lat="46.0328960" lon="10.4843560">
	<ele>2350.60</ele>
	<time>2023-08-06T06:52:01.000Z</time>
</trkpt>
<trkpt lat="46.0329000" lon="10.4843590">
	<ele>2350.60</ele>
	<time>2023-08-06T06:52:02.000Z</time>
</trkpt>
<trkpt lat="46.0329020" lon="10.4843600">
	<ele>2350.20</ele>
	<time>2023-08-06T06:52:03.000Z</time>
</trkpt>
<trkpt lat="46.0329070" lon="10.4843600">
	<ele>2350.00</ele>
	<time>2023-08-06T06:52:04.000Z</time>
</trkpt>
<trkpt lat="46.0329140" lon="10.4843580">
	<ele>2349.80</ele>
	<time>2023-08-06T06:52:05.000Z</time>
</trkpt>
<trkpt lat="46.0329220" lon="10.4843510">
	<ele>2349.80</ele>
	<time>2023-08-06T06:52:06.000Z</time>
</trkpt>
<trkpt lat="46.0329270" lon="10.4843490">
	<ele>2349.60</ele>
	<time>2023-08-06T06:52:07.000Z</time>
</trkpt>
<trkpt lat="46.0329370" lon="10.4843510">
	<ele>2349.40</ele>
	<time>2023-08-06T06:52:08.000Z</time>
</trkpt>
<trkpt lat="46.0329440" lon="10.4843590">
	<ele>2349.20</ele>
	<time>2023-08-06T06:52:09.000Z</time>
</trkpt>
<trkpt lat="46.0329520" lon="10.4843650">
	<ele>2348.80</ele>
	<time>2023-08-06T06:52:10.000Z</time>
</trkpt>
<trkpt lat="46.0329600" lon="10.4843650">
	<ele>2348.60</ele>
	<time>2023-08-06T06:52:11.000Z</time>
</trkpt>
<trkpt lat="46.0329660" lon="10.4843650">
	<ele>2348.40</ele>
	<time>2023-08-06T06:52:12.000Z</time>
</trkpt>
<trkpt lat="46.0329740" lon="10.4843630">
	<ele>2348.40</ele>
	<time>2023-08-06T06:52:13.000Z</time>
</trkpt>
<trkpt lat="46.0329810" lon="10.4843660">
	<ele>2348.20</ele>
	<time>2023-08-06T06:52:14.000Z</time>
</trkpt>
<trkpt lat="46.0329910" lon="10.4843770">
	<ele>2348.20</ele>
	<time>2023-08-06T06:52:15.000Z</time>
</trkpt>
<trkpt lat="46.0330020" lon="10.4843850">
	<ele>2348.00</ele>
	<time>2023-08-06T06:52:16.000Z</time>
</trkpt>
<trkpt lat="46.0330130" lon="10.4843910">
	<ele>2347.80</ele>
	<time>2023-08-06T06:52:17.000Z</time>
</trkpt>
<trkpt lat="46.0330220" lon="10.4844030">
	<ele>2347.60</ele>
	<time>2023-08-06T06:52:18.000Z</time>
</trkpt>
<trkpt lat="46.0330300" lon="10.4844160">
	<ele>2347.60</ele>
	<time>2023-08-06T06:52:19.000Z</time>
</trkpt>
<trkpt lat="46.0330340" lon="10.4844230">
	<ele>2347.60</ele>
	<time>2023-08-06T06:52:20.000Z</time>
</trkpt>
<trkpt lat="46.0330340" lon="10.4844260">
	<ele>2347.40</ele>
	<time>2023-08-06T06:52:21.000Z</time>
</trkpt>
<trkpt lat="46.0330330" lon="10.4844260">
	<ele>2347.40</ele>
	<time>2023-08-06T06:52:22.000Z</time>
</trkpt>
<trkpt lat="46.0330310" lon="10.4844240">
	<ele>2347.40</ele>
	<time>2023-08-06T06:52:23.000Z</time>
</trkpt>
<trkpt lat="46.0330300" lon="10.4844230">
	<ele>2347.40</ele>
	<time>2023-08-06T06:52:24.000Z</time>
</trkpt>
<trkpt lat="46.0330290" lon="10.4844200">
	<ele>2347.40</ele>
	<time>2023-08-06T06:52:25.000Z</time>
</trkpt>
<trkpt lat="46.0330280" lon="10.4844170">
	<ele>2347.60</ele>
	<time>2023-08-06T06:52:26.000Z</time>
</trkpt>
<trkpt lat="46.0330270" lon="10.4844150">
	<ele>2347.60</ele>
	<time>2023-08-06T06:52:27.000Z</time>
</trkpt>
<trkpt lat="46.0330280" lon="10.4844160">
	<ele>2347.60</ele>
	<time>2023-08-06T06:52:28.000Z</time>
</trkpt>
<trkpt lat="46.0330300" lon="10.4844180">
	<ele>2347.60</ele>
	<time>2023-08-06T06:52:29.000Z</time>
</trkpt>
<trkpt lat="46.0330390" lon="10.4844240">
	<ele>2347.60</ele>
	<time>2023-08-06T06:52:30.000Z</time>
</trkpt>
<trkpt lat="46.0330460" lon="10.4844290">
	<ele>2347.60</ele>
	<time>2023-08-06T06:52:31.000Z</time>
</trkpt>
<trkpt lat="46.0330540" lon="10.4844340">
	<ele>2347.60</ele>
	<time>2023-08-06T06:52:32.000Z</time>
</trkpt>
<trkpt lat="46.0330590" lon="10.4844370">
	<ele>2347.60</ele>
	<time>2023-08-06T06:52:33.000Z</time>
</trkpt>
<trkpt lat="46.0330680" lon="10.4844400">
	<ele>2347.80</ele>
	<time>2023-08-06T06:52:34.000Z</time>
</trkpt>
<trkpt lat="46.0330770" lon="10.4844420">
	<ele>2347.60</ele>
	<time>2023-08-06T06:52:35.000Z</time>
</trkpt>
<trkpt lat="46.0330880" lon="10.4844460">
	<ele>2347.60</ele>
	<time>2023-08-06T06:52:36.000Z</time>
</trkpt>
<trkpt lat="46.0330980" lon="10.4844510">
	<ele>2347.00</ele>
	<time>2023-08-06T06:52:37.000Z</time>
</trkpt>
<trkpt lat="46.0331070" lon="10.4844560">
	<ele>2346.60</ele>
	<time>2023-08-06T06:52:38.000Z</time>
</trkpt>
<trkpt lat="46.0331120" lon="10.4844650">
	<ele>2346.60</ele>
	<time>2023-08-06T06:52:39.000Z</time>
</trkpt>
<trkpt lat="46.0331180" lon="10.4844740">
	<ele>2346.40</ele>
	<time>2023-08-06T06:52:40.000Z</time>
</trkpt>
<trkpt lat="46.0331250" lon="10.4844820">
	<ele>2346.40</ele>
	<time>2023-08-06T06:52:41.000Z</time>
</trkpt>
<trkpt lat="46.0331310" lon="10.4844850">
	<ele>2346.60</ele>
	<time>2023-08-06T06:52:42.000Z</time>
</trkpt>
<trkpt lat="46.0331380" lon="10.4844850">
	<ele>2346.80</ele>
	<time>2023-08-06T06:52:43.000Z</time>
</trkpt>
<trkpt lat="46.0331480" lon="10.4844900">
	<ele>2346.80</ele>
	<time>2023-08-06T06:52:44.000Z</time>
</trkpt>
<trkpt lat="46.0331570" lon="10.4844960">
	<ele>2346.80</ele>
	<time>2023-08-06T06:52:45.000Z</time>
</trkpt>
<trkpt lat="46.0331630" lon="10.4845010">
	<ele>2347.00</ele>
	<time>2023-08-06T06:52:46.000Z</time>
</trkpt>
<trkpt lat="46.0331700" lon="10.4845050">
	<ele>2347.00</ele>
	<time>2023-08-06T06:52:47.000Z</time>
</trkpt>
<trkpt lat="46.0331780" lon="10.4845140">
	<ele>2347.00</ele>
	<time>2023-08-06T06:52:48.000Z</time>
</trkpt>
<trkpt lat="46.0331830" lon="10.4845170">
	<ele>2347.00</ele>
	<time>2023-08-06T06:52:49.000Z</time>
</trkpt>
<trkpt lat="46.0331890" lon="10.4845150">
	<ele>2347.20</ele>
	<time>2023-08-06T06:52:50.000Z</time>
</trkpt>
<trkpt lat="46.0331950" lon="10.4845130">
	<ele>2347.20</ele>
	<time>2023-08-06T06:52:51.000Z</time>
</trkpt>
<trkpt lat="46.0332040" lon="10.4845120">
	<ele>2347.40</ele>
	<time>2023-08-06T06:52:52.000Z</time>
</trkpt>
<trkpt lat="46.0332120" lon="10.4845110">
	<ele>2347.40</ele>
	<time>2023-08-06T06:52:53.000Z</time>
</trkpt>
<trkpt lat="46.0332210" lon="10.4845090">
	<ele>2347.40</ele>
	<time>2023-08-06T06:52:54.000Z</time>
</trkpt>
<trkpt lat="46.0332310" lon="10.4845110">
	<ele>2347.40</ele>
	<time>2023-08-06T06:52:55.000Z</time>
</trkpt>
<trkpt lat="46.0332400" lon="10.4845090">
	<ele>2347.40</ele>
	<time>2023-08-06T06:52:56.000Z</time>
</trkpt>
<trkpt lat="46.0332460" lon="10.4845070">
	<ele>2347.20</ele>
	<time>2023-08-06T06:52:57.000Z</time>
</trkpt>
<trkpt lat="46.0332560" lon="10.4845080">
	<ele>2347.20</ele>
	<time>2023-08-06T06:52:58.000Z</time>
</trkpt>
<trkpt lat="46.0332640" lon="10.4845070">
	<ele>2347.20</ele>
	<time>2023-08-06T06:52:59.000Z</time>
</trkpt>
<trkpt lat="46.0332730" lon="10.4845080">
	<ele>2347.20</ele>
	<time>2023-08-06T06:53:00.000Z</time>
</trkpt>
<trkpt lat="46.0332810" lon="10.4845150">
	<ele>2347.20</ele>
	<time>2023-08-06T06:53:01.000Z</time>
</trkpt>
<trkpt lat="46.0332910" lon="10.4845190">
	<ele>2347.00</ele>
	<time>2023-08-06T06:53:02.000Z</time>
</trkpt>
<trkpt lat="46.0333000" lon="10.4845250">
	<ele>2347.00</ele>
	<time>2023-08-06T06:53:03.000Z</time>
</trkpt>
<trkpt lat="46.0333110" lon="10.4845300">
	<ele>2347.00</ele>
	<time>2023-08-06T06:53:04.000Z</time>
</trkpt>
<trkpt lat="46.0333190" lon="10.4845390">
	<ele>2346.80</ele>
	<time>2023-08-06T06:53:05.000Z</time>
</trkpt>
<trkpt lat="46.0333230" lon="10.4845410">
	<ele>2346.60</ele>
	<time>2023-08-06T06:53:06.000Z</time>
</trkpt>
<trkpt lat="46.0333300" lon="10.4845410">
	<ele>2346.60</ele>
	<time>2023-08-06T06:53:07.000Z</time>
</trkpt>
<trkpt lat="46.0333410" lon="10.4845440">
	<ele>2346.40</ele>
	<time>2023-08-06T06:53:08.000Z</time>
</trkpt>
<trkpt lat="46.0333490" lon="10.4845470">
	<ele>2346.40</ele>
	<time>2023-08-06T06:53:09.000Z</time>
</trkpt>
<trkpt lat="46.0333570" lon="10.4845500">
	<ele>2346.20</ele>
	<time>2023-08-06T06:53:10.000Z</time>
</trkpt>
<trkpt lat="46.0333640" lon="10.4845540">
	<ele>2346.20</ele>
	<time>2023-08-06T06:53:11.000Z</time>
</trkpt>
<trkpt lat="46.0333720" lon="10.4845620">
	<ele>2346.00</ele>
	<time>2023-08-06T06:53:12.000Z</time>
</trkpt>
<trkpt lat="46.0333820" lon="10.4845710">
	<ele>2346.00</ele>
	<time>2023-08-06T06:53:13.000Z</time>
</trkpt>
<trkpt lat="46.0333890" lon="10.4845790">
	<ele>2345.80</ele>
	<time>2023-08-06T06:53:14.000Z</time>
</trkpt>
<trkpt lat="46.0333990" lon="10.4845840">
	<ele>2345.80</ele>
	<time>2023-08-06T06:53:15.000Z</time>
</trkpt>
<trkpt lat="46.0334070" lon="10.4845910">
	<ele>2345.60</ele>
	<time>2023-08-06T06:53:16.000Z</time>
</trkpt>
<trkpt lat="46.0334150" lon="10.4845970">
	<ele>2345.60</ele>
	<time>2023-08-06T06:53:17.000Z</time>
</trkpt>
<trkpt lat="46.0334240" lon="10.4846020">
	<ele>2345.40</ele>
	<time>2023-08-06T06:53:18.000Z</time>
</trkpt>
<trkpt lat="46.0334340" lon="10.4846050">
	<ele>2345.20</ele>
	<time>2023-08-06T06:53:19.000Z</time>
</trkpt>
<trkpt lat="46.0334400" lon="10.4846070">
	<ele>2345.00</ele>
	<time>2023-08-06T06:53:20.000Z</time>
</trkpt>
<trkpt lat="46.0334510" lon="10.4846090">
	<ele>2345.00</ele>
	<time>2023-08-06T06:53:21.000Z</time>
</trkpt>
<trkpt lat="46.0334580" lon="10.4846120">
	<ele>2344.80</ele>
	<time>2023-08-06T06:53:22.000Z</time>
</trkpt>
<trkpt lat="46.0334660" lon="10.4846150">
	<ele>2344.60</ele>
	<time>2023-08-06T06:53:23.000Z</time>
</trkpt>
<trkpt lat="46.0334730" lon="10.4846190">
	<ele>2344.60</ele>
	<time>2023-08-06T06:53:24.000Z</time>
</trkpt>
<trkpt lat="46.0334770" lon="10.4846200">
	<ele>2344.40</ele>
	<time>2023-08-06T06:53:25.000Z</time>
</trkpt>
<trkpt lat="46.0334790" lon="10.4846160">
	<ele>2344.40</ele>
	<time>2023-08-06T06:53:26.000Z</time>
</trkpt>
<trkpt lat="46.0334860" lon="10.4846170">
	<ele>2344.20</ele>
	<time>2023-08-06T06:53:27.000Z</time>
</trkpt>
<trkpt lat="46.0334930" lon="10.4846160">
	<ele>2344.20</ele>
	<time>2023-08-06T06:53:28.000Z</time>
</trkpt>
<trkpt lat="46.0334990" lon="10.4846140">
	<ele>2343.80</ele>
	<time>2023-08-06T06:53:29.000Z</time>
</trkpt>
<trkpt lat="46.0335070" lon="10.4846100">
	<ele>2343.40</ele>
	<time>2023-08-06T06:53:30.000Z</time>
</trkpt>
<trkpt lat="46.0335130" lon="10.4846080">
	<ele>2343.00</ele>
	<time>2023-08-06T06:53:31.000Z</time>
</trkpt>
<trkpt lat="46.0335210" lon="10.4846100">
	<ele>2342.80</ele>
	<time>2023-08-06T06:53:32.000Z</time>
</trkpt>
<trkpt lat="46.0335290" lon="10.4846170">
	<ele>2342.60</ele>
	<time>2023-08-06T06:53:33.000Z</time>
</trkpt>
<trkpt lat="46.0335380" lon="10.4846200">
	<ele>2342.60</ele>
	<time>2023-08-06T06:53:34.000Z</time>
</trkpt>
<trkpt lat="46.0335490" lon="10.4846240">
	<ele>2342.40</ele>
	<time>2023-08-06T06:53:35.000Z</time>
</trkpt>
<trkpt lat="46.0335620" lon="10.4846220">
	<ele>2342.20</ele>
	<time>2023-08-06T06:53:36.000Z</time>
</trkpt>
<trkpt lat="46.0335720" lon="10.4846210">
	<ele>2342.00</ele>
	<time>2023-08-06T06:53:37.000Z</time>
</trkpt>
<trkpt lat="46.0335840" lon="10.4846280">
	<ele>2342.00</ele>
	<time>2023-08-06T06:53:38.000Z</time>
</trkpt>
<trkpt lat="46.0335960" lon="10.4846360">
	<ele>2342.00</ele>
	<time>2023-08-06T06:53:39.000Z</time>
</trkpt>
<trkpt lat="46.0336040" lon="10.4846430">
	<ele>2342.00</ele>
	<time>2023-08-06T06:53:40.000Z</time>
</trkpt>
<trkpt lat="46.0336110" lon="10.4846470">
	<ele>2341.80</ele>
	<time>2023-08-06T06:53:41.000Z</time>
</trkpt>
<trkpt lat="46.0336180" lon="10.4846510">
	<ele>2341.80</ele>
	<time>2023-08-06T06:53:42.000Z</time>
</trkpt>
<trkpt lat="46.0336230" lon="10.4846520">
	<ele>2341.80</ele>
	<time>2023-08-06T06:53:43.000Z</time>
</trkpt>
<trkpt lat="46.0336340" lon="10.4846580">
	<ele>2341.80</ele>
	<time>2023-08-06T06:53:44.000Z</time>
</trkpt>
<trkpt lat="46.0336400" lon="10.4846640">
	<ele>2341.80</ele>
	<time>2023-08-06T06:53:45.000Z</time>
</trkpt>
<trkpt lat="46.0336490" lon="10.4846660">
	<ele>2341.80</ele>
	<time>2023-08-06T06:53:46.000Z</time>
</trkpt>
<trkpt lat="46.0336580" lon="10.4846690">
	<ele>2341.80</ele>
	<time>2023-08-06T06:53:47.000Z</time>
</trkpt>
<trkpt lat="46.0336690" lon="10.4846720">
	<ele>2341.80</ele>
	<time>2023-08-06T06:53:48.000Z</time>
</trkpt>
<trkpt lat="46.0336780" lon="10.4846720">
	<ele>2341.80</ele>
	<time>2023-08-06T06:53:49.000Z</time>
</trkpt>
<trkpt lat="46.0336870" lon="10.4846730">
	<ele>2341.60</ele>
	<time>2023-08-06T06:53:50.000Z</time>
</trkpt>
<trkpt lat="46.0336940" lon="10.4846770">
	<ele>2341.60</ele>
	<time>2023-08-06T06:53:51.000Z</time>
</trkpt>
<trkpt lat="46.0337030" lon="10.4846770">
	<ele>2341.40</ele>
	<time>2023-08-06T06:53:52.000Z</time>
</trkpt>
<trkpt lat="46.0337110" lon="10.4846790">
	<ele>2341.40</ele>
	<time>2023-08-06T06:53:53.000Z</time>
</trkpt>
<trkpt lat="46.0337200" lon="10.4846840">
	<ele>2341.40</ele>
	<time>2023-08-06T06:53:54.000Z</time>
</trkpt>
<trkpt lat="46.0337280" lon="10.4846880">
	<ele>2341.20</ele>
	<time>2023-08-06T06:53:55.000Z</time>
</trkpt>
<trkpt lat="46.0337380" lon="10.4846930">
	<ele>2341.20</ele>
	<time>2023-08-06T06:53:56.000Z</time>
</trkpt>
<trkpt lat="46.0337480" lon="10.4846960">
	<ele>2341.20</ele>
	<time>2023-08-06T06:53:57.000Z</time>
</trkpt>
<trkpt lat="46.0337570" lon="10.4846940">
	<ele>2341.00</ele>
	<time>2023-08-06T06:53:58.000Z</time>
</trkpt>
<trkpt lat="46.0337670" lon="10.4846950">
	<ele>2341.00</ele>
	<time>2023-08-06T06:53:59.000Z</time>
</trkpt>
<trkpt lat="46.0337780" lon="10.4847000">
	<ele>2340.80</ele>
	<time>2023-08-06T06:54:00.000Z</time>
</trkpt>
<trkpt lat="46.0337840" lon="10.4847010">
	<ele>2340.80</ele>
	<time>2023-08-06T06:54:01.000Z</time>
</trkpt>
<trkpt lat="46.0337890" lon="10.4847040">
	<ele>2340.80</ele>
	<time>2023-08-06T06:54:02.000Z</time>
</trkpt>
<trkpt lat="46.0337950" lon="10.4847020">
	<ele>2340.60</ele>
	<time>2023-08-06T06:54:03.000Z</time>
</trkpt>
<trkpt lat="46.0338020" lon="10.4847010">
	<ele>2340.60</ele>
	<time>2023-08-06T06:54:04.000Z</time>
</trkpt>
<trkpt lat="46.0338080" lon="10.4846990">
	<ele>2340.60</ele>
	<time>2023-08-06T06:54:05.000Z</time>
</trkpt>
<trkpt lat="46.0338160" lon="10.4846960">
	<ele>2340.40</ele>
	<time>2023-08-06T06:54:06.000Z</time>
</trkpt>
<trkpt lat="46.0338230" lon="10.4846970">
	<ele>2340.00</ele>
	<time>2023-08-06T06:54:07.000Z</time>
</trkpt>
<trkpt lat="46.0338350" lon="10.4847000">
	<ele>2339.80</ele>
	<time>2023-08-06T06:54:08.000Z</time>
</trkpt>
<trkpt lat="46.0338510" lon="10.4847040">
	<ele>2339.80</ele>
	<time>2023-08-06T06:54:09.000Z</time>
</trkpt>
<trkpt lat="46.0338660" lon="10.4847070">
	<ele>2339.60</ele>
	<time>2023-08-06T06:54:10.000Z</time>
</trkpt>
<trkpt lat="46.0338760" lon="10.4847130">
	<ele>2339.60</ele>
	<time>2023-08-06T06:54:11.000Z</time>
</trkpt>
<trkpt lat="46.0338830" lon="10.4847190">
	<ele>2339.40</ele>
	<time>2023-08-06T06:54:12.000Z</time>
</trkpt>
<trkpt lat="46.0338880" lon="10.4847240">
	<ele>2339.40</ele>
	<time>2023-08-06T06:54:13.000Z</time>
</trkpt>
<trkpt lat="46.0338960" lon="10.4847350">
	<ele>2339.40</ele>
	<time>2023-08-06T06:54:14.000Z</time>
</trkpt>
<trkpt lat="46.0338980" lon="10.4847430">
	<ele>2339.40</ele>
	<time>2023-08-06T06:54:15.000Z</time>
</trkpt>
<trkpt lat="46.0339020" lon="10.4847500">
	<ele>2339.40</ele>
	<time>2023-08-06T06:54:16.000Z</time>
</trkpt>
<trkpt lat="46.0339060" lon="10.4847570">
	<ele>2339.80</ele>
	<time>2023-08-06T06:54:17.000Z</time>
</trkpt>
<trkpt lat="46.0339110" lon="10.4847660">
	<ele>2340.00</ele>
	<time>2023-08-06T06:54:18.000Z</time>
</trkpt>
<trkpt lat="46.0339180" lon="10.4847700">
	<ele>2340.20</ele>
	<time>2023-08-06T06:54:19.000Z</time>
</trkpt>
<trkpt lat="46.0339240" lon="10.4847710">
	<ele>2340.40</ele>
	<time>2023-08-06T06:54:20.000Z</time>
</trkpt>
<trkpt lat="46.0339330" lon="10.4847780">
	<ele>2340.60</ele>
	<time>2023-08-06T06:54:21.000Z</time>
</trkpt>
<trkpt lat="46.0339370" lon="10.4847890">
	<ele>2340.60</ele>
	<time>2023-08-06T06:54:22.000Z</time>
</trkpt>
<trkpt lat="46.0339410" lon="10.4848040">
	<ele>2340.60</ele>
	<time>2023-08-06T06:54:23.000Z</time>
</trkpt>
<trkpt lat="46.0339450" lon="10.4848200">
	<ele>2340.60</ele>
	<time>2023-08-06T06:54:24.000Z</time>
</trkpt>
<trkpt lat="46.0339500" lon="10.4848270">
	<ele>2340.60</ele>
	<time>2023-08-06T06:54:25.000Z</time>
</trkpt>
<trkpt lat="46.0339520" lon="10.4848310">
	<ele>2340.60</ele>
	<time>2023-08-06T06:54:26.000Z</time>
</trkpt>
<trkpt lat="46.0339520" lon="10.4848320">
	<ele>2340.60</ele>
	<time>2023-08-06T06:54:27.000Z</time>
</trkpt>
<trkpt lat="46.0339520" lon="10.4848310">
	<ele>2340.60</ele>
	<time>2023-08-06T06:54:28.000Z</time>
</trkpt>
<trkpt lat="46.0339530" lon="10.4848310">
	<ele>2340.40</ele>
	<time>2023-08-06T06:54:29.000Z</time>
</trkpt>
<trkpt lat="46.0339550" lon="10.4848330">
	<ele>2340.40</ele>
	<time>2023-08-06T06:54:30.000Z</time>
</trkpt>
<trkpt lat="46.0339550" lon="10.4848360">
	<ele>2340.40</ele>
	<time>2023-08-06T06:54:31.000Z</time>
</trkpt>
<trkpt lat="46.0339570" lon="10.4848400">
	<ele>2340.60</ele>
	<time>2023-08-06T06:54:32.000Z</time>
</trkpt>
<trkpt lat="46.0339580" lon="10.4848420">
	<ele>2340.80</ele>
	<time>2023-08-06T06:54:33.000Z</time>
</trkpt>
<trkpt lat="46.0339600" lon="10.4848480">
	<ele>2340.80</ele>
	<time>2023-08-06T06:54:34.000Z</time>
</trkpt>
<trkpt lat="46.0339610" lon="10.4848510">
	<ele>2341.00</ele>
	<time>2023-08-06T06:54:35.000Z</time>
</trkpt>
<trkpt lat="46.0339610" lon="10.4848520">
	<ele>2341.20</ele>
	<time>2023-08-06T06:54:36.000Z</time>
</trkpt>
<trkpt lat="46.0339610" lon="10.4848530">
	<ele>2341.20</ele>
	<time>2023-08-06T06:54:37.000Z</time>
</trkpt>
<trkpt lat="46.0339620" lon="10.4848540">
	<ele>2341.20</ele>
	<time>2023-08-06T06:54:38.000Z</time>
</trkpt>
<trkpt lat="46.0339620" lon="10.4848550">
	<ele>2341.20</ele>
	<time>2023-08-06T06:54:39.000Z</time>
</trkpt>
<trkpt lat="46.0339620" lon="10.4848570">
	<ele>2341.40</ele>
	<time>2023-08-06T06:54:40.000Z</time>
</trkpt>
<trkpt lat="46.0339620" lon="10.4848570">
	<ele>2341.40</ele>
	<time>2023-08-06T06:54:41.000Z</time>
</trkpt>
<trkpt lat="46.0339620" lon="10.4848570">
	<ele>2341.40</ele>
	<time>2023-08-06T06:54:42.000Z</time>
</trkpt>
<trkpt lat="46.0339620" lon="10.4848570">
	<ele>2341.40</ele>
	<time>2023-08-06T06:54:43.000Z</time>
</trkpt>
<trkpt lat="46.0339620" lon="10.4848570">
	<ele>2341.40</ele>
	<time>2023-08-06T06:54:44.000Z</time>
</trkpt>
<trkpt lat="46.0339620" lon="10.4848570">
	<ele>2341.20</ele>
	<time>2023-08-06T06:54:45.000Z</time>
</trkpt>
<trkpt lat="46.0339610" lon="10.4848550">
	<ele>2341.00</ele>
	<time>2023-08-06T06:54:46.000Z</time>
</trkpt>
<trkpt lat="46.0339610" lon="10.4848540">
	<ele>2340.80</ele>
	<time>2023-08-06T06:54:47.000Z</time>
</trkpt>
<trkpt lat="46.0339610" lon="10.4848540">
	<ele>2340.80</ele>
	<time>2023-08-06T06:54:48.000Z</time>
</trkpt>
<trkpt lat="46.0339610" lon="10.4848540">
	<ele>2340.80</ele>
	<time>2023-08-06T06:54:49.000Z</time>
</trkpt>
<trkpt lat="46.0339610" lon="10.4848540">
	<ele>2340.80</ele>
	<time>2023-08-06T06:54:50.000Z</time>
</trkpt>
<trkpt lat="46.0339610" lon="10.4848540">
	<ele>2341.00</ele>
	<time>2023-08-06T06:54:51.000Z</time>
</trkpt>
<trkpt lat="46.0339610" lon="10.4848540">
	<ele>2341.00</ele>
	<time>2023-08-06T06:54:52.000Z</time>
</trkpt>
<trkpt lat="46.0339610" lon="10.4848540">
	<ele>2341.20</ele>
	<time>2023-08-06T06:54:53.000Z</time>
</trkpt>
<trkpt lat="46.0339610" lon="10.4848540">
	<ele>2341.20</ele>
	<time>2023-08-06T06:54:54.000Z</time>
</trkpt>
<trkpt lat="46.0339610" lon="10.4848540">
	<ele>2341.20</ele>
	<time>2023-08-06T06:54:55.000Z</time>
</trkpt>
<trkpt lat="46.0339610" lon="10.4848540">
	<ele>2341.00</ele>
	<time>2023-08-06T06:54:56.000Z</time>
</trkpt>
<trkpt lat="46.0339610" lon="10.4848540">
	<ele>2341.00</ele>
	<time>2023-08-06T06:54:57.000Z</time>
</trkpt>
<trkpt lat="46.0339610" lon="10.4848540">
	<ele>2341.00</ele>
	<time>2023-08-06T06:54:58.000Z</time>
</trkpt>
<trkpt lat="46.0339620" lon="10.4848570">
	<ele>2341.20</ele>
	<time>2023-08-06T06:54:59.000Z</time>
</trkpt>
<trkpt lat="46.0339680" lon="10.4848690">
	<ele>2341.20</ele>
	<time>2023-08-06T06:55:00.000Z</time>
</trkpt>
<trkpt lat="46.0339730" lon="10.4848810">
	<ele>2341.40</ele>
	<time>2023-08-06T06:55:01.000Z</time>
</trkpt>
<trkpt lat="46.0339800" lon="10.4848970">
	<ele>2341.40</ele>
	<time>2023-08-06T06:55:02.000Z</time>
</trkpt>
<trkpt lat="46.0339890" lon="10.4849140">
	<ele>2341.80</ele>
	<time>2023-08-06T06:55:03.000Z</time>
</trkpt>
<trkpt lat="46.0339970" lon="10.4849280">
	<ele>2342.00</ele>
	<time>2023-08-06T06:55:04.000Z</time>
</trkpt>
<trkpt lat="46.0340020" lon="10.4849370">
	<ele>2342.20</ele>
	<time>2023-08-06T06:55:05.000Z</time>
</trkpt>
<trkpt lat="46.0340080" lon="10.4849450">
	<ele>2342.40</ele>
	<time>2023-08-06T06:55:06.000Z</time>
</trkpt>
<trkpt lat="46.0340180" lon="10.4849550">
	<ele>2342.60</ele>
	<time>2023-08-06T06:55:07.000Z</time>
</trkpt>
<trkpt lat="46.0340280" lon="10.4849550">
	<ele>2342.60</ele>
	<time>2023-08-06T06:55:08.000Z</time>
</trkpt>
<trkpt lat="46.0340390" lon="10.4849540">
	<ele>2342.80</ele>
	<time>2023-08-06T06:55:09.000Z</time>
</trkpt>
<trkpt lat="46.0340510" lon="10.4849500">
	<ele>2343.00</ele>
	<time>2023-08-06T06:55:10.000Z</time>
</trkpt>
<trkpt lat="46.0340580" lon="10.4849480">
	<ele>2343.00</ele>
	<time>2023-08-06T06:55:11.000Z</time>
</trkpt>
<trkpt lat="46.0340700" lon="10.4849500">
	<ele>2343.20</ele>
	<time>2023-08-06T06:55:12.000Z</time>
</trkpt>
<trkpt lat="46.0340750" lon="10.4849510">
	<ele>2343.20</ele>
	<time>2023-08-06T06:55:13.000Z</time>
</trkpt>
<trkpt lat="46.0340760" lon="10.4849470">
	<ele>2343.40</ele>
	<time>2023-08-06T06:55:14.000Z</time>
</trkpt>
<trkpt lat="46.0340800" lon="10.4849430">
	<ele>2343.40</ele>
	<time>2023-08-06T06:55:15.000Z</time>
</trkpt>
<trkpt lat="46.0340900" lon="10.4849450">
	<ele>2343.60</ele>
	<time>2023-08-06T06:55:16.000Z</time>
</trkpt>
<trkpt lat="46.0341020" lon="10.4849510">
	<ele>2343.60</ele>
	<time>2023-08-06T06:55:17.000Z</time>
</trkpt>
<trkpt lat="46.0341170" lon="10.4849540">
	<ele>2343.60</ele>
	<time>2023-08-06T06:55:18.000Z</time>
</trkpt>
<trkpt lat="46.0341270" lon="10.4849560">
	<ele>2343.60</ele>
	<time>2023-08-06T06:55:19.000Z</time>
</trkpt>
<trkpt lat="46.0341340" lon="10.4849670">
	<ele>2343.60</ele>
	<time>2023-08-06T06:55:20.000Z</time>
</trkpt>
<trkpt lat="46.0341420" lon="10.4849770">
	<ele>2343.60</ele>
	<time>2023-08-06T06:55:21.000Z</time>
</trkpt>
<trkpt lat="46.0341520" lon="10.4849830">
	<ele>2343.40</ele>
	<time>2023-08-06T06:55:22.000Z</time>
</trkpt>
<trkpt lat="46.0341590" lon="10.4849790">
	<ele>2343.40</ele>
	<time>2023-08-06T06:55:23.000Z</time>
</trkpt>
<trkpt lat="46.0341680" lon="10.4849810">
	<ele>2343.40</ele>
	<time>2023-08-06T06:55:24.000Z</time>
</trkpt>
<trkpt lat="46.0341750" lon="10.4849800">
	<ele>2343.40</ele>
	<time>2023-08-06T06:55:25.000Z</time>
</trkpt>
<trkpt lat="46.0341820" lon="10.4849800">
	<ele>2343.20</ele>
	<time>2023-08-06T06:55:26.000Z</time>
</trkpt>
<trkpt lat="46.0341900" lon="10.4849840">
	<ele>2343.20</ele>
	<time>2023-08-06T06:55:27.000Z</time>
</trkpt>
<trkpt lat="46.0342050" lon="10.4849940">
	<ele>2343.00</ele>
	<time>2023-08-06T06:55:28.000Z</time>
</trkpt>
<trkpt lat="46.0342140" lon="10.4849960">
	<ele>2343.00</ele>
	<time>2023-08-06T06:55:29.000Z</time>
</trkpt>
<trkpt lat="46.0342190" lon="10.4849960">
	<ele>2342.80</ele>
	<time>2023-08-06T06:55:30.000Z</time>
</trkpt>
<trkpt lat="46.0342190" lon="10.4849950">
	<ele>2342.80</ele>
	<time>2023-08-06T06:55:31.000Z</time>
</trkpt>
<trkpt lat="46.0342230" lon="10.4850020">
	<ele>2342.80</ele>
	<time>2023-08-06T06:55:32.000Z</time>
</trkpt>
<trkpt lat="46.0342320" lon="10.4850080">
	<ele>2342.80</ele>
	<time>2023-08-06T06:55:33.000Z</time>
</trkpt>
<trkpt lat="46.0342430" lon="10.4850170">
	<ele>2342.60</ele>
	<time>2023-08-06T06:55:34.000Z</time>
</trkpt>
<trkpt lat="46.0342510" lon="10.4850280">
	<ele>2342.60</ele>
	<time>2023-08-06T06:55:35.000Z</time>
</trkpt>
<trkpt lat="46.0342600" lon="10.4850350">
	<ele>2342.40</ele>
	<time>2023-08-06T06:55:36.000Z</time>
</trkpt>
<trkpt lat="46.0342700" lon="10.4850450">
	<ele>2342.20</ele>
	<time>2023-08-06T06:55:37.000Z</time>
</trkpt>
<trkpt lat="46.0342820" lon="10.4850580">
	<ele>2342.20</ele>
	<time>2023-08-06T06:55:38.000Z</time>
</trkpt>
<trkpt lat="46.0342930" lon="10.4850600">
	<ele>2342.00</ele>
	<time>2023-08-06T06:55:39.000Z</time>
</trkpt>
<trkpt lat="46.0343000" lon="10.4850550">
	<ele>2341.80</ele>
	<time>2023-08-06T06:55:40.000Z</time>
</trkpt>
<trkpt lat="46.0343100" lon="10.4850590">
	<ele>2341.60</ele>
	<time>2023-08-06T06:55:41.000Z</time>
</trkpt>
<trkpt lat="46.0343200" lon="10.4850690">
	<ele>2341.60</ele>
	<time>2023-08-06T06:55:42.000Z</time>
</trkpt>
<trkpt lat="46.0343310" lon="10.4850710">
	<ele>2341.60</ele>
	<time>2023-08-06T06:55:43.000Z</time>
</trkpt>
<trkpt lat="46.0343330" lon="10.4850650">
	<ele>2341.60</ele>
	<time>2023-08-06T06:55:44.000Z</time>
</trkpt>
<trkpt lat="46.0343430" lon="10.4850620">
	<ele>2341.60</ele>
	<time>2023-08-06T06:55:45.000Z</time>
</trkpt>
<trkpt lat="46.0343520" lon="10.4850590">
	<ele>2341.60</ele>
	<time>2023-08-06T06:55:46.000Z</time>
</trkpt>
<trkpt lat="46.0343600" lon="10.4850530">
	<ele>2341.40</ele>
	<time>2023-08-06T06:55:47.000Z</time>
</trkpt>
<trkpt lat="46.0343730" lon="10.4850550">
	<ele>2341.20</ele>
	<time>2023-08-06T06:55:48.000Z</time>
</trkpt>
<trkpt lat="46.0343830" lon="10.4850500">
	<ele>2341.00</ele>
	<time>2023-08-06T06:55:49.000Z</time>
</trkpt>
<trkpt lat="46.0343970" lon="10.4850580">
	<ele>2341.00</ele>
	<time>2023-08-06T06:55:50.000Z</time>
</trkpt>
<trkpt lat="46.0344130" lon="10.4850690">
	<ele>2341.00</ele>
	<time>2023-08-06T06:55:51.000Z</time>
</trkpt>
<trkpt lat="46.0344220" lon="10.4850770">
	<ele>2340.80</ele>
	<time>2023-08-06T06:55:52.000Z</time>
</trkpt>
<trkpt lat="46.0344260" lon="10.4850790">
	<ele>2340.80</ele>
	<time>2023-08-06T06:55:53.000Z</time>
</trkpt>
<trkpt lat="46.0344330" lon="10.4850810">
	<ele>2340.60</ele>
	<time>2023-08-06T06:55:54.000Z</time>
</trkpt>
<trkpt lat="46.0344370" lon="10.4850800">
	<ele>2340.60</ele>
	<time>2023-08-06T06:55:55.000Z</time>
</trkpt>
<trkpt lat="46.0344430" lon="10.4850850">
	<ele>2340.40</ele>
	<time>2023-08-06T06:55:56.000Z</time>
</trkpt>
<trkpt lat="46.0344430" lon="10.4850770">
	<ele>2340.20</ele>
	<time>2023-08-06T06:55:57.000Z</time>
</trkpt>
<trkpt lat="46.0344470" lon="10.4850610">
	<ele>2340.00</ele>
	<time>2023-08-06T06:55:58.000Z</time>
</trkpt>
<trkpt lat="46.0344530" lon="10.4850580">
	<ele>2339.60</ele>
	<time>2023-08-06T06:55:59.000Z</time>
</trkpt>
<trkpt lat="46.0344570" lon="10.4850560">
	<ele>2339.60</ele>
	<time>2023-08-06T06:56:00.000Z</time>
</trkpt>
<trkpt lat="46.0344590" lon="10.4850480">
	<ele>2339.40</ele>
	<time>2023-08-06T06:56:01.000Z</time>
</trkpt>
<trkpt lat="46.0344610" lon="10.4850390">
	<ele>2339.20</ele>
	<time>2023-08-06T06:56:02.000Z</time>
</trkpt>
<trkpt lat="46.0344700" lon="10.4850390">
	<ele>2339.00</ele>
	<time>2023-08-06T06:56:03.000Z</time>
</trkpt>
<trkpt lat="46.0344800" lon="10.4850370">
	<ele>2338.60</ele>
	<time>2023-08-06T06:56:04.000Z</time>
</trkpt>
<trkpt lat="46.0344900" lon="10.4850340">
	<ele>2338.40</ele>
	<time>2023-08-06T06:56:05.000Z</time>
</trkpt>
<trkpt lat="46.0344990" lon="10.4850320">
	<ele>2338.20</ele>
	<time>2023-08-06T06:56:06.000Z</time>
</trkpt>
<trkpt lat="46.0345060" lon="10.4850250">
	<ele>2337.80</ele>
	<time>2023-08-06T06:56:07.000Z</time>
</trkpt>
<trkpt lat="46.0345150" lon="10.4850220">
	<ele>2337.80</ele>
	<time>2023-08-06T06:56:08.000Z</time>
</trkpt>
<trkpt lat="46.0345230" lon="10.4850170">
	<ele>2337.60</ele>
	<time>2023-08-06T06:56:09.000Z</time>
</trkpt>
<trkpt lat="46.0345270" lon="10.4850110">
	<ele>2337.40</ele>
	<time>2023-08-06T06:56:10.000Z</time>
</trkpt>
<trkpt lat="46.0345370" lon="10.4850100">
	<ele>2337.40</ele>
	<time>2023-08-06T06:56:11.000Z</time>
</trkpt>
<trkpt lat="46.0345470" lon="10.4850110">
	<ele>2337.20</ele>
	<time>2023-08-06T06:56:12.000Z</time>
</trkpt>
<trkpt lat="46.0345540" lon="10.4850110">
	<ele>2337.20</ele>
	<time>2023-08-06T06:56:13.000Z</time>
</trkpt>
<trkpt lat="46.0345590" lon="10.4850090">
	<ele>2337.00</ele>
	<time>2023-08-06T06:56:14.000Z</time>
</trkpt>
<trkpt lat="46.0345640" lon="10.4850040">
	<ele>2336.80</ele>
	<time>2023-08-06T06:56:15.000Z</time>
</trkpt>
<trkpt lat="46.0345710" lon="10.4850040">
	<ele>2336.60</ele>
	<time>2023-08-06T06:56:16.000Z</time>
</trkpt>
<trkpt lat="46.0345810" lon="10.4850080">
	<ele>2336.60</ele>
	<time>2023-08-06T06:56:17.000Z</time>
</trkpt>
<trkpt lat="46.0345930" lon="10.4850140">
	<ele>2336.40</ele>
	<time>2023-08-06T06:56:18.000Z</time>
</trkpt>
<trkpt lat="46.0346020" lon="10.4850190">
	<ele>2336.40</ele>
	<time>2023-08-06T06:56:19.000Z</time>
</trkpt>
<trkpt lat="46.0346060" lon="10.4850190">
	<ele>2336.20</ele>
	<time>2023-08-06T06:56:20.000Z</time>
</trkpt>
<trkpt lat="46.0346100" lon="10.4850210">
	<ele>2336.00</ele>
	<time>2023-08-06T06:56:21.000Z</time>
</trkpt>
<trkpt lat="46.0346150" lon="10.4850220">
	<ele>2335.80</ele>
	<time>2023-08-06T06:56:22.000Z</time>
</trkpt>
<trkpt lat="46.0346200" lon="10.4850230">
	<ele>2335.60</ele>
	<time>2023-08-06T06:56:23.000Z</time>
</trkpt>
<trkpt lat="46.0346230" lon="10.4850190">
	<ele>2335.60</ele>
	<time>2023-08-06T06:56:24.000Z</time>
</trkpt>
<trkpt lat="46.0346270" lon="10.4850190">
	<ele>2335.60</ele>
	<time>2023-08-06T06:56:25.000Z</time>
</trkpt>
<trkpt lat="46.0346320" lon="10.4850170">
	<ele>2335.40</ele>
	<time>2023-08-06T06:56:26.000Z</time>
</trkpt>
<trkpt lat="46.0346370" lon="10.4850180">
	<ele>2335.40</ele>
	<time>2023-08-06T06:56:27.000Z</time>
</trkpt>
<trkpt lat="46.0346390" lon="10.4850240">
	<ele>2335.20</ele>
	<time>2023-08-06T06:56:28.000Z</time>
</trkpt>
<trkpt lat="46.0346410" lon="10.4850290">
	<ele>2335.00</ele>
	<time>2023-08-06T06:56:29.000Z</time>
</trkpt>
<trkpt lat="46.0346480" lon="10.4850300">
	<ele>2334.80</ele>
	<time>2023-08-06T06:56:30.000Z</time>
</trkpt>
<trkpt lat="46.0346560" lon="10.4850280">
	<ele>2334.60</ele>
	<time>2023-08-06T06:56:31.000Z</time>
</trkpt>
<trkpt lat="46.0346650" lon="10.4850300">
	<ele>2334.40</ele>
	<time>2023-08-06T06:56:32.000Z</time>
</trkpt>
<trkpt lat="46.0346710" lon="10.4850310">
	<ele>2334.00</ele>
	<time>2023-08-06T06:56:33.000Z</time>
</trkpt>
<trkpt lat="46.0346730" lon="10.4850330">
	<ele>2333.60</ele>
	<time>2023-08-06T06:56:34.000Z</time>
</trkpt>
<trkpt lat="46.0346780" lon="10.4850400">
	<ele>2333.20</ele>
	<time>2023-08-06T06:56:35.000Z</time>
</trkpt>
<trkpt lat="46.0346820" lon="10.4850460">
	<ele>2333.00</ele>
	<time>2023-08-06T06:56:36.000Z</time>
</trkpt>
<trkpt lat="46.0346860" lon="10.4850460">
	<ele>2332.80</ele>
	<time>2023-08-06T06:56:37.000Z</time>
</trkpt>
<trkpt lat="46.0346940" lon="10.4850470">
	<ele>2332.80</ele>
	<time>2023-08-06T06:56:38.000Z</time>
</trkpt>
<trkpt lat="46.0347020" lon="10.4850430">
	<ele>2332.60</ele>
	<time>2023-08-06T06:56:39.000Z</time>
</trkpt>
<trkpt lat="46.0347070" lon="10.4850430">
	<ele>2332.40</ele>
	<time>2023-08-06T06:56:40.000Z</time>
</trkpt>
<trkpt lat="46.0347100" lon="10.4850350">
	<ele>2332.20</ele>
	<time>2023-08-06T06:56:41.000Z</time>
</trkpt>
<trkpt lat="46.0347150" lon="10.4850300">
	<ele>2331.80</ele>
	<time>2023-08-06T06:56:42.000Z</time>
</trkpt>
<trkpt lat="46.0347190" lon="10.4850240">
	<ele>2331.60</ele>
	<time>2023-08-06T06:56:43.000Z</time>
</trkpt>
<trkpt lat="46.0347260" lon="10.4850240">
	<ele>2331.60</ele>
	<time>2023-08-06T06:56:44.000Z</time>
</trkpt>
<trkpt lat="46.0347290" lon="10.4850230">
	<ele>2331.40</ele>
	<time>2023-08-06T06:56:45.000Z</time>
</trkpt>
<trkpt lat="46.0347350" lon="10.4850180">
	<ele>2331.20</ele>
	<time>2023-08-06T06:56:46.000Z</time>
</trkpt>
<trkpt lat="46.0347410" lon="10.4850080">
	<ele>2331.20</ele>
	<time>2023-08-06T06:56:47.000Z</time>
</trkpt>
<trkpt lat="46.0347480" lon="10.4850030">
	<ele>2331.00</ele>
	<time>2023-08-06T06:56:48.000Z</time>
</trkpt>
<trkpt lat="46.0347570" lon="10.4850030">
	<ele>2330.80</ele>
	<time>2023-08-06T06:56:49.000Z</time>
</trkpt>
<trkpt lat="46.0347650" lon="10.4849980">
	<ele>2330.60</ele>
	<time>2023-08-06T06:56:50.000Z</time>
</trkpt>
<trkpt lat="46.0347740" lon="10.4849920">
	<ele>2330.40</ele>
	<time>2023-08-06T06:56:51.000Z</time>
</trkpt>
<trkpt lat="46.0347830" lon="10.4849860">
	<ele>2330.40</ele>
	<time>2023-08-06T06:56:52.000Z</time>
</trkpt>
<trkpt lat="46.0347900" lon="10.4849850">
	<ele>2330.20</ele>
	<time>2023-08-06T06:56:53.000Z</time>
</trkpt>
<trkpt lat="46.0347960" lon="10.4849830">
	<ele>2330.00</ele>
	<time>2023-08-06T06:56:54.000Z</time>
</trkpt>
<trkpt lat="46.0348010" lon="10.4849830">
	<ele>2329.80</ele>
	<time>2023-08-06T06:56:55.000Z</time>
</trkpt>
<trkpt lat="46.0348050" lon="10.4849850">
	<ele>2329.80</ele>
	<time>2023-08-06T06:56:56.000Z</time>
</trkpt>
<trkpt lat="46.0348090" lon="10.4849850">
	<ele>2329.60</ele>
	<time>2023-08-06T06:56:57.000Z</time>
</trkpt>
<trkpt lat="46.0348120" lon="10.4849870">
	<ele>2329.60</ele>
	<time>2023-08-06T06:56:58.000Z</time>
</trkpt>
<trkpt lat="46.0348170" lon="10.4849870">
	<ele>2329.40</ele>
	<time>2023-08-06T06:56:59.000Z</time>
</trkpt>
<trkpt lat="46.0348220" lon="10.4849830">
	<ele>2329.40</ele>
	<time>2023-08-06T06:57:00.000Z</time>
</trkpt>
<trkpt lat="46.0348280" lon="10.4849830">
	<ele>2329.20</ele>
	<time>2023-08-06T06:57:01.000Z</time>
</trkpt>
<trkpt lat="46.0348320" lon="10.4849820">
	<ele>2329.00</ele>
	<time>2023-08-06T06:57:02.000Z</time>
</trkpt>
<trkpt lat="46.0348370" lon="10.4849850">
	<ele>2329.00</ele>
	<time>2023-08-06T06:57:03.000Z</time>
</trkpt>
<trkpt lat="46.0348410" lon="10.4849900">
	<ele>2328.80</ele>
	<time>2023-08-06T06:57:04.000Z</time>
</trkpt>
<trkpt lat="46.0348470" lon="10.4849950">
	<ele>2328.60</ele>
	<time>2023-08-06T06:57:05.000Z</time>
</trkpt>
<trkpt lat="46.0348510" lon="10.4850020">
	<ele>2328.40</ele>
	<time>2023-08-06T06:57:06.000Z</time>
</trkpt>
<trkpt lat="46.0348570" lon="10.4850030">
	<ele>2328.20</ele>
	<time>2023-08-06T06:57:07.000Z</time>
</trkpt>
<trkpt lat="46.0348590" lon="10.4850060">
	<ele>2328.00</ele>
	<time>2023-08-06T06:57:08.000Z</time>
</trkpt>
<trkpt lat="46.0348580" lon="10.4850020">
	<ele>2327.60</ele>
	<time>2023-08-06T06:57:09.000Z</time>
</trkpt>
<trkpt lat="46.0348590" lon="10.4850020">
	<ele>2327.20</ele>
	<time>2023-08-06T06:57:10.000Z</time>
</trkpt>
<trkpt lat="46.0348650" lon="10.4850050">
	<ele>2327.00</ele>
	<time>2023-08-06T06:57:11.000Z</time>
</trkpt>
<trkpt lat="46.0348680" lon="10.4850060">
	<ele>2326.80</ele>
	<time>2023-08-06T06:57:12.000Z</time>
</trkpt>
<trkpt lat="46.0348690" lon="10.4850070">
	<ele>2326.80</ele>
	<time>2023-08-06T06:57:13.000Z</time>
</trkpt>
<trkpt lat="46.0348690" lon="10.4850100">
	<ele>2326.80</ele>
	<time>2023-08-06T06:57:14.000Z</time>
</trkpt>
<trkpt lat="46.0348690" lon="10.4850130">
	<ele>2327.00</ele>
	<time>2023-08-06T06:57:15.000Z</time>
</trkpt>
<trkpt lat="46.0348670" lon="10.4850160">
	<ele>2327.00</ele>
	<time>2023-08-06T06:57:16.000Z</time>
</trkpt>
<trkpt lat="46.0348670" lon="10.4850170">
	<ele>2327.20</ele>
	<time>2023-08-06T06:57:17.000Z</time>
</trkpt>
<trkpt lat="46.0348660" lon="10.4850180">
	<ele>2327.20</ele>
	<time>2023-08-06T06:57:18.000Z</time>
</trkpt>
<trkpt lat="46.0348650" lon="10.4850190">
	<ele>2327.20</ele>
	<time>2023-08-06T06:57:19.000Z</time>
</trkpt>
<trkpt lat="46.0348650" lon="10.4850190">
	<ele>2327.20</ele>
	<time>2023-08-06T06:57:20.000Z</time>
</trkpt>
<trkpt lat="46.0348650" lon="10.4850190">
	<ele>2327.20</ele>
	<time>2023-08-06T06:57:21.000Z</time>
</trkpt>
<trkpt lat="46.0348650" lon="10.4850190">
	<ele>2327.20</ele>
	<time>2023-08-06T06:57:22.000Z</time>
</trkpt>
<trkpt lat="46.0348650" lon="10.4850190">
	<ele>2327.20</ele>
	<time>2023-08-06T06:57:23.000Z</time>
</trkpt>
<trkpt lat="46.0348650" lon="10.4850190">
	<ele>2327.00</ele>
	<time>2023-08-06T06:57:24.000Z</time>
</trkpt>
<trkpt lat="46.0348650" lon="10.4850190">
	<ele>2327.00</ele>
	<time>2023-08-06T06:57:25.000Z</time>
</trkpt>
<trkpt lat="46.0348650" lon="10.4850190">
	<ele>2326.80</ele>
	<time>2023-08-06T06:57:26.000Z</time>
</trkpt>
<trkpt lat="46.0348650" lon="10.4850190">
	<ele>2326.60</ele>
	<time>2023-08-06T06:57:27.000Z</time>
</trkpt>
<trkpt lat="46.0348650" lon="10.4850190">
	<ele>2326.60</ele>
	<time>2023-08-06T06:57:28.000Z</time>
</trkpt>
<trkpt lat="46.0348650" lon="10.4850190">
	<ele>2326.40</ele>
	<time>2023-08-06T06:57:29.000Z</time>
</trkpt>
<trkpt lat="46.0348650" lon="10.4850180">
	<ele>2326.40</ele>
	<time>2023-08-06T06:57:30.000Z</time>
</trkpt>
<trkpt lat="46.0348650" lon="10.4850170">
	<ele>2326.40</ele>
	<time>2023-08-06T06:57:31.000Z</time>
</trkpt>
<trkpt lat="46.0348650" lon="10.4850170">
	<ele>2326.40</ele>
	<time>2023-08-06T06:57:32.000Z</time>
</trkpt>
<trkpt lat="46.0348650" lon="10.4850160">
	<ele>2326.20</ele>
	<time>2023-08-06T06:57:33.000Z</time>
</trkpt>
<trkpt lat="46.0348650" lon="10.4850130">
	<ele>2326.20</ele>
	<time>2023-08-06T06:57:34.000Z</time>
</trkpt>
<trkpt lat="46.0348650" lon="10.4850110">
	<ele>2326.20</ele>
	<time>2023-08-06T06:57:35.000Z</time>
</trkpt>
<trkpt lat="46.0348650" lon="10.4850090">
	<ele>2326.00</ele>
	<time>2023-08-06T06:57:36.000Z</time>
</trkpt>
<trkpt lat="46.0348650" lon="10.4850070">
	<ele>2326.00</ele>
	<time>2023-08-06T06:57:37.000Z</time>
</trkpt>
<trkpt lat="46.0348650" lon="10.4850060">
	<ele>2325.80</ele>
	<time>2023-08-06T06:57:38.000Z</time>
</trkpt>
<trkpt lat="46.0348650" lon="10.4850050">
	<ele>2325.80</ele>
	<time>2023-08-06T06:57:39.000Z</time>
</trkpt>
<trkpt lat="46.0348650" lon="10.4850050">
	<ele>2325.40</ele>
	<time>2023-08-06T06:57:40.000Z</time>
</trkpt>
<trkpt lat="46.0348650" lon="10.4850020">
	<ele>2325.20</ele>
	<time>2023-08-06T06:57:41.000Z</time>
</trkpt>
<trkpt lat="46.0348700" lon="10.4849980">
	<ele>2325.00</ele>
	<time>2023-08-06T06:57:42.000Z</time>
</trkpt>
<trkpt lat="46.0348820" lon="10.4849910">
	<ele>2325.00</ele>
	<time>2023-08-06T06:57:43.000Z</time>
</trkpt>
<trkpt lat="46.0348920" lon="10.4849850">
	<ele>2324.80</ele>
	<time>2023-08-06T06:57:44.000Z</time>
</trkpt>
<trkpt lat="46.0349030" lon="10.4849800">
	<ele>2324.60</ele>
	<time>2023-08-06T06:57:45.000Z</time>
</trkpt>
<trkpt lat="46.0349140" lon="10.4849720">
	<ele>2324.40</ele>
	<time>2023-08-06T06:57:46.000Z</time>
</trkpt>
<trkpt lat="46.0349260" lon="10.4849620">
	<ele>2324.20</ele>
	<time>2023-08-06T06:57:47.000Z</time>
</trkpt>
<trkpt lat="46.0349380" lon="10.4849460">
	<ele>2324.00</ele>
	<time>2023-08-06T06:57:48.000Z</time>
</trkpt>
<trkpt lat="46.0349490" lon="10.4849410">
	<ele>2323.80</ele>
	<time>2023-08-06T06:57:49.000Z</time>
</trkpt>
<trkpt lat="46.0349580" lon="10.4849370">
	<ele>2323.80</ele>
	<time>2023-08-06T06:57:50.000Z</time>
</trkpt>
<trkpt lat="46.0349700" lon="10.4849340">
	<ele>2323.60</ele>
	<time>2023-08-06T06:57:51.000Z</time>
</trkpt>
<trkpt lat="46.0349760" lon="10.4849310">
	<ele>2323.40</ele>
	<time>2023-08-06T06:57:52.000Z</time>
</trkpt>
<trkpt lat="46.0349810" lon="10.4849280">
	<ele>2323.20</ele>
	<time>2023-08-06T06:57:53.000Z</time>
</trkpt>
<trkpt lat="46.0349870" lon="10.4849280">
	<ele>2323.00</ele>
	<time>2023-08-06T06:57:54.000Z</time>
</trkpt>
<trkpt lat="46.0349920" lon="10.4849250">
	<ele>2322.80</ele>
	<time>2023-08-06T06:57:55.000Z</time>
</trkpt>
<trkpt lat="46.0350020" lon="10.4849280">
	<ele>2322.60</ele>
	<time>2023-08-06T06:57:56.000Z</time>
</trkpt>
<trkpt lat="46.0350090" lon="10.4849300">
	<ele>2322.40</ele>
	<time>2023-08-06T06:57:57.000Z</time>
</trkpt>
<trkpt lat="46.0350160" lon="10.4849300">
	<ele>2322.40</ele>
	<time>2023-08-06T06:57:58.000Z</time>
</trkpt>
<trkpt lat="46.0350240" lon="10.4849330">
	<ele>2322.00</ele>
	<time>2023-08-06T06:57:59.000Z</time>
</trkpt>
<trkpt lat="46.0350340" lon="10.4849390">
	<ele>2321.80</ele>
	<time>2023-08-06T06:58:00.000Z</time>
</trkpt>
<trkpt lat="46.0350400" lon="10.4849430">
	<ele>2321.60</ele>
	<time>2023-08-06T06:58:01.000Z</time>
</trkpt>
<trkpt lat="46.0350490" lon="10.4849460">
	<ele>2321.40</ele>
	<time>2023-08-06T06:58:02.000Z</time>
</trkpt>
<trkpt lat="46.0350550" lon="10.4849400">
	<ele>2321.20</ele>
	<time>2023-08-06T06:58:03.000Z</time>
</trkpt>
<trkpt lat="46.0350650" lon="10.4849470">
	<ele>2321.00</ele>
	<time>2023-08-06T06:58:04.000Z</time>
</trkpt>
<trkpt lat="46.0350730" lon="10.4849440">
	<ele>2321.00</ele>
	<time>2023-08-06T06:58:05.000Z</time>
</trkpt>
<trkpt lat="46.0350790" lon="10.4849440">
	<ele>2320.80</ele>
	<time>2023-08-06T06:58:06.000Z</time>
</trkpt>
<trkpt lat="46.0350860" lon="10.4849410">
	<ele>2320.60</ele>
	<time>2023-08-06T06:58:07.000Z</time>
</trkpt>
<trkpt lat="46.0350930" lon="10.4849390">
	<ele>2320.20</ele>
	<time>2023-08-06T06:58:08.000Z</time>
</trkpt>
<trkpt lat="46.0351020" lon="10.4849410">
	<ele>2320.00</ele>
	<time>2023-08-06T06:58:09.000Z</time>
</trkpt>
<trkpt lat="46.0351200" lon="10.4849420">
	<ele>2319.80</ele>
	<time>2023-08-06T06:58:10.000Z</time>
</trkpt>
<trkpt lat="46.0351240" lon="10.4849480">
	<ele>2319.60</ele>
	<time>2023-08-06T06:58:11.000Z</time>
</trkpt>
<trkpt lat="46.0351320" lon="10.4849480">
	<ele>2319.40</ele>
	<time>2023-08-06T06:58:12.000Z</time>
</trkpt>
<trkpt lat="46.0351360" lon="10.4849510">
	<ele>2319.40</ele>
	<time>2023-08-06T06:58:13.000Z</time>
</trkpt>
<trkpt lat="46.0351380" lon="10.4849470">
	<ele>2319.20</ele>
	<time>2023-08-06T06:58:14.000Z</time>
</trkpt>
<trkpt lat="46.0351430" lon="10.4849440">
	<ele>2319.20</ele>
	<time>2023-08-06T06:58:15.000Z</time>
</trkpt>
<trkpt lat="46.0351490" lon="10.4849360">
	<ele>2319.20</ele>
	<time>2023-08-06T06:58:16.000Z</time>
</trkpt>
<trkpt lat="46.0351520" lon="10.4849360">
	<ele>2319.00</ele>
	<time>2023-08-06T06:58:17.000Z</time>
</trkpt>
<trkpt lat="46.0351550" lon="10.4849420">
	<ele>2319.00</ele>
	<time>2023-08-06T06:58:18.000Z</time>
</trkpt>
<trkpt lat="46.0351600" lon="10.4849450">
	<ele>2318.80</ele>
	<time>2023-08-06T06:58:19.000Z</time>
</trkpt>
<trkpt lat="46.0351620" lon="10.4849400">
	<ele>2318.80</ele>
	<time>2023-08-06T06:58:20.000Z</time>
</trkpt>
<trkpt lat="46.0351650" lon="10.4849400">
	<ele>2318.40</ele>
	<time>2023-08-06T06:58:21.000Z</time>
</trkpt>
<trkpt lat="46.0351720" lon="10.4849390">
	<ele>2318.40</ele>
	<time>2023-08-06T06:58:22.000Z</time>
</trkpt>
<trkpt lat="46.0351760" lon="10.4849370">
	<ele>2318.20</ele>
	<time>2023-08-06T06:58:23.000Z</time>
</trkpt>
<trkpt lat="46.0351800" lon="10.4849380">
	<ele>2318.20</ele>
	<time>2023-08-06T06:58:24.000Z</time>
</trkpt>
<trkpt lat="46.0351840" lon="10.4849380">
	<ele>2317.80</ele>
	<time>2023-08-06T06:58:25.000Z</time>
</trkpt>
<trkpt lat="46.0351870" lon="10.4849310">
	<ele>2317.60</ele>
	<time>2023-08-06T06:58:26.000Z</time>
</trkpt>
<trkpt lat="46.0351940" lon="10.4849230">
	<ele>2317.40</ele>
	<time>2023-08-06T06:58:27.000Z</time>
</trkpt>
<trkpt lat="46.0352010" lon="10.4849170">
	<ele>2317.40</ele>
	<time>2023-08-06T06:58:28.000Z</time>
</trkpt>
<trkpt lat="46.0352070" lon="10.4849140">
	<ele>2317.20</ele>
	<time>2023-08-06T06:58:29.000Z</time>
</trkpt>
<trkpt lat="46.0352130" lon="10.4849090">
	<ele>2317.20</ele>
	<time>2023-08-06T06:58:30.000Z</time>
</trkpt>
<trkpt lat="46.0352240" lon="10.4849110">
	<ele>2317.00</ele>
	<time>2023-08-06T06:58:31.000Z</time>
</trkpt>
<trkpt lat="46.0352330" lon="10.4849160">
	<ele>2317.00</ele>
	<time>2023-08-06T06:58:32.000Z</time>
</trkpt>
<trkpt lat="46.0352410" lon="10.4849190">
	<ele>2316.80</ele>
	<time>2023-08-06T06:58:33.000Z</time>
</trkpt>
<trkpt lat="46.0352500" lon="10.4849200">
	<ele>2316.40</ele>
	<time>2023-08-06T06:58:34.000Z</time>
</trkpt>
<trkpt lat="46.0352600" lon="10.4849210">
	<ele>2316.40</ele>
	<time>2023-08-06T06:58:35.000Z</time>
</trkpt>
<trkpt lat="46.0352670" lon="10.4849250">
	<ele>2316.20</ele>
	<time>2023-08-06T06:58:36.000Z</time>
</trkpt>
<trkpt lat="46.0352780" lon="10.4849270">
	<ele>2316.00</ele>
	<time>2023-08-06T06:58:37.000Z</time>
</trkpt>
<trkpt lat="46.0352880" lon="10.4849250">
	<ele>2316.00</ele>
	<time>2023-08-06T06:58:38.000Z</time>
</trkpt>
<trkpt lat="46.0352960" lon="10.4849200">
	<ele>2315.80</ele>
	<time>2023-08-06T06:58:39.000Z</time>
</trkpt>
<trkpt lat="46.0353060" lon="10.4849200">
	<ele>2315.60</ele>
	<time>2023-08-06T06:58:40.000Z</time>
</trkpt>
<trkpt lat="46.0353140" lon="10.4849170">
	<ele>2315.20</ele>
	<time>2023-08-06T06:58:41.000Z</time>
</trkpt>
<trkpt lat="46.0353250" lon="10.4849180">
	<ele>2315.00</ele>
	<time>2023-08-06T06:58:42.000Z</time>
</trkpt>
<trkpt lat="46.0353380" lon="10.4849150">
	<ele>2315.00</ele>
	<time>2023-08-06T06:58:43.000Z</time>
</trkpt>
<trkpt lat="46.0353460" lon="10.4849130">
	<ele>2314.80</ele>
	<time>2023-08-06T06:58:44.000Z</time>
</trkpt>
<trkpt lat="46.0353600" lon="10.4849130">
	<ele>2314.80</ele>
	<time>2023-08-06T06:58:45.000Z</time>
</trkpt>
<trkpt lat="46.0353700" lon="10.4849100">
	<ele>2314.60</ele>
	<time>2023-08-06T06:58:46.000Z</time>
</trkpt>
<trkpt lat="46.0353790" lon="10.4849140">
	<ele>2314.40</ele>
	<time>2023-08-06T06:58:47.000Z</time>
</trkpt>
<trkpt lat="46.0353890" lon="10.4849090">
	<ele>2314.20</ele>
	<time>2023-08-06T06:58:48.000Z</time>
</trkpt>
<trkpt lat="46.0353990" lon="10.4849050">
	<ele>2314.20</ele>
	<time>2023-08-06T06:58:49.000Z</time>
</trkpt>
<trkpt lat="46.0354100" lon="10.4848990">
	<ele>2314.20</ele>
	<time>2023-08-06T06:58:50.000Z</time>
</trkpt>
<trkpt lat="46.0354190" lon="10.4848870">
	<ele>2314.00</ele>
	<time>2023-08-06T06:58:51.000Z</time>
</trkpt>
<trkpt lat="46.0354230" lon="10.4848770">
	<ele>2314.00</ele>
	<time>2023-08-06T06:58:52.000Z</time>
</trkpt>
<trkpt lat="46.0354250" lon="10.4848740">
	<ele>2314.00</ele>
	<time>2023-08-06T06:58:53.000Z</time>
</trkpt>
<trkpt lat="46.0354270" lon="10.4848750">
	<ele>2314.00</ele>
	<time>2023-08-06T06:58:54.000Z</time>
</trkpt>
<trkpt lat="46.0354270" lon="10.4848600">
	<ele>2314.00</ele>
	<time>2023-08-06T06:58:55.000Z</time>
</trkpt>
<trkpt lat="46.0354260" lon="10.4848380">
	<ele>2313.80</ele>
	<time>2023-08-06T06:58:56.000Z</time>
</trkpt>
<trkpt lat="46.0354330" lon="10.4848170">
	<ele>2313.80</ele>
	<time>2023-08-06T06:58:57.000Z</time>
</trkpt>
<trkpt lat="46.0354390" lon="10.4848120">
	<ele>2313.80</ele>
	<time>2023-08-06T06:58:58.000Z</time>
</trkpt>
<trkpt lat="46.0354490" lon="10.4848080">
	<ele>2313.80</ele>
	<time>2023-08-06T06:58:59.000Z</time>
</trkpt>
<trkpt lat="46.0354590" lon="10.4848090">
	<ele>2313.80</ele>
	<time>2023-08-06T06:59:00.000Z</time>
</trkpt>
<trkpt lat="46.0354710" lon="10.4848120">
	<ele>2313.80</ele>
	<time>2023-08-06T06:59:01.000Z</time>
</trkpt>
<trkpt lat="46.0354830" lon="10.4848180">
	<ele>2314.00</ele>
	<time>2023-08-06T06:59:02.000Z</time>
</trkpt>
<trkpt lat="46.0354950" lon="10.4848180">
	<ele>2314.00</ele>
	<time>2023-08-06T06:59:03.000Z</time>
</trkpt>
<trkpt lat="46.0355080" lon="10.4848180">
	<ele>2314.20</ele>
	<time>2023-08-06T06:59:04.000Z</time>
</trkpt>
<trkpt lat="46.0355170" lon="10.4848140">
	<ele>2314.20</ele>
	<time>2023-08-06T06:59:05.000Z</time>
</trkpt>
<trkpt lat="46.0355250" lon="10.4848100">
	<ele>2314.20</ele>
	<time>2023-08-06T06:59:06.000Z</time>
</trkpt>
<trkpt lat="46.0355320" lon="10.4848030">
	<ele>2314.40</ele>
	<time>2023-08-06T06:59:07.000Z</time>
</trkpt>
<trkpt lat="46.0355420" lon="10.4847940">
	<ele>2314.40</ele>
	<time>2023-08-06T06:59:08.000Z</time>
</trkpt>
<trkpt lat="46.0355500" lon="10.4847920">
	<ele>2314.40</ele>
	<time>2023-08-06T06:59:09.000Z</time>
</trkpt>
<trkpt lat="46.0355550" lon="10.4847870">
	<ele>2314.40</ele>
	<time>2023-08-06T06:59:10.000Z</time>
</trkpt>
<trkpt lat="46.0355600" lon="10.4847810">
	<ele>2314.20</ele>
	<time>2023-08-06T06:59:11.000Z</time>
</trkpt>
<trkpt lat="46.0355680" lon="10.4847780">
	<ele>2314.20</ele>
	<time>2023-08-06T06:59:12.000Z</time>
</trkpt>
<trkpt lat="46.0355800" lon="10.4847800">
	<ele>2314.00</ele>
	<time>2023-08-06T06:59:13.000Z</time>
</trkpt>
<trkpt lat="46.0355900" lon="10.4847760">
	<ele>2313.80</ele>
	<time>2023-08-06T06:59:14.000Z</time>
</trkpt>
<trkpt lat="46.0356000" lon="10.4847720">
	<ele>2313.80</ele>
	<time>2023-08-06T06:59:15.000Z</time>
</trkpt>
<trkpt lat="46.0356050" lon="10.4847670">
	<ele>2313.60</ele>
	<time>2023-08-06T06:59:16.000Z</time>
</trkpt>
<trkpt lat="46.0356090" lon="10.4847660">
	<ele>2313.40</ele>
	<time>2023-08-06T06:59:17.000Z</time>
</trkpt>
<trkpt lat="46.0356150" lon="10.4847600">
	<ele>2313.20</ele>
	<time>2023-08-06T06:59:18.000Z</time>
</trkpt>
<trkpt lat="46.0356220" lon="10.4847560">
	<ele>2313.00</ele>
	<time>2023-08-06T06:59:19.000Z</time>
</trkpt>
<trkpt lat="46.0356310" lon="10.4847470">
	<ele>2312.80</ele>
	<time>2023-08-06T06:59:20.000Z</time>
</trkpt>
<trkpt lat="46.0356420" lon="10.4847440">
	<ele>2312.40</ele>
	<time>2023-08-06T06:59:21.000Z</time>
</trkpt>
<trkpt lat="46.0356520" lon="10.4847430">
	<ele>2312.40</ele>
	<time>2023-08-06T06:59:22.000Z</time>
</trkpt>
<trkpt lat="46.0356590" lon="10.4847390">
	<ele>2312.20</ele>
	<time>2023-08-06T06:59:23.000Z</time>
</trkpt>
<trkpt lat="46.0356640" lon="10.4847390">
	<ele>2312.20</ele>
	<time>2023-08-06T06:59:24.000Z</time>
</trkpt>
<trkpt lat="46.0356730" lon="10.4847350">
	<ele>2312.00</ele>
	<time>2023-08-06T06:59:25.000Z</time>
</trkpt>
<trkpt lat="46.0356790" lon="10.4847320">
	<ele>2312.20</ele>
	<time>2023-08-06T06:59:26.000Z</time>
</trkpt>
<trkpt lat="46.0356820" lon="10.4847290">
	<ele>2312.00</ele>
	<time>2023-08-06T06:59:27.000Z</time>
</trkpt>
<trkpt lat="46.0356840" lon="10.4847240">
	<ele>2312.20</ele>
	<time>2023-08-06T06:59:28.000Z</time>
</trkpt>
<trkpt lat="46.0356870" lon="10.4847220">
	<ele>2312.20</ele>
	<time>2023-08-06T06:59:29.000Z</time>
</trkpt>
<trkpt lat="46.0356910" lon="10.4847140">
	<ele>2312.20</ele>
	<time>2023-08-06T06:59:30.000Z</time>
</trkpt>
<trkpt lat="46.0356980" lon="10.4847070">
	<ele>2312.00</ele>
	<time>2023-08-06T06:59:31.000Z</time>
</trkpt>
<trkpt lat="46.0357060" lon="10.4846980">
	<ele>2311.80</ele>
	<time>2023-08-06T06:59:32.000Z</time>
</trkpt>
<trkpt lat="46.0357160" lon="10.4846920">
	<ele>2311.60</ele>
	<time>2023-08-06T06:59:33.000Z</time>
</trkpt>
<trkpt lat="46.0357250" lon="10.4846890">
	<ele>2311.40</ele>
	<time>2023-08-06T06:59:34.000Z</time>
</trkpt>
<trkpt lat="46.0357330" lon="10.4846870">
	<ele>2311.20</ele>
	<time>2023-08-06T06:59:35.000Z</time>
</trkpt>
<trkpt lat="46.0357390" lon="10.4846860">
	<ele>2311.00</ele>
	<time>2023-08-06T06:59:36.000Z</time>
</trkpt>
<trkpt lat="46.0357440" lon="10.4846790">
	<ele>2310.80</ele>
	<time>2023-08-06T06:59:37.000Z</time>
</trkpt>
<trkpt lat="46.0357470" lon="10.4846740">
	<ele>2310.80</ele>
	<time>2023-08-06T06:59:38.000Z</time>
</trkpt>
<trkpt lat="46.0357520" lon="10.4846690">
	<ele>2310.60</ele>
	<time>2023-08-06T06:59:39.000Z</time>
</trkpt>
<trkpt lat="46.0357560" lon="10.4846670">
	<ele>2310.40</ele>
	<time>2023-08-06T06:59:40.000Z</time>
</trkpt>
<trkpt lat="46.0357600" lon="10.4846670">
	<ele>2310.20</ele>
	<time>2023-08-06T06:59:41.000Z</time>
</trkpt>
<trkpt lat="46.0357640" lon="10.4846680">
	<ele>2310.00</ele>
	<time>2023-08-06T06:59:42.000Z</time>
</trkpt>
<trkpt lat="46.0357680" lon="10.4846650">
	<ele>2310.00</ele>
	<time>2023-08-06T06:59:43.000Z</time>
</trkpt>
<trkpt lat="46.0357720" lon="10.4846600">
	<ele>2309.60</ele>
	<time>2023-08-06T06:59:44.000Z</time>
</trkpt>
<trkpt lat="46.0357790" lon="10.4846550">
	<ele>2309.40</ele>
	<time>2023-08-06T06:59:45.000Z</time>
</trkpt>
<trkpt lat="46.0357880" lon="10.4846480">
	<ele>2309.40</ele>
	<time>2023-08-06T06:59:46.000Z</time>
</trkpt>
<trkpt lat="46.0357960" lon="10.4846450">
	<ele>2308.80</ele>
	<time>2023-08-06T06:59:47.000Z</time>
</trkpt>
<trkpt lat="46.0358040" lon="10.4846390">
	<ele>2308.60</ele>
	<time>2023-08-06T06:59:48.000Z</time>
</trkpt>
<trkpt lat="46.0358090" lon="10.4846320">
	<ele>2308.40</ele>
	<time>2023-08-06T06:59:49.000Z</time>
</trkpt>
<trkpt lat="46.0358140" lon="10.4846230">
	<ele>2308.20</ele>
	<time>2023-08-06T06:59:50.000Z</time>
</trkpt>
<trkpt lat="46.0358190" lon="10.4846230">
	<ele>2308.20</ele>
	<time>2023-08-06T06:59:51.000Z</time>
</trkpt>
<trkpt lat="46.0358240" lon="10.4846240">
	<ele>2308.00</ele>
	<time>2023-08-06T06:59:52.000Z</time>
</trkpt>
<trkpt lat="46.0358260" lon="10.4846170">
	<ele>2308.00</ele>
	<time>2023-08-06T06:59:53.000Z</time>
</trkpt>
<trkpt lat="46.0358320" lon="10.4846150">
	<ele>2307.80</ele>
	<time>2023-08-06T06:59:54.000Z</time>
</trkpt>
<trkpt lat="46.0358430" lon="10.4846090">
	<ele>2307.80</ele>
	<time>2023-08-06T06:59:55.000Z</time>
</trkpt>
<trkpt lat="46.0358490" lon="10.4846030">
	<ele>2307.60</ele>
	<time>2023-08-06T06:59:56.000Z</time>
</trkpt>
<trkpt lat="46.0358540" lon="10.4845920">
	<ele>2307.60</ele>
	<time>2023-08-06T06:59:57.000Z</time>
</trkpt>
<trkpt lat="46.0358580" lon="10.4845820">
	<ele>2307.40</ele>
	<time>2023-08-06T06:59:58.000Z</time>
</trkpt>
<trkpt lat="46.0358630" lon="10.4845680">
	<ele>2307.20</ele>
	<time>2023-08-06T06:59:59.000Z</time>
</trkpt>
<trkpt lat="46.0358710" lon="10.4845580">
	<ele>2307.00</ele>
	<time>2023-08-06T07:00:00.000Z</time>
</trkpt>
<trkpt lat="46.0358760" lon="10.4845490">
	<ele>2307.00</ele>
	<time>2023-08-06T07:00:01.000Z</time>
</trkpt>
<trkpt lat="46.0358800" lon="10.4845520">
	<ele>2306.80</ele>
	<time>2023-08-06T07:00:02.000Z</time>
</trkpt>
<trkpt lat="46.0358800" lon="10.4845530">
	<ele>2306.60</ele>
	<time>2023-08-06T07:00:03.000Z</time>
</trkpt>
<trkpt lat="46.0358820" lon="10.4845550">
	<ele>2306.60</ele>
	<time>2023-08-06T07:00:04.000Z</time>
</trkpt>
<trkpt lat="46.0358890" lon="10.4845650">
	<ele>2306.40</ele>
	<time>2023-08-06T07:00:05.000Z</time>
</trkpt>
<trkpt lat="46.0358930" lon="10.4845650">
	<ele>2306.40</ele>
	<time>2023-08-06T07:00:06.000Z</time>
</trkpt>
<trkpt lat="46.0358940" lon="10.4845620">
	<ele>2306.40</ele>
	<time>2023-08-06T07:00:07.000Z</time>
</trkpt>
<trkpt lat="46.0358960" lon="10.4845590">
	<ele>2306.40</ele>
	<time>2023-08-06T07:00:08.000Z</time>
</trkpt>
<trkpt lat="46.0359030" lon="10.4845600">
	<ele>2306.20</ele>
	<time>2023-08-06T07:00:09.000Z</time>
</trkpt>
<trkpt lat="46.0359070" lon="10.4845570">
	<ele>2305.80</ele>
	<time>2023-08-06T07:00:10.000Z</time>
</trkpt>
<trkpt lat="46.0359140" lon="10.4845540">
	<ele>2305.60</ele>
	<time>2023-08-06T07:00:11.000Z</time>
</trkpt>
<trkpt lat="46.0359210" lon="10.4845510">
	<ele>2305.40</ele>
	<time>2023-08-06T07:00:12.000Z</time>
</trkpt>
<trkpt lat="46.0359270" lon="10.4845480">
	<ele>2305.20</ele>
	<time>2023-08-06T07:00:13.000Z</time>
</trkpt>
<trkpt lat="46.0359370" lon="10.4845450">
	<ele>2305.00</ele>
	<time>2023-08-06T07:00:14.000Z</time>
</trkpt>
<trkpt lat="46.0359450" lon="10.4845400">
	<ele>2305.00</ele>
	<time>2023-08-06T07:00:15.000Z</time>
</trkpt>
<trkpt lat="46.0359540" lon="10.4845370">
	<ele>2304.80</ele>
	<time>2023-08-06T07:00:16.000Z</time>
</trkpt>
<trkpt lat="46.0359620" lon="10.4845360">
	<ele>2304.80</ele>
	<time>2023-08-06T07:00:17.000Z</time>
</trkpt>
<trkpt lat="46.0359670" lon="10.4845380">
	<ele>2304.80</ele>
	<time>2023-08-06T07:00:18.000Z</time>
</trkpt>
<trkpt lat="46.0359710" lon="10.4845390">
	<ele>2304.80</ele>
	<time>2023-08-06T07:00:19.000Z</time>
</trkpt>
<trkpt lat="46.0359730" lon="10.4845430">
	<ele>2305.00</ele>
	<time>2023-08-06T07:00:20.000Z</time>
</trkpt>
<trkpt lat="46.0359770" lon="10.4845500">
	<ele>2305.20</ele>
	<time>2023-08-06T07:00:21.000Z</time>
</trkpt>
<trkpt lat="46.0359810" lon="10.4845510">
	<ele>2305.40</ele>
	<time>2023-08-06T07:00:22.000Z</time>
</trkpt>
<trkpt lat="46.0359830" lon="10.4845510">
	<ele>2305.80</ele>
	<time>2023-08-06T07:00:23.000Z</time>
</trkpt>
<trkpt lat="46.0359840" lon="10.4845510">
	<ele>2306.00</ele>
	<time>2023-08-06T07:00:24.000Z</time>
</trkpt>
<trkpt lat="46.0359880" lon="10.4845500">
	<ele>2306.20</ele>
	<time>2023-08-06T07:00:25.000Z</time>
</trkpt>
<trkpt lat="46.0359910" lon="10.4845480">
	<ele>2306.20</ele>
	<time>2023-08-06T07:00:26.000Z</time>
</trkpt>
<trkpt lat="46.0359960" lon="10.4845440">
	<ele>2306.40</ele>
	<time>2023-08-06T07:00:27.000Z</time>
</trkpt>
<trkpt lat="46.0360000" lon="10.4845430">
	<ele>2306.60</ele>
	<time>2023-08-06T07:00:28.000Z</time>
</trkpt>
<trkpt lat="46.0360040" lon="10.4845460">
	<ele>2306.80</ele>
	<time>2023-08-06T07:00:29.000Z</time>
</trkpt>
<trkpt lat="46.0360080" lon="10.4845420">
	<ele>2307.00</ele>
	<time>2023-08-06T07:00:30.000Z</time>
</trkpt>
<trkpt lat="46.0360110" lon="10.4845390">
	<ele>2307.20</ele>
	<time>2023-08-06T07:00:31.000Z</time>
</trkpt>
<trkpt lat="46.0360170" lon="10.4845320">
	<ele>2307.40</ele>
	<time>2023-08-06T07:00:32.000Z</time>
</trkpt>
<trkpt lat="46.0360240" lon="10.4845260">
	<ele>2307.40</ele>
	<time>2023-08-06T07:00:33.000Z</time>
</trkpt>
<trkpt lat="46.0360300" lon="10.4845150">
	<ele>2307.60</ele>
	<time>2023-08-06T07:00:34.000Z</time>
</trkpt>
<trkpt lat="46.0360360" lon="10.4845110">
	<ele>2307.80</ele>
	<time>2023-08-06T07:00:35.000Z</time>
</trkpt>
<trkpt lat="46.0360440" lon="10.4845170">
	<ele>2308.00</ele>
	<time>2023-08-06T07:00:36.000Z</time>
</trkpt>
<trkpt lat="46.0360490" lon="10.4845190">
	<ele>2308.20</ele>
	<time>2023-08-06T07:00:37.000Z</time>
</trkpt>
<trkpt lat="46.0360570" lon="10.4845180">
	<ele>2308.40</ele>
	<time>2023-08-06T07:00:38.000Z</time>
</trkpt>
<trkpt lat="46.0360650" lon="10.4845180">
	<ele>2308.60</ele>
	<time>2023-08-06T07:00:39.000Z</time>
</trkpt>
<trkpt lat="46.0360760" lon="10.4845190">
	<ele>2308.80</ele>
	<time>2023-08-06T07:00:40.000Z</time>
</trkpt>
<trkpt lat="46.0360870" lon="10.4845200">
	<ele>2308.80</ele>
	<time>2023-08-06T07:00:41.000Z</time>
</trkpt>
<trkpt lat="46.0360940" lon="10.4845200">
	<ele>2309.00</ele>
	<time>2023-08-06T07:00:42.000Z</time>
</trkpt>
<trkpt lat="46.0361000" lon="10.4845230">
	<ele>2309.00</ele>
	<time>2023-08-06T07:00:43.000Z</time>
</trkpt>
<trkpt lat="46.0361070" lon="10.4845290">
	<ele>2309.00</ele>
	<time>2023-08-06T07:00:44.000Z</time>
</trkpt>
<trkpt lat="46.0361150" lon="10.4845340">
	<ele>2309.00</ele>
	<time>2023-08-06T07:00:45.000Z</time>
</trkpt>
<trkpt lat="46.0361190" lon="10.4845350">
	<ele>2309.00</ele>
	<time>2023-08-06T07:00:46.000Z</time>
</trkpt>
<trkpt lat="46.0361220" lon="10.4845370">
	<ele>2309.20</ele>
	<time>2023-08-06T07:00:47.000Z</time>
</trkpt>
<trkpt lat="46.0361240" lon="10.4845380">
	<ele>2309.00</ele>
	<time>2023-08-06T07:00:48.000Z</time>
</trkpt>
<trkpt lat="46.0361270" lon="10.4845380">
	<ele>2309.20</ele>
	<time>2023-08-06T07:00:49.000Z</time>
</trkpt>
<trkpt lat="46.0361300" lon="10.4845350">
	<ele>2309.20</ele>
	<time>2023-08-06T07:00:50.000Z</time>
</trkpt>
<trkpt lat="46.0361320" lon="10.4845300">
	<ele>2309.20</ele>
	<time>2023-08-06T07:00:51.000Z</time>
</trkpt>
<trkpt lat="46.0361340" lon="10.4845240">
	<ele>2309.20</ele>
	<time>2023-08-06T07:00:52.000Z</time>
</trkpt>
<trkpt lat="46.0361370" lon="10.4845190">
	<ele>2309.00</ele>
	<time>2023-08-06T07:00:53.000Z</time>
</trkpt>
<trkpt lat="46.0361420" lon="10.4845110">
	<ele>2308.80</ele>
	<time>2023-08-06T07:00:54.000Z</time>
</trkpt>
<trkpt lat="46.0361490" lon="10.4845090">
	<ele>2308.60</ele>
	<time>2023-08-06T07:00:55.000Z</time>
</trkpt>
<trkpt lat="46.0361570" lon="10.4844990">
	<ele>2308.60</ele>
	<time>2023-08-06T07:00:56.000Z</time>
</trkpt>
<trkpt lat="46.0361660" lon="10.4844930">
	<ele>2308.40</ele>
	<time>2023-08-06T07:00:57.000Z</time>
</trkpt>
<trkpt lat="46.0361730" lon="10.4844830">
	<ele>2308.20</ele>
	<time>2023-08-06T07:00:58.000Z</time>
</trkpt>
<trkpt lat="46.0361820" lon="10.4844780">
	<ele>2308.00</ele>
	<time>2023-08-06T07:00:59.000Z</time>
</trkpt>
<trkpt lat="46.0361940" lon="10.4844760">
	<ele>2308.00</ele>
	<time>2023-08-06T07:01:00.000Z</time>
</trkpt>
<trkpt lat="46.0362040" lon="10.4844710">
	<ele>2307.80</ele>
	<time>2023-08-06T07:01:01.000Z</time>
</trkpt>
<trkpt lat="46.0362150" lon="10.4844650">
	<ele>2307.60</ele>
	<time>2023-08-06T07:01:02.000Z</time>
</trkpt>
<trkpt lat="46.0362270" lon="10.4844620">
	<ele>2307.60</ele>
	<time>2023-08-06T07:01:03.000Z</time>
</trkpt>
<trkpt lat="46.0362380" lon="10.4844570">
	<ele>2307.40</ele>
	<time>2023-08-06T07:01:04.000Z</time>
</trkpt>
<trkpt lat="46.0362460" lon="10.4844540">
	<ele>2307.40</ele>
	<time>2023-08-06T07:01:05.000Z</time>
</trkpt>
<trkpt lat="46.0362530" lon="10.4844540">
	<ele>2307.20</ele>
	<time>2023-08-06T07:01:06.000Z</time>
</trkpt>
<trkpt lat="46.0362590" lon="10.4844510">
	<ele>2307.40</ele>
	<time>2023-08-06T07:01:07.000Z</time>
</trkpt>
<trkpt lat="46.0362650" lon="10.4844480">
	<ele>2307.40</ele>
	<time>2023-08-06T07:01:08.000Z</time>
</trkpt>
<trkpt lat="46.0362690" lon="10.4844450">
	<ele>2307.40</ele>
	<time>2023-08-06T07:01:09.000Z</time>
</trkpt>
<trkpt lat="46.0362740" lon="10.4844380">
	<ele>2307.40</ele>
	<time>2023-08-06T07:01:10.000Z</time>
</trkpt>
<trkpt lat="46.0362830" lon="10.4844410">
	<ele>2307.60</ele>
	<time>2023-08-06T07:01:11.000Z</time>
</trkpt>
<trkpt lat="46.0362900" lon="10.4844420">
	<ele>2307.60</ele>
	<time>2023-08-06T07:01:12.000Z</time>
</trkpt>
<trkpt lat="46.0362970" lon="10.4844390">
	<ele>2307.80</ele>
	<time>2023-08-06T07:01:13.000Z</time>
</trkpt>
<trkpt lat="46.0363070" lon="10.4844390">
	<ele>2308.00</ele>
	<time>2023-08-06T07:01:14.000Z</time>
</trkpt>
<trkpt lat="46.0363160" lon="10.4844430">
	<ele>2308.00</ele>
	<time>2023-08-06T07:01:15.000Z</time>
</trkpt>
<trkpt lat="46.0363230" lon="10.4844440">
	<ele>2308.20</ele>
	<time>2023-08-06T07:01:16.000Z</time>
</trkpt>
<trkpt lat="46.0363310" lon="10.4844370">
	<ele>2308.20</ele>
	<time>2023-08-06T07:01:17.000Z</time>
</trkpt>
<trkpt lat="46.0363380" lon="10.4844280">
	<ele>2308.40</ele>
	<time>2023-08-06T07:01:18.000Z</time>
</trkpt>
<trkpt lat="46.0363430" lon="10.4844210">
	<ele>2308.40</ele>
	<time>2023-08-06T07:01:19.000Z</time>
</trkpt>
<trkpt lat="46.0363510" lon="10.4844100">
	<ele>2308.40</ele>
	<time>2023-08-06T07:01:20.000Z</time>
</trkpt>
<trkpt lat="46.0363610" lon="10.4844020">
	<ele>2308.40</ele>
	<time>2023-08-06T07:01:21.000Z</time>
</trkpt>
<trkpt lat="46.0363710" lon="10.4843970">
	<ele>2308.40</ele>
	<time>2023-08-06T07:01:22.000Z</time>
</trkpt>
<trkpt lat="46.0363780" lon="10.4843840">
	<ele>2308.20</ele>
	<time>2023-08-06T07:01:23.000Z</time>
</trkpt>
<trkpt lat="46.0363820" lon="10.4843810">
	<ele>2308.20</ele>
	<time>2023-08-06T07:01:24.000Z</time>
</trkpt>
<trkpt lat="46.0363880" lon="10.4843760">
	<ele>2308.00</ele>
	<time>2023-08-06T07:01:25.000Z</time>
</trkpt>
<trkpt lat="46.0363940" lon="10.4843730">
	<ele>2308.00</ele>
	<time>2023-08-06T07:01:26.000Z</time>
</trkpt>
<trkpt lat="46.0364050" lon="10.4843720">
	<ele>2307.80</ele>
	<time>2023-08-06T07:01:27.000Z</time>
</trkpt>
<trkpt lat="46.0364150" lon="10.4843670">
	<ele>2307.80</ele>
	<time>2023-08-06T07:01:28.000Z</time>
</trkpt>
<trkpt lat="46.0364240" lon="10.4843610">
	<ele>2307.60</ele>
	<time>2023-08-06T07:01:29.000Z</time>
</trkpt>
<trkpt lat="46.0364280" lon="10.4843560">
	<ele>2307.40</ele>
	<time>2023-08-06T07:01:30.000Z</time>
</trkpt>
<trkpt lat="46.0364350" lon="10.4843550">
	<ele>2307.20</ele>
	<time>2023-08-06T07:01:31.000Z</time>
</trkpt>
<trkpt lat="46.0364420" lon="10.4843510">
	<ele>2307.00</ele>
	<time>2023-08-06T07:01:32.000Z</time>
</trkpt>
<trkpt lat="46.0364510" lon="10.4843380">
	<ele>2306.80</ele>
	<time>2023-08-06T07:01:33.000Z</time>
</trkpt>
<trkpt lat="46.0364590" lon="10.4843310">
	<ele>2306.80</ele>
	<time>2023-08-06T07:01:34.000Z</time>
</trkpt>
<trkpt lat="46.0364640" lon="10.4843210">
	<ele>2306.60</ele>
	<time>2023-08-06T07:01:35.000Z</time>
</trkpt>
<trkpt lat="46.0364690" lon="10.4843180">
	<ele>2306.60</ele>
	<time>2023-08-06T07:01:36.000Z</time>
</trkpt>
<trkpt lat="46.0364760" lon="10.4843160">
	<ele>2306.60</ele>
	<time>2023-08-06T07:01:37.000Z</time>
</trkpt>
<trkpt lat="46.0364870" lon="10.4843190">
	<ele>2306.40</ele>
	<time>2023-08-06T07:01:38.000Z</time>
</trkpt>
<trkpt lat="46.0364970" lon="10.4843190">
	<ele>2306.40</ele>
	<time>2023-08-06T07:01:39.000Z</time>
</trkpt>
<trkpt lat="46.0365070" lon="10.4843180">
	<ele>2306.20</ele>
	<time>2023-08-06T07:01:40.000Z</time>
</trkpt>
<trkpt lat="46.0365160" lon="10.4843140">
	<ele>2306.00</ele>
	<time>2023-08-06T07:01:41.000Z</time>
</trkpt>
<trkpt lat="46.0365260" lon="10.4843140">
	<ele>2306.00</ele>
	<time>2023-08-06T07:01:42.000Z</time>
</trkpt>
<trkpt lat="46.0365420" lon="10.4843160">
	<ele>2306.00</ele>
	<time>2023-08-06T07:01:43.000Z</time>
</trkpt>
<trkpt lat="46.0365550" lon="10.4843090">
	<ele>2306.00</ele>
	<time>2023-08-06T07:01:44.000Z</time>
</trkpt>
<trkpt lat="46.0365710" lon="10.4843090">
	<ele>2305.80</ele>
	<time>2023-08-06T07:01:45.000Z</time>
</trkpt>
<trkpt lat="46.0365810" lon="10.4843090">
	<ele>2306.00</ele>
	<time>2023-08-06T07:01:46.000Z</time>
</trkpt>
<trkpt lat="46.0365880" lon="10.4843070">
	<ele>2306.20</ele>
	<time>2023-08-06T07:01:47.000Z</time>
</trkpt>
<trkpt lat="46.0365910" lon="10.4842950">
	<ele>2306.20</ele>
	<time>2023-08-06T07:01:48.000Z</time>
</trkpt>
<trkpt lat="46.0365970" lon="10.4842900">
	<ele>2306.20</ele>
	<time>2023-08-06T07:01:49.000Z</time>
</trkpt>
<trkpt lat="46.0366030" lon="10.4842870">
	<ele>2306.20</ele>
	<time>2023-08-06T07:01:50.000Z</time>
</trkpt>
<trkpt lat="46.0366100" lon="10.4842840">
	<ele>2306.40</ele>
	<time>2023-08-06T07:01:51.000Z</time>
</trkpt>
<trkpt lat="46.0366160" lon="10.4842820">
	<ele>2306.40</ele>
	<time>2023-08-06T07:01:52.000Z</time>
</trkpt>
<trkpt lat="46.0366210" lon="10.4842810">
	<ele>2306.60</ele>
	<time>2023-08-06T07:01:53.000Z</time>
</trkpt>
<trkpt lat="46.0366280" lon="10.4842830">
	<ele>2306.60</ele>
	<time>2023-08-06T07:01:54.000Z</time>
</trkpt>
<trkpt lat="46.0366330" lon="10.4842830">
	<ele>2306.80</ele>
	<time>2023-08-06T07:01:55.000Z</time>
</trkpt>
<trkpt lat="46.0366360" lon="10.4842840">
	<ele>2306.80</ele>
	<time>2023-08-06T07:01:56.000Z</time>
</trkpt>
<trkpt lat="46.0366370" lon="10.4842860">
	<ele>2307.00</ele>
	<time>2023-08-06T07:01:57.000Z</time>
</trkpt>
<trkpt lat="46.0366370" lon="10.4842860">
	<ele>2307.00</ele>
	<time>2023-08-06T07:01:58.000Z</time>
</trkpt>
<trkpt lat="46.0366390" lon="10.4842830">
	<ele>2307.00</ele>
	<time>2023-08-06T07:01:59.000Z</time>
</trkpt>
<trkpt lat="46.0366430" lon="10.4842810">
	<ele>2307.00</ele>
	<time>2023-08-06T07:02:00.000Z</time>
</trkpt>
<trkpt lat="46.0366450" lon="10.4842720">
	<ele>2307.00</ele>
	<time>2023-08-06T07:02:01.000Z</time>
</trkpt>
<trkpt lat="46.0366490" lon="10.4842670">
	<ele>2307.00</ele>
	<time>2023-08-06T07:02:02.000Z</time>
</trkpt>
<trkpt lat="46.0366560" lon="10.4842610">
	<ele>2307.20</ele>
	<time>2023-08-06T07:02:03.000Z</time>
</trkpt>
<trkpt lat="46.0366650" lon="10.4842530">
	<ele>2307.20</ele>
	<time>2023-08-06T07:02:04.000Z</time>
</trkpt>
<trkpt lat="46.0366760" lon="10.4842480">
	<ele>2307.20</ele>
	<time>2023-08-06T07:02:05.000Z</time>
</trkpt>
<trkpt lat="46.0366860" lon="10.4842430">
	<ele>2307.20</ele>
	<time>2023-08-06T07:02:06.000Z</time>
</trkpt>
<trkpt lat="46.0366960" lon="10.4842390">
	<ele>2307.20</ele>
	<time>2023-08-06T07:02:07.000Z</time>
</trkpt>
<trkpt lat="46.0367060" lon="10.4842330">
	<ele>2307.20</ele>
	<time>2023-08-06T07:02:08.000Z</time>
</trkpt>
<trkpt lat="46.0367150" lon="10.4842260">
	<ele>2307.20</ele>
	<time>2023-08-06T07:02:09.000Z</time>
</trkpt>
<trkpt lat="46.0367250" lon="10.4842250">
	<ele>2307.00</ele>
	<time>2023-08-06T07:02:10.000Z</time>
</trkpt>
<trkpt lat="46.0367350" lon="10.4842220">
	<ele>2307.00</ele>
	<time>2023-08-06T07:02:11.000Z</time>
</trkpt>
<trkpt lat="46.0367470" lon="10.4842170">
	<ele>2307.00</ele>
	<time>2023-08-06T07:02:12.000Z</time>
</trkpt>
<trkpt lat="46.0367590" lon="10.4842160">
	<ele>2307.00</ele>
	<time>2023-08-06T07:02:13.000Z</time>
</trkpt>
<trkpt lat="46.0367740" lon="10.4842190">
	<ele>2307.00</ele>
	<time>2023-08-06T07:02:14.000Z</time>
</trkpt>
<trkpt lat="46.0367850" lon="10.4842260">
	<ele>2307.00</ele>
	<time>2023-08-06T07:02:15.000Z</time>
</trkpt>
<trkpt lat="46.0367940" lon="10.4842310">
	<ele>2307.00</ele>
	<time>2023-08-06T07:02:16.000Z</time>
</trkpt>
<trkpt lat="46.0367980" lon="10.4842360">
	<ele>2307.00</ele>
	<time>2023-08-06T07:02:17.000Z</time>
</trkpt>
<trkpt lat="46.0367990" lon="10.4842430">
	<ele>2307.20</ele>
	<time>2023-08-06T07:02:18.000Z</time>
</trkpt>
<trkpt lat="46.0368010" lon="10.4842480">
	<ele>2307.20</ele>
	<time>2023-08-06T07:02:19.000Z</time>
</trkpt>
<trkpt lat="46.0368030" lon="10.4842490">
	<ele>2307.60</ele>
	<time>2023-08-06T07:02:20.000Z</time>
</trkpt>
<trkpt lat="46.0368070" lon="10.4842530">
	<ele>2307.60</ele>
	<time>2023-08-06T07:02:21.000Z</time>
</trkpt>
<trkpt lat="46.0368120" lon="10.4842520">
	<ele>2307.80</ele>
	<time>2023-08-06T07:02:22.000Z</time>
</trkpt>
<trkpt lat="46.0368220" lon="10.4842530">
	<ele>2308.00</ele>
	<time>2023-08-06T07:02:23.000Z</time>
</trkpt>
<trkpt lat="46.0368280" lon="10.4842520">
	<ele>2308.20</ele>
	<time>2023-08-06T07:02:24.000Z</time>
</trkpt>
<trkpt lat="46.0368370" lon="10.4842530">
	<ele>2308.20</ele>
	<time>2023-08-06T07:02:25.000Z</time>
</trkpt>
<trkpt lat="46.0368410" lon="10.4842510">
	<ele>2308.20</ele>
	<time>2023-08-06T07:02:26.000Z</time>
</trkpt>
<trkpt lat="46.0368500" lon="10.4842560">
	<ele>2308.60</ele>
	<time>2023-08-06T07:02:27.000Z</time>
</trkpt>
<trkpt lat="46.0368580" lon="10.4842610">
	<ele>2308.80</ele>
	<time>2023-08-06T07:02:28.000Z</time>
</trkpt>
<trkpt lat="46.0368670" lon="10.4842690">
	<ele>2308.80</ele>
	<time>2023-08-06T07:02:29.000Z</time>
</trkpt>
<trkpt lat="46.0368770" lon="10.4842820">
	<ele>2309.00</ele>
	<time>2023-08-06T07:02:30.000Z</time>
</trkpt>
<trkpt lat="46.0368800" lon="10.4842820">
	<ele>2309.20</ele>
	<time>2023-08-06T07:02:31.000Z</time>
</trkpt>
<trkpt lat="46.0368870" lon="10.4842810">
	<ele>2309.40</ele>
	<time>2023-08-06T07:02:32.000Z</time>
</trkpt>
<trkpt lat="46.0368920" lon="10.4842790">
	<ele>2309.60</ele>
	<time>2023-08-06T07:02:33.000Z</time>
</trkpt>
<trkpt lat="46.0368960" lon="10.4842780">
	<ele>2309.80</ele>
	<time>2023-08-06T07:02:34.000Z</time>
</trkpt>
<trkpt lat="46.0369000" lon="10.4842740">
	<ele>2309.80</ele>
	<time>2023-08-06T07:02:35.000Z</time>
</trkpt>
<trkpt lat="46.0369020" lon="10.4842700">
	<ele>2310.00</ele>
	<time>2023-08-06T07:02:36.000Z</time>
</trkpt>
<trkpt lat="46.0369080" lon="10.4842700">
	<ele>2310.40</ele>
	<time>2023-08-06T07:02:37.000Z</time>
</trkpt>
<trkpt lat="46.0369150" lon="10.4842700">
	<ele>2310.40</ele>
	<time>2023-08-06T07:02:38.000Z</time>
</trkpt>
<trkpt lat="46.0369210" lon="10.4842730">
	<ele>2310.60</ele>
	<time>2023-08-06T07:02:39.000Z</time>
</trkpt>
<trkpt lat="46.0369260" lon="10.4842720">
	<ele>2310.80</ele>
	<time>2023-08-06T07:02:40.000Z</time>
</trkpt>
<trkpt lat="46.0369340" lon="10.4842780">
	<ele>2311.00</ele>
	<time>2023-08-06T07:02:41.000Z</time>
</trkpt>
<trkpt lat="46.0369390" lon="10.4842860">
	<ele>2311.00</ele>
	<time>2023-08-06T07:02:42.000Z</time>
</trkpt>
<trkpt lat="46.0369420" lon="10.4842960">
	<ele>2311.20</ele>
	<time>2023-08-06T07:02:43.000Z</time>
</trkpt>
<trkpt lat="46.0369400" lon="10.4843040">
	<ele>2311.20</ele>
	<time>2023-08-06T07:02:44.000Z</time>
</trkpt>
<trkpt lat="46.0369400" lon="10.4843120">
	<ele>2311.20</ele>
	<time>2023-08-06T07:02:45.000Z</time>
</trkpt>
<trkpt lat="46.0369350" lon="10.4843140">
	<ele>2311.20</ele>
	<time>2023-08-06T07:02:46.000Z</time>
</trkpt>
<trkpt lat="46.0369290" lon="10.4843160">
	<ele>2311.20</ele>
	<time>2023-08-06T07:02:47.000Z</time>
</trkpt>
<trkpt lat="46.0369230" lon="10.4843210">
	<ele>2311.40</ele>
	<time>2023-08-06T07:02:48.000Z</time>
</trkpt>
<trkpt lat="46.0369180" lon="10.4843260">
	<ele>2311.60</ele>
	<time>2023-08-06T07:02:49.000Z</time>
</trkpt>
<trkpt lat="46.0369140" lon="10.4843340">
	<ele>2311.80</ele>
	<time>2023-08-06T07:02:50.000Z</time>
</trkpt>
<trkpt lat="46.0369090" lon="10.4843370">
	<ele>2311.80</ele>
	<time>2023-08-06T07:02:51.000Z</time>
</trkpt>
<trkpt lat="46.0369050" lon="10.4843400">
	<ele>2312.00</ele>
	<time>2023-08-06T07:02:52.000Z</time>
</trkpt>
<trkpt lat="46.0369000" lon="10.4843460">
	<ele>2312.20</ele>
	<time>2023-08-06T07:02:53.000Z</time>
</trkpt>
<trkpt lat="46.0368890" lon="10.4843440">
	<ele>2312.40</ele>
	<time>2023-08-06T07:02:54.000Z</time>
</trkpt>
<trkpt lat="46.0368840" lon="10.4843470">
	<ele>2312.60</ele>
	<time>2023-08-06T07:02:55.000Z</time>
</trkpt>
<trkpt lat="46.0368760" lon="10.4843480">
	<ele>2312.80</ele>
	<time>2023-08-06T07:02:56.000Z</time>
</trkpt>
<trkpt lat="46.0368670" lon="10.4843480">
	<ele>2312.80</ele>
	<time>2023-08-06T07:02:57.000Z</time>
</trkpt>
<trkpt lat="46.0368590" lon="10.4843550">
	<ele>2312.80</ele>
	<time>2023-08-06T07:02:58.000Z</time>
</trkpt>
<trkpt lat="46.0368520" lon="10.4843570">
	<ele>2313.00</ele>
	<time>2023-08-06T07:02:59.000Z</time>
</trkpt>
<trkpt lat="46.0368460" lon="10.4843570">
	<ele>2313.20</ele>
	<time>2023-08-06T07:03:00.000Z</time>
</trkpt>
<trkpt lat="46.0368460" lon="10.4843670">
	<ele>2313.20</ele>
	<time>2023-08-06T07:03:01.000Z</time>
</trkpt>
<trkpt lat="46.0368430" lon="10.4843770">
	<ele>2313.40</ele>
	<time>2023-08-06T07:03:02.000Z</time>
</trkpt>
<trkpt lat="46.0368360" lon="10.4843810">
	<ele>2313.40</ele>
	<time>2023-08-06T07:03:03.000Z</time>
</trkpt>
<trkpt lat="46.0368360" lon="10.4843870">
	<ele>2313.60</ele>
	<time>2023-08-06T07:03:04.000Z</time>
</trkpt>
<trkpt lat="46.0368280" lon="10.4843940">
	<ele>2313.80</ele>
	<time>2023-08-06T07:03:05.000Z</time>
</trkpt>
<trkpt lat="46.0368180" lon="10.4843960">
	<ele>2314.00</ele>
	<time>2023-08-06T07:03:06.000Z</time>
</trkpt>
<trkpt lat="46.0368100" lon="10.4843950">
	<ele>2314.20</ele>
	<time>2023-08-06T07:03:07.000Z</time>
</trkpt>
<trkpt lat="46.0368060" lon="10.4843930">
	<ele>2314.20</ele>
	<time>2023-08-06T07:03:08.000Z</time>
</trkpt>
<trkpt lat="46.0368070" lon="10.4843970">
	<ele>2314.40</ele>
	<time>2023-08-06T07:03:09.000Z</time>
</trkpt>
<trkpt lat="46.0368030" lon="10.4843970">
	<ele>2314.40</ele>
	<time>2023-08-06T07:03:10.000Z</time>
</trkpt>
<trkpt lat="46.0368010" lon="10.4843980">
	<ele>2314.80</ele>
	<time>2023-08-06T07:03:11.000Z</time>
</trkpt>
<trkpt lat="46.0367980" lon="10.4844040">
	<ele>2315.00</ele>
	<time>2023-08-06T07:03:12.000Z</time>
</trkpt>
<trkpt lat="46.0367950" lon="10.4844060">
	<ele>2315.20</ele>
	<time>2023-08-06T07:03:13.000Z</time>
</trkpt>
<trkpt lat="46.0367920" lon="10.4844070">
	<ele>2315.40</ele>
	<time>2023-08-06T07:03:14.000Z</time>
</trkpt>
<trkpt lat="46.0367880" lon="10.4844090">
	<ele>2315.40</ele>
	<time>2023-08-06T07:03:15.000Z</time>
</trkpt>
<trkpt lat="46.0367840" lon="10.4844090">
	<ele>2315.60</ele>
	<time>2023-08-06T07:03:16.000Z</time>
</trkpt>
<trkpt lat="46.0367800" lon="10.4844120">
	<ele>2315.80</ele>
	<time>2023-08-06T07:03:17.000Z</time>
</trkpt>
<trkpt lat="46.0367760" lon="10.4844200">
	<ele>2316.00</ele>
	<time>2023-08-06T07:03:18.000Z</time>
</trkpt>
<trkpt lat="46.0367670" lon="10.4844210">
	<ele>2316.00</ele>
	<time>2023-08-06T07:03:19.000Z</time>
</trkpt>
<trkpt lat="46.0367590" lon="10.4844210">
	<ele>2316.20</ele>
	<time>2023-08-06T07:03:20.000Z</time>
</trkpt>
<trkpt lat="46.0367560" lon="10.4844240">
	<ele>2316.20</ele>
	<time>2023-08-06T07:03:21.000Z</time>
</trkpt>
<trkpt lat="46.0367480" lon="10.4844250">
	<ele>2316.40</ele>
	<time>2023-08-06T07:03:22.000Z</time>
</trkpt>
<trkpt lat="46.0367400" lon="10.4844260">
	<ele>2316.40</ele>
	<time>2023-08-06T07:03:23.000Z</time>
</trkpt>
<trkpt lat="46.0367360" lon="10.4844270">
	<ele>2316.60</ele>
	<time>2023-08-06T07:03:24.000Z</time>
</trkpt>
<trkpt lat="46.0367300" lon="10.4844250">
	<ele>2316.60</ele>
	<time>2023-08-06T07:03:25.000Z</time>
</trkpt>
<trkpt lat="46.0367280" lon="10.4844250">
	<ele>2316.80</ele>
	<time>2023-08-06T07:03:26.000Z</time>
</trkpt>
<trkpt lat="46.0367300" lon="10.4844240">
	<ele>2317.00</ele>
	<time>2023-08-06T07:03:27.000Z</time>
</trkpt>
<trkpt lat="46.0367330" lon="10.4844220">
	<ele>2317.00</ele>
	<time>2023-08-06T07:03:28.000Z</time>
</trkpt>
<trkpt lat="46.0367380" lon="10.4844210">
	<ele>2317.20</ele>
	<time>2023-08-06T07:03:29.000Z</time>
</trkpt>
<trkpt lat="46.0367420" lon="10.4844180">
	<ele>2317.40</ele>
	<time>2023-08-06T07:03:30.000Z</time>
</trkpt>
<trkpt lat="46.0367530" lon="10.4844210">
	<ele>2317.40</ele>
	<time>2023-08-06T07:03:31.000Z</time>
</trkpt>
<trkpt lat="46.0367620" lon="10.4844220">
	<ele>2317.60</ele>
	<time>2023-08-06T07:03:32.000Z</time>
</trkpt>
<trkpt lat="46.0367690" lon="10.4844210">
	<ele>2317.60</ele>
	<time>2023-08-06T07:03:33.000Z</time>
</trkpt>
<trkpt lat="46.0367770" lon="10.4844200">
	<ele>2317.80</ele>
	<time>2023-08-06T07:03:34.000Z</time>
</trkpt>
<trkpt lat="46.0367840" lon="10.4844250">
	<ele>2318.00</ele>
	<time>2023-08-06T07:03:35.000Z</time>
</trkpt>
<trkpt lat="46.0367940" lon="10.4844300">
	<ele>2318.00</ele>
	<time>2023-08-06T07:03:36.000Z</time>
</trkpt>
<trkpt lat="46.0368000" lon="10.4844330">
	<ele>2318.20</ele>
	<time>2023-08-06T07:03:37.000Z</time>
</trkpt>
<trkpt lat="46.0368080" lon="10.4844350">
	<ele>2318.40</ele>
	<time>2023-08-06T07:03:38.000Z</time>
</trkpt>
<trkpt lat="46.0368150" lon="10.4844340">
	<ele>2318.40</ele>
	<time>2023-08-06T07:03:39.000Z</time>
</trkpt>
<trkpt lat="46.0368200" lon="10.4844300">
	<ele>2318.40</ele>
	<time>2023-08-06T07:03:40.000Z</time>
</trkpt>
<trkpt lat="46.0368260" lon="10.4844250">
	<ele>2318.60</ele>
	<time>2023-08-06T07:03:41.000Z</time>
</trkpt>
<trkpt lat="46.0368360" lon="10.4844230">
	<ele>2318.60</ele>
	<time>2023-08-06T07:03:42.000Z</time>
</trkpt>
<trkpt lat="46.0368420" lon="10.4844240">
	<ele>2318.80</ele>
	<time>2023-08-06T07:03:43.000Z</time>
</trkpt>
<trkpt lat="46.0368470" lon="10.4844220">
	<ele>2318.80</ele>
	<time>2023-08-06T07:03:44.000Z</time>
</trkpt>
<trkpt lat="46.0368540" lon="10.4844230">
	<ele>2319.00</ele>
	<time>2023-08-06T07:03:45.000Z</time>
</trkpt>
<trkpt lat="46.0368620" lon="10.4844210">
	<ele>2319.00</ele>
	<time>2023-08-06T07:03:46.000Z</time>
</trkpt>
<trkpt lat="46.0368690" lon="10.4844190">
	<ele>2319.00</ele>
	<time>2023-08-06T07:03:47.000Z</time>
</trkpt>
<trkpt lat="46.0368790" lon="10.4844180">
	<ele>2319.20</ele>
	<time>2023-08-06T07:03:48.000Z</time>
</trkpt>
<trkpt lat="46.0368870" lon="10.4844190">
	<ele>2319.20</ele>
	<time>2023-08-06T07:03:49.000Z</time>
</trkpt>
<trkpt lat="46.0368930" lon="10.4844170">
	<ele>2319.20</ele>
	<time>2023-08-06T07:03:50.000Z</time>
</trkpt>
<trkpt lat="46.0369020" lon="10.4844240">
	<ele>2319.40</ele>
	<time>2023-08-06T07:03:51.000Z</time>
</trkpt>
<trkpt lat="46.0369100" lon="10.4844300">
	<ele>2319.60</ele>
	<time>2023-08-06T07:03:52.000Z</time>
</trkpt>
<trkpt lat="46.0369190" lon="10.4844340">
	<ele>2319.60</ele>
	<time>2023-08-06T07:03:53.000Z</time>
</trkpt>
<trkpt lat="46.0369250" lon="10.4844330">
	<ele>2319.60</ele>
	<time>2023-08-06T07:03:54.000Z</time>
</trkpt>
<trkpt lat="46.0369310" lon="10.4844270">
	<ele>2319.80</ele>
	<time>2023-08-06T07:03:55.000Z</time>
</trkpt>
<trkpt lat="46.0369360" lon="10.4844210">
	<ele>2320.00</ele>
	<time>2023-08-06T07:03:56.000Z</time>
</trkpt>
<trkpt lat="46.0369400" lon="10.4844170">
	<ele>2320.20</ele>
	<time>2023-08-06T07:03:57.000Z</time>
</trkpt>
<trkpt lat="46.0369420" lon="10.4844160">
	<ele>2320.20</ele>
	<time>2023-08-06T07:03:58.000Z</time>
</trkpt>
<trkpt lat="46.0369490" lon="10.4844160">
	<ele>2320.40</ele>
	<time>2023-08-06T07:03:59.000Z</time>
</trkpt>
<trkpt lat="46.0369540" lon="10.4844180">
	<ele>2320.60</ele>
	<time>2023-08-06T07:04:00.000Z</time>
</trkpt>
<trkpt lat="46.0369650" lon="10.4844210">
	<ele>2320.80</ele>
	<time>2023-08-06T07:04:01.000Z</time>
</trkpt>
<trkpt lat="46.0369670" lon="10.4844310">
	<ele>2321.00</ele>
	<time>2023-08-06T07:04:02.000Z</time>
</trkpt>
<trkpt lat="46.0369700" lon="10.4844380">
	<ele>2321.20</ele>
	<time>2023-08-06T07:04:03.000Z</time>
</trkpt>
<trkpt lat="46.0369740" lon="10.4844390">
	<ele>2321.40</ele>
	<time>2023-08-06T07:04:04.000Z</time>
</trkpt>
<trkpt lat="46.0369750" lon="10.4844410">
	<ele>2321.60</ele>
	<time>2023-08-06T07:04:05.000Z</time>
</trkpt>
<trkpt lat="46.0369710" lon="10.4844470">
	<ele>2321.80</ele>
	<time>2023-08-06T07:04:06.000Z</time>
</trkpt>
<trkpt lat="46.0369680" lon="10.4844530">
	<ele>2322.00</ele>
	<time>2023-08-06T07:04:07.000Z</time>
</trkpt>
<trkpt lat="46.0369650" lon="10.4844580">
	<ele>2322.20</ele>
	<time>2023-08-06T07:04:08.000Z</time>
</trkpt>
<trkpt lat="46.0369620" lon="10.4844700">
	<ele>2322.40</ele>
	<time>2023-08-06T07:04:09.000Z</time>
</trkpt>
<trkpt lat="46.0369580" lon="10.4844800">
	<ele>2322.40</ele>
	<time>2023-08-06T07:04:10.000Z</time>
</trkpt>
<trkpt lat="46.0369570" lon="10.4844910">
	<ele>2322.60</ele>
	<time>2023-08-06T07:04:11.000Z</time>
</trkpt>
<trkpt lat="46.0369570" lon="10.4844980">
	<ele>2323.00</ele>
	<time>2023-08-06T07:04:12.000Z</time>
</trkpt>
<trkpt lat="46.0369540" lon="10.4845060">
	<ele>2323.20</ele>
	<time>2023-08-06T07:04:13.000Z</time>
</trkpt>
<trkpt lat="46.0369480" lon="10.4845110">
	<ele>2323.40</ele>
	<time>2023-08-06T07:04:14.000Z</time>
</trkpt>
<trkpt lat="46.0369450" lon="10.4845160">
	<ele>2323.40</ele>
	<time>2023-08-06T07:04:15.000Z</time>
</trkpt>
<trkpt lat="46.0369400" lon="10.4845180">
	<ele>2323.40</ele>
	<time>2023-08-06T07:04:16.000Z</time>
</trkpt>
<trkpt lat="46.0369360" lon="10.4845230">
	<ele>2323.60</ele>
	<time>2023-08-06T07:04:17.000Z</time>
</trkpt>
<trkpt lat="46.0369330" lon="10.4845310">
	<ele>2323.80</ele>
	<time>2023-08-06T07:04:18.000Z</time>
</trkpt>
<trkpt lat="46.0369280" lon="10.4845340">
	<ele>2324.00</ele>
	<time>2023-08-06T07:04:19.000Z</time>
</trkpt>
<trkpt lat="46.0369230" lon="10.4845340">
	<ele>2324.20</ele>
	<time>2023-08-06T07:04:20.000Z</time>
</trkpt>
<trkpt lat="46.0369170" lon="10.4845300">
	<ele>2324.20</ele>
	<time>2023-08-06T07:04:21.000Z</time>
</trkpt>
<trkpt lat="46.0369150" lon="10.4845410">
	<ele>2324.20</ele>
	<time>2023-08-06T07:04:22.000Z</time>
</trkpt>
<trkpt lat="46.0369120" lon="10.4845510">
	<ele>2324.40</ele>
	<time>2023-08-06T07:04:23.000Z</time>
</trkpt>
<trkpt lat="46.0369120" lon="10.4845530">
	<ele>2324.40</ele>
	<time>2023-08-06T07:04:24.000Z</time>
</trkpt>
<trkpt lat="46.0369150" lon="10.4845540">
	<ele>2324.60</ele>
	<time>2023-08-06T07:04:25.000Z</time>
</trkpt>
<trkpt lat="46.0369180" lon="10.4845550">
	<ele>2324.80</ele>
	<time>2023-08-06T07:04:26.000Z</time>
</trkpt>
<trkpt lat="46.0369200" lon="10.4845570">
	<ele>2325.00</ele>
	<time>2023-08-06T07:04:27.000Z</time>
</trkpt>
<trkpt lat="46.0369200" lon="10.4845590">
	<ele>2325.20</ele>
	<time>2023-08-06T07:04:28.000Z</time>
</trkpt>
<trkpt lat="46.0369260" lon="10.4845680">
	<ele>2325.20</ele>
	<time>2023-08-06T07:04:29.000Z</time>
</trkpt>
<trkpt lat="46.0369300" lon="10.4845690">
	<ele>2325.40</ele>
	<time>2023-08-06T07:04:30.000Z</time>
</trkpt>
<trkpt lat="46.0369330" lon="10.4845710">
	<ele>2325.40</ele>
	<time>2023-08-06T07:04:31.000Z</time>
</trkpt>
<trkpt lat="46.0369360" lon="10.4845730">
	<ele>2325.60</ele>
	<time>2023-08-06T07:04:32.000Z</time>
</trkpt>
<trkpt lat="46.0369380" lon="10.4845730">
	<ele>2325.80</ele>
	<time>2023-08-06T07:04:33.000Z</time>
</trkpt>
<trkpt lat="46.0369430" lon="10.4845740">
	<ele>2325.80</ele>
	<time>2023-08-06T07:04:34.000Z</time>
</trkpt>
<trkpt lat="46.0369460" lon="10.4845740">
	<ele>2326.00</ele>
	<time>2023-08-06T07:04:35.000Z</time>
</trkpt>
<trkpt lat="46.0369490" lon="10.4845740">
	<ele>2326.40</ele>
	<time>2023-08-06T07:04:36.000Z</time>
</trkpt>
<trkpt lat="46.0369550" lon="10.4845730">
	<ele>2326.40</ele>
	<time>2023-08-06T07:04:37.000Z</time>
</trkpt>
<trkpt lat="46.0369630" lon="10.4845750">
	<ele>2326.60</ele>
	<time>2023-08-06T07:04:38.000Z</time>
</trkpt>
<trkpt lat="46.0369680" lon="10.4845770">
	<ele>2326.60</ele>
	<time>2023-08-06T07:04:39.000Z</time>
</trkpt>
<trkpt lat="46.0369720" lon="10.4845800">
	<ele>2326.80</ele>
	<time>2023-08-06T07:04:40.000Z</time>
</trkpt>
<trkpt lat="46.0369760" lon="10.4845830">
	<ele>2326.80</ele>
	<time>2023-08-06T07:04:41.000Z</time>
</trkpt>
<trkpt lat="46.0369820" lon="10.4845880">
	<ele>2326.80</ele>
	<time>2023-08-06T07:04:42.000Z</time>
</trkpt>
<trkpt lat="46.0369850" lon="10.4845900">
	<ele>2327.00</ele>
	<time>2023-08-06T07:04:43.000Z</time>
</trkpt>
<trkpt lat="46.0369890" lon="10.4845900">
	<ele>2327.20</ele>
	<time>2023-08-06T07:04:44.000Z</time>
</trkpt>
<trkpt lat="46.0369950" lon="10.4845850">
	<ele>2327.20</ele>
	<time>2023-08-06T07:04:45.000Z</time>
</trkpt>
<trkpt lat="46.0369990" lon="10.4845800">
	<ele>2327.40</ele>
	<time>2023-08-06T07:04:46.000Z</time>
</trkpt>
<trkpt lat="46.0370020" lon="10.4845730">
	<ele>2327.60</ele>
	<time>2023-08-06T07:04:47.000Z</time>
</trkpt>
<trkpt lat="46.0370070" lon="10.4845730">
	<ele>2327.60</ele>
	<time>2023-08-06T07:04:48.000Z</time>
</trkpt>
<trkpt lat="46.0370160" lon="10.4845730">
	<ele>2327.80</ele>
	<time>2023-08-06T07:04:49.000Z</time>
</trkpt>
<trkpt lat="46.0370210" lon="10.4845690">
	<ele>2328.00</ele>
	<time>2023-08-06T07:04:50.000Z</time>
</trkpt>
<trkpt lat="46.0370270" lon="10.4845680">
	<ele>2328.00</ele>
	<time>2023-08-06T07:04:51.000Z</time>
</trkpt>
<trkpt lat="46.0370360" lon="10.4845770">
	<ele>2328.20</ele>
	<time>2023-08-06T07:04:52.000Z</time>
</trkpt>
<trkpt lat="46.0370430" lon="10.4845820">
	<ele>2328.20</ele>
	<time>2023-08-06T07:04:53.000Z</time>
</trkpt>
<trkpt lat="46.0370510" lon="10.4845880">
	<ele>2328.40</ele>
	<time>2023-08-06T07:04:54.000Z</time>
</trkpt>
<trkpt lat="46.0370570" lon="10.4845910">
	<ele>2328.40</ele>
	<time>2023-08-06T07:04:55.000Z</time>
</trkpt>
<trkpt lat="46.0370610" lon="10.4845950">
	<ele>2328.60</ele>
	<time>2023-08-06T07:04:56.000Z</time>
</trkpt>
<trkpt lat="46.0370660" lon="10.4845960">
	<ele>2328.80</ele>
	<time>2023-08-06T07:04:57.000Z</time>
</trkpt>
<trkpt lat="46.0370690" lon="10.4845990">
	<ele>2328.80</ele>
	<time>2023-08-06T07:04:58.000Z</time>
</trkpt>
<trkpt lat="46.0370730" lon="10.4846040">
	<ele>2329.00</ele>
	<time>2023-08-06T07:04:59.000Z</time>
</trkpt>
<trkpt lat="46.0370730" lon="10.4846020">
	<ele>2329.00</ele>
	<time>2023-08-06T07:05:00.000Z</time>
</trkpt>
<trkpt lat="46.0370780" lon="10.4845990">
	<ele>2329.00</ele>
	<time>2023-08-06T07:05:01.000Z</time>
</trkpt>
<trkpt lat="46.0370850" lon="10.4845960">
	<ele>2329.00</ele>
	<time>2023-08-06T07:05:02.000Z</time>
</trkpt>
<trkpt lat="46.0370890" lon="10.4845950">
	<ele>2329.20</ele>
	<time>2023-08-06T07:05:03.000Z</time>
</trkpt>
<trkpt lat="46.0370910" lon="10.4845970">
	<ele>2329.40</ele>
	<time>2023-08-06T07:05:04.000Z</time>
</trkpt>
<trkpt lat="46.0370900" lon="10.4845960">
	<ele>2329.40</ele>
	<time>2023-08-06T07:05:05.000Z</time>
</trkpt>
<trkpt lat="46.0370900" lon="10.4845920">
	<ele>2329.40</ele>
	<time>2023-08-06T07:05:06.000Z</time>
</trkpt>
<trkpt lat="46.0370900" lon="10.4845920">
	<ele>2329.40</ele>
	<time>2023-08-06T07:05:07.000Z</time>
</trkpt>
<trkpt lat="46.0370920" lon="10.4845940">
	<ele>2329.60</ele>
	<time>2023-08-06T07:05:08.000Z</time>
</trkpt>
<trkpt lat="46.0370930" lon="10.4845930">
	<ele>2329.60</ele>
	<time>2023-08-06T07:05:09.000Z</time>
</trkpt>
<trkpt lat="46.0370930" lon="10.4845930">
	<ele>2329.60</ele>
	<time>2023-08-06T07:05:10.000Z</time>
</trkpt>
<trkpt lat="46.0370930" lon="10.4845930">
	<ele>2329.60</ele>
	<time>2023-08-06T07:05:11.000Z</time>
</trkpt>
<trkpt lat="46.0370930" lon="10.4845930">
	<ele>2329.80</ele>
	<time>2023-08-06T07:05:12.000Z</time>
</trkpt>
<trkpt lat="46.0370930" lon="10.4845930">
	<ele>2329.80</ele>
	<time>2023-08-06T07:05:13.000Z</time>
</trkpt>
<trkpt lat="46.0370930" lon="10.4845930">
	<ele>2329.80</ele>
	<time>2023-08-06T07:05:14.000Z</time>
</trkpt>
<trkpt lat="46.0370930" lon="10.4845930">
	<ele>2330.00</ele>
	<time>2023-08-06T07:05:15.000Z</time>
</trkpt>
<trkpt lat="46.0370930" lon="10.4845930">
	<ele>2330.00</ele>
	<time>2023-08-06T07:05:16.000Z</time>
</trkpt>
<trkpt lat="46.0370930" lon="10.4845930">
	<ele>2330.00</ele>
	<time>2023-08-06T07:05:17.000Z</time>
</trkpt>
<trkpt lat="46.0370930" lon="10.4845930">
	<ele>2330.00</ele>
	<time>2023-08-06T07:05:18.000Z</time>
</trkpt>
<trkpt lat="46.0370930" lon="10.4845930">
	<ele>2330.20</ele>
	<time>2023-08-06T07:05:19.000Z</time>
</trkpt>
<trkpt lat="46.0370930" lon="10.4845930">
	<ele>2330.20</ele>
	<time>2023-08-06T07:05:20.000Z</time>
</trkpt>
<trkpt lat="46.0370930" lon="10.4845930">
	<ele>2330.20</ele>
	<time>2023-08-06T07:05:21.000Z</time>
</trkpt>
<trkpt lat="46.0370930" lon="10.4845930">
	<ele>2330.40</ele>
	<time>2023-08-06T07:05:22.000Z</time>
</trkpt>
<trkpt lat="46.0370930" lon="10.4845920">
	<ele>2330.40</ele>
	<time>2023-08-06T07:05:23.000Z</time>
</trkpt>
<trkpt lat="46.0370930" lon="10.4845920">
	<ele>2330.20</ele>
	<time>2023-08-06T07:05:24.000Z</time>
</trkpt>
<trkpt lat="46.0370940" lon="10.4845920">
	<ele>2330.20</ele>
	<time>2023-08-06T07:05:25.000Z</time>
</trkpt>
<trkpt lat="46.0370940" lon="10.4845840">
	<ele>2330.00</ele>
	<time>2023-08-06T07:05:26.000Z</time>
</trkpt>
<trkpt lat="46.0370940" lon="10.4845830">
	<ele>2329.80</ele>
	<time>2023-08-06T07:05:27.000Z</time>
</trkpt>
<trkpt lat="46.0370940" lon="10.4845810">
	<ele>2329.60</ele>
	<time>2023-08-06T07:05:28.000Z</time>
</trkpt>
<trkpt lat="46.0370940" lon="10.4845810">
	<ele>2329.40</ele>
	<time>2023-08-06T07:05:29.000Z</time>
</trkpt>
<trkpt lat="46.0370940" lon="10.4845730">
	<ele>2329.40</ele>
	<time>2023-08-06T07:05:30.000Z</time>
</trkpt>
<trkpt lat="46.0370940" lon="10.4845720">
	<ele>2329.40</ele>
	<time>2023-08-06T07:05:31.000Z</time>
</trkpt>
<trkpt lat="46.0370950" lon="10.4845720">
	<ele>2329.40</ele>
	<time>2023-08-06T07:05:32.000Z</time>
</trkpt>
<trkpt lat="46.0370950" lon="10.4845720">
	<ele>2329.40</ele>
	<time>2023-08-06T07:05:33.000Z</time>
</trkpt>
<trkpt lat="46.0370950" lon="10.4845720">
	<ele>2329.60</ele>
	<time>2023-08-06T07:05:34.000Z</time>
</trkpt>
<trkpt lat="46.0370950" lon="10.4845720">
	<ele>2329.80</ele>
	<time>2023-08-06T07:05:35.000Z</time>
</trkpt>
<trkpt lat="46.0370960" lon="10.4845720">
	<ele>2330.00</ele>
	<time>2023-08-06T07:05:36.000Z</time>
</trkpt>
<trkpt lat="46.0370980" lon="10.4845750">
	<ele>2330.00</ele>
	<time>2023-08-06T07:05:37.000Z</time>
</trkpt>
<trkpt lat="46.0371020" lon="10.4845850">
	<ele>2330.20</ele>
	<time>2023-08-06T07:05:38.000Z</time>
</trkpt>
<trkpt lat="46.0371070" lon="10.4845950">
	<ele>2330.40</ele>
	<time>2023-08-06T07:05:39.000Z</time>
</trkpt>
<trkpt lat="46.0371130" lon="10.4846040">
	<ele>2330.40</ele>
	<time>2023-08-06T07:05:40.000Z</time>
</trkpt>
<trkpt lat="46.0371150" lon="10.4846250">
	<ele>2330.40</ele>
	<time>2023-08-06T07:05:41.000Z</time>
</trkpt>
<trkpt lat="46.0371200" lon="10.4846370">
	<ele>2330.40</ele>
	<time>2023-08-06T07:05:42.000Z</time>
</trkpt>
<trkpt lat="46.0371230" lon="10.4846420">
	<ele>2330.40</ele>
	<time>2023-08-06T07:05:43.000Z</time>
</trkpt>
<trkpt lat="46.0371270" lon="10.4846420">
	<ele>2330.40</ele>
	<time>2023-08-06T07:05:44.000Z</time>
</trkpt>
<trkpt lat="46.0371310" lon="10.4846480">
	<ele>2330.40</ele>
	<time>2023-08-06T07:05:45.000Z</time>
</trkpt>
<trkpt lat="46.0371340" lon="10.4846520">
	<ele>2330.40</ele>
	<time>2023-08-06T07:05:46.000Z</time>
</trkpt>
<trkpt lat="46.0371340" lon="10.4846520">
	<ele>2330.60</ele>
	<time>2023-08-06T07:05:47.000Z</time>
</trkpt>
<trkpt lat="46.0371340" lon="10.4846510">
	<ele>2330.60</ele>
	<time>2023-08-06T07:05:48.000Z</time>
</trkpt>
<trkpt lat="46.0371340" lon="10.4846490">
	<ele>2330.80</ele>
	<time>2023-08-06T07:05:49.000Z</time>
</trkpt>
<trkpt lat="46.0371340" lon="10.4846470">
	<ele>2330.80</ele>
	<time>2023-08-06T07:05:50.000Z</time>
</trkpt>
<trkpt lat="46.0371340" lon="10.4846490">
	<ele>2330.80</ele>
	<time>2023-08-06T07:05:51.000Z</time>
</trkpt>
<trkpt lat="46.0371340" lon="10.4846480">
	<ele>2331.00</ele>
	<time>2023-08-06T07:05:52.000Z</time>
</trkpt>
<trkpt lat="46.0371340" lon="10.4846480">
	<ele>2331.00</ele>
	<time>2023-08-06T07:05:53.000Z</time>
</trkpt>
<trkpt lat="46.0371340" lon="10.4846480">
	<ele>2331.00</ele>
	<time>2023-08-06T07:05:54.000Z</time>
</trkpt>
<trkpt lat="46.0371340" lon="10.4846480">
	<ele>2331.00</ele>
	<time>2023-08-06T07:05:55.000Z</time>
</trkpt>
<trkpt lat="46.0371340" lon="10.4846480">
	<ele>2331.00</ele>
	<time>2023-08-06T07:05:56.000Z</time>
</trkpt>
<trkpt lat="46.0371340" lon="10.4846480">
	<ele>2331.00</ele>
	<time>2023-08-06T07:05:57.000Z</time>
</trkpt>
<trkpt lat="46.0371340" lon="10.4846480">
	<ele>2331.00</ele>
	<time>2023-08-06T07:05:58.000Z</time>
</trkpt>
<trkpt lat="46.0371340" lon="10.4846480">
	<ele>2331.00</ele>
	<time>2023-08-06T07:05:59.000Z</time>
</trkpt>
<trkpt lat="46.0371340" lon="10.4846480">
	<ele>2331.00</ele>
	<time>2023-08-06T07:06:00.000Z</time>
</trkpt>
<trkpt lat="46.0371340" lon="10.4846480">
	<ele>2331.20</ele>
	<time>2023-08-06T07:06:01.000Z</time>
</trkpt>
<trkpt lat="46.0371340" lon="10.4846480">
	<ele>2331.20</ele>
	<time>2023-08-06T07:06:02.000Z</time>
</trkpt>
<trkpt lat="46.0371370" lon="10.4846510">
	<ele>2331.20</ele>
	<time>2023-08-06T07:06:03.000Z</time>
</trkpt>
<trkpt lat="46.0371460" lon="10.4846610">
	<ele>2331.20</ele>
	<time>2023-08-06T07:06:04.000Z</time>
</trkpt>
<trkpt lat="46.0371530" lon="10.4846770">
	<ele>2331.40</ele>
	<time>2023-08-06T07:06:05.000Z</time>
</trkpt>
<trkpt lat="46.0371620" lon="10.4846860">
	<ele>2331.40</ele>
	<time>2023-08-06T07:06:06.000Z</time>
</trkpt>
<trkpt lat="46.0371700" lon="10.4846980">
	<ele>2331.60</ele>
	<time>2023-08-06T07:06:07.000Z</time>
</trkpt>
<trkpt lat="46.0371790" lon="10.4847110">
	<ele>2331.60</ele>
	<time>2023-08-06T07:06:08.000Z</time>
</trkpt>
<trkpt lat="46.0371890" lon="10.4847290">
	<ele>2331.60</ele>
	<time>2023-08-06T07:06:09.000Z</time>
</trkpt>
<trkpt lat="46.0372010" lon="10.4847500">
	<ele>2331.80</ele>
	<time>2023-08-06T07:06:10.000Z</time>
</trkpt>
<trkpt lat="46.0372130" lon="10.4847710">
	<ele>2331.80</ele>
	<time>2023-08-06T07:06:11.000Z</time>
</trkpt>
<trkpt lat="46.0372250" lon="10.4847810">
	<ele>2332.00</ele>
	<time>2023-08-06T07:06:12.000Z</time>
</trkpt>
<trkpt lat="46.0372330" lon="10.4847840">
	<ele>2332.20</ele>
	<time>2023-08-06T07:06:13.000Z</time>
</trkpt>
<trkpt lat="46.0372380" lon="10.4847950">
	<ele>2332.20</ele>
	<time>2023-08-06T07:06:14.000Z</time>
</trkpt>
<trkpt lat="46.0372470" lon="10.4847980">
	<ele>2332.20</ele>
	<time>2023-08-06T07:06:15.000Z</time>
</trkpt>
<trkpt lat="46.0372590" lon="10.4848050">
	<ele>2332.40</ele>
	<time>2023-08-06T07:06:16.000Z</time>
</trkpt>
<trkpt lat="46.0372690" lon="10.4848150">
	<ele>2332.40</ele>
	<time>2023-08-06T07:06:17.000Z</time>
</trkpt>
<trkpt lat="46.0372780" lon="10.4848210">
	<ele>2332.40</ele>
	<time>2023-08-06T07:06:18.000Z</time>
</trkpt>
<trkpt lat="46.0372830" lon="10.4848310">
	<ele>2332.60</ele>
	<time>2023-08-06T07:06:19.000Z</time>
</trkpt>
<trkpt lat="46.0372780" lon="10.4848440">
	<ele>2332.60</ele>
	<time>2023-08-06T07:06:20.000Z</time>
</trkpt>
<trkpt lat="46.0372830" lon="10.4848550">
	<ele>2332.60</ele>
	<time>2023-08-06T07:06:21.000Z</time>
</trkpt>
<trkpt lat="46.0372960" lon="10.4848730">
	<ele>2332.60</ele>
	<time>2023-08-06T07:06:22.000Z</time>
</trkpt>
<trkpt lat="46.0373030" lon="10.4848790">
	<ele>2332.60</ele>
	<time>2023-08-06T07:06:23.000Z</time>
</trkpt>
<trkpt lat="46.0373090" lon="10.4848920">
	<ele>2332.80</ele>
	<time>2023-08-06T07:06:24.000Z</time>
</trkpt>
<trkpt lat="46.0373180" lon="10.4849060">
	<ele>2332.80</ele>
	<time>2023-08-06T07:06:25.000Z</time>
</trkpt>
<trkpt lat="46.0373240" lon="10.4849140">
	<ele>2332.80</ele>
	<time>2023-08-06T07:06:26.000Z</time>
</trkpt>
<trkpt lat="46.0373290" lon="10.4849260">
	<ele>2332.80</ele>
	<time>2023-08-06T07:06:27.000Z</time>
</trkpt>
<trkpt lat="46.0373360" lon="10.4849310">
	<ele>2332.80</ele>
	<time>2023-08-06T07:06:28.000Z</time>
</trkpt>
<trkpt lat="46.0373420" lon="10.4849440">
	<ele>2332.80</ele>
	<time>2023-08-06T07:06:29.000Z</time>
</trkpt>
<trkpt lat="46.0373470" lon="10.4849480">
	<ele>2332.80</ele>
	<time>2023-08-06T07:06:30.000Z</time>
</trkpt>
<trkpt lat="46.0373510" lon="10.4849510">
	<ele>2332.80</ele>
	<time>2023-08-06T07:06:31.000Z</time>
</trkpt>
<trkpt lat="46.0373580" lon="10.4849490">
	<ele>2332.80</ele>
	<time>2023-08-06T07:06:32.000Z</time>
</trkpt>
<trkpt lat="46.0373690" lon="10.4849500">
	<ele>2332.60</ele>
	<time>2023-08-06T07:06:33.000Z</time>
</trkpt>
<trkpt lat="46.0373770" lon="10.4849560">
	<ele>2332.40</ele>
	<time>2023-08-06T07:06:34.000Z</time>
</trkpt>
<trkpt lat="46.0373840" lon="10.4849570">
	<ele>2332.20</ele>
	<time>2023-08-06T07:06:35.000Z</time>
</trkpt>
<trkpt lat="46.0373930" lon="10.4849600">
	<ele>2332.00</ele>
	<time>2023-08-06T07:06:36.000Z</time>
</trkpt>
<trkpt lat="46.0374030" lon="10.4849590">
	<ele>2332.00</ele>
	<time>2023-08-06T07:06:37.000Z</time>
</trkpt>
<trkpt lat="46.0374150" lon="10.4849610">
	<ele>2331.80</ele>
	<time>2023-08-06T07:06:38.000Z</time>
</trkpt>
<trkpt lat="46.0374240" lon="10.4849670">
	<ele>2331.80</ele>
	<time>2023-08-06T07:06:39.000Z</time>
</trkpt>
<trkpt lat="46.0374350" lon="10.4849690">
	<ele>2331.80</ele>
	<time>2023-08-06T07:06:40.000Z</time>
</trkpt>
<trkpt lat="46.0374460" lon="10.4849700">
	<ele>2331.80</ele>
	<time>2023-08-06T07:06:41.000Z</time>
</trkpt>
<trkpt lat="46.0374570" lon="10.4849690">
	<ele>2331.80</ele>
	<time>2023-08-06T07:06:42.000Z</time>
</trkpt>
<trkpt lat="46.0374690" lon="10.4849680">
	<ele>2331.80</ele>
	<time>2023-08-06T07:06:43.000Z</time>
</trkpt>
<trkpt lat="46.0374730" lon="10.4849700">
	<ele>2331.80</ele>
	<time>2023-08-06T07:06:44.000Z</time>
</trkpt>
<trkpt lat="46.0374710" lon="10.4849740">
	<ele>2331.60</ele>
	<time>2023-08-06T07:06:45.000Z</time>
</trkpt>
<trkpt lat="46.0374660" lon="10.4849680">
	<ele>2331.60</ele>
	<time>2023-08-06T07:06:46.000Z</time>
</trkpt>
<trkpt lat="46.0374660" lon="10.4849660">
	<ele>2331.60</ele>
	<time>2023-08-06T07:06:47.000Z</time>
</trkpt>
<trkpt lat="46.0374640" lon="10.4849690">
	<ele>2331.80</ele>
	<time>2023-08-06T07:06:48.000Z</time>
</trkpt>
<trkpt lat="46.0374640" lon="10.4849690">
	<ele>2331.80</ele>
	<time>2023-08-06T07:06:49.000Z</time>
</trkpt>
<trkpt lat="46.0374640" lon="10.4849670">
	<ele>2331.80</ele>
	<time>2023-08-06T07:06:50.000Z</time>
</trkpt>
<trkpt lat="46.0374630" lon="10.4849670">
	<ele>2331.80</ele>
	<time>2023-08-06T07:06:51.000Z</time>
</trkpt>
<trkpt lat="46.0374630" lon="10.4849660">
	<ele>2332.00</ele>
	<time>2023-08-06T07:06:52.000Z</time>
</trkpt>
<trkpt lat="46.0374630" lon="10.4849650">
	<ele>2332.00</ele>
	<time>2023-08-06T07:06:53.000Z</time>
</trkpt>
<trkpt lat="46.0374620" lon="10.4849660">
	<ele>2332.20</ele>
	<time>2023-08-06T07:06:54.000Z</time>
</trkpt>
<trkpt lat="46.0374610" lon="10.4849660">
	<ele>2332.20</ele>
	<time>2023-08-06T07:06:55.000Z</time>
</trkpt>
<trkpt lat="46.0374600" lon="10.4849660">
	<ele>2332.40</ele>
	<time>2023-08-06T07:06:56.000Z</time>
</trkpt>
<trkpt lat="46.0374600" lon="10.4849660">
	<ele>2332.40</ele>
	<time>2023-08-06T07:06:57.000Z</time>
</trkpt>
<trkpt lat="46.0374600" lon="10.4849660">
	<ele>2332.40</ele>
	<time>2023-08-06T07:06:58.000Z</time>
</trkpt>
<trkpt lat="46.0374600" lon="10.4849660">
	<ele>2332.40</ele>
	<time>2023-08-06T07:06:59.000Z</time>
</trkpt>
<trkpt lat="46.0374600" lon="10.4849660">
	<ele>2332.40</ele>
	<time>2023-08-06T07:07:00.000Z</time>
</trkpt>
<trkpt lat="46.0374600" lon="10.4849660">
	<ele>2332.40</ele>
	<time>2023-08-06T07:07:01.000Z</time>
</trkpt>
<trkpt lat="46.0374600" lon="10.4849660">
	<ele>2332.20</ele>
	<time>2023-08-06T07:07:02.000Z</time>
</trkpt>
<trkpt lat="46.0374600" lon="10.4849660">
	<ele>2332.20</ele>
	<time>2023-08-06T07:07:03.000Z</time>
</trkpt>
<trkpt lat="46.0374630" lon="10.4849690">
	<ele>2331.00</ele>
	<time>2023-08-06T07:07:04.000Z</time>
</trkpt>
<trkpt lat="46.0374740" lon="10.4849760">
	<ele>2331.00</ele>
	<time>2023-08-06T07:07:05.000Z</time>
</trkpt>
<trkpt lat="46.0374880" lon="10.4849840">
	<ele>2331.00</ele>
	<time>2023-08-06T07:07:06.000Z</time>
</trkpt>
<trkpt lat="46.0375010" lon="10.4849910">
	<ele>2331.00</ele>
	<time>2023-08-06T07:07:07.000Z</time>
</trkpt>
<trkpt lat="46.0375120" lon="10.4849950">
	<ele>2331.00</ele>
	<time>2023-08-06T07:07:08.000Z</time>
</trkpt>
<trkpt lat="46.0375240" lon="10.4849990">
	<ele>2331.00</ele>
	<time>2023-08-06T07:07:09.000Z</time>
</trkpt>
<trkpt lat="46.0375350" lon="10.4849990">
	<ele>2331.00</ele>
	<time>2023-08-06T07:07:10.000Z</time>
</trkpt>
<trkpt lat="46.0375500" lon="10.4850040">
	<ele>2331.00</ele>
	<time>2023-08-06T07:07:11.000Z</time>
</trkpt>
<trkpt lat="46.0375620" lon="10.4850120">
	<ele>2331.00</ele>
	<time>2023-08-06T07:07:12.000Z</time>
</trkpt>
<trkpt lat="46.0375760" lon="10.4850210">
	<ele>2331.00</ele>
	<time>2023-08-06T07:07:13.000Z</time>
</trkpt>
<trkpt lat="46.0375850" lon="10.4850260">
	<ele>2330.80</ele>
	<time>2023-08-06T07:07:14.000Z</time>
</trkpt>
<trkpt lat="46.0375950" lon="10.4850330">
	<ele>2330.60</ele>
	<time>2023-08-06T07:07:15.000Z</time>
</trkpt>
<trkpt lat="46.0376050" lon="10.4850350">
	<ele>2330.60</ele>
	<time>2023-08-06T07:07:16.000Z</time>
</trkpt>
<trkpt lat="46.0376160" lon="10.4850380">
	<ele>2330.40</ele>
	<time>2023-08-06T07:07:17.000Z</time>
</trkpt>
<trkpt lat="46.0376250" lon="10.4850410">
	<ele>2330.40</ele>
	<time>2023-08-06T07:07:18.000Z</time>
</trkpt>
<trkpt lat="46.0376270" lon="10.4850470">
	<ele>2330.40</ele>
	<time>2023-08-06T07:07:19.000Z</time>
</trkpt>
<trkpt lat="46.0376300" lon="10.4850500">
	<ele>2330.20</ele>
	<time>2023-08-06T07:07:20.000Z</time>
</trkpt>
<trkpt lat="46.0376350" lon="10.4850470">
	<ele>2330.20</ele>
	<time>2023-08-06T07:07:21.000Z</time>
</trkpt>
<trkpt lat="46.0376410" lon="10.4850330">
	<ele>2330.00</ele>
	<time>2023-08-06T07:07:22.000Z</time>
</trkpt>
<trkpt lat="46.0376510" lon="10.4850270">
	<ele>2329.80</ele>
	<time>2023-08-06T07:07:23.000Z</time>
</trkpt>
<trkpt lat="46.0376550" lon="10.4850250">
	<ele>2329.80</ele>
	<time>2023-08-06T07:07:24.000Z</time>
</trkpt>
<trkpt lat="46.0376600" lon="10.4850260">
	<ele>2329.60</ele>
	<time>2023-08-06T07:07:25.000Z</time>
</trkpt>
<trkpt lat="46.0376680" lon="10.4850280">
	<ele>2329.20</ele>
	<time>2023-08-06T07:07:26.000Z</time>
</trkpt>
<trkpt lat="46.0376770" lon="10.4850270">
	<ele>2329.00</ele>
	<time>2023-08-06T07:07:27.000Z</time>
</trkpt>
<trkpt lat="46.0376870" lon="10.4850220">
	<ele>2329.00</ele>
	<time>2023-08-06T07:07:28.000Z</time>
</trkpt>
<trkpt lat="46.0376950" lon="10.4850220">
	<ele>2328.80</ele>
	<time>2023-08-06T07:07:29.000Z</time>
</trkpt>
<trkpt lat="46.0377010" lon="10.4850230">
	<ele>2328.60</ele>
	<time>2023-08-06T07:07:30.000Z</time>
</trkpt>
<trkpt lat="46.0377080" lon="10.4850280">
	<ele>2328.40</ele>
	<time>2023-08-06T07:07:31.000Z</time>
</trkpt>
<trkpt lat="46.0377150" lon="10.4850370">
	<ele>2328.20</ele>
	<time>2023-08-06T07:07:32.000Z</time>
</trkpt>
<trkpt lat="46.0377240" lon="10.4850420">
	<ele>2328.00</ele>
	<time>2023-08-06T07:07:33.000Z</time>
</trkpt>
<trkpt lat="46.0377290" lon="10.4850380">
	<ele>2328.00</ele>
	<time>2023-08-06T07:07:34.000Z</time>
</trkpt>
<trkpt lat="46.0377330" lon="10.4850350">
	<ele>2328.00</ele>
	<time>2023-08-06T07:07:35.000Z</time>
</trkpt>
<trkpt lat="46.0377410" lon="10.4850330">
	<ele>2327.80</ele>
	<time>2023-08-06T07:07:36.000Z</time>
</trkpt>
<trkpt lat="46.0377500" lon="10.4850280">
	<ele>2327.80</ele>
	<time>2023-08-06T07:07:37.000Z</time>
</trkpt>
<trkpt lat="46.0377570" lon="10.4850160">
	<ele>2327.40</ele>
	<time>2023-08-06T07:07:38.000Z</time>
</trkpt>
<trkpt lat="46.0377660" lon="10.4850150">
	<ele>2327.20</ele>
	<time>2023-08-06T07:07:39.000Z</time>
</trkpt>
<trkpt lat="46.0377760" lon="10.4850180">
	<ele>2327.00</ele>
	<time>2023-08-06T07:07:40.000Z</time>
</trkpt>
<trkpt lat="46.0377880" lon="10.4850190">
	<ele>2326.80</ele>
	<time>2023-08-06T07:07:41.000Z</time>
</trkpt>
<trkpt lat="46.0377980" lon="10.4850140">
	<ele>2326.80</ele>
	<time>2023-08-06T07:07:42.000Z</time>
</trkpt>
<trkpt lat="46.0378070" lon="10.4850190">
	<ele>2326.80</ele>
	<time>2023-08-06T07:07:43.000Z</time>
</trkpt>
<trkpt lat="46.0378170" lon="10.4850220">
	<ele>2326.60</ele>
	<time>2023-08-06T07:07:44.000Z</time>
</trkpt>
<trkpt lat="46.0378270" lon="10.4850270">
	<ele>2326.40</ele>
	<time>2023-08-06T07:07:45.000Z</time>
</trkpt>
<trkpt lat="46.0378390" lon="10.4850360">
	<ele>2326.20</ele>
	<time>2023-08-06T07:07:46.000Z</time>
</trkpt>
<trkpt lat="46.0378570" lon="10.4850440">
	<ele>2326.20</ele>
	<time>2023-08-06T07:07:47.000Z</time>
</trkpt>
<trkpt lat="46.0378710" lon="10.4850510">
	<ele>2326.00</ele>
	<time>2023-08-06T07:07:48.000Z</time>
</trkpt>
<trkpt lat="46.0378820" lon="10.4850570">
	<ele>2326.00</ele>
	<time>2023-08-06T07:07:49.000Z</time>
</trkpt>
<trkpt lat="46.0378930" lon="10.4850620">
	<ele>2325.80</ele>
	<time>2023-08-06T07:07:50.000Z</time>
</trkpt>
<trkpt lat="46.0379030" lon="10.4850680">
	<ele>2325.80</ele>
	<time>2023-08-06T07:07:51.000Z</time>
</trkpt>
<trkpt lat="46.0379110" lon="10.4850680">
	<ele>2325.80</ele>
	<time>2023-08-06T07:07:52.000Z</time>
</trkpt>
<trkpt lat="46.0379200" lon="10.4850710">
	<ele>2325.80</ele>
	<time>2023-08-06T07:07:53.000Z</time>
</trkpt>
<trkpt lat="46.0379310" lon="10.4850730">
	<ele>2325.80</ele>
	<time>2023-08-06T07:07:54.000Z</time>
</trkpt>
<trkpt lat="46.0379410" lon="10.4850820">
	<ele>2326.00</ele>
	<time>2023-08-06T07:07:55.000Z</time>
</trkpt>
<trkpt lat="46.0379520" lon="10.4850860">
	<ele>2325.80</ele>
	<time>2023-08-06T07:07:56.000Z</time>
</trkpt>
<trkpt lat="46.0379630" lon="10.4850870">
	<ele>2325.80</ele>
	<time>2023-08-06T07:07:57.000Z</time>
</trkpt>
<trkpt lat="46.0379760" lon="10.4850900">
	<ele>2325.80</ele>
	<time>2023-08-06T07:07:58.000Z</time>
</trkpt>
<trkpt lat="46.0379830" lon="10.4850910">
	<ele>2325.80</ele>
	<time>2023-08-06T07:07:59.000Z</time>
</trkpt>
<trkpt lat="46.0379950" lon="10.4850940">
	<ele>2325.80</ele>
	<time>2023-08-06T07:08:00.000Z</time>
</trkpt>
<trkpt lat="46.0380070" lon="10.4850980">
	<ele>2326.00</ele>
	<time>2023-08-06T07:08:01.000Z</time>
</trkpt>
<trkpt lat="46.0380180" lon="10.4851000">
	<ele>2326.00</ele>
	<time>2023-08-06T07:08:02.000Z</time>
</trkpt>
<trkpt lat="46.0380280" lon="10.4851000">
	<ele>2325.80</ele>
	<time>2023-08-06T07:08:03.000Z</time>
</trkpt>
<trkpt lat="46.0380330" lon="10.4850960">
	<ele>2325.80</ele>
	<time>2023-08-06T07:08:04.000Z</time>
</trkpt>
<trkpt lat="46.0380390" lon="10.4850910">
	<ele>2325.60</ele>
	<time>2023-08-06T07:08:05.000Z</time>
</trkpt>
<trkpt lat="46.0380480" lon="10.4850860">
	<ele>2325.60</ele>
	<time>2023-08-06T07:08:06.000Z</time>
</trkpt>
<trkpt lat="46.0380570" lon="10.4850890">
	<ele>2325.60</ele>
	<time>2023-08-06T07:08:07.000Z</time>
</trkpt>
<trkpt lat="46.0380650" lon="10.4850920">
	<ele>2325.40</ele>
	<time>2023-08-06T07:08:08.000Z</time>
</trkpt>
<trkpt lat="46.0380720" lon="10.4850890">
	<ele>2325.20</ele>
	<time>2023-08-06T07:08:09.000Z</time>
</trkpt>
<trkpt lat="46.0380810" lon="10.4850870">
	<ele>2325.00</ele>
	<time>2023-08-06T07:08:10.000Z</time>
</trkpt>
<trkpt lat="46.0380920" lon="10.4850860">
	<ele>2324.80</ele>
	<time>2023-08-06T07:08:11.000Z</time>
</trkpt>
<trkpt lat="46.0381030" lon="10.4850810">
	<ele>2324.80</ele>
	<time>2023-08-06T07:08:12.000Z</time>
</trkpt>
<trkpt lat="46.0381170" lon="10.4850810">
	<ele>2324.60</ele>
	<time>2023-08-06T07:08:13.000Z</time>
</trkpt>
<trkpt lat="46.0381250" lon="10.4850820">
	<ele>2324.60</ele>
	<time>2023-08-06T07:08:14.000Z</time>
</trkpt>
<trkpt lat="46.0381380" lon="10.4850840">
	<ele>2324.60</ele>
	<time>2023-08-06T07:08:15.000Z</time>
</trkpt>
<trkpt lat="46.0381510" lon="10.4850830">
	<ele>2324.60</ele>
	<time>2023-08-06T07:08:16.000Z</time>
</trkpt>
<trkpt lat="46.0381590" lon="10.4850750">
	<ele>2324.60</ele>
	<time>2023-08-06T07:08:17.000Z</time>
</trkpt>
<trkpt lat="46.0381710" lon="10.4850720">
	<ele>2324.80</ele>
	<time>2023-08-06T07:08:18.000Z</time>
</trkpt>
<trkpt lat="46.0381790" lon="10.4850690">
	<ele>2324.80</ele>
	<time>2023-08-06T07:08:19.000Z</time>
</trkpt>
<trkpt lat="46.0381880" lon="10.4850630">
	<ele>2325.00</ele>
	<time>2023-08-06T07:08:20.000Z</time>
</trkpt>
<trkpt lat="46.0381980" lon="10.4850540">
	<ele>2325.00</ele>
	<time>2023-08-06T07:08:21.000Z</time>
</trkpt>
<trkpt lat="46.0382090" lon="10.4850430">
	<ele>2325.20</ele>
	<time>2023-08-06T07:08:22.000Z</time>
</trkpt>
<trkpt lat="46.0382180" lon="10.4850300">
	<ele>2325.20</ele>
	<time>2023-08-06T07:08:23.000Z</time>
</trkpt>
<trkpt lat="46.0382250" lon="10.4850210">
	<ele>2325.20</ele>
	<time>2023-08-06T07:08:24.000Z</time>
</trkpt>
<trkpt lat="46.0382320" lon="10.4850130">
	<ele>2325.20</ele>
	<time>2023-08-06T07:08:25.000Z</time>
</trkpt>
<trkpt lat="46.0382400" lon="10.4850080">
	<ele>2325.20</ele>
	<time>2023-08-06T07:08:26.000Z</time>
</trkpt>
<trkpt lat="46.0382530" lon="10.4850020">
	<ele>2325.20</ele>
	<time>2023-08-06T07:08:27.000Z</time>
</trkpt>
<trkpt lat="46.0382640" lon="10.4849950">
	<ele>2325.20</ele>
	<time>2023-08-06T07:08:28.000Z</time>
</trkpt>
<trkpt lat="46.0382730" lon="10.4849890">
	<ele>2325.20</ele>
	<time>2023-08-06T07:08:29.000Z</time>
</trkpt>
<trkpt lat="46.0382820" lon="10.4849830">
	<ele>2325.00</ele>
	<time>2023-08-06T07:08:30.000Z</time>
</trkpt>
<trkpt lat="46.0382880" lon="10.4849780">
	<ele>2325.00</ele>
	<time>2023-08-06T07:08:31.000Z</time>
</trkpt>
<trkpt lat="46.0382930" lon="10.4849770">
	<ele>2325.00</ele>
	<time>2023-08-06T07:08:32.000Z</time>
</trkpt>
<trkpt lat="46.0382930" lon="10.4849780">
	<ele>2324.80</ele>
	<time>2023-08-06T07:08:33.000Z</time>
</trkpt>
<trkpt lat="46.0382920" lon="10.4849780">
	<ele>2324.80</ele>
	<time>2023-08-06T07:08:34.000Z</time>
</trkpt>
<trkpt lat="46.0382900" lon="10.4849790">
	<ele>2324.80</ele>
	<time>2023-08-06T07:08:35.000Z</time>
</trkpt>
<trkpt lat="46.0382870" lon="10.4849800">
	<ele>2324.80</ele>
	<time>2023-08-06T07:08:36.000Z</time>
</trkpt>
<trkpt lat="46.0382860" lon="10.4849810">
	<ele>2324.80</ele>
	<time>2023-08-06T07:08:37.000Z</time>
</trkpt>
<trkpt lat="46.0382850" lon="10.4849810">
	<ele>2324.80</ele>
	<time>2023-08-06T07:08:38.000Z</time>
</trkpt>
<trkpt lat="46.0382840" lon="10.4849810">
	<ele>2324.80</ele>
	<time>2023-08-06T07:08:39.000Z</time>
</trkpt>
<trkpt lat="46.0382860" lon="10.4849790">
	<ele>2324.80</ele>
	<time>2023-08-06T07:08:40.000Z</time>
</trkpt>
<trkpt lat="46.0382900" lon="10.4849740">
	<ele>2324.80</ele>
	<time>2023-08-06T07:08:41.000Z</time>
</trkpt>
<trkpt lat="46.0382960" lon="10.4849690">
	<ele>2324.80</ele>
	<time>2023-08-06T07:08:42.000Z</time>
</trkpt>
<trkpt lat="46.0383020" lon="10.4849650">
	<ele>2324.80</ele>
	<time>2023-08-06T07:08:43.000Z</time>
</trkpt>
<trkpt lat="46.0383080" lon="10.4849620">
	<ele>2324.80</ele>
	<time>2023-08-06T07:08:44.000Z</time>
</trkpt>
<trkpt lat="46.0383140" lon="10.4849570">
	<ele>2324.60</ele>
	<time>2023-08-06T07:08:45.000Z</time>
</trkpt>
<trkpt lat="46.0383210" lon="10.4849510">
	<ele>2324.60</ele>
	<time>2023-08-06T07:08:46.000Z</time>
</trkpt>
<trkpt lat="46.0383300" lon="10.4849460">
	<ele>2324.40</ele>
	<time>2023-08-06T07:08:47.000Z</time>
</trkpt>
<trkpt lat="46.0383330" lon="10.4849370">
	<ele>2324.40</ele>
	<time>2023-08-06T07:08:48.000Z</time>
</trkpt>
<trkpt lat="46.0383380" lon="10.4849300">
	<ele>2324.40</ele>
	<time>2023-08-06T07:08:49.000Z</time>
</trkpt>
<trkpt lat="46.0383460" lon="10.4849270">
	<ele>2324.40</ele>
	<time>2023-08-06T07:08:50.000Z</time>
</trkpt>
<trkpt lat="46.0383530" lon="10.4849230">
	<ele>2324.20</ele>
	<time>2023-08-06T07:08:51.000Z</time>
</trkpt>
<trkpt lat="46.0383640" lon="10.4849200">
	<ele>2324.20</ele>
	<time>2023-08-06T07:08:52.000Z</time>
</trkpt>
<trkpt lat="46.0383740" lon="10.4849180">
	<ele>2324.00</ele>
	<time>2023-08-06T07:08:53.000Z</time>
</trkpt>
<trkpt lat="46.0383820" lon="10.4849160">
	<ele>2324.00</ele>
	<time>2023-08-06T07:08:54.000Z</time>
</trkpt>
<trkpt lat="46.0383880" lon="10.4849130">
	<ele>2323.80</ele>
	<time>2023-08-06T07:08:55.000Z</time>
</trkpt>
<trkpt lat="46.0383970" lon="10.4849080">
	<ele>2323.80</ele>
	<time>2023-08-06T07:08:56.000Z</time>
</trkpt>
<trkpt lat="46.0384050" lon="10.4849020">
	<ele>2323.80</ele>
	<time>2023-08-06T07:08:57.000Z</time>
</trkpt>
<trkpt lat="46.0384150" lon="10.4848950">
	<ele>2324.00</ele>
	<time>2023-08-06T07:08:58.000Z</time>
</trkpt>
<trkpt lat="46.0384210" lon="10.4848870">
	<ele>2324.00</ele>
	<time>2023-08-06T07:08:59.000Z</time>
</trkpt>
<trkpt lat="46.0384300" lon="10.4848770">
	<ele>2324.00</ele>
	<time>2023-08-06T07:09:00.000Z</time>
</trkpt>
<trkpt lat="46.0384430" lon="10.4848700">
	<ele>2324.00</ele>
	<time>2023-08-06T07:09:01.000Z</time>
</trkpt>
<trkpt lat="46.0384520" lon="10.4848650">
	<ele>2324.00</ele>
	<time>2023-08-06T07:09:02.000Z</time>
</trkpt>
<trkpt lat="46.0384640" lon="10.4848570">
	<ele>2324.00</ele>
	<time>2023-08-06T07:09:03.000Z</time>
</trkpt>
<trkpt lat="46.0384710" lon="10.4848510">
	<ele>2324.00</ele>
	<time>2023-08-06T07:09:04.000Z</time>
</trkpt>
<trkpt lat="46.0384750" lon="10.4848470">
	<ele>2324.20</ele>
	<time>2023-08-06T07:09:05.000Z</time>
</trkpt>
<trkpt lat="46.0384800" lon="10.4848400">
	<ele>2324.20</ele>
	<time>2023-08-06T07:09:06.000Z</time>
</trkpt>
<trkpt lat="46.0384870" lon="10.4848390">
	<ele>2324.40</ele>
	<time>2023-08-06T07:09:07.000Z</time>
</trkpt>
<trkpt lat="46.0384930" lon="10.4848420">
	<ele>2324.40</ele>
	<time>2023-08-06T07:09:08.000Z</time>
</trkpt>
<trkpt lat="46.0384950" lon="10.4848460">
	<ele>2324.40</ele>
	<time>2023-08-06T07:09:09.000Z</time>
</trkpt>
<trkpt lat="46.0384970" lon="10.4848550">
	<ele>2324.60</ele>
	<time>2023-08-06T07:09:10.000Z</time>
</trkpt>
<trkpt lat="46.0384960" lon="10.4848640">
	<ele>2324.80</ele>
	<time>2023-08-06T07:09:11.000Z</time>
</trkpt>
<trkpt lat="46.0384970" lon="10.4848710">
	<ele>2325.00</ele>
	<time>2023-08-06T07:09:12.000Z</time>
</trkpt>
<trkpt lat="46.0384970" lon="10.4848790">
	<ele>2325.00</ele>
	<time>2023-08-06T07:09:13.000Z</time>
</trkpt>
<trkpt lat="46.0384990" lon="10.4848840">
	<ele>2325.20</ele>
	<time>2023-08-06T07:09:14.000Z</time>
</trkpt>
<trkpt lat="46.0384980" lon="10.4848910">
	<ele>2325.20</ele>
	<time>2023-08-06T07:09:15.000Z</time>
</trkpt>
<trkpt lat="46.0384950" lon="10.4848970">
	<ele>2325.40</ele>
	<time>2023-08-06T07:09:16.000Z</time>
</trkpt>
<trkpt lat="46.0384940" lon="10.4849030">
	<ele>2325.40</ele>
	<time>2023-08-06T07:09:17.000Z</time>
</trkpt>
<trkpt lat="46.0384910" lon="10.4849100">
	<ele>2325.80</ele>
	<time>2023-08-06T07:09:18.000Z</time>
</trkpt>
<trkpt lat="46.0384890" lon="10.4849140">
	<ele>2326.00</ele>
	<time>2023-08-06T07:09:19.000Z</time>
</trkpt>
<trkpt lat="46.0384860" lon="10.4849230">
	<ele>2326.20</ele>
	<time>2023-08-06T07:09:20.000Z</time>
</trkpt>
<trkpt lat="46.0384810" lon="10.4849340">
	<ele>2326.40</ele>
	<time>2023-08-06T07:09:21.000Z</time>
</trkpt>
<trkpt lat="46.0384790" lon="10.4849400">
	<ele>2326.40</ele>
	<time>2023-08-06T07:09:22.000Z</time>
</trkpt>
<trkpt lat="46.0384800" lon="10.4849460">
	<ele>2326.60</ele>
	<time>2023-08-06T07:09:23.000Z</time>
</trkpt>
<trkpt lat="46.0384800" lon="10.4849520">
	<ele>2326.80</ele>
	<time>2023-08-06T07:09:24.000Z</time>
</trkpt>
<trkpt lat="46.0384810" lon="10.4849600">
	<ele>2327.00</ele>
	<time>2023-08-06T07:09:25.000Z</time>
</trkpt>
<trkpt lat="46.0384810" lon="10.4849670">
	<ele>2327.20</ele>
	<time>2023-08-06T07:09:26.000Z</time>
</trkpt>
<trkpt lat="46.0384810" lon="10.4849750">
	<ele>2327.20</ele>
	<time>2023-08-06T07:09:27.000Z</time>
</trkpt>
<trkpt lat="46.0384790" lon="10.4849820">
	<ele>2327.20</ele>
	<time>2023-08-06T07:09:28.000Z</time>
</trkpt>
<trkpt lat="46.0384760" lon="10.4849880">
	<ele>2327.40</ele>
	<time>2023-08-06T07:09:29.000Z</time>
</trkpt>
<trkpt lat="46.0384730" lon="10.4849930">
	<ele>2327.60</ele>
	<time>2023-08-06T07:09:30.000Z</time>
</trkpt>
<trkpt lat="46.0384690" lon="10.4849960">
	<ele>2327.80</ele>
	<time>2023-08-06T07:09:31.000Z</time>
</trkpt>
<trkpt lat="46.0384680" lon="10.4849990">
	<ele>2328.20</ele>
	<time>2023-08-06T07:09:32.000Z</time>
</trkpt>
<trkpt lat="46.0384650" lon="10.4850010">
	<ele>2328.20</ele>
	<time>2023-08-06T07:09:33.000Z</time>
</trkpt>
<trkpt lat="46.0384600" lon="10.4850030">
	<ele>2328.40</ele>
	<time>2023-08-06T07:09:34.000Z</time>
</trkpt>
<trkpt lat="46.0384570" lon="10.4850040">
	<ele>2328.40</ele>
	<time>2023-08-06T07:09:35.000Z</time>
</trkpt>
<trkpt lat="46.0384540" lon="10.4850000">
	<ele>2328.60</ele>
	<time>2023-08-06T07:09:36.000Z</time>
</trkpt>
<trkpt lat="46.0384530" lon="10.4850060">
	<ele>2329.00</ele>
	<time>2023-08-06T07:09:37.000Z</time>
</trkpt>
<trkpt lat="46.0384530" lon="10.4850110">
	<ele>2329.00</ele>
	<time>2023-08-06T07:09:38.000Z</time>
</trkpt>
<trkpt lat="46.0384520" lon="10.4850140">
	<ele>2329.40</ele>
	<time>2023-08-06T07:09:39.000Z</time>
</trkpt>
<trkpt lat="46.0384510" lon="10.4850180">
	<ele>2329.40</ele>
	<time>2023-08-06T07:09:40.000Z</time>
</trkpt>
<trkpt lat="46.0384490" lon="10.4850220">
	<ele>2329.60</ele>
	<time>2023-08-06T07:09:41.000Z</time>
</trkpt>
<trkpt lat="46.0384480" lon="10.4850250">
	<ele>2329.60</ele>
	<time>2023-08-06T07:09:42.000Z</time>
</trkpt>
<trkpt lat="46.0384460" lon="10.4850290">
	<ele>2329.80</ele>
	<time>2023-08-06T07:09:43.000Z</time>
</trkpt>
<trkpt lat="46.0384430" lon="10.4850350">
	<ele>2330.20</ele>
	<time>2023-08-06T07:09:44.000Z</time>
</trkpt>
<trkpt lat="46.0384410" lon="10.4850400">
	<ele>2330.40</ele>
	<time>2023-08-06T07:09:45.000Z</time>
</trkpt>
<trkpt lat="46.0384420" lon="10.4850420">
	<ele>2330.40</ele>
	<time>2023-08-06T07:09:46.000Z</time>
</trkpt>
<trkpt lat="46.0384380" lon="10.4850480">
	<ele>2330.60</ele>
	<time>2023-08-06T07:09:47.000Z</time>
</trkpt>
<trkpt lat="46.0384340" lon="10.4850480">
	<ele>2330.80</ele>
	<time>2023-08-06T07:09:48.000Z</time>
</trkpt>
<trkpt lat="46.0384280" lon="10.4850440">
	<ele>2330.80</ele>
	<time>2023-08-06T07:09:49.000Z</time>
</trkpt>
<trkpt lat="46.0384260" lon="10.4850430">
	<ele>2331.00</ele>
	<time>2023-08-06T07:09:50.000Z</time>
</trkpt>
<trkpt lat="46.0384240" lon="10.4850430">
	<ele>2331.00</ele>
	<time>2023-08-06T07:09:51.000Z</time>
</trkpt>
<trkpt lat="46.0384220" lon="10.4850470">
	<ele>2331.20</ele>
	<time>2023-08-06T07:09:52.000Z</time>
</trkpt>
<trkpt lat="46.0384190" lon="10.4850490">
	<ele>2331.40</ele>
	<time>2023-08-06T07:09:53.000Z</time>
</trkpt>
<trkpt lat="46.0384180" lon="10.4850520">
	<ele>2331.40</ele>
	<time>2023-08-06T07:09:54.000Z</time>
</trkpt>
<trkpt lat="46.0384150" lon="10.4850560">
	<ele>2331.60</ele>
	<time>2023-08-06T07:09:55.000Z</time>
</trkpt>
<trkpt lat="46.0384130" lon="10.4850590">
	<ele>2331.80</ele>
	<time>2023-08-06T07:09:56.000Z</time>
</trkpt>
<trkpt lat="46.0384120" lon="10.4850620">
	<ele>2332.00</ele>
	<time>2023-08-06T07:09:57.000Z</time>
</trkpt>
<trkpt lat="46.0384130" lon="10.4850640">
	<ele>2332.20</ele>
	<time>2023-08-06T07:09:58.000Z</time>
</trkpt>
<trkpt lat="46.0384130" lon="10.4850660">
	<ele>2332.40</ele>
	<time>2023-08-06T07:09:59.000Z</time>
</trkpt>
<trkpt lat="46.0384120" lon="10.4850740">
	<ele>2332.60</ele>
	<time>2023-08-06T07:10:00.000Z</time>
</trkpt>
<trkpt lat="46.0384100" lon="10.4850840">
	<ele>2332.80</ele>
	<time>2023-08-06T07:10:01.000Z</time>
</trkpt>
<trkpt lat="46.0384050" lon="10.4850930">
	<ele>2332.80</ele>
	<time>2023-08-06T07:10:02.000Z</time>
</trkpt>
<trkpt lat="46.0384010" lon="10.4850950">
	<ele>2333.00</ele>
	<time>2023-08-06T07:10:03.000Z</time>
</trkpt>
<trkpt lat="46.0383970" lon="10.4850970">
	<ele>2333.20</ele>
	<time>2023-08-06T07:10:04.000Z</time>
</trkpt>
<trkpt lat="46.0383930" lon="10.4850980">
	<ele>2333.40</ele>
	<time>2023-08-06T07:10:05.000Z</time>
</trkpt>
<trkpt lat="46.0383900" lon="10.4850990">
	<ele>2333.40</ele>
	<time>2023-08-06T07:10:06.000Z</time>
</trkpt>
<trkpt lat="46.0383860" lon="10.4850990">
	<ele>2333.60</ele>
	<time>2023-08-06T07:10:07.000Z</time>
</trkpt>
<trkpt lat="46.0383830" lon="10.4851000">
	<ele>2333.80</ele>
	<time>2023-08-06T07:10:08.000Z</time>
</trkpt>
<trkpt lat="46.0383810" lon="10.4851020">
	<ele>2333.80</ele>
	<time>2023-08-06T07:10:09.000Z</time>
</trkpt>
<trkpt lat="46.0383830" lon="10.4851060">
	<ele>2333.80</ele>
	<time>2023-08-06T07:10:10.000Z</time>
</trkpt>
<trkpt lat="46.0383850" lon="10.4851100">
	<ele>2334.00</ele>
	<time>2023-08-06T07:10:11.000Z</time>
</trkpt>
<trkpt lat="46.0383860" lon="10.4851140">
	<ele>2334.20</ele>
	<time>2023-08-06T07:10:12.000Z</time>
</trkpt>
<trkpt lat="46.0383870" lon="10.4851210">
	<ele>2334.20</ele>
	<time>2023-08-06T07:10:13.000Z</time>
</trkpt>
<trkpt lat="46.0383860" lon="10.4851280">
	<ele>2334.60</ele>
	<time>2023-08-06T07:10:14.000Z</time>
</trkpt>
<trkpt lat="46.0383830" lon="10.4851330">
	<ele>2334.60</ele>
	<time>2023-08-06T07:10:15.000Z</time>
</trkpt>
<trkpt lat="46.0383810" lon="10.4851360">
	<ele>2334.80</ele>
	<time>2023-08-06T07:10:16.000Z</time>
</trkpt>
<trkpt lat="46.0383800" lon="10.4851380">
	<ele>2335.00</ele>
	<time>2023-08-06T07:10:17.000Z</time>
</trkpt>
<trkpt lat="46.0383800" lon="10.4851370">
	<ele>2335.00</ele>
	<time>2023-08-06T07:10:18.000Z</time>
</trkpt>
<trkpt lat="46.0383810" lon="10.4851400">
	<ele>2335.00</ele>
	<time>2023-08-06T07:10:19.000Z</time>
</trkpt>
<trkpt lat="46.0383830" lon="10.4851480">
	<ele>2335.20</ele>
	<time>2023-08-06T07:10:20.000Z</time>
</trkpt>
<trkpt lat="46.0383820" lon="10.4851540">
	<ele>2335.20</ele>
	<time>2023-08-06T07:10:21.000Z</time>
</trkpt>
<trkpt lat="46.0383790" lon="10.4851590">
	<ele>2335.40</ele>
	<time>2023-08-06T07:10:22.000Z</time>
</trkpt>
<trkpt lat="46.0383760" lon="10.4851640">
	<ele>2335.60</ele>
	<time>2023-08-06T07:10:23.000Z</time>
</trkpt>
<trkpt lat="46.0383730" lon="10.4851700">
	<ele>2335.60</ele>
	<time>2023-08-06T07:10:24.000Z</time>
</trkpt>
<trkpt lat="46.0383680" lon="10.4851770">
	<ele>2335.80</ele>
	<time>2023-08-06T07:10:25.000Z</time>
</trkpt>
<trkpt lat="46.0383650" lon="10.4851820">
	<ele>2336.20</ele>
	<time>2023-08-06T07:10:26.000Z</time>
</trkpt>
<trkpt lat="46.0383650" lon="10.4851840">
	<ele>2336.40</ele>
	<time>2023-08-06T07:10:27.000Z</time>
</trkpt>
<trkpt lat="46.0383650" lon="10.4851880">
	<ele>2336.40</ele>
	<time>2023-08-06T07:10:28.000Z</time>
</trkpt>
<trkpt lat="46.0383630" lon="10.4851900">
	<ele>2336.60</ele>
	<time>2023-08-06T07:10:29.000Z</time>
</trkpt>
<trkpt lat="46.0383610" lon="10.4851940">
	<ele>2336.60</ele>
	<time>2023-08-06T07:10:30.000Z</time>
</trkpt>
<trkpt lat="46.0383590" lon="10.4851950">
	<ele>2336.80</ele>
	<time>2023-08-06T07:10:31.000Z</time>
</trkpt>
<trkpt lat="46.0383570" lon="10.4851960">
	<ele>2337.00</ele>
	<time>2023-08-06T07:10:32.000Z</time>
</trkpt>
<trkpt lat="46.0383540" lon="10.4852030">
	<ele>2337.00</ele>
	<time>2023-08-06T07:10:33.000Z</time>
</trkpt>
<trkpt lat="46.0383510" lon="10.4852080">
	<ele>2337.20</ele>
	<time>2023-08-06T07:10:34.000Z</time>
</trkpt>
<trkpt lat="46.0383490" lon="10.4852120">
	<ele>2337.40</ele>
	<time>2023-08-06T07:10:35.000Z</time>
</trkpt>
<trkpt lat="46.0383470" lon="10.4852190">
	<ele>2337.40</ele>
	<time>2023-08-06T07:10:36.000Z</time>
</trkpt>
<trkpt lat="46.0383440" lon="10.4852240">
	<ele>2337.60</ele>
	<time>2023-08-06T07:10:37.000Z</time>
</trkpt>
<trkpt lat="46.0383430" lon="10.4852290">
	<ele>2337.60</ele>
	<time>2023-08-06T07:10:38.000Z</time>
</trkpt>
<trkpt lat="46.0383390" lon="10.4852350">
	<ele>2337.80</ele>
	<time>2023-08-06T07:10:39.000Z</time>
</trkpt>
<trkpt lat="46.0383350" lon="10.4852380">
	<ele>2338.00</ele>
	<time>2023-08-06T07:10:40.000Z</time>
</trkpt>
<trkpt lat="46.0383320" lon="10.4852400">
	<ele>2338.20</ele>
	<time>2023-08-06T07:10:41.000Z</time>
</trkpt>
<trkpt lat="46.0383290" lon="10.4852430">
	<ele>2338.20</ele>
	<time>2023-08-06T07:10:42.000Z</time>
</trkpt>
<trkpt lat="46.0383220" lon="10.4852460">
	<ele>2338.40</ele>
	<time>2023-08-06T07:10:43.000Z</time>
</trkpt>
<trkpt lat="46.0383160" lon="10.4852500">
	<ele>2338.40</ele>
	<time>2023-08-06T07:10:44.000Z</time>
</trkpt>
<trkpt lat="46.0383150" lon="10.4852540">
	<ele>2338.60</ele>
	<time>2023-08-06T07:10:45.000Z</time>
</trkpt>
<trkpt lat="46.0383120" lon="10.4852500">
	<ele>2338.80</ele>
	<time>2023-08-06T07:10:46.000Z</time>
</trkpt>
<trkpt lat="46.0383100" lon="10.4852500">
	<ele>2338.80</ele>
	<time>2023-08-06T07:10:47.000Z</time>
</trkpt>
<trkpt lat="46.0383090" lon="10.4852530">
	<ele>2339.00</ele>
	<time>2023-08-06T07:10:48.000Z</time>
</trkpt>
<trkpt lat="46.0383060" lon="10.4852560">
	<ele>2339.20</ele>
	<time>2023-08-06T07:10:49.000Z</time>
</trkpt>
<trkpt lat="46.0383030" lon="10.4852600">
	<ele>2339.20</ele>
	<time>2023-08-06T07:10:50.000Z</time>
</trkpt>
<trkpt lat="46.0383020" lon="10.4852630">
	<ele>2339.60</ele>
	<time>2023-08-06T07:10:51.000Z</time>
</trkpt>
<trkpt lat="46.0383000" lon="10.4852660">
	<ele>2339.60</ele>
	<time>2023-08-06T07:10:52.000Z</time>
</trkpt>
<trkpt lat="46.0383010" lon="10.4852710">
	<ele>2339.80</ele>
	<time>2023-08-06T07:10:53.000Z</time>
</trkpt>
<trkpt lat="46.0383000" lon="10.4852780">
	<ele>2340.00</ele>
	<time>2023-08-06T07:10:54.000Z</time>
</trkpt>
<trkpt lat="46.0382970" lon="10.4852840">
	<ele>2340.00</ele>
	<time>2023-08-06T07:10:55.000Z</time>
</trkpt>
<trkpt lat="46.0382950" lon="10.4852870">
	<ele>2340.20</ele>
	<time>2023-08-06T07:10:56.000Z</time>
</trkpt>
<trkpt lat="46.0382900" lon="10.4852870">
	<ele>2340.20</ele>
	<time>2023-08-06T07:10:57.000Z</time>
</trkpt>
<trkpt lat="46.0382830" lon="10.4852880">
	<ele>2340.20</ele>
	<time>2023-08-06T07:10:58.000Z</time>
</trkpt>
<trkpt lat="46.0382780" lon="10.4852880">
	<ele>2340.20</ele>
	<time>2023-08-06T07:10:59.000Z</time>
</trkpt>
<trkpt lat="46.0382730" lon="10.4852900">
	<ele>2340.40</ele>
	<time>2023-08-06T07:11:00.000Z</time>
</trkpt>
<trkpt lat="46.0382700" lon="10.4852910">
	<ele>2340.40</ele>
	<time>2023-08-06T07:11:01.000Z</time>
</trkpt>
<trkpt lat="46.0382660" lon="10.4852930">
	<ele>2340.40</ele>
	<time>2023-08-06T07:11:02.000Z</time>
</trkpt>
<trkpt lat="46.0382610" lon="10.4852980">
	<ele>2340.40</ele>
	<time>2023-08-06T07:11:03.000Z</time>
</trkpt>
<trkpt lat="46.0382570" lon="10.4853010">
	<ele>2340.60</ele>
	<time>2023-08-06T07:11:04.000Z</time>
</trkpt>
<trkpt lat="46.0382560" lon="10.4853040">
	<ele>2340.60</ele>
	<time>2023-08-06T07:11:05.000Z</time>
</trkpt>
<trkpt lat="46.0382550" lon="10.4853120">
	<ele>2340.80</ele>
	<time>2023-08-06T07:11:06.000Z</time>
</trkpt>
<trkpt lat="46.0382540" lon="10.4853160">
	<ele>2341.00</ele>
	<time>2023-08-06T07:11:07.000Z</time>
</trkpt>
<trkpt lat="46.0382490" lon="10.4853250">
	<ele>2341.20</ele>
	<time>2023-08-06T07:11:08.000Z</time>
</trkpt>
<trkpt lat="46.0382460" lon="10.4853300">
	<ele>2341.40</ele>
	<time>2023-08-06T07:11:09.000Z</time>
</trkpt>
<trkpt lat="46.0382430" lon="10.4853330">
	<ele>2341.40</ele>
	<time>2023-08-06T07:11:10.000Z</time>
</trkpt>
<trkpt lat="46.0382420" lon="10.4853310">
	<ele>2341.60</ele>
	<time>2023-08-06T07:11:11.000Z</time>
</trkpt>
<trkpt lat="46.0382410" lon="10.4853330">
	<ele>2341.60</ele>
	<time>2023-08-06T07:11:12.000Z</time>
</trkpt>
<trkpt lat="46.0382390" lon="10.4853390">
	<ele>2341.80</ele>
	<time>2023-08-06T07:11:13.000Z</time>
</trkpt>
<trkpt lat="46.0382340" lon="10.4853470">
	<ele>2341.80</ele>
	<time>2023-08-06T07:11:14.000Z</time>
</trkpt>
<trkpt lat="46.0382300" lon="10.4853540">
	<ele>2342.00</ele>
	<time>2023-08-06T07:11:15.000Z</time>
</trkpt>
<trkpt lat="46.0382290" lon="10.4853590">
	<ele>2342.20</ele>
	<time>2023-08-06T07:11:16.000Z</time>
</trkpt>
<trkpt lat="46.0382260" lon="10.4853640">
	<ele>2342.40</ele>
	<time>2023-08-06T07:11:17.000Z</time>
</trkpt>
<trkpt lat="46.0382230" lon="10.4853670">
	<ele>2342.60</ele>
	<time>2023-08-06T07:11:18.000Z</time>
</trkpt>
<trkpt lat="46.0382160" lon="10.4853690">
	<ele>2342.80</ele>
	<time>2023-08-06T07:11:19.000Z</time>
</trkpt>
<trkpt lat="46.0382090" lon="10.4853700">
	<ele>2342.80</ele>
	<time>2023-08-06T07:11:20.000Z</time>
</trkpt>
<trkpt lat="46.0382040" lon="10.4853730">
	<ele>2342.80</ele>
	<time>2023-08-06T07:11:21.000Z</time>
</trkpt>
<trkpt lat="46.0382010" lon="10.4853740">
	<ele>2343.00</ele>
	<time>2023-08-06T07:11:22.000Z</time>
</trkpt>
<trkpt lat="46.0381970" lon="10.4853750">
	<ele>2343.00</ele>
	<time>2023-08-06T07:11:23.000Z</time>
</trkpt>
<trkpt lat="46.0381960" lon="10.4853770">
	<ele>2343.00</ele>
	<time>2023-08-06T07:11:24.000Z</time>
</trkpt>
<trkpt lat="46.0381940" lon="10.4853800">
	<ele>2343.00</ele>
	<time>2023-08-06T07:11:25.000Z</time>
</trkpt>
<trkpt lat="46.0381890" lon="10.4853810">
	<ele>2343.20</ele>
	<time>2023-08-06T07:11:26.000Z</time>
</trkpt>
<trkpt lat="46.0381840" lon="10.4853790">
	<ele>2343.20</ele>
	<time>2023-08-06T07:11:27.000Z</time>
</trkpt>
<trkpt lat="46.0381800" lon="10.4853780">
	<ele>2343.40</ele>
	<time>2023-08-06T07:11:28.000Z</time>
</trkpt>
<trkpt lat="46.0381760" lon="10.4853790">
	<ele>2343.60</ele>
	<time>2023-08-06T07:11:29.000Z</time>
</trkpt>
<trkpt lat="46.0381740" lon="10.4853820">
	<ele>2343.80</ele>
	<time>2023-08-06T07:11:30.000Z</time>
</trkpt>
<trkpt lat="46.0381730" lon="10.4853830">
	<ele>2343.80</ele>
	<time>2023-08-06T07:11:31.000Z</time>
</trkpt>
<trkpt lat="46.0381720" lon="10.4853840">
	<ele>2344.00</ele>
	<time>2023-08-06T07:11:32.000Z</time>
</trkpt>
<trkpt lat="46.0381660" lon="10.4853840">
	<ele>2344.00</ele>
	<time>2023-08-06T07:11:33.000Z</time>
</trkpt>
<trkpt lat="46.0381600" lon="10.4853880">
	<ele>2344.00</ele>
	<time>2023-08-06T07:11:34.000Z</time>
</trkpt>
<trkpt lat="46.0381570" lon="10.4853880">
	<ele>2344.20</ele>
	<time>2023-08-06T07:11:35.000Z</time>
</trkpt>
<trkpt lat="46.0381540" lon="10.4853880">
	<ele>2344.40</ele>
	<time>2023-08-06T07:11:36.000Z</time>
</trkpt>
<trkpt lat="46.0381480" lon="10.4853900">
	<ele>2344.40</ele>
	<time>2023-08-06T07:11:37.000Z</time>
</trkpt>
<trkpt lat="46.0381450" lon="10.4853940">
	<ele>2344.60</ele>
	<time>2023-08-06T07:11:38.000Z</time>
</trkpt>
<trkpt lat="46.0381380" lon="10.4854000">
	<ele>2344.80</ele>
	<time>2023-08-06T07:11:39.000Z</time>
</trkpt>
<trkpt lat="46.0381340" lon="10.4854020">
	<ele>2344.80</ele>
	<time>2023-08-06T07:11:40.000Z</time>
</trkpt>
<trkpt lat="46.0381300" lon="10.4854040">
	<ele>2345.00</ele>
	<time>2023-08-06T07:11:41.000Z</time>
</trkpt>
<trkpt lat="46.0381260" lon="10.4854060">
	<ele>2345.00</ele>
	<time>2023-08-06T07:11:42.000Z</time>
</trkpt>
<trkpt lat="46.0381200" lon="10.4854110">
	<ele>2345.00</ele>
	<time>2023-08-06T07:11:43.000Z</time>
</trkpt>
<trkpt lat="46.0381150" lon="10.4854140">
	<ele>2345.40</ele>
	<time>2023-08-06T07:11:44.000Z</time>
</trkpt>
<trkpt lat="46.0381120" lon="10.4854150">
	<ele>2345.60</ele>
	<time>2023-08-06T07:11:45.000Z</time>
</trkpt>
<trkpt lat="46.0381080" lon="10.4854130">
	<ele>2345.80</ele>
	<time>2023-08-06T07:11:46.000Z</time>
</trkpt>
<trkpt lat="46.0381060" lon="10.4854130">
	<ele>2345.80</ele>
	<time>2023-08-06T07:11:47.000Z</time>
</trkpt>
<trkpt lat="46.0381030" lon="10.4854160">
	<ele>2346.00</ele>
	<time>2023-08-06T07:11:48.000Z</time>
</trkpt>
<trkpt lat="46.0381060" lon="10.4854250">
	<ele>2346.00</ele>
	<time>2023-08-06T07:11:49.000Z</time>
</trkpt>
<trkpt lat="46.0381060" lon="10.4854300">
	<ele>2346.00</ele>
	<time>2023-08-06T07:11:50.000Z</time>
</trkpt>
<trkpt lat="46.0381030" lon="10.4854360">
	<ele>2346.20</ele>
	<time>2023-08-06T07:11:51.000Z</time>
</trkpt>
<trkpt lat="46.0380980" lon="10.4854380">
	<ele>2346.20</ele>
	<time>2023-08-06T07:11:52.000Z</time>
</trkpt>
<trkpt lat="46.0380920" lon="10.4854340">
	<ele>2346.40</ele>
	<time>2023-08-06T07:11:53.000Z</time>
</trkpt>
<trkpt lat="46.0380840" lon="10.4854320">
	<ele>2346.60</ele>
	<time>2023-08-06T07:11:54.000Z</time>
</trkpt>
<trkpt lat="46.0380780" lon="10.4854310">
	<ele>2346.80</ele>
	<time>2023-08-06T07:11:55.000Z</time>
</trkpt>
<trkpt lat="46.0380770" lon="10.4854330">
	<ele>2346.80</ele>
	<time>2023-08-06T07:11:56.000Z</time>
</trkpt>
<trkpt lat="46.0380770" lon="10.4854340">
	<ele>2347.00</ele>
	<time>2023-08-06T07:11:57.000Z</time>
</trkpt>
<trkpt lat="46.0380770" lon="10.4854340">
	<ele>2347.00</ele>
	<time>2023-08-06T07:11:58.000Z</time>
</trkpt>
<trkpt lat="46.0380770" lon="10.4854340">
	<ele>2347.00</ele>
	<time>2023-08-06T07:11:59.000Z</time>
</trkpt>
<trkpt lat="46.0380770" lon="10.4854340">
	<ele>2347.20</ele>
	<time>2023-08-06T07:12:00.000Z</time>
</trkpt>
<trkpt lat="46.0380770" lon="10.4854340">
	<ele>2347.40</ele>
	<time>2023-08-06T07:12:01.000Z</time>
</trkpt>
<trkpt lat="46.0380770" lon="10.4854340">
	<ele>2347.40</ele>
	<time>2023-08-06T07:12:02.000Z</time>
</trkpt>
<trkpt lat="46.0380770" lon="10.4854340">
	<ele>2347.60</ele>
	<time>2023-08-06T07:12:03.000Z</time>
</trkpt>
<trkpt lat="46.0380770" lon="10.4854340">
	<ele>2347.60</ele>
	<time>2023-08-06T07:12:04.000Z</time>
</trkpt>
<trkpt lat="46.0380770" lon="10.4854340">
	<ele>2347.60</ele>
	<time>2023-08-06T07:12:05.000Z</time>
</trkpt>
<trkpt lat="46.0380770" lon="10.4854340">
	<ele>2347.80</ele>
	<time>2023-08-06T07:12:06.000Z</time>
</trkpt>
<trkpt lat="46.0380770" lon="10.4854340">
	<ele>2348.00</ele>
	<time>2023-08-06T07:12:07.000Z</time>
</trkpt>
<trkpt lat="46.0380770" lon="10.4854340">
	<ele>2348.20</ele>
	<time>2023-08-06T07:12:08.000Z</time>
</trkpt>
<trkpt lat="46.0380770" lon="10.4854340">
	<ele>2348.40</ele>
	<time>2023-08-06T07:12:09.000Z</time>
</trkpt>
<trkpt lat="46.0380770" lon="10.4854340">
	<ele>2348.40</ele>
	<time>2023-08-06T07:12:10.000Z</time>
</trkpt>
<trkpt lat="46.0380770" lon="10.4854340">
	<ele>2348.40</ele>
	<time>2023-08-06T07:12:11.000Z</time>
</trkpt>
<trkpt lat="46.0380770" lon="10.4854340">
	<ele>2348.40</ele>
	<time>2023-08-06T07:12:12.000Z</time>
</trkpt>
<trkpt lat="46.0380740" lon="10.4854340">
	<ele>2348.40</ele>
	<time>2023-08-06T07:12:13.000Z</time>
</trkpt>
<trkpt lat="46.0380700" lon="10.4854340">
	<ele>2348.40</ele>
	<time>2023-08-06T07:12:14.000Z</time>
</trkpt>
<trkpt lat="46.0380670" lon="10.4854340">
	<ele>2348.20</ele>
	<time>2023-08-06T07:12:15.000Z</time>
</trkpt>
<trkpt lat="46.0380640" lon="10.4854340">
	<ele>2348.00</ele>
	<time>2023-08-06T07:12:16.000Z</time>
</trkpt>
<trkpt lat="46.0380590" lon="10.4854340">
	<ele>2348.00</ele>
	<time>2023-08-06T07:12:17.000Z</time>
</trkpt>
<trkpt lat="46.0380570" lon="10.4854350">
	<ele>2347.80</ele>
	<time>2023-08-06T07:12:18.000Z</time>
</trkpt>
<trkpt lat="46.0380530" lon="10.4854350">
	<ele>2347.80</ele>
	<time>2023-08-06T07:12:19.000Z</time>
</trkpt>
<trkpt lat="46.0380510" lon="10.4854350">
	<ele>2347.80</ele>
	<time>2023-08-06T07:12:20.000Z</time>
</trkpt>
<trkpt lat="46.0380510" lon="10.4854340">
	<ele>2347.80</ele>
	<time>2023-08-06T07:12:21.000Z</time>
</trkpt>
<trkpt lat="46.0380510" lon="10.4854340">
	<ele>2347.80</ele>
	<time>2023-08-06T07:12:22.000Z</time>
</trkpt>
<trkpt lat="46.0380510" lon="10.4854340">
	<ele>2347.80</ele>
	<time>2023-08-06T07:12:23.000Z</time>
</trkpt>
<trkpt lat="46.0380510" lon="10.4854340">
	<ele>2347.80</ele>
	<time>2023-08-06T07:12:24.000Z</time>
</trkpt>
<trkpt lat="46.0380510" lon="10.4854340">
	<ele>2347.80</ele>
	<time>2023-08-06T07:12:25.000Z</time>
</trkpt>
<trkpt lat="46.0380500" lon="10.4854340">
	<ele>2347.80</ele>
	<time>2023-08-06T07:12:26.000Z</time>
</trkpt>
<trkpt lat="46.0380500" lon="10.4854330">
	<ele>2347.60</ele>
	<time>2023-08-06T07:12:27.000Z</time>
</trkpt>
<trkpt lat="46.0380500" lon="10.4854330">
	<ele>2347.80</ele>
	<time>2023-08-06T07:12:28.000Z</time>
</trkpt>
<trkpt lat="46.0380500" lon="10.4854330">
	<ele>2347.60</ele>
	<time>2023-08-06T07:12:29.000Z</time>
</trkpt>
<trkpt lat="46.0380500" lon="10.4854330">
	<ele>2347.60</ele>
	<time>2023-08-06T07:12:30.000Z</time>
</trkpt>
<trkpt lat="46.0380500" lon="10.4854300">
	<ele>2347.60</ele>
	<time>2023-08-06T07:12:31.000Z</time>
</trkpt>
<trkpt lat="46.0380500" lon="10.4854260">
	<ele>2347.80</ele>
	<time>2023-08-06T07:12:32.000Z</time>
</trkpt>
<trkpt lat="46.0380500" lon="10.4854190">
	<ele>2347.80</ele>
	<time>2023-08-06T07:12:33.000Z</time>
</trkpt>
<trkpt lat="46.0380500" lon="10.4854110">
	<ele>2347.80</ele>
	<time>2023-08-06T07:12:34.000Z</time>
</trkpt>
<trkpt lat="46.0380510" lon="10.4854060">
	<ele>2347.80</ele>
	<time>2023-08-06T07:12:35.000Z</time>
</trkpt>
<trkpt lat="46.0380510" lon="10.4854040">
	<ele>2347.80</ele>
	<time>2023-08-06T07:12:36.000Z</time>
</trkpt>
<trkpt lat="46.0380510" lon="10.4854030">
	<ele>2347.80</ele>
	<time>2023-08-06T07:12:37.000Z</time>
</trkpt>
<trkpt lat="46.0380520" lon="10.4854020">
	<ele>2348.20</ele>
	<time>2023-08-06T07:12:38.000Z</time>
</trkpt>
<trkpt lat="46.0380530" lon="10.4854010">
	<ele>2348.60</ele>
	<time>2023-08-06T07:12:39.000Z</time>
</trkpt>
<trkpt lat="46.0380530" lon="10.4854010">
	<ele>2348.80</ele>
	<time>2023-08-06T07:12:40.000Z</time>
</trkpt>
<trkpt lat="46.0380530" lon="10.4854010">
	<ele>2349.20</ele>
	<time>2023-08-06T07:12:41.000Z</time>
</trkpt>
<trkpt lat="46.0380530" lon="10.4854010">
	<ele>2349.40</ele>
	<time>2023-08-06T07:12:42.000Z</time>
</trkpt>
<trkpt lat="46.0380540" lon="10.4854010">
	<ele>2349.60</ele>
	<time>2023-08-06T07:12:43.000Z</time>
</trkpt>
<trkpt lat="46.0380550" lon="10.4854010">
	<ele>2349.80</ele>
	<time>2023-08-06T07:12:44.000Z</time>
</trkpt>
<trkpt lat="46.0380570" lon="10.4854010">
	<ele>2350.00</ele>
	<time>2023-08-06T07:12:45.000Z</time>
</trkpt>
<trkpt lat="46.0380570" lon="10.4854010">
	<ele>2350.20</ele>
	<time>2023-08-06T07:12:46.000Z</time>
</trkpt>
<trkpt lat="46.0380620" lon="10.4854010">
	<ele>2350.40</ele>
	<time>2023-08-06T07:12:47.000Z</time>
</trkpt>
<trkpt lat="46.0380680" lon="10.4854010">
	<ele>2350.40</ele>
	<time>2023-08-06T07:12:48.000Z</time>
</trkpt>
<trkpt lat="46.0380720" lon="10.4854010">
	<ele>2350.40</ele>
	<time>2023-08-06T07:12:49.000Z</time>
</trkpt>
<trkpt lat="46.0380770" lon="10.4854010">
	<ele>2350.60</ele>
	<time>2023-08-06T07:12:50.000Z</time>
</trkpt>
<trkpt lat="46.0380830" lon="10.4854010">
	<ele>2350.60</ele>
	<time>2023-08-06T07:12:51.000Z</time>
</trkpt>
<trkpt lat="46.0380860" lon="10.4854010">
	<ele>2350.60</ele>
	<time>2023-08-06T07:12:52.000Z</time>
</trkpt>
<trkpt lat="46.0380900" lon="10.4854010">
	<ele>2350.80</ele>
	<time>2023-08-06T07:12:53.000Z</time>
</trkpt>
<trkpt lat="46.0380930" lon="10.4854010">
	<ele>2351.00</ele>
	<time>2023-08-06T07:12:54.000Z</time>
</trkpt>
<trkpt lat="46.0380980" lon="10.4854030">
	<ele>2351.20</ele>
	<time>2023-08-06T07:12:55.000Z</time>
</trkpt>
<trkpt lat="46.0381030" lon="10.4854070">
	<ele>2351.20</ele>
	<time>2023-08-06T07:12:56.000Z</time>
</trkpt>
<trkpt lat="46.0381100" lon="10.4854140">
	<ele>2351.40</ele>
	<time>2023-08-06T07:12:57.000Z</time>
</trkpt>
<trkpt lat="46.0381150" lon="10.4854190">
	<ele>2351.40</ele>
	<time>2023-08-06T07:12:58.000Z</time>
</trkpt>
<trkpt lat="46.0381190" lon="10.4854220">
	<ele>2351.40</ele>
	<time>2023-08-06T07:12:59.000Z</time>
</trkpt>
<trkpt lat="46.0381240" lon="10.4854220">
	<ele>2351.60</ele>
	<time>2023-08-06T07:13:00.000Z</time>
</trkpt>
<trkpt lat="46.0381270" lon="10.4854230">
	<ele>2351.60</ele>
	<time>2023-08-06T07:13:01.000Z</time>
</trkpt>
<trkpt lat="46.0381320" lon="10.4854240">
	<ele>2351.40</ele>
	<time>2023-08-06T07:13:02.000Z</time>
</trkpt>
<trkpt lat="46.0381360" lon="10.4854240">
	<ele>2351.40</ele>
	<time>2023-08-06T07:13:03.000Z</time>
</trkpt>
<trkpt lat="46.0381370" lon="10.4854250">
	<ele>2351.60</ele>
	<time>2023-08-06T07:13:04.000Z</time>
</trkpt>
<trkpt lat="46.0381380" lon="10.4854260">
	<ele>2351.40</ele>
	<time>2023-08-06T07:13:05.000Z</time>
</trkpt>
<trkpt lat="46.0381390" lon="10.4854260">
	<ele>2351.40</ele>
	<time>2023-08-06T07:13:06.000Z</time>
</trkpt>
<trkpt lat="46.0381400" lon="10.4854260">
	<ele>2351.40</ele>
	<time>2023-08-06T07:13:07.000Z</time>
</trkpt>
<trkpt lat="46.0381410" lon="10.4854270">
	<ele>2351.40</ele>
	<time>2023-08-06T07:13:08.000Z</time>
</trkpt>
<trkpt lat="46.0381410" lon="10.4854270">
	<ele>2351.60</ele>
	<time>2023-08-06T07:13:09.000Z</time>
</trkpt>
<trkpt lat="46.0381410" lon="10.4854270">
	<ele>2351.60</ele>
	<time>2023-08-06T07:13:10.000Z</time>
</trkpt>
<trkpt lat="46.0381410" lon="10.4854280">
	<ele>2351.60</ele>
	<time>2023-08-06T07:13:11.000Z</time>
</trkpt>
<trkpt lat="46.0381410" lon="10.4854280">
	<ele>2351.80</ele>
	<time>2023-08-06T07:13:12.000Z</time>
</trkpt>
<trkpt lat="46.0381410" lon="10.4854280">
	<ele>2352.00</ele>
	<time>2023-08-06T07:13:13.000Z</time>
</trkpt>
<trkpt lat="46.0381410" lon="10.4854290">
	<ele>2352.20</ele>
	<time>2023-08-06T07:13:14.000Z</time>
</trkpt>
<trkpt lat="46.0381410" lon="10.4854290">
	<ele>2352.40</ele>
	<time>2023-08-06T07:13:15.000Z</time>
</trkpt>
<trkpt lat="46.0381410" lon="10.4854290">
	<ele>2352.40</ele>
	<time>2023-08-06T07:13:16.000Z</time>
</trkpt>
<trkpt lat="46.0381410" lon="10.4854320">
	<ele>2352.60</ele>
	<time>2023-08-06T07:13:17.000Z</time>
</trkpt>
<trkpt lat="46.0381410" lon="10.4854380">
	<ele>2352.80</ele>
	<time>2023-08-06T07:13:18.000Z</time>
</trkpt>
<trkpt lat="46.0381410" lon="10.4854460">
	<ele>2353.00</ele>
	<time>2023-08-06T07:13:19.000Z</time>
</trkpt>
<trkpt lat="46.0381410" lon="10.4854520">
	<ele>2353.00</ele>
	<time>2023-08-06T07:13:20.000Z</time>
</trkpt>
<trkpt lat="46.0381410" lon="10.4854570">
	<ele>2353.00</ele>
	<time>2023-08-06T07:13:21.000Z</time>
</trkpt>
<trkpt lat="46.0381410" lon="10.4854610">
	<ele>2353.20</ele>
	<time>2023-08-06T07:13:22.000Z</time>
</trkpt>
<trkpt lat="46.0381410" lon="10.4854660">
	<ele>2353.20</ele>
	<time>2023-08-06T07:13:23.000Z</time>
</trkpt>
<trkpt lat="46.0381410" lon="10.4854720">
	<ele>2353.20</ele>
	<time>2023-08-06T07:13:24.000Z</time>
</trkpt>
<trkpt lat="46.0381410" lon="10.4854770">
	<ele>2353.00</ele>
	<time>2023-08-06T07:13:25.000Z</time>
</trkpt>
<trkpt lat="46.0381390" lon="10.4854820">
	<ele>2353.00</ele>
	<time>2023-08-06T07:13:26.000Z</time>
</trkpt>
<trkpt lat="46.0381370" lon="10.4854890">
	<ele>2353.00</ele>
	<time>2023-08-06T07:13:27.000Z</time>
</trkpt>
<trkpt lat="46.0381330" lon="10.4854980">
	<ele>2352.80</ele>
	<time>2023-08-06T07:13:28.000Z</time>
</trkpt>
<trkpt lat="46.0381300" lon="10.4855060">
	<ele>2352.80</ele>
	<time>2023-08-06T07:13:29.000Z</time>
</trkpt>
<trkpt lat="46.0381280" lon="10.4855120">
	<ele>2352.60</ele>
	<time>2023-08-06T07:13:30.000Z</time>
</trkpt>
<trkpt lat="46.0381280" lon="10.4855190">
	<ele>2352.40</ele>
	<time>2023-08-06T07:13:31.000Z</time>
</trkpt>
<trkpt lat="46.0381270" lon="10.4855240">
	<ele>2352.40</ele>
	<time>2023-08-06T07:13:32.000Z</time>
</trkpt>
<trkpt lat="46.0381270" lon="10.4855260">
	<ele>2352.40</ele>
	<time>2023-08-06T07:13:33.000Z</time>
</trkpt>
<trkpt lat="46.0381270" lon="10.4855280">
	<ele>2352.20</ele>
	<time>2023-08-06T07:13:34.000Z</time>
</trkpt>
<trkpt lat="46.0381270" lon="10.4855290">
	<ele>2352.20</ele>
	<time>2023-08-06T07:13:35.000Z</time>
</trkpt>
<trkpt lat="46.0381270" lon="10.4855290">
	<ele>2352.20</ele>
	<time>2023-08-06T07:13:36.000Z</time>
</trkpt>
<trkpt lat="46.0381270" lon="10.4855300">
	<ele>2352.20</ele>
	<time>2023-08-06T07:13:37.000Z</time>
</trkpt>
<trkpt lat="46.0381260" lon="10.4855300">
	<ele>2352.20</ele>
	<time>2023-08-06T07:13:38.000Z</time>
</trkpt>
<trkpt lat="46.0381250" lon="10.4855300">
	<ele>2352.00</ele>
	<time>2023-08-06T07:13:39.000Z</time>
</trkpt>
<trkpt lat="46.0381240" lon="10.4855310">
	<ele>2352.20</ele>
	<time>2023-08-06T07:13:40.000Z</time>
</trkpt>
<trkpt lat="46.0381240" lon="10.4855310">
	<ele>2352.20</ele>
	<time>2023-08-06T07:13:41.000Z</time>
</trkpt>
<trkpt lat="46.0381230" lon="10.4855320">
	<ele>2352.20</ele>
	<time>2023-08-06T07:13:42.000Z</time>
</trkpt>
<trkpt lat="46.0381230" lon="10.4855320">
	<ele>2352.40</ele>
	<time>2023-08-06T07:13:43.000Z</time>
</trkpt>
<trkpt lat="46.0381230" lon="10.4855330">
	<ele>2352.40</ele>
	<time>2023-08-06T07:13:44.000Z</time>
</trkpt>
<trkpt lat="46.0381220" lon="10.4855330">
	<ele>2352.60</ele>
	<time>2023-08-06T07:13:45.000Z</time>
</trkpt>
<trkpt lat="46.0381220" lon="10.4855340">
	<ele>2352.60</ele>
	<time>2023-08-06T07:13:46.000Z</time>
</trkpt>
<trkpt lat="46.0381210" lon="10.4855340">
	<ele>2352.60</ele>
	<time>2023-08-06T07:13:47.000Z</time>
</trkpt>
<trkpt lat="46.0381210" lon="10.4855340">
	<ele>2352.60</ele>
	<time>2023-08-06T07:13:48.000Z</time>
</trkpt>
<trkpt lat="46.0381210" lon="10.4855340">
	<ele>2352.60</ele>
	<time>2023-08-06T07:13:49.000Z</time>
</trkpt>
<trkpt lat="46.0381210" lon="10.4855350">
	<ele>2352.60</ele>
	<time>2023-08-06T07:13:50.000Z</time>
</trkpt>
<trkpt lat="46.0381210" lon="10.4855350">
	<ele>2352.60</ele>
	<time>2023-08-06T07:13:51.000Z</time>
</trkpt>
<trkpt lat="46.0381210" lon="10.4855350">
	<ele>2352.60</ele>
	<time>2023-08-06T07:13:52.000Z</time>
</trkpt>
<trkpt lat="46.0381210" lon="10.4855350">
	<ele>2352.80</ele>
	<time>2023-08-06T07:13:53.000Z</time>
</trkpt>
<trkpt lat="46.0381210" lon="10.4855360">
	<ele>2352.60</ele>
	<time>2023-08-06T07:13:54.000Z</time>
</trkpt>
<trkpt lat="46.0381210" lon="10.4855370">
	<ele>2352.60</ele>
	<time>2023-08-06T07:13:55.000Z</time>
</trkpt>
<trkpt lat="46.0381210" lon="10.4855380">
	<ele>2352.60</ele>
	<time>2023-08-06T07:13:56.000Z</time>
</trkpt>
<trkpt lat="46.0381210" lon="10.4855400">
	<ele>2352.60</ele>
	<time>2023-08-06T07:13:57.000Z</time>
</trkpt>
<trkpt lat="46.0381210" lon="10.4855410">
	<ele>2352.60</ele>
	<time>2023-08-06T07:13:58.000Z</time>
</trkpt>
<trkpt lat="46.0381210" lon="10.4855410">
	<ele>2352.60</ele>
	<time>2023-08-06T07:13:59.000Z</time>
</trkpt>
<trkpt lat="46.0381210" lon="10.4855420">
	<ele>2352.60</ele>
	<time>2023-08-06T07:14:00.000Z</time>
</trkpt>
<trkpt lat="46.0381210" lon="10.4855420">
	<ele>2352.60</ele>
	<time>2023-08-06T07:14:01.000Z</time>
</trkpt>
<trkpt lat="46.0381210" lon="10.4855420">
	<ele>2352.60</ele>
	<time>2023-08-06T07:14:02.000Z</time>
</trkpt>
<trkpt lat="46.0381210" lon="10.4855430">
	<ele>2352.60</ele>
	<time>2023-08-06T07:14:03.000Z</time>
</trkpt>
<trkpt lat="46.0381210" lon="10.4855430">
	<ele>2352.40</ele>
	<time>2023-08-06T07:14:04.000Z</time>
</trkpt>
<trkpt lat="46.0381220" lon="10.4855430">
	<ele>2352.40</ele>
	<time>2023-08-06T07:14:05.000Z</time>
</trkpt>
<trkpt lat="46.0381220" lon="10.4855430">
	<ele>2352.40</ele>
	<time>2023-08-06T07:14:06.000Z</time>
</trkpt>
<trkpt lat="46.0381220" lon="10.4855430">
	<ele>2352.20</ele>
	<time>2023-08-06T07:14:07.000Z</time>
</trkpt>
<trkpt lat="46.0381220" lon="10.4855430">
	<ele>2352.20</ele>
	<time>2023-08-06T07:14:08.000Z</time>
</trkpt>
<trkpt lat="46.0381220" lon="10.4855430">
	<ele>2352.20</ele>
	<time>2023-08-06T07:14:09.000Z</time>
</trkpt>
<trkpt lat="46.0381220" lon="10.4855430">
	<ele>2352.40</ele>
	<time>2023-08-06T07:14:10.000Z</time>
</trkpt>
<trkpt lat="46.0381220" lon="10.4855440">
	<ele>2352.20</ele>
	<time>2023-08-06T07:14:11.000Z</time>
</trkpt>
<trkpt lat="46.0381230" lon="10.4855440">
	<ele>2352.20</ele>
	<time>2023-08-06T07:14:12.000Z</time>
</trkpt>
<trkpt lat="46.0381230" lon="10.4855440">
	<ele>2352.20</ele>
	<time>2023-08-06T07:14:13.000Z</time>
</trkpt>
<trkpt lat="46.0381230" lon="10.4855440">
	<ele>2352.20</ele>
	<time>2023-08-06T07:14:14.000Z</time>
</trkpt>
<trkpt lat="46.0381230" lon="10.4855440">
	<ele>2352.20</ele>
	<time>2023-08-06T07:14:15.000Z</time>
</trkpt>
<trkpt lat="46.0381230" lon="10.4855440">
	<ele>2352.00</ele>
	<time>2023-08-06T07:14:16.000Z</time>
</trkpt>
<trkpt lat="46.0381230" lon="10.4855440">
	<ele>2352.00</ele>
	<time>2023-08-06T07:14:17.000Z</time>
</trkpt>
<trkpt lat="46.0381230" lon="10.4855440">
	<ele>2351.80</ele>
	<time>2023-08-06T07:14:18.000Z</time>
</trkpt>
<trkpt lat="46.0381230" lon="10.4855450">
	<ele>2351.80</ele>
	<time>2023-08-06T07:14:19.000Z</time>
</trkpt>
<trkpt lat="46.0381230" lon="10.4855450">
	<ele>2351.80</ele>
	<time>2023-08-06T07:14:20.000Z</time>
</trkpt>
<trkpt lat="46.0381230" lon="10.4855450">
	<ele>2352.00</ele>
	<time>2023-08-06T07:14:21.000Z</time>
</trkpt>
<trkpt lat="46.0381230" lon="10.4855460">
	<ele>2352.00</ele>
	<time>2023-08-06T07:14:22.000Z</time>
</trkpt>
<trkpt lat="46.0381230" lon="10.4855460">
	<ele>2352.00</ele>
	<time>2023-08-06T07:14:23.000Z</time>
</trkpt>
<trkpt lat="46.0381230" lon="10.4855470">
	<ele>2352.00</ele>
	<time>2023-08-06T07:14:24.000Z</time>
</trkpt>
<trkpt lat="46.0381230" lon="10.4855470">
	<ele>2352.00</ele>
	<time>2023-08-06T07:14:25.000Z</time>
</trkpt>
<trkpt lat="46.0381230" lon="10.4855480">
	<ele>2352.00</ele>
	<time>2023-08-06T07:14:26.000Z</time>
</trkpt>
<trkpt lat="46.0381230" lon="10.4855490">
	<ele>2352.00</ele>
	<time>2023-08-06T07:14:27.000Z</time>
</trkpt>
<trkpt lat="46.0381230" lon="10.4855500">
	<ele>2352.00</ele>
	<time>2023-08-06T07:14:28.000Z</time>
</trkpt>
<trkpt lat="46.0381230" lon="10.4855510">
	<ele>2352.00</ele>
	<time>2023-08-06T07:14:29.000Z</time>
</trkpt>
<trkpt lat="46.0381230" lon="10.4855520">
	<ele>2352.00</ele>
	<time>2023-08-06T07:14:30.000Z</time>
</trkpt>
<trkpt lat="46.0381230" lon="10.4855530">
	<ele>2352.00</ele>
	<time>2023-08-06T07:14:31.000Z</time>
</trkpt>
<trkpt lat="46.0381230" lon="10.4855530">
	<ele>2352.00</ele>
	<time>2023-08-06T07:14:32.000Z</time>
</trkpt>
<trkpt lat="46.0381240" lon="10.4855540">
	<ele>2352.00</ele>
	<time>2023-08-06T07:14:33.000Z</time>
</trkpt>
<trkpt lat="46.0381240" lon="10.4855540">
	<ele>2352.00</ele>
	<time>2023-08-06T07:14:34.000Z</time>
</trkpt>
<trkpt lat="46.0381240" lon="10.4855540">
	<ele>2352.00</ele>
	<time>2023-08-06T07:14:35.000Z</time>
</trkpt>
<trkpt lat="46.0381240" lon="10.4855550">
	<ele>2352.00</ele>
	<time>2023-08-06T07:14:36.000Z</time>
</trkpt>
<trkpt lat="46.0381240" lon="10.4855550">
	<ele>2351.80</ele>
	<time>2023-08-06T07:14:37.000Z</time>
</trkpt>
<trkpt lat="46.0381250" lon="10.4855550">
	<ele>2351.80</ele>
	<time>2023-08-06T07:14:38.000Z</time>
</trkpt>
<trkpt lat="46.0381250" lon="10.4855550">
	<ele>2351.80</ele>
	<time>2023-08-06T07:14:39.000Z</time>
</trkpt>
<trkpt lat="46.0381250" lon="10.4855550">
	<ele>2351.60</ele>
	<time>2023-08-06T07:14:40.000Z</time>
</trkpt>
<trkpt lat="46.0381250" lon="10.4855560">
	<ele>2351.60</ele>
	<time>2023-08-06T07:14:41.000Z</time>
</trkpt>
<trkpt lat="46.0381260" lon="10.4855560">
	<ele>2351.60</ele>
	<time>2023-08-06T07:14:42.000Z</time>
</trkpt>
<trkpt lat="46.0381260" lon="10.4855560">
	<ele>2351.60</ele>
	<time>2023-08-06T07:14:43.000Z</time>
</trkpt>
<trkpt lat="46.0381260" lon="10.4855560">
	<ele>2351.60</ele>
	<time>2023-08-06T07:14:44.000Z</time>
</trkpt>
<trkpt lat="46.0381260" lon="10.4855560">
	<ele>2351.60</ele>
	<time>2023-08-06T07:14:45.000Z</time>
</trkpt>
<trkpt lat="46.0381260" lon="10.4855560">
	<ele>2351.60</ele>
	<time>2023-08-06T07:14:46.000Z</time>
</trkpt>
<trkpt lat="46.0381260" lon="10.4855560">
	<ele>2351.60</ele>
	<time>2023-08-06T07:14:47.000Z</time>
</trkpt>
<trkpt lat="46.0381260" lon="10.4855560">
	<ele>2351.60</ele>
	<time>2023-08-06T07:14:48.000Z</time>
</trkpt>
<trkpt lat="46.0381260" lon="10.4855570">
	<ele>2351.60</ele>
	<time>2023-08-06T07:14:49.000Z</time>
</trkpt>
<trkpt lat="46.0381260" lon="10.4855570">
	<ele>2351.60</ele>
	<time>2023-08-06T07:14:50.000Z</time>
</trkpt>
<trkpt lat="46.0381260" lon="10.4855570">
	<ele>2351.60</ele>
	<time>2023-08-06T07:14:51.000Z</time>
</trkpt>
<trkpt lat="46.0381260" lon="10.4855570">
	<ele>2351.60</ele>
	<time>2023-08-06T07:14:52.000Z</time>
</trkpt>
<trkpt lat="46.0381260" lon="10.4855570">
	<ele>2351.60</ele>
	<time>2023-08-06T07:14:53.000Z</time>
</trkpt>
<trkpt lat="46.0381260" lon="10.4855570">
	<ele>2351.60</ele>
	<time>2023-08-06T07:14:54.000Z</time>
</trkpt>
<trkpt lat="46.0381260" lon="10.4855580">
	<ele>2351.60</ele>
	<time>2023-08-06T07:14:55.000Z</time>
</trkpt>
<trkpt lat="46.0381260" lon="10.4855590">
	<ele>2351.60</ele>
	<time>2023-08-06T07:14:56.000Z</time>
</trkpt>
<trkpt lat="46.0381270" lon="10.4855590">
	<ele>2351.60</ele>
	<time>2023-08-06T07:14:57.000Z</time>
</trkpt>
<trkpt lat="46.0381270" lon="10.4855600">
	<ele>2351.40</ele>
	<time>2023-08-06T07:14:58.000Z</time>
</trkpt>
<trkpt lat="46.0381270" lon="10.4855610">
	<ele>2351.40</ele>
	<time>2023-08-06T07:14:59.000Z</time>
</trkpt>
<trkpt lat="46.0381270" lon="10.4855610">
	<ele>2351.40</ele>
	<time>2023-08-06T07:15:00.000Z</time>
</trkpt>
<trkpt lat="46.0381270" lon="10.4855620">
	<ele>2351.40</ele>
	<time>2023-08-06T07:15:01.000Z</time>
</trkpt>
<trkpt lat="46.0381270" lon="10.4855620">
	<ele>2351.40</ele>
	<time>2023-08-06T07:15:02.000Z</time>
</trkpt>
<trkpt lat="46.0381270" lon="10.4855630">
	<ele>2351.40</ele>
	<time>2023-08-06T07:15:03.000Z</time>
</trkpt>
<trkpt lat="46.0381280" lon="10.4855630">
	<ele>2351.40</ele>
	<time>2023-08-06T07:15:04.000Z</time>
</trkpt>
<trkpt lat="46.0381280" lon="10.4855640">
	<ele>2351.40</ele>
	<time>2023-08-06T07:15:05.000Z</time>
</trkpt>
<trkpt lat="46.0381280" lon="10.4855640">
	<ele>2351.40</ele>
	<time>2023-08-06T07:15:06.000Z</time>
</trkpt>
<trkpt lat="46.0381280" lon="10.4855640">
	<ele>2351.60</ele>
	<time>2023-08-06T07:15:07.000Z</time>
</trkpt>
<trkpt lat="46.0381280" lon="10.4855650">
	<ele>2351.60</ele>
	<time>2023-08-06T07:15:08.000Z</time>
</trkpt>
<trkpt lat="46.0381290" lon="10.4855650">
	<ele>2351.40</ele>
	<time>2023-08-06T07:15:09.000Z</time>
</trkpt>
<trkpt lat="46.0381290" lon="10.4855650">
	<ele>2351.40</ele>
	<time>2023-08-06T07:15:10.000Z</time>
</trkpt>
<trkpt lat="46.0381290" lon="10.4855660">
	<ele>2351.40</ele>
	<time>2023-08-06T07:15:11.000Z</time>
</trkpt>
<trkpt lat="46.0381290" lon="10.4855660">
	<ele>2351.20</ele>
	<time>2023-08-06T07:15:12.000Z</time>
</trkpt>
<trkpt lat="46.0381290" lon="10.4855660">
	<ele>2351.00</ele>
	<time>2023-08-06T07:15:13.000Z</time>
</trkpt>
<trkpt lat="46.0381290" lon="10.4855660">
	<ele>2351.00</ele>
	<time>2023-08-06T07:15:14.000Z</time>
</trkpt>
<trkpt lat="46.0381290" lon="10.4855660">
	<ele>2351.00</ele>
	<time>2023-08-06T07:15:15.000Z</time>
</trkpt>
<trkpt lat="46.0381290" lon="10.4855660">
	<ele>2351.00</ele>
	<time>2023-08-06T07:15:16.000Z</time>
</trkpt>
<trkpt lat="46.0381300" lon="10.4855670">
	<ele>2350.80</ele>
	<time>2023-08-06T07:15:17.000Z</time>
</trkpt>
<trkpt lat="46.0381290" lon="10.4855660">
	<ele>2351.00</ele>
	<time>2023-08-06T07:15:18.000Z</time>
</trkpt>
<trkpt lat="46.0381290" lon="10.4855660">
	<ele>2351.00</ele>
	<time>2023-08-06T07:15:19.000Z</time>
</trkpt>
<trkpt lat="46.0381290" lon="10.4855660">
	<ele>2350.80</ele>
	<time>2023-08-06T07:15:20.000Z</time>
</trkpt>
<trkpt lat="46.0381290" lon="10.4855660">
	<ele>2350.80</ele>
	<time>2023-08-06T07:15:21.000Z</time>
</trkpt>
<trkpt lat="46.0381290" lon="10.4855660">
	<ele>2350.80</ele>
	<time>2023-08-06T07:15:22.000Z</time>
</trkpt>
<trkpt lat="46.0381290" lon="10.4855660">
	<ele>2351.00</ele>
	<time>2023-08-06T07:15:23.000Z</time>
</trkpt>
<trkpt lat="46.0381290" lon="10.4855660">
	<ele>2351.00</ele>
	<time>2023-08-06T07:15:24.000Z</time>
</trkpt>
<trkpt lat="46.0381290" lon="10.4855660">
	<ele>2351.00</ele>
	<time>2023-08-06T07:15:25.000Z</time>
</trkpt>
<trkpt lat="46.0381290" lon="10.4855660">
	<ele>2350.80</ele>
	<time>2023-08-06T07:15:26.000Z</time>
</trkpt>
<trkpt lat="46.0381290" lon="10.4855660">
	<ele>2350.80</ele>
	<time>2023-08-06T07:15:27.000Z</time>
</trkpt>
<trkpt lat="46.0381290" lon="10.4855660">
	<ele>2350.80</ele>
	<time>2023-08-06T07:15:28.000Z</time>
</trkpt>
<trkpt lat="46.0381290" lon="10.4855660">
	<ele>2350.80</ele>
	<time>2023-08-06T07:15:29.000Z</time>
</trkpt>
<trkpt lat="46.0381280" lon="10.4855660">
	<ele>2350.80</ele>
	<time>2023-08-06T07:15:30.000Z</time>
</trkpt>
<trkpt lat="46.0381280" lon="10.4855650">
	<ele>2350.80</ele>
	<time>2023-08-06T07:15:31.000Z</time>
</trkpt>
<trkpt lat="46.0381280" lon="10.4855650">
	<ele>2350.80</ele>
	<time>2023-08-06T07:15:32.000Z</time>
</trkpt>
<trkpt lat="46.0381280" lon="10.4855650">
	<ele>2350.80</ele>
	<time>2023-08-06T07:15:33.000Z</time>
</trkpt>
<trkpt lat="46.0381280" lon="10.4855650">
	<ele>2351.00</ele>
	<time>2023-08-06T07:15:34.000Z</time>
</trkpt>
<trkpt lat="46.0381280" lon="10.4855650">
	<ele>2351.00</ele>
	<time>2023-08-06T07:15:35.000Z</time>
</trkpt>
<trkpt lat="46.0381280" lon="10.4855650">
	<ele>2350.80</ele>
	<time>2023-08-06T07:15:36.000Z</time>
</trkpt>
<trkpt lat="46.0381280" lon="10.4855650">
	<ele>2350.80</ele>
	<time>2023-08-06T07:15:37.000Z</time>
</trkpt>
<trkpt lat="46.0381280" lon="10.4855650">
	<ele>2350.80</ele>
	<time>2023-08-06T07:15:38.000Z</time>
</trkpt>
<trkpt lat="46.0381280" lon="10.4855650">
	<ele>2350.60</ele>
	<time>2023-08-06T07:15:39.000Z</time>
</trkpt>
<trkpt lat="46.0381280" lon="10.4855650">
	<ele>2350.60</ele>
	<time>2023-08-06T07:15:40.000Z</time>
</trkpt>
<trkpt lat="46.0381280" lon="10.4855650">
	<ele>2350.60</ele>
	<time>2023-08-06T07:15:41.000Z</time>
</trkpt>
<trkpt lat="46.0381280" lon="10.4855650">
	<ele>2350.40</ele>
	<time>2023-08-06T07:15:42.000Z</time>
</trkpt>
<trkpt lat="46.0381280" lon="10.4855650">
	<ele>2350.40</ele>
	<time>2023-08-06T07:15:43.000Z</time>
</trkpt>
<trkpt lat="46.0381280" lon="10.4855650">
	<ele>2350.20</ele>
	<time>2023-08-06T07:15:44.000Z</time>
</trkpt>
<trkpt lat="46.0381280" lon="10.4855650">
	<ele>2350.20</ele>
	<time>2023-08-06T07:15:45.000Z</time>
</trkpt>
<trkpt lat="46.0381280" lon="10.4855650">
	<ele>2350.20</ele>
	<time>2023-08-06T07:15:46.000Z</time>
</trkpt>
<trkpt lat="46.0381270" lon="10.4855650">
	<ele>2350.00</ele>
	<time>2023-08-06T07:15:47.000Z</time>
</trkpt>
<trkpt lat="46.0381270" lon="10.4855650">
	<ele>2350.00</ele>
	<time>2023-08-06T07:15:48.000Z</time>
</trkpt>
<trkpt lat="46.0381270" lon="10.4855650">
	<ele>2350.20</ele>
	<time>2023-08-06T07:15:49.000Z</time>
</trkpt>
<trkpt lat="46.0381270" lon="10.4855650">
	<ele>2350.20</ele>
	<time>2023-08-06T07:15:50.000Z</time>
</trkpt>
<trkpt lat="46.0381270" lon="10.4855650">
	<ele>2350.20</ele>
	<time>2023-08-06T07:15:51.000Z</time>
</trkpt>
<trkpt lat="46.0381270" lon="10.4855650">
	<ele>2350.20</ele>
	<time>2023-08-06T07:15:52.000Z</time>
</trkpt>
<trkpt lat="46.0381270" lon="10.4855650">
	<ele>2350.20</ele>
	<time>2023-08-06T07:15:53.000Z</time>
</trkpt>
<trkpt lat="46.0381270" lon="10.4855650">
	<ele>2350.40</ele>
	<time>2023-08-06T07:15:54.000Z</time>
</trkpt>
<trkpt lat="46.0381270" lon="10.4855640">
	<ele>2350.40</ele>
	<time>2023-08-06T07:15:55.000Z</time>
</trkpt>
<trkpt lat="46.0381270" lon="10.4855640">
	<ele>2350.40</ele>
	<time>2023-08-06T07:15:56.000Z</time>
</trkpt>
<trkpt lat="46.0381270" lon="10.4855640">
	<ele>2350.40</ele>
	<time>2023-08-06T07:15:57.000Z</time>
</trkpt>
<trkpt lat="46.0381270" lon="10.4855640">
	<ele>2350.40</ele>
	<time>2023-08-06T07:15:58.000Z</time>
</trkpt>
<trkpt lat="46.0381270" lon="10.4855640">
	<ele>2350.40</ele>
	<time>2023-08-06T07:15:59.000Z</time>
</trkpt>
<trkpt lat="46.0381270" lon="10.4855640">
	<ele>2350.40</ele>
	<time>2023-08-06T07:16:00.000Z</time>
</trkpt>
<trkpt lat="46.0381270" lon="10.4855640">
	<ele>2350.40</ele>
	<time>2023-08-06T07:16:01.000Z</time>
</trkpt>
<trkpt lat="46.0381270" lon="10.4855640">
	<ele>2350.40</ele>
	<time>2023-08-06T07:16:02.000Z</time>
</trkpt>
<trkpt lat="46.0381260" lon="10.4855640">
	<ele>2350.40</ele>
	<time>2023-08-06T07:16:03.000Z</time>
</trkpt>
<trkpt lat="46.0381260" lon="10.4855640">
	<ele>2350.40</ele>
	<time>2023-08-06T07:16:04.000Z</time>
</trkpt>
<trkpt lat="46.0381260" lon="10.4855640">
	<ele>2350.40</ele>
	<time>2023-08-06T07:16:05.000Z</time>
</trkpt>
<trkpt lat="46.0381260" lon="10.4855640">
	<ele>2350.40</ele>
	<time>2023-08-06T07:16:06.000Z</time>
</trkpt>
<trkpt lat="46.0381260" lon="10.4855640">
	<ele>2350.40</ele>
	<time>2023-08-06T07:16:07.000Z</time>
</trkpt>
<trkpt lat="46.0381260" lon="10.4855640">
	<ele>2350.20</ele>
	<time>2023-08-06T07:16:08.000Z</time>
</trkpt>
<trkpt lat="46.0381260" lon="10.4855640">
	<ele>2350.00</ele>
	<time>2023-08-06T07:16:09.000Z</time>
</trkpt>
<trkpt lat="46.0381260" lon="10.4855640">
	<ele>2350.00</ele>
	<time>2023-08-06T07:16:10.000Z</time>
</trkpt>
<trkpt lat="46.0381260" lon="10.4855640">
	<ele>2349.80</ele>
	<time>2023-08-06T07:16:11.000Z</time>
</trkpt>
<trkpt lat="46.0381260" lon="10.4855630">
	<ele>2349.80</ele>
	<time>2023-08-06T07:16:12.000Z</time>
</trkpt>
<trkpt lat="46.0381260" lon="10.4855630">
	<ele>2349.80</ele>
	<time>2023-08-06T07:16:13.000Z</time>
</trkpt>
<trkpt lat="46.0381260" lon="10.4855630">
	<ele>2349.80</ele>
	<time>2023-08-06T07:16:14.000Z</time>
</trkpt>
<trkpt lat="46.0381250" lon="10.4855630">
	<ele>2349.80</ele>
	<time>2023-08-06T07:16:15.000Z</time>
</trkpt>
<trkpt lat="46.0381250" lon="10.4855630">
	<ele>2349.80</ele>
	<time>2023-08-06T07:16:16.000Z</time>
</trkpt>
<trkpt lat="46.0381250" lon="10.4855630">
	<ele>2349.80</ele>
	<time>2023-08-06T07:16:17.000Z</time>
</trkpt>
<trkpt lat="46.0381250" lon="10.4855630">
	<ele>2349.80</ele>
	<time>2023-08-06T07:16:18.000Z</time>
</trkpt>
<trkpt lat="46.0381250" lon="10.4855630">
	<ele>2349.80</ele>
	<time>2023-08-06T07:16:19.000Z</time>
</trkpt>
<trkpt lat="46.0381250" lon="10.4855630">
	<ele>2349.80</ele>
	<time>2023-08-06T07:16:20.000Z</time>
</trkpt>
<trkpt lat="46.0381250" lon="10.4855630">
	<ele>2350.00</ele>
	<time>2023-08-06T07:16:21.000Z</time>
</trkpt>
<trkpt lat="46.0381250" lon="10.4855630">
	<ele>2350.00</ele>
	<time>2023-08-06T07:16:22.000Z</time>
</trkpt>
<trkpt lat="46.0381250" lon="10.4855630">
	<ele>2350.00</ele>
	<time>2023-08-06T07:16:23.000Z</time>
</trkpt>
<trkpt lat="46.0381250" lon="10.4855620">
	<ele>2350.00</ele>
	<time>2023-08-06T07:16:24.000Z</time>
</trkpt>
<trkpt lat="46.0381250" lon="10.4855620">
	<ele>2350.00</ele>
	<time>2023-08-06T07:16:25.000Z</time>
</trkpt>
<trkpt lat="46.0381240" lon="10.4855620">
	<ele>2350.20</ele>
	<time>2023-08-06T07:16:26.000Z</time>
</trkpt>
<trkpt lat="46.0381240" lon="10.4855620">
	<ele>2350.20</ele>
	<time>2023-08-06T07:16:27.000Z</time>
</trkpt>
<trkpt lat="46.0381240" lon="10.4855620">
	<ele>2350.20</ele>
	<time>2023-08-06T07:16:28.000Z</time>
</trkpt>
<trkpt lat="46.0381240" lon="10.4855620">
	<ele>2350.20</ele>
	<time>2023-08-06T07:16:29.000Z</time>
</trkpt>
<trkpt lat="46.0381240" lon="10.4855620">
	<ele>2350.20</ele>
	<time>2023-08-06T07:16:30.000Z</time>
</trkpt>
<trkpt lat="46.0381240" lon="10.4855620">
	<ele>2350.00</ele>
	<time>2023-08-06T07:16:31.000Z</time>
</trkpt>
<trkpt lat="46.0381240" lon="10.4855620">
	<ele>2350.00</ele>
	<time>2023-08-06T07:16:32.000Z</time>
</trkpt>
<trkpt lat="46.0381240" lon="10.4855620">
	<ele>2350.00</ele>
	<time>2023-08-06T07:16:33.000Z</time>
</trkpt>
<trkpt lat="46.0381240" lon="10.4855620">
	<ele>2350.00</ele>
	<time>2023-08-06T07:16:34.000Z</time>
</trkpt>
<trkpt lat="46.0381240" lon="10.4855620">
	<ele>2350.00</ele>
	<time>2023-08-06T07:16:35.000Z</time>
</trkpt>
<trkpt lat="46.0381240" lon="10.4855620">
	<ele>2350.00</ele>
	<time>2023-08-06T07:16:36.000Z</time>
</trkpt>
<trkpt lat="46.0381240" lon="10.4855620">
	<ele>2350.00</ele>
	<time>2023-08-06T07:16:37.000Z</time>
</trkpt>
<trkpt lat="46.0381240" lon="10.4855620">
	<ele>2350.00</ele>
	<time>2023-08-06T07:16:38.000Z</time>
</trkpt>
<trkpt lat="46.0381240" lon="10.4855620">
	<ele>2350.20</ele>
	<time>2023-08-06T07:16:39.000Z</time>
</trkpt>
<trkpt lat="46.0381240" lon="10.4855620">
	<ele>2350.20</ele>
	<time>2023-08-06T07:16:40.000Z</time>
</trkpt>
<trkpt lat="46.0381240" lon="10.4855620">
	<ele>2350.20</ele>
	<time>2023-08-06T07:16:41.000Z</time>
</trkpt>
<trkpt lat="46.0381240" lon="10.4855620">
	<ele>2350.20</ele>
	<time>2023-08-06T07:16:42.000Z</time>
</trkpt>
<trkpt lat="46.0381240" lon="10.4855610">
	<ele>2350.20</ele>
	<time>2023-08-06T07:16:43.000Z</time>
</trkpt>
<trkpt lat="46.0381240" lon="10.4855610">
	<ele>2350.40</ele>
	<time>2023-08-06T07:16:44.000Z</time>
</trkpt>
<trkpt lat="46.0381240" lon="10.4855610">
	<ele>2350.40</ele>
	<time>2023-08-06T07:16:45.000Z</time>
</trkpt>
<trkpt lat="46.0381240" lon="10.4855610">
	<ele>2350.40</ele>
	<time>2023-08-06T07:16:46.000Z</time>
</trkpt>
<trkpt lat="46.0381240" lon="10.4855610">
	<ele>2350.40</ele>
	<time>2023-08-06T07:16:47.000Z</time>
</trkpt>
<trkpt lat="46.0381240" lon="10.4855610">
	<ele>2350.40</ele>
	<time>2023-08-06T07:16:48.000Z</time>
</trkpt>
<trkpt lat="46.0381240" lon="10.4855610">
	<ele>2350.20</ele>
	<time>2023-08-06T07:16:49.000Z</time>
</trkpt>
<trkpt lat="46.0381240" lon="10.4855610">
	<ele>2350.20</ele>
	<time>2023-08-06T07:16:50.000Z</time>
</trkpt>
<trkpt lat="46.0381240" lon="10.4855610">
	<ele>2350.20</ele>
	<time>2023-08-06T07:16:51.000Z</time>
</trkpt>
<trkpt lat="46.0381240" lon="10.4855610">
	<ele>2350.00</ele>
	<time>2023-08-06T07:16:52.000Z</time>
</trkpt>
<trkpt lat="46.0381240" lon="10.4855610">
	<ele>2350.00</ele>
	<time>2023-08-06T07:16:53.000Z</time>
</trkpt>
<trkpt lat="46.0381240" lon="10.4855610">
	<ele>2350.00</ele>
	<time>2023-08-06T07:16:54.000Z</time>
</trkpt>
<trkpt lat="46.0381240" lon="10.4855610">
	<ele>2350.00</ele>
	<time>2023-08-06T07:16:55.000Z</time>
</trkpt>
<trkpt lat="46.0381240" lon="10.4855610">
	<ele>2350.00</ele>
	<time>2023-08-06T07:16:56.000Z</time>
</trkpt>
<trkpt lat="46.0381240" lon="10.4855610">
	<ele>2350.00</ele>
	<time>2023-08-06T07:16:57.000Z</time>
</trkpt>
<trkpt lat="46.0381240" lon="10.4855610">
	<ele>2350.00</ele>
	<time>2023-08-06T07:16:58.000Z</time>
</trkpt>
<trkpt lat="46.0381240" lon="10.4855600">
	<ele>2350.00</ele>
	<time>2023-08-06T07:16:59.000Z</time>
</trkpt>
<trkpt lat="46.0381230" lon="10.4855600">
	<ele>2350.00</ele>
	<time>2023-08-06T07:17:00.000Z</time>
</trkpt>
<trkpt lat="46.0381230" lon="10.4855600">
	<ele>2349.80</ele>
	<time>2023-08-06T07:17:01.000Z</time>
</trkpt>
<trkpt lat="46.0381230" lon="10.4855600">
	<ele>2349.80</ele>
	<time>2023-08-06T07:17:02.000Z</time>
</trkpt>
<trkpt lat="46.0381230" lon="10.4855600">
	<ele>2349.80</ele>
	<time>2023-08-06T07:17:03.000Z</time>
</trkpt>
<trkpt lat="46.0381230" lon="10.4855600">
	<ele>2349.80</ele>
	<time>2023-08-06T07:17:04.000Z</time>
</trkpt>
<trkpt lat="46.0381230" lon="10.4855600">
	<ele>2350.00</ele>
	<time>2023-08-06T07:17:05.000Z</time>
</trkpt>
<trkpt lat="46.0381230" lon="10.4855600">
	<ele>2350.00</ele>
	<time>2023-08-06T07:17:06.000Z</time>
</trkpt>
<trkpt lat="46.0381230" lon="10.4855600">
	<ele>2350.00</ele>
	<time>2023-08-06T07:17:07.000Z</time>
</trkpt>
<trkpt lat="46.0381230" lon="10.4855600">
	<ele>2350.00</ele>
	<time>2023-08-06T07:17:08.000Z</time>
</trkpt>
<trkpt lat="46.0381230" lon="10.4855600">
	<ele>2350.00</ele>
	<time>2023-08-06T07:17:09.000Z</time>
</trkpt>
<trkpt lat="46.0381230" lon="10.4855600">
	<ele>2350.00</ele>
	<time>2023-08-06T07:17:10.000Z</time>
</trkpt>
<trkpt lat="46.0381230" lon="10.4855600">
	<ele>2350.00</ele>
	<time>2023-08-06T07:17:11.000Z</time>
</trkpt>
<trkpt lat="46.0381230" lon="10.4855600">
	<ele>2350.00</ele>
	<time>2023-08-06T07:17:12.000Z</time>
</trkpt>
<trkpt lat="46.0381230" lon="10.4855590">
	<ele>2350.20</ele>
	<time>2023-08-06T07:17:13.000Z</time>
</trkpt>
<trkpt lat="46.0381230" lon="10.4855590">
	<ele>2350.20</ele>
	<time>2023-08-06T07:17:14.000Z</time>
</trkpt>
<trkpt lat="46.0381230" lon="10.4855590">
	<ele>2350.40</ele>
	<time>2023-08-06T07:17:15.000Z</time>
</trkpt>
<trkpt lat="46.0381230" lon="10.4855590">
	<ele>2350.40</ele>
	<time>2023-08-06T07:17:16.000Z</time>
</trkpt>
<trkpt lat="46.0381230" lon="10.4855590">
	<ele>2350.40</ele>
	<time>2023-08-06T07:17:17.000Z</time>
</trkpt>
<trkpt lat="46.0381230" lon="10.4855590">
	<ele>2350.40</ele>
	<time>2023-08-06T07:17:18.000Z</time>
</trkpt>
<trkpt lat="46.0381230" lon="10.4855590">
	<ele>2350.40</ele>
	<time>2023-08-06T07:17:19.000Z</time>
</trkpt>
<trkpt lat="46.0381230" lon="10.4855590">
	<ele>2350.40</ele>
	<time>2023-08-06T07:17:20.000Z</time>
</trkpt>
<trkpt lat="46.0381230" lon="10.4855590">
	<ele>2350.40</ele>
	<time>2023-08-06T07:17:21.000Z</time>
</trkpt>
<trkpt lat="46.0381230" lon="10.4855590">
	<ele>2350.40</ele>
	<time>2023-08-06T07:17:22.000Z</time>
</trkpt>
<trkpt lat="46.0381230" lon="10.4855590">
	<ele>2350.40</ele>
	<time>2023-08-06T07:17:23.000Z</time>
</trkpt>
<trkpt lat="46.0381230" lon="10.4855590">
	<ele>2350.40</ele>
	<time>2023-08-06T07:17:24.000Z</time>
</trkpt>
<trkpt lat="46.0381220" lon="10.4855590">
	<ele>2350.40</ele>
	<time>2023-08-06T07:17:25.000Z</time>
</trkpt>
<trkpt lat="46.0381220" lon="10.4855590">
	<ele>2350.40</ele>
	<time>2023-08-06T07:17:26.000Z</time>
</trkpt>
<trkpt lat="46.0381220" lon="10.4855590">
	<ele>2350.40</ele>
	<time>2023-08-06T07:17:27.000Z</time>
</trkpt>
<trkpt lat="46.0381230" lon="10.4855590">
	<ele>2350.40</ele>
	<time>2023-08-06T07:17:28.000Z</time>
</trkpt>
<trkpt lat="46.0381220" lon="10.4855590">
	<ele>2350.40</ele>
	<time>2023-08-06T07:17:29.000Z</time>
</trkpt>
<trkpt lat="46.0381220" lon="10.4855590">
	<ele>2350.40</ele>
	<time>2023-08-06T07:17:30.000Z</time>
</trkpt>
<trkpt lat="46.0381220" lon="10.4855590">
	<ele>2350.20</ele>
	<time>2023-08-06T07:17:31.000Z</time>
</trkpt>
<trkpt lat="46.0381220" lon="10.4855590">
	<ele>2350.20</ele>
	<time>2023-08-06T07:17:32.000Z</time>
</trkpt>
<trkpt lat="46.0381220" lon="10.4855590">
	<ele>2350.00</ele>
	<time>2023-08-06T07:17:33.000Z</time>
</trkpt>
<trkpt lat="46.0381220" lon="10.4855590">
	<ele>2350.00</ele>
	<time>2023-08-06T07:17:34.000Z</time>
</trkpt>
<trkpt lat="46.0381220" lon="10.4855590">
	<ele>2350.00</ele>
	<time>2023-08-06T07:17:35.000Z</time>
</trkpt>
<trkpt lat="46.0381220" lon="10.4855590">
	<ele>2349.80</ele>
	<time>2023-08-06T07:17:36.000Z</time>
</trkpt>
<trkpt lat="46.0381220" lon="10.4855590">
	<ele>2349.80</ele>
	<time>2023-08-06T07:17:37.000Z</time>
</trkpt>
<trkpt lat="46.0381220" lon="10.4855580">
	<ele>2349.80</ele>
	<time>2023-08-06T07:17:38.000Z</time>
</trkpt>
<trkpt lat="46.0381220" lon="10.4855580">
	<ele>2349.80</ele>
	<time>2023-08-06T07:17:39.000Z</time>
</trkpt>
<trkpt lat="46.0381220" lon="10.4855580">
	<ele>2349.80</ele>
	<time>2023-08-06T07:17:40.000Z</time>
</trkpt>
<trkpt lat="46.0381220" lon="10.4855580">
	<ele>2349.60</ele>
	<time>2023-08-06T07:17:41.000Z</time>
</trkpt>
<trkpt lat="46.0381220" lon="10.4855580">
	<ele>2349.60</ele>
	<time>2023-08-06T07:17:42.000Z</time>
</trkpt>
<trkpt lat="46.0381220" lon="10.4855580">
	<ele>2349.80</ele>
	<time>2023-08-06T07:17:43.000Z</time>
</trkpt>
<trkpt lat="46.0381220" lon="10.4855580">
	<ele>2349.60</ele>
	<time>2023-08-06T07:17:44.000Z</time>
</trkpt>
<trkpt lat="46.0381220" lon="10.4855580">
	<ele>2349.60</ele>
	<time>2023-08-06T07:17:45.000Z</time>
</trkpt>
<trkpt lat="46.0381220" lon="10.4855570">
	<ele>2349.80</ele>
	<time>2023-08-06T07:17:46.000Z</time>
</trkpt>
<trkpt lat="46.0381230" lon="10.4855570">
	<ele>2349.80</ele>
	<time>2023-08-06T07:17:47.000Z</time>
</trkpt>
<trkpt lat="46.0381230" lon="10.4855570">
	<ele>2350.00</ele>
	<time>2023-08-06T07:17:48.000Z</time>
</trkpt>
<trkpt lat="46.0381230" lon="10.4855570">
	<ele>2350.20</ele>
	<time>2023-08-06T07:17:49.000Z</time>
</trkpt>
<trkpt lat="46.0381220" lon="10.4855570">
	<ele>2350.20</ele>
	<time>2023-08-06T07:17:50.000Z</time>
</trkpt>
<trkpt lat="46.0381220" lon="10.4855570">
	<ele>2350.20</ele>
	<time>2023-08-06T07:17:51.000Z</time>
</trkpt>
<trkpt lat="46.0381220" lon="10.4855570">
	<ele>2350.20</ele>
	<time>2023-08-06T07:17:52.000Z</time>
</trkpt>
<trkpt lat="46.0381220" lon="10.4855570">
	<ele>2350.20</ele>
	<time>2023-08-06T07:17:53.000Z</time>
</trkpt>
<trkpt lat="46.0381220" lon="10.4855570">
	<ele>2350.00</ele>
	<time>2023-08-06T07:17:54.000Z</time>
</trkpt>
<trkpt lat="46.0381220" lon="10.4855570">
	<ele>2350.00</ele>
	<time>2023-08-06T07:17:55.000Z</time>
</trkpt>
<trkpt lat="46.0381220" lon="10.4855570">
	<ele>2350.00</ele>
	<time>2023-08-06T07:17:56.000Z</time>
</trkpt>
<trkpt lat="46.0381220" lon="10.4855570">
	<ele>2350.20</ele>
	<time>2023-08-06T07:17:57.000Z</time>
</trkpt>
<trkpt lat="46.0381220" lon="10.4855570">
	<ele>2350.20</ele>
	<time>2023-08-06T07:17:58.000Z</time>
</trkpt>
<trkpt lat="46.0381220" lon="10.4855570">
	<ele>2350.20</ele>
	<time>2023-08-06T07:17:59.000Z</time>
</trkpt>
<trkpt lat="46.0381220" lon="10.4855570">
	<ele>2350.20</ele>
	<time>2023-08-06T07:18:00.000Z</time>
</trkpt>
<trkpt lat="46.0381220" lon="10.4855570">
	<ele>2350.20</ele>
	<time>2023-08-06T07:18:01.000Z</time>
</trkpt>
<trkpt lat="46.0381220" lon="10.4855570">
	<ele>2350.20</ele>
	<time>2023-08-06T07:18:02.000Z</time>
</trkpt>
<trkpt lat="46.0381220" lon="10.4855570">
	<ele>2350.20</ele>
	<time>2023-08-06T07:18:03.000Z</time>
</trkpt>
<trkpt lat="46.0381220" lon="10.4855560">
	<ele>2350.00</ele>
	<time>2023-08-06T07:18:04.000Z</time>
</trkpt>
<trkpt lat="46.0381220" lon="10.4855560">
	<ele>2350.00</ele>
	<time>2023-08-06T07:18:05.000Z</time>
</trkpt>
<trkpt lat="46.0381220" lon="10.4855560">
	<ele>2349.80</ele>
	<time>2023-08-06T07:18:06.000Z</time>
</trkpt>
<trkpt lat="46.0381220" lon="10.4855560">
	<ele>2349.60</ele>
	<time>2023-08-06T07:18:07.000Z</time>
</trkpt>
<trkpt lat="46.0381220" lon="10.4855560">
	<ele>2349.60</ele>
	<time>2023-08-06T07:18:08.000Z</time>
</trkpt>
<trkpt lat="46.0381220" lon="10.4855560">
	<ele>2349.60</ele>
	<time>2023-08-06T07:18:09.000Z</time>
</trkpt>
<trkpt lat="46.0381220" lon="10.4855560">
	<ele>2349.60</ele>
	<time>2023-08-06T07:18:10.000Z</time>
</trkpt>
<trkpt lat="46.0381220" lon="10.4855560">
	<ele>2349.60</ele>
	<time>2023-08-06T07:18:11.000Z</time>
</trkpt>
<trkpt lat="46.0381220" lon="10.4855560">
	<ele>2349.60</ele>
	<time>2023-08-06T07:18:12.000Z</time>
</trkpt>
<trkpt lat="46.0381220" lon="10.4855560">
	<ele>2349.60</ele>
	<time>2023-08-06T07:18:13.000Z</time>
</trkpt>
<trkpt lat="46.0381220" lon="10.4855560">
	<ele>2349.80</ele>
	<time>2023-08-06T07:18:14.000Z</time>
</trkpt>
<trkpt lat="46.0381220" lon="10.4855560">
	<ele>2350.00</ele>
	<time>2023-08-06T07:18:15.000Z</time>
</trkpt>
<trkpt lat="46.0381220" lon="10.4855560">
	<ele>2350.00</ele>
	<time>2023-08-06T07:18:16.000Z</time>
</trkpt>
<trkpt lat="46.0381220" lon="10.4855560">
	<ele>2350.00</ele>
	<time>2023-08-06T07:18:17.000Z</time>
</trkpt>
<trkpt lat="46.0381220" lon="10.4855550">
	<ele>2349.80</ele>
	<time>2023-08-06T07:18:18.000Z</time>
</trkpt>
<trkpt lat="46.0381220" lon="10.4855550">
	<ele>2349.80</ele>
	<time>2023-08-06T07:18:19.000Z</time>
</trkpt>
<trkpt lat="46.0381220" lon="10.4855550">
	<ele>2349.80</ele>
	<time>2023-08-06T07:18:20.000Z</time>
</trkpt>
<trkpt lat="46.0381210" lon="10.4855550">
	<ele>2349.60</ele>
	<time>2023-08-06T07:18:21.000Z</time>
</trkpt>
<trkpt lat="46.0381210" lon="10.4855550">
	<ele>2349.60</ele>
	<time>2023-08-06T07:18:22.000Z</time>
</trkpt>
<trkpt lat="46.0381210" lon="10.4855550">
	<ele>2349.60</ele>
	<time>2023-08-06T07:18:23.000Z</time>
</trkpt>
<trkpt lat="46.0381210" lon="10.4855550">
	<ele>2349.80</ele>
	<time>2023-08-06T07:18:24.000Z</time>
</trkpt>
<trkpt lat="46.0381210" lon="10.4855550">
	<ele>2349.80</ele>
	<time>2023-08-06T07:18:25.000Z</time>
</trkpt>
<trkpt lat="46.0381210" lon="10.4855550">
	<ele>2350.00</ele>
	<time>2023-08-06T07:18:26.000Z</time>
</trkpt>
<trkpt lat="46.0381210" lon="10.4855550">
	<ele>2350.00</ele>
	<time>2023-08-06T07:18:27.000Z</time>
</trkpt>
<trkpt lat="46.0381210" lon="10.4855550">
	<ele>2350.00</ele>
	<time>2023-08-06T07:18:28.000Z</time>
</trkpt>
<trkpt lat="46.0381210" lon="10.4855550">
	<ele>2350.00</ele>
	<time>2023-08-06T07:18:29.000Z</time>
</trkpt>
<trkpt lat="46.0381210" lon="10.4855550">
	<ele>2350.20</ele>
	<time>2023-08-06T07:18:30.000Z</time>
</trkpt>
<trkpt lat="46.0381210" lon="10.4855540">
	<ele>2350.20</ele>
	<time>2023-08-06T07:18:31.000Z</time>
</trkpt>
<trkpt lat="46.0381210" lon="10.4855540">
	<ele>2350.20</ele>
	<time>2023-08-06T07:18:32.000Z</time>
</trkpt>
<trkpt lat="46.0381210" lon="10.4855540">
	<ele>2350.40</ele>
	<time>2023-08-06T07:18:33.000Z</time>
</trkpt>
<trkpt lat="46.0381210" lon="10.4855540">
	<ele>2350.40</ele>
	<time>2023-08-06T07:18:34.000Z</time>
</trkpt>
<trkpt lat="46.0381210" lon="10.4855540">
	<ele>2350.60</ele>
	<time>2023-08-06T07:18:35.000Z</time>
</trkpt>
<trkpt lat="46.0381210" lon="10.4855540">
	<ele>2350.80</ele>
	<time>2023-08-06T07:18:36.000Z</time>
</trkpt>
<trkpt lat="46.0381210" lon="10.4855540">
	<ele>2351.00</ele>
	<time>2023-08-06T07:18:37.000Z</time>
</trkpt>
<trkpt lat="46.0381210" lon="10.4855540">
	<ele>2351.00</ele>
	<time>2023-08-06T07:18:38.000Z</time>
</trkpt>
<trkpt lat="46.0381210" lon="10.4855540">
	<ele>2351.20</ele>
	<time>2023-08-06T07:18:39.000Z</time>
</trkpt>
<trkpt lat="46.0381210" lon="10.4855540">
	<ele>2351.20</ele>
	<time>2023-08-06T07:18:40.000Z</time>
</trkpt>
<trkpt lat="46.0381210" lon="10.4855540">
	<ele>2351.20</ele>
	<time>2023-08-06T07:18:41.000Z</time>
</trkpt>
<trkpt lat="46.0381210" lon="10.4855540">
	<ele>2351.20</ele>
	<time>2023-08-06T07:18:42.000Z</time>
</trkpt>
<trkpt lat="46.0381210" lon="10.4855540">
	<ele>2351.00</ele>
	<time>2023-08-06T07:18:43.000Z</time>
</trkpt>
<trkpt lat="46.0381210" lon="10.4855540">
	<ele>2351.00</ele>
	<time>2023-08-06T07:18:44.000Z</time>
</trkpt>
<trkpt lat="46.0381210" lon="10.4855540">
	<ele>2351.00</ele>
	<time>2023-08-06T07:18:45.000Z</time>
</trkpt>
<trkpt lat="46.0381210" lon="10.4855540">
	<ele>2351.00</ele>
	<time>2023-08-06T07:18:46.000Z</time>
</trkpt>
<trkpt lat="46.0381210" lon="10.4855540">
	<ele>2351.00</ele>
	<time>2023-08-06T07:18:47.000Z</time>
</trkpt>
<trkpt lat="46.0381210" lon="10.4855540">
	<ele>2351.00</ele>
	<time>2023-08-06T07:18:48.000Z</time>
</trkpt>
<trkpt lat="46.0381210" lon="10.4855540">
	<ele>2351.00</ele>
	<time>2023-08-06T07:18:49.000Z</time>
</trkpt>
<trkpt lat="46.0381210" lon="10.4855540">
	<ele>2351.00</ele>
	<time>2023-08-06T07:18:50.000Z</time>
</trkpt>
<trkpt lat="46.0381210" lon="10.4855540">
	<ele>2351.00</ele>
	<time>2023-08-06T07:18:51.000Z</time>
</trkpt>
<trkpt lat="46.0381210" lon="10.4855530">
	<ele>2351.00</ele>
	<time>2023-08-06T07:18:52.000Z</time>
</trkpt>
<trkpt lat="46.0381210" lon="10.4855530">
	<ele>2351.00</ele>
	<time>2023-08-06T07:18:53.000Z</time>
</trkpt>
<trkpt lat="46.0381210" lon="10.4855530">
	<ele>2351.00</ele>
	<time>2023-08-06T07:18:54.000Z</time>
</trkpt>
<trkpt lat="46.0381210" lon="10.4855530">
	<ele>2351.00</ele>
	<time>2023-08-06T07:18:55.000Z</time>
</trkpt>
<trkpt lat="46.0381210" lon="10.4855530">
	<ele>2351.00</ele>
	<time>2023-08-06T07:18:56.000Z</time>
</trkpt>
<trkpt lat="46.0381210" lon="10.4855530">
	<ele>2351.00</ele>
	<time>2023-08-06T07:18:57.000Z</time>
</trkpt>
<trkpt lat="46.0381210" lon="10.4855530">
	<ele>2351.00</ele>
	<time>2023-08-06T07:18:58.000Z</time>
</trkpt>
<trkpt lat="46.0381210" lon="10.4855530">
	<ele>2350.80</ele>
	<time>2023-08-06T07:18:59.000Z</time>
</trkpt>
<trkpt lat="46.0381210" lon="10.4855530">
	<ele>2350.80</ele>
	<time>2023-08-06T07:19:00.000Z</time>
</trkpt>
<trkpt lat="46.0381210" lon="10.4855530">
	<ele>2350.60</ele>
	<time>2023-08-06T07:19:01.000Z</time>
</trkpt>
<trkpt lat="46.0381210" lon="10.4855530">
	<ele>2350.60</ele>
	<time>2023-08-06T07:19:02.000Z</time>
</trkpt>
<trkpt lat="46.0381210" lon="10.4855530">
	<ele>2350.60</ele>
	<time>2023-08-06T07:19:03.000Z</time>
</trkpt>
<trkpt lat="46.0381210" lon="10.4855520">
	<ele>2350.60</ele>
	<time>2023-08-06T07:19:04.000Z</time>
</trkpt>
<trkpt lat="46.0381210" lon="10.4855520">
	<ele>2350.40</ele>
	<time>2023-08-06T07:19:05.000Z</time>
</trkpt>
<trkpt lat="46.0381210" lon="10.4855520">
	<ele>2350.40</ele>
	<time>2023-08-06T07:19:06.000Z</time>
</trkpt>
<trkpt lat="46.0381210" lon="10.4855520">
	<ele>2350.20</ele>
	<time>2023-08-06T07:19:07.000Z</time>
</trkpt>
<trkpt lat="46.0381210" lon="10.4855520">
	<ele>2350.00</ele>
	<time>2023-08-06T07:19:08.000Z</time>
</trkpt>
<trkpt lat="46.0381210" lon="10.4855520">
	<ele>2350.00</ele>
	<time>2023-08-06T07:19:09.000Z</time>
</trkpt>
<trkpt lat="46.0381210" lon="10.4855520">
	<ele>2350.00</ele>
	<time>2023-08-06T07:19:10.000Z</time>
</trkpt>
<trkpt lat="46.0381210" lon="10.4855520">
	<ele>2350.00</ele>
	<time>2023-08-06T07:19:11.000Z</time>
</trkpt>
<trkpt lat="46.0381210" lon="10.4855520">
	<ele>2350.00</ele>
	<time>2023-08-06T07:19:12.000Z</time>
</trkpt>
<trkpt lat="46.0381200" lon="10.4855520">
	<ele>2350.00</ele>
	<time>2023-08-06T07:19:13.000Z</time>
</trkpt>
<trkpt lat="46.0381200" lon="10.4855520">
	<ele>2350.00</ele>
	<time>2023-08-06T07:19:14.000Z</time>
</trkpt>
<trkpt lat="46.0381200" lon="10.4855510">
	<ele>2350.00</ele>
	<time>2023-08-06T07:19:15.000Z</time>
</trkpt>
<trkpt lat="46.0381200" lon="10.4855510">
	<ele>2350.00</ele>
	<time>2023-08-06T07:19:16.000Z</time>
</trkpt>
<trkpt lat="46.0381200" lon="10.4855510">
	<ele>2350.00</ele>
	<time>2023-08-06T07:19:17.000Z</time>
</trkpt>
<trkpt lat="46.0381200" lon="10.4855510">
	<ele>2350.20</ele>
	<time>2023-08-06T07:19:18.000Z</time>
</trkpt>
<trkpt lat="46.0381200" lon="10.4855510">
	<ele>2350.20</ele>
	<time>2023-08-06T07:19:19.000Z</time>
</trkpt>
<trkpt lat="46.0381200" lon="10.4855510">
	<ele>2350.60</ele>
	<time>2023-08-06T07:19:20.000Z</time>
</trkpt>
<trkpt lat="46.0381200" lon="10.4855510">
	<ele>2350.80</ele>
	<time>2023-08-06T07:19:21.000Z</time>
</trkpt>
<trkpt lat="46.0381200" lon="10.4855510">
	<ele>2350.80</ele>
	<time>2023-08-06T07:19:22.000Z</time>
</trkpt>
<trkpt lat="46.0381200" lon="10.4855510">
	<ele>2350.80</ele>
	<time>2023-08-06T07:19:23.000Z</time>
</trkpt>
<trkpt lat="46.0381200" lon="10.4855510">
	<ele>2351.00</ele>
	<time>2023-08-06T07:19:24.000Z</time>
</trkpt>
<trkpt lat="46.0381200" lon="10.4855510">
	<ele>2351.00</ele>
	<time>2023-08-06T07:19:25.000Z</time>
</trkpt>
<trkpt lat="46.0381200" lon="10.4855500">
	<ele>2350.60</ele>
	<time>2023-08-06T07:19:26.000Z</time>
</trkpt>
<trkpt lat="46.0381200" lon="10.4855500">
	<ele>2350.20</ele>
	<time>2023-08-06T07:19:27.000Z</time>
</trkpt>
<trkpt lat="46.0381200" lon="10.4855500">
	<ele>2350.00</ele>
	<time>2023-08-06T07:19:28.000Z</time>
</trkpt>
<trkpt lat="46.0381200" lon="10.4855500">
	<ele>2349.80</ele>
	<time>2023-08-06T07:19:29.000Z</time>
</trkpt>
<trkpt lat="46.0381200" lon="10.4855500">
	<ele>2349.40</ele>
	<time>2023-08-06T07:19:30.000Z</time>
</trkpt>
<trkpt lat="46.0381200" lon="10.4855500">
	<ele>2349.20</ele>
	<time>2023-08-06T07:19:31.000Z</time>
</trkpt>
<trkpt lat="46.0381200" lon="10.4855500">
	<ele>2349.20</ele>
	<time>2023-08-06T07:19:32.000Z</time>
</trkpt>
<trkpt lat="46.0381200" lon="10.4855500">
	<ele>2349.20</ele>
	<time>2023-08-06T07:19:33.000Z</time>
</trkpt>
<trkpt lat="46.0381200" lon="10.4855500">
	<ele>2349.00</ele>
	<time>2023-08-06T07:19:34.000Z</time>
</trkpt>
<trkpt lat="46.0381200" lon="10.4855500">
	<ele>2349.00</ele>
	<time>2023-08-06T07:19:35.000Z</time>
</trkpt>
<trkpt lat="46.0381200" lon="10.4855500">
	<ele>2348.80</ele>
	<time>2023-08-06T07:19:36.000Z</time>
</trkpt>
<trkpt lat="46.0381200" lon="10.4855500">
	<ele>2348.80</ele>
	<time>2023-08-06T07:19:37.000Z</time>
</trkpt>
<trkpt lat="46.0381210" lon="10.4855500">
	<ele>2348.60</ele>
	<time>2023-08-06T07:19:38.000Z</time>
</trkpt>
<trkpt lat="46.0381210" lon="10.4855500">
	<ele>2348.60</ele>
	<time>2023-08-06T07:19:39.000Z</time>
</trkpt>
<trkpt lat="46.0381310" lon="10.4855430">
	<ele>2348.60</ele>
	<time>2023-08-06T07:19:40.000Z</time>
</trkpt>
<trkpt lat="46.0381460" lon="10.4855340">
	<ele>2348.60</ele>
	<time>2023-08-06T07:19:41.000Z</time>
</trkpt>
<trkpt lat="46.0381600" lon="10.4855260">
	<ele>2348.80</ele>
	<time>2023-08-06T07:19:42.000Z</time>
</trkpt>
<trkpt lat="46.0381720" lon="10.4855190">
	<ele>2349.20</ele>
	<time>2023-08-06T07:19:43.000Z</time>
</trkpt>
<trkpt lat="46.0381820" lon="10.4855110">
	<ele>2349.20</ele>
	<time>2023-08-06T07:19:44.000Z</time>
</trkpt>
<trkpt lat="46.0381910" lon="10.4855040">
	<ele>2349.40</ele>
	<time>2023-08-06T07:19:45.000Z</time>
</trkpt>
<trkpt lat="46.0382010" lon="10.4854970">
	<ele>2349.40</ele>
	<time>2023-08-06T07:19:46.000Z</time>
</trkpt>
<trkpt lat="46.0382120" lon="10.4854900">
	<ele>2349.40</ele>
	<time>2023-08-06T07:19:47.000Z</time>
</trkpt>
<trkpt lat="46.0382230" lon="10.4854830">
	<ele>2349.60</ele>
	<time>2023-08-06T07:19:48.000Z</time>
</trkpt>
<trkpt lat="46.0382330" lon="10.4854760">
	<ele>2349.60</ele>
	<time>2023-08-06T07:19:49.000Z</time>
</trkpt>
<trkpt lat="46.0382320" lon="10.4854720">
	<ele>2349.60</ele>
	<time>2023-08-06T07:19:50.000Z</time>
</trkpt>
<trkpt lat="46.0382320" lon="10.4854690">
	<ele>2349.60</ele>
	<time>2023-08-06T07:19:51.000Z</time>
</trkpt>
<trkpt lat="46.0382350" lon="10.4854650">
	<ele>2349.60</ele>
	<time>2023-08-06T07:19:52.000Z</time>
</trkpt>
<trkpt lat="46.0382420" lon="10.4854630">
	<ele>2349.60</ele>
	<time>2023-08-06T07:19:53.000Z</time>
</trkpt>
<trkpt lat="46.0382480" lon="10.4854630">
	<ele>2349.60</ele>
	<time>2023-08-06T07:19:54.000Z</time>
</trkpt>
<trkpt lat="46.0382540" lon="10.4854610">
	<ele>2349.60</ele>
	<time>2023-08-06T07:19:55.000Z</time>
</trkpt>
<trkpt lat="46.0382620" lon="10.4854610">
	<ele>2349.60</ele>
	<time>2023-08-06T07:19:56.000Z</time>
</trkpt>
<trkpt lat="46.0382670" lon="10.4854550">
	<ele>2349.20</ele>
	<time>2023-08-06T07:19:57.000Z</time>
</trkpt>
<trkpt lat="46.0382720" lon="10.4854510">
	<ele>2349.20</ele>
	<time>2023-08-06T07:19:58.000Z</time>
</trkpt>
<trkpt lat="46.0382770" lon="10.4854480">
	<ele>2349.00</ele>
	<time>2023-08-06T07:19:59.000Z</time>
</trkpt>
<trkpt lat="46.0382820" lon="10.4854440">
	<ele>2348.80</ele>
	<time>2023-08-06T07:20:00.000Z</time>
</trkpt>
<trkpt lat="46.0382880" lon="10.4854360">
	<ele>2348.80</ele>
	<time>2023-08-06T07:20:01.000Z</time>
</trkpt>
<trkpt lat="46.0382950" lon="10.4854300">
	<ele>2348.60</ele>
	<time>2023-08-06T07:20:02.000Z</time>
</trkpt>
<trkpt lat="46.0383070" lon="10.4854260">
	<ele>2348.60</ele>
	<time>2023-08-06T07:20:03.000Z</time>
</trkpt>
<trkpt lat="46.0383130" lon="10.4854240">
	<ele>2348.60</ele>
	<time>2023-08-06T07:20:04.000Z</time>
</trkpt>
<trkpt lat="46.0383210" lon="10.4854190">
	<ele>2348.60</ele>
	<time>2023-08-06T07:20:05.000Z</time>
</trkpt>
<trkpt lat="46.0383260" lon="10.4854170">
	<ele>2348.60</ele>
	<time>2023-08-06T07:20:06.000Z</time>
</trkpt>
<trkpt lat="46.0383300" lon="10.4854120">
	<ele>2348.60</ele>
	<time>2023-08-06T07:20:07.000Z</time>
</trkpt>
<trkpt lat="46.0383360" lon="10.4854090">
	<ele>2348.40</ele>
	<time>2023-08-06T07:20:08.000Z</time>
</trkpt>
<trkpt lat="46.0383400" lon="10.4854090">
	<ele>2348.40</ele>
	<time>2023-08-06T07:20:09.000Z</time>
</trkpt>
<trkpt lat="46.0383440" lon="10.4854100">
	<ele>2348.40</ele>
	<time>2023-08-06T07:20:10.000Z</time>
</trkpt>
<trkpt lat="46.0383500" lon="10.4854130">
	<ele>2348.20</ele>
	<time>2023-08-06T07:20:11.000Z</time>
</trkpt>
<trkpt lat="46.0383560" lon="10.4854160">
	<ele>2348.20</ele>
	<time>2023-08-06T07:20:12.000Z</time>
</trkpt>
<trkpt lat="46.0383620" lon="10.4854140">
	<ele>2348.20</ele>
	<time>2023-08-06T07:20:13.000Z</time>
</trkpt>
<trkpt lat="46.0383730" lon="10.4854140">
	<ele>2348.00</ele>
	<time>2023-08-06T07:20:14.000Z</time>
</trkpt>
<trkpt lat="46.0383810" lon="10.4854150">
	<ele>2348.00</ele>
	<time>2023-08-06T07:20:15.000Z</time>
</trkpt>
<trkpt lat="46.0383840" lon="10.4854120">
	<ele>2348.00</ele>
	<time>2023-08-06T07:20:16.000Z</time>
</trkpt>
<trkpt lat="46.0383870" lon="10.4854090">
	<ele>2348.00</ele>
	<time>2023-08-06T07:20:17.000Z</time>
</trkpt>
<trkpt lat="46.0383880" lon="10.4854060">
	<ele>2348.20</ele>
	<time>2023-08-06T07:20:18.000Z</time>
</trkpt>
<trkpt lat="46.0383900" lon="10.4854020">
	<ele>2348.00</ele>
	<time>2023-08-06T07:20:19.000Z</time>
</trkpt>
<trkpt lat="46.0383940" lon="10.4853950">
	<ele>2347.80</ele>
	<time>2023-08-06T07:20:20.000Z</time>
</trkpt>
<trkpt lat="46.0383950" lon="10.4853850">
	<ele>2347.80</ele>
	<time>2023-08-06T07:20:21.000Z</time>
</trkpt>
<trkpt lat="46.0384010" lon="10.4853740">
	<ele>2347.80</ele>
	<time>2023-08-06T07:20:22.000Z</time>
</trkpt>
<trkpt lat="46.0384070" lon="10.4853650">
	<ele>2347.80</ele>
	<time>2023-08-06T07:20:23.000Z</time>
</trkpt>
<trkpt lat="46.0384130" lon="10.4853560">
	<ele>2347.40</ele>
	<time>2023-08-06T07:20:24.000Z</time>
</trkpt>
<trkpt lat="46.0384190" lon="10.4853480">
	<ele>2347.40</ele>
	<time>2023-08-06T07:20:25.000Z</time>
</trkpt>
<trkpt lat="46.0384270" lon="10.4853450">
	<ele>2347.20</ele>
	<time>2023-08-06T07:20:26.000Z</time>
</trkpt>
<trkpt lat="46.0384340" lon="10.4853420">
	<ele>2347.20</ele>
	<time>2023-08-06T07:20:27.000Z</time>
</trkpt>
<trkpt lat="46.0384420" lon="10.4853390">
	<ele>2347.20</ele>
	<time>2023-08-06T07:20:28.000Z</time>
</trkpt>
<trkpt lat="46.0384460" lon="10.4853390">
	<ele>2347.20</ele>
	<time>2023-08-06T07:20:29.000Z</time>
</trkpt>
<trkpt lat="46.0384480" lon="10.4853310">
	<ele>2347.20</ele>
	<time>2023-08-06T07:20:30.000Z</time>
</trkpt>
<trkpt lat="46.0384500" lon="10.4853220">
	<ele>2347.20</ele>
	<time>2023-08-06T07:20:31.000Z</time>
</trkpt>
<trkpt lat="46.0384470" lon="10.4853100">
	<ele>2347.20</ele>
	<time>2023-08-06T07:20:32.000Z</time>
</trkpt>
<trkpt lat="46.0384460" lon="10.4852990">
	<ele>2347.00</ele>
	<time>2023-08-06T07:20:33.000Z</time>
</trkpt>
<trkpt lat="46.0384510" lon="10.4852940">
	<ele>2347.00</ele>
	<time>2023-08-06T07:20:34.000Z</time>
</trkpt>
<trkpt lat="46.0384560" lon="10.4852920">
	<ele>2346.80</ele>
	<time>2023-08-06T07:20:35.000Z</time>
</trkpt>
<trkpt lat="46.0384600" lon="10.4852890">
	<ele>2346.60</ele>
	<time>2023-08-06T07:20:36.000Z</time>
</trkpt>
<trkpt lat="46.0384630" lon="10.4852900">
	<ele>2346.60</ele>
	<time>2023-08-06T07:20:37.000Z</time>
</trkpt>
<trkpt lat="46.0384680" lon="10.4852860">
	<ele>2346.40</ele>
	<time>2023-08-06T07:20:38.000Z</time>
</trkpt>
<trkpt lat="46.0384760" lon="10.4852760">
	<ele>2346.20</ele>
	<time>2023-08-06T07:20:39.000Z</time>
</trkpt>
<trkpt lat="46.0384800" lon="10.4852720">
	<ele>2346.20</ele>
	<time>2023-08-06T07:20:40.000Z</time>
</trkpt>
<trkpt lat="46.0384870" lon="10.4852580">
	<ele>2346.00</ele>
	<time>2023-08-06T07:20:41.000Z</time>
</trkpt>
<trkpt lat="46.0384900" lon="10.4852510">
	<ele>2345.80</ele>
	<time>2023-08-06T07:20:42.000Z</time>
</trkpt>
<trkpt lat="46.0384940" lon="10.4852470">
	<ele>2345.60</ele>
	<time>2023-08-06T07:20:43.000Z</time>
</trkpt>
<trkpt lat="46.0384970" lon="10.4852520">
	<ele>2345.60</ele>
	<time>2023-08-06T07:20:44.000Z</time>
</trkpt>
<trkpt lat="46.0384980" lon="10.4852540">
	<ele>2345.60</ele>
	<time>2023-08-06T07:20:45.000Z</time>
</trkpt>
<trkpt lat="46.0385010" lon="10.4852530">
	<ele>2345.60</ele>
	<time>2023-08-06T07:20:46.000Z</time>
</trkpt>
<trkpt lat="46.0385050" lon="10.4852550">
	<ele>2345.60</ele>
	<time>2023-08-06T07:20:47.000Z</time>
</trkpt>
<trkpt lat="46.0385060" lon="10.4852560">
	<ele>2345.60</ele>
	<time>2023-08-06T07:20:48.000Z</time>
</trkpt>
<trkpt lat="46.0385060" lon="10.4852580">
	<ele>2345.60</ele>
	<time>2023-08-06T07:20:49.000Z</time>
</trkpt>
<trkpt lat="46.0385060" lon="10.4852570">
	<ele>2345.60</ele>
	<time>2023-08-06T07:20:50.000Z</time>
</trkpt>
<trkpt lat="46.0385050" lon="10.4852570">
	<ele>2345.60</ele>
	<time>2023-08-06T07:20:51.000Z</time>
</trkpt>
<trkpt lat="46.0385050" lon="10.4852570">
	<ele>2345.80</ele>
	<time>2023-08-06T07:20:52.000Z</time>
</trkpt>
<trkpt lat="46.0385040" lon="10.4852570">
	<ele>2345.80</ele>
	<time>2023-08-06T07:20:53.000Z</time>
</trkpt>
<trkpt lat="46.0385040" lon="10.4852570">
	<ele>2345.80</ele>
	<time>2023-08-06T07:20:54.000Z</time>
</trkpt>
<trkpt lat="46.0385040" lon="10.4852570">
	<ele>2345.80</ele>
	<time>2023-08-06T07:20:55.000Z</time>
</trkpt>
<trkpt lat="46.0385040" lon="10.4852570">
	<ele>2346.00</ele>
	<time>2023-08-06T07:20:56.000Z</time>
</trkpt>
<trkpt lat="46.0385040" lon="10.4852570">
	<ele>2346.00</ele>
	<time>2023-08-06T07:20:57.000Z</time>
</trkpt>
<trkpt lat="46.0385040" lon="10.4852570">
	<ele>2346.00</ele>
	<time>2023-08-06T07:20:58.000Z</time>
</trkpt>
<trkpt lat="46.0385040" lon="10.4852570">
	<ele>2346.00</ele>
	<time>2023-08-06T07:20:59.000Z</time>
</trkpt>
<trkpt lat="46.0385040" lon="10.4852570">
	<ele>2346.00</ele>
	<time>2023-08-06T07:21:00.000Z</time>
</trkpt>
<trkpt lat="46.0385040" lon="10.4852570">
	<ele>2346.00</ele>
	<time>2023-08-06T07:21:01.000Z</time>
</trkpt>
<trkpt lat="46.0385040" lon="10.4852570">
	<ele>2346.00</ele>
	<time>2023-08-06T07:21:02.000Z</time>
</trkpt>
<trkpt lat="46.0385040" lon="10.4852570">
	<ele>2346.00</ele>
	<time>2023-08-06T07:21:03.000Z</time>
</trkpt>
<trkpt lat="46.0385040" lon="10.4852570">
	<ele>2346.00</ele>
	<time>2023-08-06T07:21:04.000Z</time>
</trkpt>
<trkpt lat="46.0385040" lon="10.4852560">
	<ele>2346.00</ele>
	<time>2023-08-06T07:21:05.000Z</time>
</trkpt>
<trkpt lat="46.0385040" lon="10.4852560">
	<ele>2345.80</ele>
	<time>2023-08-06T07:21:06.000Z</time>
</trkpt>
<trkpt lat="46.0385040" lon="10.4852550">
	<ele>2345.60</ele>
	<time>2023-08-06T07:21:07.000Z</time>
</trkpt>
<trkpt lat="46.0385040" lon="10.4852550">
	<ele>2345.40</ele>
	<time>2023-08-06T07:21:08.000Z</time>
</trkpt>
<trkpt lat="46.0385040" lon="10.4852550">
	<ele>2345.20</ele>
	<time>2023-08-06T07:21:09.000Z</time>
</trkpt>
<trkpt lat="46.0385040" lon="10.4852540">
	<ele>2345.00</ele>
	<time>2023-08-06T07:21:10.000Z</time>
</trkpt>
<trkpt lat="46.0385040" lon="10.4852540">
	<ele>2345.00</ele>
	<time>2023-08-06T07:21:11.000Z</time>
</trkpt>
<trkpt lat="46.0385070" lon="10.4852510">
	<ele>2345.00</ele>
	<time>2023-08-06T07:21:12.000Z</time>
</trkpt>
<trkpt lat="46.0385190" lon="10.4852460">
	<ele>2345.00</ele>
	<time>2023-08-06T07:21:13.000Z</time>
</trkpt>
<trkpt lat="46.0385280" lon="10.4852400">
	<ele>2345.00</ele>
	<time>2023-08-06T07:21:14.000Z</time>
</trkpt>
<trkpt lat="46.0385380" lon="10.4852330">
	<ele>2345.00</ele>
	<time>2023-08-06T07:21:15.000Z</time>
</trkpt>
<trkpt lat="46.0385480" lon="10.4852230">
	<ele>2345.00</ele>
	<time>2023-08-06T07:21:16.000Z</time>
</trkpt>
<trkpt lat="46.0385570" lon="10.4852090">
	<ele>2345.20</ele>
	<time>2023-08-06T07:21:17.000Z</time>
</trkpt>
<trkpt lat="46.0385650" lon="10.4851980">
	<ele>2345.20</ele>
	<time>2023-08-06T07:21:18.000Z</time>
</trkpt>
<trkpt lat="46.0385750" lon="10.4851910">
	<ele>2345.20</ele>
	<time>2023-08-06T07:21:19.000Z</time>
</trkpt>
<trkpt lat="46.0385850" lon="10.4851830">
	<ele>2345.40</ele>
	<time>2023-08-06T07:21:20.000Z</time>
</trkpt>
<trkpt lat="46.0385940" lon="10.4851760">
	<ele>2345.60</ele>
	<time>2023-08-06T07:21:21.000Z</time>
</trkpt>
<trkpt lat="46.0386000" lon="10.4851790">
	<ele>2345.80</ele>
	<time>2023-08-06T07:21:22.000Z</time>
</trkpt>
<trkpt lat="46.0386060" lon="10.4851750">
	<ele>2346.00</ele>
	<time>2023-08-06T07:21:23.000Z</time>
</trkpt>
<trkpt lat="46.0386110" lon="10.4851740">
	<ele>2346.00</ele>
	<time>2023-08-06T07:21:24.000Z</time>
</trkpt>
<trkpt lat="46.0386150" lon="10.4851710">
	<ele>2346.40</ele>
	<time>2023-08-06T07:21:25.000Z</time>
</trkpt>
<trkpt lat="46.0386200" lon="10.4851670">
	<ele>2346.60</ele>
	<time>2023-08-06T07:21:26.000Z</time>
</trkpt>
<trkpt lat="46.0386250" lon="10.4851610">
	<ele>2346.80</ele>
	<time>2023-08-06T07:21:27.000Z</time>
</trkpt>
<trkpt lat="46.0386310" lon="10.4851580">
	<ele>2347.00</ele>
	<time>2023-08-06T07:21:28.000Z</time>
</trkpt>
<trkpt lat="46.0386340" lon="10.4851520">
	<ele>2347.20</ele>
	<time>2023-08-06T07:21:29.000Z</time>
</trkpt>
<trkpt lat="46.0386380" lon="10.4851470">
	<ele>2347.60</ele>
	<time>2023-08-06T07:21:30.000Z</time>
</trkpt>
<trkpt lat="46.0386420" lon="10.4851410">
	<ele>2347.80</ele>
	<time>2023-08-06T07:21:31.000Z</time>
</trkpt>
<trkpt lat="46.0386460" lon="10.4851380">
	<ele>2348.00</ele>
	<time>2023-08-06T07:21:32.000Z</time>
</trkpt>
<trkpt lat="46.0386510" lon="10.4851370">
	<ele>2348.20</ele>
	<time>2023-08-06T07:21:33.000Z</time>
</trkpt>
<trkpt lat="46.0386550" lon="10.4851330">
	<ele>2348.40</ele>
	<time>2023-08-06T07:21:34.000Z</time>
</trkpt>
<trkpt lat="46.0386650" lon="10.4851310">
	<ele>2348.80</ele>
	<time>2023-08-06T07:21:35.000Z</time>
</trkpt>
<trkpt lat="46.0386740" lon="10.4851320">
	<ele>2349.00</ele>
	<time>2023-08-06T07:21:36.000Z</time>
</trkpt>
<trkpt lat="46.0386790" lon="10.4851330">
	<ele>2349.20</ele>
	<time>2023-08-06T07:21:37.000Z</time>
</trkpt>
<trkpt lat="46.0386840" lon="10.4851310">
	<ele>2349.60</ele>
	<time>2023-08-06T07:21:38.000Z</time>
</trkpt>
<trkpt lat="46.0386850" lon="10.4851390">
	<ele>2349.80</ele>
	<time>2023-08-06T07:21:39.000Z</time>
</trkpt>
<trkpt lat="46.0386850" lon="10.4851460">
	<ele>2350.00</ele>
	<time>2023-08-06T07:21:40.000Z</time>
</trkpt>
<trkpt lat="46.0386840" lon="10.4851550">
	<ele>2350.40</ele>
	<time>2023-08-06T07:21:41.000Z</time>
</trkpt>
<trkpt lat="46.0386840" lon="10.4851620">
	<ele>2350.60</ele>
	<time>2023-08-06T07:21:42.000Z</time>
</trkpt>
<trkpt lat="46.0386850" lon="10.4851740">
	<ele>2350.80</ele>
	<time>2023-08-06T07:21:43.000Z</time>
</trkpt>
<trkpt lat="46.0386830" lon="10.4851810">
	<ele>2351.00</ele>
	<time>2023-08-06T07:21:44.000Z</time>
</trkpt>
<trkpt lat="46.0386820" lon="10.4851930">
	<ele>2351.00</ele>
	<time>2023-08-06T07:21:45.000Z</time>
</trkpt>
<trkpt lat="46.0386820" lon="10.4852030">
	<ele>2351.20</ele>
	<time>2023-08-06T07:21:46.000Z</time>
</trkpt>
<trkpt lat="46.0386820" lon="10.4852090">
	<ele>2351.40</ele>
	<time>2023-08-06T07:21:47.000Z</time>
</trkpt>
<trkpt lat="46.0386840" lon="10.4852180">
	<ele>2351.60</ele>
	<time>2023-08-06T07:21:48.000Z</time>
</trkpt>
<trkpt lat="46.0386840" lon="10.4852240">
	<ele>2351.80</ele>
	<time>2023-08-06T07:21:49.000Z</time>
</trkpt>
<trkpt lat="46.0386850" lon="10.4852260">
	<ele>2352.20</ele>
	<time>2023-08-06T07:21:50.000Z</time>
</trkpt>
<trkpt lat="46.0386860" lon="10.4852280">
	<ele>2352.40</ele>
	<time>2023-08-06T07:21:51.000Z</time>
</trkpt>
<trkpt lat="46.0386870" lon="10.4852300">
	<ele>2352.60</ele>
	<time>2023-08-06T07:21:52.000Z</time>
</trkpt>
<trkpt lat="46.0386880" lon="10.4852300">
	<ele>2352.80</ele>
	<time>2023-08-06T07:21:53.000Z</time>
</trkpt>
<trkpt lat="46.0386890" lon="10.4852310">
	<ele>2352.80</ele>
	<time>2023-08-06T07:21:54.000Z</time>
</trkpt>
<trkpt lat="46.0386880" lon="10.4852340">
	<ele>2352.80</ele>
	<time>2023-08-06T07:21:55.000Z</time>
</trkpt>
<trkpt lat="46.0386880" lon="10.4852370">
	<ele>2352.80</ele>
	<time>2023-08-06T07:21:56.000Z</time>
</trkpt>
<trkpt lat="46.0386900" lon="10.4852410">
	<ele>2352.80</ele>
	<time>2023-08-06T07:21:57.000Z</time>
</trkpt>
<trkpt lat="46.0386910" lon="10.4852430">
	<ele>2352.80</ele>
	<time>2023-08-06T07:21:58.000Z</time>
</trkpt>
<trkpt lat="46.0386910" lon="10.4852440">
	<ele>2353.00</ele>
	<time>2023-08-06T07:21:59.000Z</time>
</trkpt>
<trkpt lat="46.0386920" lon="10.4852450">
	<ele>2353.20</ele>
	<time>2023-08-06T07:22:00.000Z</time>
</trkpt>
<trkpt lat="46.0386920" lon="10.4852450">
	<ele>2353.40</ele>
	<time>2023-08-06T07:22:01.000Z</time>
</trkpt>
<trkpt lat="46.0386920" lon="10.4852450">
	<ele>2353.40</ele>
	<time>2023-08-06T07:22:02.000Z</time>
</trkpt>
<trkpt lat="46.0386920" lon="10.4852450">
	<ele>2353.60</ele>
	<time>2023-08-06T07:22:03.000Z</time>
</trkpt>
<trkpt lat="46.0386920" lon="10.4852450">
	<ele>2353.60</ele>
	<time>2023-08-06T07:22:04.000Z</time>
</trkpt>
<trkpt lat="46.0386920" lon="10.4852450">
	<ele>2353.60</ele>
	<time>2023-08-06T07:22:05.000Z</time>
</trkpt>
<trkpt lat="46.0386920" lon="10.4852450">
	<ele>2353.60</ele>
	<time>2023-08-06T07:22:06.000Z</time>
</trkpt>
<trkpt lat="46.0386920" lon="10.4852450">
	<ele>2353.60</ele>
	<time>2023-08-06T07:22:07.000Z</time>
</trkpt>
<trkpt lat="46.0386920" lon="10.4852450">
	<ele>2353.60</ele>
	<time>2023-08-06T07:22:08.000Z</time>
</trkpt>
<trkpt lat="46.0386920" lon="10.4852450">
	<ele>2353.60</ele>
	<time>2023-08-06T07:22:09.000Z</time>
</trkpt>
<trkpt lat="46.0386920" lon="10.4852450">
	<ele>2353.60</ele>
	<time>2023-08-06T07:22:10.000Z</time>
</trkpt>
<trkpt lat="46.0386910" lon="10.4852450">
	<ele>2353.60</ele>
	<time>2023-08-06T07:22:11.000Z</time>
</trkpt>
<trkpt lat="46.0386910" lon="10.4852450">
	<ele>2353.60</ele>
	<time>2023-08-06T07:22:12.000Z</time>
</trkpt>
<trkpt lat="46.0386910" lon="10.4852450">
	<ele>2353.80</ele>
	<time>2023-08-06T07:22:13.000Z</time>
</trkpt>
<trkpt lat="46.0386910" lon="10.4852450">
	<ele>2353.80</ele>
	<time>2023-08-06T07:22:14.000Z</time>
</trkpt>
<trkpt lat="46.0386910" lon="10.4852450">
	<ele>2353.80</ele>
	<time>2023-08-06T07:22:15.000Z</time>
</trkpt>
<trkpt lat="46.0386910" lon="10.4852450">
	<ele>2354.00</ele>
	<time>2023-08-06T07:22:16.000Z</time>
</trkpt>
<trkpt lat="46.0386910" lon="10.4852450">
	<ele>2354.00</ele>
	<time>2023-08-06T07:22:17.000Z</time>
</trkpt>
<trkpt lat="46.0386910" lon="10.4852450">
	<ele>2354.00</ele>
	<time>2023-08-06T07:22:18.000Z</time>
</trkpt>
<trkpt lat="46.0386910" lon="10.4852450">
	<ele>2353.60</ele>
	<time>2023-08-06T07:22:19.000Z</time>
</trkpt>
<trkpt lat="46.0386910" lon="10.4852450">
	<ele>2353.40</ele>
	<time>2023-08-06T07:22:20.000Z</time>
</trkpt>
<trkpt lat="46.0386910" lon="10.4852450">
	<ele>2353.20</ele>
	<time>2023-08-06T07:22:21.000Z</time>
</trkpt>
<trkpt lat="46.0386910" lon="10.4852460">
	<ele>2353.00</ele>
	<time>2023-08-06T07:22:22.000Z</time>
</trkpt>
<trkpt lat="46.0386910" lon="10.4852460">
	<ele>2353.00</ele>
	<time>2023-08-06T07:22:23.000Z</time>
</trkpt>
<trkpt lat="46.0386910" lon="10.4852460">
	<ele>2353.00</ele>
	<time>2023-08-06T07:22:24.000Z</time>
</trkpt>
<trkpt lat="46.0386910" lon="10.4852460">
	<ele>2353.00</ele>
	<time>2023-08-06T07:22:25.000Z</time>
</trkpt>
<trkpt lat="46.0386910" lon="10.4852460">
	<ele>2353.00</ele>
	<time>2023-08-06T07:22:26.000Z</time>
</trkpt>
<trkpt lat="46.0386910" lon="10.4852460">
	<ele>2353.20</ele>
	<time>2023-08-06T07:22:27.000Z</time>
</trkpt>
<trkpt lat="46.0386910" lon="10.4852460">
	<ele>2353.20</ele>
	<time>2023-08-06T07:22:28.000Z</time>
</trkpt>
<trkpt lat="46.0386910" lon="10.4852460">
	<ele>2353.20</ele>
	<time>2023-08-06T07:22:29.000Z</time>
</trkpt>
<trkpt lat="46.0386910" lon="10.4852460">
	<ele>2353.20</ele>
	<time>2023-08-06T07:22:30.000Z</time>
</trkpt>
<trkpt lat="46.0386910" lon="10.4852470">
	<ele>2353.20</ele>
	<time>2023-08-06T07:22:31.000Z</time>
</trkpt>
<trkpt lat="46.0386910" lon="10.4852470">
	<ele>2353.20</ele>
	<time>2023-08-06T07:22:32.000Z</time>
</trkpt>
<trkpt lat="46.0386910" lon="10.4852470">
	<ele>2353.00</ele>
	<time>2023-08-06T07:22:33.000Z</time>
</trkpt>
<trkpt lat="46.0386910" lon="10.4852470">
	<ele>2352.60</ele>
	<time>2023-08-06T07:22:34.000Z</time>
</trkpt>
<trkpt lat="46.0386910" lon="10.4852500">
	<ele>2352.40</ele>
	<time>2023-08-06T07:22:35.000Z</time>
</trkpt>
<trkpt lat="46.0386910" lon="10.4852510">
	<ele>2352.20</ele>
	<time>2023-08-06T07:22:36.000Z</time>
</trkpt>
<trkpt lat="46.0386920" lon="10.4852530">
	<ele>2352.20</ele>
	<time>2023-08-06T07:22:37.000Z</time>
</trkpt>
<trkpt lat="46.0386930" lon="10.4852540">
	<ele>2352.20</ele>
	<time>2023-08-06T07:22:38.000Z</time>
</trkpt>
<trkpt lat="46.0386970" lon="10.4852540">
	<ele>2352.20</ele>
	<time>2023-08-06T07:22:39.000Z</time>
</trkpt>
<trkpt lat="46.0386990" lon="10.4852550">
	<ele>2352.20</ele>
	<time>2023-08-06T07:22:40.000Z</time>
</trkpt>
<trkpt lat="46.0387010" lon="10.4852560">
	<ele>2352.20</ele>
	<time>2023-08-06T07:22:41.000Z</time>
</trkpt>
<trkpt lat="46.0387020" lon="10.4852560">
	<ele>2352.20</ele>
	<time>2023-08-06T07:22:42.000Z</time>
</trkpt>
<trkpt lat="46.0387020" lon="10.4852570">
	<ele>2352.20</ele>
	<time>2023-08-06T07:22:43.000Z</time>
</trkpt>
<trkpt lat="46.0387020" lon="10.4852580">
	<ele>2352.20</ele>
	<time>2023-08-06T07:22:44.000Z</time>
</trkpt>
<trkpt lat="46.0387020" lon="10.4852590">
	<ele>2352.20</ele>
	<time>2023-08-06T07:22:45.000Z</time>
</trkpt>
<trkpt lat="46.0387030" lon="10.4852630">
	<ele>2352.20</ele>
	<time>2023-08-06T07:22:46.000Z</time>
</trkpt>
<trkpt lat="46.0387030" lon="10.4852670">
	<ele>2352.20</ele>
	<time>2023-08-06T07:22:47.000Z</time>
</trkpt>
<trkpt lat="46.0387030" lon="10.4852690">
	<ele>2352.20</ele>
	<time>2023-08-06T07:22:48.000Z</time>
</trkpt>
<trkpt lat="46.0387030" lon="10.4852700">
	<ele>2352.20</ele>
	<time>2023-08-06T07:22:49.000Z</time>
</trkpt>
<trkpt lat="46.0387030" lon="10.4852700">
	<ele>2352.20</ele>
	<time>2023-08-06T07:22:50.000Z</time>
</trkpt>
<trkpt lat="46.0387040" lon="10.4852700">
	<ele>2352.00</ele>
	<time>2023-08-06T07:22:51.000Z</time>
</trkpt>
<trkpt lat="46.0387040" lon="10.4852700">
	<ele>2352.00</ele>
	<time>2023-08-06T07:22:52.000Z</time>
</trkpt>
<trkpt lat="46.0387040" lon="10.4852700">
	<ele>2351.80</ele>
	<time>2023-08-06T07:22:53.000Z</time>
</trkpt>
<trkpt lat="46.0387040" lon="10.4852700">
	<ele>2351.60</ele>
	<time>2023-08-06T07:22:54.000Z</time>
</trkpt>
<trkpt lat="46.0387080" lon="10.4852690">
	<ele>2351.40</ele>
	<time>2023-08-06T07:22:55.000Z</time>
</trkpt>
<trkpt lat="46.0387190" lon="10.4852650">
	<ele>2351.40</ele>
	<time>2023-08-06T07:22:56.000Z</time>
</trkpt>
<trkpt lat="46.0387320" lon="10.4852680">
	<ele>2351.20</ele>
	<time>2023-08-06T07:22:57.000Z</time>
</trkpt>
<trkpt lat="46.0387440" lon="10.4852720">
	<ele>2351.20</ele>
	<time>2023-08-06T07:22:58.000Z</time>
</trkpt>
<trkpt lat="46.0387580" lon="10.4852750">
	<ele>2351.00</ele>
	<time>2023-08-06T07:22:59.000Z</time>
</trkpt>
<trkpt lat="46.0387680" lon="10.4852810">
	<ele>2351.00</ele>
	<time>2023-08-06T07:23:00.000Z</time>
</trkpt>
<trkpt lat="46.0387750" lon="10.4852890">
	<ele>2350.80</ele>
	<time>2023-08-06T07:23:01.000Z</time>
</trkpt>
<trkpt lat="46.0387840" lon="10.4852970">
	<ele>2350.80</ele>
	<time>2023-08-06T07:23:02.000Z</time>
</trkpt>
<trkpt lat="46.0387940" lon="10.4853060">
	<ele>2350.80</ele>
	<time>2023-08-06T07:23:03.000Z</time>
</trkpt>
<trkpt lat="46.0388060" lon="10.4853060">
	<ele>2350.60</ele>
	<time>2023-08-06T07:23:04.000Z</time>
</trkpt>
<trkpt lat="46.0388110" lon="10.4853100">
	<ele>2350.60</ele>
	<time>2023-08-06T07:23:05.000Z</time>
</trkpt>
<trkpt lat="46.0388130" lon="10.4853140">
	<ele>2350.80</ele>
	<time>2023-08-06T07:23:06.000Z</time>
</trkpt>
<trkpt lat="46.0388220" lon="10.4853110">
	<ele>2350.80</ele>
	<time>2023-08-06T07:23:07.000Z</time>
</trkpt>
<trkpt lat="46.0388280" lon="10.4853080">
	<ele>2351.00</ele>
	<time>2023-08-06T07:23:08.000Z</time>
</trkpt>
<trkpt lat="46.0388350" lon="10.4853050">
	<ele>2351.00</ele>
	<time>2023-08-06T07:23:09.000Z</time>
</trkpt>
<trkpt lat="46.0388450" lon="10.4853010">
	<ele>2351.00</ele>
	<time>2023-08-06T07:23:10.000Z</time>
</trkpt>
<trkpt lat="46.0388520" lon="10.4852980">
	<ele>2351.20</ele>
	<time>2023-08-06T07:23:11.000Z</time>
</trkpt>
<trkpt lat="46.0388620" lon="10.4852950">
	<ele>2351.20</ele>
	<time>2023-08-06T07:23:12.000Z</time>
</trkpt>
<trkpt lat="46.0387720" lon="10.4853970">
	<ele>2350.80</ele>
	<time>2023-08-06T07:23:33.000Z</time>
</trkpt>
<trkpt lat="46.0387510" lon="10.4854410">
	<ele>2350.80</ele>
	<time>2023-08-06T07:23:34.000Z</time>
</trkpt>
<trkpt lat="46.0387520" lon="10.4854350">
	<ele>2350.60</ele>
	<time>2023-08-06T07:23:35.000Z</time>
</trkpt>
<trkpt lat="46.0387600" lon="10.4854260">
	<ele>2350.60</ele>
	<time>2023-08-06T07:23:36.000Z</time>
</trkpt>
<trkpt lat="46.0387560" lon="10.4853860">
	<ele>2350.40</ele>
	<time>2023-08-06T07:23:37.000Z</time>
</trkpt>
<trkpt lat="46.0387530" lon="10.4853860">
	<ele>2350.40</ele>
	<time>2023-08-06T07:23:38.000Z</time>
</trkpt>
<trkpt lat="46.0387520" lon="10.4853840">
	<ele>2350.40</ele>
	<time>2023-08-06T07:23:39.000Z</time>
</trkpt>
<trkpt lat="46.0387530" lon="10.4853830">
	<ele>2350.60</ele>
	<time>2023-08-06T07:23:40.000Z</time>
</trkpt>
<trkpt lat="46.0387530" lon="10.4853810">
	<ele>2350.80</ele>
	<time>2023-08-06T07:23:41.000Z</time>
</trkpt>
<trkpt lat="46.0387530" lon="10.4853800">
	<ele>2350.80</ele>
	<time>2023-08-06T07:23:42.000Z</time>
</trkpt>
<trkpt lat="46.0387530" lon="10.4853810">
	<ele>2350.80</ele>
	<time>2023-08-06T07:23:43.000Z</time>
</trkpt>
<trkpt lat="46.0387530" lon="10.4853800">
	<ele>2351.00</ele>
	<time>2023-08-06T07:23:44.000Z</time>
</trkpt>
<trkpt lat="46.0387530" lon="10.4853800">
	<ele>2351.00</ele>
	<time>2023-08-06T07:23:45.000Z</time>
</trkpt>
<trkpt lat="46.0387540" lon="10.4853800">
	<ele>2351.00</ele>
	<time>2023-08-06T07:23:46.000Z</time>
</trkpt>
<trkpt lat="46.0387530" lon="10.4853800">
	<ele>2351.00</ele>
	<time>2023-08-06T07:23:47.000Z</time>
</trkpt>
<trkpt lat="46.0387530" lon="10.4853810">
	<ele>2351.00</ele>
	<time>2023-08-06T07:23:48.000Z</time>
</trkpt>
<trkpt lat="46.0387540" lon="10.4853810">
	<ele>2351.00</ele>
	<time>2023-08-06T07:23:49.000Z</time>
</trkpt>
<trkpt lat="46.0387540" lon="10.4853810">
	<ele>2351.00</ele>
	<time>2023-08-06T07:23:50.000Z</time>
</trkpt>
<trkpt lat="46.0387540" lon="10.4853810">
	<ele>2351.00</ele>
	<time>2023-08-06T07:23:51.000Z</time>
</trkpt>
<trkpt lat="46.0387530" lon="10.4853820">
	<ele>2351.00</ele>
	<time>2023-08-06T07:23:52.000Z</time>
</trkpt>
<trkpt lat="46.0387520" lon="10.4853860">
	<ele>2351.00</ele>
	<time>2023-08-06T07:23:53.000Z</time>
</trkpt>
<trkpt lat="46.0387500" lon="10.4853880">
	<ele>2350.80</ele>
	<time>2023-08-06T07:23:54.000Z</time>
</trkpt>
<trkpt lat="46.0387490" lon="10.4853850">
	<ele>2350.40</ele>
	<time>2023-08-06T07:23:55.000Z</time>
</trkpt>
<trkpt lat="46.0387400" lon="10.4853880">
	<ele>2350.20</ele>
	<time>2023-08-06T07:23:56.000Z</time>
</trkpt>
<trkpt lat="46.0387330" lon="10.4853860">
	<ele>2350.20</ele>
	<time>2023-08-06T07:23:57.000Z</time>
</trkpt>
<trkpt lat="46.0387340" lon="10.4853780">
	<ele>2350.00</ele>
	<time>2023-08-06T07:23:58.000Z</time>
</trkpt>
<trkpt lat="46.0387270" lon="10.4853680">
	<ele>2350.20</ele>
	<time>2023-08-06T07:23:59.000Z</time>
</trkpt>
<trkpt lat="46.0387200" lon="10.4853590">
	<ele>2350.20</ele>
	<time>2023-08-06T07:24:00.000Z</time>
</trkpt>
<trkpt lat="46.0387120" lon="10.4853510">
	<ele>2350.20</ele>
	<time>2023-08-06T07:24:01.000Z</time>
</trkpt>
<trkpt lat="46.0387080" lon="10.4853390">
	<ele>2350.20</ele>
	<time>2023-08-06T07:24:02.000Z</time>
</trkpt>
<trkpt lat="46.0387040" lon="10.4853270">
	<ele>2350.40</ele>
	<time>2023-08-06T07:24:03.000Z</time>
</trkpt>
<trkpt lat="46.0387020" lon="10.4853220">
	<ele>2350.40</ele>
	<time>2023-08-06T07:24:04.000Z</time>
</trkpt>
<trkpt lat="46.0386950" lon="10.4853140">
	<ele>2350.40</ele>
	<time>2023-08-06T07:24:05.000Z</time>
</trkpt>
<trkpt lat="46.0386910" lon="10.4853120">
	<ele>2350.60</ele>
	<time>2023-08-06T07:24:06.000Z</time>
</trkpt>
<trkpt lat="46.0386930" lon="10.4853080">
	<ele>2350.60</ele>
	<time>2023-08-06T07:24:07.000Z</time>
</trkpt>
<trkpt lat="46.0386940" lon="10.4853040">
	<ele>2351.40</ele>
	<time>2023-08-06T07:24:08.000Z</time>
</trkpt>
<trkpt lat="46.0386900" lon="10.4853060">
	<ele>2351.40</ele>
	<time>2023-08-06T07:24:09.000Z</time>
</trkpt>
<trkpt lat="46.0386890" lon="10.4853030">
	<ele>2351.40</ele>
	<time>2023-08-06T07:24:10.000Z</time>
</trkpt>
<trkpt lat="46.0386880" lon="10.4853060">
	<ele>2351.40</ele>
	<time>2023-08-06T07:24:11.000Z</time>
</trkpt>
<trkpt lat="46.0386880" lon="10.4853050">
	<ele>2351.40</ele>
	<time>2023-08-06T07:24:12.000Z</time>
</trkpt>
<trkpt lat="46.0386880" lon="10.4853070">
	<ele>2351.40</ele>
	<time>2023-08-06T07:24:13.000Z</time>
</trkpt>
<trkpt lat="46.0386880" lon="10.4853030">
	<ele>2351.40</ele>
	<time>2023-08-06T07:24:14.000Z</time>
</trkpt>
<trkpt lat="46.0386810" lon="10.4853050">
	<ele>2351.40</ele>
	<time>2023-08-06T07:24:15.000Z</time>
</trkpt>
<trkpt lat="46.0386740" lon="10.4853100">
	<ele>2351.40</ele>
	<time>2023-08-06T07:24:16.000Z</time>
</trkpt>
<trkpt lat="46.0386650" lon="10.4853120">
	<ele>2351.40</ele>
	<time>2023-08-06T07:24:17.000Z</time>
</trkpt>
<trkpt lat="46.0386750" lon="10.4853040">
	<ele>2351.40</ele>
	<time>2023-08-06T07:24:18.000Z</time>
</trkpt>
<trkpt lat="46.0386740" lon="10.4853140">
	<ele>2351.40</ele>
	<time>2023-08-06T07:24:19.000Z</time>
</trkpt>
<trkpt lat="46.0386700" lon="10.4853180">
	<ele>2351.40</ele>
	<time>2023-08-06T07:24:20.000Z</time>
</trkpt>
<trkpt lat="46.0386660" lon="10.4853230">
	<ele>2351.40</ele>
	<time>2023-08-06T07:24:21.000Z</time>
</trkpt>
<trkpt lat="46.0386570" lon="10.4853300">
	<ele>2351.40</ele>
	<time>2023-08-06T07:24:22.000Z</time>
</trkpt>
<trkpt lat="46.0386470" lon="10.4853320">
	<ele>2351.40</ele>
	<time>2023-08-06T07:24:23.000Z</time>
</trkpt>
<trkpt lat="46.0386340" lon="10.4853430">
	<ele>2351.40</ele>
	<time>2023-08-06T07:24:24.000Z</time>
</trkpt>
<trkpt lat="46.0386120" lon="10.4853640">
	<ele>2351.40</ele>
	<time>2023-08-06T07:24:25.000Z</time>
</trkpt>
<trkpt lat="46.0386090" lon="10.4853580">
	<ele>2351.40</ele>
	<time>2023-08-06T07:24:26.000Z</time>
</trkpt>
<trkpt lat="46.0386030" lon="10.4853560">
	<ele>2351.40</ele>
	<time>2023-08-06T07:24:27.000Z</time>
</trkpt>
<trkpt lat="46.0386120" lon="10.4853540">
	<ele>2351.40</ele>
	<time>2023-08-06T07:24:28.000Z</time>
</trkpt>
<trkpt lat="46.0386110" lon="10.4853380">
	<ele>2351.40</ele>
	<time>2023-08-06T07:24:29.000Z</time>
</trkpt>
<trkpt lat="46.0386130" lon="10.4853340">
	<ele>2351.40</ele>
	<time>2023-08-06T07:24:30.000Z</time>
</trkpt>
<trkpt lat="46.0386090" lon="10.4853340">
	<ele>2351.40</ele>
	<time>2023-08-06T07:24:31.000Z</time>
</trkpt>
<trkpt lat="46.0386130" lon="10.4853340">
	<ele>2351.40</ele>
	<time>2023-08-06T07:24:32.000Z</time>
</trkpt>
<trkpt lat="46.0386170" lon="10.4853340">
	<ele>2351.40</ele>
	<time>2023-08-06T07:24:33.000Z</time>
</trkpt>
<trkpt lat="46.0386200" lon="10.4853320">
	<ele>2351.40</ele>
	<time>2023-08-06T07:24:34.000Z</time>
</trkpt>
<trkpt lat="46.0386210" lon="10.4853290">
	<ele>2351.40</ele>
	<time>2023-08-06T07:24:35.000Z</time>
</trkpt>
<trkpt lat="46.0386210" lon="10.4853270">
	<ele>2351.40</ele>
	<time>2023-08-06T07:24:36.000Z</time>
</trkpt>
<trkpt lat="46.0386210" lon="10.4853270">
	<ele>2351.40</ele>
	<time>2023-08-06T07:24:37.000Z</time>
</trkpt>
<trkpt lat="46.0386210" lon="10.4853270">
	<ele>2351.40</ele>
	<time>2023-08-06T07:24:38.000Z</time>
</trkpt>
<trkpt lat="46.0386210" lon="10.4853270">
	<ele>2351.40</ele>
	<time>2023-08-06T07:24:39.000Z</time>
</trkpt>
<trkpt lat="46.0386210" lon="10.4853270">
	<ele>2351.40</ele>
	<time>2023-08-06T07:24:40.000Z</time>
</trkpt>
<trkpt lat="46.0386210" lon="10.4853270">
	<ele>2351.40</ele>
	<time>2023-08-06T07:24:41.000Z</time>
</trkpt>
<trkpt lat="46.0386210" lon="10.4853270">
	<ele>2351.40</ele>
	<time>2023-08-06T07:24:42.000Z</time>
</trkpt>
<trkpt lat="46.0386210" lon="10.4853270">
	<ele>2351.40</ele>
	<time>2023-08-06T07:24:43.000Z</time>
</trkpt>
<trkpt lat="46.0386210" lon="10.4853270">
	<ele>2351.40</ele>
	<time>2023-08-06T07:24:44.000Z</time>
</trkpt>
<trkpt lat="46.0386210" lon="10.4853270">
	<ele>2351.40</ele>
	<time>2023-08-06T07:24:45.000Z</time>
</trkpt>
<trkpt lat="46.0386210" lon="10.4853270">
	<ele>2351.40</ele>
	<time>2023-08-06T07:24:46.000Z</time>
</trkpt>
<trkpt lat="46.0386210" lon="10.4853270">
	<ele>2351.40</ele>
	<time>2023-08-06T07:24:47.000Z</time>
</trkpt>
<trkpt lat="46.0386210" lon="10.4853270">
	<ele>2351.40</ele>
	<time>2023-08-06T07:24:48.000Z</time>
</trkpt>
<trkpt lat="46.0386210" lon="10.4853270">
	<ele>2351.40</ele>
	<time>2023-08-06T07:24:49.000Z</time>
</trkpt>
<trkpt lat="46.0386210" lon="10.4853270">
	<ele>2351.40</ele>
	<time>2023-08-06T07:24:50.000Z</time>
</trkpt>
<trkpt lat="46.0386210" lon="10.4853270">
	<ele>2351.40</ele>
	<time>2023-08-06T07:24:51.000Z</time>
</trkpt>
<trkpt lat="46.0386210" lon="10.4853270">
	<ele>2351.40</ele>
	<time>2023-08-06T07:24:52.000Z</time>
</trkpt>
<trkpt lat="46.0386210" lon="10.4853270">
	<ele>2351.40</ele>
	<time>2023-08-06T07:24:53.000Z</time>
</trkpt>
<trkpt lat="46.0386210" lon="10.4853270">
	<ele>2351.40</ele>
	<time>2023-08-06T07:24:54.000Z</time>
</trkpt>
<trkpt lat="46.0386230" lon="10.4853220">
	<ele>2351.40</ele>
	<time>2023-08-06T07:24:55.000Z</time>
</trkpt>
<trkpt lat="46.0386290" lon="10.4853100">
	<ele>2351.40</ele>
	<time>2023-08-06T07:24:56.000Z</time>
</trkpt>
<trkpt lat="46.0386360" lon="10.4852890">
	<ele>2351.40</ele>
	<time>2023-08-06T07:24:57.000Z</time>
</trkpt>
<trkpt lat="46.0386450" lon="10.4852770">
	<ele>2351.40</ele>
	<time>2023-08-06T07:24:58.000Z</time>
</trkpt>
<trkpt lat="46.0386540" lon="10.4852600">
	<ele>2351.40</ele>
	<time>2023-08-06T07:24:59.000Z</time>
</trkpt>
<trkpt lat="46.0386580" lon="10.4852490">
	<ele>2351.40</ele>
	<time>2023-08-06T07:25:00.000Z</time>
</trkpt>
<trkpt lat="46.0386630" lon="10.4852370">
	<ele>2351.40</ele>
	<time>2023-08-06T07:25:01.000Z</time>
</trkpt>
<trkpt lat="46.0386650" lon="10.4852210">
	<ele>2351.40</ele>
	<time>2023-08-06T07:25:02.000Z</time>
</trkpt>
<trkpt lat="46.0386700" lon="10.4852060">
	<ele>2351.40</ele>
	<time>2023-08-06T07:25:03.000Z</time>
</trkpt>
<trkpt lat="46.0386770" lon="10.4851880">
	<ele>2351.40</ele>
	<time>2023-08-06T07:25:04.000Z</time>
</trkpt>
<trkpt lat="46.0386810" lon="10.4851750">
	<ele>2350.80</ele>
	<time>2023-08-06T07:25:05.000Z</time>
</trkpt>
<trkpt lat="46.0386850" lon="10.4851620">
	<ele>2350.40</ele>
	<time>2023-08-06T07:25:06.000Z</time>
</trkpt>
<trkpt lat="46.0386880" lon="10.4851580">
	<ele>2350.20</ele>
	<time>2023-08-06T07:25:07.000Z</time>
</trkpt>
<trkpt lat="46.0386890" lon="10.4851550">
	<ele>2350.20</ele>
	<time>2023-08-06T07:25:08.000Z</time>
</trkpt>
<trkpt lat="46.0386890" lon="10.4851530">
	<ele>2350.00</ele>
	<time>2023-08-06T07:25:09.000Z</time>
</trkpt>
<trkpt lat="46.0386830" lon="10.4851590">
	<ele>2350.00</ele>
	<time>2023-08-06T07:25:10.000Z</time>
</trkpt>
<trkpt lat="46.0386770" lon="10.4851610">
	<ele>2350.00</ele>
	<time>2023-08-06T07:25:11.000Z</time>
</trkpt>
<trkpt lat="46.0386680" lon="10.4851610">
	<ele>2350.00</ele>
	<time>2023-08-06T07:25:12.000Z</time>
</trkpt>
<trkpt lat="46.0386610" lon="10.4851590">
	<ele>2349.80</ele>
	<time>2023-08-06T07:25:13.000Z</time>
</trkpt>
<trkpt lat="46.0386560" lon="10.4851570">
	<ele>2349.60</ele>
	<time>2023-08-06T07:25:14.000Z</time>
</trkpt>
<trkpt lat="46.0386530" lon="10.4851540">
	<ele>2349.00</ele>
	<time>2023-08-06T07:25:15.000Z</time>
</trkpt>
<trkpt lat="46.0386480" lon="10.4851610">
	<ele>2348.80</ele>
	<time>2023-08-06T07:25:16.000Z</time>
</trkpt>
<trkpt lat="46.0386440" lon="10.4851630">
	<ele>2348.20</ele>
	<time>2023-08-06T07:25:17.000Z</time>
</trkpt>
<trkpt lat="46.0386370" lon="10.4851660">
	<ele>2348.00</ele>
	<time>2023-08-06T07:25:18.000Z</time>
</trkpt>
<trkpt lat="46.0386290" lon="10.4851710">
	<ele>2347.80</ele>
	<time>2023-08-06T07:25:19.000Z</time>
</trkpt>
<trkpt lat="46.0386230" lon="10.4851710">
	<ele>2347.60</ele>
	<time>2023-08-06T07:25:20.000Z</time>
</trkpt>
<trkpt lat="46.0386170" lon="10.4851700">
	<ele>2347.40</ele>
	<time>2023-08-06T07:25:21.000Z</time>
</trkpt>
<trkpt lat="46.0386100" lon="10.4851700">
	<ele>2347.20</ele>
	<time>2023-08-06T07:25:22.000Z</time>
</trkpt>
<trkpt lat="46.0386070" lon="10.4851700">
	<ele>2347.00</ele>
	<time>2023-08-06T07:25:23.000Z</time>
</trkpt>
<trkpt lat="46.0386030" lon="10.4851670">
	<ele>2346.60</ele>
	<time>2023-08-06T07:25:24.000Z</time>
</trkpt>
<trkpt lat="46.0385980" lon="10.4851750">
	<ele>2346.40</ele>
	<time>2023-08-06T07:25:25.000Z</time>
</trkpt>
<trkpt lat="46.0385900" lon="10.4851850">
	<ele>2346.20</ele>
	<time>2023-08-06T07:25:26.000Z</time>
</trkpt>
<trkpt lat="46.0385860" lon="10.4851900">
	<ele>2345.80</ele>
	<time>2023-08-06T07:25:27.000Z</time>
</trkpt>
<trkpt lat="46.0385780" lon="10.4851950">
	<ele>2345.60</ele>
	<time>2023-08-06T07:25:28.000Z</time>
</trkpt>
<trkpt lat="46.0385700" lon="10.4852020">
	<ele>2345.40</ele>
	<time>2023-08-06T07:25:29.000Z</time>
</trkpt>
<trkpt lat="46.0385640" lon="10.4852040">
	<ele>2345.20</ele>
	<time>2023-08-06T07:25:30.000Z</time>
</trkpt>
<trkpt lat="46.0385570" lon="10.4851980">
	<ele>2345.00</ele>
	<time>2023-08-06T07:25:31.000Z</time>
</trkpt>
<trkpt lat="46.0385520" lon="10.4851890">
	<ele>2344.80</ele>
	<time>2023-08-06T07:25:32.000Z</time>
</trkpt>
<trkpt lat="46.0385490" lon="10.4851790">
	<ele>2344.40</ele>
	<time>2023-08-06T07:25:33.000Z</time>
</trkpt>
<trkpt lat="46.0385470" lon="10.4851760">
	<ele>2344.00</ele>
	<time>2023-08-06T07:25:34.000Z</time>
</trkpt>
<trkpt lat="46.0385520" lon="10.4851650">
	<ele>2343.60</ele>
	<time>2023-08-06T07:25:35.000Z</time>
</trkpt>
<trkpt lat="46.0385530" lon="10.4851580">
	<ele>2343.20</ele>
	<time>2023-08-06T07:25:36.000Z</time>
</trkpt>
<trkpt lat="46.0385530" lon="10.4851530">
	<ele>2343.00</ele>
	<time>2023-08-06T07:25:37.000Z</time>
</trkpt>
<trkpt lat="46.0385540" lon="10.4851520">
	<ele>2342.80</ele>
	<time>2023-08-06T07:25:38.000Z</time>
</trkpt>
<trkpt lat="46.0385550" lon="10.4851560">
	<ele>2342.40</ele>
	<time>2023-08-06T07:25:39.000Z</time>
</trkpt>
<trkpt lat="46.0385540" lon="10.4851570">
	<ele>2342.20</ele>
	<time>2023-08-06T07:25:40.000Z</time>
</trkpt>
<trkpt lat="46.0385530" lon="10.4851600">
	<ele>2342.20</ele>
	<time>2023-08-06T07:25:41.000Z</time>
</trkpt>
<trkpt lat="46.0385510" lon="10.4851610">
	<ele>2342.20</ele>
	<time>2023-08-06T07:25:42.000Z</time>
</trkpt>
<trkpt lat="46.0385500" lon="10.4851600">
	<ele>2342.20</ele>
	<time>2023-08-06T07:25:43.000Z</time>
</trkpt>
<trkpt lat="46.0385510" lon="10.4851580">
	<ele>2342.20</ele>
	<time>2023-08-06T07:25:44.000Z</time>
</trkpt>
<trkpt lat="46.0385560" lon="10.4851540">
	<ele>2342.20</ele>
	<time>2023-08-06T07:25:45.000Z</time>
</trkpt>
<trkpt lat="46.0385570" lon="10.4851540">
	<ele>2342.20</ele>
	<time>2023-08-06T07:25:46.000Z</time>
</trkpt>
<trkpt lat="46.0385580" lon="10.4851550">
	<ele>2342.00</ele>
	<time>2023-08-06T07:25:47.000Z</time>
</trkpt>
<trkpt lat="46.0385580" lon="10.4851560">
	<ele>2342.00</ele>
	<time>2023-08-06T07:25:48.000Z</time>
</trkpt>
<trkpt lat="46.0385580" lon="10.4851560">
	<ele>2342.00</ele>
	<time>2023-08-06T07:25:49.000Z</time>
</trkpt>
<trkpt lat="46.0385580" lon="10.4851560">
	<ele>2342.00</ele>
	<time>2023-08-06T07:25:50.000Z</time>
</trkpt>
<trkpt lat="46.0385580" lon="10.4851560">
	<ele>2341.80</ele>
	<time>2023-08-06T07:25:51.000Z</time>
</trkpt>
<trkpt lat="46.0385580" lon="10.4851560">
	<ele>2341.80</ele>
	<time>2023-08-06T07:25:52.000Z</time>
</trkpt>
<trkpt lat="46.0385580" lon="10.4851570">
	<ele>2341.80</ele>
	<time>2023-08-06T07:25:53.000Z</time>
</trkpt>
<trkpt lat="46.0385590" lon="10.4851500">
	<ele>2341.80</ele>
	<time>2023-08-06T07:25:54.000Z</time>
</trkpt>
<trkpt lat="46.0385630" lon="10.4851440">
	<ele>2341.80</ele>
	<time>2023-08-06T07:25:55.000Z</time>
</trkpt>
<trkpt lat="46.0385670" lon="10.4851410">
	<ele>2341.80</ele>
	<time>2023-08-06T07:25:56.000Z</time>
</trkpt>
<trkpt lat="46.0385710" lon="10.4851290">
	<ele>2341.80</ele>
	<time>2023-08-06T07:25:57.000Z</time>
</trkpt>
<trkpt lat="46.0385720" lon="10.4851130">
	<ele>2341.60</ele>
	<time>2023-08-06T07:25:58.000Z</time>
</trkpt>
<trkpt lat="46.0385730" lon="10.4851030">
	<ele>2341.60</ele>
	<time>2023-08-06T07:25:59.000Z</time>
</trkpt>
<trkpt lat="46.0385750" lon="10.4850930">
	<ele>2341.00</ele>
	<time>2023-08-06T07:26:00.000Z</time>
</trkpt>
<trkpt lat="46.0385760" lon="10.4850830">
	<ele>2340.80</ele>
	<time>2023-08-06T07:26:01.000Z</time>
</trkpt>
<trkpt lat="46.0385790" lon="10.4850720">
	<ele>2340.80</ele>
	<time>2023-08-06T07:26:02.000Z</time>
</trkpt>
<trkpt lat="46.0385840" lon="10.4850640">
	<ele>2340.60</ele>
	<time>2023-08-06T07:26:03.000Z</time>
</trkpt>
<trkpt lat="46.0385900" lon="10.4850600">
	<ele>2340.40</ele>
	<time>2023-08-06T07:26:04.000Z</time>
</trkpt>
<trkpt lat="46.0385960" lon="10.4850570">
	<ele>2339.80</ele>
	<time>2023-08-06T07:26:05.000Z</time>
</trkpt>
<trkpt lat="46.0385980" lon="10.4850500">
	<ele>2339.60</ele>
	<time>2023-08-06T07:26:06.000Z</time>
</trkpt>
<trkpt lat="46.0385980" lon="10.4850390">
	<ele>2339.40</ele>
	<time>2023-08-06T07:26:07.000Z</time>
</trkpt>
<trkpt lat="46.0385960" lon="10.4850350">
	<ele>2339.20</ele>
	<time>2023-08-06T07:26:08.000Z</time>
</trkpt>
<trkpt lat="46.0385920" lon="10.4850350">
	<ele>2339.00</ele>
	<time>2023-08-06T07:26:09.000Z</time>
</trkpt>
<trkpt lat="46.0385870" lon="10.4850360">
	<ele>2338.80</ele>
	<time>2023-08-06T07:26:10.000Z</time>
</trkpt>
<trkpt lat="46.0385810" lon="10.4850340">
	<ele>2338.60</ele>
	<time>2023-08-06T07:26:11.000Z</time>
</trkpt>
<trkpt lat="46.0385770" lon="10.4850370">
	<ele>2338.60</ele>
	<time>2023-08-06T07:26:12.000Z</time>
</trkpt>
<trkpt lat="46.0385700" lon="10.4850400">
	<ele>2338.20</ele>
	<time>2023-08-06T07:26:13.000Z</time>
</trkpt>
<trkpt lat="46.0385630" lon="10.4850440">
	<ele>2338.00</ele>
	<time>2023-08-06T07:26:14.000Z</time>
</trkpt>
<trkpt lat="46.0385570" lon="10.4850480">
	<ele>2337.80</ele>
	<time>2023-08-06T07:26:15.000Z</time>
</trkpt>
<trkpt lat="46.0385520" lon="10.4850560">
	<ele>2337.40</ele>
	<time>2023-08-06T07:26:16.000Z</time>
</trkpt>
<trkpt lat="46.0385420" lon="10.4850650">
	<ele>2337.20</ele>
	<time>2023-08-06T07:26:17.000Z</time>
</trkpt>
<trkpt lat="46.0385310" lon="10.4850730">
	<ele>2337.00</ele>
	<time>2023-08-06T07:26:18.000Z</time>
</trkpt>
<trkpt lat="46.0385250" lon="10.4850820">
	<ele>2336.80</ele>
	<time>2023-08-06T07:26:19.000Z</time>
</trkpt>
<trkpt lat="46.0385170" lon="10.4850870">
	<ele>2336.80</ele>
	<time>2023-08-06T07:26:20.000Z</time>
</trkpt>
<trkpt lat="46.0385070" lon="10.4850870">
	<ele>2336.60</ele>
	<time>2023-08-06T07:26:21.000Z</time>
</trkpt>
<trkpt lat="46.0384990" lon="10.4850880">
	<ele>2336.60</ele>
	<time>2023-08-06T07:26:22.000Z</time>
</trkpt>
<trkpt lat="46.0384890" lon="10.4850910">
	<ele>2336.40</ele>
	<time>2023-08-06T07:26:23.000Z</time>
</trkpt>
<trkpt lat="46.0384810" lon="10.4850940">
	<ele>2336.20</ele>
	<time>2023-08-06T07:26:24.000Z</time>
</trkpt>
<trkpt lat="46.0384750" lon="10.4850990">
	<ele>2336.00</ele>
	<time>2023-08-06T07:26:25.000Z</time>
</trkpt>
<trkpt lat="46.0384690" lon="10.4851060">
	<ele>2335.60</ele>
	<time>2023-08-06T07:26:26.000Z</time>
</trkpt>
<trkpt lat="46.0384610" lon="10.4851120">
	<ele>2335.60</ele>
	<time>2023-08-06T07:26:27.000Z</time>
</trkpt>
<trkpt lat="46.0384530" lon="10.4851180">
	<ele>2335.40</ele>
	<time>2023-08-06T07:26:28.000Z</time>
</trkpt>
<trkpt lat="46.0384480" lon="10.4851210">
	<ele>2335.40</ele>
	<time>2023-08-06T07:26:29.000Z</time>
</trkpt>
<trkpt lat="46.0384430" lon="10.4851250">
	<ele>2335.40</ele>
	<time>2023-08-06T07:26:30.000Z</time>
</trkpt>
<trkpt lat="46.0384390" lon="10.4851260">
	<ele>2335.40</ele>
	<time>2023-08-06T07:26:31.000Z</time>
</trkpt>
<trkpt lat="46.0384320" lon="10.4851230">
	<ele>2335.20</ele>
	<time>2023-08-06T07:26:32.000Z</time>
</trkpt>
<trkpt lat="46.0384280" lon="10.4851200">
	<ele>2335.20</ele>
	<time>2023-08-06T07:26:33.000Z</time>
</trkpt>
<trkpt lat="46.0384260" lon="10.4851200">
	<ele>2335.00</ele>
	<time>2023-08-06T07:26:34.000Z</time>
</trkpt>
<trkpt lat="46.0384240" lon="10.4851180">
	<ele>2335.00</ele>
	<time>2023-08-06T07:26:35.000Z</time>
</trkpt>
<trkpt lat="46.0384240" lon="10.4851170">
	<ele>2334.80</ele>
	<time>2023-08-06T07:26:36.000Z</time>
</trkpt>
<trkpt lat="46.0384230" lon="10.4851180">
	<ele>2334.60</ele>
	<time>2023-08-06T07:26:37.000Z</time>
</trkpt>
<trkpt lat="46.0384210" lon="10.4851200">
	<ele>2334.20</ele>
	<time>2023-08-06T07:26:38.000Z</time>
</trkpt>
<trkpt lat="46.0384210" lon="10.4851250">
	<ele>2334.00</ele>
	<time>2023-08-06T07:26:39.000Z</time>
</trkpt>
<trkpt lat="46.0384200" lon="10.4851250">
	<ele>2333.60</ele>
	<time>2023-08-06T07:26:40.000Z</time>
</trkpt>
<trkpt lat="46.0384200" lon="10.4851240">
	<ele>2333.40</ele>
	<time>2023-08-06T07:26:41.000Z</time>
</trkpt>
<trkpt lat="46.0384200" lon="10.4851180">
	<ele>2333.20</ele>
	<time>2023-08-06T07:26:42.000Z</time>
</trkpt>
<trkpt lat="46.0384170" lon="10.4851160">
	<ele>2333.00</ele>
	<time>2023-08-06T07:26:43.000Z</time>
</trkpt>
<trkpt lat="46.0384110" lon="10.4851120">
	<ele>2333.00</ele>
	<time>2023-08-06T07:26:44.000Z</time>
</trkpt>
<trkpt lat="46.0384050" lon="10.4851040">
	<ele>2333.00</ele>
	<time>2023-08-06T07:26:45.000Z</time>
</trkpt>
<trkpt lat="46.0384030" lon="10.4850970">
	<ele>2333.00</ele>
	<time>2023-08-06T07:26:46.000Z</time>
</trkpt>
<trkpt lat="46.0384020" lon="10.4850920">
	<ele>2333.00</ele>
	<time>2023-08-06T07:26:47.000Z</time>
</trkpt>
<trkpt lat="46.0384040" lon="10.4850880">
	<ele>2329.40</ele>
	<time>2023-08-06T07:26:48.000Z</time>
</trkpt>
<trkpt lat="46.0384070" lon="10.4850820">
	<ele>2327.20</ele>
	<time>2023-08-06T07:26:49.000Z</time>
</trkpt>
<trkpt lat="46.0384080" lon="10.4850780">
	<ele>2326.00</ele>
	<time>2023-08-06T07:26:50.000Z</time>
</trkpt>
<trkpt lat="46.0384090" lon="10.4850760">
	<ele>2325.40</ele>
	<time>2023-08-06T07:26:51.000Z</time>
</trkpt>
<trkpt lat="46.0384100" lon="10.4850720">
	<ele>2324.80</ele>
	<time>2023-08-06T07:26:52.000Z</time>
</trkpt>
<trkpt lat="46.0384140" lon="10.4850640">
	<ele>2324.40</ele>
	<time>2023-08-06T07:26:53.000Z</time>
</trkpt>
<trkpt lat="46.0384190" lon="10.4850550">
	<ele>2324.20</ele>
	<time>2023-08-06T07:26:54.000Z</time>
</trkpt>
<trkpt lat="46.0384240" lon="10.4850500">
	<ele>2323.80</ele>
	<time>2023-08-06T07:26:55.000Z</time>
</trkpt>
<trkpt lat="46.0384280" lon="10.4850430">
	<ele>2323.60</ele>
	<time>2023-08-06T07:26:56.000Z</time>
</trkpt>
<trkpt lat="46.0384300" lon="10.4850370">
	<ele>2323.20</ele>
	<time>2023-08-06T07:26:57.000Z</time>
</trkpt>
<trkpt lat="46.0384320" lon="10.4850290">
	<ele>2323.20</ele>
	<time>2023-08-06T07:26:58.000Z</time>
</trkpt>
<trkpt lat="46.0384370" lon="10.4850230">
	<ele>2323.00</ele>
	<time>2023-08-06T07:26:59.000Z</time>
</trkpt>
<trkpt lat="46.0384410" lon="10.4850180">
	<ele>2322.60</ele>
	<time>2023-08-06T07:27:00.000Z</time>
</trkpt>
<trkpt lat="46.0384450" lon="10.4850120">
	<ele>2322.20</ele>
	<time>2023-08-06T07:27:01.000Z</time>
</trkpt>
<trkpt lat="46.0384520" lon="10.4850040">
	<ele>2322.00</ele>
	<time>2023-08-06T07:27:02.000Z</time>
</trkpt>
<trkpt lat="46.0384550" lon="10.4849970">
	<ele>2321.60</ele>
	<time>2023-08-06T07:27:03.000Z</time>
</trkpt>
<trkpt lat="46.0384580" lon="10.4849930">
	<ele>2321.40</ele>
	<time>2023-08-06T07:27:04.000Z</time>
</trkpt>
<trkpt lat="46.0384610" lon="10.4849820">
	<ele>2321.20</ele>
	<time>2023-08-06T07:27:05.000Z</time>
</trkpt>
<trkpt lat="46.0384630" lon="10.4849710">
	<ele>2321.20</ele>
	<time>2023-08-06T07:27:06.000Z</time>
</trkpt>
<trkpt lat="46.0384640" lon="10.4849650">
	<ele>2321.00</ele>
	<time>2023-08-06T07:27:07.000Z</time>
</trkpt>
<trkpt lat="46.0384640" lon="10.4849560">
	<ele>2321.00</ele>
	<time>2023-08-06T07:27:08.000Z</time>
</trkpt>
<trkpt lat="46.0384640" lon="10.4849470">
	<ele>2320.80</ele>
	<time>2023-08-06T07:27:09.000Z</time>
</trkpt>
<trkpt lat="46.0384630" lon="10.4849350">
	<ele>2320.20</ele>
	<time>2023-08-06T07:27:10.000Z</time>
</trkpt>
<trkpt lat="46.0384650" lon="10.4849260">
	<ele>2319.80</ele>
	<time>2023-08-06T07:27:11.000Z</time>
</trkpt>
<trkpt lat="46.0384660" lon="10.4849200">
	<ele>2319.60</ele>
	<time>2023-08-06T07:27:12.000Z</time>
</trkpt>
<trkpt lat="46.0384690" lon="10.4849130">
	<ele>2319.40</ele>
	<time>2023-08-06T07:27:13.000Z</time>
</trkpt>
<trkpt lat="46.0384730" lon="10.4849050">
	<ele>2319.20</ele>
	<time>2023-08-06T07:27:14.000Z</time>
</trkpt>
<trkpt lat="46.0384760" lon="10.4848960">
	<ele>2319.00</ele>
	<time>2023-08-06T07:27:15.000Z</time>
</trkpt>
<trkpt lat="46.0384810" lon="10.4848890">
	<ele>2318.80</ele>
	<time>2023-08-06T07:27:16.000Z</time>
</trkpt>
<trkpt lat="46.0384870" lon="10.4848790">
	<ele>2318.40</ele>
	<time>2023-08-06T07:27:17.000Z</time>
</trkpt>
<trkpt lat="46.0384860" lon="10.4848680">
	<ele>2318.20</ele>
	<time>2023-08-06T07:27:18.000Z</time>
</trkpt>
<trkpt lat="46.0384830" lon="10.4848580">
	<ele>2317.80</ele>
	<time>2023-08-06T07:27:19.000Z</time>
</trkpt>
<trkpt lat="46.0384810" lon="10.4848460">
	<ele>2317.60</ele>
	<time>2023-08-06T07:27:20.000Z</time>
</trkpt>
<trkpt lat="46.0384830" lon="10.4848270">
	<ele>2317.40</ele>
	<time>2023-08-06T07:27:21.000Z</time>
</trkpt>
<trkpt lat="46.0384850" lon="10.4848080">
	<ele>2317.20</ele>
	<time>2023-08-06T07:27:22.000Z</time>
</trkpt>
<trkpt lat="46.0384880" lon="10.4847900">
	<ele>2317.00</ele>
	<time>2023-08-06T07:27:23.000Z</time>
</trkpt>
<trkpt lat="46.0384960" lon="10.4847670">
	<ele>2316.80</ele>
	<time>2023-08-06T07:27:24.000Z</time>
</trkpt>
<trkpt lat="46.0385050" lon="10.4847560">
	<ele>2316.60</ele>
	<time>2023-08-06T07:27:25.000Z</time>
</trkpt>
<trkpt lat="46.0385160" lon="10.4847450">
	<ele>2316.60</ele>
	<time>2023-08-06T07:27:26.000Z</time>
</trkpt>
<trkpt lat="46.0385270" lon="10.4847320">
	<ele>2316.60</ele>
	<time>2023-08-06T07:27:27.000Z</time>
</trkpt>
<trkpt lat="46.0385380" lon="10.4847230">
	<ele>2316.40</ele>
	<time>2023-08-06T07:27:28.000Z</time>
</trkpt>
<trkpt lat="46.0385470" lon="10.4847140">
	<ele>2316.40</ele>
	<time>2023-08-06T07:27:29.000Z</time>
</trkpt>
<trkpt lat="46.0385580" lon="10.4847010">
	<ele>2316.20</ele>
	<time>2023-08-06T07:27:30.000Z</time>
</trkpt>
<trkpt lat="46.0385670" lon="10.4846890">
	<ele>2316.20</ele>
	<time>2023-08-06T07:27:31.000Z</time>
</trkpt>
<trkpt lat="46.0385750" lon="10.4846780">
	<ele>2316.20</ele>
	<time>2023-08-06T07:27:32.000Z</time>
</trkpt>
<trkpt lat="46.0385890" lon="10.4846700">
	<ele>2316.00</ele>
	<time>2023-08-06T07:27:33.000Z</time>
</trkpt>
<trkpt lat="46.0385990" lon="10.4846650">
	<ele>2315.80</ele>
	<time>2023-08-06T07:27:34.000Z</time>
</trkpt>
<trkpt lat="46.0386120" lon="10.4846610">
	<ele>2315.60</ele>
	<time>2023-08-06T07:27:35.000Z</time>
</trkpt>
<trkpt lat="46.0386210" lon="10.4846530">
	<ele>2315.20</ele>
	<time>2023-08-06T07:27:36.000Z</time>
</trkpt>
<trkpt lat="46.0386310" lon="10.4846420">
	<ele>2315.20</ele>
	<time>2023-08-06T07:27:37.000Z</time>
</trkpt>
<trkpt lat="46.0386410" lon="10.4846270">
	<ele>2315.00</ele>
	<time>2023-08-06T07:27:38.000Z</time>
</trkpt>
<trkpt lat="46.0386490" lon="10.4846110">
	<ele>2314.80</ele>
	<time>2023-08-06T07:27:39.000Z</time>
</trkpt>
<trkpt lat="46.0386550" lon="10.4846000">
	<ele>2314.80</ele>
	<time>2023-08-06T07:27:40.000Z</time>
</trkpt>
<trkpt lat="46.0386630" lon="10.4845880">
	<ele>2314.60</ele>
	<time>2023-08-06T07:27:41.000Z</time>
</trkpt>
<trkpt lat="46.0386680" lon="10.4845750">
	<ele>2314.60</ele>
	<time>2023-08-06T07:27:42.000Z</time>
</trkpt>
<trkpt lat="46.0386730" lon="10.4845630">
	<ele>2314.40</ele>
	<time>2023-08-06T07:27:43.000Z</time>
</trkpt>
<trkpt lat="46.0386800" lon="10.4845540">
	<ele>2314.40</ele>
	<time>2023-08-06T07:27:44.000Z</time>
</trkpt>
<trkpt lat="46.0386880" lon="10.4845440">
	<ele>2314.40</ele>
	<time>2023-08-06T07:27:45.000Z</time>
</trkpt>
<trkpt lat="46.0386990" lon="10.4845310">
	<ele>2314.40</ele>
	<time>2023-08-06T07:27:46.000Z</time>
</trkpt>
<trkpt lat="46.0387080" lon="10.4845190">
	<ele>2314.40</ele>
	<time>2023-08-06T07:27:47.000Z</time>
</trkpt>
<trkpt lat="46.0387160" lon="10.4845010">
	<ele>2314.40</ele>
	<time>2023-08-06T07:27:48.000Z</time>
</trkpt>
<trkpt lat="46.0387220" lon="10.4844830">
	<ele>2314.20</ele>
	<time>2023-08-06T07:27:49.000Z</time>
</trkpt>
<trkpt lat="46.0387280" lon="10.4844690">
	<ele>2314.20</ele>
	<time>2023-08-06T07:27:50.000Z</time>
</trkpt>
<trkpt lat="46.0387350" lon="10.4844570">
	<ele>2314.00</ele>
	<time>2023-08-06T07:27:51.000Z</time>
</trkpt>
<trkpt lat="46.0387400" lon="10.4844430">
	<ele>2313.80</ele>
	<time>2023-08-06T07:27:52.000Z</time>
</trkpt>
<trkpt lat="46.0387470" lon="10.4844280">
	<ele>2313.60</ele>
	<time>2023-08-06T07:27:53.000Z</time>
</trkpt>
<trkpt lat="46.0387530" lon="10.4844160">
	<ele>2313.40</ele>
	<time>2023-08-06T07:27:54.000Z</time>
</trkpt>
<trkpt lat="46.0387630" lon="10.4844030">
	<ele>2313.20</ele>
	<time>2023-08-06T07:27:55.000Z</time>
</trkpt>
<trkpt lat="46.0387700" lon="10.4843880">
	<ele>2313.20</ele>
	<time>2023-08-06T07:27:56.000Z</time>
</trkpt>
<trkpt lat="46.0387780" lon="10.4843810">
	<ele>2313.00</ele>
	<time>2023-08-06T07:27:57.000Z</time>
</trkpt>
<trkpt lat="46.0387890" lon="10.4843720">
	<ele>2313.00</ele>
	<time>2023-08-06T07:27:58.000Z</time>
</trkpt>
<trkpt lat="46.0387990" lon="10.4843640">
	<ele>2312.80</ele>
	<time>2023-08-06T07:27:59.000Z</time>
</trkpt>
<trkpt lat="46.0388110" lon="10.4843550">
	<ele>2312.80</ele>
	<time>2023-08-06T07:28:00.000Z</time>
</trkpt>
<trkpt lat="46.0388220" lon="10.4843460">
	<ele>2312.60</ele>
	<time>2023-08-06T07:28:01.000Z</time>
</trkpt>
<trkpt lat="46.0388320" lon="10.4843370">
	<ele>2312.60</ele>
	<time>2023-08-06T07:28:02.000Z</time>
</trkpt>
<trkpt lat="46.0388410" lon="10.4843320">
	<ele>2312.40</ele>
	<time>2023-08-06T07:28:03.000Z</time>
</trkpt>
<trkpt lat="46.0388520" lon="10.4843290">
	<ele>2312.40</ele>
	<time>2023-08-06T07:28:04.000Z</time>
</trkpt>
<trkpt lat="46.0388610" lon="10.4843270">
	<ele>2312.20</ele>
	<time>2023-08-06T07:28:05.000Z</time>
</trkpt>
<trkpt lat="46.0388710" lon="10.4843290">
	<ele>2312.20</ele>
	<time>2023-08-06T07:28:06.000Z</time>
</trkpt>
<trkpt lat="46.0388780" lon="10.4843330">
	<ele>2312.00</ele>
	<time>2023-08-06T07:28:07.000Z</time>
</trkpt>
<trkpt lat="46.0388860" lon="10.4843340">
	<ele>2312.00</ele>
	<time>2023-08-06T07:28:08.000Z</time>
</trkpt>
<trkpt lat="46.0388970" lon="10.4843370">
	<ele>2312.00</ele>
	<time>2023-08-06T07:28:09.000Z</time>
</trkpt>
<trkpt lat="46.0389090" lon="10.4843350">
	<ele>2312.00</ele>
	<time>2023-08-06T07:28:10.000Z</time>
</trkpt>
<trkpt lat="46.0389210" lon="10.4843360">
	<ele>2311.80</ele>
	<time>2023-08-06T07:28:11.000Z</time>
</trkpt>
<trkpt lat="46.0389300" lon="10.4843380">
	<ele>2311.80</ele>
	<time>2023-08-06T07:28:12.000Z</time>
</trkpt>
<trkpt lat="46.0389360" lon="10.4843440">
	<ele>2311.60</ele>
	<time>2023-08-06T07:28:13.000Z</time>
</trkpt>
<trkpt lat="46.0389470" lon="10.4843550">
	<ele>2311.60</ele>
	<time>2023-08-06T07:28:14.000Z</time>
</trkpt>
<trkpt lat="46.0389600" lon="10.4843610">
	<ele>2311.60</ele>
	<time>2023-08-06T07:28:15.000Z</time>
</trkpt>
<trkpt lat="46.0389710" lon="10.4843660">
	<ele>2311.40</ele>
	<time>2023-08-06T07:28:16.000Z</time>
</trkpt>
<trkpt lat="46.0389760" lon="10.4843730">
	<ele>2311.40</ele>
	<time>2023-08-06T07:28:17.000Z</time>
</trkpt>
<trkpt lat="46.0389780" lon="10.4843810">
	<ele>2311.20</ele>
	<time>2023-08-06T07:28:18.000Z</time>
</trkpt>
<trkpt lat="46.0389830" lon="10.4843890">
	<ele>2311.20</ele>
	<time>2023-08-06T07:28:19.000Z</time>
</trkpt>
<trkpt lat="46.0389880" lon="10.4843880">
	<ele>2311.20</ele>
	<time>2023-08-06T07:28:20.000Z</time>
</trkpt>
<trkpt lat="46.0389900" lon="10.4843860">
	<ele>2311.20</ele>
	<time>2023-08-06T07:28:21.000Z</time>
</trkpt>
<trkpt lat="46.0389890" lon="10.4843850">
	<ele>2311.40</ele>
	<time>2023-08-06T07:28:22.000Z</time>
</trkpt>
<trkpt lat="46.0389880" lon="10.4843840">
	<ele>2311.60</ele>
	<time>2023-08-06T07:28:23.000Z</time>
</trkpt>
<trkpt lat="46.0389880" lon="10.4843840">
	<ele>2311.80</ele>
	<time>2023-08-06T07:28:24.000Z</time>
</trkpt>
<trkpt lat="46.0389890" lon="10.4843840">
	<ele>2311.80</ele>
	<time>2023-08-06T07:28:25.000Z</time>
</trkpt>
<trkpt lat="46.0389890" lon="10.4843840">
	<ele>2311.80</ele>
	<time>2023-08-06T07:28:26.000Z</time>
</trkpt>
<trkpt lat="46.0389890" lon="10.4843850">
	<ele>2311.80</ele>
	<time>2023-08-06T07:28:27.000Z</time>
</trkpt>
<trkpt lat="46.0389910" lon="10.4843870">
	<ele>2311.80</ele>
	<time>2023-08-06T07:28:28.000Z</time>
</trkpt>
<trkpt lat="46.0389910" lon="10.4843850">
	<ele>2311.80</ele>
	<time>2023-08-06T07:28:29.000Z</time>
</trkpt>
<trkpt lat="46.0389930" lon="10.4843800">
	<ele>2311.80</ele>
	<time>2023-08-06T07:28:30.000Z</time>
</trkpt>
<trkpt lat="46.0389930" lon="10.4843750">
	<ele>2311.60</ele>
	<time>2023-08-06T07:28:31.000Z</time>
</trkpt>
<trkpt lat="46.0389960" lon="10.4843690">
	<ele>2311.40</ele>
	<time>2023-08-06T07:28:32.000Z</time>
</trkpt>
<trkpt lat="46.0390010" lon="10.4843640">
	<ele>2311.20</ele>
	<time>2023-08-06T07:28:33.000Z</time>
</trkpt>
<trkpt lat="46.0390050" lon="10.4843600">
	<ele>2311.00</ele>
	<time>2023-08-06T07:28:34.000Z</time>
</trkpt>
<trkpt lat="46.0390070" lon="10.4843580">
	<ele>2310.60</ele>
	<time>2023-08-06T07:28:35.000Z</time>
</trkpt>
<trkpt lat="46.0390090" lon="10.4843620">
	<ele>2310.20</ele>
	<time>2023-08-06T07:28:36.000Z</time>
</trkpt>
<trkpt lat="46.0390110" lon="10.4843650">
	<ele>2310.00</ele>
	<time>2023-08-06T07:28:37.000Z</time>
</trkpt>
<trkpt lat="46.0390140" lon="10.4843650">
	<ele>2309.80</ele>
	<time>2023-08-06T07:28:38.000Z</time>
</trkpt>
<trkpt lat="46.0390200" lon="10.4843660">
	<ele>2309.80</ele>
	<time>2023-08-06T07:28:39.000Z</time>
</trkpt>
<trkpt lat="46.0390230" lon="10.4843680">
	<ele>2309.80</ele>
	<time>2023-08-06T07:28:40.000Z</time>
</trkpt>
<trkpt lat="46.0390260" lon="10.4843720">
	<ele>2309.80</ele>
	<time>2023-08-06T07:28:41.000Z</time>
</trkpt>
<trkpt lat="46.0390290" lon="10.4843730">
	<ele>2309.80</ele>
	<time>2023-08-06T07:28:42.000Z</time>
</trkpt>
<trkpt lat="46.0390330" lon="10.4843730">
	<ele>2309.60</ele>
	<time>2023-08-06T07:28:43.000Z</time>
</trkpt>
<trkpt lat="46.0390370" lon="10.4843760">
	<ele>2309.60</ele>
	<time>2023-08-06T07:28:44.000Z</time>
</trkpt>
<trkpt lat="46.0390400" lon="10.4843750">
	<ele>2309.40</ele>
	<time>2023-08-06T07:28:45.000Z</time>
</trkpt>
<trkpt lat="46.0390410" lon="10.4843730">
	<ele>2309.20</ele>
	<time>2023-08-06T07:28:46.000Z</time>
</trkpt>
<trkpt lat="46.0390420" lon="10.4843700">
	<ele>2309.20</ele>
	<time>2023-08-06T07:28:47.000Z</time>
</trkpt>
<trkpt lat="46.0390430" lon="10.4843670">
	<ele>2309.00</ele>
	<time>2023-08-06T07:28:48.000Z</time>
</trkpt>
<trkpt lat="46.0390430" lon="10.4843630">
	<ele>2308.80</ele>
	<time>2023-08-06T07:28:49.000Z</time>
</trkpt>
<trkpt lat="46.0390450" lon="10.4843600">
	<ele>2308.60</ele>
	<time>2023-08-06T07:28:50.000Z</time>
</trkpt>
<trkpt lat="46.0390460" lon="10.4843550">
	<ele>2308.60</ele>
	<time>2023-08-06T07:28:51.000Z</time>
</trkpt>
<trkpt lat="46.0390500" lon="10.4843490">
	<ele>2308.40</ele>
	<time>2023-08-06T07:28:52.000Z</time>
</trkpt>
<trkpt lat="46.0390540" lon="10.4843480">
	<ele>2308.20</ele>
	<time>2023-08-06T07:28:53.000Z</time>
</trkpt>
<trkpt lat="46.0390560" lon="10.4843500">
	<ele>2307.80</ele>
	<time>2023-08-06T07:28:54.000Z</time>
</trkpt>
<trkpt lat="46.0390610" lon="10.4843490">
	<ele>2307.60</ele>
	<time>2023-08-06T07:28:55.000Z</time>
</trkpt>
<trkpt lat="46.0390660" lon="10.4843470">
	<ele>2307.40</ele>
	<time>2023-08-06T07:28:56.000Z</time>
</trkpt>
<trkpt lat="46.0390710" lon="10.4843440">
	<ele>2307.00</ele>
	<time>2023-08-06T07:28:57.000Z</time>
</trkpt>
<trkpt lat="46.0390830" lon="10.4843430">
	<ele>2306.80</ele>
	<time>2023-08-06T07:28:58.000Z</time>
</trkpt>
<trkpt lat="46.0390930" lon="10.4843440">
	<ele>2306.60</ele>
	<time>2023-08-06T07:28:59.000Z</time>
</trkpt>
<trkpt lat="46.0391040" lon="10.4843440">
	<ele>2306.20</ele>
	<time>2023-08-06T07:29:00.000Z</time>
</trkpt>
<trkpt lat="46.0391120" lon="10.4843420">
	<ele>2306.00</ele>
	<time>2023-08-06T07:29:01.000Z</time>
</trkpt>
<trkpt lat="46.0391240" lon="10.4843400">
	<ele>2305.80</ele>
	<time>2023-08-06T07:29:02.000Z</time>
</trkpt>
<trkpt lat="46.0391330" lon="10.4843370">
	<ele>2305.60</ele>
	<time>2023-08-06T07:29:03.000Z</time>
</trkpt>
<trkpt lat="46.0391390" lon="10.4843300">
	<ele>2305.60</ele>
	<time>2023-08-06T07:29:04.000Z</time>
</trkpt>
<trkpt lat="46.0391450" lon="10.4843250">
	<ele>2305.40</ele>
	<time>2023-08-06T07:29:05.000Z</time>
</trkpt>
<trkpt lat="46.0391540" lon="10.4843200">
	<ele>2305.40</ele>
	<time>2023-08-06T07:29:06.000Z</time>
</trkpt>
<trkpt lat="46.0391630" lon="10.4843140">
	<ele>2305.20</ele>
	<time>2023-08-06T07:29:07.000Z</time>
</trkpt>
<trkpt lat="46.0391690" lon="10.4843100">
	<ele>2305.00</ele>
	<time>2023-08-06T07:29:08.000Z</time>
</trkpt>
<trkpt lat="46.0391780" lon="10.4843050">
	<ele>2305.00</ele>
	<time>2023-08-06T07:29:09.000Z</time>
</trkpt>
<trkpt lat="46.0391870" lon="10.4843010">
	<ele>2304.80</ele>
	<time>2023-08-06T07:29:10.000Z</time>
</trkpt>
<trkpt lat="46.0391960" lon="10.4842980">
	<ele>2304.80</ele>
	<time>2023-08-06T07:29:11.000Z</time>
</trkpt>
<trkpt lat="46.0392040" lon="10.4842990">
	<ele>2304.80</ele>
	<time>2023-08-06T07:29:12.000Z</time>
</trkpt>
<trkpt lat="46.0392130" lon="10.4842990">
	<ele>2304.60</ele>
	<time>2023-08-06T07:29:13.000Z</time>
</trkpt>
<trkpt lat="46.0392200" lon="10.4843010">
	<ele>2304.40</ele>
	<time>2023-08-06T07:29:14.000Z</time>
</trkpt>
<trkpt lat="46.0392270" lon="10.4842960">
	<ele>2304.20</ele>
	<time>2023-08-06T07:29:15.000Z</time>
</trkpt>
<trkpt lat="46.0392330" lon="10.4842890">
	<ele>2304.20</ele>
	<time>2023-08-06T07:29:16.000Z</time>
</trkpt>
<trkpt lat="46.0392380" lon="10.4842820">
	<ele>2304.00</ele>
	<time>2023-08-06T07:29:17.000Z</time>
</trkpt>
<trkpt lat="46.0392460" lon="10.4842760">
	<ele>2303.80</ele>
	<time>2023-08-06T07:29:18.000Z</time>
</trkpt>
<trkpt lat="46.0392550" lon="10.4842730">
	<ele>2303.80</ele>
	<time>2023-08-06T07:29:19.000Z</time>
</trkpt>
<trkpt lat="46.0392630" lon="10.4842700">
	<ele>2303.80</ele>
	<time>2023-08-06T07:29:20.000Z</time>
</trkpt>
<trkpt lat="46.0392750" lon="10.4842640">
	<ele>2303.60</ele>
	<time>2023-08-06T07:29:21.000Z</time>
</trkpt>
<trkpt lat="46.0392870" lon="10.4842630">
	<ele>2303.40</ele>
	<time>2023-08-06T07:29:22.000Z</time>
</trkpt>
<trkpt lat="46.0392980" lon="10.4842590">
	<ele>2303.20</ele>
	<time>2023-08-06T07:29:23.000Z</time>
</trkpt>
<trkpt lat="46.0393050" lon="10.4842530">
	<ele>2303.00</ele>
	<time>2023-08-06T07:29:24.000Z</time>
</trkpt>
<trkpt lat="46.0393170" lon="10.4842470">
	<ele>2302.80</ele>
	<time>2023-08-06T07:29:25.000Z</time>
</trkpt>
<trkpt lat="46.0393280" lon="10.4842440">
	<ele>2302.80</ele>
	<time>2023-08-06T07:29:26.000Z</time>
</trkpt>
<trkpt lat="46.0393380" lon="10.4842410">
	<ele>2302.60</ele>
	<time>2023-08-06T07:29:27.000Z</time>
</trkpt>
<trkpt lat="46.0393460" lon="10.4842410">
	<ele>2302.40</ele>
	<time>2023-08-06T07:29:28.000Z</time>
</trkpt>
<trkpt lat="46.0393590" lon="10.4842390">
	<ele>2302.20</ele>
	<time>2023-08-06T07:29:29.000Z</time>
</trkpt>
<trkpt lat="46.0393700" lon="10.4842380">
	<ele>2302.20</ele>
	<time>2023-08-06T07:29:30.000Z</time>
</trkpt>
<trkpt lat="46.0393820" lon="10.4842330">
	<ele>2302.00</ele>
	<time>2023-08-06T07:29:31.000Z</time>
</trkpt>
<trkpt lat="46.0393910" lon="10.4842270">
	<ele>2301.80</ele>
	<time>2023-08-06T07:29:32.000Z</time>
</trkpt>
<trkpt lat="46.0393990" lon="10.4842220">
	<ele>2301.80</ele>
	<time>2023-08-06T07:29:33.000Z</time>
</trkpt>
<trkpt lat="46.0394120" lon="10.4842180">
	<ele>2301.80</ele>
	<time>2023-08-06T07:29:34.000Z</time>
</trkpt>
<trkpt lat="46.0394210" lon="10.4842180">
	<ele>2301.80</ele>
	<time>2023-08-06T07:29:35.000Z</time>
</trkpt>
<trkpt lat="46.0394360" lon="10.4842210">
	<ele>2301.80</ele>
	<time>2023-08-06T07:29:36.000Z</time>
</trkpt>
<trkpt lat="46.0394480" lon="10.4842220">
	<ele>2301.60</ele>
	<time>2023-08-06T07:29:37.000Z</time>
</trkpt>
<trkpt lat="46.0394600" lon="10.4842240">
	<ele>2301.40</ele>
	<time>2023-08-06T07:29:38.000Z</time>
</trkpt>
<trkpt lat="46.0394710" lon="10.4842260">
	<ele>2301.20</ele>
	<time>2023-08-06T07:29:39.000Z</time>
</trkpt>
<trkpt lat="46.0394830" lon="10.4842230">
	<ele>2301.20</ele>
	<time>2023-08-06T07:29:40.000Z</time>
</trkpt>
<trkpt lat="46.0394910" lon="10.4842210">
	<ele>2301.00</ele>
	<time>2023-08-06T07:29:41.000Z</time>
</trkpt>
<trkpt lat="46.0395030" lon="10.4842200">
	<ele>2301.00</ele>
	<time>2023-08-06T07:29:42.000Z</time>
</trkpt>
<trkpt lat="46.0395100" lon="10.4842190">
	<ele>2301.00</ele>
	<time>2023-08-06T07:29:43.000Z</time>
</trkpt>
<trkpt lat="46.0395230" lon="10.4842170">
	<ele>2300.80</ele>
	<time>2023-08-06T07:29:44.000Z</time>
</trkpt>
<trkpt lat="46.0395310" lon="10.4842110">
	<ele>2300.60</ele>
	<time>2023-08-06T07:29:45.000Z</time>
</trkpt>
<trkpt lat="46.0395390" lon="10.4842070">
	<ele>2300.60</ele>
	<time>2023-08-06T07:29:46.000Z</time>
</trkpt>
<trkpt lat="46.0395490" lon="10.4842020">
	<ele>2300.40</ele>
	<time>2023-08-06T07:29:47.000Z</time>
</trkpt>
<trkpt lat="46.0395580" lon="10.4841980">
	<ele>2300.20</ele>
	<time>2023-08-06T07:29:48.000Z</time>
</trkpt>
<trkpt lat="46.0395690" lon="10.4841930">
	<ele>2300.00</ele>
	<time>2023-08-06T07:29:49.000Z</time>
</trkpt>
<trkpt lat="46.0395770" lon="10.4841840">
	<ele>2300.00</ele>
	<time>2023-08-06T07:29:50.000Z</time>
</trkpt>
<trkpt lat="46.0395840" lon="10.4841790">
	<ele>2299.80</ele>
	<time>2023-08-06T07:29:51.000Z</time>
</trkpt>
<trkpt lat="46.0395890" lon="10.4841710">
	<ele>2299.60</ele>
	<time>2023-08-06T07:29:52.000Z</time>
</trkpt>
<trkpt lat="46.0395980" lon="10.4841600">
	<ele>2299.60</ele>
	<time>2023-08-06T07:29:53.000Z</time>
</trkpt>
<trkpt lat="46.0396060" lon="10.4841520">
	<ele>2299.40</ele>
	<time>2023-08-06T07:29:54.000Z</time>
</trkpt>
<trkpt lat="46.0396140" lon="10.4841410">
	<ele>2299.20</ele>
	<time>2023-08-06T07:29:55.000Z</time>
</trkpt>
<trkpt lat="46.0396220" lon="10.4841310">
	<ele>2299.20</ele>
	<time>2023-08-06T07:29:56.000Z</time>
</trkpt>
<trkpt lat="46.0396290" lon="10.4841240">
	<ele>2299.00</ele>
	<time>2023-08-06T07:29:57.000Z</time>
</trkpt>
<trkpt lat="46.0396390" lon="10.4841120">
	<ele>2299.00</ele>
	<time>2023-08-06T07:29:58.000Z</time>
</trkpt>
<trkpt lat="46.0396460" lon="10.4841050">
	<ele>2299.00</ele>
	<time>2023-08-06T07:29:59.000Z</time>
</trkpt>
<trkpt lat="46.0396550" lon="10.4840950">
	<ele>2299.00</ele>
	<time>2023-08-06T07:30:00.000Z</time>
</trkpt>
<trkpt lat="46.0396650" lon="10.4840850">
	<ele>2299.20</ele>
	<time>2023-08-06T07:30:01.000Z</time>
</trkpt>
<trkpt lat="46.0396720" lon="10.4840760">
	<ele>2299.40</ele>
	<time>2023-08-06T07:30:02.000Z</time>
</trkpt>
<trkpt lat="46.0396780" lon="10.4840640">
	<ele>2299.40</ele>
	<time>2023-08-06T07:30:03.000Z</time>
</trkpt>
<trkpt lat="46.0396830" lon="10.4840480">
	<ele>2299.40</ele>
	<time>2023-08-06T07:30:04.000Z</time>
</trkpt>
<trkpt lat="46.0396880" lon="10.4840410">
	<ele>2299.00</ele>
	<time>2023-08-06T07:30:05.000Z</time>
</trkpt>
<trkpt lat="46.0396950" lon="10.4840300">
	<ele>2298.80</ele>
	<time>2023-08-06T07:30:06.000Z</time>
</trkpt>
<trkpt lat="46.0396980" lon="10.4840180">
	<ele>2298.80</ele>
	<time>2023-08-06T07:30:07.000Z</time>
</trkpt>
<trkpt lat="46.0397000" lon="10.4840080">
	<ele>2298.60</ele>
	<time>2023-08-06T07:30:08.000Z</time>
</trkpt>
<trkpt lat="46.0397080" lon="10.4839990">
	<ele>2298.80</ele>
	<time>2023-08-06T07:30:09.000Z</time>
</trkpt>
<trkpt lat="46.0397210" lon="10.4839900">
	<ele>2298.80</ele>
	<time>2023-08-06T07:30:10.000Z</time>
</trkpt>
<trkpt lat="46.0397290" lon="10.4839850">
	<ele>2298.80</ele>
	<time>2023-08-06T07:30:11.000Z</time>
</trkpt>
<trkpt lat="46.0397380" lon="10.4839830">
	<ele>2299.00</ele>
	<time>2023-08-06T07:30:12.000Z</time>
</trkpt>
<trkpt lat="46.0397420" lon="10.4839830">
	<ele>2299.00</ele>
	<time>2023-08-06T07:30:13.000Z</time>
</trkpt>
<trkpt lat="46.0397460" lon="10.4839830">
	<ele>2299.20</ele>
	<time>2023-08-06T07:30:14.000Z</time>
</trkpt>
<trkpt lat="46.0397530" lon="10.4839840">
	<ele>2299.20</ele>
	<time>2023-08-06T07:30:15.000Z</time>
</trkpt>
<trkpt lat="46.0397570" lon="10.4839840">
	<ele>2299.20</ele>
	<time>2023-08-06T07:30:16.000Z</time>
</trkpt>
<trkpt lat="46.0397590" lon="10.4839860">
	<ele>2299.20</ele>
	<time>2023-08-06T07:30:17.000Z</time>
</trkpt>
<trkpt lat="46.0397580" lon="10.4839890">
	<ele>2299.40</ele>
	<time>2023-08-06T07:30:18.000Z</time>
</trkpt>
<trkpt lat="46.0397570" lon="10.4839900">
	<ele>2299.40</ele>
	<time>2023-08-06T07:30:19.000Z</time>
</trkpt>
<trkpt lat="46.0397560" lon="10.4839870">
	<ele>2299.60</ele>
	<time>2023-08-06T07:30:20.000Z</time>
</trkpt>
<trkpt lat="46.0397540" lon="10.4839880">
	<ele>2299.60</ele>
	<time>2023-08-06T07:30:21.000Z</time>
</trkpt>
<trkpt lat="46.0397520" lon="10.4839920">
	<ele>2299.60</ele>
	<time>2023-08-06T07:30:22.000Z</time>
</trkpt>
<trkpt lat="46.0397520" lon="10.4839940">
	<ele>2299.60</ele>
	<time>2023-08-06T07:30:23.000Z</time>
</trkpt>
<trkpt lat="46.0397520" lon="10.4839930">
	<ele>2299.80</ele>
	<time>2023-08-06T07:30:24.000Z</time>
</trkpt>
<trkpt lat="46.0397520" lon="10.4839910">
	<ele>2299.80</ele>
	<time>2023-08-06T07:30:25.000Z</time>
</trkpt>
<trkpt lat="46.0397550" lon="10.4839930">
	<ele>2299.80</ele>
	<time>2023-08-06T07:30:26.000Z</time>
</trkpt>
<trkpt lat="46.0397550" lon="10.4839940">
	<ele>2299.60</ele>
	<time>2023-08-06T07:30:27.000Z</time>
</trkpt>
<trkpt lat="46.0397550" lon="10.4839940">
	<ele>2299.60</ele>
	<time>2023-08-06T07:30:28.000Z</time>
</trkpt>
<trkpt lat="46.0397550" lon="10.4839940">
	<ele>2299.60</ele>
	<time>2023-08-06T07:30:29.000Z</time>
</trkpt>
<trkpt lat="46.0397550" lon="10.4839940">
	<ele>2299.60</ele>
	<time>2023-08-06T07:30:30.000Z</time>
</trkpt>
<trkpt lat="46.0397550" lon="10.4839940">
	<ele>2299.60</ele>
	<time>2023-08-06T07:30:31.000Z</time>
</trkpt>
<trkpt lat="46.0397550" lon="10.4839940">
	<ele>2299.40</ele>
	<time>2023-08-06T07:30:32.000Z</time>
</trkpt>
<trkpt lat="46.0397550" lon="10.4839940">
	<ele>2299.40</ele>
	<time>2023-08-06T07:30:33.000Z</time>
</trkpt>
<trkpt lat="46.0397550" lon="10.4839940">
	<ele>2299.40</ele>
	<time>2023-08-06T07:30:34.000Z</time>
</trkpt>
<trkpt lat="46.0397550" lon="10.4839940">
	<ele>2299.40</ele>
	<time>2023-08-06T07:30:35.000Z</time>
</trkpt>
<trkpt lat="46.0397550" lon="10.4839930">
	<ele>2299.40</ele>
	<time>2023-08-06T07:30:36.000Z</time>
</trkpt>
<trkpt lat="46.0397550" lon="10.4839930">
	<ele>2299.60</ele>
	<time>2023-08-06T07:30:37.000Z</time>
</trkpt>
<trkpt lat="46.0397540" lon="10.4839920">
	<ele>2300.00</ele>
	<time>2023-08-06T07:30:38.000Z</time>
</trkpt>
<trkpt lat="46.0397520" lon="10.4839920">
	<ele>2300.20</ele>
	<time>2023-08-06T07:30:39.000Z</time>
</trkpt>
<trkpt lat="46.0397520" lon="10.4839900">
	<ele>2300.40</ele>
	<time>2023-08-06T07:30:40.000Z</time>
</trkpt>
<trkpt lat="46.0397520" lon="10.4839900">
	<ele>2300.40</ele>
	<time>2023-08-06T07:30:41.000Z</time>
</trkpt>
<trkpt lat="46.0397520" lon="10.4839900">
	<ele>2300.60</ele>
	<time>2023-08-06T07:30:42.000Z</time>
</trkpt>
<trkpt lat="46.0397510" lon="10.4839900">
	<ele>2300.60</ele>
	<time>2023-08-06T07:30:43.000Z</time>
</trkpt>
<trkpt lat="46.0397490" lon="10.4839890">
	<ele>2300.80</ele>
	<time>2023-08-06T07:30:44.000Z</time>
</trkpt>
<trkpt lat="46.0397490" lon="10.4839890">
	<ele>2300.80</ele>
	<time>2023-08-06T07:30:45.000Z</time>
</trkpt>
<trkpt lat="46.0397490" lon="10.4839880">
	<ele>2300.80</ele>
	<time>2023-08-06T07:30:46.000Z</time>
</trkpt>
<trkpt lat="46.0397480" lon="10.4839870">
	<ele>2300.80</ele>
	<time>2023-08-06T07:30:47.000Z</time>
</trkpt>
<trkpt lat="46.0397480" lon="10.4839860">
	<ele>2300.80</ele>
	<time>2023-08-06T07:30:48.000Z</time>
</trkpt>
<trkpt lat="46.0397470" lon="10.4839820">
	<ele>2300.80</ele>
	<time>2023-08-06T07:30:49.000Z</time>
</trkpt>
<trkpt lat="46.0397440" lon="10.4839820">
	<ele>2300.60</ele>
	<time>2023-08-06T07:30:50.000Z</time>
</trkpt>
<trkpt lat="46.0397410" lon="10.4839820">
	<ele>2300.60</ele>
	<time>2023-08-06T07:30:51.000Z</time>
</trkpt>
<trkpt lat="46.0397410" lon="10.4839820">
	<ele>2300.60</ele>
	<time>2023-08-06T07:30:52.000Z</time>
</trkpt>
<trkpt lat="46.0397400" lon="10.4839820">
	<ele>2300.60</ele>
	<time>2023-08-06T07:30:53.000Z</time>
</trkpt>
<trkpt lat="46.0397400" lon="10.4839820">
	<ele>2300.60</ele>
	<time>2023-08-06T07:30:54.000Z</time>
</trkpt>
<trkpt lat="46.0397400" lon="10.4839820">
	<ele>2300.60</ele>
	<time>2023-08-06T07:30:55.000Z</time>
</trkpt>
<trkpt lat="46.0397400" lon="10.4839820">
	<ele>2300.60</ele>
	<time>2023-08-06T07:30:56.000Z</time>
</trkpt>
<trkpt lat="46.0397390" lon="10.4839820">
	<ele>2300.60</ele>
	<time>2023-08-06T07:30:57.000Z</time>
</trkpt>
<trkpt lat="46.0397390" lon="10.4839820">
	<ele>2300.60</ele>
	<time>2023-08-06T07:30:58.000Z</time>
</trkpt>
<trkpt lat="46.0397390" lon="10.4839820">
	<ele>2300.20</ele>
	<time>2023-08-06T07:30:59.000Z</time>
</trkpt>
<trkpt lat="46.0397390" lon="10.4839820">
	<ele>2300.00</ele>
	<time>2023-08-06T07:31:00.000Z</time>
</trkpt>
<trkpt lat="46.0397390" lon="10.4839820">
	<ele>2300.00</ele>
	<time>2023-08-06T07:31:01.000Z</time>
</trkpt>
<trkpt lat="46.0397390" lon="10.4839810">
	<ele>2300.00</ele>
	<time>2023-08-06T07:31:02.000Z</time>
</trkpt>
<trkpt lat="46.0397390" lon="10.4839810">
	<ele>2300.00</ele>
	<time>2023-08-06T07:31:03.000Z</time>
</trkpt>
<trkpt lat="46.0397390" lon="10.4839810">
	<ele>2299.80</ele>
	<time>2023-08-06T07:31:04.000Z</time>
</trkpt>
<trkpt lat="46.0397390" lon="10.4839810">
	<ele>2300.00</ele>
	<time>2023-08-06T07:31:05.000Z</time>
</trkpt>
<trkpt lat="46.0397390" lon="10.4839810">
	<ele>2300.20</ele>
	<time>2023-08-06T07:31:06.000Z</time>
</trkpt>
<trkpt lat="46.0397390" lon="10.4839810">
	<ele>2300.20</ele>
	<time>2023-08-06T07:31:07.000Z</time>
</trkpt>
<trkpt lat="46.0397390" lon="10.4839810">
	<ele>2300.20</ele>
	<time>2023-08-06T07:31:08.000Z</time>
</trkpt>
<trkpt lat="46.0397390" lon="10.4839810">
	<ele>2300.20</ele>
	<time>2023-08-06T07:31:09.000Z</time>
</trkpt>
<trkpt lat="46.0397390" lon="10.4839810">
	<ele>2300.20</ele>
	<time>2023-08-06T07:31:10.000Z</time>
</trkpt>
<trkpt lat="46.0397390" lon="10.4839810">
	<ele>2300.40</ele>
	<time>2023-08-06T07:31:11.000Z</time>
</trkpt>
<trkpt lat="46.0397390" lon="10.4839810">
	<ele>2300.40</ele>
	<time>2023-08-06T07:31:12.000Z</time>
</trkpt>
<trkpt lat="46.0397390" lon="10.4839810">
	<ele>2300.20</ele>
	<time>2023-08-06T07:31:13.000Z</time>
</trkpt>
<trkpt lat="46.0397390" lon="10.4839800">
	<ele>2300.20</ele>
	<time>2023-08-06T07:31:14.000Z</time>
</trkpt>
<trkpt lat="46.0397390" lon="10.4839780">
	<ele>2300.00</ele>
	<time>2023-08-06T07:31:15.000Z</time>
</trkpt>
<trkpt lat="46.0397390" lon="10.4839780">
	<ele>2300.20</ele>
	<time>2023-08-06T07:31:16.000Z</time>
</trkpt>
<trkpt lat="46.0397390" lon="10.4839780">
	<ele>2300.40</ele>
	<time>2023-08-06T07:31:17.000Z</time>
</trkpt>
<trkpt lat="46.0397410" lon="10.4839780">
	<ele>2300.60</ele>
	<time>2023-08-06T07:31:18.000Z</time>
</trkpt>
<trkpt lat="46.0397410" lon="10.4839780">
	<ele>2300.80</ele>
	<time>2023-08-06T07:31:19.000Z</time>
</trkpt>
<trkpt lat="46.0397410" lon="10.4839780">
	<ele>2300.80</ele>
	<time>2023-08-06T07:31:20.000Z</time>
</trkpt>
<trkpt lat="46.0397420" lon="10.4839780">
	<ele>2300.80</ele>
	<time>2023-08-06T07:31:21.000Z</time>
</trkpt>
<trkpt lat="46.0397430" lon="10.4839780">
	<ele>2300.60</ele>
	<time>2023-08-06T07:31:22.000Z</time>
</trkpt>
<trkpt lat="46.0397430" lon="10.4839780">
	<ele>2300.40</ele>
	<time>2023-08-06T07:31:23.000Z</time>
</trkpt>
<trkpt lat="46.0397430" lon="10.4839780">
	<ele>2299.80</ele>
	<time>2023-08-06T07:31:24.000Z</time>
</trkpt>
<trkpt lat="46.0397430" lon="10.4839770">
	<ele>2299.40</ele>
	<time>2023-08-06T07:31:25.000Z</time>
</trkpt>
<trkpt lat="46.0397430" lon="10.4839760">
	<ele>2299.20</ele>
	<time>2023-08-06T07:31:26.000Z</time>
</trkpt>
<trkpt lat="46.0397430" lon="10.4839760">
	<ele>2299.20</ele>
	<time>2023-08-06T07:31:27.000Z</time>
</trkpt>
<trkpt lat="46.0397430" lon="10.4839760">
	<ele>2299.00</ele>
	<time>2023-08-06T07:31:28.000Z</time>
</trkpt>
<trkpt lat="46.0397460" lon="10.4839750">
	<ele>2299.00</ele>
	<time>2023-08-06T07:31:29.000Z</time>
</trkpt>
<trkpt lat="46.0397470" lon="10.4839750">
	<ele>2299.40</ele>
	<time>2023-08-06T07:31:30.000Z</time>
</trkpt>
<trkpt lat="46.0397470" lon="10.4839750">
	<ele>2299.80</ele>
	<time>2023-08-06T07:31:31.000Z</time>
</trkpt>
<trkpt lat="46.0397480" lon="10.4839740">
	<ele>2300.00</ele>
	<time>2023-08-06T07:31:32.000Z</time>
</trkpt>
<trkpt lat="46.0397480" lon="10.4839740">
	<ele>2300.00</ele>
	<time>2023-08-06T07:31:33.000Z</time>
</trkpt>
<trkpt lat="46.0397480" lon="10.4839740">
	<ele>2300.00</ele>
	<time>2023-08-06T07:31:34.000Z</time>
</trkpt>
<trkpt lat="46.0397480" lon="10.4839730">
	<ele>2300.00</ele>
	<time>2023-08-06T07:31:35.000Z</time>
</trkpt>
<trkpt lat="46.0397480" lon="10.4839730">
	<ele>2299.80</ele>
	<time>2023-08-06T07:31:36.000Z</time>
</trkpt>
<trkpt lat="46.0397480" lon="10.4839730">
	<ele>2299.80</ele>
	<time>2023-08-06T07:31:37.000Z</time>
</trkpt>
<trkpt lat="46.0397480" lon="10.4839710">
	<ele>2299.80</ele>
	<time>2023-08-06T07:31:38.000Z</time>
</trkpt>
<trkpt lat="46.0397480" lon="10.4839710">
	<ele>2299.80</ele>
	<time>2023-08-06T07:31:39.000Z</time>
</trkpt>
<trkpt lat="46.0397480" lon="10.4839700">
	<ele>2299.80</ele>
	<time>2023-08-06T07:31:40.000Z</time>
</trkpt>
<trkpt lat="46.0397480" lon="10.4839620">
	<ele>2299.80</ele>
	<time>2023-08-06T07:31:41.000Z</time>
</trkpt>
<trkpt lat="46.0397480" lon="10.4839530">
	<ele>2299.80</ele>
	<time>2023-08-06T07:31:42.000Z</time>
</trkpt>
<trkpt lat="46.0397480" lon="10.4839470">
	<ele>2299.80</ele>
	<time>2023-08-06T07:31:43.000Z</time>
</trkpt>
<trkpt lat="46.0397480" lon="10.4839440">
	<ele>2299.80</ele>
	<time>2023-08-06T07:31:44.000Z</time>
</trkpt>
<trkpt lat="46.0397480" lon="10.4839430">
	<ele>2299.80</ele>
	<time>2023-08-06T07:31:45.000Z</time>
</trkpt>
<trkpt lat="46.0397470" lon="10.4839430">
	<ele>2299.80</ele>
	<time>2023-08-06T07:31:46.000Z</time>
</trkpt>
<trkpt lat="46.0397470" lon="10.4839430">
	<ele>2299.80</ele>
	<time>2023-08-06T07:31:47.000Z</time>
</trkpt>
<trkpt lat="46.0397470" lon="10.4839420">
	<ele>2299.80</ele>
	<time>2023-08-06T07:31:48.000Z</time>
</trkpt>
<trkpt lat="46.0397470" lon="10.4839420">
	<ele>2299.80</ele>
	<time>2023-08-06T07:31:49.000Z</time>
</trkpt>
<trkpt lat="46.0397460" lon="10.4839420">
	<ele>2299.80</ele>
	<time>2023-08-06T07:31:50.000Z</time>
</trkpt>
<trkpt lat="46.0397460" lon="10.4839420">
	<ele>2299.80</ele>
	<time>2023-08-06T07:31:51.000Z</time>
</trkpt>
<trkpt lat="46.0397450" lon="10.4839420">
	<ele>2299.80</ele>
	<time>2023-08-06T07:31:52.000Z</time>
</trkpt>
<trkpt lat="46.0397450" lon="10.4839420">
	<ele>2299.80</ele>
	<time>2023-08-06T07:31:53.000Z</time>
</trkpt>
<trkpt lat="46.0397450" lon="10.4839420">
	<ele>2299.80</ele>
	<time>2023-08-06T07:31:54.000Z</time>
</trkpt>
<trkpt lat="46.0397450" lon="10.4839420">
	<ele>2299.80</ele>
	<time>2023-08-06T07:31:55.000Z</time>
</trkpt>
<trkpt lat="46.0397450" lon="10.4839420">
	<ele>2299.80</ele>
	<time>2023-08-06T07:31:56.000Z</time>
</trkpt>
<trkpt lat="46.0397450" lon="10.4839420">
	<ele>2299.80</ele>
	<time>2023-08-06T07:31:57.000Z</time>
</trkpt>
<trkpt lat="46.0397450" lon="10.4839420">
	<ele>2299.80</ele>
	<time>2023-08-06T07:31:58.000Z</time>
</trkpt>
<trkpt lat="46.0397450" lon="10.4839430">
	<ele>2299.80</ele>
	<time>2023-08-06T07:31:59.000Z</time>
</trkpt>
<trkpt lat="46.0397450" lon="10.4839430">
	<ele>2299.80</ele>
	<time>2023-08-06T07:32:00.000Z</time>
</trkpt>
<trkpt lat="46.0397450" lon="10.4839430">
	<ele>2299.80</ele>
	<time>2023-08-06T07:32:01.000Z</time>
</trkpt>
<trkpt lat="46.0397450" lon="10.4839430">
	<ele>2299.80</ele>
	<time>2023-08-06T07:32:02.000Z</time>
</trkpt>
<trkpt lat="46.0397450" lon="10.4839430">
	<ele>2299.80</ele>
	<time>2023-08-06T07:32:03.000Z</time>
</trkpt>
<trkpt lat="46.0397450" lon="10.4839440">
	<ele>2299.80</ele>
	<time>2023-08-06T07:32:04.000Z</time>
</trkpt>
<trkpt lat="46.0397450" lon="10.4839450">
	<ele>2299.80</ele>
	<time>2023-08-06T07:32:05.000Z</time>
</trkpt>
<trkpt lat="46.0397450" lon="10.4839450">
	<ele>2299.80</ele>
	<time>2023-08-06T07:32:06.000Z</time>
</trkpt>
<trkpt lat="46.0397450" lon="10.4839460">
	<ele>2299.80</ele>
	<time>2023-08-06T07:32:07.000Z</time>
</trkpt>
<trkpt lat="46.0397450" lon="10.4839470">
	<ele>2299.80</ele>
	<time>2023-08-06T07:32:08.000Z</time>
</trkpt>
<trkpt lat="46.0397450" lon="10.4839470">
	<ele>2299.80</ele>
	<time>2023-08-06T07:32:09.000Z</time>
</trkpt>
<trkpt lat="46.0397450" lon="10.4839490">
	<ele>2299.80</ele>
	<time>2023-08-06T07:32:10.000Z</time>
</trkpt>
<trkpt lat="46.0397450" lon="10.4839500">
	<ele>2299.80</ele>
	<time>2023-08-06T07:32:11.000Z</time>
</trkpt>
<trkpt lat="46.0397450" lon="10.4839510">
	<ele>2299.80</ele>
	<time>2023-08-06T07:32:12.000Z</time>
</trkpt>
<trkpt lat="46.0397450" lon="10.4839520">
	<ele>2299.80</ele>
	<time>2023-08-06T07:32:13.000Z</time>
</trkpt>
<trkpt lat="46.0397450" lon="10.4839530">
	<ele>2299.80</ele>
	<time>2023-08-06T07:32:14.000Z</time>
</trkpt>
<trkpt lat="46.0397450" lon="10.4839530">
	<ele>2299.80</ele>
	<time>2023-08-06T07:32:15.000Z</time>
</trkpt>
<trkpt lat="46.0397450" lon="10.4839540">
	<ele>2299.80</ele>
	<time>2023-08-06T07:32:16.000Z</time>
</trkpt>
<trkpt lat="46.0397450" lon="10.4839560">
	<ele>2299.80</ele>
	<time>2023-08-06T07:32:17.000Z</time>
</trkpt>
<trkpt lat="46.0397450" lon="10.4839620">
	<ele>2299.80</ele>
	<time>2023-08-06T07:32:18.000Z</time>
</trkpt>
<trkpt lat="46.0397460" lon="10.4839670">
	<ele>2299.80</ele>
	<time>2023-08-06T07:32:19.000Z</time>
</trkpt>
<trkpt lat="46.0397460" lon="10.4839710">
	<ele>2299.80</ele>
	<time>2023-08-06T07:32:20.000Z</time>
</trkpt>
<trkpt lat="46.0397460" lon="10.4839730">
	<ele>2299.80</ele>
	<time>2023-08-06T07:32:21.000Z</time>
</trkpt>
<trkpt lat="46.0397460" lon="10.4839740">
	<ele>2299.80</ele>
	<time>2023-08-06T07:32:22.000Z</time>
</trkpt>
<trkpt lat="46.0397460" lon="10.4839750">
	<ele>2299.80</ele>
	<time>2023-08-06T07:32:23.000Z</time>
</trkpt>
<trkpt lat="46.0397470" lon="10.4839750">
	<ele>2299.80</ele>
	<time>2023-08-06T07:32:24.000Z</time>
</trkpt>
<trkpt lat="46.0397470" lon="10.4839760">
	<ele>2299.80</ele>
	<time>2023-08-06T07:32:25.000Z</time>
</trkpt>
<trkpt lat="46.0397470" lon="10.4839760">
	<ele>2299.80</ele>
	<time>2023-08-06T07:32:26.000Z</time>
</trkpt>
<trkpt lat="46.0397470" lon="10.4839760">
	<ele>2299.80</ele>
	<time>2023-08-06T07:32:27.000Z</time>
</trkpt>
<trkpt lat="46.0397470" lon="10.4839760">
	<ele>2299.80</ele>
	<time>2023-08-06T07:32:28.000Z</time>
</trkpt>
<trkpt lat="46.0397470" lon="10.4839760">
	<ele>2299.80</ele>
	<time>2023-08-06T07:32:29.000Z</time>
</trkpt>
<trkpt lat="46.0397470" lon="10.4839760">
	<ele>2299.80</ele>
	<time>2023-08-06T07:32:30.000Z</time>
</trkpt>
<trkpt lat="46.0397470" lon="10.4839760">
	<ele>2299.80</ele>
	<time>2023-08-06T07:32:31.000Z</time>
</trkpt>
<trkpt lat="46.0397470" lon="10.4839760">
	<ele>2299.80</ele>
	<time>2023-08-06T07:32:32.000Z</time>
</trkpt>
<trkpt lat="46.0397480" lon="10.4839760">
	<ele>2299.80</ele>
	<time>2023-08-06T07:32:33.000Z</time>
</trkpt>
<trkpt lat="46.0397480" lon="10.4839760">
	<ele>2299.80</ele>
	<time>2023-08-06T07:32:34.000Z</time>
</trkpt>
<trkpt lat="46.0397480" lon="10.4839760">
	<ele>2299.80</ele>
	<time>2023-08-06T07:32:35.000Z</time>
</trkpt>
<trkpt lat="46.0397480" lon="10.4839760">
	<ele>2299.80</ele>
	<time>2023-08-06T07:32:36.000Z</time>
</trkpt>
<trkpt lat="46.0397490" lon="10.4839760">
	<ele>2299.80</ele>
	<time>2023-08-06T07:32:37.000Z</time>
</trkpt>
<trkpt lat="46.0397490" lon="10.4839760">
	<ele>2299.80</ele>
	<time>2023-08-06T07:32:38.000Z</time>
</trkpt>
<trkpt lat="46.0397490" lon="10.4839760">
	<ele>2299.80</ele>
	<time>2023-08-06T07:32:39.000Z</time>
</trkpt>
<trkpt lat="46.0397500" lon="10.4839760">
	<ele>2299.80</ele>
	<time>2023-08-06T07:32:40.000Z</time>
</trkpt>
<trkpt lat="46.0397500" lon="10.4839760">
	<ele>2299.80</ele>
	<time>2023-08-06T07:32:41.000Z</time>
</trkpt>
<trkpt lat="46.0397500" lon="10.4839760">
	<ele>2299.80</ele>
	<time>2023-08-06T07:32:42.000Z</time>
</trkpt>
<trkpt lat="46.0397500" lon="10.4839760">
	<ele>2299.80</ele>
	<time>2023-08-06T07:32:43.000Z</time>
</trkpt>
<trkpt lat="46.0397500" lon="10.4839760">
	<ele>2299.80</ele>
	<time>2023-08-06T07:32:44.000Z</time>
</trkpt>
<trkpt lat="46.0397500" lon="10.4839760">
	<ele>2299.80</ele>
	<time>2023-08-06T07:32:45.000Z</time>
</trkpt>
<trkpt lat="46.0397510" lon="10.4839760">
	<ele>2299.80</ele>
	<time>2023-08-06T07:32:46.000Z</time>
</trkpt>
<trkpt lat="46.0397510" lon="10.4839750">
	<ele>2299.80</ele>
	<time>2023-08-06T07:32:47.000Z</time>
</trkpt>
<trkpt lat="46.0397510" lon="10.4839750">
	<ele>2299.80</ele>
	<time>2023-08-06T07:32:48.000Z</time>
</trkpt>
<trkpt lat="46.0397510" lon="10.4839750">
	<ele>2299.80</ele>
	<time>2023-08-06T07:32:49.000Z</time>
</trkpt>
<trkpt lat="46.0397520" lon="10.4839730">
	<ele>2299.80</ele>
	<time>2023-08-06T07:32:50.000Z</time>
</trkpt>
<trkpt lat="46.0397660" lon="10.4839720">
	<ele>2299.80</ele>
	<time>2023-08-06T07:32:51.000Z</time>
</trkpt>
<trkpt lat="46.0397760" lon="10.4839720">
	<ele>2299.80</ele>
	<time>2023-08-06T07:32:52.000Z</time>
</trkpt>
<trkpt lat="46.0397840" lon="10.4839670">
	<ele>2299.80</ele>
	<time>2023-08-06T07:32:53.000Z</time>
</trkpt>
<trkpt lat="46.0397930" lon="10.4839590">
	<ele>2299.80</ele>
	<time>2023-08-06T07:32:54.000Z</time>
</trkpt>
<trkpt lat="46.0398030" lon="10.4839500">
	<ele>2299.80</ele>
	<time>2023-08-06T07:32:55.000Z</time>
</trkpt>
<trkpt lat="46.0398140" lon="10.4839440">
	<ele>2299.80</ele>
	<time>2023-08-06T07:32:56.000Z</time>
</trkpt>
<trkpt lat="46.0398280" lon="10.4839400">
	<ele>2299.80</ele>
	<time>2023-08-06T07:32:57.000Z</time>
</trkpt>
<trkpt lat="46.0398410" lon="10.4839330">
	<ele>2299.80</ele>
	<time>2023-08-06T07:32:58.000Z</time>
</trkpt>
<trkpt lat="46.0398540" lon="10.4839250">
	<ele>2299.80</ele>
	<time>2023-08-06T07:32:59.000Z</time>
</trkpt>
<trkpt lat="46.0398640" lon="10.4839240">
	<ele>2299.80</ele>
	<time>2023-08-06T07:33:00.000Z</time>
</trkpt>
<trkpt lat="46.0398730" lon="10.4839240">
	<ele>2299.80</ele>
	<time>2023-08-06T07:33:01.000Z</time>
</trkpt>
<trkpt lat="46.0398860" lon="10.4839210">
	<ele>2299.80</ele>
	<time>2023-08-06T07:33:02.000Z</time>
</trkpt>
<trkpt lat="46.0398970" lon="10.4839160">
	<ele>2299.80</ele>
	<time>2023-08-06T07:33:03.000Z</time>
</trkpt>
<trkpt lat="46.0399080" lon="10.4839110">
	<ele>2299.80</ele>
	<time>2023-08-06T07:33:04.000Z</time>
</trkpt>
<trkpt lat="46.0399190" lon="10.4839130">
	<ele>2299.60</ele>
	<time>2023-08-06T07:33:05.000Z</time>
</trkpt>
<trkpt lat="46.0399290" lon="10.4839160">
	<ele>2299.60</ele>
	<time>2023-08-06T07:33:06.000Z</time>
</trkpt>
<trkpt lat="46.0399400" lon="10.4839220">
	<ele>2299.40</ele>
	<time>2023-08-06T07:33:07.000Z</time>
</trkpt>
<trkpt lat="46.0399450" lon="10.4839250">
	<ele>2299.20</ele>
	<time>2023-08-06T07:33:08.000Z</time>
</trkpt>
<trkpt lat="46.0399510" lon="10.4839340">
	<ele>2299.00</ele>
	<time>2023-08-06T07:33:09.000Z</time>
</trkpt>
<trkpt lat="46.0399580" lon="10.4839450">
	<ele>2299.00</ele>
	<time>2023-08-06T07:33:10.000Z</time>
</trkpt>
<trkpt lat="46.0399660" lon="10.4839530">
	<ele>2298.80</ele>
	<time>2023-08-06T07:33:11.000Z</time>
</trkpt>
<trkpt lat="46.0399730" lon="10.4839600">
	<ele>2298.40</ele>
	<time>2023-08-06T07:33:12.000Z</time>
</trkpt>
<trkpt lat="46.0399800" lon="10.4839650">
	<ele>2298.20</ele>
	<time>2023-08-06T07:33:13.000Z</time>
</trkpt>
<trkpt lat="46.0399870" lon="10.4839680">
	<ele>2298.20</ele>
	<time>2023-08-06T07:33:14.000Z</time>
</trkpt>
<trkpt lat="46.0399970" lon="10.4839720">
	<ele>2298.00</ele>
	<time>2023-08-06T07:33:15.000Z</time>
</trkpt>
<trkpt lat="46.0400070" lon="10.4839740">
	<ele>2298.00</ele>
	<time>2023-08-06T07:33:16.000Z</time>
</trkpt>
<trkpt lat="46.0400160" lon="10.4839710">
	<ele>2298.00</ele>
	<time>2023-08-06T07:33:17.000Z</time>
</trkpt>
<trkpt lat="46.0400250" lon="10.4839730">
	<ele>2298.00</ele>
	<time>2023-08-06T07:33:18.000Z</time>
</trkpt>
<trkpt lat="46.0400330" lon="10.4839800">
	<ele>2297.80</ele>
	<time>2023-08-06T07:33:19.000Z</time>
</trkpt>
<trkpt lat="46.0400400" lon="10.4839880">
	<ele>2297.80</ele>
	<time>2023-08-06T07:33:20.000Z</time>
</trkpt>
<trkpt lat="46.0400480" lon="10.4839930">
	<ele>2297.60</ele>
	<time>2023-08-06T07:33:21.000Z</time>
</trkpt>
<trkpt lat="46.0400550" lon="10.4839980">
	<ele>2297.40</ele>
	<time>2023-08-06T07:33:22.000Z</time>
</trkpt>
<trkpt lat="46.0400600" lon="10.4840030">
	<ele>2297.20</ele>
	<time>2023-08-06T07:33:23.000Z</time>
</trkpt>
<trkpt lat="46.0400620" lon="10.4840050">
	<ele>2296.80</ele>
	<time>2023-08-06T07:33:24.000Z</time>
</trkpt>
<trkpt lat="46.0400670" lon="10.4840050">
	<ele>2296.60</ele>
	<time>2023-08-06T07:33:25.000Z</time>
</trkpt>
<trkpt lat="46.0400740" lon="10.4840050">
	<ele>2296.20</ele>
	<time>2023-08-06T07:33:26.000Z</time>
</trkpt>
<trkpt lat="46.0400830" lon="10.4840050">
	<ele>2296.00</ele>
	<time>2023-08-06T07:33:27.000Z</time>
</trkpt>
<trkpt lat="46.0400910" lon="10.4840030">
	<ele>2295.80</ele>
	<time>2023-08-06T07:33:28.000Z</time>
</trkpt>
<trkpt lat="46.0400990" lon="10.4839990">
	<ele>2295.40</ele>
	<time>2023-08-06T07:33:29.000Z</time>
</trkpt>
<trkpt lat="46.0401100" lon="10.4839920">
	<ele>2295.00</ele>
	<time>2023-08-06T07:33:30.000Z</time>
</trkpt>
<trkpt lat="46.0401180" lon="10.4839860">
	<ele>2294.80</ele>
	<time>2023-08-06T07:33:31.000Z</time>
</trkpt>
<trkpt lat="46.0401260" lon="10.4839870">
	<ele>2294.80</ele>
	<time>2023-08-06T07:33:32.000Z</time>
</trkpt>
<trkpt lat="46.0401330" lon="10.4839840">
	<ele>2294.60</ele>
	<time>2023-08-06T07:33:33.000Z</time>
</trkpt>
<trkpt lat="46.0401420" lon="10.4839810">
	<ele>2294.60</ele>
	<time>2023-08-06T07:33:34.000Z</time>
</trkpt>
<trkpt lat="46.0401470" lon="10.4839820">
	<ele>2294.40</ele>
	<time>2023-08-06T07:33:35.000Z</time>
</trkpt>
<trkpt lat="46.0401550" lon="10.4839840">
	<ele>2294.40</ele>
	<time>2023-08-06T07:33:36.000Z</time>
</trkpt>
<trkpt lat="46.0401620" lon="10.4839870">
	<ele>2294.40</ele>
	<time>2023-08-06T07:33:37.000Z</time>
</trkpt>
<trkpt lat="46.0401710" lon="10.4839820">
	<ele>2294.20</ele>
	<time>2023-08-06T07:33:38.000Z</time>
</trkpt>
<trkpt lat="46.0401770" lon="10.4839790">
	<ele>2294.00</ele>
	<time>2023-08-06T07:33:39.000Z</time>
</trkpt>
<trkpt lat="46.0401830" lon="10.4839730">
	<ele>2293.80</ele>
	<time>2023-08-06T07:33:40.000Z</time>
</trkpt>
<trkpt lat="46.0401920" lon="10.4839680">
	<ele>2293.60</ele>
	<time>2023-08-06T07:33:41.000Z</time>
</trkpt>
<trkpt lat="46.0402060" lon="10.4839600">
	<ele>2293.40</ele>
	<time>2023-08-06T07:33:42.000Z</time>
</trkpt>
<trkpt lat="46.0402150" lon="10.4839490">
	<ele>2293.20</ele>
	<time>2023-08-06T07:33:43.000Z</time>
</trkpt>
<trkpt lat="46.0402200" lon="10.4839420">
	<ele>2293.20</ele>
	<time>2023-08-06T07:33:44.000Z</time>
</trkpt>
<trkpt lat="46.0402240" lon="10.4839370">
	<ele>2293.20</ele>
	<time>2023-08-06T07:33:45.000Z</time>
</trkpt>
<trkpt lat="46.0402330" lon="10.4839330">
	<ele>2293.00</ele>
	<time>2023-08-06T07:33:46.000Z</time>
</trkpt>
<trkpt lat="46.0402420" lon="10.4839280">
	<ele>2293.20</ele>
	<time>2023-08-06T07:33:47.000Z</time>
</trkpt>
<trkpt lat="46.0402540" lon="10.4839230">
	<ele>2293.20</ele>
	<time>2023-08-06T07:33:48.000Z</time>
</trkpt>
<trkpt lat="46.0402670" lon="10.4839180">
	<ele>2293.20</ele>
	<time>2023-08-06T07:33:49.000Z</time>
</trkpt>
<trkpt lat="46.0402770" lon="10.4839150">
	<ele>2293.20</ele>
	<time>2023-08-06T07:33:50.000Z</time>
</trkpt>
<trkpt lat="46.0402920" lon="10.4839100">
	<ele>2293.20</ele>
	<time>2023-08-06T07:33:51.000Z</time>
</trkpt>
<trkpt lat="46.0403050" lon="10.4839060">
	<ele>2293.40</ele>
	<time>2023-08-06T07:33:52.000Z</time>
</trkpt>
<trkpt lat="46.0403150" lon="10.4839100">
	<ele>2293.40</ele>
	<time>2023-08-06T07:33:53.000Z</time>
</trkpt>
<trkpt lat="46.0403260" lon="10.4839120">
	<ele>2293.40</ele>
	<time>2023-08-06T07:33:54.000Z</time>
</trkpt>
<trkpt lat="46.0403370" lon="10.4839150">
	<ele>2293.40</ele>
	<time>2023-08-06T07:33:55.000Z</time>
</trkpt>
<trkpt lat="46.0403470" lon="10.4839160">
	<ele>2293.40</ele>
	<time>2023-08-06T07:33:56.000Z</time>
</trkpt>
<trkpt lat="46.0403570" lon="10.4839120">
	<ele>2293.20</ele>
	<time>2023-08-06T07:33:57.000Z</time>
</trkpt>
<trkpt lat="46.0403670" lon="10.4839080">
	<ele>2293.20</ele>
	<time>2023-08-06T07:33:58.000Z</time>
</trkpt>
<trkpt lat="46.0403770" lon="10.4839020">
	<ele>2293.20</ele>
	<time>2023-08-06T07:33:59.000Z</time>
</trkpt>
<trkpt lat="46.0403850" lon="10.4838960">
	<ele>2293.00</ele>
	<time>2023-08-06T07:34:00.000Z</time>
</trkpt>
<trkpt lat="46.0403900" lon="10.4839020">
	<ele>2292.80</ele>
	<time>2023-08-06T07:34:01.000Z</time>
</trkpt>
<trkpt lat="46.0403960" lon="10.4839060">
	<ele>2292.80</ele>
	<time>2023-08-06T07:34:02.000Z</time>
</trkpt>
<trkpt lat="46.0404060" lon="10.4839010">
	<ele>2292.60</ele>
	<time>2023-08-06T07:34:03.000Z</time>
</trkpt>
<trkpt lat="46.0404160" lon="10.4839040">
	<ele>2292.60</ele>
	<time>2023-08-06T07:34:04.000Z</time>
</trkpt>
<trkpt lat="46.0404250" lon="10.4839060">
	<ele>2292.60</ele>
	<time>2023-08-06T07:34:05.000Z</time>
</trkpt>
<trkpt lat="46.0404360" lon="10.4839010">
	<ele>2292.60</ele>
	<time>2023-08-06T07:34:06.000Z</time>
</trkpt>
<trkpt lat="46.0404430" lon="10.4838950">
	<ele>2292.60</ele>
	<time>2023-08-06T07:34:07.000Z</time>
</trkpt>
<trkpt lat="46.0404520" lon="10.4838870">
	<ele>2292.60</ele>
	<time>2023-08-06T07:34:08.000Z</time>
</trkpt>
<trkpt lat="46.0404630" lon="10.4838810">
	<ele>2292.80</ele>
	<time>2023-08-06T07:34:09.000Z</time>
</trkpt>
<trkpt lat="46.0404750" lon="10.4838800">
	<ele>2292.80</ele>
	<time>2023-08-06T07:34:10.000Z</time>
</trkpt>
<trkpt lat="46.0404870" lon="10.4838780">
	<ele>2292.80</ele>
	<time>2023-08-06T07:34:11.000Z</time>
</trkpt>
<trkpt lat="46.0405030" lon="10.4838760">
	<ele>2292.80</ele>
	<time>2023-08-06T07:34:12.000Z</time>
</trkpt>
<trkpt lat="46.0405120" lon="10.4838780">
	<ele>2293.00</ele>
	<time>2023-08-06T07:34:13.000Z</time>
</trkpt>
<trkpt lat="46.0405230" lon="10.4838760">
	<ele>2293.20</ele>
	<time>2023-08-06T07:34:14.000Z</time>
</trkpt>
<trkpt lat="46.0405370" lon="10.4838800">
	<ele>2293.20</ele>
	<time>2023-08-06T07:34:15.000Z</time>
</trkpt>
<trkpt lat="46.0405450" lon="10.4838820">
	<ele>2293.20</ele>
	<time>2023-08-06T07:34:16.000Z</time>
</trkpt>
<trkpt lat="46.0405560" lon="10.4838830">
	<ele>2293.40</ele>
	<time>2023-08-06T07:34:17.000Z</time>
</trkpt>
<trkpt lat="46.0405680" lon="10.4838830">
	<ele>2293.40</ele>
	<time>2023-08-06T07:34:18.000Z</time>
</trkpt>
<trkpt lat="46.0405750" lon="10.4838770">
	<ele>2293.40</ele>
	<time>2023-08-06T07:34:19.000Z</time>
</trkpt>
<trkpt lat="46.0405810" lon="10.4838700">
	<ele>2293.40</ele>
	<time>2023-08-06T07:34:20.000Z</time>
</trkpt>
<trkpt lat="46.0405890" lon="10.4838670">
	<ele>2293.40</ele>
	<time>2023-08-06T07:34:21.000Z</time>
</trkpt>
<trkpt lat="46.0405990" lon="10.4838650">
	<ele>2293.60</ele>
	<time>2023-08-06T07:34:22.000Z</time>
</trkpt>
<trkpt lat="46.0406090" lon="10.4838700">
	<ele>2293.80</ele>
	<time>2023-08-06T07:34:23.000Z</time>
</trkpt>
<trkpt lat="46.0406190" lon="10.4838740">
	<ele>2293.80</ele>
	<time>2023-08-06T07:34:24.000Z</time>
</trkpt>
<trkpt lat="46.0406260" lon="10.4838750">
	<ele>2294.00</ele>
	<time>2023-08-06T07:34:25.000Z</time>
</trkpt>
<trkpt lat="46.0406320" lon="10.4838760">
	<ele>2294.00</ele>
	<time>2023-08-06T07:34:26.000Z</time>
</trkpt>
<trkpt lat="46.0406410" lon="10.4838780">
	<ele>2294.00</ele>
	<time>2023-08-06T07:34:27.000Z</time>
</trkpt>
<trkpt lat="46.0406520" lon="10.4838810">
	<ele>2294.00</ele>
	<time>2023-08-06T07:34:28.000Z</time>
</trkpt>
<trkpt lat="46.0406620" lon="10.4838780">
	<ele>2294.20</ele>
	<time>2023-08-06T07:34:29.000Z</time>
</trkpt>
<trkpt lat="46.0406700" lon="10.4838760">
	<ele>2294.20</ele>
	<time>2023-08-06T07:34:30.000Z</time>
</trkpt>
<trkpt lat="46.0406790" lon="10.4838730">
	<ele>2294.20</ele>
	<time>2023-08-06T07:34:31.000Z</time>
</trkpt>
<trkpt lat="46.0406880" lon="10.4838740">
	<ele>2294.20</ele>
	<time>2023-08-06T07:34:32.000Z</time>
</trkpt>
<trkpt lat="46.0407020" lon="10.4838780">
	<ele>2294.20</ele>
	<time>2023-08-06T07:34:33.000Z</time>
</trkpt>
<trkpt lat="46.0407110" lon="10.4838800">
	<ele>2294.20</ele>
	<time>2023-08-06T07:34:34.000Z</time>
</trkpt>
<trkpt lat="46.0407240" lon="10.4838780">
	<ele>2294.20</ele>
	<time>2023-08-06T07:34:35.000Z</time>
</trkpt>
<trkpt lat="46.0407340" lon="10.4838760">
	<ele>2294.20</ele>
	<time>2023-08-06T07:34:36.000Z</time>
</trkpt>
<trkpt lat="46.0407450" lon="10.4838780">
	<ele>2294.20</ele>
	<time>2023-08-06T07:34:37.000Z</time>
</trkpt>
<trkpt lat="46.0407580" lon="10.4838810">
	<ele>2294.20</ele>
	<time>2023-08-06T07:34:38.000Z</time>
</trkpt>
<trkpt lat="46.0407650" lon="10.4838810">
	<ele>2294.20</ele>
	<time>2023-08-06T07:34:39.000Z</time>
</trkpt>
<trkpt lat="46.0407760" lon="10.4838830">
	<ele>2294.20</ele>
	<time>2023-08-06T07:34:40.000Z</time>
</trkpt>
<trkpt lat="46.0407870" lon="10.4838860">
	<ele>2294.20</ele>
	<time>2023-08-06T07:34:41.000Z</time>
</trkpt>
<trkpt lat="46.0407970" lon="10.4838860">
	<ele>2294.20</ele>
	<time>2023-08-06T07:34:42.000Z</time>
</trkpt>
<trkpt lat="46.0408040" lon="10.4838890">
	<ele>2294.20</ele>
	<time>2023-08-06T07:34:43.000Z</time>
</trkpt>
<trkpt lat="46.0408140" lon="10.4838920">
	<ele>2294.20</ele>
	<time>2023-08-06T07:34:44.000Z</time>
</trkpt>
<trkpt lat="46.0408250" lon="10.4838900">
	<ele>2294.00</ele>
	<time>2023-08-06T07:34:45.000Z</time>
</trkpt>
<trkpt lat="46.0408340" lon="10.4838930">
	<ele>2294.00</ele>
	<time>2023-08-06T07:34:46.000Z</time>
</trkpt>
<trkpt lat="46.0408410" lon="10.4838970">
	<ele>2294.20</ele>
	<time>2023-08-06T07:34:47.000Z</time>
</trkpt>
<trkpt lat="46.0408490" lon="10.4839010">
	<ele>2294.20</ele>
	<time>2023-08-06T07:34:48.000Z</time>
</trkpt>
<trkpt lat="46.0408560" lon="10.4839010">
	<ele>2294.20</ele>
	<time>2023-08-06T07:34:49.000Z</time>
</trkpt>
<trkpt lat="46.0408640" lon="10.4839010">
	<ele>2294.20</ele>
	<time>2023-08-06T07:34:50.000Z</time>
</trkpt>
<trkpt lat="46.0408710" lon="10.4839000">
	<ele>2294.40</ele>
	<time>2023-08-06T07:34:51.000Z</time>
</trkpt>
<trkpt lat="46.0408790" lon="10.4838970">
	<ele>2294.40</ele>
	<time>2023-08-06T07:34:52.000Z</time>
</trkpt>
<trkpt lat="46.0408880" lon="10.4838920">
	<ele>2294.40</ele>
	<time>2023-08-06T07:34:53.000Z</time>
</trkpt>
<trkpt lat="46.0408960" lon="10.4838850">
	<ele>2294.40</ele>
	<time>2023-08-06T07:34:54.000Z</time>
</trkpt>
<trkpt lat="46.0409060" lon="10.4838840">
	<ele>2294.40</ele>
	<time>2023-08-06T07:34:55.000Z</time>
</trkpt>
<trkpt lat="46.0409170" lon="10.4838850">
	<ele>2294.40</ele>
	<time>2023-08-06T07:34:56.000Z</time>
</trkpt>
<trkpt lat="46.0409270" lon="10.4838820">
	<ele>2294.40</ele>
	<time>2023-08-06T07:34:57.000Z</time>
</trkpt>
<trkpt lat="46.0409340" lon="10.4838820">
	<ele>2294.60</ele>
	<time>2023-08-06T07:34:58.000Z</time>
</trkpt>
<trkpt lat="46.0409380" lon="10.4838830">
	<ele>2294.60</ele>
	<time>2023-08-06T07:34:59.000Z</time>
</trkpt>
<trkpt lat="46.0409460" lon="10.4838770">
	<ele>2294.60</ele>
	<time>2023-08-06T07:35:00.000Z</time>
</trkpt>
<trkpt lat="46.0409540" lon="10.4838730">
	<ele>2294.60</ele>
	<time>2023-08-06T07:35:01.000Z</time>
</trkpt>
<trkpt lat="46.0409630" lon="10.4838650">
	<ele>2294.60</ele>
	<time>2023-08-06T07:35:02.000Z</time>
</trkpt>
<trkpt lat="46.0409640" lon="10.4838570">
	<ele>2294.60</ele>
	<time>2023-08-06T07:35:03.000Z</time>
</trkpt>
<trkpt lat="46.0409690" lon="10.4838500">
	<ele>2294.60</ele>
	<time>2023-08-06T07:35:04.000Z</time>
</trkpt>
<trkpt lat="46.0409780" lon="10.4838430">
	<ele>2294.60</ele>
	<time>2023-08-06T07:35:05.000Z</time>
</trkpt>
<trkpt lat="46.0409820" lon="10.4838390">
	<ele>2294.80</ele>
	<time>2023-08-06T07:35:06.000Z</time>
</trkpt>
<trkpt lat="46.0409900" lon="10.4838340">
	<ele>2294.80</ele>
	<time>2023-08-06T07:35:07.000Z</time>
</trkpt>
<trkpt lat="46.0409980" lon="10.4838310">
	<ele>2294.80</ele>
	<time>2023-08-06T07:35:08.000Z</time>
</trkpt>
<trkpt lat="46.0410040" lon="10.4838300">
	<ele>2294.80</ele>
	<time>2023-08-06T07:35:09.000Z</time>
</trkpt>
<trkpt lat="46.0410130" lon="10.4838320">
	<ele>2294.60</ele>
	<time>2023-08-06T07:35:10.000Z</time>
</trkpt>
<trkpt lat="46.0410210" lon="10.4838340">
	<ele>2294.60</ele>
	<time>2023-08-06T07:35:11.000Z</time>
</trkpt>
<trkpt lat="46.0410280" lon="10.4838360">
	<ele>2294.60</ele>
	<time>2023-08-06T07:35:12.000Z</time>
</trkpt>
<trkpt lat="46.0410330" lon="10.4838390">
	<ele>2294.40</ele>
	<time>2023-08-06T07:35:13.000Z</time>
</trkpt>
<trkpt lat="46.0410410" lon="10.4838430">
	<ele>2294.00</ele>
	<time>2023-08-06T07:35:14.000Z</time>
</trkpt>
<trkpt lat="46.0410460" lon="10.4838490">
	<ele>2294.00</ele>
	<time>2023-08-06T07:35:15.000Z</time>
</trkpt>
<trkpt lat="46.0410570" lon="10.4838470">
	<ele>2293.80</ele>
	<time>2023-08-06T07:35:16.000Z</time>
</trkpt>
<trkpt lat="46.0410620" lon="10.4838410">
	<ele>2293.60</ele>
	<time>2023-08-06T07:35:17.000Z</time>
</trkpt>
<trkpt lat="46.0410660" lon="10.4838340">
	<ele>2293.60</ele>
	<time>2023-08-06T07:35:18.000Z</time>
</trkpt>
<trkpt lat="46.0410740" lon="10.4838300">
	<ele>2293.60</ele>
	<time>2023-08-06T07:35:19.000Z</time>
</trkpt>
<trkpt lat="46.0410850" lon="10.4838250">
	<ele>2293.60</ele>
	<time>2023-08-06T07:35:20.000Z</time>
</trkpt>
<trkpt lat="46.0410960" lon="10.4838230">
	<ele>2293.60</ele>
	<time>2023-08-06T07:35:21.000Z</time>
</trkpt>
<trkpt lat="46.0411080" lon="10.4838230">
	<ele>2293.60</ele>
	<time>2023-08-06T07:35:22.000Z</time>
</trkpt>
<trkpt lat="46.0411190" lon="10.4838250">
	<ele>2293.60</ele>
	<time>2023-08-06T07:35:23.000Z</time>
</trkpt>
<trkpt lat="46.0411290" lon="10.4838230">
	<ele>2293.60</ele>
	<time>2023-08-06T07:35:24.000Z</time>
</trkpt>
<trkpt lat="46.0411340" lon="10.4838220">
	<ele>2293.60</ele>
	<time>2023-08-06T07:35:25.000Z</time>
</trkpt>
<trkpt lat="46.0411380" lon="10.4838200">
	<ele>2293.60</ele>
	<time>2023-08-06T07:35:26.000Z</time>
</trkpt>
<trkpt lat="46.0411440" lon="10.4838200">
	<ele>2293.80</ele>
	<time>2023-08-06T07:35:27.000Z</time>
</trkpt>
<trkpt lat="46.0411560" lon="10.4838160">
	<ele>2293.80</ele>
	<time>2023-08-06T07:35:28.000Z</time>
</trkpt>
<trkpt lat="46.0411650" lon="10.4838120">
	<ele>2293.80</ele>
	<time>2023-08-06T07:35:29.000Z</time>
</trkpt>
<trkpt lat="46.0411790" lon="10.4838100">
	<ele>2293.80</ele>
	<time>2023-08-06T07:35:30.000Z</time>
</trkpt>
<trkpt lat="46.0411860" lon="10.4838050">
	<ele>2294.00</ele>
	<time>2023-08-06T07:35:31.000Z</time>
</trkpt>
<trkpt lat="46.0411930" lon="10.4838000">
	<ele>2294.00</ele>
	<time>2023-08-06T07:35:32.000Z</time>
</trkpt>
<trkpt lat="46.0411990" lon="10.4837910">
	<ele>2294.00</ele>
	<time>2023-08-06T07:35:33.000Z</time>
</trkpt>
<trkpt lat="46.0412080" lon="10.4837880">
	<ele>2294.20</ele>
	<time>2023-08-06T07:35:34.000Z</time>
</trkpt>
<trkpt lat="46.0412150" lon="10.4837900">
	<ele>2294.20</ele>
	<time>2023-08-06T07:35:35.000Z</time>
</trkpt>
<trkpt lat="46.0412260" lon="10.4837930">
	<ele>2294.20</ele>
	<time>2023-08-06T07:35:36.000Z</time>
</trkpt>
<trkpt lat="46.0412360" lon="10.4837960">
	<ele>2294.20</ele>
	<time>2023-08-06T07:35:37.000Z</time>
</trkpt>
<trkpt lat="46.0412460" lon="10.4837990">
	<ele>2294.20</ele>
	<time>2023-08-06T07:35:38.000Z</time>
</trkpt>
<trkpt lat="46.0412560" lon="10.4837970">
	<ele>2294.20</ele>
	<time>2023-08-06T07:35:39.000Z</time>
</trkpt>
<trkpt lat="46.0412660" lon="10.4837930">
	<ele>2294.20</ele>
	<time>2023-08-06T07:35:40.000Z</time>
</trkpt>
<trkpt lat="46.0412740" lon="10.4837880">
	<ele>2294.20</ele>
	<time>2023-08-06T07:35:41.000Z</time>
</trkpt>
<trkpt lat="46.0412840" lon="10.4837850">
	<ele>2294.20</ele>
	<time>2023-08-06T07:35:42.000Z</time>
</trkpt>
<trkpt lat="46.0412940" lon="10.4837830">
	<ele>2294.20</ele>
	<time>2023-08-06T07:35:43.000Z</time>
</trkpt>
<trkpt lat="46.0413010" lon="10.4837860">
	<ele>2294.20</ele>
	<time>2023-08-06T07:35:44.000Z</time>
</trkpt>
<trkpt lat="46.0413090" lon="10.4837890">
	<ele>2294.20</ele>
	<time>2023-08-06T07:35:45.000Z</time>
</trkpt>
<trkpt lat="46.0413190" lon="10.4837910">
	<ele>2294.20</ele>
	<time>2023-08-06T07:35:46.000Z</time>
</trkpt>
<trkpt lat="46.0413300" lon="10.4837910">
	<ele>2294.20</ele>
	<time>2023-08-06T07:35:47.000Z</time>
</trkpt>
<trkpt lat="46.0413410" lon="10.4837900">
	<ele>2294.20</ele>
	<time>2023-08-06T07:35:48.000Z</time>
</trkpt>
<trkpt lat="46.0413490" lon="10.4837850">
	<ele>2294.00</ele>
	<time>2023-08-06T07:35:49.000Z</time>
</trkpt>
<trkpt lat="46.0413550" lon="10.4837820">
	<ele>2294.00</ele>
	<time>2023-08-06T07:35:50.000Z</time>
</trkpt>
<trkpt lat="46.0413620" lon="10.4837740">
	<ele>2294.00</ele>
	<time>2023-08-06T07:35:51.000Z</time>
</trkpt>
<trkpt lat="46.0413660" lon="10.4837710">
	<ele>2294.00</ele>
	<time>2023-08-06T07:35:52.000Z</time>
</trkpt>
<trkpt lat="46.0413720" lon="10.4837690">
	<ele>2294.20</ele>
	<time>2023-08-06T07:35:53.000Z</time>
</trkpt>
<trkpt lat="46.0413820" lon="10.4837640">
	<ele>2294.20</ele>
	<time>2023-08-06T07:35:54.000Z</time>
</trkpt>
<trkpt lat="46.0413950" lon="10.4837590">
	<ele>2294.20</ele>
	<time>2023-08-06T07:35:55.000Z</time>
</trkpt>
<trkpt lat="46.0414010" lon="10.4837520">
	<ele>2294.20</ele>
	<time>2023-08-06T07:35:56.000Z</time>
</trkpt>
<trkpt lat="46.0414100" lon="10.4837340">
	<ele>2294.20</ele>
	<time>2023-08-06T07:35:57.000Z</time>
</trkpt>
<trkpt lat="46.0414190" lon="10.4837260">
	<ele>2294.20</ele>
	<time>2023-08-06T07:35:58.000Z</time>
</trkpt>
<trkpt lat="46.0414200" lon="10.4837240">
	<ele>2294.20</ele>
	<time>2023-08-06T07:35:59.000Z</time>
</trkpt>
<trkpt lat="46.0414210" lon="10.4837260">
	<ele>2294.20</ele>
	<time>2023-08-06T07:36:00.000Z</time>
</trkpt>
<trkpt lat="46.0414240" lon="10.4837260">
	<ele>2294.20</ele>
	<time>2023-08-06T07:36:01.000Z</time>
</trkpt>
<trkpt lat="46.0414270" lon="10.4837270">
	<ele>2294.40</ele>
	<time>2023-08-06T07:36:02.000Z</time>
</trkpt>
<trkpt lat="46.0414280" lon="10.4837280">
	<ele>2294.60</ele>
	<time>2023-08-06T07:36:03.000Z</time>
</trkpt>
<trkpt lat="46.0414280" lon="10.4837270">
	<ele>2294.80</ele>
	<time>2023-08-06T07:36:04.000Z</time>
</trkpt>
<trkpt lat="46.0414280" lon="10.4837260">
	<ele>2295.00</ele>
	<time>2023-08-06T07:36:05.000Z</time>
</trkpt>
<trkpt lat="46.0414260" lon="10.4837250">
	<ele>2295.00</ele>
	<time>2023-08-06T07:36:06.000Z</time>
</trkpt>
<trkpt lat="46.0414250" lon="10.4837230">
	<ele>2295.20</ele>
	<time>2023-08-06T07:36:07.000Z</time>
</trkpt>
<trkpt lat="46.0414250" lon="10.4837220">
	<ele>2295.20</ele>
	<time>2023-08-06T07:36:08.000Z</time>
</trkpt>
<trkpt lat="46.0414250" lon="10.4837220">
	<ele>2295.20</ele>
	<time>2023-08-06T07:36:09.000Z</time>
</trkpt>
<trkpt lat="46.0414250" lon="10.4837220">
	<ele>2295.40</ele>
	<time>2023-08-06T07:36:10.000Z</time>
</trkpt>
<trkpt lat="46.0414250" lon="10.4837220">
	<ele>2295.40</ele>
	<time>2023-08-06T07:36:11.000Z</time>
</trkpt>
<trkpt lat="46.0414250" lon="10.4837220">
	<ele>2295.40</ele>
	<time>2023-08-06T07:36:12.000Z</time>
</trkpt>
<trkpt lat="46.0414250" lon="10.4837220">
	<ele>2295.40</ele>
	<time>2023-08-06T07:36:13.000Z</time>
</trkpt>
<trkpt lat="46.0414250" lon="10.4837220">
	<ele>2295.40</ele>
	<time>2023-08-06T07:36:14.000Z</time>
</trkpt>
<trkpt lat="46.0414250" lon="10.4837220">
	<ele>2295.20</ele>
	<time>2023-08-06T07:36:15.000Z</time>
</trkpt>
<trkpt lat="46.0414250" lon="10.4837220">
	<ele>2295.00</ele>
	<time>2023-08-06T07:36:16.000Z</time>
</trkpt>
<trkpt lat="46.0414250" lon="10.4837220">
	<ele>2294.80</ele>
	<time>2023-08-06T07:36:17.000Z</time>
</trkpt>
<trkpt lat="46.0414250" lon="10.4837220">
	<ele>2294.60</ele>
	<time>2023-08-06T07:36:18.000Z</time>
</trkpt>
<trkpt lat="46.0414250" lon="10.4837220">
	<ele>2294.40</ele>
	<time>2023-08-06T07:36:19.000Z</time>
</trkpt>
<trkpt lat="46.0414250" lon="10.4837220">
	<ele>2294.40</ele>
	<time>2023-08-06T07:36:20.000Z</time>
</trkpt>
<trkpt lat="46.0414250" lon="10.4837220">
	<ele>2294.40</ele>
	<time>2023-08-06T07:36:21.000Z</time>
</trkpt>
<trkpt lat="46.0414250" lon="10.4837220">
	<ele>2294.40</ele>
	<time>2023-08-06T07:36:22.000Z</time>
</trkpt>
<trkpt lat="46.0414250" lon="10.4837220">
	<ele>2294.40</ele>
	<time>2023-08-06T07:36:23.000Z</time>
</trkpt>
<trkpt lat="46.0414250" lon="10.4837220">
	<ele>2294.40</ele>
	<time>2023-08-06T07:36:24.000Z</time>
</trkpt>
<trkpt lat="46.0414260" lon="10.4837220">
	<ele>2294.60</ele>
	<time>2023-08-06T07:36:25.000Z</time>
</trkpt>
<trkpt lat="46.0414330" lon="10.4837190">
	<ele>2294.60</ele>
	<time>2023-08-06T07:36:26.000Z</time>
</trkpt>
<trkpt lat="46.0414480" lon="10.4837190">
	<ele>2294.80</ele>
	<time>2023-08-06T07:36:27.000Z</time>
</trkpt>
<trkpt lat="46.0414640" lon="10.4837160">
	<ele>2294.80</ele>
	<time>2023-08-06T07:36:28.000Z</time>
</trkpt>
<trkpt lat="46.0414790" lon="10.4837110">
	<ele>2294.80</ele>
	<time>2023-08-06T07:36:29.000Z</time>
</trkpt>
<trkpt lat="46.0414930" lon="10.4837080">
	<ele>2294.80</ele>
	<time>2023-08-06T07:36:30.000Z</time>
</trkpt>
<trkpt lat="46.0415110" lon="10.4837040">
	<ele>2294.80</ele>
	<time>2023-08-06T07:36:31.000Z</time>
</trkpt>
<trkpt lat="46.0415250" lon="10.4837010">
	<ele>2294.80</ele>
	<time>2023-08-06T07:36:32.000Z</time>
</trkpt>
<trkpt lat="46.0415420" lon="10.4836970">
	<ele>2294.80</ele>
	<time>2023-08-06T07:36:33.000Z</time>
</trkpt>
<trkpt lat="46.0415530" lon="10.4836930">
	<ele>2294.80</ele>
	<time>2023-08-06T07:36:34.000Z</time>
</trkpt>
<trkpt lat="46.0415670" lon="10.4836870">
	<ele>2294.80</ele>
	<time>2023-08-06T07:36:35.000Z</time>
</trkpt>
<trkpt lat="46.0415760" lon="10.4836890">
	<ele>2294.80</ele>
	<time>2023-08-06T07:36:36.000Z</time>
</trkpt>
<trkpt lat="46.0415850" lon="10.4836930">
	<ele>2295.00</ele>
	<time>2023-08-06T07:36:37.000Z</time>
</trkpt>
<trkpt lat="46.0415890" lon="10.4836940">
	<ele>2295.00</ele>
	<time>2023-08-06T07:36:38.000Z</time>
</trkpt>
<trkpt lat="46.0415900" lon="10.4836990">
	<ele>2295.00</ele>
	<time>2023-08-06T07:36:39.000Z</time>
</trkpt>
<trkpt lat="46.0415890" lon="10.4837000">
	<ele>2294.80</ele>
	<time>2023-08-06T07:36:40.000Z</time>
</trkpt>
<trkpt lat="46.0415910" lon="10.4837060">
	<ele>2294.80</ele>
	<time>2023-08-06T07:36:41.000Z</time>
</trkpt>
<trkpt lat="46.0415930" lon="10.4837080">
	<ele>2294.60</ele>
	<time>2023-08-06T07:36:42.000Z</time>
</trkpt>
<trkpt lat="46.0415970" lon="10.4837120">
	<ele>2294.60</ele>
	<time>2023-08-06T07:36:43.000Z</time>
</trkpt>
<trkpt lat="46.0416030" lon="10.4837110">
	<ele>2294.60</ele>
	<time>2023-08-06T07:36:44.000Z</time>
</trkpt>
<trkpt lat="46.0416100" lon="10.4837060">
	<ele>2294.40</ele>
	<time>2023-08-06T07:36:45.000Z</time>
</trkpt>
<trkpt lat="46.0416160" lon="10.4837010">
	<ele>2294.40</ele>
	<time>2023-08-06T07:36:46.000Z</time>
</trkpt>
<trkpt lat="46.0416240" lon="10.4836930">
	<ele>2294.40</ele>
	<time>2023-08-06T07:36:47.000Z</time>
</trkpt>
<trkpt lat="46.0416290" lon="10.4836900">
	<ele>2294.60</ele>
	<time>2023-08-06T07:36:48.000Z</time>
</trkpt>
<trkpt lat="46.0416360" lon="10.4836890">
	<ele>2294.60</ele>
	<time>2023-08-06T07:36:49.000Z</time>
</trkpt>
<trkpt lat="46.0416440" lon="10.4836890">
	<ele>2294.60</ele>
	<time>2023-08-06T07:36:50.000Z</time>
</trkpt>
<trkpt lat="46.0416530" lon="10.4836900">
	<ele>2294.60</ele>
	<time>2023-08-06T07:36:51.000Z</time>
</trkpt>
<trkpt lat="46.0416610" lon="10.4836940">
	<ele>2294.60</ele>
	<time>2023-08-06T07:36:52.000Z</time>
</trkpt>
<trkpt lat="46.0416690" lon="10.4836980">
	<ele>2294.60</ele>
	<time>2023-08-06T07:36:53.000Z</time>
</trkpt>
<trkpt lat="46.0416820" lon="10.4836990">
	<ele>2294.60</ele>
	<time>2023-08-06T07:36:54.000Z</time>
</trkpt>
<trkpt lat="46.0416930" lon="10.4837010">
	<ele>2294.40</ele>
	<time>2023-08-06T07:36:55.000Z</time>
</trkpt>
<trkpt lat="46.0417030" lon="10.4837010">
	<ele>2294.40</ele>
	<time>2023-08-06T07:36:56.000Z</time>
</trkpt>
<trkpt lat="46.0417130" lon="10.4837030">
	<ele>2294.60</ele>
	<time>2023-08-06T07:36:57.000Z</time>
</trkpt>
<trkpt lat="46.0417220" lon="10.4837030">
	<ele>2294.60</ele>
	<time>2023-08-06T07:36:58.000Z</time>
</trkpt>
<trkpt lat="46.0417270" lon="10.4837030">
	<ele>2294.40</ele>
	<time>2023-08-06T07:36:59.000Z</time>
</trkpt>
<trkpt lat="46.0417350" lon="10.4837000">
	<ele>2294.40</ele>
	<time>2023-08-06T07:37:00.000Z</time>
</trkpt>
<trkpt lat="46.0417440" lon="10.4836990">
	<ele>2294.40</ele>
	<time>2023-08-06T07:37:01.000Z</time>
</trkpt>
<trkpt lat="46.0417520" lon="10.4836970">
	<ele>2294.20</ele>
	<time>2023-08-06T07:37:02.000Z</time>
</trkpt>
<trkpt lat="46.0417620" lon="10.4836950">
	<ele>2294.20</ele>
	<time>2023-08-06T07:37:03.000Z</time>
</trkpt>
<trkpt lat="46.0417720" lon="10.4836940">
	<ele>2294.00</ele>
	<time>2023-08-06T07:37:04.000Z</time>
</trkpt>
<trkpt lat="46.0417800" lon="10.4836950">
	<ele>2294.00</ele>
	<time>2023-08-06T07:37:05.000Z</time>
</trkpt>
<trkpt lat="46.0417930" lon="10.4836890">
	<ele>2293.80</ele>
	<time>2023-08-06T07:37:06.000Z</time>
</trkpt>
<trkpt lat="46.0418030" lon="10.4836860">
	<ele>2293.80</ele>
	<time>2023-08-06T07:37:07.000Z</time>
</trkpt>
<trkpt lat="46.0418090" lon="10.4836910">
	<ele>2293.80</ele>
	<time>2023-08-06T07:37:08.000Z</time>
</trkpt>
<trkpt lat="46.0418160" lon="10.4836940">
	<ele>2294.00</ele>
	<time>2023-08-06T07:37:09.000Z</time>
</trkpt>
<trkpt lat="46.0418240" lon="10.4836990">
	<ele>2294.00</ele>
	<time>2023-08-06T07:37:10.000Z</time>
</trkpt>
<trkpt lat="46.0418340" lon="10.4837050">
	<ele>2294.00</ele>
	<time>2023-08-06T07:37:11.000Z</time>
</trkpt>
<trkpt lat="46.0418450" lon="10.4837050">
	<ele>2293.80</ele>
	<time>2023-08-06T07:37:12.000Z</time>
</trkpt>
<trkpt lat="46.0418560" lon="10.4837000">
	<ele>2293.80</ele>
	<time>2023-08-06T07:37:13.000Z</time>
</trkpt>
<trkpt lat="46.0418610" lon="10.4837010">
	<ele>2293.60</ele>
	<time>2023-08-06T07:37:14.000Z</time>
</trkpt>
<trkpt lat="46.0418700" lon="10.4836960">
	<ele>2293.40</ele>
	<time>2023-08-06T07:37:15.000Z</time>
</trkpt>
<trkpt lat="46.0418750" lon="10.4836950">
	<ele>2293.40</ele>
	<time>2023-08-06T07:37:16.000Z</time>
</trkpt>
<trkpt lat="46.0418810" lon="10.4836880">
	<ele>2293.40</ele>
	<time>2023-08-06T07:37:17.000Z</time>
</trkpt>
<trkpt lat="46.0418870" lon="10.4836810">
	<ele>2293.20</ele>
	<time>2023-08-06T07:37:18.000Z</time>
</trkpt>
<trkpt lat="46.0418970" lon="10.4836740">
	<ele>2293.20</ele>
	<time>2023-08-06T07:37:19.000Z</time>
</trkpt>
<trkpt lat="46.0419070" lon="10.4836750">
	<ele>2293.20</ele>
	<time>2023-08-06T07:37:20.000Z</time>
</trkpt>
<trkpt lat="46.0419160" lon="10.4836780">
	<ele>2293.20</ele>
	<time>2023-08-06T07:37:21.000Z</time>
</trkpt>
<trkpt lat="46.0419210" lon="10.4836900">
	<ele>2293.20</ele>
	<time>2023-08-06T07:37:22.000Z</time>
</trkpt>
<trkpt lat="46.0419290" lon="10.4836990">
	<ele>2293.20</ele>
	<time>2023-08-06T07:37:23.000Z</time>
</trkpt>
<trkpt lat="46.0419420" lon="10.4837000">
	<ele>2293.20</ele>
	<time>2023-08-06T07:37:24.000Z</time>
</trkpt>
<trkpt lat="46.0419550" lon="10.4837010">
	<ele>2293.00</ele>
	<time>2023-08-06T07:37:25.000Z</time>
</trkpt>
<trkpt lat="46.0419630" lon="10.4837090">
	<ele>2293.00</ele>
	<time>2023-08-06T07:37:26.000Z</time>
</trkpt>
<trkpt lat="46.0419680" lon="10.4837140">
	<ele>2293.20</ele>
	<time>2023-08-06T07:37:27.000Z</time>
</trkpt>
<trkpt lat="46.0419800" lon="10.4837120">
	<ele>2293.20</ele>
	<time>2023-08-06T07:37:28.000Z</time>
</trkpt>
<trkpt lat="46.0419880" lon="10.4837120">
	<ele>2293.20</ele>
	<time>2023-08-06T07:37:29.000Z</time>
</trkpt>
<trkpt lat="46.0420020" lon="10.4837000">
	<ele>2293.40</ele>
	<time>2023-08-06T07:37:30.000Z</time>
</trkpt>
<trkpt lat="46.0420160" lon="10.4836930">
	<ele>2293.40</ele>
	<time>2023-08-06T07:37:31.000Z</time>
</trkpt>
<trkpt lat="46.0420280" lon="10.4836900">
	<ele>2293.40</ele>
	<time>2023-08-06T07:37:32.000Z</time>
</trkpt>
<trkpt lat="46.0420360" lon="10.4836970">
	<ele>2293.40</ele>
	<time>2023-08-06T07:37:33.000Z</time>
</trkpt>
<trkpt lat="46.0420420" lon="10.4837030">
	<ele>2293.60</ele>
	<time>2023-08-06T07:37:34.000Z</time>
</trkpt>
<trkpt lat="46.0420490" lon="10.4837120">
	<ele>2293.60</ele>
	<time>2023-08-06T07:37:35.000Z</time>
</trkpt>
<trkpt lat="46.0420600" lon="10.4837140">
	<ele>2293.60</ele>
	<time>2023-08-06T07:37:36.000Z</time>
</trkpt>
<trkpt lat="46.0420720" lon="10.4837150">
	<ele>2293.60</ele>
	<time>2023-08-06T07:37:37.000Z</time>
</trkpt>
<trkpt lat="46.0420830" lon="10.4837160">
	<ele>2293.60</ele>
	<time>2023-08-06T07:37:38.000Z</time>
</trkpt>
<trkpt lat="46.0420900" lon="10.4837260">
	<ele>2293.60</ele>
	<time>2023-08-06T07:37:39.000Z</time>
</trkpt>
<trkpt lat="46.0420970" lon="10.4837350">
	<ele>2293.80</ele>
	<time>2023-08-06T07:37:40.000Z</time>
</trkpt>
<trkpt lat="46.0421060" lon="10.4837360">
	<ele>2293.60</ele>
	<time>2023-08-06T07:37:41.000Z</time>
</trkpt>
<trkpt lat="46.0421140" lon="10.4837420">
	<ele>2293.60</ele>
	<time>2023-08-06T07:37:42.000Z</time>
</trkpt>
<trkpt lat="46.0421140" lon="10.4837540">
	<ele>2293.60</ele>
	<time>2023-08-06T07:37:43.000Z</time>
</trkpt>
<trkpt lat="46.0421170" lon="10.4837640">
	<ele>2293.60</ele>
	<time>2023-08-06T07:37:44.000Z</time>
</trkpt>
<trkpt lat="46.0421280" lon="10.4837740">
	<ele>2293.60</ele>
	<time>2023-08-06T07:37:45.000Z</time>
</trkpt>
<trkpt lat="46.0421420" lon="10.4837770">
	<ele>2293.60</ele>
	<time>2023-08-06T07:37:46.000Z</time>
</trkpt>
<trkpt lat="46.0421590" lon="10.4837660">
	<ele>2293.40</ele>
	<time>2023-08-06T07:37:47.000Z</time>
</trkpt>
<trkpt lat="46.0421690" lon="10.4837590">
	<ele>2293.40</ele>
	<time>2023-08-06T07:37:48.000Z</time>
</trkpt>
<trkpt lat="46.0421880" lon="10.4837490">
	<ele>2293.40</ele>
	<time>2023-08-06T07:37:49.000Z</time>
</trkpt>
<trkpt lat="46.0421980" lon="10.4837520">
	<ele>2293.20</ele>
	<time>2023-08-06T07:37:50.000Z</time>
</trkpt>
<trkpt lat="46.0422110" lon="10.4837520">
	<ele>2293.00</ele>
	<time>2023-08-06T07:37:51.000Z</time>
</trkpt>
<trkpt lat="46.0422180" lon="10.4837570">
	<ele>2292.80</ele>
	<time>2023-08-06T07:37:52.000Z</time>
</trkpt>
<trkpt lat="46.0422240" lon="10.4837600">
	<ele>2292.60</ele>
	<time>2023-08-06T07:37:53.000Z</time>
</trkpt>
<trkpt lat="46.0422320" lon="10.4837640">
	<ele>2292.60</ele>
	<time>2023-08-06T07:37:54.000Z</time>
</trkpt>
<trkpt lat="46.0422400" lon="10.4837580">
	<ele>2292.40</ele>
	<time>2023-08-06T07:37:55.000Z</time>
</trkpt>
<trkpt lat="46.0422460" lon="10.4837550">
	<ele>2292.40</ele>
	<time>2023-08-06T07:37:56.000Z</time>
</trkpt>
<trkpt lat="46.0422470" lon="10.4837590">
	<ele>2292.40</ele>
	<time>2023-08-06T07:37:57.000Z</time>
</trkpt>
<trkpt lat="46.0422520" lon="10.4837600">
	<ele>2292.40</ele>
	<time>2023-08-06T07:37:58.000Z</time>
</trkpt>
<trkpt lat="46.0422600" lon="10.4837610">
	<ele>2292.40</ele>
	<time>2023-08-06T07:37:59.000Z</time>
</trkpt>
<trkpt lat="46.0422680" lon="10.4837580">
	<ele>2292.40</ele>
	<time>2023-08-06T07:38:00.000Z</time>
</trkpt>
<trkpt lat="46.0422790" lon="10.4837430">
	<ele>2292.40</ele>
	<time>2023-08-06T07:38:01.000Z</time>
</trkpt>
<trkpt lat="46.0422900" lon="10.4837330">
	<ele>2292.40</ele>
	<time>2023-08-06T07:38:02.000Z</time>
</trkpt>
<trkpt lat="46.0422960" lon="10.4837330">
	<ele>2292.40</ele>
	<time>2023-08-06T07:38:03.000Z</time>
</trkpt>
<trkpt lat="46.0423030" lon="10.4837380">
	<ele>2292.40</ele>
	<time>2023-08-06T07:38:04.000Z</time>
</trkpt>
<trkpt lat="46.0423100" lon="10.4837490">
	<ele>2292.40</ele>
	<time>2023-08-06T07:38:05.000Z</time>
</trkpt>
<trkpt lat="46.0423190" lon="10.4837550">
	<ele>2292.40</ele>
	<time>2023-08-06T07:38:06.000Z</time>
</trkpt>
<trkpt lat="46.0423270" lon="10.4837590">
	<ele>2292.40</ele>
	<time>2023-08-06T07:38:07.000Z</time>
</trkpt>
<trkpt lat="46.0423330" lon="10.4837680">
	<ele>2292.40</ele>
	<time>2023-08-06T07:38:08.000Z</time>
</trkpt>
<trkpt lat="46.0423400" lon="10.4837750">
	<ele>2292.40</ele>
	<time>2023-08-06T07:38:09.000Z</time>
</trkpt>
<trkpt lat="46.0423460" lon="10.4837900">
	<ele>2292.40</ele>
	<time>2023-08-06T07:38:10.000Z</time>
</trkpt>
<trkpt lat="46.0423530" lon="10.4838060">
	<ele>2292.40</ele>
	<time>2023-08-06T07:38:11.000Z</time>
</trkpt>
<trkpt lat="46.0423610" lon="10.4838260">
	<ele>2292.40</ele>
	<time>2023-08-06T07:38:12.000Z</time>
</trkpt>
<trkpt lat="46.0423680" lon="10.4838410">
	<ele>2292.60</ele>
	<time>2023-08-06T07:38:13.000Z</time>
</trkpt>
<trkpt lat="46.0423700" lon="10.4838530">
	<ele>2292.80</ele>
	<time>2023-08-06T07:38:14.000Z</time>
</trkpt>
<trkpt lat="46.0423750" lon="10.4838680">
	<ele>2292.80</ele>
	<time>2023-08-06T07:38:15.000Z</time>
</trkpt>
<trkpt lat="46.0423770" lon="10.4838830">
	<ele>2293.00</ele>
	<time>2023-08-06T07:38:16.000Z</time>
</trkpt>
<trkpt lat="46.0423820" lon="10.4838880">
	<ele>2293.00</ele>
	<time>2023-08-06T07:38:17.000Z</time>
</trkpt>
<trkpt lat="46.0423920" lon="10.4838880">
	<ele>2293.20</ele>
	<time>2023-08-06T07:38:18.000Z</time>
</trkpt>
<trkpt lat="46.0424040" lon="10.4838880">
	<ele>2293.20</ele>
	<time>2023-08-06T07:38:19.000Z</time>
</trkpt>
<trkpt lat="46.0424140" lon="10.4838950">
	<ele>2293.20</ele>
	<time>2023-08-06T07:38:20.000Z</time>
</trkpt>
<trkpt lat="46.0424260" lon="10.4838970">
	<ele>2293.40</ele>
	<time>2023-08-06T07:38:21.000Z</time>
</trkpt>
<trkpt lat="46.0424360" lon="10.4838910">
	<ele>2293.40</ele>
	<time>2023-08-06T07:38:22.000Z</time>
</trkpt>
<trkpt lat="46.0424460" lon="10.4838910">
	<ele>2293.40</ele>
	<time>2023-08-06T07:38:23.000Z</time>
</trkpt>
<trkpt lat="46.0424560" lon="10.4838900">
	<ele>2293.40</ele>
	<time>2023-08-06T07:38:24.000Z</time>
</trkpt>
<trkpt lat="46.0424650" lon="10.4838910">
	<ele>2293.40</ele>
	<time>2023-08-06T07:38:25.000Z</time>
</trkpt>
<trkpt lat="46.0424670" lon="10.4839020">
	<ele>2293.40</ele>
	<time>2023-08-06T07:38:26.000Z</time>
</trkpt>
<trkpt lat="46.0424710" lon="10.4839140">
	<ele>2293.40</ele>
	<time>2023-08-06T07:38:27.000Z</time>
</trkpt>
<trkpt lat="46.0424810" lon="10.4839200">
	<ele>2293.40</ele>
	<time>2023-08-06T07:38:28.000Z</time>
</trkpt>
<trkpt lat="46.0424950" lon="10.4839220">
	<ele>2293.20</ele>
	<time>2023-08-06T07:38:29.000Z</time>
</trkpt>
<trkpt lat="46.0424970" lon="10.4839330">
	<ele>2293.00</ele>
	<time>2023-08-06T07:38:30.000Z</time>
</trkpt>
<trkpt lat="46.0425060" lon="10.4839320">
	<ele>2292.80</ele>
	<time>2023-08-06T07:38:31.000Z</time>
</trkpt>
<trkpt lat="46.0425180" lon="10.4839370">
	<ele>2292.80</ele>
	<time>2023-08-06T07:38:32.000Z</time>
</trkpt>
<trkpt lat="46.0425320" lon="10.4839340">
	<ele>2292.80</ele>
	<time>2023-08-06T07:38:33.000Z</time>
</trkpt>
<trkpt lat="46.0425400" lon="10.4839360">
	<ele>2292.80</ele>
	<time>2023-08-06T07:38:34.000Z</time>
</trkpt>
<trkpt lat="46.0425420" lon="10.4839430">
	<ele>2292.80</ele>
	<time>2023-08-06T07:38:35.000Z</time>
</trkpt>
<trkpt lat="46.0425550" lon="10.4839400">
	<ele>2292.80</ele>
	<time>2023-08-06T07:38:36.000Z</time>
</trkpt>
<trkpt lat="46.0425630" lon="10.4839440">
	<ele>2292.80</ele>
	<time>2023-08-06T07:38:37.000Z</time>
</trkpt>
<trkpt lat="46.0425640" lon="10.4839600">
	<ele>2292.80</ele>
	<time>2023-08-06T07:38:38.000Z</time>
</trkpt>
<trkpt lat="46.0425670" lon="10.4839750">
	<ele>2293.00</ele>
	<time>2023-08-06T07:38:39.000Z</time>
</trkpt>
<trkpt lat="46.0425700" lon="10.4839890">
	<ele>2293.00</ele>
	<time>2023-08-06T07:38:40.000Z</time>
</trkpt>
<trkpt lat="46.0425770" lon="10.4839910">
	<ele>2292.80</ele>
	<time>2023-08-06T07:38:41.000Z</time>
</trkpt>
<trkpt lat="46.0425810" lon="10.4839890">
	<ele>2292.80</ele>
	<time>2023-08-06T07:38:42.000Z</time>
</trkpt>
<trkpt lat="46.0425860" lon="10.4839860">
	<ele>2292.80</ele>
	<time>2023-08-06T07:38:43.000Z</time>
</trkpt>
<trkpt lat="46.0425820" lon="10.4839910">
	<ele>2292.80</ele>
	<time>2023-08-06T07:38:44.000Z</time>
</trkpt>
<trkpt lat="46.0425810" lon="10.4839960">
	<ele>2292.80</ele>
	<time>2023-08-06T07:38:45.000Z</time>
</trkpt>
<trkpt lat="46.0425820" lon="10.4839970">
	<ele>2292.80</ele>
	<time>2023-08-06T07:38:46.000Z</time>
</trkpt>
<trkpt lat="46.0425830" lon="10.4839960">
	<ele>2292.80</ele>
	<time>2023-08-06T07:38:47.000Z</time>
</trkpt>
<trkpt lat="46.0425820" lon="10.4839950">
	<ele>2292.80</ele>
	<time>2023-08-06T07:38:48.000Z</time>
</trkpt>
<trkpt lat="46.0425830" lon="10.4839950">
	<ele>2292.80</ele>
	<time>2023-08-06T07:38:49.000Z</time>
</trkpt>
<trkpt lat="46.0425840" lon="10.4839930">
	<ele>2292.80</ele>
	<time>2023-08-06T07:38:50.000Z</time>
</trkpt>
<trkpt lat="46.0425890" lon="10.4839870">
	<ele>2293.00</ele>
	<time>2023-08-06T07:38:51.000Z</time>
</trkpt>
<trkpt lat="46.0425940" lon="10.4839800">
	<ele>2293.00</ele>
	<time>2023-08-06T07:38:52.000Z</time>
</trkpt>
<trkpt lat="46.0425960" lon="10.4839770">
	<ele>2293.00</ele>
	<time>2023-08-06T07:38:53.000Z</time>
</trkpt>
<trkpt lat="46.0425970" lon="10.4839760">
	<ele>2293.00</ele>
	<time>2023-08-06T07:38:54.000Z</time>
</trkpt>
<trkpt lat="46.0425970" lon="10.4839770">
	<ele>2293.00</ele>
	<time>2023-08-06T07:38:55.000Z</time>
</trkpt>
<trkpt lat="46.0425980" lon="10.4839770">
	<ele>2293.20</ele>
	<time>2023-08-06T07:38:56.000Z</time>
</trkpt>
<trkpt lat="46.0425990" lon="10.4839750">
	<ele>2293.20</ele>
	<time>2023-08-06T07:38:57.000Z</time>
</trkpt>
<trkpt lat="46.0425980" lon="10.4839750">
	<ele>2293.20</ele>
	<time>2023-08-06T07:38:58.000Z</time>
</trkpt>
<trkpt lat="46.0425980" lon="10.4839720">
	<ele>2293.40</ele>
	<time>2023-08-06T07:38:59.000Z</time>
</trkpt>
<trkpt lat="46.0425980" lon="10.4839690">
	<ele>2293.40</ele>
	<time>2023-08-06T07:39:00.000Z</time>
</trkpt>
<trkpt lat="46.0425980" lon="10.4839690">
	<ele>2293.40</ele>
	<time>2023-08-06T07:39:01.000Z</time>
</trkpt>
<trkpt lat="46.0425940" lon="10.4839730">
	<ele>2293.40</ele>
	<time>2023-08-06T07:39:02.000Z</time>
</trkpt>
<trkpt lat="46.0425940" lon="10.4839810">
	<ele>2293.40</ele>
	<time>2023-08-06T07:39:03.000Z</time>
</trkpt>
<trkpt lat="46.0425960" lon="10.4839840">
	<ele>2293.00</ele>
	<time>2023-08-06T07:39:04.000Z</time>
</trkpt>
<trkpt lat="46.0426000" lon="10.4839860">
	<ele>2293.00</ele>
	<time>2023-08-06T07:39:05.000Z</time>
</trkpt>
<trkpt lat="46.0426060" lon="10.4839870">
	<ele>2292.80</ele>
	<time>2023-08-06T07:39:06.000Z</time>
</trkpt>
<trkpt lat="46.0426090" lon="10.4839980">
	<ele>2292.80</ele>
	<time>2023-08-06T07:39:07.000Z</time>
</trkpt>
<trkpt lat="46.0426170" lon="10.4840020">
	<ele>2292.80</ele>
	<time>2023-08-06T07:39:08.000Z</time>
</trkpt>
<trkpt lat="46.0426270" lon="10.4840080">
	<ele>2292.80</ele>
	<time>2023-08-06T07:39:09.000Z</time>
</trkpt>
<trkpt lat="46.0426350" lon="10.4840180">
	<ele>2292.60</ele>
	<time>2023-08-06T07:39:10.000Z</time>
</trkpt>
<trkpt lat="46.0426420" lon="10.4840290">
	<ele>2292.60</ele>
	<time>2023-08-06T07:39:11.000Z</time>
</trkpt>
<trkpt lat="46.0426500" lon="10.4840370">
	<ele>2292.40</ele>
	<time>2023-08-06T07:39:12.000Z</time>
</trkpt>
<trkpt lat="46.0426580" lon="10.4840450">
	<ele>2292.40</ele>
	<time>2023-08-06T07:39:13.000Z</time>
</trkpt>
<trkpt lat="46.0426650" lon="10.4840540">
	<ele>2292.40</ele>
	<time>2023-08-06T07:39:14.000Z</time>
</trkpt>
<trkpt lat="46.0426720" lon="10.4840630">
	<ele>2292.40</ele>
	<time>2023-08-06T07:39:15.000Z</time>
</trkpt>
<trkpt lat="46.0426750" lon="10.4840780">
	<ele>2292.20</ele>
	<time>2023-08-06T07:39:16.000Z</time>
</trkpt>
<trkpt lat="46.0426720" lon="10.4840960">
	<ele>2292.20</ele>
	<time>2023-08-06T07:39:17.000Z</time>
</trkpt>
<trkpt lat="46.0426710" lon="10.4841100">
	<ele>2292.20</ele>
	<time>2023-08-06T07:39:18.000Z</time>
</trkpt>
<trkpt lat="46.0426740" lon="10.4841130">
	<ele>2292.20</ele>
	<time>2023-08-06T07:39:19.000Z</time>
</trkpt>
<trkpt lat="46.0426730" lon="10.4841200">
	<ele>2292.00</ele>
	<time>2023-08-06T07:39:20.000Z</time>
</trkpt>
<trkpt lat="46.0426730" lon="10.4841250">
	<ele>2292.00</ele>
	<time>2023-08-06T07:39:21.000Z</time>
</trkpt>
<trkpt lat="46.0426780" lon="10.4841300">
	<ele>2292.00</ele>
	<time>2023-08-06T07:39:22.000Z</time>
</trkpt>
<trkpt lat="46.0426890" lon="10.4841360">
	<ele>2291.80</ele>
	<time>2023-08-06T07:39:23.000Z</time>
</trkpt>
<trkpt lat="46.0427000" lon="10.4841410">
	<ele>2291.80</ele>
	<time>2023-08-06T07:39:24.000Z</time>
</trkpt>
<trkpt lat="46.0427100" lon="10.4841490">
	<ele>2291.80</ele>
	<time>2023-08-06T07:39:25.000Z</time>
</trkpt>
<trkpt lat="46.0427190" lon="10.4841580">
	<ele>2291.60</ele>
	<time>2023-08-06T07:39:26.000Z</time>
</trkpt>
<trkpt lat="46.0427280" lon="10.4841660">
	<ele>2291.60</ele>
	<time>2023-08-06T07:39:27.000Z</time>
</trkpt>
<trkpt lat="46.0427390" lon="10.4841670">
	<ele>2291.60</ele>
	<time>2023-08-06T07:39:28.000Z</time>
</trkpt>
<trkpt lat="46.0427470" lon="10.4841740">
	<ele>2291.60</ele>
	<time>2023-08-06T07:39:29.000Z</time>
</trkpt>
<trkpt lat="46.0427570" lon="10.4841750">
	<ele>2291.80</ele>
	<time>2023-08-06T07:39:30.000Z</time>
</trkpt>
<trkpt lat="46.0427700" lon="10.4841720">
	<ele>2291.80</ele>
	<time>2023-08-06T07:39:31.000Z</time>
</trkpt>
<trkpt lat="46.0427780" lon="10.4841760">
	<ele>2291.80</ele>
	<time>2023-08-06T07:39:32.000Z</time>
</trkpt>
<trkpt lat="46.0427830" lon="10.4841830">
	<ele>2291.80</ele>
	<time>2023-08-06T07:39:33.000Z</time>
</trkpt>
<trkpt lat="46.0427950" lon="10.4841800">
	<ele>2291.80</ele>
	<time>2023-08-06T07:39:34.000Z</time>
</trkpt>
<trkpt lat="46.0428040" lon="10.4841810">
	<ele>2291.80</ele>
	<time>2023-08-06T07:39:35.000Z</time>
</trkpt>
<trkpt lat="46.0428090" lon="10.4841910">
	<ele>2291.60</ele>
	<time>2023-08-06T07:39:36.000Z</time>
</trkpt>
<trkpt lat="46.0428200" lon="10.4841920">
	<ele>2291.60</ele>
	<time>2023-08-06T07:39:37.000Z</time>
</trkpt>
<trkpt lat="46.0428310" lon="10.4841810">
	<ele>2291.60</ele>
	<time>2023-08-06T07:39:38.000Z</time>
</trkpt>
<trkpt lat="46.0428450" lon="10.4841700">
	<ele>2291.80</ele>
	<time>2023-08-06T07:39:39.000Z</time>
</trkpt>
<trkpt lat="46.0428510" lon="10.4841740">
	<ele>2291.60</ele>
	<time>2023-08-06T07:39:40.000Z</time>
</trkpt>
<trkpt lat="46.0428570" lon="10.4841810">
	<ele>2291.80</ele>
	<time>2023-08-06T07:39:41.000Z</time>
</trkpt>
<trkpt lat="46.0428710" lon="10.4841710">
	<ele>2291.80</ele>
	<time>2023-08-06T07:39:42.000Z</time>
</trkpt>
<trkpt lat="46.0428830" lon="10.4841680">
	<ele>2291.80</ele>
	<time>2023-08-06T07:39:43.000Z</time>
</trkpt>
<trkpt lat="46.0428940" lon="10.4841670">
	<ele>2291.80</ele>
	<time>2023-08-06T07:39:44.000Z</time>
</trkpt>
<trkpt lat="46.0429000" lon="10.4841790">
	<ele>2292.00</ele>
	<time>2023-08-06T07:39:45.000Z</time>
</trkpt>
<trkpt lat="46.0429080" lon="10.4841870">
	<ele>2292.00</ele>
	<time>2023-08-06T07:39:46.000Z</time>
</trkpt>
<trkpt lat="46.0429170" lon="10.4841900">
	<ele>2292.20</ele>
	<time>2023-08-06T07:39:47.000Z</time>
</trkpt>
<trkpt lat="46.0429160" lon="10.4842220">
	<ele>2292.20</ele>
	<time>2023-08-06T07:39:48.000Z</time>
</trkpt>
<trkpt lat="46.0429160" lon="10.4842360">
	<ele>2292.20</ele>
	<time>2023-08-06T07:39:49.000Z</time>
</trkpt>
<trkpt lat="46.0429180" lon="10.4842480">
	<ele>2292.40</ele>
	<time>2023-08-06T07:39:50.000Z</time>
</trkpt>
<trkpt lat="46.0429270" lon="10.4842480">
	<ele>2292.20</ele>
	<time>2023-08-06T07:39:51.000Z</time>
</trkpt>
<trkpt lat="46.0429410" lon="10.4842440">
	<ele>2292.20</ele>
	<time>2023-08-06T07:39:52.000Z</time>
</trkpt>
<trkpt lat="46.0429480" lon="10.4842550">
	<ele>2292.20</ele>
	<time>2023-08-06T07:39:53.000Z</time>
</trkpt>
<trkpt lat="46.0429520" lon="10.4842650">
	<ele>2292.00</ele>
	<time>2023-08-06T07:39:54.000Z</time>
</trkpt>
<trkpt lat="46.0429620" lon="10.4842710">
	<ele>2291.80</ele>
	<time>2023-08-06T07:39:55.000Z</time>
</trkpt>
<trkpt lat="46.0429730" lon="10.4842730">
	<ele>2291.60</ele>
	<time>2023-08-06T07:39:56.000Z</time>
</trkpt>
<trkpt lat="46.0429840" lon="10.4842710">
	<ele>2291.40</ele>
	<time>2023-08-06T07:39:57.000Z</time>
</trkpt>
<trkpt lat="46.0429890" lon="10.4842790">
	<ele>2291.40</ele>
	<time>2023-08-06T07:39:58.000Z</time>
</trkpt>
<trkpt lat="46.0429990" lon="10.4842790">
	<ele>2291.40</ele>
	<time>2023-08-06T07:39:59.000Z</time>
</trkpt>
<trkpt lat="46.0430070" lon="10.4842880">
	<ele>2291.20</ele>
	<time>2023-08-06T07:40:00.000Z</time>
</trkpt>
<trkpt lat="46.0430160" lon="10.4842900">
	<ele>2291.20</ele>
	<time>2023-08-06T07:40:01.000Z</time>
</trkpt>
<trkpt lat="46.0430230" lon="10.4842970">
	<ele>2291.00</ele>
	<time>2023-08-06T07:40:02.000Z</time>
</trkpt>
<trkpt lat="46.0430270" lon="10.4843100">
	<ele>2291.00</ele>
	<time>2023-08-06T07:40:03.000Z</time>
</trkpt>
<trkpt lat="46.0430300" lon="10.4843220">
	<ele>2290.80</ele>
	<time>2023-08-06T07:40:04.000Z</time>
</trkpt>
<trkpt lat="46.0430340" lon="10.4843350">
	<ele>2290.60</ele>
	<time>2023-08-06T07:40:05.000Z</time>
</trkpt>
<trkpt lat="46.0430380" lon="10.4843450">
	<ele>2290.60</ele>
	<time>2023-08-06T07:40:06.000Z</time>
</trkpt>
<trkpt lat="46.0430440" lon="10.4843490">
	<ele>2290.40</ele>
	<time>2023-08-06T07:40:07.000Z</time>
</trkpt>
<trkpt lat="46.0430500" lon="10.4843550">
	<ele>2290.40</ele>
	<time>2023-08-06T07:40:08.000Z</time>
</trkpt>
<trkpt lat="46.0430530" lon="10.4843650">
	<ele>2290.40</ele>
	<time>2023-08-06T07:40:09.000Z</time>
</trkpt>
<trkpt lat="46.0430560" lon="10.4843770">
	<ele>2290.40</ele>
	<time>2023-08-06T07:40:10.000Z</time>
</trkpt>
<trkpt lat="46.0430580" lon="10.4843910">
	<ele>2290.40</ele>
	<time>2023-08-06T07:40:11.000Z</time>
</trkpt>
<trkpt lat="46.0430540" lon="10.4844120">
	<ele>2290.60</ele>
	<time>2023-08-06T07:40:12.000Z</time>
</trkpt>
<trkpt lat="46.0430480" lon="10.4844410">
	<ele>2290.60</ele>
	<time>2023-08-06T07:40:13.000Z</time>
</trkpt>
<trkpt lat="46.0430490" lon="10.4844530">
	<ele>2290.60</ele>
	<time>2023-08-06T07:40:14.000Z</time>
</trkpt>
<trkpt lat="46.0430530" lon="10.4844760">
	<ele>2290.60</ele>
	<time>2023-08-06T07:40:15.000Z</time>
</trkpt>
<trkpt lat="46.0430500" lon="10.4845080">
	<ele>2290.60</ele>
	<time>2023-08-06T07:40:16.000Z</time>
</trkpt>
<trkpt lat="46.0430530" lon="10.4845330">
	<ele>2290.60</ele>
	<time>2023-08-06T07:40:17.000Z</time>
</trkpt>
<trkpt lat="46.0430660" lon="10.4845410">
	<ele>2290.80</ele>
	<time>2023-08-06T07:40:18.000Z</time>
</trkpt>
<trkpt lat="46.0430740" lon="10.4845520">
	<ele>2290.80</ele>
	<time>2023-08-06T07:40:19.000Z</time>
</trkpt>
<trkpt lat="46.0430710" lon="10.4845690">
	<ele>2290.80</ele>
	<time>2023-08-06T07:40:20.000Z</time>
</trkpt>
<trkpt lat="46.0430720" lon="10.4845750">
	<ele>2291.00</ele>
	<time>2023-08-06T07:40:21.000Z</time>
</trkpt>
<trkpt lat="46.0430730" lon="10.4845770">
	<ele>2291.00</ele>
	<time>2023-08-06T07:40:22.000Z</time>
</trkpt>
<trkpt lat="46.0430770" lon="10.4845790">
	<ele>2291.00</ele>
	<time>2023-08-06T07:40:23.000Z</time>
</trkpt>
<trkpt lat="46.0430750" lon="10.4845890">
	<ele>2291.00</ele>
	<time>2023-08-06T07:40:24.000Z</time>
</trkpt>
<trkpt lat="46.0430800" lon="10.4846030">
	<ele>2291.20</ele>
	<time>2023-08-06T07:40:25.000Z</time>
</trkpt>
<trkpt lat="46.0430850" lon="10.4846140">
	<ele>2291.20</ele>
	<time>2023-08-06T07:40:26.000Z</time>
</trkpt>
<trkpt lat="46.0430900" lon="10.4846240">
	<ele>2291.20</ele>
	<time>2023-08-06T07:40:27.000Z</time>
</trkpt>
<trkpt lat="46.0430950" lon="10.4846330">
	<ele>2291.20</ele>
	<time>2023-08-06T07:40:28.000Z</time>
</trkpt>
<trkpt lat="46.0430970" lon="10.4846420">
	<ele>2291.00</ele>
	<time>2023-08-06T07:40:29.000Z</time>
</trkpt>
<trkpt lat="46.0430990" lon="10.4846490">
	<ele>2290.80</ele>
	<time>2023-08-06T07:40:30.000Z</time>
</trkpt>
<trkpt lat="46.0431060" lon="10.4846550">
	<ele>2290.80</ele>
	<time>2023-08-06T07:40:31.000Z</time>
</trkpt>
<trkpt lat="46.0431040" lon="10.4846690">
	<ele>2290.80</ele>
	<time>2023-08-06T07:40:32.000Z</time>
</trkpt>
<trkpt lat="46.0431090" lon="10.4846750">
	<ele>2290.80</ele>
	<time>2023-08-06T07:40:33.000Z</time>
</trkpt>
<trkpt lat="46.0431150" lon="10.4846840">
	<ele>2290.80</ele>
	<time>2023-08-06T07:40:34.000Z</time>
</trkpt>
<trkpt lat="46.0431220" lon="10.4846900">
	<ele>2290.80</ele>
	<time>2023-08-06T07:40:35.000Z</time>
</trkpt>
<trkpt lat="46.0431290" lon="10.4846950">
	<ele>2290.80</ele>
	<time>2023-08-06T07:40:36.000Z</time>
</trkpt>
<trkpt lat="46.0431350" lon="10.4847040">
	<ele>2290.80</ele>
	<time>2023-08-06T07:40:37.000Z</time>
</trkpt>
<trkpt lat="46.0431360" lon="10.4847170">
	<ele>2290.40</ele>
	<time>2023-08-06T07:40:38.000Z</time>
</trkpt>
<trkpt lat="46.0431430" lon="10.4847310">
	<ele>2290.20</ele>
	<time>2023-08-06T07:40:39.000Z</time>
</trkpt>
<trkpt lat="46.0431480" lon="10.4847420">
	<ele>2290.00</ele>
	<time>2023-08-06T07:40:40.000Z</time>
</trkpt>
<trkpt lat="46.0431530" lon="10.4847560">
	<ele>2289.80</ele>
	<time>2023-08-06T07:40:41.000Z</time>
</trkpt>
<trkpt lat="46.0431570" lon="10.4847630">
	<ele>2289.40</ele>
	<time>2023-08-06T07:40:42.000Z</time>
</trkpt>
<trkpt lat="46.0431600" lon="10.4847700">
	<ele>2289.20</ele>
	<time>2023-08-06T07:40:43.000Z</time>
</trkpt>
<trkpt lat="46.0431670" lon="10.4847760">
	<ele>2289.20</ele>
	<time>2023-08-06T07:40:44.000Z</time>
</trkpt>
<trkpt lat="46.0431740" lon="10.4847820">
	<ele>2289.20</ele>
	<time>2023-08-06T07:40:45.000Z</time>
</trkpt>
<trkpt lat="46.0431800" lon="10.4847860">
	<ele>2289.20</ele>
	<time>2023-08-06T07:40:46.000Z</time>
</trkpt>
<trkpt lat="46.0431870" lon="10.4847910">
	<ele>2289.20</ele>
	<time>2023-08-06T07:40:47.000Z</time>
</trkpt>
<trkpt lat="46.0431940" lon="10.4847980">
	<ele>2289.20</ele>
	<time>2023-08-06T07:40:48.000Z</time>
</trkpt>
<trkpt lat="46.0431980" lon="10.4848060">
	<ele>2289.20</ele>
	<time>2023-08-06T07:40:49.000Z</time>
</trkpt>
<trkpt lat="46.0432040" lon="10.4848090">
	<ele>2289.20</ele>
	<time>2023-08-06T07:40:50.000Z</time>
</trkpt>
<trkpt lat="46.0432110" lon="10.4848120">
	<ele>2289.20</ele>
	<time>2023-08-06T07:40:51.000Z</time>
</trkpt>
<trkpt lat="46.0432140" lon="10.4848200">
	<ele>2289.40</ele>
	<time>2023-08-06T07:40:52.000Z</time>
</trkpt>
<trkpt lat="46.0432170" lon="10.4848270">
	<ele>2289.40</ele>
	<time>2023-08-06T07:40:53.000Z</time>
</trkpt>
<trkpt lat="46.0432190" lon="10.4848350">
	<ele>2289.40</ele>
	<time>2023-08-06T07:40:54.000Z</time>
</trkpt>
<trkpt lat="46.0432230" lon="10.4848400">
	<ele>2289.40</ele>
	<time>2023-08-06T07:40:55.000Z</time>
</trkpt>
<trkpt lat="46.0432290" lon="10.4848490">
	<ele>2289.40</ele>
	<time>2023-08-06T07:40:56.000Z</time>
</trkpt>
<trkpt lat="46.0432390" lon="10.4848620">
	<ele>2289.20</ele>
	<time>2023-08-06T07:40:57.000Z</time>
</trkpt>
<trkpt lat="46.0432460" lon="10.4848710">
	<ele>2289.20</ele>
	<time>2023-08-06T07:40:58.000Z</time>
</trkpt>
<trkpt lat="46.0432490" lon="10.4848780">
	<ele>2289.20</ele>
	<time>2023-08-06T07:40:59.000Z</time>
</trkpt>
<trkpt lat="46.0432540" lon="10.4848870">
	<ele>2289.20</ele>
	<time>2023-08-06T07:41:00.000Z</time>
</trkpt>
<trkpt lat="46.0432590" lon="10.4848960">
	<ele>2289.20</ele>
	<time>2023-08-06T07:41:01.000Z</time>
</trkpt>
<trkpt lat="46.0432600" lon="10.4849060">
	<ele>2289.20</ele>
	<time>2023-08-06T07:41:02.000Z</time>
</trkpt>
<trkpt lat="46.0432620" lon="10.4849120">
	<ele>2289.00</ele>
	<time>2023-08-06T07:41:03.000Z</time>
</trkpt>
<trkpt lat="46.0432600" lon="10.4849240">
	<ele>2289.00</ele>
	<time>2023-08-06T07:41:04.000Z</time>
</trkpt>
<trkpt lat="46.0432600" lon="10.4849390">
	<ele>2289.00</ele>
	<time>2023-08-06T07:41:05.000Z</time>
</trkpt>
<trkpt lat="46.0432640" lon="10.4849470">
	<ele>2289.00</ele>
	<time>2023-08-06T07:41:06.000Z</time>
</trkpt>
<trkpt lat="46.0432690" lon="10.4849560">
	<ele>2288.80</ele>
	<time>2023-08-06T07:41:07.000Z</time>
</trkpt>
<trkpt lat="46.0432720" lon="10.4849650">
	<ele>2288.60</ele>
	<time>2023-08-06T07:41:08.000Z</time>
</trkpt>
<trkpt lat="46.0432770" lon="10.4849760">
	<ele>2288.60</ele>
	<time>2023-08-06T07:41:09.000Z</time>
</trkpt>
<trkpt lat="46.0432810" lon="10.4849890">
	<ele>2288.60</ele>
	<time>2023-08-06T07:41:10.000Z</time>
</trkpt>
<trkpt lat="46.0432860" lon="10.4849970">
	<ele>2288.40</ele>
	<time>2023-08-06T07:41:11.000Z</time>
</trkpt>
<trkpt lat="46.0432930" lon="10.4850070">
	<ele>2288.40</ele>
	<time>2023-08-06T07:41:12.000Z</time>
</trkpt>
<trkpt lat="46.0433010" lon="10.4850160">
	<ele>2288.40</ele>
	<time>2023-08-06T07:41:13.000Z</time>
</trkpt>
<trkpt lat="46.0433090" lon="10.4850280">
	<ele>2288.40</ele>
	<time>2023-08-06T07:41:14.000Z</time>
</trkpt>
<trkpt lat="46.0433180" lon="10.4850380">
	<ele>2288.40</ele>
	<time>2023-08-06T07:41:15.000Z</time>
</trkpt>
<trkpt lat="46.0433240" lon="10.4850430">
	<ele>2288.60</ele>
	<time>2023-08-06T07:41:16.000Z</time>
</trkpt>
<trkpt lat="46.0433280" lon="10.4850460">
	<ele>2288.60</ele>
	<time>2023-08-06T07:41:17.000Z</time>
</trkpt>
<trkpt lat="46.0433330" lon="10.4850460">
	<ele>2288.80</ele>
	<time>2023-08-06T07:41:18.000Z</time>
</trkpt>
<trkpt lat="46.0433410" lon="10.4850490">
	<ele>2289.00</ele>
	<time>2023-08-06T07:41:19.000Z</time>
</trkpt>
<trkpt lat="46.0433450" lon="10.4850490">
	<ele>2289.00</ele>
	<time>2023-08-06T07:41:20.000Z</time>
</trkpt>
<trkpt lat="46.0433530" lon="10.4850550">
	<ele>2289.20</ele>
	<time>2023-08-06T07:41:21.000Z</time>
</trkpt>
<trkpt lat="46.0433600" lon="10.4850610">
	<ele>2289.20</ele>
	<time>2023-08-06T07:41:22.000Z</time>
</trkpt>
<trkpt lat="46.0433650" lon="10.4850720">
	<ele>2289.20</ele>
	<time>2023-08-06T07:41:23.000Z</time>
</trkpt>
<trkpt lat="46.0433680" lon="10.4850770">
	<ele>2289.40</ele>
	<time>2023-08-06T07:41:24.000Z</time>
</trkpt>
<trkpt lat="46.0433710" lon="10.4850850">
	<ele>2289.40</ele>
	<time>2023-08-06T07:41:25.000Z</time>
</trkpt>
<trkpt lat="46.0433710" lon="10.4850930">
	<ele>2289.40</ele>
	<time>2023-08-06T07:41:26.000Z</time>
</trkpt>
<trkpt lat="46.0433710" lon="10.4850990">
	<ele>2289.40</ele>
	<time>2023-08-06T07:41:27.000Z</time>
</trkpt>
<trkpt lat="46.0433730" lon="10.4851050">
	<ele>2289.60</ele>
	<time>2023-08-06T07:41:28.000Z</time>
</trkpt>
<trkpt lat="46.0433700" lon="10.4851200">
	<ele>2289.60</ele>
	<time>2023-08-06T07:41:29.000Z</time>
</trkpt>
<trkpt lat="46.0433700" lon="10.4851270">
	<ele>2289.60</ele>
	<time>2023-08-06T07:41:30.000Z</time>
</trkpt>
<trkpt lat="46.0433710" lon="10.4851300">
	<ele>2289.60</ele>
	<time>2023-08-06T07:41:31.000Z</time>
</trkpt>
<trkpt lat="46.0433700" lon="10.4851360">
	<ele>2289.60</ele>
	<time>2023-08-06T07:41:32.000Z</time>
</trkpt>
<trkpt lat="46.0433670" lon="10.4851410">
	<ele>2289.60</ele>
	<time>2023-08-06T07:41:33.000Z</time>
</trkpt>
<trkpt lat="46.0433650" lon="10.4851490">
	<ele>2289.40</ele>
	<time>2023-08-06T07:41:34.000Z</time>
</trkpt>
<trkpt lat="46.0433670" lon="10.4851610">
	<ele>2289.40</ele>
	<time>2023-08-06T07:41:35.000Z</time>
</trkpt>
<trkpt lat="46.0433690" lon="10.4851740">
	<ele>2289.40</ele>
	<time>2023-08-06T07:41:36.000Z</time>
</trkpt>
<trkpt lat="46.0433720" lon="10.4851860">
	<ele>2289.20</ele>
	<time>2023-08-06T07:41:37.000Z</time>
</trkpt>
<trkpt lat="46.0433780" lon="10.4852000">
	<ele>2289.20</ele>
	<time>2023-08-06T07:41:38.000Z</time>
</trkpt>
<trkpt lat="46.0433810" lon="10.4852120">
	<ele>2289.20</ele>
	<time>2023-08-06T07:41:39.000Z</time>
</trkpt>
<trkpt lat="46.0433820" lon="10.4852280">
	<ele>2289.00</ele>
	<time>2023-08-06T07:41:40.000Z</time>
</trkpt>
<trkpt lat="46.0433800" lon="10.4852460">
	<ele>2289.00</ele>
	<time>2023-08-06T07:41:41.000Z</time>
</trkpt>
<trkpt lat="46.0433830" lon="10.4852600">
	<ele>2289.00</ele>
	<time>2023-08-06T07:41:42.000Z</time>
</trkpt>
<trkpt lat="46.0433840" lon="10.4852740">
	<ele>2289.00</ele>
	<time>2023-08-06T07:41:43.000Z</time>
</trkpt>
<trkpt lat="46.0433900" lon="10.4852860">
	<ele>2289.00</ele>
	<time>2023-08-06T07:41:44.000Z</time>
</trkpt>
<trkpt lat="46.0433950" lon="10.4852980">
	<ele>2289.00</ele>
	<time>2023-08-06T07:41:45.000Z</time>
</trkpt>
<trkpt lat="46.0433980" lon="10.4853130">
	<ele>2288.80</ele>
	<time>2023-08-06T07:41:46.000Z</time>
</trkpt>
<trkpt lat="46.0434030" lon="10.4853270">
	<ele>2288.60</ele>
	<time>2023-08-06T07:41:47.000Z</time>
</trkpt>
<trkpt lat="46.0434100" lon="10.4853350">
	<ele>2288.60</ele>
	<time>2023-08-06T07:41:48.000Z</time>
</trkpt>
<trkpt lat="46.0434180" lon="10.4853470">
	<ele>2288.60</ele>
	<time>2023-08-06T07:41:49.000Z</time>
</trkpt>
<trkpt lat="46.0434220" lon="10.4853590">
	<ele>2288.60</ele>
	<time>2023-08-06T07:41:50.000Z</time>
</trkpt>
<trkpt lat="46.0434250" lon="10.4853690">
	<ele>2288.60</ele>
	<time>2023-08-06T07:41:51.000Z</time>
</trkpt>
<trkpt lat="46.0434310" lon="10.4853800">
	<ele>2288.60</ele>
	<time>2023-08-06T07:41:52.000Z</time>
</trkpt>
<trkpt lat="46.0434380" lon="10.4853940">
	<ele>2288.60</ele>
	<time>2023-08-06T07:41:53.000Z</time>
</trkpt>
<trkpt lat="46.0434430" lon="10.4854070">
	<ele>2288.60</ele>
	<time>2023-08-06T07:41:54.000Z</time>
</trkpt>
<trkpt lat="46.0434470" lon="10.4854160">
	<ele>2288.60</ele>
	<time>2023-08-06T07:41:55.000Z</time>
</trkpt>
<trkpt lat="46.0434510" lon="10.4854280">
	<ele>2288.40</ele>
	<time>2023-08-06T07:41:56.000Z</time>
</trkpt>
<trkpt lat="46.0434550" lon="10.4854380">
	<ele>2288.40</ele>
	<time>2023-08-06T07:41:57.000Z</time>
</trkpt>
<trkpt lat="46.0434590" lon="10.4854470">
	<ele>2288.40</ele>
	<time>2023-08-06T07:41:58.000Z</time>
</trkpt>
<trkpt lat="46.0434640" lon="10.4854560">
	<ele>2288.40</ele>
	<time>2023-08-06T07:41:59.000Z</time>
</trkpt>
<trkpt lat="46.0434680" lon="10.4854620">
	<ele>2288.20</ele>
	<time>2023-08-06T07:42:00.000Z</time>
</trkpt>
<trkpt lat="46.0434720" lon="10.4854760">
	<ele>2288.20</ele>
	<time>2023-08-06T07:42:01.000Z</time>
</trkpt>
<trkpt lat="46.0434790" lon="10.4854890">
	<ele>2288.20</ele>
	<time>2023-08-06T07:42:02.000Z</time>
</trkpt>
<trkpt lat="46.0434840" lon="10.4854960">
	<ele>2288.00</ele>
	<time>2023-08-06T07:42:03.000Z</time>
</trkpt>
<trkpt lat="46.0434880" lon="10.4855080">
	<ele>2288.00</ele>
	<time>2023-08-06T07:42:04.000Z</time>
</trkpt>
<trkpt lat="46.0434910" lon="10.4855220">
	<ele>2287.80</ele>
	<time>2023-08-06T07:42:05.000Z</time>
</trkpt>
<trkpt lat="46.0434930" lon="10.4855340">
	<ele>2287.80</ele>
	<time>2023-08-06T07:42:06.000Z</time>
</trkpt>
<trkpt lat="46.0434980" lon="10.4855480">
	<ele>2287.60</ele>
	<time>2023-08-06T07:42:07.000Z</time>
</trkpt>
<trkpt lat="46.0435020" lon="10.4855560">
	<ele>2287.60</ele>
	<time>2023-08-06T07:42:08.000Z</time>
</trkpt>
<trkpt lat="46.0435050" lon="10.4855660">
	<ele>2287.40</ele>
	<time>2023-08-06T07:42:09.000Z</time>
</trkpt>
<trkpt lat="46.0435070" lon="10.4855780">
	<ele>2287.40</ele>
	<time>2023-08-06T07:42:10.000Z</time>
</trkpt>
<trkpt lat="46.0435090" lon="10.4855910">
	<ele>2287.40</ele>
	<time>2023-08-06T07:42:11.000Z</time>
</trkpt>
<trkpt lat="46.0435080" lon="10.4856100">
	<ele>2287.40</ele>
	<time>2023-08-06T07:42:12.000Z</time>
</trkpt>
<trkpt lat="46.0435090" lon="10.4856260">
	<ele>2287.40</ele>
	<time>2023-08-06T07:42:13.000Z</time>
</trkpt>
<trkpt lat="46.0435090" lon="10.4856360">
	<ele>2287.40</ele>
	<time>2023-08-06T07:42:14.000Z</time>
</trkpt>
<trkpt lat="46.0435050" lon="10.4856460">
	<ele>2287.40</ele>
	<time>2023-08-06T07:42:15.000Z</time>
</trkpt>
<trkpt lat="46.0435030" lon="10.4856590">
	<ele>2287.20</ele>
	<time>2023-08-06T07:42:16.000Z</time>
</trkpt>
<trkpt lat="46.0435030" lon="10.4856670">
	<ele>2287.00</ele>
	<time>2023-08-06T07:42:17.000Z</time>
</trkpt>
<trkpt lat="46.0435060" lon="10.4856790">
	<ele>2286.60</ele>
	<time>2023-08-06T07:42:18.000Z</time>
</trkpt>
<trkpt lat="46.0435120" lon="10.4856900">
	<ele>2286.20</ele>
	<time>2023-08-06T07:42:19.000Z</time>
</trkpt>
<trkpt lat="46.0435150" lon="10.4857030">
	<ele>2285.80</ele>
	<time>2023-08-06T07:42:20.000Z</time>
</trkpt>
<trkpt lat="46.0435190" lon="10.4857150">
	<ele>2285.60</ele>
	<time>2023-08-06T07:42:21.000Z</time>
</trkpt>
<trkpt lat="46.0435230" lon="10.4857250">
	<ele>2285.40</ele>
	<time>2023-08-06T07:42:22.000Z</time>
</trkpt>
<trkpt lat="46.0435270" lon="10.4857360">
	<ele>2285.00</ele>
	<time>2023-08-06T07:42:23.000Z</time>
</trkpt>
<trkpt lat="46.0435290" lon="10.4857480">
	<ele>2284.80</ele>
	<time>2023-08-06T07:42:24.000Z</time>
</trkpt>
<trkpt lat="46.0435340" lon="10.4857590">
	<ele>2284.80</ele>
	<time>2023-08-06T07:42:25.000Z</time>
</trkpt>
<trkpt lat="46.0435390" lon="10.4857700">
	<ele>2284.60</ele>
	<time>2023-08-06T07:42:26.000Z</time>
</trkpt>
<trkpt lat="46.0435460" lon="10.4857780">
	<ele>2284.60</ele>
	<time>2023-08-06T07:42:27.000Z</time>
</trkpt>
<trkpt lat="46.0435530" lon="10.4857860">
	<ele>2284.80</ele>
	<time>2023-08-06T07:42:28.000Z</time>
</trkpt>
<trkpt lat="46.0435610" lon="10.4857950">
	<ele>2284.80</ele>
	<time>2023-08-06T07:42:29.000Z</time>
</trkpt>
<trkpt lat="46.0435660" lon="10.4858070">
	<ele>2284.80</ele>
	<time>2023-08-06T07:42:30.000Z</time>
</trkpt>
<trkpt lat="46.0435610" lon="10.4858240">
	<ele>2285.00</ele>
	<time>2023-08-06T07:42:31.000Z</time>
</trkpt>
<trkpt lat="46.0435600" lon="10.4858410">
	<ele>2285.00</ele>
	<time>2023-08-06T07:42:32.000Z</time>
</trkpt>
<trkpt lat="46.0435680" lon="10.4858480">
	<ele>2285.00</ele>
	<time>2023-08-06T07:42:33.000Z</time>
</trkpt>
<trkpt lat="46.0435750" lon="10.4858520">
	<ele>2285.00</ele>
	<time>2023-08-06T07:42:34.000Z</time>
</trkpt>
<trkpt lat="46.0435810" lon="10.4858630">
	<ele>2285.00</ele>
	<time>2023-08-06T07:42:35.000Z</time>
</trkpt>
<trkpt lat="46.0435860" lon="10.4858720">
	<ele>2285.00</ele>
	<time>2023-08-06T07:42:36.000Z</time>
</trkpt>
<trkpt lat="46.0435890" lon="10.4858770">
	<ele>2285.00</ele>
	<time>2023-08-06T07:42:37.000Z</time>
</trkpt>
<trkpt lat="46.0435910" lon="10.4858840">
	<ele>2284.80</ele>
	<time>2023-08-06T07:42:38.000Z</time>
</trkpt>
<trkpt lat="46.0435930" lon="10.4858910">
	<ele>2284.60</ele>
	<time>2023-08-06T07:42:39.000Z</time>
</trkpt>
<trkpt lat="46.0435960" lon="10.4859000">
	<ele>2284.20</ele>
	<time>2023-08-06T07:42:40.000Z</time>
</trkpt>
<trkpt lat="46.0436000" lon="10.4859070">
	<ele>2284.00</ele>
	<time>2023-08-06T07:42:41.000Z</time>
</trkpt>
<trkpt lat="46.0436030" lon="10.4859150">
	<ele>2283.80</ele>
	<time>2023-08-06T07:42:42.000Z</time>
</trkpt>
<trkpt lat="46.0436060" lon="10.4859220">
	<ele>2283.60</ele>
	<time>2023-08-06T07:42:43.000Z</time>
</trkpt>
<trkpt lat="46.0436080" lon="10.4859270">
	<ele>2283.20</ele>
	<time>2023-08-06T07:42:44.000Z</time>
</trkpt>
<trkpt lat="46.0436060" lon="10.4859340">
	<ele>2283.00</ele>
	<time>2023-08-06T07:42:45.000Z</time>
</trkpt>
<trkpt lat="46.0436030" lon="10.4859500">
	<ele>2283.00</ele>
	<time>2023-08-06T07:42:46.000Z</time>
</trkpt>
<trkpt lat="46.0436040" lon="10.4859590">
	<ele>2282.80</ele>
	<time>2023-08-06T07:42:47.000Z</time>
</trkpt>
<trkpt lat="46.0436090" lon="10.4859680">
	<ele>2282.60</ele>
	<time>2023-08-06T07:42:48.000Z</time>
</trkpt>
<trkpt lat="46.0436130" lon="10.4859770">
	<ele>2282.40</ele>
	<time>2023-08-06T07:42:49.000Z</time>
</trkpt>
<trkpt lat="46.0436200" lon="10.4859840">
	<ele>2282.20</ele>
	<time>2023-08-06T07:42:50.000Z</time>
</trkpt>
<trkpt lat="46.0436250" lon="10.4859890">
	<ele>2282.00</ele>
	<time>2023-08-06T07:42:51.000Z</time>
</trkpt>
<trkpt lat="46.0436270" lon="10.4859970">
	<ele>2281.80</ele>
	<time>2023-08-06T07:42:52.000Z</time>
</trkpt>
<trkpt lat="46.0436320" lon="10.4860020">
	<ele>2281.60</ele>
	<time>2023-08-06T07:42:53.000Z</time>
</trkpt>
<trkpt lat="46.0436340" lon="10.4860080">
	<ele>2281.40</ele>
	<time>2023-08-06T07:42:54.000Z</time>
</trkpt>
<trkpt lat="46.0436360" lon="10.4860120">
	<ele>2281.20</ele>
	<time>2023-08-06T07:42:55.000Z</time>
</trkpt>
<trkpt lat="46.0436400" lon="10.4860110">
	<ele>2281.00</ele>
	<time>2023-08-06T07:42:56.000Z</time>
</trkpt>
<trkpt lat="46.0436390" lon="10.4860220">
	<ele>2280.80</ele>
	<time>2023-08-06T07:42:57.000Z</time>
</trkpt>
<trkpt lat="46.0436410" lon="10.4860290">
	<ele>2280.60</ele>
	<time>2023-08-06T07:42:58.000Z</time>
</trkpt>
<trkpt lat="46.0436440" lon="10.4860400">
	<ele>2280.40</ele>
	<time>2023-08-06T07:42:59.000Z</time>
</trkpt>
<trkpt lat="46.0436490" lon="10.4860470">
	<ele>2279.80</ele>
	<time>2023-08-06T07:43:00.000Z</time>
</trkpt>
<trkpt lat="46.0436580" lon="10.4860470">
	<ele>2279.60</ele>
	<time>2023-08-06T07:43:01.000Z</time>
</trkpt>
<trkpt lat="46.0436650" lon="10.4860490">
	<ele>2279.40</ele>
	<time>2023-08-06T07:43:02.000Z</time>
</trkpt>
<trkpt lat="46.0436700" lon="10.4860560">
	<ele>2279.20</ele>
	<time>2023-08-06T07:43:03.000Z</time>
</trkpt>
<trkpt lat="46.0436830" lon="10.4860560">
	<ele>2279.00</ele>
	<time>2023-08-06T07:43:04.000Z</time>
</trkpt>
<trkpt lat="46.0436890" lon="10.4860660">
	<ele>2278.80</ele>
	<time>2023-08-06T07:43:05.000Z</time>
</trkpt>
<trkpt lat="46.0436950" lon="10.4860720">
	<ele>2278.60</ele>
	<time>2023-08-06T07:43:06.000Z</time>
</trkpt>
<trkpt lat="46.0437000" lon="10.4860810">
	<ele>2278.60</ele>
	<time>2023-08-06T07:43:07.000Z</time>
</trkpt>
<trkpt lat="46.0437070" lon="10.4860890">
	<ele>2278.40</ele>
	<time>2023-08-06T07:43:08.000Z</time>
</trkpt>
<trkpt lat="46.0437130" lon="10.4860950">
	<ele>2278.40</ele>
	<time>2023-08-06T07:43:09.000Z</time>
</trkpt>
<trkpt lat="46.0437160" lon="10.4861030">
	<ele>2278.20</ele>
	<time>2023-08-06T07:43:10.000Z</time>
</trkpt>
<trkpt lat="46.0437150" lon="10.4861150">
	<ele>2278.20</ele>
	<time>2023-08-06T07:43:11.000Z</time>
</trkpt>
<trkpt lat="46.0437150" lon="10.4861150">
	<ele>2278.00</ele>
	<time>2023-08-06T07:43:12.000Z</time>
</trkpt>
<trkpt lat="46.0437160" lon="10.4861160">
	<ele>2278.00</ele>
	<time>2023-08-06T07:43:13.000Z</time>
</trkpt>
<trkpt lat="46.0437220" lon="10.4861090">
	<ele>2278.00</ele>
	<time>2023-08-06T07:43:14.000Z</time>
</trkpt>
<trkpt lat="46.0437370" lon="10.4860870">
	<ele>2278.00</ele>
	<time>2023-08-06T07:43:15.000Z</time>
</trkpt>
<trkpt lat="46.0437450" lon="10.4860770">
	<ele>2278.00</ele>
	<time>2023-08-06T07:43:16.000Z</time>
</trkpt>
<trkpt lat="46.0437490" lon="10.4860780">
	<ele>2277.80</ele>
	<time>2023-08-06T07:43:17.000Z</time>
</trkpt>
<trkpt lat="46.0437610" lon="10.4860770">
	<ele>2277.60</ele>
	<time>2023-08-06T07:43:18.000Z</time>
</trkpt>
<trkpt lat="46.0437660" lon="10.4860830">
	<ele>2277.40</ele>
	<time>2023-08-06T07:43:19.000Z</time>
</trkpt>
<trkpt lat="46.0437700" lon="10.4860840">
	<ele>2277.40</ele>
	<time>2023-08-06T07:43:20.000Z</time>
</trkpt>
<trkpt lat="46.0437710" lon="10.4860860">
	<ele>2277.40</ele>
	<time>2023-08-06T07:43:21.000Z</time>
</trkpt>
<trkpt lat="46.0437720" lon="10.4860910">
	<ele>2277.40</ele>
	<time>2023-08-06T07:43:22.000Z</time>
</trkpt>
<trkpt lat="46.0437730" lon="10.4860920">
	<ele>2277.40</ele>
	<time>2023-08-06T07:43:23.000Z</time>
</trkpt>
<trkpt lat="46.0437740" lon="10.4860940">
	<ele>2277.40</ele>
	<time>2023-08-06T07:43:24.000Z</time>
</trkpt>
<trkpt lat="46.0437740" lon="10.4861010">
	<ele>2277.40</ele>
	<time>2023-08-06T07:43:25.000Z</time>
</trkpt>
<trkpt lat="46.0437750" lon="10.4861060">
	<ele>2277.60</ele>
	<time>2023-08-06T07:43:26.000Z</time>
</trkpt>
<trkpt lat="46.0437770" lon="10.4861090">
	<ele>2277.60</ele>
	<time>2023-08-06T07:43:27.000Z</time>
</trkpt>
<trkpt lat="46.0437750" lon="10.4861270">
	<ele>2277.80</ele>
	<time>2023-08-06T07:43:28.000Z</time>
</trkpt>
<trkpt lat="46.0437770" lon="10.4861360">
	<ele>2277.80</ele>
	<time>2023-08-06T07:43:29.000Z</time>
</trkpt>
<trkpt lat="46.0437830" lon="10.4861340">
	<ele>2277.80</ele>
	<time>2023-08-06T07:43:30.000Z</time>
</trkpt>
<trkpt lat="46.0437930" lon="10.4861370">
	<ele>2277.80</ele>
	<time>2023-08-06T07:43:31.000Z</time>
</trkpt>
<trkpt lat="46.0437990" lon="10.4861440">
	<ele>2277.80</ele>
	<time>2023-08-06T07:43:32.000Z</time>
</trkpt>
<trkpt lat="46.0438050" lon="10.4861500">
	<ele>2277.80</ele>
	<time>2023-08-06T07:43:33.000Z</time>
</trkpt>
<trkpt lat="46.0438070" lon="10.4861610">
	<ele>2277.40</ele>
	<time>2023-08-06T07:43:34.000Z</time>
</trkpt>
<trkpt lat="46.0438110" lon="10.4861780">
	<ele>2277.20</ele>
	<time>2023-08-06T07:43:35.000Z</time>
</trkpt>
<trkpt lat="46.0438120" lon="10.4861970">
	<ele>2277.20</ele>
	<time>2023-08-06T07:43:36.000Z</time>
</trkpt>
<trkpt lat="46.0438130" lon="10.4862180">
	<ele>2277.20</ele>
	<time>2023-08-06T07:43:37.000Z</time>
</trkpt>
<trkpt lat="46.0438110" lon="10.4862370">
	<ele>2277.00</ele>
	<time>2023-08-06T07:43:38.000Z</time>
</trkpt>
<trkpt lat="46.0438120" lon="10.4862530">
	<ele>2277.00</ele>
	<time>2023-08-06T07:43:39.000Z</time>
</trkpt>
<trkpt lat="46.0438090" lon="10.4862750">
	<ele>2277.00</ele>
	<time>2023-08-06T07:43:40.000Z</time>
</trkpt>
<trkpt lat="46.0438090" lon="10.4862920">
	<ele>2277.00</ele>
	<time>2023-08-06T07:43:41.000Z</time>
</trkpt>
<trkpt lat="46.0438100" lon="10.4863080">
	<ele>2277.00</ele>
	<time>2023-08-06T07:43:42.000Z</time>
</trkpt>
<trkpt lat="46.0438110" lon="10.4863180">
	<ele>2277.00</ele>
	<time>2023-08-06T07:43:43.000Z</time>
</trkpt>
<trkpt lat="46.0438170" lon="10.4863210">
	<ele>2277.00</ele>
	<time>2023-08-06T07:43:44.000Z</time>
</trkpt>
<trkpt lat="46.0438250" lon="10.4863300">
	<ele>2277.20</ele>
	<time>2023-08-06T07:43:45.000Z</time>
</trkpt>
<trkpt lat="46.0438330" lon="10.4863300">
	<ele>2277.60</ele>
	<time>2023-08-06T07:43:46.000Z</time>
</trkpt>
<trkpt lat="46.0438470" lon="10.4863350">
	<ele>2278.00</ele>
	<time>2023-08-06T07:43:47.000Z</time>
</trkpt>
<trkpt lat="46.0438530" lon="10.4863420">
	<ele>2278.20</ele>
	<time>2023-08-06T07:43:48.000Z</time>
</trkpt>
<trkpt lat="46.0438610" lon="10.4863430">
	<ele>2278.20</ele>
	<time>2023-08-06T07:43:49.000Z</time>
</trkpt>
<trkpt lat="46.0438660" lon="10.4863450">
	<ele>2278.20</ele>
	<time>2023-08-06T07:43:50.000Z</time>
</trkpt>
<trkpt lat="46.0438720" lon="10.4863530">
	<ele>2278.00</ele>
	<time>2023-08-06T07:43:51.000Z</time>
</trkpt>
<trkpt lat="46.0438750" lon="10.4863670">
	<ele>2278.00</ele>
	<time>2023-08-06T07:43:52.000Z</time>
</trkpt>
<trkpt lat="46.0438820" lon="10.4863800">
	<ele>2278.00</ele>
	<time>2023-08-06T07:43:53.000Z</time>
</trkpt>
<trkpt lat="46.0438880" lon="10.4863920">
	<ele>2278.00</ele>
	<time>2023-08-06T07:43:54.000Z</time>
</trkpt>
<trkpt lat="46.0438940" lon="10.4864010">
	<ele>2277.80</ele>
	<time>2023-08-06T07:43:55.000Z</time>
</trkpt>
<trkpt lat="46.0438960" lon="10.4864100">
	<ele>2277.60</ele>
	<time>2023-08-06T07:43:56.000Z</time>
</trkpt>
<trkpt lat="46.0439040" lon="10.4864170">
	<ele>2277.60</ele>
	<time>2023-08-06T07:43:57.000Z</time>
</trkpt>
<trkpt lat="46.0439080" lon="10.4864250">
	<ele>2277.60</ele>
	<time>2023-08-06T07:43:58.000Z</time>
</trkpt>
<trkpt lat="46.0439140" lon="10.4864280">
	<ele>2277.60</ele>
	<time>2023-08-06T07:43:59.000Z</time>
</trkpt>
<trkpt lat="46.0439200" lon="10.4864300">
	<ele>2277.60</ele>
	<time>2023-08-06T07:44:00.000Z</time>
</trkpt>
<trkpt lat="46.0439250" lon="10.4864480">
	<ele>2277.60</ele>
	<time>2023-08-06T07:44:01.000Z</time>
</trkpt>
<trkpt lat="46.0439350" lon="10.4864570">
	<ele>2277.60</ele>
	<time>2023-08-06T07:44:02.000Z</time>
</trkpt>
<trkpt lat="46.0439370" lon="10.4864730">
	<ele>2277.60</ele>
	<time>2023-08-06T07:44:03.000Z</time>
</trkpt>
<trkpt lat="46.0439460" lon="10.4864770">
	<ele>2277.60</ele>
	<time>2023-08-06T07:44:04.000Z</time>
</trkpt>
<trkpt lat="46.0439570" lon="10.4864760">
	<ele>2277.60</ele>
	<time>2023-08-06T07:44:05.000Z</time>
</trkpt>
<trkpt lat="46.0439610" lon="10.4864820">
	<ele>2277.60</ele>
	<time>2023-08-06T07:44:06.000Z</time>
</trkpt>
<trkpt lat="46.0439660" lon="10.4864820">
	<ele>2277.60</ele>
	<time>2023-08-06T07:44:07.000Z</time>
</trkpt>
<trkpt lat="46.0439790" lon="10.4864750">
	<ele>2277.60</ele>
	<time>2023-08-06T07:44:08.000Z</time>
</trkpt>
<trkpt lat="46.0439880" lon="10.4864740">
	<ele>2277.80</ele>
	<time>2023-08-06T07:44:09.000Z</time>
</trkpt>
<trkpt lat="46.0439950" lon="10.4864780">
	<ele>2277.80</ele>
	<time>2023-08-06T07:44:10.000Z</time>
</trkpt>
<trkpt lat="46.0440000" lon="10.4864840">
	<ele>2277.80</ele>
	<time>2023-08-06T07:44:11.000Z</time>
</trkpt>
<trkpt lat="46.0440050" lon="10.4864920">
	<ele>2278.00</ele>
	<time>2023-08-06T07:44:12.000Z</time>
</trkpt>
<trkpt lat="46.0440110" lon="10.4864960">
	<ele>2278.00</ele>
	<time>2023-08-06T07:44:13.000Z</time>
</trkpt>
<trkpt lat="46.0440170" lon="10.4865010">
	<ele>2278.20</ele>
	<time>2023-08-06T07:44:14.000Z</time>
</trkpt>
<trkpt lat="46.0440240" lon="10.4865030">
	<ele>2278.20</ele>
	<time>2023-08-06T07:44:15.000Z</time>
</trkpt>
<trkpt lat="46.0440310" lon="10.4865000">
	<ele>2278.60</ele>
	<time>2023-08-06T07:44:16.000Z</time>
</trkpt>
<trkpt lat="46.0440390" lon="10.4865050">
	<ele>2278.60</ele>
	<time>2023-08-06T07:44:17.000Z</time>
</trkpt>
<trkpt lat="46.0440440" lon="10.4865150">
	<ele>2278.80</ele>
	<time>2023-08-06T07:44:18.000Z</time>
</trkpt>
<trkpt lat="46.0440490" lon="10.4865210">
	<ele>2278.80</ele>
	<time>2023-08-06T07:44:19.000Z</time>
</trkpt>
<trkpt lat="46.0440550" lon="10.4865240">
	<ele>2279.00</ele>
	<time>2023-08-06T07:44:20.000Z</time>
</trkpt>
<trkpt lat="46.0440600" lon="10.4865320">
	<ele>2278.80</ele>
	<time>2023-08-06T07:44:21.000Z</time>
</trkpt>
<trkpt lat="46.0440650" lon="10.4865400">
	<ele>2278.60</ele>
	<time>2023-08-06T07:44:22.000Z</time>
</trkpt>
<trkpt lat="46.0440730" lon="10.4865440">
	<ele>2278.60</ele>
	<time>2023-08-06T07:44:23.000Z</time>
</trkpt>
<trkpt lat="46.0440780" lon="10.4865450">
	<ele>2278.60</ele>
	<time>2023-08-06T07:44:24.000Z</time>
</trkpt>
<trkpt lat="46.0440840" lon="10.4865480">
	<ele>2278.80</ele>
	<time>2023-08-06T07:44:25.000Z</time>
</trkpt>
<trkpt lat="46.0440860" lon="10.4865490">
	<ele>2278.60</ele>
	<time>2023-08-06T07:44:26.000Z</time>
</trkpt>
<trkpt lat="46.0440900" lon="10.4865530">
	<ele>2278.80</ele>
	<time>2023-08-06T07:44:27.000Z</time>
</trkpt>
<trkpt lat="46.0440920" lon="10.4865600">
	<ele>2278.80</ele>
	<time>2023-08-06T07:44:28.000Z</time>
</trkpt>
<trkpt lat="46.0441010" lon="10.4865610">
	<ele>2278.80</ele>
	<time>2023-08-06T07:44:29.000Z</time>
</trkpt>
<trkpt lat="46.0441020" lon="10.4865750">
	<ele>2278.80</ele>
	<time>2023-08-06T07:44:30.000Z</time>
</trkpt>
<trkpt lat="46.0441090" lon="10.4865860">
	<ele>2278.80</ele>
	<time>2023-08-06T07:44:31.000Z</time>
</trkpt>
<trkpt lat="46.0441150" lon="10.4866010">
	<ele>2278.80</ele>
	<time>2023-08-06T07:44:32.000Z</time>
</trkpt>
<trkpt lat="46.0441220" lon="10.4866140">
	<ele>2278.80</ele>
	<time>2023-08-06T07:44:33.000Z</time>
</trkpt>
<trkpt lat="46.0441320" lon="10.4866190">
	<ele>2278.80</ele>
	<time>2023-08-06T07:44:34.000Z</time>
</trkpt>
<trkpt lat="46.0441470" lon="10.4866210">
	<ele>2278.80</ele>
	<time>2023-08-06T07:44:35.000Z</time>
</trkpt>
<trkpt lat="46.0441580" lon="10.4866240">
	<ele>2278.80</ele>
	<time>2023-08-06T07:44:36.000Z</time>
</trkpt>
<trkpt lat="46.0441660" lon="10.4866310">
	<ele>2278.80</ele>
	<time>2023-08-06T07:44:37.000Z</time>
</trkpt>
<trkpt lat="46.0441740" lon="10.4866300">
	<ele>2278.80</ele>
	<time>2023-08-06T07:44:38.000Z</time>
</trkpt>
<trkpt lat="46.0441800" lon="10.4866230">
	<ele>2278.80</ele>
	<time>2023-08-06T07:44:39.000Z</time>
</trkpt>
<trkpt lat="46.0441840" lon="10.4866200">
	<ele>2278.80</ele>
	<time>2023-08-06T07:44:40.000Z</time>
</trkpt>
<trkpt lat="46.0441870" lon="10.4866150">
	<ele>2278.80</ele>
	<time>2023-08-06T07:44:41.000Z</time>
</trkpt>
<trkpt lat="46.0441890" lon="10.4866140">
	<ele>2278.80</ele>
	<time>2023-08-06T07:44:42.000Z</time>
</trkpt>
<trkpt lat="46.0441930" lon="10.4866120">
	<ele>2278.80</ele>
	<time>2023-08-06T07:44:43.000Z</time>
</trkpt>
<trkpt lat="46.0441960" lon="10.4866090">
	<ele>2279.00</ele>
	<time>2023-08-06T07:44:44.000Z</time>
</trkpt>
<trkpt lat="46.0442030" lon="10.4866050">
	<ele>2279.00</ele>
	<time>2023-08-06T07:44:45.000Z</time>
</trkpt>
<trkpt lat="46.0442110" lon="10.4866010">
	<ele>2279.20</ele>
	<time>2023-08-06T07:44:46.000Z</time>
</trkpt>
<trkpt lat="46.0442140" lon="10.4865990">
	<ele>2279.40</ele>
	<time>2023-08-06T07:44:47.000Z</time>
</trkpt>
<trkpt lat="46.0442200" lon="10.4865970">
	<ele>2279.60</ele>
	<time>2023-08-06T07:44:48.000Z</time>
</trkpt>
<trkpt lat="46.0442290" lon="10.4865980">
	<ele>2279.80</ele>
	<time>2023-08-06T07:44:49.000Z</time>
</trkpt>
<trkpt lat="46.0442370" lon="10.4865990">
	<ele>2279.80</ele>
	<time>2023-08-06T07:44:50.000Z</time>
</trkpt>
<trkpt lat="46.0442440" lon="10.4866000">
	<ele>2279.80</ele>
	<time>2023-08-06T07:44:51.000Z</time>
</trkpt>
<trkpt lat="46.0442510" lon="10.4865980">
	<ele>2279.80</ele>
	<time>2023-08-06T07:44:52.000Z</time>
</trkpt>
<trkpt lat="46.0442570" lon="10.4865950">
	<ele>2280.00</ele>
	<time>2023-08-06T07:44:53.000Z</time>
</trkpt>
<trkpt lat="46.0442650" lon="10.4865930">
	<ele>2280.20</ele>
	<time>2023-08-06T07:44:54.000Z</time>
</trkpt>
<trkpt lat="46.0442730" lon="10.4865950">
	<ele>2280.20</ele>
	<time>2023-08-06T07:44:55.000Z</time>
</trkpt>
<trkpt lat="46.0442770" lon="10.4865950">
	<ele>2280.40</ele>
	<time>2023-08-06T07:44:56.000Z</time>
</trkpt>
<trkpt lat="46.0442810" lon="10.4865960">
	<ele>2280.60</ele>
	<time>2023-08-06T07:44:57.000Z</time>
</trkpt>
<trkpt lat="46.0442850" lon="10.4866000">
	<ele>2280.80</ele>
	<time>2023-08-06T07:44:58.000Z</time>
</trkpt>
<trkpt lat="46.0442920" lon="10.4866040">
	<ele>2280.80</ele>
	<time>2023-08-06T07:44:59.000Z</time>
</trkpt>
<trkpt lat="46.0442950" lon="10.4866060">
	<ele>2281.00</ele>
	<time>2023-08-06T07:45:00.000Z</time>
</trkpt>
<trkpt lat="46.0442970" lon="10.4866060">
	<ele>2281.00</ele>
	<time>2023-08-06T07:45:01.000Z</time>
</trkpt>
<trkpt lat="46.0443000" lon="10.4866030">
	<ele>2281.20</ele>
	<time>2023-08-06T07:45:02.000Z</time>
</trkpt>
<trkpt lat="46.0443050" lon="10.4865970">
	<ele>2281.20</ele>
	<time>2023-08-06T07:45:03.000Z</time>
</trkpt>
<trkpt lat="46.0443080" lon="10.4865990">
	<ele>2281.40</ele>
	<time>2023-08-06T07:45:04.000Z</time>
</trkpt>
<trkpt lat="46.0443150" lon="10.4865970">
	<ele>2281.40</ele>
	<time>2023-08-06T07:45:05.000Z</time>
</trkpt>
<trkpt lat="46.0443210" lon="10.4866020">
	<ele>2281.40</ele>
	<time>2023-08-06T07:45:06.000Z</time>
</trkpt>
<trkpt lat="46.0443240" lon="10.4866060">
	<ele>2281.40</ele>
	<time>2023-08-06T07:45:07.000Z</time>
</trkpt>
<trkpt lat="46.0443290" lon="10.4866130">
	<ele>2281.60</ele>
	<time>2023-08-06T07:45:08.000Z</time>
</trkpt>
<trkpt lat="46.0443340" lon="10.4866220">
	<ele>2281.60</ele>
	<time>2023-08-06T07:45:09.000Z</time>
</trkpt>
<trkpt lat="46.0443390" lon="10.4866310">
	<ele>2281.60</ele>
	<time>2023-08-06T07:45:10.000Z</time>
</trkpt>
<trkpt lat="46.0443510" lon="10.4866310">
	<ele>2281.40</ele>
	<time>2023-08-06T07:45:11.000Z</time>
</trkpt>
<trkpt lat="46.0443670" lon="10.4866220">
	<ele>2281.40</ele>
	<time>2023-08-06T07:45:12.000Z</time>
</trkpt>
<trkpt lat="46.0443830" lon="10.4866180">
	<ele>2281.40</ele>
	<time>2023-08-06T07:45:13.000Z</time>
</trkpt>
<trkpt lat="46.0443970" lon="10.4866240">
	<ele>2281.20</ele>
	<time>2023-08-06T07:45:14.000Z</time>
</trkpt>
<trkpt lat="46.0444020" lon="10.4866360">
	<ele>2281.00</ele>
	<time>2023-08-06T07:45:15.000Z</time>
</trkpt>
<trkpt lat="46.0444110" lon="10.4866440">
	<ele>2281.00</ele>
	<time>2023-08-06T07:45:16.000Z</time>
</trkpt>
<trkpt lat="46.0444190" lon="10.4866470">
	<ele>2281.20</ele>
	<time>2023-08-06T07:45:17.000Z</time>
</trkpt>
<trkpt lat="46.0444290" lon="10.4866480">
	<ele>2281.40</ele>
	<time>2023-08-06T07:45:18.000Z</time>
</trkpt>
<trkpt lat="46.0444390" lon="10.4866470">
	<ele>2281.40</ele>
	<time>2023-08-06T07:45:19.000Z</time>
</trkpt>
<trkpt lat="46.0444530" lon="10.4866370">
	<ele>2281.60</ele>
	<time>2023-08-06T07:45:20.000Z</time>
</trkpt>
<trkpt lat="46.0444640" lon="10.4866380">
	<ele>2281.60</ele>
	<time>2023-08-06T07:45:21.000Z</time>
</trkpt>
<trkpt lat="46.0444760" lon="10.4866320">
	<ele>2281.60</ele>
	<time>2023-08-06T07:45:22.000Z</time>
</trkpt>
<trkpt lat="46.0444860" lon="10.4866320">
	<ele>2281.60</ele>
	<time>2023-08-06T07:45:23.000Z</time>
</trkpt>
<trkpt lat="46.0444920" lon="10.4866400">
	<ele>2281.60</ele>
	<time>2023-08-06T07:45:24.000Z</time>
</trkpt>
<trkpt lat="46.0445020" lon="10.4866380">
	<ele>2281.60</ele>
	<time>2023-08-06T07:45:25.000Z</time>
</trkpt>
<trkpt lat="46.0445110" lon="10.4866370">
	<ele>2281.60</ele>
	<time>2023-08-06T07:45:26.000Z</time>
</trkpt>
<trkpt lat="46.0445200" lon="10.4866380">
	<ele>2281.60</ele>
	<time>2023-08-06T07:45:27.000Z</time>
</trkpt>
<trkpt lat="46.0445300" lon="10.4866390">
	<ele>2281.60</ele>
	<time>2023-08-06T07:45:28.000Z</time>
</trkpt>
<trkpt lat="46.0445380" lon="10.4866380">
	<ele>2281.60</ele>
	<time>2023-08-06T07:45:29.000Z</time>
</trkpt>
<trkpt lat="46.0445510" lon="10.4866280">
	<ele>2281.60</ele>
	<time>2023-08-06T07:45:30.000Z</time>
</trkpt>
<trkpt lat="46.0445630" lon="10.4866270">
	<ele>2281.60</ele>
	<time>2023-08-06T07:45:31.000Z</time>
</trkpt>
<trkpt lat="46.0445760" lon="10.4866340">
	<ele>2281.60</ele>
	<time>2023-08-06T07:45:32.000Z</time>
</trkpt>
<trkpt lat="46.0445860" lon="10.4866470">
	<ele>2281.60</ele>
	<time>2023-08-06T07:45:33.000Z</time>
</trkpt>
<trkpt lat="46.0445980" lon="10.4866440">
	<ele>2281.60</ele>
	<time>2023-08-06T07:45:34.000Z</time>
</trkpt>
<trkpt lat="46.0446040" lon="10.4866530">
	<ele>2281.60</ele>
	<time>2023-08-06T07:45:35.000Z</time>
</trkpt>
<trkpt lat="46.0446120" lon="10.4866580">
	<ele>2281.60</ele>
	<time>2023-08-06T07:45:36.000Z</time>
</trkpt>
<trkpt lat="46.0446200" lon="10.4866580">
	<ele>2281.60</ele>
	<time>2023-08-06T07:45:37.000Z</time>
</trkpt>
<trkpt lat="46.0446300" lon="10.4866620">
	<ele>2281.60</ele>
	<time>2023-08-06T07:45:38.000Z</time>
</trkpt>
<trkpt lat="46.0446380" lon="10.4866660">
	<ele>2281.40</ele>
	<time>2023-08-06T07:45:39.000Z</time>
</trkpt>
<trkpt lat="46.0446500" lon="10.4866700">
	<ele>2281.40</ele>
	<time>2023-08-06T07:45:40.000Z</time>
</trkpt>
<trkpt lat="46.0446550" lon="10.4866740">
	<ele>2281.40</ele>
	<time>2023-08-06T07:45:41.000Z</time>
</trkpt>
<trkpt lat="46.0446590" lon="10.4866890">
	<ele>2281.40</ele>
	<time>2023-08-06T07:45:42.000Z</time>
</trkpt>
<trkpt lat="46.0446660" lon="10.4866970">
	<ele>2281.40</ele>
	<time>2023-08-06T07:45:43.000Z</time>
</trkpt>
<trkpt lat="46.0446730" lon="10.4867010">
	<ele>2281.40</ele>
	<time>2023-08-06T07:45:44.000Z</time>
</trkpt>
<trkpt lat="46.0446810" lon="10.4867090">
	<ele>2281.20</ele>
	<time>2023-08-06T07:45:45.000Z</time>
</trkpt>
<trkpt lat="46.0446870" lon="10.4867160">
	<ele>2281.20</ele>
	<time>2023-08-06T07:45:46.000Z</time>
</trkpt>
<trkpt lat="46.0446910" lon="10.4867250">
	<ele>2281.20</ele>
	<time>2023-08-06T07:45:47.000Z</time>
</trkpt>
<trkpt lat="46.0446940" lon="10.4867310">
	<ele>2281.20</ele>
	<time>2023-08-06T07:45:48.000Z</time>
</trkpt>
<trkpt lat="46.0446990" lon="10.4867320">
	<ele>2281.20</ele>
	<time>2023-08-06T07:45:49.000Z</time>
</trkpt>
<trkpt lat="46.0447030" lon="10.4867340">
	<ele>2281.20</ele>
	<time>2023-08-06T07:45:50.000Z</time>
</trkpt>
<trkpt lat="46.0447140" lon="10.4867270">
	<ele>2281.20</ele>
	<time>2023-08-06T07:45:51.000Z</time>
</trkpt>
<trkpt lat="46.0447270" lon="10.4867200">
	<ele>2281.20</ele>
	<time>2023-08-06T07:45:52.000Z</time>
</trkpt>
<trkpt lat="46.0447360" lon="10.4867190">
	<ele>2281.20</ele>
	<time>2023-08-06T07:45:53.000Z</time>
</trkpt>
<trkpt lat="46.0447440" lon="10.4867200">
	<ele>2281.20</ele>
	<time>2023-08-06T07:45:54.000Z</time>
</trkpt>
<trkpt lat="46.0447510" lon="10.4867240">
	<ele>2281.20</ele>
	<time>2023-08-06T07:45:55.000Z</time>
</trkpt>
<trkpt lat="46.0447580" lon="10.4867310">
	<ele>2281.20</ele>
	<time>2023-08-06T07:45:56.000Z</time>
</trkpt>
<trkpt lat="46.0447650" lon="10.4867380">
	<ele>2281.20</ele>
	<time>2023-08-06T07:45:57.000Z</time>
</trkpt>
<trkpt lat="46.0447720" lon="10.4867470">
	<ele>2281.00</ele>
	<time>2023-08-06T07:45:58.000Z</time>
</trkpt>
<trkpt lat="46.0447850" lon="10.4867430">
	<ele>2281.00</ele>
	<time>2023-08-06T07:45:59.000Z</time>
</trkpt>
<trkpt lat="46.0447960" lon="10.4867450">
	<ele>2281.00</ele>
	<time>2023-08-06T07:46:00.000Z</time>
</trkpt>
<trkpt lat="46.0448020" lon="10.4867480">
	<ele>2280.80</ele>
	<time>2023-08-06T07:46:01.000Z</time>
</trkpt>
<trkpt lat="46.0448090" lon="10.4867560">
	<ele>2280.60</ele>
	<time>2023-08-06T07:46:02.000Z</time>
</trkpt>
<trkpt lat="46.0448280" lon="10.4867580">
	<ele>2280.60</ele>
	<time>2023-08-06T07:46:03.000Z</time>
</trkpt>
<trkpt lat="46.0448380" lon="10.4867620">
	<ele>2280.60</ele>
	<time>2023-08-06T07:46:04.000Z</time>
</trkpt>
<trkpt lat="46.0448480" lon="10.4867600">
	<ele>2280.40</ele>
	<time>2023-08-06T07:46:05.000Z</time>
</trkpt>
<trkpt lat="46.0448570" lon="10.4867620">
	<ele>2280.60</ele>
	<time>2023-08-06T07:46:06.000Z</time>
</trkpt>
<trkpt lat="46.0448670" lon="10.4867670">
	<ele>2280.60</ele>
	<time>2023-08-06T07:46:07.000Z</time>
</trkpt>
<trkpt lat="46.0448720" lon="10.4867820">
	<ele>2280.80</ele>
	<time>2023-08-06T07:46:08.000Z</time>
</trkpt>
<trkpt lat="46.0448740" lon="10.4868000">
	<ele>2281.00</ele>
	<time>2023-08-06T07:46:09.000Z</time>
</trkpt>
<trkpt lat="46.0448800" lon="10.4868110">
	<ele>2281.00</ele>
	<time>2023-08-06T07:46:10.000Z</time>
</trkpt>
<trkpt lat="46.0448820" lon="10.4868290">
	<ele>2281.20</ele>
	<time>2023-08-06T07:46:11.000Z</time>
</trkpt>
<trkpt lat="46.0448880" lon="10.4868360">
	<ele>2281.20</ele>
	<time>2023-08-06T07:46:12.000Z</time>
</trkpt>
<trkpt lat="46.0448990" lon="10.4868370">
	<ele>2281.20</ele>
	<time>2023-08-06T07:46:13.000Z</time>
</trkpt>
<trkpt lat="46.0449110" lon="10.4868380">
	<ele>2281.20</ele>
	<time>2023-08-06T07:46:14.000Z</time>
</trkpt>
<trkpt lat="46.0449140" lon="10.4868520">
	<ele>2281.20</ele>
	<time>2023-08-06T07:46:15.000Z</time>
</trkpt>
<trkpt lat="46.0449250" lon="10.4868530">
	<ele>2281.00</ele>
	<time>2023-08-06T07:46:16.000Z</time>
</trkpt>
<trkpt lat="46.0449370" lon="10.4868490">
	<ele>2281.00</ele>
	<time>2023-08-06T07:46:17.000Z</time>
</trkpt>
<trkpt lat="46.0449520" lon="10.4868490">
	<ele>2281.00</ele>
	<time>2023-08-06T07:46:18.000Z</time>
</trkpt>
<trkpt lat="46.0449620" lon="10.4868540">
	<ele>2281.00</ele>
	<time>2023-08-06T07:46:19.000Z</time>
</trkpt>
<trkpt lat="46.0449720" lon="10.4868560">
	<ele>2281.00</ele>
	<time>2023-08-06T07:46:20.000Z</time>
</trkpt>
<trkpt lat="46.0449770" lon="10.4868730">
	<ele>2281.00</ele>
	<time>2023-08-06T07:46:21.000Z</time>
</trkpt>
<trkpt lat="46.0449840" lon="10.4868780">
	<ele>2281.00</ele>
	<time>2023-08-06T07:46:22.000Z</time>
</trkpt>
<trkpt lat="46.0449890" lon="10.4868840">
	<ele>2281.00</ele>
	<time>2023-08-06T07:46:23.000Z</time>
</trkpt>
<trkpt lat="46.0450000" lon="10.4868920">
	<ele>2281.00</ele>
	<time>2023-08-06T07:46:24.000Z</time>
</trkpt>
<trkpt lat="46.0450050" lon="10.4869060">
	<ele>2281.00</ele>
	<time>2023-08-06T07:46:25.000Z</time>
</trkpt>
<trkpt lat="46.0450190" lon="10.4869090">
	<ele>2281.00</ele>
	<time>2023-08-06T07:46:26.000Z</time>
</trkpt>
<trkpt lat="46.0450330" lon="10.4869070">
	<ele>2281.00</ele>
	<time>2023-08-06T07:46:27.000Z</time>
</trkpt>
<trkpt lat="46.0450440" lon="10.4869080">
	<ele>2280.80</ele>
	<time>2023-08-06T07:46:28.000Z</time>
</trkpt>
<trkpt lat="46.0450530" lon="10.4869110">
	<ele>2280.80</ele>
	<time>2023-08-06T07:46:29.000Z</time>
</trkpt>
<trkpt lat="46.0450610" lon="10.4869150">
	<ele>2280.80</ele>
	<time>2023-08-06T07:46:30.000Z</time>
</trkpt>
<trkpt lat="46.0450700" lon="10.4869190">
	<ele>2280.60</ele>
	<time>2023-08-06T07:46:31.000Z</time>
</trkpt>
<trkpt lat="46.0450800" lon="10.4869240">
	<ele>2280.40</ele>
	<time>2023-08-06T07:46:32.000Z</time>
</trkpt>
<trkpt lat="46.0450870" lon="10.4869320">
	<ele>2280.20</ele>
	<time>2023-08-06T07:46:33.000Z</time>
</trkpt>
<trkpt lat="46.0450960" lon="10.4869350">
	<ele>2280.20</ele>
	<time>2023-08-06T07:46:34.000Z</time>
</trkpt>
<trkpt lat="46.0451020" lon="10.4869350">
	<ele>2280.20</ele>
	<time>2023-08-06T07:46:35.000Z</time>
</trkpt>
<trkpt lat="46.0451050" lon="10.4869390">
	<ele>2280.20</ele>
	<time>2023-08-06T07:46:36.000Z</time>
</trkpt>
<trkpt lat="46.0451130" lon="10.4869360">
	<ele>2280.00</ele>
	<time>2023-08-06T07:46:37.000Z</time>
</trkpt>
<trkpt lat="46.0451220" lon="10.4869360">
	<ele>2280.00</ele>
	<time>2023-08-06T07:46:38.000Z</time>
</trkpt>
<trkpt lat="46.0451220" lon="10.4869520">
	<ele>2280.00</ele>
	<time>2023-08-06T07:46:39.000Z</time>
</trkpt>
<trkpt lat="46.0451340" lon="10.4869470">
	<ele>2280.00</ele>
	<time>2023-08-06T07:46:40.000Z</time>
</trkpt>
<trkpt lat="46.0451440" lon="10.4869420">
	<ele>2280.00</ele>
	<time>2023-08-06T07:46:41.000Z</time>
</trkpt>
<trkpt lat="46.0451490" lon="10.4869430">
	<ele>2280.00</ele>
	<time>2023-08-06T07:46:42.000Z</time>
</trkpt>
<trkpt lat="46.0451520" lon="10.4869450">
	<ele>2279.80</ele>
	<time>2023-08-06T07:46:43.000Z</time>
</trkpt>
<trkpt lat="46.0451570" lon="10.4869520">
	<ele>2279.80</ele>
	<time>2023-08-06T07:46:44.000Z</time>
</trkpt>
<trkpt lat="46.0451630" lon="10.4869560">
	<ele>2279.60</ele>
	<time>2023-08-06T07:46:45.000Z</time>
</trkpt>
<trkpt lat="46.0451670" lon="10.4869620">
	<ele>2279.60</ele>
	<time>2023-08-06T07:46:46.000Z</time>
</trkpt>
<trkpt lat="46.0451790" lon="10.4869600">
	<ele>2279.60</ele>
	<time>2023-08-06T07:46:47.000Z</time>
</trkpt>
<trkpt lat="46.0451930" lon="10.4869590">
	<ele>2279.40</ele>
	<time>2023-08-06T07:46:48.000Z</time>
</trkpt>
<trkpt lat="46.0451970" lon="10.4869630">
	<ele>2279.40</ele>
	<time>2023-08-06T07:46:49.000Z</time>
</trkpt>
<trkpt lat="46.0452040" lon="10.4869680">
	<ele>2279.20</ele>
	<time>2023-08-06T07:46:50.000Z</time>
</trkpt>
<trkpt lat="46.0452100" lon="10.4869800">
	<ele>2279.20</ele>
	<time>2023-08-06T07:46:51.000Z</time>
</trkpt>
<trkpt lat="46.0452170" lon="10.4869870">
	<ele>2279.00</ele>
	<time>2023-08-06T07:46:52.000Z</time>
</trkpt>
<trkpt lat="46.0452220" lon="10.4869970">
	<ele>2278.80</ele>
	<time>2023-08-06T07:46:53.000Z</time>
</trkpt>
<trkpt lat="46.0452280" lon="10.4870030">
	<ele>2278.60</ele>
	<time>2023-08-06T07:46:54.000Z</time>
</trkpt>
<trkpt lat="46.0452340" lon="10.4870180">
	<ele>2278.40</ele>
	<time>2023-08-06T07:46:55.000Z</time>
</trkpt>
<trkpt lat="46.0452440" lon="10.4870240">
	<ele>2278.40</ele>
	<time>2023-08-06T07:46:56.000Z</time>
</trkpt>
<trkpt lat="46.0452500" lon="10.4870300">
	<ele>2278.40</ele>
	<time>2023-08-06T07:46:57.000Z</time>
</trkpt>
<trkpt lat="46.0452570" lon="10.4870310">
	<ele>2278.20</ele>
	<time>2023-08-06T07:46:58.000Z</time>
</trkpt>
<trkpt lat="46.0452600" lon="10.4870400">
	<ele>2278.20</ele>
	<time>2023-08-06T07:46:59.000Z</time>
</trkpt>
<trkpt lat="46.0452620" lon="10.4870460">
	<ele>2278.20</ele>
	<time>2023-08-06T07:47:00.000Z</time>
</trkpt>
<trkpt lat="46.0452680" lon="10.4870550">
	<ele>2278.20</ele>
	<time>2023-08-06T07:47:01.000Z</time>
</trkpt>
<trkpt lat="46.0452720" lon="10.4870650">
	<ele>2278.00</ele>
	<time>2023-08-06T07:47:02.000Z</time>
</trkpt>
<trkpt lat="46.0452740" lon="10.4870760">
	<ele>2278.00</ele>
	<time>2023-08-06T07:47:03.000Z</time>
</trkpt>
<trkpt lat="46.0452810" lon="10.4870710">
	<ele>2278.00</ele>
	<time>2023-08-06T07:47:04.000Z</time>
</trkpt>
<trkpt lat="46.0452920" lon="10.4870620">
	<ele>2277.80</ele>
	<time>2023-08-06T07:47:05.000Z</time>
</trkpt>
<trkpt lat="46.0453030" lon="10.4870560">
	<ele>2277.80</ele>
	<time>2023-08-06T07:47:06.000Z</time>
</trkpt>
<trkpt lat="46.0453120" lon="10.4870520">
	<ele>2277.80</ele>
	<time>2023-08-06T07:47:07.000Z</time>
</trkpt>
<trkpt lat="46.0453180" lon="10.4870590">
	<ele>2277.80</ele>
	<time>2023-08-06T07:47:08.000Z</time>
</trkpt>
<trkpt lat="46.0453220" lon="10.4870720">
	<ele>2277.80</ele>
	<time>2023-08-06T07:47:09.000Z</time>
</trkpt>
<trkpt lat="46.0453260" lon="10.4870890">
	<ele>2277.80</ele>
	<time>2023-08-06T07:47:10.000Z</time>
</trkpt>
<trkpt lat="46.0453370" lon="10.4870940">
	<ele>2277.60</ele>
	<time>2023-08-06T07:47:11.000Z</time>
</trkpt>
<trkpt lat="46.0453450" lon="10.4870940">
	<ele>2277.60</ele>
	<time>2023-08-06T07:47:12.000Z</time>
</trkpt>
<trkpt lat="46.0453530" lon="10.4871010">
	<ele>2277.40</ele>
	<time>2023-08-06T07:47:13.000Z</time>
</trkpt>
<trkpt lat="46.0453600" lon="10.4871060">
	<ele>2277.40</ele>
	<time>2023-08-06T07:47:14.000Z</time>
</trkpt>
<trkpt lat="46.0453660" lon="10.4871100">
	<ele>2277.20</ele>
	<time>2023-08-06T07:47:15.000Z</time>
</trkpt>
<trkpt lat="46.0453740" lon="10.4871140">
	<ele>2277.20</ele>
	<time>2023-08-06T07:47:16.000Z</time>
</trkpt>
<trkpt lat="46.0453830" lon="10.4871180">
	<ele>2277.00</ele>
	<time>2023-08-06T07:47:17.000Z</time>
</trkpt>
<trkpt lat="46.0453910" lon="10.4871230">
	<ele>2277.00</ele>
	<time>2023-08-06T07:47:18.000Z</time>
</trkpt>
<trkpt lat="46.0453970" lon="10.4871320">
	<ele>2277.00</ele>
	<time>2023-08-06T07:47:19.000Z</time>
</trkpt>
<trkpt lat="46.0454030" lon="10.4871410">
	<ele>2277.00</ele>
	<time>2023-08-06T07:47:20.000Z</time>
</trkpt>
<trkpt lat="46.0454060" lon="10.4871420">
	<ele>2277.00</ele>
	<time>2023-08-06T07:47:21.000Z</time>
</trkpt>
<trkpt lat="46.0454100" lon="10.4871350">
	<ele>2276.80</ele>
	<time>2023-08-06T07:47:22.000Z</time>
</trkpt>
<trkpt lat="46.0454120" lon="10.4871350">
	<ele>2276.60</ele>
	<time>2023-08-06T07:47:23.000Z</time>
</trkpt>
<trkpt lat="46.0454140" lon="10.4871320">
	<ele>2276.60</ele>
	<time>2023-08-06T07:47:24.000Z</time>
</trkpt>
<trkpt lat="46.0454160" lon="10.4871270">
	<ele>2276.60</ele>
	<time>2023-08-06T07:47:25.000Z</time>
</trkpt>
<trkpt lat="46.0454190" lon="10.4871240">
	<ele>2276.40</ele>
	<time>2023-08-06T07:47:26.000Z</time>
</trkpt>
<trkpt lat="46.0454190" lon="10.4871240">
	<ele>2276.40</ele>
	<time>2023-08-06T07:47:27.000Z</time>
</trkpt>
<trkpt lat="46.0454180" lon="10.4871210">
	<ele>2276.40</ele>
	<time>2023-08-06T07:47:28.000Z</time>
</trkpt>
<trkpt lat="46.0454170" lon="10.4871220">
	<ele>2276.20</ele>
	<time>2023-08-06T07:47:29.000Z</time>
</trkpt>
<trkpt lat="46.0454180" lon="10.4871200">
	<ele>2276.40</ele>
	<time>2023-08-06T07:47:30.000Z</time>
</trkpt>
<trkpt lat="46.0454180" lon="10.4871200">
	<ele>2276.40</ele>
	<time>2023-08-06T07:47:31.000Z</time>
</trkpt>
<trkpt lat="46.0454180" lon="10.4871200">
	<ele>2276.40</ele>
	<time>2023-08-06T07:47:32.000Z</time>
</trkpt>
<trkpt lat="46.0454180" lon="10.4871200">
	<ele>2276.60</ele>
	<time>2023-08-06T07:47:33.000Z</time>
</trkpt>
<trkpt lat="46.0454180" lon="10.4871200">
	<ele>2276.60</ele>
	<time>2023-08-06T07:47:34.000Z</time>
</trkpt>
<trkpt lat="46.0454180" lon="10.4871200">
	<ele>2276.60</ele>
	<time>2023-08-06T07:47:35.000Z</time>
</trkpt>
<trkpt lat="46.0454180" lon="10.4871200">
	<ele>2276.80</ele>
	<time>2023-08-06T07:47:36.000Z</time>
</trkpt>
<trkpt lat="46.0454180" lon="10.4871200">
	<ele>2276.80</ele>
	<time>2023-08-06T07:47:37.000Z</time>
</trkpt>
<trkpt lat="46.0454180" lon="10.4871200">
	<ele>2276.80</ele>
	<time>2023-08-06T07:47:38.000Z</time>
</trkpt>
<trkpt lat="46.0454180" lon="10.4871200">
	<ele>2276.80</ele>
	<time>2023-08-06T07:47:39.000Z</time>
</trkpt>
<trkpt lat="46.0454180" lon="10.4871200">
	<ele>2276.60</ele>
	<time>2023-08-06T07:47:40.000Z</time>
</trkpt>
<trkpt lat="46.0454180" lon="10.4871200">
	<ele>2276.60</ele>
	<time>2023-08-06T07:47:41.000Z</time>
</trkpt>
<trkpt lat="46.0454180" lon="10.4871200">
	<ele>2276.60</ele>
	<time>2023-08-06T07:47:42.000Z</time>
</trkpt>
<trkpt lat="46.0454180" lon="10.4871200">
	<ele>2276.40</ele>
	<time>2023-08-06T07:47:43.000Z</time>
</trkpt>
<trkpt lat="46.0454180" lon="10.4871200">
	<ele>2276.00</ele>
	<time>2023-08-06T07:47:44.000Z</time>
</trkpt>
<trkpt lat="46.0454180" lon="10.4871200">
	<ele>2276.00</ele>
	<time>2023-08-06T07:47:45.000Z</time>
</trkpt>
<trkpt lat="46.0454180" lon="10.4871210">
	<ele>2275.80</ele>
	<time>2023-08-06T07:47:46.000Z</time>
</trkpt>
<trkpt lat="46.0454180" lon="10.4871220">
	<ele>2275.80</ele>
	<time>2023-08-06T07:47:47.000Z</time>
</trkpt>
<trkpt lat="46.0454180" lon="10.4871220">
	<ele>2275.80</ele>
	<time>2023-08-06T07:47:48.000Z</time>
</trkpt>
<trkpt lat="46.0454170" lon="10.4871240">
	<ele>2275.80</ele>
	<time>2023-08-06T07:47:49.000Z</time>
</trkpt>
<trkpt lat="46.0454170" lon="10.4871240">
	<ele>2275.80</ele>
	<time>2023-08-06T07:47:50.000Z</time>
</trkpt>
<trkpt lat="46.0454170" lon="10.4871240">
	<ele>2275.80</ele>
	<time>2023-08-06T07:47:51.000Z</time>
</trkpt>
<trkpt lat="46.0454170" lon="10.4871260">
	<ele>2275.80</ele>
	<time>2023-08-06T07:47:52.000Z</time>
</trkpt>
<trkpt lat="46.0454160" lon="10.4871260">
	<ele>2275.80</ele>
	<time>2023-08-06T07:47:53.000Z</time>
</trkpt>
<trkpt lat="46.0454160" lon="10.4871260">
	<ele>2275.80</ele>
	<time>2023-08-06T07:47:54.000Z</time>
</trkpt>
<trkpt lat="46.0454160" lon="10.4871260">
	<ele>2276.00</ele>
	<time>2023-08-06T07:47:55.000Z</time>
</trkpt>
<trkpt lat="46.0454160" lon="10.4871290">
	<ele>2276.20</ele>
	<time>2023-08-06T07:47:56.000Z</time>
</trkpt>
<trkpt lat="46.0454160" lon="10.4871300">
	<ele>2276.20</ele>
	<time>2023-08-06T07:47:57.000Z</time>
</trkpt>
<trkpt lat="46.0454150" lon="10.4871310">
	<ele>2276.20</ele>
	<time>2023-08-06T07:47:58.000Z</time>
</trkpt>
<trkpt lat="46.0454120" lon="10.4871310">
	<ele>2276.20</ele>
	<time>2023-08-06T07:47:59.000Z</time>
</trkpt>
<trkpt lat="46.0454100" lon="10.4871310">
	<ele>2276.20</ele>
	<time>2023-08-06T07:48:00.000Z</time>
</trkpt>
<trkpt lat="46.0454100" lon="10.4871310">
	<ele>2276.40</ele>
	<time>2023-08-06T07:48:01.000Z</time>
</trkpt>
<trkpt lat="46.0454090" lon="10.4871310">
	<ele>2276.40</ele>
	<time>2023-08-06T07:48:02.000Z</time>
</trkpt>
<trkpt lat="46.0454090" lon="10.4871320">
	<ele>2276.40</ele>
	<time>2023-08-06T07:48:03.000Z</time>
</trkpt>
<trkpt lat="46.0454080" lon="10.4871320">
	<ele>2276.40</ele>
	<time>2023-08-06T07:48:04.000Z</time>
</trkpt>
<trkpt lat="46.0454080" lon="10.4871320">
	<ele>2276.40</ele>
	<time>2023-08-06T07:48:05.000Z</time>
</trkpt>
<trkpt lat="46.0454070" lon="10.4871320">
	<ele>2276.40</ele>
	<time>2023-08-06T07:48:06.000Z</time>
</trkpt>
<trkpt lat="46.0454050" lon="10.4871330">
	<ele>2276.40</ele>
	<time>2023-08-06T07:48:07.000Z</time>
</trkpt>
<trkpt lat="46.0454030" lon="10.4871380">
	<ele>2276.40</ele>
	<time>2023-08-06T07:48:08.000Z</time>
</trkpt>
<trkpt lat="46.0454030" lon="10.4871400">
	<ele>2276.40</ele>
	<time>2023-08-06T07:48:09.000Z</time>
</trkpt>
<trkpt lat="46.0454020" lon="10.4871420">
	<ele>2276.40</ele>
	<time>2023-08-06T07:48:10.000Z</time>
</trkpt>
<trkpt lat="46.0454020" lon="10.4871420">
	<ele>2276.40</ele>
	<time>2023-08-06T07:48:11.000Z</time>
</trkpt>
<trkpt lat="46.0454020" lon="10.4871430">
	<ele>2276.40</ele>
	<time>2023-08-06T07:48:12.000Z</time>
</trkpt>
<trkpt lat="46.0454010" lon="10.4871430">
	<ele>2276.40</ele>
	<time>2023-08-06T07:48:13.000Z</time>
</trkpt>
<trkpt lat="46.0454010" lon="10.4871440">
	<ele>2276.40</ele>
	<time>2023-08-06T07:48:14.000Z</time>
</trkpt>
<trkpt lat="46.0454010" lon="10.4871440">
	<ele>2276.40</ele>
	<time>2023-08-06T07:48:15.000Z</time>
</trkpt>
<trkpt lat="46.0454000" lon="10.4871460">
	<ele>2276.40</ele>
	<time>2023-08-06T07:48:16.000Z</time>
</trkpt>
<trkpt lat="46.0454000" lon="10.4871480">
	<ele>2276.40</ele>
	<time>2023-08-06T07:48:17.000Z</time>
</trkpt>
<trkpt lat="46.0454000" lon="10.4871490">
	<ele>2276.40</ele>
	<time>2023-08-06T07:48:18.000Z</time>
</trkpt>
<trkpt lat="46.0454000" lon="10.4871520">
	<ele>2276.40</ele>
	<time>2023-08-06T07:48:19.000Z</time>
</trkpt>
<trkpt lat="46.0453990" lon="10.4871540">
	<ele>2276.20</ele>
	<time>2023-08-06T07:48:20.000Z</time>
</trkpt>
<trkpt lat="46.0453980" lon="10.4871550">
	<ele>2276.20</ele>
	<time>2023-08-06T07:48:21.000Z</time>
</trkpt>
<trkpt lat="46.0453980" lon="10.4871550">
	<ele>2276.20</ele>
	<time>2023-08-06T07:48:22.000Z</time>
</trkpt>
<trkpt lat="46.0453980" lon="10.4871550">
	<ele>2276.00</ele>
	<time>2023-08-06T07:48:23.000Z</time>
</trkpt>
<trkpt lat="46.0453980" lon="10.4871560">
	<ele>2276.00</ele>
	<time>2023-08-06T07:48:24.000Z</time>
</trkpt>
<trkpt lat="46.0453980" lon="10.4871560">
	<ele>2276.00</ele>
	<time>2023-08-06T07:48:25.000Z</time>
</trkpt>
<trkpt lat="46.0453980" lon="10.4871560">
	<ele>2276.00</ele>
	<time>2023-08-06T07:48:26.000Z</time>
</trkpt>
<trkpt lat="46.0453970" lon="10.4871560">
	<ele>2276.00</ele>
	<time>2023-08-06T07:48:27.000Z</time>
</trkpt>
<trkpt lat="46.0453970" lon="10.4871560">
	<ele>2276.00</ele>
	<time>2023-08-06T07:48:28.000Z</time>
</trkpt>
<trkpt lat="46.0453970" lon="10.4871560">
	<ele>2276.00</ele>
	<time>2023-08-06T07:48:29.000Z</time>
</trkpt>
<trkpt lat="46.0453970" lon="10.4871560">
	<ele>2276.00</ele>
	<time>2023-08-06T07:48:30.000Z</time>
</trkpt>
<trkpt lat="46.0453970" lon="10.4871560">
	<ele>2276.00</ele>
	<time>2023-08-06T07:48:31.000Z</time>
</trkpt>
<trkpt lat="46.0453970" lon="10.4871560">
	<ele>2275.80</ele>
	<time>2023-08-06T07:48:32.000Z</time>
</trkpt>
<trkpt lat="46.0453970" lon="10.4871560">
	<ele>2275.80</ele>
	<time>2023-08-06T07:48:33.000Z</time>
</trkpt>
<trkpt lat="46.0453980" lon="10.4871560">
	<ele>2275.80</ele>
	<time>2023-08-06T07:48:34.000Z</time>
</trkpt>
<trkpt lat="46.0453980" lon="10.4871560">
	<ele>2275.80</ele>
	<time>2023-08-06T07:48:35.000Z</time>
</trkpt>
<trkpt lat="46.0453980" lon="10.4871560">
	<ele>2275.80</ele>
	<time>2023-08-06T07:48:36.000Z</time>
</trkpt>
<trkpt lat="46.0453980" lon="10.4871550">
	<ele>2275.60</ele>
	<time>2023-08-06T07:48:37.000Z</time>
</trkpt>
<trkpt lat="46.0453980" lon="10.4871550">
	<ele>2275.40</ele>
	<time>2023-08-06T07:48:38.000Z</time>
</trkpt>
<trkpt lat="46.0453980" lon="10.4871550">
	<ele>2275.40</ele>
	<time>2023-08-06T07:48:39.000Z</time>
</trkpt>
<trkpt lat="46.0453980" lon="10.4871550">
	<ele>2275.40</ele>
	<time>2023-08-06T07:48:40.000Z</time>
</trkpt>
<trkpt lat="46.0453990" lon="10.4871540">
	<ele>2275.40</ele>
	<time>2023-08-06T07:48:41.000Z</time>
</trkpt>
<trkpt lat="46.0453990" lon="10.4871540">
	<ele>2275.60</ele>
	<time>2023-08-06T07:48:42.000Z</time>
</trkpt>
<trkpt lat="46.0453990" lon="10.4871530">
	<ele>2275.60</ele>
	<time>2023-08-06T07:48:43.000Z</time>
</trkpt>
<trkpt lat="46.0453990" lon="10.4871530">
	<ele>2275.60</ele>
	<time>2023-08-06T07:48:44.000Z</time>
</trkpt>
<trkpt lat="46.0453990" lon="10.4871530">
	<ele>2275.60</ele>
	<time>2023-08-06T07:48:45.000Z</time>
</trkpt>
<trkpt lat="46.0454000" lon="10.4871530">
	<ele>2275.60</ele>
	<time>2023-08-06T07:48:46.000Z</time>
</trkpt>
<trkpt lat="46.0454000" lon="10.4871520">
	<ele>2275.60</ele>
	<time>2023-08-06T07:48:47.000Z</time>
</trkpt>
<trkpt lat="46.0454000" lon="10.4871520">
	<ele>2275.60</ele>
	<time>2023-08-06T07:48:48.000Z</time>
</trkpt>
<trkpt lat="46.0454040" lon="10.4871520">
	<ele>2275.60</ele>
	<time>2023-08-06T07:48:49.000Z</time>
</trkpt>
<trkpt lat="46.0454070" lon="10.4871520">
	<ele>2275.60</ele>
	<time>2023-08-06T07:48:50.000Z</time>
</trkpt>
<trkpt lat="46.0454150" lon="10.4871590">
	<ele>2275.60</ele>
	<time>2023-08-06T07:48:51.000Z</time>
</trkpt>
<trkpt lat="46.0454270" lon="10.4871740">
	<ele>2275.60</ele>
	<time>2023-08-06T07:48:52.000Z</time>
</trkpt>
<trkpt lat="46.0454380" lon="10.4871860">
	<ele>2275.60</ele>
	<time>2023-08-06T07:48:53.000Z</time>
</trkpt>
<trkpt lat="46.0454500" lon="10.4871980">
	<ele>2275.60</ele>
	<time>2023-08-06T07:48:54.000Z</time>
</trkpt>
<trkpt lat="46.0454640" lon="10.4872120">
	<ele>2275.60</ele>
	<time>2023-08-06T07:48:55.000Z</time>
</trkpt>
<trkpt lat="46.0454780" lon="10.4872190">
	<ele>2275.60</ele>
	<time>2023-08-06T07:48:56.000Z</time>
</trkpt>
<trkpt lat="46.0454950" lon="10.4872270">
	<ele>2275.60</ele>
	<time>2023-08-06T07:48:57.000Z</time>
</trkpt>
<trkpt lat="46.0455090" lon="10.4872400">
	<ele>2275.60</ele>
	<time>2023-08-06T07:48:58.000Z</time>
</trkpt>
<trkpt lat="46.0455280" lon="10.4872440">
	<ele>2275.60</ele>
	<time>2023-08-06T07:48:59.000Z</time>
</trkpt>
<trkpt lat="46.0455470" lon="10.4872510">
	<ele>2275.60</ele>
	<time>2023-08-06T07:49:00.000Z</time>
</trkpt>
<trkpt lat="46.0455540" lon="10.4872520">
	<ele>2275.60</ele>
	<time>2023-08-06T07:49:01.000Z</time>
</trkpt>
<trkpt lat="46.0455600" lon="10.4872480">
	<ele>2275.60</ele>
	<time>2023-08-06T07:49:02.000Z</time>
</trkpt>
<trkpt lat="46.0455670" lon="10.4872460">
	<ele>2275.60</ele>
	<time>2023-08-06T07:49:03.000Z</time>
</trkpt>
<trkpt lat="46.0455720" lon="10.4872500">
	<ele>2275.60</ele>
	<time>2023-08-06T07:49:04.000Z</time>
</trkpt>
<trkpt lat="46.0455740" lon="10.4872540">
	<ele>2275.60</ele>
	<time>2023-08-06T07:49:05.000Z</time>
</trkpt>
<trkpt lat="46.0455810" lon="10.4872500">
	<ele>2275.60</ele>
	<time>2023-08-06T07:49:06.000Z</time>
</trkpt>
<trkpt lat="46.0455880" lon="10.4872510">
	<ele>2275.60</ele>
	<time>2023-08-06T07:49:07.000Z</time>
</trkpt>
<trkpt lat="46.0455950" lon="10.4872590">
	<ele>2275.60</ele>
	<time>2023-08-06T07:49:08.000Z</time>
</trkpt>
<trkpt lat="46.0456000" lon="10.4872640">
	<ele>2275.60</ele>
	<time>2023-08-06T07:49:09.000Z</time>
</trkpt>
<trkpt lat="46.0456030" lon="10.4872730">
	<ele>2275.60</ele>
	<time>2023-08-06T07:49:10.000Z</time>
</trkpt>
<trkpt lat="46.0456060" lon="10.4872870">
	<ele>2275.60</ele>
	<time>2023-08-06T07:49:11.000Z</time>
</trkpt>
<trkpt lat="46.0456100" lon="10.4872960">
	<ele>2275.60</ele>
	<time>2023-08-06T07:49:12.000Z</time>
</trkpt>
<trkpt lat="46.0456190" lon="10.4872960">
	<ele>2275.60</ele>
	<time>2023-08-06T07:49:13.000Z</time>
</trkpt>
<trkpt lat="46.0456330" lon="10.4872940">
	<ele>2275.60</ele>
	<time>2023-08-06T07:49:14.000Z</time>
</trkpt>
<trkpt lat="46.0456390" lon="10.4872950">
	<ele>2275.60</ele>
	<time>2023-08-06T07:49:15.000Z</time>
</trkpt>
<trkpt lat="46.0456450" lon="10.4872970">
	<ele>2275.60</ele>
	<time>2023-08-06T07:49:16.000Z</time>
</trkpt>
<trkpt lat="46.0456510" lon="10.4873030">
	<ele>2275.60</ele>
	<time>2023-08-06T07:49:17.000Z</time>
</trkpt>
<trkpt lat="46.0456630" lon="10.4873120">
	<ele>2275.60</ele>
	<time>2023-08-06T07:49:18.000Z</time>
</trkpt>
<trkpt lat="46.0456720" lon="10.4873140">
	<ele>2275.60</ele>
	<time>2023-08-06T07:49:19.000Z</time>
</trkpt>
<trkpt lat="46.0456800" lon="10.4873130">
	<ele>2275.60</ele>
	<time>2023-08-06T07:49:20.000Z</time>
</trkpt>
<trkpt lat="46.0456850" lon="10.4873160">
	<ele>2275.60</ele>
	<time>2023-08-06T07:49:21.000Z</time>
</trkpt>
<trkpt lat="46.0456880" lon="10.4873170">
	<ele>2275.60</ele>
	<time>2023-08-06T07:49:22.000Z</time>
</trkpt>
<trkpt lat="46.0456920" lon="10.4873170">
	<ele>2275.60</ele>
	<time>2023-08-06T07:49:23.000Z</time>
</trkpt>
<trkpt lat="46.0456960" lon="10.4873170">
	<ele>2275.60</ele>
	<time>2023-08-06T07:49:24.000Z</time>
</trkpt>
<trkpt lat="46.0457020" lon="10.4873210">
	<ele>2275.60</ele>
	<time>2023-08-06T07:49:25.000Z</time>
</trkpt>
<trkpt lat="46.0457070" lon="10.4873300">
	<ele>2275.60</ele>
	<time>2023-08-06T07:49:26.000Z</time>
</trkpt>
<trkpt lat="46.0457100" lon="10.4873400">
	<ele>2275.60</ele>
	<time>2023-08-06T07:49:27.000Z</time>
</trkpt>
<trkpt lat="46.0457140" lon="10.4873460">
	<ele>2275.60</ele>
	<time>2023-08-06T07:49:28.000Z</time>
</trkpt>
<trkpt lat="46.0457160" lon="10.4873530">
	<ele>2275.60</ele>
	<time>2023-08-06T07:49:29.000Z</time>
</trkpt>
<trkpt lat="46.0457240" lon="10.4873570">
	<ele>2275.60</ele>
	<time>2023-08-06T07:49:30.000Z</time>
</trkpt>
<trkpt lat="46.0457300" lon="10.4873650">
	<ele>2275.60</ele>
	<time>2023-08-06T07:49:31.000Z</time>
</trkpt>
<trkpt lat="46.0457350" lon="10.4873780">
	<ele>2275.60</ele>
	<time>2023-08-06T07:49:32.000Z</time>
</trkpt>
<trkpt lat="46.0457400" lon="10.4873900">
	<ele>2275.60</ele>
	<time>2023-08-06T07:49:33.000Z</time>
</trkpt>
<trkpt lat="46.0457460" lon="10.4873990">
	<ele>2275.60</ele>
	<time>2023-08-06T07:49:34.000Z</time>
</trkpt>
<trkpt lat="46.0457540" lon="10.4874070">
	<ele>2275.60</ele>
	<time>2023-08-06T07:49:35.000Z</time>
</trkpt>
<trkpt lat="46.0457610" lon="10.4874100">
	<ele>2275.60</ele>
	<time>2023-08-06T07:49:36.000Z</time>
</trkpt>
<trkpt lat="46.0457650" lon="10.4874150">
	<ele>2275.60</ele>
	<time>2023-08-06T07:49:37.000Z</time>
</trkpt>
<trkpt lat="46.0457710" lon="10.4874180">
	<ele>2275.60</ele>
	<time>2023-08-06T07:49:38.000Z</time>
</trkpt>
<trkpt lat="46.0457810" lon="10.4874180">
	<ele>2275.60</ele>
	<time>2023-08-06T07:49:39.000Z</time>
</trkpt>
<trkpt lat="46.0457880" lon="10.4874180">
	<ele>2275.60</ele>
	<time>2023-08-06T07:49:40.000Z</time>
</trkpt>
<trkpt lat="46.0457980" lon="10.4874220">
	<ele>2275.60</ele>
	<time>2023-08-06T07:49:41.000Z</time>
</trkpt>
<trkpt lat="46.0458070" lon="10.4874340">
	<ele>2275.60</ele>
	<time>2023-08-06T07:49:42.000Z</time>
</trkpt>
<trkpt lat="46.0458160" lon="10.4874370">
	<ele>2269.40</ele>
	<time>2023-08-06T07:49:43.000Z</time>
</trkpt>
<trkpt lat="46.0458260" lon="10.4874350">
	<ele>2269.40</ele>
	<time>2023-08-06T07:49:44.000Z</time>
</trkpt>
<trkpt lat="46.0458310" lon="10.4874430">
	<ele>2269.40</ele>
	<time>2023-08-06T07:49:45.000Z</time>
</trkpt>
<trkpt lat="46.0458350" lon="10.4874460">
	<ele>2269.40</ele>
	<time>2023-08-06T07:49:46.000Z</time>
</trkpt>
<trkpt lat="46.0458420" lon="10.4874500">
	<ele>2269.40</ele>
	<time>2023-08-06T07:49:47.000Z</time>
</trkpt>
<trkpt lat="46.0458470" lon="10.4874590">
	<ele>2269.20</ele>
	<time>2023-08-06T07:49:48.000Z</time>
</trkpt>
<trkpt lat="46.0458560" lon="10.4874660">
	<ele>2269.00</ele>
	<time>2023-08-06T07:49:49.000Z</time>
</trkpt>
<trkpt lat="46.0458660" lon="10.4874700">
	<ele>2269.00</ele>
	<time>2023-08-06T07:49:50.000Z</time>
</trkpt>
<trkpt lat="46.0458760" lon="10.4874750">
	<ele>2268.60</ele>
	<time>2023-08-06T07:49:51.000Z</time>
</trkpt>
<trkpt lat="46.0458840" lon="10.4874850">
	<ele>2268.60</ele>
	<time>2023-08-06T07:49:52.000Z</time>
</trkpt>
<trkpt lat="46.0458910" lon="10.4874940">
	<ele>2268.40</ele>
	<time>2023-08-06T07:49:53.000Z</time>
</trkpt>
<trkpt lat="46.0458970" lon="10.4874990">
	<ele>2268.40</ele>
	<time>2023-08-06T07:49:54.000Z</time>
</trkpt>
<trkpt lat="46.0459070" lon="10.4875050">
	<ele>2268.40</ele>
	<time>2023-08-06T07:49:55.000Z</time>
</trkpt>
<trkpt lat="46.0459130" lon="10.4875100">
	<ele>2268.40</ele>
	<time>2023-08-06T07:49:56.000Z</time>
</trkpt>
<trkpt lat="46.0459210" lon="10.4875130">
	<ele>2268.40</ele>
	<time>2023-08-06T07:49:57.000Z</time>
</trkpt>
<trkpt lat="46.0459310" lon="10.4875150">
	<ele>2268.60</ele>
	<time>2023-08-06T07:49:58.000Z</time>
</trkpt>
<trkpt lat="46.0459390" lon="10.4875180">
	<ele>2268.60</ele>
	<time>2023-08-06T07:49:59.000Z</time>
</trkpt>
<trkpt lat="46.0459520" lon="10.4875230">
	<ele>2268.60</ele>
	<time>2023-08-06T07:50:00.000Z</time>
</trkpt>
<trkpt lat="46.0459610" lon="10.4875250">
	<ele>2268.60</ele>
	<time>2023-08-06T07:50:01.000Z</time>
</trkpt>
<trkpt lat="46.0459680" lon="10.4875250">
	<ele>2268.60</ele>
	<time>2023-08-06T07:50:02.000Z</time>
</trkpt>
<trkpt lat="46.0459740" lon="10.4875270">
	<ele>2268.80</ele>
	<time>2023-08-06T07:50:03.000Z</time>
</trkpt>
<trkpt lat="46.0459830" lon="10.4875370">
	<ele>2268.80</ele>
	<time>2023-08-06T07:50:04.000Z</time>
</trkpt>
<trkpt lat="46.0459910" lon="10.4875400">
	<ele>2268.80</ele>
	<time>2023-08-06T07:50:05.000Z</time>
</trkpt>
<trkpt lat="46.0459950" lon="10.4875440">
	<ele>2268.80</ele>
	<time>2023-08-06T07:50:06.000Z</time>
</trkpt>
<trkpt lat="46.0459980" lon="10.4875480">
	<ele>2268.80</ele>
	<time>2023-08-06T07:50:07.000Z</time>
</trkpt>
<trkpt lat="46.0460050" lon="10.4875520">
	<ele>2268.80</ele>
	<time>2023-08-06T07:50:08.000Z</time>
</trkpt>
<trkpt lat="46.0460130" lon="10.4875580">
	<ele>2268.80</ele>
	<time>2023-08-06T07:50:09.000Z</time>
</trkpt>
<trkpt lat="46.0460200" lon="10.4875610">
	<ele>2268.60</ele>
	<time>2023-08-06T07:50:10.000Z</time>
</trkpt>
<trkpt lat="46.0460260" lon="10.4875660">
	<ele>2268.60</ele>
	<time>2023-08-06T07:50:11.000Z</time>
</trkpt>
<trkpt lat="46.0460310" lon="10.4875710">
	<ele>2268.40</ele>
	<time>2023-08-06T07:50:12.000Z</time>
</trkpt>
<trkpt lat="46.0460390" lon="10.4875720">
	<ele>2268.40</ele>
	<time>2023-08-06T07:50:13.000Z</time>
</trkpt>
<trkpt lat="46.0460490" lon="10.4875760">
	<ele>2268.40</ele>
	<time>2023-08-06T07:50:14.000Z</time>
</trkpt>
<trkpt lat="46.0460650" lon="10.4875770">
	<ele>2268.40</ele>
	<time>2023-08-06T07:50:15.000Z</time>
</trkpt>
<trkpt lat="46.0460780" lon="10.4875820">
	<ele>2268.40</ele>
	<time>2023-08-06T07:50:16.000Z</time>
</trkpt>
<trkpt lat="46.0460880" lon="10.4875910">
	<ele>2268.20</ele>
	<time>2023-08-06T07:50:17.000Z</time>
</trkpt>
<trkpt lat="46.0460990" lon="10.4876030">
	<ele>2268.20</ele>
	<time>2023-08-06T07:50:18.000Z</time>
</trkpt>
<trkpt lat="46.0461060" lon="10.4876140">
	<ele>2268.20</ele>
	<time>2023-08-06T07:50:19.000Z</time>
</trkpt>
<trkpt lat="46.0461140" lon="10.4876180">
	<ele>2268.20</ele>
	<time>2023-08-06T07:50:20.000Z</time>
</trkpt>
<trkpt lat="46.0461220" lon="10.4876200">
	<ele>2268.00</ele>
	<time>2023-08-06T07:50:21.000Z</time>
</trkpt>
<trkpt lat="46.0461290" lon="10.4876240">
	<ele>2267.80</ele>
	<time>2023-08-06T07:50:22.000Z</time>
</trkpt>
<trkpt lat="46.0461320" lon="10.4876300">
	<ele>2267.80</ele>
	<time>2023-08-06T07:50:23.000Z</time>
</trkpt>
<trkpt lat="46.0461370" lon="10.4876360">
	<ele>2267.60</ele>
	<time>2023-08-06T07:50:24.000Z</time>
</trkpt>
<trkpt lat="46.0461390" lon="10.4876450">
	<ele>2267.60</ele>
	<time>2023-08-06T07:50:25.000Z</time>
</trkpt>
<trkpt lat="46.0461390" lon="10.4876530">
	<ele>2267.60</ele>
	<time>2023-08-06T07:50:26.000Z</time>
</trkpt>
<trkpt lat="46.0461420" lon="10.4876580">
	<ele>2267.40</ele>
	<time>2023-08-06T07:50:27.000Z</time>
</trkpt>
<trkpt lat="46.0461450" lon="10.4876630">
	<ele>2267.20</ele>
	<time>2023-08-06T07:50:28.000Z</time>
</trkpt>
<trkpt lat="46.0461470" lon="10.4876730">
	<ele>2267.00</ele>
	<time>2023-08-06T07:50:29.000Z</time>
</trkpt>
<trkpt lat="46.0461510" lon="10.4876780">
	<ele>2266.80</ele>
	<time>2023-08-06T07:50:30.000Z</time>
</trkpt>
<trkpt lat="46.0461550" lon="10.4876830">
	<ele>2266.80</ele>
	<time>2023-08-06T07:50:31.000Z</time>
</trkpt>
<trkpt lat="46.0461590" lon="10.4876910">
	<ele>2266.60</ele>
	<time>2023-08-06T07:50:32.000Z</time>
</trkpt>
<trkpt lat="46.0461620" lon="10.4876990">
	<ele>2266.20</ele>
	<time>2023-08-06T07:50:33.000Z</time>
</trkpt>
<trkpt lat="46.0461640" lon="10.4877050">
	<ele>2266.20</ele>
	<time>2023-08-06T07:50:34.000Z</time>
</trkpt>
<trkpt lat="46.0461670" lon="10.4877110">
	<ele>2266.00</ele>
	<time>2023-08-06T07:50:35.000Z</time>
</trkpt>
<trkpt lat="46.0461690" lon="10.4877140">
	<ele>2266.00</ele>
	<time>2023-08-06T07:50:36.000Z</time>
</trkpt>
<trkpt lat="46.0461760" lon="10.4877180">
	<ele>2265.80</ele>
	<time>2023-08-06T07:50:37.000Z</time>
</trkpt>
<trkpt lat="46.0461840" lon="10.4877250">
	<ele>2265.60</ele>
	<time>2023-08-06T07:50:38.000Z</time>
</trkpt>
<trkpt lat="46.0461890" lon="10.4877280">
	<ele>2265.40</ele>
	<time>2023-08-06T07:50:39.000Z</time>
</trkpt>
<trkpt lat="46.0461950" lon="10.4877290">
	<ele>2265.40</ele>
	<time>2023-08-06T07:50:40.000Z</time>
</trkpt>
<trkpt lat="46.0461970" lon="10.4877320">
	<ele>2265.20</ele>
	<time>2023-08-06T07:50:41.000Z</time>
</trkpt>
<trkpt lat="46.0462060" lon="10.4877380">
	<ele>2265.20</ele>
	<time>2023-08-06T07:50:42.000Z</time>
</trkpt>
<trkpt lat="46.0462160" lon="10.4877420">
	<ele>2265.00</ele>
	<time>2023-08-06T07:50:43.000Z</time>
</trkpt>
<trkpt lat="46.0462280" lon="10.4877430">
	<ele>2264.80</ele>
	<time>2023-08-06T07:50:44.000Z</time>
</trkpt>
<trkpt lat="46.0462390" lon="10.4877440">
	<ele>2264.80</ele>
	<time>2023-08-06T07:50:45.000Z</time>
</trkpt>
<trkpt lat="46.0462500" lon="10.4877450">
	<ele>2264.60</ele>
	<time>2023-08-06T07:50:46.000Z</time>
</trkpt>
<trkpt lat="46.0462630" lon="10.4877470">
	<ele>2264.60</ele>
	<time>2023-08-06T07:50:47.000Z</time>
</trkpt>
<trkpt lat="46.0462750" lon="10.4877440">
	<ele>2264.40</ele>
	<time>2023-08-06T07:50:48.000Z</time>
</trkpt>
<trkpt lat="46.0462850" lon="10.4877460">
	<ele>2264.40</ele>
	<time>2023-08-06T07:50:49.000Z</time>
</trkpt>
<trkpt lat="46.0462900" lon="10.4877590">
	<ele>2264.20</ele>
	<time>2023-08-06T07:50:50.000Z</time>
</trkpt>
<trkpt lat="46.0462990" lon="10.4877690">
	<ele>2264.00</ele>
	<time>2023-08-06T07:50:51.000Z</time>
</trkpt>
<trkpt lat="46.0463050" lon="10.4877780">
	<ele>2264.00</ele>
	<time>2023-08-06T07:50:52.000Z</time>
</trkpt>
<trkpt lat="46.0463130" lon="10.4877840">
	<ele>2263.80</ele>
	<time>2023-08-06T07:50:53.000Z</time>
</trkpt>
<trkpt lat="46.0463160" lon="10.4877920">
	<ele>2263.80</ele>
	<time>2023-08-06T07:50:54.000Z</time>
</trkpt>
<trkpt lat="46.0463200" lon="10.4877960">
	<ele>2263.60</ele>
	<time>2023-08-06T07:50:55.000Z</time>
</trkpt>
<trkpt lat="46.0463240" lon="10.4878020">
	<ele>2263.40</ele>
	<time>2023-08-06T07:50:56.000Z</time>
</trkpt>
<trkpt lat="46.0463250" lon="10.4878060">
	<ele>2263.40</ele>
	<time>2023-08-06T07:50:57.000Z</time>
</trkpt>
<trkpt lat="46.0463280" lon="10.4878090">
	<ele>2263.00</ele>
	<time>2023-08-06T07:50:58.000Z</time>
</trkpt>
<trkpt lat="46.0463300" lon="10.4878150">
	<ele>2262.80</ele>
	<time>2023-08-06T07:50:59.000Z</time>
</trkpt>
<trkpt lat="46.0463290" lon="10.4878240">
	<ele>2262.60</ele>
	<time>2023-08-06T07:51:00.000Z</time>
</trkpt>
<trkpt lat="46.0463280" lon="10.4878290">
	<ele>2262.40</ele>
	<time>2023-08-06T07:51:01.000Z</time>
</trkpt>
<trkpt lat="46.0463270" lon="10.4878370">
	<ele>2262.20</ele>
	<time>2023-08-06T07:51:02.000Z</time>
</trkpt>
<trkpt lat="46.0463270" lon="10.4878410">
	<ele>2262.00</ele>
	<time>2023-08-06T07:51:03.000Z</time>
</trkpt>
<trkpt lat="46.0463290" lon="10.4878420">
	<ele>2262.00</ele>
	<time>2023-08-06T07:51:04.000Z</time>
</trkpt>
<trkpt lat="46.0463360" lon="10.4878480">
	<ele>2261.60</ele>
	<time>2023-08-06T07:51:05.000Z</time>
</trkpt>
<trkpt lat="46.0463390" lon="10.4878530">
	<ele>2261.40</ele>
	<time>2023-08-06T07:51:06.000Z</time>
</trkpt>
<trkpt lat="46.0463440" lon="10.4878610">
	<ele>2261.20</ele>
	<time>2023-08-06T07:51:07.000Z</time>
</trkpt>
<trkpt lat="46.0463470" lon="10.4878670">
	<ele>2261.20</ele>
	<time>2023-08-06T07:51:08.000Z</time>
</trkpt>
<trkpt lat="46.0463530" lon="10.4878720">
	<ele>2261.00</ele>
	<time>2023-08-06T07:51:09.000Z</time>
</trkpt>
<trkpt lat="46.0463590" lon="10.4878740">
	<ele>2260.80</ele>
	<time>2023-08-06T07:51:10.000Z</time>
</trkpt>
<trkpt lat="46.0463640" lon="10.4878770">
	<ele>2260.60</ele>
	<time>2023-08-06T07:51:11.000Z</time>
</trkpt>
<trkpt lat="46.0463710" lon="10.4878830">
	<ele>2260.20</ele>
	<time>2023-08-06T07:51:12.000Z</time>
</trkpt>
<trkpt lat="46.0463750" lon="10.4878880">
	<ele>2259.80</ele>
	<time>2023-08-06T07:51:13.000Z</time>
</trkpt>
<trkpt lat="46.0463810" lon="10.4878900">
	<ele>2259.40</ele>
	<time>2023-08-06T07:51:14.000Z</time>
</trkpt>
<trkpt lat="46.0463890" lon="10.4878920">
	<ele>2259.20</ele>
	<time>2023-08-06T07:51:15.000Z</time>
</trkpt>
<trkpt lat="46.0463990" lon="10.4878930">
	<ele>2259.20</ele>
	<time>2023-08-06T07:51:16.000Z</time>
</trkpt>
<trkpt lat="46.0464060" lon="10.4878960">
	<ele>2259.00</ele>
	<time>2023-08-06T07:51:17.000Z</time>
</trkpt>
<trkpt lat="46.0464140" lon="10.4879000">
	<ele>2258.80</ele>
	<time>2023-08-06T07:51:18.000Z</time>
</trkpt>
<trkpt lat="46.0464200" lon="10.4879060">
	<ele>2258.60</ele>
	<time>2023-08-06T07:51:19.000Z</time>
</trkpt>
<trkpt lat="46.0464260" lon="10.4879120">
	<ele>2258.40</ele>
	<time>2023-08-06T07:51:20.000Z</time>
</trkpt>
<trkpt lat="46.0464310" lon="10.4879140">
	<ele>2258.20</ele>
	<time>2023-08-06T07:51:21.000Z</time>
</trkpt>
<trkpt lat="46.0464400" lon="10.4879150">
	<ele>2258.20</ele>
	<time>2023-08-06T07:51:22.000Z</time>
</trkpt>
<trkpt lat="46.0464500" lon="10.4879150">
	<ele>2258.00</ele>
	<time>2023-08-06T07:51:23.000Z</time>
</trkpt>
<trkpt lat="46.0464640" lon="10.4879140">
	<ele>2257.80</ele>
	<time>2023-08-06T07:51:24.000Z</time>
</trkpt>
<trkpt lat="46.0464740" lon="10.4879110">
	<ele>2257.80</ele>
	<time>2023-08-06T07:51:25.000Z</time>
</trkpt>
<trkpt lat="46.0464800" lon="10.4879130">
	<ele>2257.80</ele>
	<time>2023-08-06T07:51:26.000Z</time>
</trkpt>
<trkpt lat="46.0464830" lon="10.4879190">
	<ele>2257.60</ele>
	<time>2023-08-06T07:51:27.000Z</time>
</trkpt>
<trkpt lat="46.0464860" lon="10.4879230">
	<ele>2257.40</ele>
	<time>2023-08-06T07:51:28.000Z</time>
</trkpt>
<trkpt lat="46.0464960" lon="10.4879140">
	<ele>2257.20</ele>
	<time>2023-08-06T07:51:29.000Z</time>
</trkpt>
<trkpt lat="46.0465060" lon="10.4879090">
	<ele>2257.00</ele>
	<time>2023-08-06T07:51:30.000Z</time>
</trkpt>
<trkpt lat="46.0465170" lon="10.4879100">
	<ele>2257.00</ele>
	<time>2023-08-06T07:51:31.000Z</time>
</trkpt>
<trkpt lat="46.0465230" lon="10.4879210">
	<ele>2256.80</ele>
	<time>2023-08-06T07:51:32.000Z</time>
</trkpt>
<trkpt lat="46.0465250" lon="10.4879390">
	<ele>2256.80</ele>
	<time>2023-08-06T07:51:33.000Z</time>
</trkpt>
<trkpt lat="46.0465280" lon="10.4879520">
	<ele>2256.60</ele>
	<time>2023-08-06T07:51:34.000Z</time>
</trkpt>
<trkpt lat="46.0465330" lon="10.4879560">
	<ele>2256.40</ele>
	<time>2023-08-06T07:51:35.000Z</time>
</trkpt>
<trkpt lat="46.0465380" lon="10.4879480">
	<ele>2256.20</ele>
	<time>2023-08-06T07:51:36.000Z</time>
</trkpt>
<trkpt lat="46.0465460" lon="10.4879490">
	<ele>2256.00</ele>
	<time>2023-08-06T07:51:37.000Z</time>
</trkpt>
<trkpt lat="46.0465510" lon="10.4879490">
	<ele>2255.80</ele>
	<time>2023-08-06T07:51:38.000Z</time>
</trkpt>
<trkpt lat="46.0465610" lon="10.4879520">
	<ele>2255.60</ele>
	<time>2023-08-06T07:51:39.000Z</time>
</trkpt>
<trkpt lat="46.0465640" lon="10.4879550">
	<ele>2255.40</ele>
	<time>2023-08-06T07:51:40.000Z</time>
</trkpt>
<trkpt lat="46.0465650" lon="10.4879580">
	<ele>2255.20</ele>
	<time>2023-08-06T07:51:41.000Z</time>
</trkpt>
<trkpt lat="46.0465680" lon="10.4879640">
	<ele>2255.00</ele>
	<time>2023-08-06T07:51:42.000Z</time>
</trkpt>
<trkpt lat="46.0465710" lon="10.4879690">
	<ele>2254.80</ele>
	<time>2023-08-06T07:51:43.000Z</time>
</trkpt>
<trkpt lat="46.0465730" lon="10.4879760">
	<ele>2254.60</ele>
	<time>2023-08-06T07:51:44.000Z</time>
</trkpt>
<trkpt lat="46.0465790" lon="10.4879750">
	<ele>2254.60</ele>
	<time>2023-08-06T07:51:45.000Z</time>
</trkpt>
<trkpt lat="46.0465840" lon="10.4879750">
	<ele>2254.60</ele>
	<time>2023-08-06T07:51:46.000Z</time>
</trkpt>
<trkpt lat="46.0465880" lon="10.4879770">
	<ele>2254.40</ele>
	<time>2023-08-06T07:51:47.000Z</time>
</trkpt>
<trkpt lat="46.0465900" lon="10.4879800">
	<ele>2254.00</ele>
	<time>2023-08-06T07:51:48.000Z</time>
</trkpt>
<trkpt lat="46.0465920" lon="10.4879820">
	<ele>2253.80</ele>
	<time>2023-08-06T07:51:49.000Z</time>
</trkpt>
<trkpt lat="46.0465980" lon="10.4879830">
	<ele>2253.80</ele>
	<time>2023-08-06T07:51:50.000Z</time>
</trkpt>
<trkpt lat="46.0466040" lon="10.4879870">
	<ele>2253.60</ele>
	<time>2023-08-06T07:51:51.000Z</time>
</trkpt>
<trkpt lat="46.0466120" lon="10.4879830">
	<ele>2253.40</ele>
	<time>2023-08-06T07:51:52.000Z</time>
</trkpt>
<trkpt lat="46.0466210" lon="10.4879800">
	<ele>2253.20</ele>
	<time>2023-08-06T07:51:53.000Z</time>
</trkpt>
<trkpt lat="46.0466290" lon="10.4879820">
	<ele>2253.00</ele>
	<time>2023-08-06T07:51:54.000Z</time>
</trkpt>
<trkpt lat="46.0466360" lon="10.4879850">
	<ele>2252.80</ele>
	<time>2023-08-06T07:51:55.000Z</time>
</trkpt>
<trkpt lat="46.0466420" lon="10.4879910">
	<ele>2252.40</ele>
	<time>2023-08-06T07:51:56.000Z</time>
</trkpt>
<trkpt lat="46.0466460" lon="10.4879990">
	<ele>2252.20</ele>
	<time>2023-08-06T07:51:57.000Z</time>
</trkpt>
<trkpt lat="46.0466480" lon="10.4880020">
	<ele>2251.80</ele>
	<time>2023-08-06T07:51:58.000Z</time>
</trkpt>
<trkpt lat="46.0466460" lon="10.4880160">
	<ele>2251.40</ele>
	<time>2023-08-06T07:51:59.000Z</time>
</trkpt>
<trkpt lat="46.0466410" lon="10.4880340">
	<ele>2251.40</ele>
	<time>2023-08-06T07:52:00.000Z</time>
</trkpt>
<trkpt lat="46.0466330" lon="10.4880530">
	<ele>2251.20</ele>
	<time>2023-08-06T07:52:01.000Z</time>
</trkpt>
<trkpt lat="46.0466280" lon="10.4880750">
	<ele>2250.80</ele>
	<time>2023-08-06T07:52:02.000Z</time>
</trkpt>
<trkpt lat="46.0466290" lon="10.4880860">
	<ele>2250.60</ele>
	<time>2023-08-06T07:52:03.000Z</time>
</trkpt>
<trkpt lat="46.0466310" lon="10.4880950">
	<ele>2250.40</ele>
	<time>2023-08-06T07:52:04.000Z</time>
</trkpt>
<trkpt lat="46.0466330" lon="10.4881080">
	<ele>2250.20</ele>
	<time>2023-08-06T07:52:05.000Z</time>
</trkpt>
<trkpt lat="46.0466370" lon="10.4881250">
	<ele>2250.00</ele>
	<time>2023-08-06T07:52:06.000Z</time>
</trkpt>
<trkpt lat="46.0466430" lon="10.4881350">
	<ele>2249.80</ele>
	<time>2023-08-06T07:52:07.000Z</time>
</trkpt>
<trkpt lat="46.0466500" lon="10.4881440">
	<ele>2249.60</ele>
	<time>2023-08-06T07:52:08.000Z</time>
</trkpt>
<trkpt lat="46.0466540" lon="10.4881530">
	<ele>2249.40</ele>
	<time>2023-08-06T07:52:09.000Z</time>
</trkpt>
<trkpt lat="46.0466560" lon="10.4881610">
	<ele>2249.20</ele>
	<time>2023-08-06T07:52:10.000Z</time>
</trkpt>
<trkpt lat="46.0466580" lon="10.4881680">
	<ele>2248.80</ele>
	<time>2023-08-06T07:52:11.000Z</time>
</trkpt>
<trkpt lat="46.0466660" lon="10.4881770">
	<ele>2248.80</ele>
	<time>2023-08-06T07:52:12.000Z</time>
</trkpt>
<trkpt lat="46.0466740" lon="10.4881890">
	<ele>2248.60</ele>
	<time>2023-08-06T07:52:13.000Z</time>
</trkpt>
<trkpt lat="46.0466830" lon="10.4881870">
	<ele>2248.60</ele>
	<time>2023-08-06T07:52:14.000Z</time>
</trkpt>
<trkpt lat="46.0466890" lon="10.4881900">
	<ele>2248.40</ele>
	<time>2023-08-06T07:52:15.000Z</time>
</trkpt>
<trkpt lat="46.0466960" lon="10.4881970">
	<ele>2248.40</ele>
	<time>2023-08-06T07:52:16.000Z</time>
</trkpt>
<trkpt lat="46.0466990" lon="10.4882090">
	<ele>2248.20</ele>
	<time>2023-08-06T07:52:17.000Z</time>
</trkpt>
<trkpt lat="46.0467030" lon="10.4882230">
	<ele>2248.00</ele>
	<time>2023-08-06T07:52:18.000Z</time>
</trkpt>
<trkpt lat="46.0467090" lon="10.4882300">
	<ele>2247.80</ele>
	<time>2023-08-06T07:52:19.000Z</time>
</trkpt>
<trkpt lat="46.0467120" lon="10.4882340">
	<ele>2247.80</ele>
	<time>2023-08-06T07:52:20.000Z</time>
</trkpt>
<trkpt lat="46.0467200" lon="10.4882310">
	<ele>2247.80</ele>
	<time>2023-08-06T07:52:21.000Z</time>
</trkpt>
<trkpt lat="46.0467300" lon="10.4882320">
	<ele>2247.60</ele>
	<time>2023-08-06T07:52:22.000Z</time>
</trkpt>
<trkpt lat="46.0467410" lon="10.4882290">
	<ele>2247.40</ele>
	<time>2023-08-06T07:52:23.000Z</time>
</trkpt>
<trkpt lat="46.0467440" lon="10.4882300">
	<ele>2247.20</ele>
	<time>2023-08-06T07:52:24.000Z</time>
</trkpt>
<trkpt lat="46.0467450" lon="10.4882320">
	<ele>2247.00</ele>
	<time>2023-08-06T07:52:25.000Z</time>
</trkpt>
<trkpt lat="46.0467450" lon="10.4882340">
	<ele>2246.80</ele>
	<time>2023-08-06T07:52:26.000Z</time>
</trkpt>
<trkpt lat="46.0467460" lon="10.4882360">
	<ele>2246.60</ele>
	<time>2023-08-06T07:52:27.000Z</time>
</trkpt>
<trkpt lat="46.0467480" lon="10.4882360">
	<ele>2246.60</ele>
	<time>2023-08-06T07:52:28.000Z</time>
</trkpt>
<trkpt lat="46.0467490" lon="10.4882350">
	<ele>2246.60</ele>
	<time>2023-08-06T07:52:29.000Z</time>
</trkpt>
<trkpt lat="46.0467510" lon="10.4882330">
	<ele>2246.40</ele>
	<time>2023-08-06T07:52:30.000Z</time>
</trkpt>
<trkpt lat="46.0467530" lon="10.4882290">
	<ele>2246.40</ele>
	<time>2023-08-06T07:52:31.000Z</time>
</trkpt>
<trkpt lat="46.0467500" lon="10.4882310">
	<ele>2246.40</ele>
	<time>2023-08-06T07:52:32.000Z</time>
</trkpt>
<trkpt lat="46.0467470" lon="10.4882340">
	<ele>2246.40</ele>
	<time>2023-08-06T07:52:33.000Z</time>
</trkpt>
<trkpt lat="46.0467480" lon="10.4882350">
	<ele>2246.40</ele>
	<time>2023-08-06T07:52:34.000Z</time>
</trkpt>
<trkpt lat="46.0467550" lon="10.4882300">
	<ele>2246.40</ele>
	<time>2023-08-06T07:52:35.000Z</time>
</trkpt>
<trkpt lat="46.0467610" lon="10.4882270">
	<ele>2246.40</ele>
	<time>2023-08-06T07:52:36.000Z</time>
</trkpt>
<trkpt lat="46.0467670" lon="10.4882180">
	<ele>2246.40</ele>
	<time>2023-08-06T07:52:37.000Z</time>
</trkpt>
<trkpt lat="46.0467710" lon="10.4882140">
	<ele>2246.00</ele>
	<time>2023-08-06T07:52:41.000Z</time>
</trkpt>
<trkpt lat="46.0467690" lon="10.4882120">
	<ele>2245.80</ele>
	<time>2023-08-06T07:52:42.000Z</time>
</trkpt>
<trkpt lat="46.0467690" lon="10.4882140">
	<ele>2245.60</ele>
	<time>2023-08-06T07:52:43.000Z</time>
</trkpt>
<trkpt lat="46.0467690" lon="10.4882190">
	<ele>2245.40</ele>
	<time>2023-08-06T07:52:44.000Z</time>
</trkpt>
<trkpt lat="46.0467690" lon="10.4882240">
	<ele>2245.20</ele>
	<time>2023-08-06T07:52:45.000Z</time>
</trkpt>
<trkpt lat="46.0467700" lon="10.4882270">
	<ele>2245.20</ele>
	<time>2023-08-06T07:52:46.000Z</time>
</trkpt>
<trkpt lat="46.0467650" lon="10.4882260">
	<ele>2245.00</ele>
	<time>2023-08-06T07:52:47.000Z</time>
</trkpt>
<trkpt lat="46.0467640" lon="10.4882200">
	<ele>2245.00</ele>
	<time>2023-08-06T07:52:48.000Z</time>
</trkpt>
<trkpt lat="46.0467650" lon="10.4882120">
	<ele>2245.00</ele>
	<time>2023-08-06T07:52:49.000Z</time>
</trkpt>
<trkpt lat="46.0467640" lon="10.4882100">
	<ele>2245.00</ele>
	<time>2023-08-06T07:52:50.000Z</time>
</trkpt>
<trkpt lat="46.0467630" lon="10.4882120">
	<ele>2245.00</ele>
	<time>2023-08-06T07:52:51.000Z</time>
</trkpt>
<trkpt lat="46.0467630" lon="10.4882080">
	<ele>2245.00</ele>
	<time>2023-08-06T07:52:52.000Z</time>
</trkpt>
<trkpt lat="46.0467580" lon="10.4882270">
	<ele>2245.20</ele>
	<time>2023-08-06T07:52:53.000Z</time>
</trkpt>
<trkpt lat="46.0467580" lon="10.4882170">
	<ele>2245.20</ele>
	<time>2023-08-06T07:52:54.000Z</time>
</trkpt>
<trkpt lat="46.0467590" lon="10.4882060">
	<ele>2245.20</ele>
	<time>2023-08-06T07:52:55.000Z</time>
</trkpt>
<trkpt lat="46.0467580" lon="10.4882010">
	<ele>2245.20</ele>
	<time>2023-08-06T07:52:56.000Z</time>
</trkpt>
<trkpt lat="46.0467550" lon="10.4882040">
	<ele>2245.20</ele>
	<time>2023-08-06T07:52:57.000Z</time>
</trkpt>
<trkpt lat="46.0467520" lon="10.4882090">
	<ele>2245.20</ele>
	<time>2023-08-06T07:52:58.000Z</time>
</trkpt>
<trkpt lat="46.0467530" lon="10.4882100">
	<ele>2245.00</ele>
	<time>2023-08-06T07:52:59.000Z</time>
</trkpt>
<trkpt lat="46.0467480" lon="10.4882130">
	<ele>2245.00</ele>
	<time>2023-08-06T07:53:00.000Z</time>
</trkpt>
<trkpt lat="46.0467480" lon="10.4882110">
	<ele>2245.00</ele>
	<time>2023-08-06T07:53:01.000Z</time>
</trkpt>
<trkpt lat="46.0467540" lon="10.4881890">
	<ele>2245.00</ele>
	<time>2023-08-06T07:53:02.000Z</time>
</trkpt>
<trkpt lat="46.0467560" lon="10.4881810">
	<ele>2245.00</ele>
	<time>2023-08-06T07:53:03.000Z</time>
</trkpt>
<trkpt lat="46.0467560" lon="10.4881780">
	<ele>2245.40</ele>
	<time>2023-08-06T07:53:04.000Z</time>
</trkpt>
<trkpt lat="46.0467540" lon="10.4881770">
	<ele>2245.80</ele>
	<time>2023-08-06T07:53:05.000Z</time>
</trkpt>
<trkpt lat="46.0467530" lon="10.4881750">
	<ele>2245.80</ele>
	<time>2023-08-06T07:53:06.000Z</time>
</trkpt>
<trkpt lat="46.0467490" lon="10.4881830">
	<ele>2246.00</ele>
	<time>2023-08-06T07:53:07.000Z</time>
</trkpt>
<trkpt lat="46.0467440" lon="10.4881910">
	<ele>2246.00</ele>
	<time>2023-08-06T07:53:08.000Z</time>
</trkpt>
<trkpt lat="46.0467440" lon="10.4881920">
	<ele>2245.80</ele>
	<time>2023-08-06T07:53:09.000Z</time>
</trkpt>
<trkpt lat="46.0467450" lon="10.4881860">
	<ele>2245.60</ele>
	<time>2023-08-06T07:53:10.000Z</time>
</trkpt>
<trkpt lat="46.0467460" lon="10.4881760">
	<ele>2245.40</ele>
	<time>2023-08-06T07:53:11.000Z</time>
</trkpt>
<trkpt lat="46.0467450" lon="10.4881740">
	<ele>2245.40</ele>
	<time>2023-08-06T07:53:12.000Z</time>
</trkpt>
<trkpt lat="46.0467450" lon="10.4881730">
	<ele>2245.20</ele>
	<time>2023-08-06T07:53:13.000Z</time>
</trkpt>
<trkpt lat="46.0467420" lon="10.4881740">
	<ele>2245.20</ele>
	<time>2023-08-06T07:53:14.000Z</time>
</trkpt>
<trkpt lat="46.0467390" lon="10.4881780">
	<ele>2245.20</ele>
	<time>2023-08-06T07:53:15.000Z</time>
</trkpt>
<trkpt lat="46.0467390" lon="10.4881690">
	<ele>2245.20</ele>
	<time>2023-08-06T07:53:16.000Z</time>
</trkpt>
<trkpt lat="46.0467410" lon="10.4881590">
	<ele>2245.20</ele>
	<time>2023-08-06T07:53:17.000Z</time>
</trkpt>
<trkpt lat="46.0467360" lon="10.4881640">
	<ele>2245.20</ele>
	<time>2023-08-06T07:53:18.000Z</time>
</trkpt>
<trkpt lat="46.0467330" lon="10.4881720">
	<ele>2245.20</ele>
	<time>2023-08-06T07:53:19.000Z</time>
</trkpt>
<trkpt lat="46.0467290" lon="10.4881800">
	<ele>2245.20</ele>
	<time>2023-08-06T07:53:20.000Z</time>
</trkpt>
<trkpt lat="46.0467260" lon="10.4881820">
	<ele>2245.40</ele>
	<time>2023-08-06T07:53:21.000Z</time>
</trkpt>
<trkpt lat="46.0467230" lon="10.4881830">
	<ele>2245.40</ele>
	<time>2023-08-06T07:53:22.000Z</time>
</trkpt>
<trkpt lat="46.0467230" lon="10.4881850">
	<ele>2245.40</ele>
	<time>2023-08-06T07:53:23.000Z</time>
</trkpt>
<trkpt lat="46.0467240" lon="10.4881860">
	<ele>2245.40</ele>
	<time>2023-08-06T07:53:24.000Z</time>
</trkpt>
<trkpt lat="46.0467250" lon="10.4881790">
	<ele>2245.40</ele>
	<time>2023-08-06T07:53:25.000Z</time>
</trkpt>
<trkpt lat="46.0467270" lon="10.4881690">
	<ele>2245.20</ele>
	<time>2023-08-06T07:53:26.000Z</time>
</trkpt>
<trkpt lat="46.0467300" lon="10.4881510">
	<ele>2245.20</ele>
	<time>2023-08-06T07:53:27.000Z</time>
</trkpt>
<trkpt lat="46.0467310" lon="10.4881420">
	<ele>2245.00</ele>
	<time>2023-08-06T07:53:28.000Z</time>
</trkpt>
<trkpt lat="46.0467300" lon="10.4881500">
	<ele>2245.00</ele>
	<time>2023-08-06T07:53:29.000Z</time>
</trkpt>
<trkpt lat="46.0467270" lon="10.4881640">
	<ele>2245.00</ele>
	<time>2023-08-06T07:53:30.000Z</time>
</trkpt>
<trkpt lat="46.0467250" lon="10.4881710">
	<ele>2245.00</ele>
	<time>2023-08-06T07:53:31.000Z</time>
</trkpt>
<trkpt lat="46.0467230" lon="10.4881760">
	<ele>2245.00</ele>
	<time>2023-08-06T07:53:32.000Z</time>
</trkpt>
<trkpt lat="46.0467240" lon="10.4881800">
	<ele>2245.00</ele>
	<time>2023-08-06T07:53:33.000Z</time>
</trkpt>
<trkpt lat="46.0467240" lon="10.4881820">
	<ele>2245.00</ele>
	<time>2023-08-06T07:53:34.000Z</time>
</trkpt>
<trkpt lat="46.0467240" lon="10.4881840">
	<ele>2245.00</ele>
	<time>2023-08-06T07:53:35.000Z</time>
</trkpt>
<trkpt lat="46.0467240" lon="10.4881880">
	<ele>2245.00</ele>
	<time>2023-08-06T07:53:36.000Z</time>
</trkpt>
<trkpt lat="46.0467250" lon="10.4881930">
	<ele>2245.20</ele>
	<time>2023-08-06T07:53:37.000Z</time>
</trkpt>
<trkpt lat="46.0467250" lon="10.4881940">
	<ele>2245.20</ele>
	<time>2023-08-06T07:53:38.000Z</time>
</trkpt>
<trkpt lat="46.0467270" lon="10.4881860">
	<ele>2245.20</ele>
	<time>2023-08-06T07:53:39.000Z</time>
</trkpt>
<trkpt lat="46.0467260" lon="10.4881980">
	<ele>2245.20</ele>
	<time>2023-08-06T07:53:40.000Z</time>
</trkpt>
<trkpt lat="46.0467360" lon="10.4882010">
	<ele>2245.40</ele>
	<time>2023-08-06T07:53:41.000Z</time>
</trkpt>
<trkpt lat="46.0467440" lon="10.4881980">
	<ele>2245.40</ele>
	<time>2023-08-06T07:53:42.000Z</time>
</trkpt>
<trkpt lat="46.0467520" lon="10.4881930">
	<ele>2245.60</ele>
	<time>2023-08-06T07:53:43.000Z</time>
</trkpt>
<trkpt lat="46.0467590" lon="10.4881880">
	<ele>2245.60</ele>
	<time>2023-08-06T07:53:44.000Z</time>
</trkpt>
<trkpt lat="46.0467620" lon="10.4881940">
	<ele>2245.80</ele>
	<time>2023-08-06T07:53:45.000Z</time>
</trkpt>
<trkpt lat="46.0467690" lon="10.4881920">
	<ele>2246.00</ele>
	<time>2023-08-06T07:53:46.000Z</time>
</trkpt>
<trkpt lat="46.0467710" lon="10.4882030">
	<ele>2246.00</ele>
	<time>2023-08-06T07:53:47.000Z</time>
</trkpt>
<trkpt lat="46.0467780" lon="10.4882070">
	<ele>2246.00</ele>
	<time>2023-08-06T07:53:48.000Z</time>
</trkpt>
<trkpt lat="46.0467830" lon="10.4882140">
	<ele>2245.80</ele>
	<time>2023-08-06T07:53:49.000Z</time>
</trkpt>
<trkpt lat="46.0467880" lon="10.4882210">
	<ele>2245.80</ele>
	<time>2023-08-06T07:53:50.000Z</time>
</trkpt>
<trkpt lat="46.0467920" lon="10.4882350">
	<ele>2245.60</ele>
	<time>2023-08-06T07:53:51.000Z</time>
</trkpt>
<trkpt lat="46.0467940" lon="10.4882520">
	<ele>2245.40</ele>
	<time>2023-08-06T07:53:52.000Z</time>
</trkpt>
<trkpt lat="46.0467950" lon="10.4882630">
	<ele>2245.00</ele>
	<time>2023-08-06T07:53:53.000Z</time>
</trkpt>
<trkpt lat="46.0467960" lon="10.4882800">
	<ele>2244.80</ele>
	<time>2023-08-06T07:53:54.000Z</time>
</trkpt>
<trkpt lat="46.0468030" lon="10.4882780">
	<ele>2244.60</ele>
	<time>2023-08-06T07:53:55.000Z</time>
</trkpt>
<trkpt lat="46.0468050" lon="10.4882920">
	<ele>2244.40</ele>
	<time>2023-08-06T07:53:56.000Z</time>
</trkpt>
<trkpt lat="46.0468050" lon="10.4883080">
	<ele>2244.20</ele>
	<time>2023-08-06T07:53:57.000Z</time>
</trkpt>
<trkpt lat="46.0468090" lon="10.4883180">
	<ele>2244.20</ele>
	<time>2023-08-06T07:53:58.000Z</time>
</trkpt>
<trkpt lat="46.0468120" lon="10.4883310">
	<ele>2244.20</ele>
	<time>2023-08-06T07:53:59.000Z</time>
</trkpt>
<trkpt lat="46.0468220" lon="10.4883380">
	<ele>2243.80</ele>
	<time>2023-08-06T07:54:00.000Z</time>
</trkpt>
<trkpt lat="46.0468340" lon="10.4883380">
	<ele>2243.40</ele>
	<time>2023-08-06T07:54:01.000Z</time>
</trkpt>
<trkpt lat="46.0468470" lon="10.4883300">
	<ele>2243.00</ele>
	<time>2023-08-06T07:54:02.000Z</time>
</trkpt>
<trkpt lat="46.0468700" lon="10.4883100">
	<ele>2243.00</ele>
	<time>2023-08-06T07:54:03.000Z</time>
</trkpt>
<trkpt lat="46.0468840" lon="10.4882960">
	<ele>2242.80</ele>
	<time>2023-08-06T07:54:04.000Z</time>
</trkpt>
<trkpt lat="46.0469060" lon="10.4882760">
	<ele>2242.60</ele>
	<time>2023-08-06T07:54:05.000Z</time>
</trkpt>
<trkpt lat="46.0469220" lon="10.4882610">
	<ele>2242.60</ele>
	<time>2023-08-06T07:54:06.000Z</time>
</trkpt>
<trkpt lat="46.0469370" lon="10.4882480">
	<ele>2242.60</ele>
	<time>2023-08-06T07:54:07.000Z</time>
</trkpt>
<trkpt lat="46.0469450" lon="10.4882440">
	<ele>2242.40</ele>
	<time>2023-08-06T07:54:08.000Z</time>
</trkpt>
<trkpt lat="46.0469500" lon="10.4882510">
	<ele>2242.40</ele>
	<time>2023-08-06T07:54:09.000Z</time>
</trkpt>
<trkpt lat="46.0469520" lon="10.4882540">
	<ele>2242.40</ele>
	<time>2023-08-06T07:54:10.000Z</time>
</trkpt>
<trkpt lat="46.0469550" lon="10.4882540">
	<ele>2242.20</ele>
	<time>2023-08-06T07:54:11.000Z</time>
</trkpt>
<trkpt lat="46.0469590" lon="10.4882550">
	<ele>2242.20</ele>
	<time>2023-08-06T07:54:12.000Z</time>
</trkpt>
<trkpt lat="46.0469630" lon="10.4882550">
	<ele>2242.20</ele>
	<time>2023-08-06T07:54:13.000Z</time>
</trkpt>
<trkpt lat="46.0469640" lon="10.4882590">
	<ele>2242.20</ele>
	<time>2023-08-06T07:54:14.000Z</time>
</trkpt>
<trkpt lat="46.0469630" lon="10.4882610">
	<ele>2242.20</ele>
	<time>2023-08-06T07:54:15.000Z</time>
</trkpt>
<trkpt lat="46.0469660" lon="10.4882540">
	<ele>2242.20</ele>
	<time>2023-08-06T07:54:16.000Z</time>
</trkpt>
<trkpt lat="46.0469580" lon="10.4882720">
	<ele>2242.20</ele>
	<time>2023-08-06T07:54:17.000Z</time>
</trkpt>
<trkpt lat="46.0469580" lon="10.4882720">
	<ele>2242.20</ele>
	<time>2023-08-06T07:54:18.000Z</time>
</trkpt>
<trkpt lat="46.0469610" lon="10.4882710">
	<ele>2242.20</ele>
	<time>2023-08-06T07:54:19.000Z</time>
</trkpt>
<trkpt lat="46.0469590" lon="10.4882810">
	<ele>2242.40</ele>
	<time>2023-08-06T07:54:20.000Z</time>
</trkpt>
<trkpt lat="46.0469620" lon="10.4882810">
	<ele>2242.60</ele>
	<time>2023-08-06T07:54:21.000Z</time>
</trkpt>
<trkpt lat="46.0469660" lon="10.4882770">
	<ele>2243.20</ele>
	<time>2023-08-06T07:54:22.000Z</time>
</trkpt>
<trkpt lat="46.0469680" lon="10.4882820">
	<ele>2243.40</ele>
	<time>2023-08-06T07:54:23.000Z</time>
</trkpt>
<trkpt lat="46.0469730" lon="10.4882790">
	<ele>2243.40</ele>
	<time>2023-08-06T07:54:24.000Z</time>
</trkpt>
<trkpt lat="46.0469770" lon="10.4882760">
	<ele>2243.60</ele>
	<time>2023-08-06T07:54:25.000Z</time>
</trkpt>
<trkpt lat="46.0469800" lon="10.4882750">
	<ele>2243.60</ele>
	<time>2023-08-06T07:54:26.000Z</time>
</trkpt>
<trkpt lat="46.0469840" lon="10.4882880">
	<ele>2243.60</ele>
	<time>2023-08-06T07:54:27.000Z</time>
</trkpt>
<trkpt lat="46.0469850" lon="10.4883090">
	<ele>2243.40</ele>
	<time>2023-08-06T07:54:28.000Z</time>
</trkpt>
<trkpt lat="46.0469880" lon="10.4883120">
	<ele>2243.40</ele>
	<time>2023-08-06T07:54:29.000Z</time>
</trkpt>
<trkpt lat="46.0469940" lon="10.4883030">
	<ele>2243.20</ele>
	<time>2023-08-06T07:54:30.000Z</time>
</trkpt>
<trkpt lat="46.0469950" lon="10.4883090">
	<ele>2243.20</ele>
	<time>2023-08-06T07:54:31.000Z</time>
</trkpt>
<trkpt lat="46.0469970" lon="10.4883080">
	<ele>2243.20</ele>
	<time>2023-08-06T07:54:32.000Z</time>
</trkpt>
<trkpt lat="46.0469990" lon="10.4883070">
	<ele>2243.00</ele>
	<time>2023-08-06T07:54:33.000Z</time>
</trkpt>
<trkpt lat="46.0470020" lon="10.4883050">
	<ele>2243.00</ele>
	<time>2023-08-06T07:54:34.000Z</time>
</trkpt>
<trkpt lat="46.0470020" lon="10.4882930">
	<ele>2242.80</ele>
	<time>2023-08-06T07:54:35.000Z</time>
</trkpt>
<trkpt lat="46.0470080" lon="10.4882740">
	<ele>2242.60</ele>
	<time>2023-08-06T07:54:36.000Z</time>
</trkpt>
<trkpt lat="46.0470120" lon="10.4882780">
	<ele>2242.60</ele>
	<time>2023-08-06T07:54:37.000Z</time>
</trkpt>
<trkpt lat="46.0470190" lon="10.4882840">
	<ele>2242.60</ele>
	<time>2023-08-06T07:54:38.000Z</time>
</trkpt>
<trkpt lat="46.0470240" lon="10.4882900">
	<ele>2242.60</ele>
	<time>2023-08-06T07:54:39.000Z</time>
</trkpt>
<trkpt lat="46.0470370" lon="10.4882850">
	<ele>2242.40</ele>
	<time>2023-08-06T07:54:40.000Z</time>
</trkpt>
<trkpt lat="46.0470510" lon="10.4882780">
	<ele>2242.40</ele>
	<time>2023-08-06T07:54:41.000Z</time>
</trkpt>
<trkpt lat="46.0470590" lon="10.4882870">
	<ele>2242.40</ele>
	<time>2023-08-06T07:54:42.000Z</time>
</trkpt>
<trkpt lat="46.0470640" lon="10.4882920">
	<ele>2242.40</ele>
	<time>2023-08-06T07:54:43.000Z</time>
</trkpt>
<trkpt lat="46.0470740" lon="10.4882870">
	<ele>2242.20</ele>
	<time>2023-08-06T07:54:44.000Z</time>
</trkpt>
<trkpt lat="46.0470870" lon="10.4882770">
	<ele>2242.20</ele>
	<time>2023-08-06T07:54:45.000Z</time>
</trkpt>
<trkpt lat="46.0471020" lon="10.4882650">
	<ele>2242.00</ele>
	<time>2023-08-06T07:54:46.000Z</time>
</trkpt>
<trkpt lat="46.0471170" lon="10.4882570">
	<ele>2241.80</ele>
	<time>2023-08-06T07:54:47.000Z</time>
</trkpt>
<trkpt lat="46.0471330" lon="10.4882480">
	<ele>2241.80</ele>
	<time>2023-08-06T07:54:48.000Z</time>
</trkpt>
<trkpt lat="46.0471440" lon="10.4882450">
	<ele>2241.60</ele>
	<time>2023-08-06T07:54:49.000Z</time>
</trkpt>
<trkpt lat="46.0471520" lon="10.4882440">
	<ele>2241.40</ele>
	<time>2023-08-06T07:54:50.000Z</time>
</trkpt>
<trkpt lat="46.0471570" lon="10.4882530">
	<ele>2241.40</ele>
	<time>2023-08-06T07:54:51.000Z</time>
</trkpt>
<trkpt lat="46.0471600" lon="10.4882610">
	<ele>2241.20</ele>
	<time>2023-08-06T07:54:52.000Z</time>
</trkpt>
<trkpt lat="46.0471660" lon="10.4882680">
	<ele>2241.20</ele>
	<time>2023-08-06T07:54:53.000Z</time>
</trkpt>
<trkpt lat="46.0471770" lon="10.4882660">
	<ele>2241.20</ele>
	<time>2023-08-06T07:54:54.000Z</time>
</trkpt>
<trkpt lat="46.0471850" lon="10.4882700">
	<ele>2241.20</ele>
	<time>2023-08-06T07:54:55.000Z</time>
</trkpt>
<trkpt lat="46.0471980" lon="10.4882650">
	<ele>2241.00</ele>
	<time>2023-08-06T07:54:56.000Z</time>
</trkpt>
<trkpt lat="46.0472030" lon="10.4882640">
	<ele>2241.00</ele>
	<time>2023-08-06T07:54:57.000Z</time>
</trkpt>
<trkpt lat="46.0472070" lon="10.4882660">
	<ele>2241.00</ele>
	<time>2023-08-06T07:54:58.000Z</time>
</trkpt>
<trkpt lat="46.0472120" lon="10.4882670">
	<ele>2241.00</ele>
	<time>2023-08-06T07:54:59.000Z</time>
</trkpt>
<trkpt lat="46.0472150" lon="10.4882760">
	<ele>2241.00</ele>
	<time>2023-08-06T07:55:00.000Z</time>
</trkpt>
<trkpt lat="46.0472180" lon="10.4882830">
	<ele>2241.00</ele>
	<time>2023-08-06T07:55:01.000Z</time>
</trkpt>
<trkpt lat="46.0472220" lon="10.4882850">
	<ele>2240.80</ele>
	<time>2023-08-06T07:55:02.000Z</time>
</trkpt>
<trkpt lat="46.0472290" lon="10.4882850">
	<ele>2240.60</ele>
	<time>2023-08-06T07:55:03.000Z</time>
</trkpt>
<trkpt lat="46.0472330" lon="10.4882900">
	<ele>2240.60</ele>
	<time>2023-08-06T07:55:04.000Z</time>
</trkpt>
<trkpt lat="46.0472290" lon="10.4883080">
	<ele>2240.40</ele>
	<time>2023-08-06T07:55:05.000Z</time>
</trkpt>
<trkpt lat="46.0472310" lon="10.4883130">
	<ele>2240.20</ele>
	<time>2023-08-06T07:55:06.000Z</time>
</trkpt>
<trkpt lat="46.0472320" lon="10.4883160">
	<ele>2240.20</ele>
	<time>2023-08-06T07:55:07.000Z</time>
</trkpt>
<trkpt lat="46.0472340" lon="10.4883180">
	<ele>2240.00</ele>
	<time>2023-08-06T07:55:08.000Z</time>
</trkpt>
<trkpt lat="46.0472350" lon="10.4883220">
	<ele>2240.00</ele>
	<time>2023-08-06T07:55:09.000Z</time>
</trkpt>
<trkpt lat="46.0472340" lon="10.4883330">
	<ele>2239.80</ele>
	<time>2023-08-06T07:55:10.000Z</time>
</trkpt>
<trkpt lat="46.0472370" lon="10.4883360">
	<ele>2239.80</ele>
	<time>2023-08-06T07:55:11.000Z</time>
</trkpt>
<trkpt lat="46.0472430" lon="10.4883370">
	<ele>2239.40</ele>
	<time>2023-08-06T07:55:12.000Z</time>
</trkpt>
<trkpt lat="46.0472460" lon="10.4883370">
	<ele>2239.20</ele>
	<time>2023-08-06T07:55:13.000Z</time>
</trkpt>
<trkpt lat="46.0472490" lon="10.4883390">
	<ele>2239.00</ele>
	<time>2023-08-06T07:55:14.000Z</time>
</trkpt>
<trkpt lat="46.0472540" lon="10.4883470">
	<ele>2239.00</ele>
	<time>2023-08-06T07:55:15.000Z</time>
</trkpt>
<trkpt lat="46.0472600" lon="10.4883460">
	<ele>2238.80</ele>
	<time>2023-08-06T07:55:16.000Z</time>
</trkpt>
<trkpt lat="46.0472730" lon="10.4883400">
	<ele>2238.60</ele>
	<time>2023-08-06T07:55:17.000Z</time>
</trkpt>
<trkpt lat="46.0472830" lon="10.4883470">
	<ele>2238.40</ele>
	<time>2023-08-06T07:55:18.000Z</time>
</trkpt>
<trkpt lat="46.0472940" lon="10.4883500">
	<ele>2238.40</ele>
	<time>2023-08-06T07:55:19.000Z</time>
</trkpt>
<trkpt lat="46.0473020" lon="10.4883610">
	<ele>2238.20</ele>
	<time>2023-08-06T07:55:20.000Z</time>
</trkpt>
<trkpt lat="46.0473070" lon="10.4883820">
	<ele>2238.00</ele>
	<time>2023-08-06T07:55:21.000Z</time>
</trkpt>
<trkpt lat="46.0473110" lon="10.4884050">
	<ele>2238.00</ele>
	<time>2023-08-06T07:55:22.000Z</time>
</trkpt>
<trkpt lat="46.0473150" lon="10.4884120">
	<ele>2237.80</ele>
	<time>2023-08-06T07:55:23.000Z</time>
</trkpt>
<trkpt lat="46.0473190" lon="10.4884200">
	<ele>2237.80</ele>
	<time>2023-08-06T07:55:24.000Z</time>
</trkpt>
<trkpt lat="46.0473230" lon="10.4884290">
	<ele>2237.80</ele>
	<time>2023-08-06T07:55:25.000Z</time>
</trkpt>
<trkpt lat="46.0473270" lon="10.4884470">
	<ele>2237.80</ele>
	<time>2023-08-06T07:55:26.000Z</time>
</trkpt>
<trkpt lat="46.0473290" lon="10.4884540">
	<ele>2237.80</ele>
	<time>2023-08-06T07:55:27.000Z</time>
</trkpt>
<trkpt lat="46.0473310" lon="10.4884570">
	<ele>2237.80</ele>
	<time>2023-08-06T07:55:28.000Z</time>
</trkpt>
<trkpt lat="46.0473310" lon="10.4884610">
	<ele>2237.80</ele>
	<time>2023-08-06T07:55:29.000Z</time>
</trkpt>
<trkpt lat="46.0473320" lon="10.4884730">
	<ele>2237.80</ele>
	<time>2023-08-06T07:55:30.000Z</time>
</trkpt>
<trkpt lat="46.0473330" lon="10.4884880">
	<ele>2237.80</ele>
	<time>2023-08-06T07:55:31.000Z</time>
</trkpt>
<trkpt lat="46.0473350" lon="10.4885040">
	<ele>2237.60</ele>
	<time>2023-08-06T07:55:32.000Z</time>
</trkpt>
<trkpt lat="46.0473390" lon="10.4885210">
	<ele>2237.40</ele>
	<time>2023-08-06T07:55:33.000Z</time>
</trkpt>
<trkpt lat="46.0473460" lon="10.4885410">
	<ele>2237.20</ele>
	<time>2023-08-06T07:55:34.000Z</time>
</trkpt>
<trkpt lat="46.0473490" lon="10.4885630">
	<ele>2237.00</ele>
	<time>2023-08-06T07:55:35.000Z</time>
</trkpt>
<trkpt lat="46.0473500" lon="10.4885840">
	<ele>2236.80</ele>
	<time>2023-08-06T07:55:36.000Z</time>
</trkpt>
<trkpt lat="46.0473440" lon="10.4885980">
	<ele>2236.80</ele>
	<time>2023-08-06T07:55:37.000Z</time>
</trkpt>
<trkpt lat="46.0473400" lon="10.4886100">
	<ele>2236.80</ele>
	<time>2023-08-06T07:55:38.000Z</time>
</trkpt>
<trkpt lat="46.0473400" lon="10.4886250">
	<ele>2236.60</ele>
	<time>2023-08-06T07:55:39.000Z</time>
</trkpt>
<trkpt lat="46.0473430" lon="10.4886340">
	<ele>2236.60</ele>
	<time>2023-08-06T07:55:40.000Z</time>
</trkpt>
<trkpt lat="46.0473440" lon="10.4886370">
	<ele>2236.60</ele>
	<time>2023-08-06T07:55:41.000Z</time>
</trkpt>
<trkpt lat="46.0473430" lon="10.4886440">
	<ele>2236.40</ele>
	<time>2023-08-06T07:55:42.000Z</time>
</trkpt>
<trkpt lat="46.0473430" lon="10.4886520">
	<ele>2236.40</ele>
	<time>2023-08-06T07:55:43.000Z</time>
</trkpt>
<trkpt lat="46.0473470" lon="10.4886590">
	<ele>2236.20</ele>
	<time>2023-08-06T07:55:44.000Z</time>
</trkpt>
<trkpt lat="46.0473560" lon="10.4886570">
	<ele>2236.20</ele>
	<time>2023-08-06T07:55:45.000Z</time>
</trkpt>
<trkpt lat="46.0473660" lon="10.4886600">
	<ele>2236.20</ele>
	<time>2023-08-06T07:55:46.000Z</time>
</trkpt>
<trkpt lat="46.0473730" lon="10.4886670">
	<ele>2236.20</ele>
	<time>2023-08-06T07:55:47.000Z</time>
</trkpt>
<trkpt lat="46.0473770" lon="10.4886750">
	<ele>2236.20</ele>
	<time>2023-08-06T07:55:48.000Z</time>
</trkpt>
<trkpt lat="46.0473840" lon="10.4886850">
	<ele>2236.20</ele>
	<time>2023-08-06T07:55:49.000Z</time>
</trkpt>
<trkpt lat="46.0473910" lon="10.4886940">
	<ele>2236.20</ele>
	<time>2023-08-06T07:55:50.000Z</time>
</trkpt>
<trkpt lat="46.0473940" lon="10.4886930">
	<ele>2236.00</ele>
	<time>2023-08-06T07:55:51.000Z</time>
</trkpt>
<trkpt lat="46.0474010" lon="10.4886890">
	<ele>2236.00</ele>
	<time>2023-08-06T07:55:52.000Z</time>
</trkpt>
<trkpt lat="46.0474070" lon="10.4886850">
	<ele>2236.00</ele>
	<time>2023-08-06T07:55:53.000Z</time>
</trkpt>
<trkpt lat="46.0474130" lon="10.4886840">
	<ele>2235.80</ele>
	<time>2023-08-06T07:55:54.000Z</time>
</trkpt>
<trkpt lat="46.0474180" lon="10.4886900">
	<ele>2235.80</ele>
	<time>2023-08-06T07:55:55.000Z</time>
</trkpt>
<trkpt lat="46.0474250" lon="10.4887050">
	<ele>2235.60</ele>
	<time>2023-08-06T07:55:56.000Z</time>
</trkpt>
<trkpt lat="46.0474300" lon="10.4887140">
	<ele>2235.60</ele>
	<time>2023-08-06T07:55:57.000Z</time>
</trkpt>
<trkpt lat="46.0474350" lon="10.4887170">
	<ele>2235.60</ele>
	<time>2023-08-06T07:55:58.000Z</time>
</trkpt>
<trkpt lat="46.0474420" lon="10.4887160">
	<ele>2235.40</ele>
	<time>2023-08-06T07:55:59.000Z</time>
</trkpt>
<trkpt lat="46.0474480" lon="10.4887170">
	<ele>2235.40</ele>
	<time>2023-08-06T07:56:00.000Z</time>
</trkpt>
<trkpt lat="46.0474550" lon="10.4887180">
	<ele>2235.20</ele>
	<time>2023-08-06T07:56:01.000Z</time>
</trkpt>
<trkpt lat="46.0474630" lon="10.4887160">
	<ele>2235.00</ele>
	<time>2023-08-06T07:56:02.000Z</time>
</trkpt>
<trkpt lat="46.0474670" lon="10.4887160">
	<ele>2234.80</ele>
	<time>2023-08-06T07:56:03.000Z</time>
</trkpt>
<trkpt lat="46.0474730" lon="10.4887090">
	<ele>2234.60</ele>
	<time>2023-08-06T07:56:04.000Z</time>
</trkpt>
<trkpt lat="46.0474810" lon="10.4887060">
	<ele>2234.60</ele>
	<time>2023-08-06T07:56:05.000Z</time>
</trkpt>
<trkpt lat="46.0474870" lon="10.4887000">
	<ele>2234.20</ele>
	<time>2023-08-06T07:56:06.000Z</time>
</trkpt>
<trkpt lat="46.0474930" lon="10.4886890">
	<ele>2234.00</ele>
	<time>2023-08-06T07:56:07.000Z</time>
</trkpt>
<trkpt lat="46.0474960" lon="10.4886860">
	<ele>2233.80</ele>
	<time>2023-08-06T07:56:08.000Z</time>
</trkpt>
<trkpt lat="46.0475020" lon="10.4886860">
	<ele>2233.60</ele>
	<time>2023-08-06T07:56:09.000Z</time>
</trkpt>
<trkpt lat="46.0475120" lon="10.4886800">
	<ele>2233.20</ele>
	<time>2023-08-06T07:56:10.000Z</time>
</trkpt>
<trkpt lat="46.0475220" lon="10.4886770">
	<ele>2233.00</ele>
	<time>2023-08-06T07:56:11.000Z</time>
</trkpt>
<trkpt lat="46.0475300" lon="10.4886810">
	<ele>2233.00</ele>
	<time>2023-08-06T07:56:12.000Z</time>
</trkpt>
<trkpt lat="46.0475370" lon="10.4886790">
	<ele>2232.80</ele>
	<time>2023-08-06T07:56:13.000Z</time>
</trkpt>
<trkpt lat="46.0475400" lon="10.4886700">
	<ele>2232.80</ele>
	<time>2023-08-06T07:56:14.000Z</time>
</trkpt>
<trkpt lat="46.0475470" lon="10.4886680">
	<ele>2232.60</ele>
	<time>2023-08-06T07:56:15.000Z</time>
</trkpt>
<trkpt lat="46.0475560" lon="10.4886740">
	<ele>2232.40</ele>
	<time>2023-08-06T07:56:16.000Z</time>
</trkpt>
<trkpt lat="46.0475630" lon="10.4886800">
	<ele>2232.00</ele>
	<time>2023-08-06T07:56:17.000Z</time>
</trkpt>
<trkpt lat="46.0475700" lon="10.4886760">
	<ele>2231.80</ele>
	<time>2023-08-06T07:56:18.000Z</time>
</trkpt>
<trkpt lat="46.0475780" lon="10.4886700">
	<ele>2231.60</ele>
	<time>2023-08-06T07:56:19.000Z</time>
</trkpt>
<trkpt lat="46.0475860" lon="10.4886690">
	<ele>2231.40</ele>
	<time>2023-08-06T07:56:20.000Z</time>
</trkpt>
<trkpt lat="46.0475930" lon="10.4886590">
	<ele>2231.40</ele>
	<time>2023-08-06T07:56:21.000Z</time>
</trkpt>
<trkpt lat="46.0475990" lon="10.4886460">
	<ele>2231.20</ele>
	<time>2023-08-06T07:56:22.000Z</time>
</trkpt>
<trkpt lat="46.0476020" lon="10.4886290">
	<ele>2231.20</ele>
	<time>2023-08-06T07:56:23.000Z</time>
</trkpt>
<trkpt lat="46.0476080" lon="10.4886230">
	<ele>2231.40</ele>
	<time>2023-08-06T07:56:24.000Z</time>
</trkpt>
<trkpt lat="46.0476160" lon="10.4886160">
	<ele>2231.40</ele>
	<time>2023-08-06T07:56:25.000Z</time>
</trkpt>
<trkpt lat="46.0476200" lon="10.4886090">
	<ele>2231.60</ele>
	<time>2023-08-06T07:56:26.000Z</time>
</trkpt>
<trkpt lat="46.0476280" lon="10.4886050">
	<ele>2231.80</ele>
	<time>2023-08-06T07:56:27.000Z</time>
</trkpt>
<trkpt lat="46.0476380" lon="10.4886040">
	<ele>2232.00</ele>
	<time>2023-08-06T07:56:28.000Z</time>
</trkpt>
<trkpt lat="46.0476480" lon="10.4886010">
	<ele>2232.20</ele>
	<time>2023-08-06T07:56:29.000Z</time>
</trkpt>
<trkpt lat="46.0476650" lon="10.4885970">
	<ele>2232.20</ele>
	<time>2023-08-06T07:56:30.000Z</time>
</trkpt>
<trkpt lat="46.0476740" lon="10.4885900">
	<ele>2232.40</ele>
	<time>2023-08-06T07:56:31.000Z</time>
</trkpt>
<trkpt lat="46.0476900" lon="10.4885880">
	<ele>2232.40</ele>
	<time>2023-08-06T07:56:32.000Z</time>
</trkpt>
<trkpt lat="46.0477110" lon="10.4885880">
	<ele>2232.40</ele>
	<time>2023-08-06T07:56:33.000Z</time>
</trkpt>
<trkpt lat="46.0477220" lon="10.4885960">
	<ele>2232.20</ele>
	<time>2023-08-06T07:56:34.000Z</time>
</trkpt>
<trkpt lat="46.0477250" lon="10.4886030">
	<ele>2232.20</ele>
	<time>2023-08-06T07:56:35.000Z</time>
</trkpt>
<trkpt lat="46.0477290" lon="10.4886060">
	<ele>2232.20</ele>
	<time>2023-08-06T07:56:36.000Z</time>
</trkpt>
<trkpt lat="46.0477420" lon="10.4886110">
	<ele>2232.20</ele>
	<time>2023-08-06T07:56:37.000Z</time>
</trkpt>
<trkpt lat="46.0477540" lon="10.4886160">
	<ele>2232.20</ele>
	<time>2023-08-06T07:56:38.000Z</time>
</trkpt>
<trkpt lat="46.0477610" lon="10.4886150">
	<ele>2232.00</ele>
	<time>2023-08-06T07:56:39.000Z</time>
</trkpt>
<trkpt lat="46.0477670" lon="10.4886110">
	<ele>2232.00</ele>
	<time>2023-08-06T07:56:40.000Z</time>
</trkpt>
<trkpt lat="46.0477770" lon="10.4886040">
	<ele>2232.00</ele>
	<time>2023-08-06T07:56:41.000Z</time>
</trkpt>
<trkpt lat="46.0477830" lon="10.4886070">
	<ele>2231.80</ele>
	<time>2023-08-06T07:56:42.000Z</time>
</trkpt>
<trkpt lat="46.0477910" lon="10.4886060">
	<ele>2231.40</ele>
	<time>2023-08-06T07:56:43.000Z</time>
</trkpt>
<trkpt lat="46.0477970" lon="10.4886090">
	<ele>2231.20</ele>
	<time>2023-08-06T07:56:44.000Z</time>
</trkpt>
<trkpt lat="46.0478050" lon="10.4886090">
	<ele>2231.00</ele>
	<time>2023-08-06T07:56:45.000Z</time>
</trkpt>
<trkpt lat="46.0478120" lon="10.4886070">
	<ele>2230.80</ele>
	<time>2023-08-06T07:56:46.000Z</time>
</trkpt>
<trkpt lat="46.0478200" lon="10.4886050">
	<ele>2230.60</ele>
	<time>2023-08-06T07:56:47.000Z</time>
</trkpt>
<trkpt lat="46.0478260" lon="10.4886110">
	<ele>2230.60</ele>
	<time>2023-08-06T07:56:48.000Z</time>
</trkpt>
<trkpt lat="46.0478360" lon="10.4886100">
	<ele>2230.20</ele>
	<time>2023-08-06T07:56:49.000Z</time>
</trkpt>
<trkpt lat="46.0478400" lon="10.4886090">
	<ele>2229.80</ele>
	<time>2023-08-06T07:56:50.000Z</time>
</trkpt>
<trkpt lat="46.0478380" lon="10.4886060">
	<ele>2229.60</ele>
	<time>2023-08-06T07:56:51.000Z</time>
</trkpt>
<trkpt lat="46.0478370" lon="10.4886070">
	<ele>2229.60</ele>
	<time>2023-08-06T07:56:52.000Z</time>
</trkpt>
<trkpt lat="46.0478340" lon="10.4886130">
	<ele>2229.40</ele>
	<time>2023-08-06T07:56:53.000Z</time>
</trkpt>
<trkpt lat="46.0478340" lon="10.4886150">
	<ele>2229.40</ele>
	<time>2023-08-06T07:56:54.000Z</time>
</trkpt>
<trkpt lat="46.0478350" lon="10.4886170">
	<ele>2229.40</ele>
	<time>2023-08-06T07:56:55.000Z</time>
</trkpt>
<trkpt lat="46.0478320" lon="10.4886190">
	<ele>2229.40</ele>
	<time>2023-08-06T07:56:56.000Z</time>
</trkpt>
<trkpt lat="46.0478320" lon="10.4886190">
	<ele>2229.40</ele>
	<time>2023-08-06T07:56:57.000Z</time>
</trkpt>
<trkpt lat="46.0478330" lon="10.4886200">
	<ele>2229.40</ele>
	<time>2023-08-06T07:56:58.000Z</time>
</trkpt>
<trkpt lat="46.0478340" lon="10.4886170">
	<ele>2229.40</ele>
	<time>2023-08-06T07:56:59.000Z</time>
</trkpt>
<trkpt lat="46.0478360" lon="10.4886170">
	<ele>2229.40</ele>
	<time>2023-08-06T07:57:00.000Z</time>
</trkpt>
<trkpt lat="46.0478370" lon="10.4886170">
	<ele>2229.60</ele>
	<time>2023-08-06T07:57:01.000Z</time>
</trkpt>
<trkpt lat="46.0478370" lon="10.4886170">
	<ele>2229.60</ele>
	<time>2023-08-06T07:57:02.000Z</time>
</trkpt>
<trkpt lat="46.0478370" lon="10.4886170">
	<ele>2229.80</ele>
	<time>2023-08-06T07:57:03.000Z</time>
</trkpt>
<trkpt lat="46.0478370" lon="10.4886170">
	<ele>2229.80</ele>
	<time>2023-08-06T07:57:04.000Z</time>
</trkpt>
<trkpt lat="46.0478370" lon="10.4886170">
	<ele>2229.80</ele>
	<time>2023-08-06T07:57:05.000Z</time>
</trkpt>
<trkpt lat="46.0478370" lon="10.4886170">
	<ele>2229.80</ele>
	<time>2023-08-06T07:57:06.000Z</time>
</trkpt>
<trkpt lat="46.0478370" lon="10.4886170">
	<ele>2229.80</ele>
	<time>2023-08-06T07:57:07.000Z</time>
</trkpt>
<trkpt lat="46.0478370" lon="10.4886170">
	<ele>2229.80</ele>
	<time>2023-08-06T07:57:08.000Z</time>
</trkpt>
<trkpt lat="46.0478370" lon="10.4886170">
	<ele>2229.80</ele>
	<time>2023-08-06T07:57:09.000Z</time>
</trkpt>
<trkpt lat="46.0478370" lon="10.4886170">
	<ele>2229.80</ele>
	<time>2023-08-06T07:57:10.000Z</time>
</trkpt>
<trkpt lat="46.0478370" lon="10.4886170">
	<ele>2230.00</ele>
	<time>2023-08-06T07:57:11.000Z</time>
</trkpt>
<trkpt lat="46.0478360" lon="10.4886170">
	<ele>2230.00</ele>
	<time>2023-08-06T07:57:12.000Z</time>
</trkpt>
<trkpt lat="46.0478360" lon="10.4886170">
	<ele>2230.00</ele>
	<time>2023-08-06T07:57:13.000Z</time>
</trkpt>
<trkpt lat="46.0478350" lon="10.4886170">
	<ele>2230.00</ele>
	<time>2023-08-06T07:57:14.000Z</time>
</trkpt>
<trkpt lat="46.0478350" lon="10.4886170">
	<ele>2230.00</ele>
	<time>2023-08-06T07:57:15.000Z</time>
</trkpt>
<trkpt lat="46.0478340" lon="10.4886170">
	<ele>2230.00</ele>
	<time>2023-08-06T07:57:16.000Z</time>
</trkpt>
<trkpt lat="46.0478330" lon="10.4886170">
	<ele>2230.20</ele>
	<time>2023-08-06T07:57:17.000Z</time>
</trkpt>
<trkpt lat="46.0478330" lon="10.4886170">
	<ele>2230.20</ele>
	<time>2023-08-06T07:57:18.000Z</time>
</trkpt>
<trkpt lat="46.0478320" lon="10.4886170">
	<ele>2230.00</ele>
	<time>2023-08-06T07:57:19.000Z</time>
</trkpt>
<trkpt lat="46.0478320" lon="10.4886170">
	<ele>2230.00</ele>
	<time>2023-08-06T07:57:20.000Z</time>
</trkpt>
<trkpt lat="46.0478320" lon="10.4886170">
	<ele>2230.00</ele>
	<time>2023-08-06T07:57:21.000Z</time>
</trkpt>
<trkpt lat="46.0478320" lon="10.4886170">
	<ele>2230.00</ele>
	<time>2023-08-06T07:57:22.000Z</time>
</trkpt>
<trkpt lat="46.0478320" lon="10.4886170">
	<ele>2230.00</ele>
	<time>2023-08-06T07:57:23.000Z</time>
</trkpt>
<trkpt lat="46.0478310" lon="10.4886170">
	<ele>2230.00</ele>
	<time>2023-08-06T07:57:24.000Z</time>
</trkpt>
<trkpt lat="46.0478300" lon="10.4886170">
	<ele>2230.00</ele>
	<time>2023-08-06T07:57:25.000Z</time>
</trkpt>
<trkpt lat="46.0478280" lon="10.4886170">
	<ele>2230.00</ele>
	<time>2023-08-06T07:57:26.000Z</time>
</trkpt>
<trkpt lat="46.0478280" lon="10.4886170">
	<ele>2230.20</ele>
	<time>2023-08-06T07:57:27.000Z</time>
</trkpt>
<trkpt lat="46.0478280" lon="10.4886170">
	<ele>2230.20</ele>
	<time>2023-08-06T07:57:28.000Z</time>
</trkpt>
<trkpt lat="46.0478270" lon="10.4886170">
	<ele>2230.40</ele>
	<time>2023-08-06T07:57:29.000Z</time>
</trkpt>
<trkpt lat="46.0478260" lon="10.4886180">
	<ele>2230.40</ele>
	<time>2023-08-06T07:57:30.000Z</time>
</trkpt>
<trkpt lat="46.0478250" lon="10.4886190">
	<ele>2230.40</ele>
	<time>2023-08-06T07:57:31.000Z</time>
</trkpt>
<trkpt lat="46.0478240" lon="10.4886190">
	<ele>2230.40</ele>
	<time>2023-08-06T07:57:32.000Z</time>
</trkpt>
<trkpt lat="46.0478240" lon="10.4886200">
	<ele>2230.20</ele>
	<time>2023-08-06T07:57:33.000Z</time>
</trkpt>
<trkpt lat="46.0478240" lon="10.4886200">
	<ele>2230.20</ele>
	<time>2023-08-06T07:57:34.000Z</time>
</trkpt>
<trkpt lat="46.0478240" lon="10.4886200">
	<ele>2230.20</ele>
	<time>2023-08-06T07:57:35.000Z</time>
</trkpt>
<trkpt lat="46.0478230" lon="10.4886210">
	<ele>2230.20</ele>
	<time>2023-08-06T07:57:36.000Z</time>
</trkpt>
<trkpt lat="46.0478230" lon="10.4886210">
	<ele>2230.00</ele>
	<time>2023-08-06T07:57:37.000Z</time>
</trkpt>
<trkpt lat="46.0478220" lon="10.4886210">
	<ele>2230.00</ele>
	<time>2023-08-06T07:57:38.000Z</time>
</trkpt>
<trkpt lat="46.0478220" lon="10.4886220">
	<ele>2230.00</ele>
	<time>2023-08-06T07:57:39.000Z</time>
</trkpt>
<trkpt lat="46.0478220" lon="10.4886230">
	<ele>2230.00</ele>
	<time>2023-08-06T07:57:40.000Z</time>
</trkpt>
<trkpt lat="46.0478220" lon="10.4886240">
	<ele>2230.00</ele>
	<time>2023-08-06T07:57:41.000Z</time>
</trkpt>
<trkpt lat="46.0478210" lon="10.4886250">
	<ele>2230.20</ele>
	<time>2023-08-06T07:57:42.000Z</time>
</trkpt>
<trkpt lat="46.0478200" lon="10.4886250">
	<ele>2230.20</ele>
	<time>2023-08-06T07:57:43.000Z</time>
</trkpt>
<trkpt lat="46.0478200" lon="10.4886260">
	<ele>2230.20</ele>
	<time>2023-08-06T07:57:44.000Z</time>
</trkpt>
<trkpt lat="46.0478180" lon="10.4886270">
	<ele>2230.40</ele>
	<time>2023-08-06T07:57:45.000Z</time>
</trkpt>
<trkpt lat="46.0478170" lon="10.4886280">
	<ele>2230.40</ele>
	<time>2023-08-06T07:57:46.000Z</time>
</trkpt>
<trkpt lat="46.0478170" lon="10.4886280">
	<ele>2230.40</ele>
	<time>2023-08-06T07:57:47.000Z</time>
</trkpt>
<trkpt lat="46.0478170" lon="10.4886280">
	<ele>2230.40</ele>
	<time>2023-08-06T07:57:48.000Z</time>
</trkpt>
<trkpt lat="46.0478170" lon="10.4886290">
	<ele>2230.20</ele>
	<time>2023-08-06T07:57:49.000Z</time>
</trkpt>
<trkpt lat="46.0478170" lon="10.4886290">
	<ele>2230.20</ele>
	<time>2023-08-06T07:57:50.000Z</time>
</trkpt>
<trkpt lat="46.0478170" lon="10.4886290">
	<ele>2230.20</ele>
	<time>2023-08-06T07:57:51.000Z</time>
</trkpt>
<trkpt lat="46.0478170" lon="10.4886290">
	<ele>2230.00</ele>
	<time>2023-08-06T07:57:52.000Z</time>
</trkpt>
<trkpt lat="46.0478170" lon="10.4886300">
	<ele>2230.00</ele>
	<time>2023-08-06T07:57:53.000Z</time>
</trkpt>
<trkpt lat="46.0478170" lon="10.4886300">
	<ele>2229.80</ele>
	<time>2023-08-06T07:57:54.000Z</time>
</trkpt>
<trkpt lat="46.0478170" lon="10.4886300">
	<ele>2229.80</ele>
	<time>2023-08-06T07:57:55.000Z</time>
</trkpt>
<trkpt lat="46.0478170" lon="10.4886310">
	<ele>2229.60</ele>
	<time>2023-08-06T07:57:56.000Z</time>
</trkpt>
<trkpt lat="46.0478170" lon="10.4886310">
	<ele>2229.60</ele>
	<time>2023-08-06T07:57:57.000Z</time>
</trkpt>
<trkpt lat="46.0478170" lon="10.4886310">
	<ele>2229.40</ele>
	<time>2023-08-06T07:57:58.000Z</time>
</trkpt>
<trkpt lat="46.0478170" lon="10.4886320">
	<ele>2229.40</ele>
	<time>2023-08-06T07:57:59.000Z</time>
</trkpt>
<trkpt lat="46.0478170" lon="10.4886320">
	<ele>2229.40</ele>
	<time>2023-08-06T07:58:00.000Z</time>
</trkpt>
<trkpt lat="46.0478170" lon="10.4886320">
	<ele>2229.20</ele>
	<time>2023-08-06T07:58:01.000Z</time>
</trkpt>
<trkpt lat="46.0478170" lon="10.4886320">
	<ele>2229.00</ele>
	<time>2023-08-06T07:58:02.000Z</time>
</trkpt>
<trkpt lat="46.0478170" lon="10.4886320">
	<ele>2229.00</ele>
	<time>2023-08-06T07:58:03.000Z</time>
</trkpt>
<trkpt lat="46.0478170" lon="10.4886320">
	<ele>2228.80</ele>
	<time>2023-08-06T07:58:04.000Z</time>
</trkpt>
<trkpt lat="46.0478170" lon="10.4886320">
	<ele>2228.60</ele>
	<time>2023-08-06T07:58:05.000Z</time>
</trkpt>
<trkpt lat="46.0478180" lon="10.4886330">
	<ele>2228.60</ele>
	<time>2023-08-06T07:58:06.000Z</time>
</trkpt>
<trkpt lat="46.0478180" lon="10.4886330">
	<ele>2228.60</ele>
	<time>2023-08-06T07:58:07.000Z</time>
</trkpt>
<trkpt lat="46.0478180" lon="10.4886340">
	<ele>2228.40</ele>
	<time>2023-08-06T07:58:08.000Z</time>
</trkpt>
<trkpt lat="46.0478180" lon="10.4886350">
	<ele>2228.40</ele>
	<time>2023-08-06T07:58:09.000Z</time>
</trkpt>
<trkpt lat="46.0478190" lon="10.4886350">
	<ele>2228.00</ele>
	<time>2023-08-06T07:58:10.000Z</time>
</trkpt>
<trkpt lat="46.0478200" lon="10.4886360">
	<ele>2227.80</ele>
	<time>2023-08-06T07:58:11.000Z</time>
</trkpt>
<trkpt lat="46.0478220" lon="10.4886360">
	<ele>2227.60</ele>
	<time>2023-08-06T07:58:12.000Z</time>
</trkpt>
<trkpt lat="46.0478240" lon="10.4886360">
	<ele>2227.40</ele>
	<time>2023-08-06T07:58:13.000Z</time>
</trkpt>
<trkpt lat="46.0478270" lon="10.4886360">
	<ele>2227.00</ele>
	<time>2023-08-06T07:58:14.000Z</time>
</trkpt>
<trkpt lat="46.0478320" lon="10.4886360">
	<ele>2227.00</ele>
	<time>2023-08-06T07:58:15.000Z</time>
</trkpt>
<trkpt lat="46.0478380" lon="10.4886370">
	<ele>2226.80</ele>
	<time>2023-08-06T07:58:16.000Z</time>
</trkpt>
<trkpt lat="46.0478430" lon="10.4886370">
	<ele>2226.60</ele>
	<time>2023-08-06T07:58:17.000Z</time>
</trkpt>
<trkpt lat="46.0478480" lon="10.4886350">
	<ele>2226.60</ele>
	<time>2023-08-06T07:58:18.000Z</time>
</trkpt>
<trkpt lat="46.0478590" lon="10.4886310">
	<ele>2226.60</ele>
	<time>2023-08-06T07:58:19.000Z</time>
</trkpt>
<trkpt lat="46.0478700" lon="10.4886220">
	<ele>2226.40</ele>
	<time>2023-08-06T07:58:20.000Z</time>
</trkpt>
<trkpt lat="46.0478860" lon="10.4886170">
	<ele>2226.20</ele>
	<time>2023-08-06T07:58:21.000Z</time>
</trkpt>
<trkpt lat="46.0479010" lon="10.4886110">
	<ele>2226.00</ele>
	<time>2023-08-06T07:58:22.000Z</time>
</trkpt>
<trkpt lat="46.0479100" lon="10.4886040">
	<ele>2225.80</ele>
	<time>2023-08-06T07:58:23.000Z</time>
</trkpt>
<trkpt lat="46.0479220" lon="10.4885920">
	<ele>2225.60</ele>
	<time>2023-08-06T07:58:24.000Z</time>
</trkpt>
<trkpt lat="46.0479360" lon="10.4885830">
	<ele>2225.60</ele>
	<time>2023-08-06T07:58:25.000Z</time>
</trkpt>
<trkpt lat="46.0479520" lon="10.4885730">
	<ele>2225.60</ele>
	<time>2023-08-06T07:58:26.000Z</time>
</trkpt>
<trkpt lat="46.0479620" lon="10.4885600">
	<ele>2225.80</ele>
	<time>2023-08-06T07:58:27.000Z</time>
</trkpt>
<trkpt lat="46.0479620" lon="10.4885470">
	<ele>2225.60</ele>
	<time>2023-08-06T07:58:28.000Z</time>
</trkpt>
<trkpt lat="46.0479630" lon="10.4885310">
	<ele>2225.60</ele>
	<time>2023-08-06T07:58:29.000Z</time>
</trkpt>
<trkpt lat="46.0479700" lon="10.4885240">
	<ele>2225.60</ele>
	<time>2023-08-06T07:58:30.000Z</time>
</trkpt>
<trkpt lat="46.0479800" lon="10.4885170">
	<ele>2225.40</ele>
	<time>2023-08-06T07:58:31.000Z</time>
</trkpt>
<trkpt lat="46.0479890" lon="10.4885070">
	<ele>2225.40</ele>
	<time>2023-08-06T07:58:32.000Z</time>
</trkpt>
<trkpt lat="46.0479950" lon="10.4884980">
	<ele>2225.00</ele>
	<time>2023-08-06T07:58:33.000Z</time>
</trkpt>
<trkpt lat="46.0480020" lon="10.4884850">
	<ele>2224.80</ele>
	<time>2023-08-06T07:58:34.000Z</time>
</trkpt>
<trkpt lat="46.0480080" lon="10.4884750">
	<ele>2224.80</ele>
	<time>2023-08-06T07:58:35.000Z</time>
</trkpt>
<trkpt lat="46.0480140" lon="10.4884710">
	<ele>2224.80</ele>
	<time>2023-08-06T07:58:36.000Z</time>
</trkpt>
<trkpt lat="46.0480290" lon="10.4884700">
	<ele>2224.60</ele>
	<time>2023-08-06T07:58:37.000Z</time>
</trkpt>
<trkpt lat="46.0480430" lon="10.4884660">
	<ele>2224.60</ele>
	<time>2023-08-06T07:58:38.000Z</time>
</trkpt>
<trkpt lat="46.0480600" lon="10.4884660">
	<ele>2224.40</ele>
	<time>2023-08-06T07:58:39.000Z</time>
</trkpt>
<trkpt lat="46.0480680" lon="10.4884660">
	<ele>2224.20</ele>
	<time>2023-08-06T07:58:40.000Z</time>
</trkpt>
<trkpt lat="46.0480710" lon="10.4884590">
	<ele>2224.00</ele>
	<time>2023-08-06T07:58:41.000Z</time>
</trkpt>
<trkpt lat="46.0480690" lon="10.4884500">
	<ele>2223.80</ele>
	<time>2023-08-06T07:58:42.000Z</time>
</trkpt>
<trkpt lat="46.0480670" lon="10.4884310">
	<ele>2223.40</ele>
	<time>2023-08-06T07:58:43.000Z</time>
</trkpt>
<trkpt lat="46.0480710" lon="10.4884180">
	<ele>2223.20</ele>
	<time>2023-08-06T07:58:44.000Z</time>
</trkpt>
<trkpt lat="46.0480730" lon="10.4884080">
	<ele>2223.20</ele>
	<time>2023-08-06T07:58:45.000Z</time>
</trkpt>
<trkpt lat="46.0480810" lon="10.4884050">
	<ele>2223.00</ele>
	<time>2023-08-06T07:58:46.000Z</time>
</trkpt>
<trkpt lat="46.0480830" lon="10.4884040">
	<ele>2223.00</ele>
	<time>2023-08-06T07:58:47.000Z</time>
</trkpt>
<trkpt lat="46.0480880" lon="10.4884060">
	<ele>2223.00</ele>
	<time>2023-08-06T07:58:48.000Z</time>
</trkpt>
<trkpt lat="46.0480960" lon="10.4883990">
	<ele>2223.00</ele>
	<time>2023-08-06T07:58:49.000Z</time>
</trkpt>
<trkpt lat="46.0481020" lon="10.4883990">
	<ele>2223.20</ele>
	<time>2023-08-06T07:58:50.000Z</time>
</trkpt>
<trkpt lat="46.0481080" lon="10.4883960">
	<ele>2223.20</ele>
	<time>2023-08-06T07:58:51.000Z</time>
</trkpt>
<trkpt lat="46.0481110" lon="10.4883940">
	<ele>2223.40</ele>
	<time>2023-08-06T07:58:52.000Z</time>
</trkpt>
<trkpt lat="46.0481150" lon="10.4883950">
	<ele>2223.40</ele>
	<time>2023-08-06T07:58:53.000Z</time>
</trkpt>
<trkpt lat="46.0481230" lon="10.4884030">
	<ele>2223.60</ele>
	<time>2023-08-06T07:58:54.000Z</time>
</trkpt>
<trkpt lat="46.0481260" lon="10.4884020">
	<ele>2223.60</ele>
	<time>2023-08-06T07:58:55.000Z</time>
</trkpt>
<trkpt lat="46.0481280" lon="10.4884080">
	<ele>2223.60</ele>
	<time>2023-08-06T07:58:56.000Z</time>
</trkpt>
<trkpt lat="46.0481320" lon="10.4884070">
	<ele>2223.80</ele>
	<time>2023-08-06T07:58:57.000Z</time>
</trkpt>
<trkpt lat="46.0481350" lon="10.4884050">
	<ele>2224.00</ele>
	<time>2023-08-06T07:58:58.000Z</time>
</trkpt>
<trkpt lat="46.0481400" lon="10.4884010">
	<ele>2224.20</ele>
	<time>2023-08-06T07:58:59.000Z</time>
</trkpt>
<trkpt lat="46.0481450" lon="10.4883970">
	<ele>2224.20</ele>
	<time>2023-08-06T07:59:00.000Z</time>
</trkpt>
<trkpt lat="46.0481470" lon="10.4883930">
	<ele>2224.40</ele>
	<time>2023-08-06T07:59:01.000Z</time>
</trkpt>
<trkpt lat="46.0481440" lon="10.4883960">
	<ele>2224.60</ele>
	<time>2023-08-06T07:59:02.000Z</time>
</trkpt>
<trkpt lat="46.0481440" lon="10.4883920">
	<ele>2224.80</ele>
	<time>2023-08-06T07:59:03.000Z</time>
</trkpt>
<trkpt lat="46.0481420" lon="10.4883850">
	<ele>2224.80</ele>
	<time>2023-08-06T07:59:04.000Z</time>
</trkpt>
<trkpt lat="46.0481430" lon="10.4883790">
	<ele>2225.00</ele>
	<time>2023-08-06T07:59:05.000Z</time>
</trkpt>
<trkpt lat="46.0481460" lon="10.4883910">
	<ele>2225.20</ele>
	<time>2023-08-06T07:59:06.000Z</time>
</trkpt>
<trkpt lat="46.0481490" lon="10.4883860">
	<ele>2225.40</ele>
	<time>2023-08-06T07:59:07.000Z</time>
</trkpt>
<trkpt lat="46.0481490" lon="10.4883840">
	<ele>2225.60</ele>
	<time>2023-08-06T07:59:08.000Z</time>
</trkpt>
<trkpt lat="46.0481500" lon="10.4883890">
	<ele>2225.80</ele>
	<time>2023-08-06T07:59:09.000Z</time>
</trkpt>
<trkpt lat="46.0481530" lon="10.4883890">
	<ele>2226.00</ele>
	<time>2023-08-06T07:59:10.000Z</time>
</trkpt>
<trkpt lat="46.0481540" lon="10.4883860">
	<ele>2226.00</ele>
	<time>2023-08-06T07:59:11.000Z</time>
</trkpt>
<trkpt lat="46.0481550" lon="10.4883840">
	<ele>2226.20</ele>
	<time>2023-08-06T07:59:12.000Z</time>
</trkpt>
<trkpt lat="46.0481570" lon="10.4883850">
	<ele>2226.40</ele>
	<time>2023-08-06T07:59:13.000Z</time>
</trkpt>
<trkpt lat="46.0481580" lon="10.4883870">
	<ele>2226.60</ele>
	<time>2023-08-06T07:59:14.000Z</time>
</trkpt>
<trkpt lat="46.0481580" lon="10.4883840">
	<ele>2226.60</ele>
	<time>2023-08-06T07:59:15.000Z</time>
</trkpt>
<trkpt lat="46.0481530" lon="10.4883890">
	<ele>2226.80</ele>
	<time>2023-08-06T07:59:16.000Z</time>
</trkpt>
<trkpt lat="46.0481490" lon="10.4883910">
	<ele>2226.80</ele>
	<time>2023-08-06T07:59:17.000Z</time>
</trkpt>
<trkpt lat="46.0481460" lon="10.4883900">
	<ele>2226.80</ele>
	<time>2023-08-06T07:59:18.000Z</time>
</trkpt>
<trkpt lat="46.0481440" lon="10.4883890">
	<ele>2227.00</ele>
	<time>2023-08-06T07:59:19.000Z</time>
</trkpt>
<trkpt lat="46.0481420" lon="10.4883920">
	<ele>2227.00</ele>
	<time>2023-08-06T07:59:20.000Z</time>
</trkpt>
<trkpt lat="46.0481410" lon="10.4883900">
	<ele>2227.00</ele>
	<time>2023-08-06T07:59:21.000Z</time>
</trkpt>
<trkpt lat="46.0481390" lon="10.4883870">
	<ele>2227.00</ele>
	<time>2023-08-06T07:59:22.000Z</time>
</trkpt>
<trkpt lat="46.0481360" lon="10.4883760">
	<ele>2227.20</ele>
	<time>2023-08-06T07:59:23.000Z</time>
</trkpt>
<trkpt lat="46.0481380" lon="10.4883680">
	<ele>2227.40</ele>
	<time>2023-08-06T07:59:24.000Z</time>
</trkpt>
<trkpt lat="46.0481410" lon="10.4883630">
	<ele>2227.40</ele>
	<time>2023-08-06T07:59:25.000Z</time>
</trkpt>
<trkpt lat="46.0481430" lon="10.4883590">
	<ele>2227.60</ele>
	<time>2023-08-06T07:59:26.000Z</time>
</trkpt>
<trkpt lat="46.0481380" lon="10.4883540">
	<ele>2227.80</ele>
	<time>2023-08-06T07:59:27.000Z</time>
</trkpt>
<trkpt lat="46.0481360" lon="10.4883500">
	<ele>2228.00</ele>
	<time>2023-08-06T07:59:28.000Z</time>
</trkpt>
<trkpt lat="46.0481370" lon="10.4883470">
	<ele>2228.20</ele>
	<time>2023-08-06T07:59:29.000Z</time>
</trkpt>
<trkpt lat="46.0481380" lon="10.4883460">
	<ele>2228.20</ele>
	<time>2023-08-06T07:59:30.000Z</time>
</trkpt>
<trkpt lat="46.0481370" lon="10.4883400">
	<ele>2228.40</ele>
	<time>2023-08-06T07:59:31.000Z</time>
</trkpt>
<trkpt lat="46.0481370" lon="10.4883370">
	<ele>2228.60</ele>
	<time>2023-08-06T07:59:32.000Z</time>
</trkpt>
<trkpt lat="46.0481380" lon="10.4883350">
	<ele>2228.60</ele>
	<time>2023-08-06T07:59:33.000Z</time>
</trkpt>
<trkpt lat="46.0481400" lon="10.4883350">
	<ele>2228.80</ele>
	<time>2023-08-06T07:59:34.000Z</time>
</trkpt>
<trkpt lat="46.0481470" lon="10.4883360">
	<ele>2228.80</ele>
	<time>2023-08-06T07:59:35.000Z</time>
</trkpt>
<trkpt lat="46.0481510" lon="10.4883390">
	<ele>2229.00</ele>
	<time>2023-08-06T07:59:36.000Z</time>
</trkpt>
<trkpt lat="46.0481510" lon="10.4883400">
	<ele>2229.20</ele>
	<time>2023-08-06T07:59:37.000Z</time>
</trkpt>
<trkpt lat="46.0481480" lon="10.4883330">
	<ele>2229.20</ele>
	<time>2023-08-06T07:59:38.000Z</time>
</trkpt>
<trkpt lat="46.0481500" lon="10.4883310">
	<ele>2229.40</ele>
	<time>2023-08-06T07:59:39.000Z</time>
</trkpt>
<trkpt lat="46.0481510" lon="10.4883280">
	<ele>2229.60</ele>
	<time>2023-08-06T07:59:40.000Z</time>
</trkpt>
<trkpt lat="46.0481530" lon="10.4883270">
	<ele>2229.60</ele>
	<time>2023-08-06T07:59:41.000Z</time>
</trkpt>
<trkpt lat="46.0481540" lon="10.4883260">
	<ele>2229.80</ele>
	<time>2023-08-06T07:59:42.000Z</time>
</trkpt>
<trkpt lat="46.0481600" lon="10.4883310">
	<ele>2230.00</ele>
	<time>2023-08-06T07:59:43.000Z</time>
</trkpt>
<trkpt lat="46.0481630" lon="10.4883310">
	<ele>2230.00</ele>
	<time>2023-08-06T07:59:44.000Z</time>
</trkpt>
<trkpt lat="46.0481600" lon="10.4883350">
	<ele>2230.20</ele>
	<time>2023-08-06T07:59:45.000Z</time>
</trkpt>
<trkpt lat="46.0481610" lon="10.4883370">
	<ele>2230.20</ele>
	<time>2023-08-06T07:59:46.000Z</time>
</trkpt>
<trkpt lat="46.0481600" lon="10.4883420">
	<ele>2230.60</ele>
	<time>2023-08-06T07:59:47.000Z</time>
</trkpt>
<trkpt lat="46.0481570" lon="10.4883440">
	<ele>2230.80</ele>
	<time>2023-08-06T07:59:48.000Z</time>
</trkpt>
<trkpt lat="46.0481540" lon="10.4883450">
	<ele>2231.00</ele>
	<time>2023-08-06T07:59:49.000Z</time>
</trkpt>
<trkpt lat="46.0481550" lon="10.4883420">
	<ele>2231.20</ele>
	<time>2023-08-06T07:59:50.000Z</time>
</trkpt>
<trkpt lat="46.0481530" lon="10.4883450">
	<ele>2231.40</ele>
	<time>2023-08-06T07:59:51.000Z</time>
</trkpt>
<trkpt lat="46.0481510" lon="10.4883450">
	<ele>2231.60</ele>
	<time>2023-08-06T07:59:52.000Z</time>
</trkpt>
<trkpt lat="46.0481510" lon="10.4883420">
	<ele>2231.80</ele>
	<time>2023-08-06T07:59:53.000Z</time>
</trkpt>
<trkpt lat="46.0481570" lon="10.4883400">
	<ele>2231.80</ele>
	<time>2023-08-06T07:59:54.000Z</time>
</trkpt>
<trkpt lat="46.0481600" lon="10.4883420">
	<ele>2232.00</ele>
	<time>2023-08-06T07:59:55.000Z</time>
</trkpt>
<trkpt lat="46.0481620" lon="10.4883440">
	<ele>2232.20</ele>
	<time>2023-08-06T07:59:56.000Z</time>
</trkpt>
<trkpt lat="46.0481640" lon="10.4883410">
	<ele>2232.20</ele>
	<time>2023-08-06T07:59:57.000Z</time>
</trkpt>
<trkpt lat="46.0481670" lon="10.4883410">
	<ele>2232.40</ele>
	<time>2023-08-06T07:59:58.000Z</time>
</trkpt>
<trkpt lat="46.0481730" lon="10.4883420">
	<ele>2232.40</ele>
	<time>2023-08-06T07:59:59.000Z</time>
</trkpt>
<trkpt lat="46.0481780" lon="10.4883460">
	<ele>2232.40</ele>
	<time>2023-08-06T08:00:00.000Z</time>
</trkpt>
<trkpt lat="46.0481800" lon="10.4883460">
	<ele>2232.60</ele>
	<time>2023-08-06T08:00:01.000Z</time>
</trkpt>
<trkpt lat="46.0481900" lon="10.4883500">
	<ele>2232.80</ele>
	<time>2023-08-06T08:00:02.000Z</time>
</trkpt>
<trkpt lat="46.0481950" lon="10.4883490">
	<ele>2232.80</ele>
	<time>2023-08-06T08:00:03.000Z</time>
</trkpt>
<trkpt lat="46.0481940" lon="10.4883370">
	<ele>2233.00</ele>
	<time>2023-08-06T08:00:04.000Z</time>
</trkpt>
<trkpt lat="46.0481950" lon="10.4883290">
	<ele>2233.00</ele>
	<time>2023-08-06T08:00:05.000Z</time>
</trkpt>
<trkpt lat="46.0481970" lon="10.4883260">
	<ele>2233.00</ele>
	<time>2023-08-06T08:00:06.000Z</time>
</trkpt>
<trkpt lat="46.0481950" lon="10.4883190">
	<ele>2233.20</ele>
	<time>2023-08-06T08:00:07.000Z</time>
</trkpt>
<trkpt lat="46.0481930" lon="10.4883080">
	<ele>2233.20</ele>
	<time>2023-08-06T08:00:08.000Z</time>
</trkpt>
<trkpt lat="46.0481950" lon="10.4883010">
	<ele>2233.40</ele>
	<time>2023-08-06T08:00:09.000Z</time>
</trkpt>
<trkpt lat="46.0481960" lon="10.4882970">
	<ele>2233.40</ele>
	<time>2023-08-06T08:00:10.000Z</time>
</trkpt>
<trkpt lat="46.0481970" lon="10.4882940">
	<ele>2233.60</ele>
	<time>2023-08-06T08:00:11.000Z</time>
</trkpt>
<trkpt lat="46.0481970" lon="10.4882910">
	<ele>2234.00</ele>
	<time>2023-08-06T08:00:12.000Z</time>
</trkpt>
<trkpt lat="46.0481980" lon="10.4882920">
	<ele>2234.00</ele>
	<time>2023-08-06T08:00:13.000Z</time>
</trkpt>
<trkpt lat="46.0482020" lon="10.4882950">
	<ele>2234.20</ele>
	<time>2023-08-06T08:00:14.000Z</time>
</trkpt>
<trkpt lat="46.0482030" lon="10.4882940">
	<ele>2234.20</ele>
	<time>2023-08-06T08:00:15.000Z</time>
</trkpt>
<trkpt lat="46.0482050" lon="10.4882930">
	<ele>2234.20</ele>
	<time>2023-08-06T08:00:16.000Z</time>
</trkpt>
<trkpt lat="46.0482060" lon="10.4882950">
	<ele>2234.40</ele>
	<time>2023-08-06T08:00:17.000Z</time>
</trkpt>
<trkpt lat="46.0482030" lon="10.4882950">
	<ele>2234.40</ele>
	<time>2023-08-06T08:00:18.000Z</time>
</trkpt>
<trkpt lat="46.0482010" lon="10.4882970">
	<ele>2234.60</ele>
	<time>2023-08-06T08:00:19.000Z</time>
</trkpt>
<trkpt lat="46.0482010" lon="10.4882970">
	<ele>2234.60</ele>
	<time>2023-08-06T08:00:20.000Z</time>
</trkpt>
<trkpt lat="46.0482020" lon="10.4882960">
	<ele>2234.80</ele>
	<time>2023-08-06T08:00:21.000Z</time>
</trkpt>
<trkpt lat="46.0482020" lon="10.4882940">
	<ele>2235.20</ele>
	<time>2023-08-06T08:00:22.000Z</time>
</trkpt>
<trkpt lat="46.0482030" lon="10.4882930">
	<ele>2235.20</ele>
	<time>2023-08-06T08:00:23.000Z</time>
</trkpt>
<trkpt lat="46.0482010" lon="10.4882860">
	<ele>2235.40</ele>
	<time>2023-08-06T08:00:24.000Z</time>
</trkpt>
<trkpt lat="46.0482050" lon="10.4882820">
	<ele>2235.60</ele>
	<time>2023-08-06T08:00:25.000Z</time>
</trkpt>
<trkpt lat="46.0482080" lon="10.4882780">
	<ele>2235.80</ele>
	<time>2023-08-06T08:00:26.000Z</time>
</trkpt>
<trkpt lat="46.0482120" lon="10.4882760">
	<ele>2236.00</ele>
	<time>2023-08-06T08:00:27.000Z</time>
</trkpt>
<trkpt lat="46.0482170" lon="10.4882740">
	<ele>2236.20</ele>
	<time>2023-08-06T08:00:28.000Z</time>
</trkpt>
<trkpt lat="46.0482230" lon="10.4882690">
	<ele>2236.20</ele>
	<time>2023-08-06T08:00:29.000Z</time>
</trkpt>
<trkpt lat="46.0482310" lon="10.4882610">
	<ele>2236.20</ele>
	<time>2023-08-06T08:00:30.000Z</time>
</trkpt>
<trkpt lat="46.0482370" lon="10.4882580">
	<ele>2236.20</ele>
	<time>2023-08-06T08:00:31.000Z</time>
</trkpt>
<trkpt lat="46.0482440" lon="10.4882540">
	<ele>2236.20</ele>
	<time>2023-08-06T08:00:32.000Z</time>
</trkpt>
<trkpt lat="46.0482470" lon="10.4882520">
	<ele>2236.20</ele>
	<time>2023-08-06T08:00:33.000Z</time>
</trkpt>
<trkpt lat="46.0482530" lon="10.4882500">
	<ele>2236.40</ele>
	<time>2023-08-06T08:00:34.000Z</time>
</trkpt>
<trkpt lat="46.0482550" lon="10.4882420">
	<ele>2236.40</ele>
	<time>2023-08-06T08:00:35.000Z</time>
</trkpt>
<trkpt lat="46.0482550" lon="10.4882370">
	<ele>2236.40</ele>
	<time>2023-08-06T08:00:36.000Z</time>
</trkpt>
<trkpt lat="46.0482530" lon="10.4882280">
	<ele>2236.40</ele>
	<time>2023-08-06T08:00:37.000Z</time>
</trkpt>
<trkpt lat="46.0482610" lon="10.4882300">
	<ele>2236.40</ele>
	<time>2023-08-06T08:00:38.000Z</time>
</trkpt>
<trkpt lat="46.0482700" lon="10.4882260">
	<ele>2236.60</ele>
	<time>2023-08-06T08:00:39.000Z</time>
</trkpt>
<trkpt lat="46.0482780" lon="10.4882220">
	<ele>2236.60</ele>
	<time>2023-08-06T08:00:40.000Z</time>
</trkpt>
<trkpt lat="46.0482850" lon="10.4882200">
	<ele>2236.80</ele>
	<time>2023-08-06T08:00:41.000Z</time>
</trkpt>
<trkpt lat="46.0482890" lon="10.4882170">
	<ele>2237.00</ele>
	<time>2023-08-06T08:00:42.000Z</time>
</trkpt>
<trkpt lat="46.0482930" lon="10.4882170">
	<ele>2237.00</ele>
	<time>2023-08-06T08:00:43.000Z</time>
</trkpt>
<trkpt lat="46.0482970" lon="10.4882140">
	<ele>2237.20</ele>
	<time>2023-08-06T08:00:44.000Z</time>
</trkpt>
<trkpt lat="46.0483000" lon="10.4882070">
	<ele>2237.20</ele>
	<time>2023-08-06T08:00:45.000Z</time>
</trkpt>
<trkpt lat="46.0483010" lon="10.4881990">
	<ele>2237.40</ele>
	<time>2023-08-06T08:00:46.000Z</time>
</trkpt>
<trkpt lat="46.0483060" lon="10.4881910">
	<ele>2237.40</ele>
	<time>2023-08-06T08:00:47.000Z</time>
</trkpt>
<trkpt lat="46.0483070" lon="10.4881870">
	<ele>2237.40</ele>
	<time>2023-08-06T08:00:48.000Z</time>
</trkpt>
<trkpt lat="46.0483130" lon="10.4881830">
	<ele>2237.60</ele>
	<time>2023-08-06T08:00:49.000Z</time>
</trkpt>
<trkpt lat="46.0483160" lon="10.4881730">
	<ele>2237.60</ele>
	<time>2023-08-06T08:00:50.000Z</time>
</trkpt>
<trkpt lat="46.0483160" lon="10.4881660">
	<ele>2237.80</ele>
	<time>2023-08-06T08:00:51.000Z</time>
</trkpt>
<trkpt lat="46.0483190" lon="10.4881610">
	<ele>2238.00</ele>
	<time>2023-08-06T08:00:52.000Z</time>
</trkpt>
<trkpt lat="46.0483220" lon="10.4881590">
	<ele>2238.00</ele>
	<time>2023-08-06T08:00:53.000Z</time>
</trkpt>
<trkpt lat="46.0483210" lon="10.4881540">
	<ele>2238.20</ele>
	<time>2023-08-06T08:00:54.000Z</time>
</trkpt>
<trkpt lat="46.0483250" lon="10.4881520">
	<ele>2238.20</ele>
	<time>2023-08-06T08:00:55.000Z</time>
</trkpt>
<trkpt lat="46.0483260" lon="10.4881540">
	<ele>2238.40</ele>
	<time>2023-08-06T08:00:56.000Z</time>
</trkpt>
<trkpt lat="46.0483280" lon="10.4881480">
	<ele>2238.40</ele>
	<time>2023-08-06T08:00:57.000Z</time>
</trkpt>
<trkpt lat="46.0483310" lon="10.4881420">
	<ele>2238.40</ele>
	<time>2023-08-06T08:00:58.000Z</time>
</trkpt>
<trkpt lat="46.0483350" lon="10.4881400">
	<ele>2238.80</ele>
	<time>2023-08-06T08:00:59.000Z</time>
</trkpt>
<trkpt lat="46.0483400" lon="10.4881370">
	<ele>2238.80</ele>
	<time>2023-08-06T08:01:00.000Z</time>
</trkpt>
<trkpt lat="46.0483520" lon="10.4881360">
	<ele>2239.00</ele>
	<time>2023-08-06T08:01:01.000Z</time>
</trkpt>
<trkpt lat="46.0483610" lon="10.4881330">
	<ele>2239.00</ele>
	<time>2023-08-06T08:01:02.000Z</time>
</trkpt>
<trkpt lat="46.0483640" lon="10.4881300">
	<ele>2239.20</ele>
	<time>2023-08-06T08:01:03.000Z</time>
</trkpt>
<trkpt lat="46.0483710" lon="10.4881290">
	<ele>2239.20</ele>
	<time>2023-08-06T08:01:04.000Z</time>
</trkpt>
<trkpt lat="46.0483750" lon="10.4881280">
	<ele>2239.20</ele>
	<time>2023-08-06T08:01:05.000Z</time>
</trkpt>
<trkpt lat="46.0483760" lon="10.4881260">
	<ele>2239.40</ele>
	<time>2023-08-06T08:01:06.000Z</time>
</trkpt>
<trkpt lat="46.0483770" lon="10.4881250">
	<ele>2239.40</ele>
	<time>2023-08-06T08:01:07.000Z</time>
</trkpt>
<trkpt lat="46.0483800" lon="10.4881220">
	<ele>2239.60</ele>
	<time>2023-08-06T08:01:08.000Z</time>
</trkpt>
<trkpt lat="46.0483810" lon="10.4881210">
	<ele>2239.80</ele>
	<time>2023-08-06T08:01:09.000Z</time>
</trkpt>
<trkpt lat="46.0483820" lon="10.4881180">
	<ele>2239.80</ele>
	<time>2023-08-06T08:01:10.000Z</time>
</trkpt>
<trkpt lat="46.0483810" lon="10.4881110">
	<ele>2239.80</ele>
	<time>2023-08-06T08:01:11.000Z</time>
</trkpt>
<trkpt lat="46.0483810" lon="10.4881030">
	<ele>2240.00</ele>
	<time>2023-08-06T08:01:12.000Z</time>
</trkpt>
<trkpt lat="46.0483820" lon="10.4880990">
	<ele>2240.00</ele>
	<time>2023-08-06T08:01:13.000Z</time>
</trkpt>
<trkpt lat="46.0483870" lon="10.4880910">
	<ele>2240.00</ele>
	<time>2023-08-06T08:01:14.000Z</time>
</trkpt>
<trkpt lat="46.0483880" lon="10.4880880">
	<ele>2240.00</ele>
	<time>2023-08-06T08:01:15.000Z</time>
</trkpt>
<trkpt lat="46.0483860" lon="10.4880880">
	<ele>2240.00</ele>
	<time>2023-08-06T08:01:16.000Z</time>
</trkpt>
<trkpt lat="46.0483850" lon="10.4880840">
	<ele>2240.20</ele>
	<time>2023-08-06T08:01:17.000Z</time>
</trkpt>
<trkpt lat="46.0483860" lon="10.4880760">
	<ele>2240.20</ele>
	<time>2023-08-06T08:01:18.000Z</time>
</trkpt>
<trkpt lat="46.0483890" lon="10.4880720">
	<ele>2240.20</ele>
	<time>2023-08-06T08:01:19.000Z</time>
</trkpt>
<trkpt lat="46.0483930" lon="10.4880680">
	<ele>2240.40</ele>
	<time>2023-08-06T08:01:20.000Z</time>
</trkpt>
<trkpt lat="46.0483940" lon="10.4880630">
	<ele>2240.40</ele>
	<time>2023-08-06T08:01:21.000Z</time>
</trkpt>
<trkpt lat="46.0483940" lon="10.4880570">
	<ele>2240.60</ele>
	<time>2023-08-06T08:01:22.000Z</time>
</trkpt>
<trkpt lat="46.0483930" lon="10.4880540">
	<ele>2240.60</ele>
	<time>2023-08-06T08:01:23.000Z</time>
</trkpt>
<trkpt lat="46.0483900" lon="10.4880500">
	<ele>2240.80</ele>
	<time>2023-08-06T08:01:24.000Z</time>
</trkpt>
<trkpt lat="46.0483910" lon="10.4880450">
	<ele>2241.00</ele>
	<time>2023-08-06T08:01:25.000Z</time>
</trkpt>
<trkpt lat="46.0483930" lon="10.4880430">
	<ele>2241.20</ele>
	<time>2023-08-06T08:01:26.000Z</time>
</trkpt>
<trkpt lat="46.0483950" lon="10.4880430">
	<ele>2241.40</ele>
	<time>2023-08-06T08:01:27.000Z</time>
</trkpt>
<trkpt lat="46.0483950" lon="10.4880420">
	<ele>2241.60</ele>
	<time>2023-08-06T08:01:28.000Z</time>
</trkpt>
<trkpt lat="46.0483950" lon="10.4880420">
	<ele>2241.60</ele>
	<time>2023-08-06T08:01:29.000Z</time>
</trkpt>
<trkpt lat="46.0483950" lon="10.4880420">
	<ele>2241.80</ele>
	<time>2023-08-06T08:01:30.000Z</time>
</trkpt>
<trkpt lat="46.0483950" lon="10.4880420">
	<ele>2241.80</ele>
	<time>2023-08-06T08:01:31.000Z</time>
</trkpt>
<trkpt lat="46.0483950" lon="10.4880420">
	<ele>2242.00</ele>
	<time>2023-08-06T08:01:32.000Z</time>
</trkpt>
<trkpt lat="46.0483950" lon="10.4880420">
	<ele>2242.00</ele>
	<time>2023-08-06T08:01:33.000Z</time>
</trkpt>
<trkpt lat="46.0483950" lon="10.4880420">
	<ele>2242.20</ele>
	<time>2023-08-06T08:01:34.000Z</time>
</trkpt>
<trkpt lat="46.0483950" lon="10.4880420">
	<ele>2242.40</ele>
	<time>2023-08-06T08:01:35.000Z</time>
</trkpt>
<trkpt lat="46.0483950" lon="10.4880420">
	<ele>2242.60</ele>
	<time>2023-08-06T08:01:36.000Z</time>
</trkpt>
<trkpt lat="46.0483950" lon="10.4880420">
	<ele>2242.60</ele>
	<time>2023-08-06T08:01:37.000Z</time>
</trkpt>
<trkpt lat="46.0483950" lon="10.4880420">
	<ele>2242.80</ele>
	<time>2023-08-06T08:01:38.000Z</time>
</trkpt>
<trkpt lat="46.0483950" lon="10.4880420">
	<ele>2242.80</ele>
	<time>2023-08-06T08:01:39.000Z</time>
</trkpt>
<trkpt lat="46.0484010" lon="10.4880380">
	<ele>2242.80</ele>
	<time>2023-08-06T08:01:40.000Z</time>
</trkpt>
<trkpt lat="46.0484190" lon="10.4880330">
	<ele>2242.80</ele>
	<time>2023-08-06T08:01:41.000Z</time>
</trkpt>
<trkpt lat="46.0484310" lon="10.4880290">
	<ele>2243.00</ele>
	<time>2023-08-06T08:01:42.000Z</time>
</trkpt>
<trkpt lat="46.0484420" lon="10.4880210">
	<ele>2243.00</ele>
	<time>2023-08-06T08:01:43.000Z</time>
</trkpt>
<trkpt lat="46.0484510" lon="10.4880160">
	<ele>2243.00</ele>
	<time>2023-08-06T08:01:44.000Z</time>
</trkpt>
<trkpt lat="46.0484570" lon="10.4880070">
	<ele>2243.00</ele>
	<time>2023-08-06T08:01:45.000Z</time>
</trkpt>
<trkpt lat="46.0484600" lon="10.4879990">
	<ele>2243.00</ele>
	<time>2023-08-06T08:01:46.000Z</time>
</trkpt>
<trkpt lat="46.0484670" lon="10.4879960">
	<ele>2243.20</ele>
	<time>2023-08-06T08:01:47.000Z</time>
</trkpt>
<trkpt lat="46.0484800" lon="10.4879970">
	<ele>2243.40</ele>
	<time>2023-08-06T08:01:48.000Z</time>
</trkpt>
<trkpt lat="46.0484870" lon="10.4879940">
	<ele>2243.40</ele>
	<time>2023-08-06T08:01:49.000Z</time>
</trkpt>
<trkpt lat="46.0484870" lon="10.4879940">
	<ele>2243.40</ele>
	<time>2023-08-06T08:01:50.000Z</time>
</trkpt>
<trkpt lat="46.0484850" lon="10.4879940">
	<ele>2243.60</ele>
	<time>2023-08-06T08:01:51.000Z</time>
</trkpt>
<trkpt lat="46.0484840" lon="10.4879940">
	<ele>2243.60</ele>
	<time>2023-08-06T08:01:52.000Z</time>
</trkpt>
<trkpt lat="46.0484850" lon="10.4879950">
	<ele>2243.60</ele>
	<time>2023-08-06T08:01:53.000Z</time>
</trkpt>
<trkpt lat="46.0484850" lon="10.4879960">
	<ele>2243.80</ele>
	<time>2023-08-06T08:01:54.000Z</time>
</trkpt>
<trkpt lat="46.0484850" lon="10.4879960">
	<ele>2243.60</ele>
	<time>2023-08-06T08:01:55.000Z</time>
</trkpt>
<trkpt lat="46.0484850" lon="10.4879960">
	<ele>2243.80</ele>
	<time>2023-08-06T08:01:56.000Z</time>
</trkpt>
<trkpt lat="46.0484850" lon="10.4879960">
	<ele>2243.80</ele>
	<time>2023-08-06T08:01:57.000Z</time>
</trkpt>
<trkpt lat="46.0484850" lon="10.4879960">
	<ele>2243.60</ele>
	<time>2023-08-06T08:01:58.000Z</time>
</trkpt>
<trkpt lat="46.0484850" lon="10.4879960">
	<ele>2243.60</ele>
	<time>2023-08-06T08:01:59.000Z</time>
</trkpt>
<trkpt lat="46.0484850" lon="10.4879960">
	<ele>2243.60</ele>
	<time>2023-08-06T08:02:00.000Z</time>
</trkpt>
<trkpt lat="46.0484850" lon="10.4879960">
	<ele>2243.60</ele>
	<time>2023-08-06T08:02:01.000Z</time>
</trkpt>
<trkpt lat="46.0484850" lon="10.4879950">
	<ele>2243.60</ele>
	<time>2023-08-06T08:02:02.000Z</time>
</trkpt>
<trkpt lat="46.0484850" lon="10.4879950">
	<ele>2243.60</ele>
	<time>2023-08-06T08:02:03.000Z</time>
</trkpt>
<trkpt lat="46.0484850" lon="10.4879940">
	<ele>2243.40</ele>
	<time>2023-08-06T08:02:04.000Z</time>
</trkpt>
<trkpt lat="46.0484850" lon="10.4879940">
	<ele>2243.40</ele>
	<time>2023-08-06T08:02:05.000Z</time>
</trkpt>
<trkpt lat="46.0484850" lon="10.4879940">
	<ele>2243.40</ele>
	<time>2023-08-06T08:02:06.000Z</time>
</trkpt>
<trkpt lat="46.0484850" lon="10.4879940">
	<ele>2243.40</ele>
	<time>2023-08-06T08:02:07.000Z</time>
</trkpt>
<trkpt lat="46.0484850" lon="10.4879940">
	<ele>2243.40</ele>
	<time>2023-08-06T08:02:08.000Z</time>
</trkpt>
<trkpt lat="46.0484860" lon="10.4879930">
	<ele>2243.40</ele>
	<time>2023-08-06T08:02:09.000Z</time>
</trkpt>
<trkpt lat="46.0484860" lon="10.4879930">
	<ele>2243.40</ele>
	<time>2023-08-06T08:02:10.000Z</time>
</trkpt>
<trkpt lat="46.0484860" lon="10.4879920">
	<ele>2243.60</ele>
	<time>2023-08-06T08:02:11.000Z</time>
</trkpt>
<trkpt lat="46.0484870" lon="10.4879910">
	<ele>2243.60</ele>
	<time>2023-08-06T08:02:12.000Z</time>
</trkpt>
<trkpt lat="46.0484870" lon="10.4879900">
	<ele>2243.60</ele>
	<time>2023-08-06T08:02:13.000Z</time>
</trkpt>
<trkpt lat="46.0484880" lon="10.4879900">
	<ele>2243.60</ele>
	<time>2023-08-06T08:02:14.000Z</time>
</trkpt>
<trkpt lat="46.0484880" lon="10.4879900">
	<ele>2243.60</ele>
	<time>2023-08-06T08:02:15.000Z</time>
</trkpt>
<trkpt lat="46.0484890" lon="10.4879910">
	<ele>2243.60</ele>
	<time>2023-08-06T08:02:16.000Z</time>
</trkpt>
<trkpt lat="46.0484890" lon="10.4879910">
	<ele>2243.60</ele>
	<time>2023-08-06T08:02:17.000Z</time>
</trkpt>
<trkpt lat="46.0484890" lon="10.4879910">
	<ele>2243.60</ele>
	<time>2023-08-06T08:02:18.000Z</time>
</trkpt>
<trkpt lat="46.0484890" lon="10.4879910">
	<ele>2243.60</ele>
	<time>2023-08-06T08:02:19.000Z</time>
</trkpt>
<trkpt lat="46.0484890" lon="10.4879910">
	<ele>2243.60</ele>
	<time>2023-08-06T08:02:20.000Z</time>
</trkpt>
<trkpt lat="46.0484900" lon="10.4879910">
	<ele>2243.40</ele>
	<time>2023-08-06T08:02:21.000Z</time>
</trkpt>
<trkpt lat="46.0484900" lon="10.4879910">
	<ele>2243.40</ele>
	<time>2023-08-06T08:02:22.000Z</time>
</trkpt>
<trkpt lat="46.0484900" lon="10.4879910">
	<ele>2243.60</ele>
	<time>2023-08-06T08:02:23.000Z</time>
</trkpt>
<trkpt lat="46.0484900" lon="10.4879910">
	<ele>2243.60</ele>
	<time>2023-08-06T08:02:24.000Z</time>
</trkpt>
<trkpt lat="46.0484900" lon="10.4879910">
	<ele>2243.60</ele>
	<time>2023-08-06T08:02:25.000Z</time>
</trkpt>
<trkpt lat="46.0484900" lon="10.4879900">
	<ele>2243.60</ele>
	<time>2023-08-06T08:02:26.000Z</time>
</trkpt>
<trkpt lat="46.0484900" lon="10.4879900">
	<ele>2243.60</ele>
	<time>2023-08-06T08:02:27.000Z</time>
</trkpt>
<trkpt lat="46.0484910" lon="10.4879900">
	<ele>2243.60</ele>
	<time>2023-08-06T08:02:28.000Z</time>
</trkpt>
<trkpt lat="46.0484920" lon="10.4879900">
	<ele>2243.60</ele>
	<time>2023-08-06T08:02:29.000Z</time>
</trkpt>
<trkpt lat="46.0484930" lon="10.4879900">
	<ele>2243.60</ele>
	<time>2023-08-06T08:02:30.000Z</time>
</trkpt>
<trkpt lat="46.0484940" lon="10.4879900">
	<ele>2243.60</ele>
	<time>2023-08-06T08:02:31.000Z</time>
</trkpt>
<trkpt lat="46.0484940" lon="10.4879900">
	<ele>2243.60</ele>
	<time>2023-08-06T08:02:32.000Z</time>
</trkpt>
<trkpt lat="46.0484950" lon="10.4879890">
	<ele>2243.60</ele>
	<time>2023-08-06T08:02:33.000Z</time>
</trkpt>
<trkpt lat="46.0484960" lon="10.4879890">
	<ele>2243.60</ele>
	<time>2023-08-06T08:02:34.000Z</time>
</trkpt>
<trkpt lat="46.0484960" lon="10.4879890">
	<ele>2243.60</ele>
	<time>2023-08-06T08:02:35.000Z</time>
</trkpt>
<trkpt lat="46.0484960" lon="10.4879890">
	<ele>2243.40</ele>
	<time>2023-08-06T08:02:36.000Z</time>
</trkpt>
<trkpt lat="46.0484970" lon="10.4879890">
	<ele>2243.40</ele>
	<time>2023-08-06T08:02:37.000Z</time>
</trkpt>
<trkpt lat="46.0484970" lon="10.4879900">
	<ele>2243.20</ele>
	<time>2023-08-06T08:02:38.000Z</time>
</trkpt>
<trkpt lat="46.0484970" lon="10.4879900">
	<ele>2243.00</ele>
	<time>2023-08-06T08:02:39.000Z</time>
</trkpt>
<trkpt lat="46.0484970" lon="10.4879900">
	<ele>2242.80</ele>
	<time>2023-08-06T08:02:40.000Z</time>
</trkpt>
<trkpt lat="46.0484970" lon="10.4879900">
	<ele>2242.80</ele>
	<time>2023-08-06T08:02:41.000Z</time>
</trkpt>
<trkpt lat="46.0484970" lon="10.4879910">
	<ele>2242.80</ele>
	<time>2023-08-06T08:02:42.000Z</time>
</trkpt>
<trkpt lat="46.0484970" lon="10.4879910">
	<ele>2242.80</ele>
	<time>2023-08-06T08:02:43.000Z</time>
</trkpt>
<trkpt lat="46.0484940" lon="10.4879960">
	<ele>2242.80</ele>
	<time>2023-08-06T08:02:44.000Z</time>
</trkpt>
<trkpt lat="46.0484900" lon="10.4880060">
	<ele>2242.80</ele>
	<time>2023-08-06T08:02:45.000Z</time>
</trkpt>
<trkpt lat="46.0484840" lon="10.4880130">
	<ele>2242.80</ele>
	<time>2023-08-06T08:02:46.000Z</time>
</trkpt>
<trkpt lat="46.0484750" lon="10.4880250">
	<ele>2242.80</ele>
	<time>2023-08-06T08:02:47.000Z</time>
</trkpt>
<trkpt lat="46.0484670" lon="10.4880280">
	<ele>2242.80</ele>
	<time>2023-08-06T08:02:48.000Z</time>
</trkpt>
<trkpt lat="46.0484620" lon="10.4880230">
	<ele>2243.00</ele>
	<time>2023-08-06T08:02:49.000Z</time>
</trkpt>
<trkpt lat="46.0484610" lon="10.4880200">
	<ele>2243.20</ele>
	<time>2023-08-06T08:02:50.000Z</time>
</trkpt>
<trkpt lat="46.0484570" lon="10.4880220">
	<ele>2243.40</ele>
	<time>2023-08-06T08:02:51.000Z</time>
</trkpt>
<trkpt lat="46.0484540" lon="10.4880260">
	<ele>2243.60</ele>
	<time>2023-08-06T08:02:52.000Z</time>
</trkpt>
<trkpt lat="46.0484500" lon="10.4880280">
	<ele>2244.00</ele>
	<time>2023-08-06T08:02:53.000Z</time>
</trkpt>
<trkpt lat="46.0484490" lon="10.4880240">
	<ele>2244.00</ele>
	<time>2023-08-06T08:02:54.000Z</time>
</trkpt>
<trkpt lat="46.0484520" lon="10.4880250">
	<ele>2244.20</ele>
	<time>2023-08-06T08:02:55.000Z</time>
</trkpt>
<trkpt lat="46.0484500" lon="10.4880190">
	<ele>2244.40</ele>
	<time>2023-08-06T08:02:56.000Z</time>
</trkpt>
<trkpt lat="46.0484510" lon="10.4880150">
	<ele>2244.60</ele>
	<time>2023-08-06T08:02:57.000Z</time>
</trkpt>
<trkpt lat="46.0484530" lon="10.4880130">
	<ele>2244.60</ele>
	<time>2023-08-06T08:02:58.000Z</time>
</trkpt>
<trkpt lat="46.0484550" lon="10.4880110">
	<ele>2244.80</ele>
	<time>2023-08-06T08:02:59.000Z</time>
</trkpt>
<trkpt lat="46.0484580" lon="10.4880100">
	<ele>2245.00</ele>
	<time>2023-08-06T08:03:00.000Z</time>
</trkpt>
<trkpt lat="46.0484580" lon="10.4880080">
	<ele>2245.00</ele>
	<time>2023-08-06T08:03:01.000Z</time>
</trkpt>
<trkpt lat="46.0484570" lon="10.4880040">
	<ele>2245.00</ele>
	<time>2023-08-06T08:03:02.000Z</time>
</trkpt>
<trkpt lat="46.0484530" lon="10.4880040">
	<ele>2245.20</ele>
	<time>2023-08-06T08:03:03.000Z</time>
</trkpt>
<trkpt lat="46.0484510" lon="10.4880060">
	<ele>2245.20</ele>
	<time>2023-08-06T08:03:04.000Z</time>
</trkpt>
<trkpt lat="46.0484490" lon="10.4880060">
	<ele>2245.20</ele>
	<time>2023-08-06T08:03:05.000Z</time>
</trkpt>
<trkpt lat="46.0484440" lon="10.4880100">
	<ele>2245.20</ele>
	<time>2023-08-06T08:03:06.000Z</time>
</trkpt>
<trkpt lat="46.0484390" lon="10.4880030">
	<ele>2245.40</ele>
	<time>2023-08-06T08:03:07.000Z</time>
</trkpt>
<trkpt lat="46.0484360" lon="10.4879960">
	<ele>2245.40</ele>
	<time>2023-08-06T08:03:08.000Z</time>
</trkpt>
<trkpt lat="46.0484340" lon="10.4879900">
	<ele>2245.60</ele>
	<time>2023-08-06T08:03:09.000Z</time>
</trkpt>
<trkpt lat="46.0484300" lon="10.4879820">
	<ele>2245.80</ele>
	<time>2023-08-06T08:03:10.000Z</time>
</trkpt>
<trkpt lat="46.0484240" lon="10.4879730">
	<ele>2246.00</ele>
	<time>2023-08-06T08:03:11.000Z</time>
</trkpt>
<trkpt lat="46.0484230" lon="10.4879680">
	<ele>2246.00</ele>
	<time>2023-08-06T08:03:12.000Z</time>
</trkpt>
<trkpt lat="46.0484220" lon="10.4879650">
	<ele>2246.20</ele>
	<time>2023-08-06T08:03:13.000Z</time>
</trkpt>
<trkpt lat="46.0484260" lon="10.4879640">
	<ele>2246.40</ele>
	<time>2023-08-06T08:03:14.000Z</time>
</trkpt>
<trkpt lat="46.0484270" lon="10.4879680">
	<ele>2246.60</ele>
	<time>2023-08-06T08:03:15.000Z</time>
</trkpt>
<trkpt lat="46.0484250" lon="10.4879690">
	<ele>2246.60</ele>
	<time>2023-08-06T08:03:16.000Z</time>
</trkpt>
<trkpt lat="46.0484250" lon="10.4879710">
	<ele>2246.80</ele>
	<time>2023-08-06T08:03:17.000Z</time>
</trkpt>
<trkpt lat="46.0484260" lon="10.4879730">
	<ele>2246.80</ele>
	<time>2023-08-06T08:03:18.000Z</time>
</trkpt>
<trkpt lat="46.0484260" lon="10.4879730">
	<ele>2247.00</ele>
	<time>2023-08-06T08:03:19.000Z</time>
</trkpt>
<trkpt lat="46.0484260" lon="10.4879730">
	<ele>2247.00</ele>
	<time>2023-08-06T08:03:20.000Z</time>
</trkpt>
<trkpt lat="46.0484260" lon="10.4879730">
	<ele>2247.20</ele>
	<time>2023-08-06T08:03:21.000Z</time>
</trkpt>
<trkpt lat="46.0484260" lon="10.4879730">
	<ele>2247.20</ele>
	<time>2023-08-06T08:03:22.000Z</time>
</trkpt>
<trkpt lat="46.0484260" lon="10.4879730">
	<ele>2247.40</ele>
	<time>2023-08-06T08:03:23.000Z</time>
</trkpt>
<trkpt lat="46.0484260" lon="10.4879730">
	<ele>2247.40</ele>
	<time>2023-08-06T08:03:24.000Z</time>
</trkpt>
<trkpt lat="46.0484260" lon="10.4879730">
	<ele>2247.60</ele>
	<time>2023-08-06T08:03:25.000Z</time>
</trkpt>
<trkpt lat="46.0484260" lon="10.4879730">
	<ele>2247.80</ele>
	<time>2023-08-06T08:03:26.000Z</time>
</trkpt>
<trkpt lat="46.0484260" lon="10.4879730">
	<ele>2247.80</ele>
	<time>2023-08-06T08:03:27.000Z</time>
</trkpt>
<trkpt lat="46.0484260" lon="10.4879730">
	<ele>2248.20</ele>
	<time>2023-08-06T08:03:28.000Z</time>
</trkpt>
<trkpt lat="46.0484250" lon="10.4879730">
	<ele>2248.20</ele>
	<time>2023-08-06T08:03:29.000Z</time>
</trkpt>
<trkpt lat="46.0484250" lon="10.4879730">
	<ele>2248.40</ele>
	<time>2023-08-06T08:03:30.000Z</time>
</trkpt>
<trkpt lat="46.0484250" lon="10.4879730">
	<ele>2248.40</ele>
	<time>2023-08-06T08:03:31.000Z</time>
</trkpt>
<trkpt lat="46.0484230" lon="10.4879730">
	<ele>2248.60</ele>
	<time>2023-08-06T08:03:32.000Z</time>
</trkpt>
<trkpt lat="46.0484220" lon="10.4879730">
	<ele>2248.60</ele>
	<time>2023-08-06T08:03:33.000Z</time>
</trkpt>
<trkpt lat="46.0484180" lon="10.4879740">
	<ele>2248.80</ele>
	<time>2023-08-06T08:03:34.000Z</time>
</trkpt>
<trkpt lat="46.0484110" lon="10.4879610">
	<ele>2249.20</ele>
	<time>2023-08-06T08:03:35.000Z</time>
</trkpt>
<trkpt lat="46.0484050" lon="10.4879610">
	<ele>2249.20</ele>
	<time>2023-08-06T08:03:36.000Z</time>
</trkpt>
<trkpt lat="46.0483910" lon="10.4879700">
	<ele>2249.40</ele>
	<time>2023-08-06T08:03:37.000Z</time>
</trkpt>
<trkpt lat="46.0483840" lon="10.4879570">
	<ele>2249.40</ele>
	<time>2023-08-06T08:03:38.000Z</time>
</trkpt>
<trkpt lat="46.0483770" lon="10.4879540">
	<ele>2249.60</ele>
	<time>2023-08-06T08:03:39.000Z</time>
</trkpt>
<trkpt lat="46.0483710" lon="10.4879570">
	<ele>2249.60</ele>
	<time>2023-08-06T08:03:40.000Z</time>
</trkpt>
<trkpt lat="46.0483650" lon="10.4879540">
	<ele>2249.60</ele>
	<time>2023-08-06T08:03:41.000Z</time>
</trkpt>
<trkpt lat="46.0483610" lon="10.4879470">
	<ele>2249.80</ele>
	<time>2023-08-06T08:03:42.000Z</time>
</trkpt>
<trkpt lat="46.0483560" lon="10.4879400">
	<ele>2249.80</ele>
	<time>2023-08-06T08:03:43.000Z</time>
</trkpt>
<trkpt lat="46.0483570" lon="10.4879330">
	<ele>2250.20</ele>
	<time>2023-08-06T08:03:44.000Z</time>
</trkpt>
<trkpt lat="46.0483580" lon="10.4879300">
	<ele>2250.40</ele>
	<time>2023-08-06T08:03:45.000Z</time>
</trkpt>
<trkpt lat="46.0483590" lon="10.4879270">
	<ele>2250.40</ele>
	<time>2023-08-06T08:03:46.000Z</time>
</trkpt>
<trkpt lat="46.0483670" lon="10.4879340">
	<ele>2250.60</ele>
	<time>2023-08-06T08:03:47.000Z</time>
</trkpt>
<trkpt lat="46.0483590" lon="10.4879340">
	<ele>2250.80</ele>
	<time>2023-08-06T08:03:48.000Z</time>
</trkpt>
<trkpt lat="46.0483590" lon="10.4879340">
	<ele>2250.80</ele>
	<time>2023-08-06T08:03:49.000Z</time>
</trkpt>
<trkpt lat="46.0483580" lon="10.4879340">
	<ele>2250.80</ele>
	<time>2023-08-06T08:03:50.000Z</time>
</trkpt>
<trkpt lat="46.0483500" lon="10.4879300">
	<ele>2250.80</ele>
	<time>2023-08-06T08:03:51.000Z</time>
</trkpt>
<trkpt lat="46.0483450" lon="10.4879290">
	<ele>2251.00</ele>
	<time>2023-08-06T08:03:52.000Z</time>
</trkpt>
<trkpt lat="46.0483400" lon="10.4879280">
	<ele>2251.00</ele>
	<time>2023-08-06T08:03:53.000Z</time>
</trkpt>
<trkpt lat="46.0483360" lon="10.4879200">
	<ele>2251.00</ele>
	<time>2023-08-06T08:03:54.000Z</time>
</trkpt>
<trkpt lat="46.0483390" lon="10.4879220">
	<ele>2251.20</ele>
	<time>2023-08-06T08:03:55.000Z</time>
</trkpt>
<trkpt lat="46.0483400" lon="10.4879240">
	<ele>2251.20</ele>
	<time>2023-08-06T08:03:56.000Z</time>
</trkpt>
<trkpt lat="46.0483400" lon="10.4879260">
	<ele>2251.20</ele>
	<time>2023-08-06T08:03:57.000Z</time>
</trkpt>
<trkpt lat="46.0483410" lon="10.4879260">
	<ele>2251.40</ele>
	<time>2023-08-06T08:03:58.000Z</time>
</trkpt>
<trkpt lat="46.0483440" lon="10.4879110">
	<ele>2251.80</ele>
	<time>2023-08-06T08:03:59.000Z</time>
</trkpt>
<trkpt lat="46.0483410" lon="10.4879070">
	<ele>2251.80</ele>
	<time>2023-08-06T08:04:00.000Z</time>
</trkpt>
<trkpt lat="46.0483400" lon="10.4879000">
	<ele>2252.00</ele>
	<time>2023-08-06T08:04:01.000Z</time>
</trkpt>
<trkpt lat="46.0483400" lon="10.4878850">
	<ele>2252.20</ele>
	<time>2023-08-06T08:04:02.000Z</time>
</trkpt>
<trkpt lat="46.0483370" lon="10.4878820">
	<ele>2252.20</ele>
	<time>2023-08-06T08:04:03.000Z</time>
</trkpt>
<trkpt lat="46.0483420" lon="10.4878800">
	<ele>2252.40</ele>
	<time>2023-08-06T08:04:04.000Z</time>
</trkpt>
<trkpt lat="46.0483450" lon="10.4878790">
	<ele>2252.40</ele>
	<time>2023-08-06T08:04:05.000Z</time>
</trkpt>
<trkpt lat="46.0483470" lon="10.4878780">
	<ele>2252.60</ele>
	<time>2023-08-06T08:04:06.000Z</time>
</trkpt>
<trkpt lat="46.0483490" lon="10.4878770">
	<ele>2252.80</ele>
	<time>2023-08-06T08:04:07.000Z</time>
</trkpt>
<trkpt lat="46.0483450" lon="10.4878720">
	<ele>2253.00</ele>
	<time>2023-08-06T08:04:08.000Z</time>
</trkpt>
<trkpt lat="46.0483450" lon="10.4878720">
	<ele>2253.20</ele>
	<time>2023-08-06T08:04:09.000Z</time>
</trkpt>
<trkpt lat="46.0483480" lon="10.4878680">
	<ele>2253.20</ele>
	<time>2023-08-06T08:04:10.000Z</time>
</trkpt>
<trkpt lat="46.0483520" lon="10.4878640">
	<ele>2253.20</ele>
	<time>2023-08-06T08:04:11.000Z</time>
</trkpt>
<trkpt lat="46.0483530" lon="10.4878600">
	<ele>2253.40</ele>
	<time>2023-08-06T08:04:12.000Z</time>
</trkpt>
<trkpt lat="46.0483560" lon="10.4878580">
	<ele>2253.40</ele>
	<time>2023-08-06T08:04:13.000Z</time>
</trkpt>
<trkpt lat="46.0483560" lon="10.4878590">
	<ele>2253.60</ele>
	<time>2023-08-06T08:04:14.000Z</time>
</trkpt>
<trkpt lat="46.0483580" lon="10.4878620">
	<ele>2253.60</ele>
	<time>2023-08-06T08:04:15.000Z</time>
</trkpt>
<trkpt lat="46.0483590" lon="10.4878670">
	<ele>2253.80</ele>
	<time>2023-08-06T08:04:16.000Z</time>
</trkpt>
<trkpt lat="46.0483540" lon="10.4878630">
	<ele>2254.00</ele>
	<time>2023-08-06T08:04:17.000Z</time>
</trkpt>
<trkpt lat="46.0483450" lon="10.4878580">
	<ele>2254.00</ele>
	<time>2023-08-06T08:04:18.000Z</time>
</trkpt>
<trkpt lat="46.0483430" lon="10.4878540">
	<ele>2254.20</ele>
	<time>2023-08-06T08:04:19.000Z</time>
</trkpt>
<trkpt lat="46.0483360" lon="10.4878490">
	<ele>2254.20</ele>
	<time>2023-08-06T08:04:20.000Z</time>
</trkpt>
<trkpt lat="46.0483240" lon="10.4878400">
	<ele>2254.00</ele>
	<time>2023-08-06T08:04:21.000Z</time>
</trkpt>
<trkpt lat="46.0483240" lon="10.4878350">
	<ele>2254.20</ele>
	<time>2023-08-06T08:04:22.000Z</time>
</trkpt>
<trkpt lat="46.0483200" lon="10.4878270">
	<ele>2254.20</ele>
	<time>2023-08-06T08:04:23.000Z</time>
</trkpt>
<trkpt lat="46.0483220" lon="10.4878250">
	<ele>2254.20</ele>
	<time>2023-08-06T08:04:24.000Z</time>
</trkpt>
<trkpt lat="46.0483210" lon="10.4878210">
	<ele>2254.20</ele>
	<time>2023-08-06T08:04:25.000Z</time>
</trkpt>
<trkpt lat="46.0483230" lon="10.4878130">
	<ele>2254.20</ele>
	<time>2023-08-06T08:04:26.000Z</time>
</trkpt>
<trkpt lat="46.0483220" lon="10.4878110">
	<ele>2254.40</ele>
	<time>2023-08-06T08:04:27.000Z</time>
</trkpt>
<trkpt lat="46.0483200" lon="10.4878120">
	<ele>2254.40</ele>
	<time>2023-08-06T08:04:28.000Z</time>
</trkpt>
<trkpt lat="46.0483160" lon="10.4878110">
	<ele>2254.40</ele>
	<time>2023-08-06T08:04:29.000Z</time>
</trkpt>
<trkpt lat="46.0483190" lon="10.4878110">
	<ele>2254.40</ele>
	<time>2023-08-06T08:04:30.000Z</time>
</trkpt>
<trkpt lat="46.0483280" lon="10.4878130">
	<ele>2254.40</ele>
	<time>2023-08-06T08:04:31.000Z</time>
</trkpt>
<trkpt lat="46.0483370" lon="10.4878150">
	<ele>2254.40</ele>
	<time>2023-08-06T08:04:32.000Z</time>
</trkpt>
<trkpt lat="46.0483420" lon="10.4878140">
	<ele>2254.20</ele>
	<time>2023-08-06T08:04:33.000Z</time>
</trkpt>
<trkpt lat="46.0483460" lon="10.4878140">
	<ele>2254.20</ele>
	<time>2023-08-06T08:04:34.000Z</time>
</trkpt>
<trkpt lat="46.0483500" lon="10.4878140">
	<ele>2254.20</ele>
	<time>2023-08-06T08:04:35.000Z</time>
</trkpt>
<trkpt lat="46.0483530" lon="10.4878110">
	<ele>2254.00</ele>
	<time>2023-08-06T08:04:36.000Z</time>
</trkpt>
<trkpt lat="46.0483570" lon="10.4878110">
	<ele>2253.80</ele>
	<time>2023-08-06T08:04:37.000Z</time>
</trkpt>
<trkpt lat="46.0483640" lon="10.4878080">
	<ele>2253.80</ele>
	<time>2023-08-06T08:04:38.000Z</time>
</trkpt>
<trkpt lat="46.0483670" lon="10.4878090">
	<ele>2253.60</ele>
	<time>2023-08-06T08:04:39.000Z</time>
</trkpt>
<trkpt lat="46.0483690" lon="10.4878100">
	<ele>2253.60</ele>
	<time>2023-08-06T08:04:40.000Z</time>
</trkpt>
<trkpt lat="46.0483730" lon="10.4878110">
	<ele>2253.40</ele>
	<time>2023-08-06T08:04:41.000Z</time>
</trkpt>
<trkpt lat="46.0483770" lon="10.4878090">
	<ele>2253.40</ele>
	<time>2023-08-06T08:04:42.000Z</time>
</trkpt>
<trkpt lat="46.0483830" lon="10.4878080">
	<ele>2253.20</ele>
	<time>2023-08-06T08:04:43.000Z</time>
</trkpt>
<trkpt lat="46.0483870" lon="10.4878070">
	<ele>2253.40</ele>
	<time>2023-08-06T08:04:44.000Z</time>
</trkpt>
<trkpt lat="46.0483910" lon="10.4878060">
	<ele>2253.40</ele>
	<time>2023-08-06T08:04:45.000Z</time>
</trkpt>
<trkpt lat="46.0483950" lon="10.4878120">
	<ele>2253.60</ele>
	<time>2023-08-06T08:04:46.000Z</time>
</trkpt>
<trkpt lat="46.0484010" lon="10.4878130">
	<ele>2253.60</ele>
	<time>2023-08-06T08:04:47.000Z</time>
</trkpt>
<trkpt lat="46.0484040" lon="10.4878130">
	<ele>2253.60</ele>
	<time>2023-08-06T08:04:48.000Z</time>
</trkpt>
<trkpt lat="46.0484070" lon="10.4878110">
	<ele>2253.60</ele>
	<time>2023-08-06T08:04:49.000Z</time>
</trkpt>
<trkpt lat="46.0484100" lon="10.4878090">
	<ele>2254.00</ele>
	<time>2023-08-06T08:04:50.000Z</time>
</trkpt>
<trkpt lat="46.0484130" lon="10.4878070">
	<ele>2254.00</ele>
	<time>2023-08-06T08:04:51.000Z</time>
</trkpt>
<trkpt lat="46.0484210" lon="10.4878050">
	<ele>2254.20</ele>
	<time>2023-08-06T08:04:52.000Z</time>
</trkpt>
<trkpt lat="46.0484320" lon="10.4878110">
	<ele>2254.40</ele>
	<time>2023-08-06T08:04:53.000Z</time>
</trkpt>
<trkpt lat="46.0484350" lon="10.4878150">
	<ele>2254.40</ele>
	<time>2023-08-06T08:04:54.000Z</time>
</trkpt>
<trkpt lat="46.0484360" lon="10.4878170">
	<ele>2254.40</ele>
	<time>2023-08-06T08:04:55.000Z</time>
</trkpt>
<trkpt lat="46.0484390" lon="10.4878200">
	<ele>2254.40</ele>
	<time>2023-08-06T08:04:56.000Z</time>
</trkpt>
<trkpt lat="46.0484430" lon="10.4878210">
	<ele>2254.60</ele>
	<time>2023-08-06T08:04:57.000Z</time>
</trkpt>
<trkpt lat="46.0484450" lon="10.4878220">
	<ele>2254.80</ele>
	<time>2023-08-06T08:04:58.000Z</time>
</trkpt>
<trkpt lat="46.0484480" lon="10.4878220">
	<ele>2255.00</ele>
	<time>2023-08-06T08:04:59.000Z</time>
</trkpt>
<trkpt lat="46.0484500" lon="10.4878210">
	<ele>2255.20</ele>
	<time>2023-08-06T08:05:00.000Z</time>
</trkpt>
<trkpt lat="46.0484560" lon="10.4878230">
	<ele>2255.40</ele>
	<time>2023-08-06T08:05:01.000Z</time>
</trkpt>
<trkpt lat="46.0484590" lon="10.4878220">
	<ele>2255.60</ele>
	<time>2023-08-06T08:05:02.000Z</time>
</trkpt>
<trkpt lat="46.0484620" lon="10.4878230">
	<ele>2255.60</ele>
	<time>2023-08-06T08:05:03.000Z</time>
</trkpt>
<trkpt lat="46.0484700" lon="10.4878220">
	<ele>2255.60</ele>
	<time>2023-08-06T08:05:04.000Z</time>
</trkpt>
<trkpt lat="46.0484770" lon="10.4878210">
	<ele>2255.80</ele>
	<time>2023-08-06T08:05:05.000Z</time>
</trkpt>
<trkpt lat="46.0484800" lon="10.4878220">
	<ele>2255.80</ele>
	<time>2023-08-06T08:05:06.000Z</time>
</trkpt>
<trkpt lat="46.0484830" lon="10.4878230">
	<ele>2256.00</ele>
	<time>2023-08-06T08:05:07.000Z</time>
</trkpt>
<trkpt lat="46.0484860" lon="10.4878240">
	<ele>2256.00</ele>
	<time>2023-08-06T08:05:08.000Z</time>
</trkpt>
<trkpt lat="46.0484880" lon="10.4878280">
	<ele>2256.00</ele>
	<time>2023-08-06T08:05:09.000Z</time>
</trkpt>
<trkpt lat="46.0484880" lon="10.4878300">
	<ele>2256.40</ele>
	<time>2023-08-06T08:05:10.000Z</time>
</trkpt>
<trkpt lat="46.0484910" lon="10.4878310">
	<ele>2256.60</ele>
	<time>2023-08-06T08:05:11.000Z</time>
</trkpt>
<trkpt lat="46.0484930" lon="10.4878300">
	<ele>2256.60</ele>
	<time>2023-08-06T08:05:12.000Z</time>
</trkpt>
<trkpt lat="46.0484940" lon="10.4878300">
	<ele>2256.80</ele>
	<time>2023-08-06T08:05:13.000Z</time>
</trkpt>
<trkpt lat="46.0484900" lon="10.4878210">
	<ele>2256.80</ele>
	<time>2023-08-06T08:05:14.000Z</time>
</trkpt>
<trkpt lat="46.0484880" lon="10.4878110">
	<ele>2256.80</ele>
	<time>2023-08-06T08:05:15.000Z</time>
</trkpt>
<trkpt lat="46.0484870" lon="10.4878070">
	<ele>2257.00</ele>
	<time>2023-08-06T08:05:16.000Z</time>
</trkpt>
<trkpt lat="46.0484860" lon="10.4878040">
	<ele>2257.20</ele>
	<time>2023-08-06T08:05:17.000Z</time>
</trkpt>
<trkpt lat="46.0484850" lon="10.4878000">
	<ele>2257.20</ele>
	<time>2023-08-06T08:05:18.000Z</time>
</trkpt>
<trkpt lat="46.0484840" lon="10.4877980">
	<ele>2257.60</ele>
	<time>2023-08-06T08:05:19.000Z</time>
</trkpt>
<trkpt lat="46.0484850" lon="10.4877900">
	<ele>2257.60</ele>
	<time>2023-08-06T08:05:20.000Z</time>
</trkpt>
<trkpt lat="46.0484830" lon="10.4877840">
	<ele>2257.80</ele>
	<time>2023-08-06T08:05:21.000Z</time>
</trkpt>
<trkpt lat="46.0484880" lon="10.4877850">
	<ele>2257.80</ele>
	<time>2023-08-06T08:05:22.000Z</time>
</trkpt>
<trkpt lat="46.0484890" lon="10.4877850">
	<ele>2258.00</ele>
	<time>2023-08-06T08:05:23.000Z</time>
</trkpt>
<trkpt lat="46.0484890" lon="10.4877820">
	<ele>2258.00</ele>
	<time>2023-08-06T08:05:24.000Z</time>
</trkpt>
<trkpt lat="46.0484890" lon="10.4877780">
	<ele>2258.00</ele>
	<time>2023-08-06T08:05:25.000Z</time>
</trkpt>
<trkpt lat="46.0484820" lon="10.4877720">
	<ele>2258.20</ele>
	<time>2023-08-06T08:05:26.000Z</time>
</trkpt>
<trkpt lat="46.0484800" lon="10.4877670">
	<ele>2258.60</ele>
	<time>2023-08-06T08:05:27.000Z</time>
</trkpt>
<trkpt lat="46.0484800" lon="10.4877580">
	<ele>2258.80</ele>
	<time>2023-08-06T08:05:28.000Z</time>
</trkpt>
<trkpt lat="46.0484820" lon="10.4877550">
	<ele>2259.00</ele>
	<time>2023-08-06T08:05:29.000Z</time>
</trkpt>
<trkpt lat="46.0484840" lon="10.4877530">
	<ele>2259.00</ele>
	<time>2023-08-06T08:05:30.000Z</time>
</trkpt>
<trkpt lat="46.0484850" lon="10.4877520">
	<ele>2259.20</ele>
	<time>2023-08-06T08:05:31.000Z</time>
</trkpt>
<trkpt lat="46.0484840" lon="10.4877510">
	<ele>2259.20</ele>
	<time>2023-08-06T08:05:32.000Z</time>
</trkpt>
<trkpt lat="46.0484830" lon="10.4877480">
	<ele>2259.20</ele>
	<time>2023-08-06T08:05:33.000Z</time>
</trkpt>
<trkpt lat="46.0484850" lon="10.4877440">
	<ele>2259.20</ele>
	<time>2023-08-06T08:05:34.000Z</time>
</trkpt>
<trkpt lat="46.0484750" lon="10.4877350">
	<ele>2259.40</ele>
	<time>2023-08-06T08:05:35.000Z</time>
</trkpt>
<trkpt lat="46.0484750" lon="10.4877330">
	<ele>2259.60</ele>
	<time>2023-08-06T08:05:36.000Z</time>
</trkpt>
<trkpt lat="46.0484760" lon="10.4877290">
	<ele>2259.80</ele>
	<time>2023-08-06T08:05:37.000Z</time>
</trkpt>
<trkpt lat="46.0484780" lon="10.4877260">
	<ele>2259.80</ele>
	<time>2023-08-06T08:05:38.000Z</time>
</trkpt>
<trkpt lat="46.0484780" lon="10.4877210">
	<ele>2259.80</ele>
	<time>2023-08-06T08:05:39.000Z</time>
</trkpt>
<trkpt lat="46.0484800" lon="10.4877210">
	<ele>2260.00</ele>
	<time>2023-08-06T08:05:40.000Z</time>
</trkpt>
<trkpt lat="46.0484810" lon="10.4877180">
	<ele>2260.20</ele>
	<time>2023-08-06T08:05:41.000Z</time>
</trkpt>
<trkpt lat="46.0484830" lon="10.4877100">
	<ele>2260.20</ele>
	<time>2023-08-06T08:05:42.000Z</time>
</trkpt>
<trkpt lat="46.0484850" lon="10.4877060">
	<ele>2260.20</ele>
	<time>2023-08-06T08:05:43.000Z</time>
</trkpt>
<trkpt lat="46.0484850" lon="10.4877030">
	<ele>2260.40</ele>
	<time>2023-08-06T08:05:44.000Z</time>
</trkpt>
<trkpt lat="46.0484850" lon="10.4876990">
	<ele>2260.80</ele>
	<time>2023-08-06T08:05:45.000Z</time>
</trkpt>
<trkpt lat="46.0484840" lon="10.4876990">
	<ele>2260.80</ele>
	<time>2023-08-06T08:05:46.000Z</time>
</trkpt>
<trkpt lat="46.0484840" lon="10.4877020">
	<ele>2261.00</ele>
	<time>2023-08-06T08:05:47.000Z</time>
</trkpt>
<trkpt lat="46.0484820" lon="10.4877010">
	<ele>2261.00</ele>
	<time>2023-08-06T08:05:48.000Z</time>
</trkpt>
<trkpt lat="46.0484790" lon="10.4876980">
	<ele>2261.20</ele>
	<time>2023-08-06T08:05:49.000Z</time>
</trkpt>
<trkpt lat="46.0484780" lon="10.4876960">
	<ele>2261.40</ele>
	<time>2023-08-06T08:05:50.000Z</time>
</trkpt>
<trkpt lat="46.0484760" lon="10.4876940">
	<ele>2261.40</ele>
	<time>2023-08-06T08:05:51.000Z</time>
</trkpt>
<trkpt lat="46.0484800" lon="10.4877010">
	<ele>2261.60</ele>
	<time>2023-08-06T08:05:52.000Z</time>
</trkpt>
<trkpt lat="46.0484770" lon="10.4877010">
	<ele>2261.60</ele>
	<time>2023-08-06T08:05:53.000Z</time>
</trkpt>
<trkpt lat="46.0484760" lon="10.4877020">
	<ele>2262.00</ele>
	<time>2023-08-06T08:05:54.000Z</time>
</trkpt>
<trkpt lat="46.0484740" lon="10.4877000">
	<ele>2262.00</ele>
	<time>2023-08-06T08:05:55.000Z</time>
</trkpt>
<trkpt lat="46.0484720" lon="10.4876980">
	<ele>2262.20</ele>
	<time>2023-08-06T08:05:56.000Z</time>
</trkpt>
<trkpt lat="46.0484710" lon="10.4876970">
	<ele>2262.20</ele>
	<time>2023-08-06T08:05:57.000Z</time>
</trkpt>
<trkpt lat="46.0484710" lon="10.4876950">
	<ele>2262.20</ele>
	<time>2023-08-06T08:05:58.000Z</time>
</trkpt>
<trkpt lat="46.0484730" lon="10.4876970">
	<ele>2262.20</ele>
	<time>2023-08-06T08:05:59.000Z</time>
</trkpt>
<trkpt lat="46.0484720" lon="10.4876970">
	<ele>2262.40</ele>
	<time>2023-08-06T08:06:00.000Z</time>
</trkpt>
<trkpt lat="46.0484720" lon="10.4876970">
	<ele>2262.60</ele>
	<time>2023-08-06T08:06:01.000Z</time>
</trkpt>
<trkpt lat="46.0484720" lon="10.4876970">
	<ele>2262.80</ele>
	<time>2023-08-06T08:06:02.000Z</time>
</trkpt>
<trkpt lat="46.0484720" lon="10.4876970">
	<ele>2263.00</ele>
	<time>2023-08-06T08:06:03.000Z</time>
</trkpt>
<trkpt lat="46.0484720" lon="10.4876970">
	<ele>2263.20</ele>
	<time>2023-08-06T08:06:04.000Z</time>
</trkpt>
<trkpt lat="46.0484720" lon="10.4876970">
	<ele>2263.20</ele>
	<time>2023-08-06T08:06:05.000Z</time>
</trkpt>
<trkpt lat="46.0484720" lon="10.4876970">
	<ele>2263.40</ele>
	<time>2023-08-06T08:06:06.000Z</time>
</trkpt>
<trkpt lat="46.0484720" lon="10.4876970">
	<ele>2263.40</ele>
	<time>2023-08-06T08:06:07.000Z</time>
</trkpt>
<trkpt lat="46.0484720" lon="10.4876970">
	<ele>2263.60</ele>
	<time>2023-08-06T08:06:08.000Z</time>
</trkpt>
<trkpt lat="46.0484720" lon="10.4876970">
	<ele>2263.60</ele>
	<time>2023-08-06T08:06:09.000Z</time>
</trkpt>
<trkpt lat="46.0484720" lon="10.4876970">
	<ele>2263.60</ele>
	<time>2023-08-06T08:06:10.000Z</time>
</trkpt>
<trkpt lat="46.0484720" lon="10.4876970">
	<ele>2263.60</ele>
	<time>2023-08-06T08:06:11.000Z</time>
</trkpt>
<trkpt lat="46.0484720" lon="10.4876970">
	<ele>2263.80</ele>
	<time>2023-08-06T08:06:12.000Z</time>
</trkpt>
<trkpt lat="46.0484720" lon="10.4876970">
	<ele>2263.80</ele>
	<time>2023-08-06T08:06:13.000Z</time>
</trkpt>
<trkpt lat="46.0484720" lon="10.4876970">
	<ele>2263.80</ele>
	<time>2023-08-06T08:06:14.000Z</time>
</trkpt>
<trkpt lat="46.0484720" lon="10.4876950">
	<ele>2264.00</ele>
	<time>2023-08-06T08:06:15.000Z</time>
</trkpt>
<trkpt lat="46.0484710" lon="10.4876950">
	<ele>2264.00</ele>
	<time>2023-08-06T08:06:16.000Z</time>
</trkpt>
<trkpt lat="46.0484710" lon="10.4876950">
	<ele>2264.00</ele>
	<time>2023-08-06T08:06:17.000Z</time>
</trkpt>
<trkpt lat="46.0484680" lon="10.4876950">
	<ele>2264.20</ele>
	<time>2023-08-06T08:06:18.000Z</time>
</trkpt>
<trkpt lat="46.0484670" lon="10.4876940">
	<ele>2264.20</ele>
	<time>2023-08-06T08:06:19.000Z</time>
</trkpt>
<trkpt lat="46.0484630" lon="10.4876910">
	<ele>2264.20</ele>
	<time>2023-08-06T08:06:20.000Z</time>
</trkpt>
<trkpt lat="46.0484600" lon="10.4876900">
	<ele>2264.20</ele>
	<time>2023-08-06T08:06:21.000Z</time>
</trkpt>
<trkpt lat="46.0484600" lon="10.4876870">
	<ele>2264.20</ele>
	<time>2023-08-06T08:06:22.000Z</time>
</trkpt>
<trkpt lat="46.0484590" lon="10.4876710">
	<ele>2264.20</ele>
	<time>2023-08-06T08:06:23.000Z</time>
</trkpt>
<trkpt lat="46.0484580" lon="10.4876670">
	<ele>2264.00</ele>
	<time>2023-08-06T08:06:24.000Z</time>
</trkpt>
<trkpt lat="46.0484570" lon="10.4876650">
	<ele>2264.00</ele>
	<time>2023-08-06T08:06:25.000Z</time>
</trkpt>
<trkpt lat="46.0484570" lon="10.4876620">
	<ele>2264.00</ele>
	<time>2023-08-06T08:06:26.000Z</time>
</trkpt>
<trkpt lat="46.0484570" lon="10.4876590">
	<ele>2264.00</ele>
	<time>2023-08-06T08:06:27.000Z</time>
</trkpt>
<trkpt lat="46.0484570" lon="10.4876590">
	<ele>2264.00</ele>
	<time>2023-08-06T08:06:28.000Z</time>
</trkpt>
<trkpt lat="46.0484570" lon="10.4876580">
	<ele>2264.00</ele>
	<time>2023-08-06T08:06:29.000Z</time>
</trkpt>
<trkpt lat="46.0484530" lon="10.4876550">
	<ele>2264.00</ele>
	<time>2023-08-06T08:06:30.000Z</time>
</trkpt>
<trkpt lat="46.0484520" lon="10.4876540">
	<ele>2263.80</ele>
	<time>2023-08-06T08:06:31.000Z</time>
</trkpt>
<trkpt lat="46.0484510" lon="10.4876530">
	<ele>2263.80</ele>
	<time>2023-08-06T08:06:32.000Z</time>
</trkpt>
<trkpt lat="46.0484510" lon="10.4876530">
	<ele>2263.80</ele>
	<time>2023-08-06T08:06:33.000Z</time>
</trkpt>
<trkpt lat="46.0484510" lon="10.4876520">
	<ele>2263.80</ele>
	<time>2023-08-06T08:06:34.000Z</time>
</trkpt>
<trkpt lat="46.0484510" lon="10.4876520">
	<ele>2263.80</ele>
	<time>2023-08-06T08:06:35.000Z</time>
</trkpt>
<trkpt lat="46.0484510" lon="10.4876520">
	<ele>2263.80</ele>
	<time>2023-08-06T08:06:36.000Z</time>
</trkpt>
<trkpt lat="46.0484510" lon="10.4876510">
	<ele>2263.80</ele>
	<time>2023-08-06T08:06:37.000Z</time>
</trkpt>
<trkpt lat="46.0484510" lon="10.4876510">
	<ele>2263.80</ele>
	<time>2023-08-06T08:06:38.000Z</time>
</trkpt>
<trkpt lat="46.0484510" lon="10.4876510">
	<ele>2263.80</ele>
	<time>2023-08-06T08:06:39.000Z</time>
</trkpt>
<trkpt lat="46.0484510" lon="10.4876510">
	<ele>2263.80</ele>
	<time>2023-08-06T08:06:40.000Z</time>
</trkpt>
<trkpt lat="46.0484510" lon="10.4876510">
	<ele>2263.80</ele>
	<time>2023-08-06T08:06:41.000Z</time>
</trkpt>
<trkpt lat="46.0484510" lon="10.4876510">
	<ele>2263.60</ele>
	<time>2023-08-06T08:06:42.000Z</time>
</trkpt>
<trkpt lat="46.0484510" lon="10.4876510">
	<ele>2263.60</ele>
	<time>2023-08-06T08:06:43.000Z</time>
</trkpt>
<trkpt lat="46.0484510" lon="10.4876510">
	<ele>2263.60</ele>
	<time>2023-08-06T08:06:44.000Z</time>
</trkpt>
<trkpt lat="46.0484510" lon="10.4876510">
	<ele>2263.60</ele>
	<time>2023-08-06T08:06:45.000Z</time>
</trkpt>
<trkpt lat="46.0484520" lon="10.4876510">
	<ele>2263.80</ele>
	<time>2023-08-06T08:06:46.000Z</time>
</trkpt>
<trkpt lat="46.0484520" lon="10.4876510">
	<ele>2263.80</ele>
	<time>2023-08-06T08:06:47.000Z</time>
</trkpt>
<trkpt lat="46.0484530" lon="10.4876510">
	<ele>2263.80</ele>
	<time>2023-08-06T08:06:48.000Z</time>
</trkpt>
<trkpt lat="46.0484530" lon="10.4876510">
	<ele>2264.00</ele>
	<time>2023-08-06T08:06:49.000Z</time>
</trkpt>
<trkpt lat="46.0484550" lon="10.4876510">
	<ele>2264.00</ele>
	<time>2023-08-06T08:06:50.000Z</time>
</trkpt>
<trkpt lat="46.0484550" lon="10.4876500">
	<ele>2264.20</ele>
	<time>2023-08-06T08:06:51.000Z</time>
</trkpt>
<trkpt lat="46.0484560" lon="10.4876500">
	<ele>2264.20</ele>
	<time>2023-08-06T08:06:52.000Z</time>
</trkpt>
<trkpt lat="46.0484560" lon="10.4876500">
	<ele>2264.40</ele>
	<time>2023-08-06T08:06:53.000Z</time>
</trkpt>
<trkpt lat="46.0484570" lon="10.4876500">
	<ele>2264.60</ele>
	<time>2023-08-06T08:06:54.000Z</time>
</trkpt>
<trkpt lat="46.0484580" lon="10.4876500">
	<ele>2264.80</ele>
	<time>2023-08-06T08:06:55.000Z</time>
</trkpt>
<trkpt lat="46.0484580" lon="10.4876500">
	<ele>2265.00</ele>
	<time>2023-08-06T08:06:56.000Z</time>
</trkpt>
<trkpt lat="46.0484590" lon="10.4876500">
	<ele>2265.20</ele>
	<time>2023-08-06T08:06:57.000Z</time>
</trkpt>
<trkpt lat="46.0484600" lon="10.4876500">
	<ele>2265.40</ele>
	<time>2023-08-06T08:06:58.000Z</time>
</trkpt>
<trkpt lat="46.0484610" lon="10.4876500">
	<ele>2265.60</ele>
	<time>2023-08-06T08:06:59.000Z</time>
</trkpt>
<trkpt lat="46.0484620" lon="10.4876500">
	<ele>2265.60</ele>
	<time>2023-08-06T08:07:00.000Z</time>
</trkpt>
<trkpt lat="46.0484630" lon="10.4876500">
	<ele>2265.80</ele>
	<time>2023-08-06T08:07:01.000Z</time>
</trkpt>
<trkpt lat="46.0484630" lon="10.4876500">
	<ele>2266.00</ele>
	<time>2023-08-06T08:07:02.000Z</time>
</trkpt>
<trkpt lat="46.0484640" lon="10.4876500">
	<ele>2266.00</ele>
	<time>2023-08-06T08:07:03.000Z</time>
</trkpt>
<trkpt lat="46.0484640" lon="10.4876500">
	<ele>2266.20</ele>
	<time>2023-08-06T08:07:04.000Z</time>
</trkpt>
<trkpt lat="46.0484640" lon="10.4876490">
	<ele>2266.20</ele>
	<time>2023-08-06T08:07:05.000Z</time>
</trkpt>
<trkpt lat="46.0484640" lon="10.4876480">
	<ele>2266.20</ele>
	<time>2023-08-06T08:07:06.000Z</time>
</trkpt>
<trkpt lat="46.0484650" lon="10.4876440">
	<ele>2266.20</ele>
	<time>2023-08-06T08:07:07.000Z</time>
</trkpt>
<trkpt lat="46.0484650" lon="10.4876400">
	<ele>2266.40</ele>
	<time>2023-08-06T08:07:08.000Z</time>
</trkpt>
<trkpt lat="46.0484670" lon="10.4876370">
	<ele>2266.40</ele>
	<time>2023-08-06T08:07:09.000Z</time>
</trkpt>
<trkpt lat="46.0484720" lon="10.4876320">
	<ele>2266.40</ele>
	<time>2023-08-06T08:07:10.000Z</time>
</trkpt>
<trkpt lat="46.0484750" lon="10.4876300">
	<ele>2266.40</ele>
	<time>2023-08-06T08:07:11.000Z</time>
</trkpt>
<trkpt lat="46.0484810" lon="10.4876290">
	<ele>2266.60</ele>
	<time>2023-08-06T08:07:12.000Z</time>
</trkpt>
<trkpt lat="46.0484830" lon="10.4876280">
	<ele>2266.80</ele>
	<time>2023-08-06T08:07:13.000Z</time>
</trkpt>
<trkpt lat="46.0484870" lon="10.4876270">
	<ele>2266.80</ele>
	<time>2023-08-06T08:07:14.000Z</time>
</trkpt>
<trkpt lat="46.0484910" lon="10.4876270">
	<ele>2267.20</ele>
	<time>2023-08-06T08:07:15.000Z</time>
</trkpt>
<trkpt lat="46.0484940" lon="10.4876270">
	<ele>2267.20</ele>
	<time>2023-08-06T08:07:16.000Z</time>
</trkpt>
<trkpt lat="46.0485010" lon="10.4876260">
	<ele>2267.40</ele>
	<time>2023-08-06T08:07:17.000Z</time>
</trkpt>
<trkpt lat="46.0485080" lon="10.4876250">
	<ele>2267.40</ele>
	<time>2023-08-06T08:07:18.000Z</time>
</trkpt>
<trkpt lat="46.0485120" lon="10.4876250">
	<ele>2267.40</ele>
	<time>2023-08-06T08:07:19.000Z</time>
</trkpt>
<trkpt lat="46.0485150" lon="10.4876200">
	<ele>2267.40</ele>
	<time>2023-08-06T08:07:20.000Z</time>
</trkpt>
<trkpt lat="46.0485170" lon="10.4876160">
	<ele>2267.60</ele>
	<time>2023-08-06T08:07:21.000Z</time>
</trkpt>
<trkpt lat="46.0485180" lon="10.4876120">
	<ele>2267.80</ele>
	<time>2023-08-06T08:07:22.000Z</time>
</trkpt>
<trkpt lat="46.0485190" lon="10.4876070">
	<ele>2267.80</ele>
	<time>2023-08-06T08:07:23.000Z</time>
</trkpt>
<trkpt lat="46.0485200" lon="10.4876050">
	<ele>2267.80</ele>
	<time>2023-08-06T08:07:24.000Z</time>
</trkpt>
<trkpt lat="46.0485200" lon="10.4876030">
	<ele>2267.80</ele>
	<time>2023-08-06T08:07:25.000Z</time>
</trkpt>
<trkpt lat="46.0485200" lon="10.4875990">
	<ele>2267.80</ele>
	<time>2023-08-06T08:07:26.000Z</time>
</trkpt>
<trkpt lat="46.0485200" lon="10.4875930">
	<ele>2267.80</ele>
	<time>2023-08-06T08:07:27.000Z</time>
</trkpt>
<trkpt lat="46.0485200" lon="10.4875880">
	<ele>2267.60</ele>
	<time>2023-08-06T08:07:28.000Z</time>
</trkpt>
<trkpt lat="46.0485200" lon="10.4875860">
	<ele>2267.60</ele>
	<time>2023-08-06T08:07:29.000Z</time>
</trkpt>
<trkpt lat="46.0485200" lon="10.4875850">
	<ele>2267.60</ele>
	<time>2023-08-06T08:07:30.000Z</time>
</trkpt>
<trkpt lat="46.0485200" lon="10.4875850">
	<ele>2267.20</ele>
	<time>2023-08-06T08:07:31.000Z</time>
</trkpt>
<trkpt lat="46.0485200" lon="10.4875840">
	<ele>2267.00</ele>
	<time>2023-08-06T08:07:32.000Z</time>
</trkpt>
<trkpt lat="46.0485200" lon="10.4875840">
	<ele>2266.80</ele>
	<time>2023-08-06T08:07:33.000Z</time>
</trkpt>
<trkpt lat="46.0485200" lon="10.4875840">
	<ele>2266.80</ele>
	<time>2023-08-06T08:07:34.000Z</time>
</trkpt>
<trkpt lat="46.0485210" lon="10.4875840">
	<ele>2266.80</ele>
	<time>2023-08-06T08:07:35.000Z</time>
</trkpt>
<trkpt lat="46.0485200" lon="10.4875840">
	<ele>2266.80</ele>
	<time>2023-08-06T08:07:36.000Z</time>
</trkpt>
<trkpt lat="46.0485200" lon="10.4875830">
	<ele>2267.00</ele>
	<time>2023-08-06T08:07:37.000Z</time>
</trkpt>
<trkpt lat="46.0485200" lon="10.4875830">
	<ele>2267.20</ele>
	<time>2023-08-06T08:07:38.000Z</time>
</trkpt>
<trkpt lat="46.0485200" lon="10.4875830">
	<ele>2267.60</ele>
	<time>2023-08-06T08:07:39.000Z</time>
</trkpt>
<trkpt lat="46.0485200" lon="10.4875830">
	<ele>2267.80</ele>
	<time>2023-08-06T08:07:40.000Z</time>
</trkpt>
<trkpt lat="46.0485190" lon="10.4875820">
	<ele>2268.00</ele>
	<time>2023-08-06T08:07:41.000Z</time>
</trkpt>
<trkpt lat="46.0485190" lon="10.4875820">
	<ele>2268.00</ele>
	<time>2023-08-06T08:07:42.000Z</time>
</trkpt>
<trkpt lat="46.0485180" lon="10.4875810">
	<ele>2268.20</ele>
	<time>2023-08-06T08:07:43.000Z</time>
</trkpt>
<trkpt lat="46.0485180" lon="10.4875810">
	<ele>2268.20</ele>
	<time>2023-08-06T08:07:44.000Z</time>
</trkpt>
<trkpt lat="46.0485180" lon="10.4875810">
	<ele>2268.20</ele>
	<time>2023-08-06T08:07:45.000Z</time>
</trkpt>
<trkpt lat="46.0485180" lon="10.4875810">
	<ele>2268.40</ele>
	<time>2023-08-06T08:07:46.000Z</time>
</trkpt>
<trkpt lat="46.0485180" lon="10.4875810">
	<ele>2268.40</ele>
	<time>2023-08-06T08:07:47.000Z</time>
</trkpt>
<trkpt lat="46.0485170" lon="10.4875810">
	<ele>2268.40</ele>
	<time>2023-08-06T08:07:48.000Z</time>
</trkpt>
<trkpt lat="46.0485170" lon="10.4875790">
	<ele>2268.40</ele>
	<time>2023-08-06T08:07:49.000Z</time>
</trkpt>
<trkpt lat="46.0485170" lon="10.4875760">
	<ele>2268.40</ele>
	<time>2023-08-06T08:07:50.000Z</time>
</trkpt>
<trkpt lat="46.0485160" lon="10.4875700">
	<ele>2268.60</ele>
	<time>2023-08-06T08:07:51.000Z</time>
</trkpt>
<trkpt lat="46.0485160" lon="10.4875680">
	<ele>2268.60</ele>
	<time>2023-08-06T08:07:52.000Z</time>
</trkpt>
<trkpt lat="46.0485140" lon="10.4875660">
	<ele>2268.60</ele>
	<time>2023-08-06T08:07:53.000Z</time>
</trkpt>
<trkpt lat="46.0485100" lon="10.4875650">
	<ele>2268.80</ele>
	<time>2023-08-06T08:07:54.000Z</time>
</trkpt>
<trkpt lat="46.0485060" lon="10.4875650">
	<ele>2268.80</ele>
	<time>2023-08-06T08:07:55.000Z</time>
</trkpt>
<trkpt lat="46.0485010" lon="10.4875640">
	<ele>2269.00</ele>
	<time>2023-08-06T08:07:56.000Z</time>
</trkpt>
<trkpt lat="46.0484970" lon="10.4875640">
	<ele>2269.00</ele>
	<time>2023-08-06T08:07:57.000Z</time>
</trkpt>
<trkpt lat="46.0484950" lon="10.4875640">
	<ele>2269.00</ele>
	<time>2023-08-06T08:07:58.000Z</time>
</trkpt>
<trkpt lat="46.0484890" lon="10.4875640">
	<ele>2269.20</ele>
	<time>2023-08-06T08:07:59.000Z</time>
</trkpt>
<trkpt lat="46.0484810" lon="10.4875600">
	<ele>2269.20</ele>
	<time>2023-08-06T08:08:00.000Z</time>
</trkpt>
<trkpt lat="46.0484800" lon="10.4875610">
	<ele>2269.40</ele>
	<time>2023-08-06T08:08:01.000Z</time>
</trkpt>
<trkpt lat="46.0484750" lon="10.4875600">
	<ele>2269.60</ele>
	<time>2023-08-06T08:08:02.000Z</time>
</trkpt>
<trkpt lat="46.0484720" lon="10.4875570">
	<ele>2269.80</ele>
	<time>2023-08-06T08:08:03.000Z</time>
</trkpt>
<trkpt lat="46.0484660" lon="10.4875530">
	<ele>2270.00</ele>
	<time>2023-08-06T08:08:04.000Z</time>
</trkpt>
<trkpt lat="46.0484610" lon="10.4875480">
	<ele>2270.00</ele>
	<time>2023-08-06T08:08:05.000Z</time>
</trkpt>
<trkpt lat="46.0484560" lon="10.4875400">
	<ele>2270.20</ele>
	<time>2023-08-06T08:08:06.000Z</time>
</trkpt>
<trkpt lat="46.0484510" lon="10.4875390">
	<ele>2270.40</ele>
	<time>2023-08-06T08:08:07.000Z</time>
</trkpt>
<trkpt lat="46.0484450" lon="10.4875370">
	<ele>2270.40</ele>
	<time>2023-08-06T08:08:08.000Z</time>
</trkpt>
<trkpt lat="46.0484450" lon="10.4875350">
	<ele>2270.60</ele>
	<time>2023-08-06T08:08:09.000Z</time>
</trkpt>
<trkpt lat="46.0484460" lon="10.4875310">
	<ele>2270.80</ele>
	<time>2023-08-06T08:08:10.000Z</time>
</trkpt>
<trkpt lat="46.0484490" lon="10.4875220">
	<ele>2270.80</ele>
	<time>2023-08-06T08:08:11.000Z</time>
</trkpt>
<trkpt lat="46.0484500" lon="10.4875190">
	<ele>2270.80</ele>
	<time>2023-08-06T08:08:12.000Z</time>
</trkpt>
<trkpt lat="46.0484510" lon="10.4875170">
	<ele>2270.80</ele>
	<time>2023-08-06T08:08:13.000Z</time>
</trkpt>
<trkpt lat="46.0484520" lon="10.4875110">
	<ele>2271.00</ele>
	<time>2023-08-06T08:08:14.000Z</time>
</trkpt>
<trkpt lat="46.0484510" lon="10.4875090">
	<ele>2271.00</ele>
	<time>2023-08-06T08:08:15.000Z</time>
</trkpt>
<trkpt lat="46.0484530" lon="10.4875060">
	<ele>2271.00</ele>
	<time>2023-08-06T08:08:16.000Z</time>
</trkpt>
<trkpt lat="46.0484520" lon="10.4875020">
	<ele>2271.20</ele>
	<time>2023-08-06T08:08:17.000Z</time>
</trkpt>
<trkpt lat="46.0484530" lon="10.4875000">
	<ele>2271.20</ele>
	<time>2023-08-06T08:08:18.000Z</time>
</trkpt>
<trkpt lat="46.0484530" lon="10.4874980">
	<ele>2271.20</ele>
	<time>2023-08-06T08:08:19.000Z</time>
</trkpt>
<trkpt lat="46.0484540" lon="10.4874910">
	<ele>2271.40</ele>
	<time>2023-08-06T08:08:20.000Z</time>
</trkpt>
<trkpt lat="46.0484560" lon="10.4874880">
	<ele>2271.60</ele>
	<time>2023-08-06T08:08:21.000Z</time>
</trkpt>
<trkpt lat="46.0484610" lon="10.4874830">
	<ele>2271.80</ele>
	<time>2023-08-06T08:08:22.000Z</time>
</trkpt>
<trkpt lat="46.0484630" lon="10.4874830">
	<ele>2272.00</ele>
	<time>2023-08-06T08:08:23.000Z</time>
</trkpt>
<trkpt lat="46.0484720" lon="10.4874810">
	<ele>2272.20</ele>
	<time>2023-08-06T08:08:24.000Z</time>
</trkpt>
<trkpt lat="46.0484800" lon="10.4874860">
	<ele>2272.40</ele>
	<time>2023-08-06T08:08:25.000Z</time>
</trkpt>
<trkpt lat="46.0484810" lon="10.4874840">
	<ele>2272.40</ele>
	<time>2023-08-06T08:08:26.000Z</time>
</trkpt>
<trkpt lat="46.0484850" lon="10.4874820">
	<ele>2272.60</ele>
	<time>2023-08-06T08:08:27.000Z</time>
</trkpt>
<trkpt lat="46.0484910" lon="10.4874810">
	<ele>2272.60</ele>
	<time>2023-08-06T08:08:28.000Z</time>
</trkpt>
<trkpt lat="46.0484910" lon="10.4874740">
	<ele>2272.40</ele>
	<time>2023-08-06T08:08:29.000Z</time>
</trkpt>
<trkpt lat="46.0484920" lon="10.4874710">
	<ele>2272.40</ele>
	<time>2023-08-06T08:08:30.000Z</time>
</trkpt>
<trkpt lat="46.0484930" lon="10.4874620">
	<ele>2272.40</ele>
	<time>2023-08-06T08:08:31.000Z</time>
</trkpt>
<trkpt lat="46.0484930" lon="10.4874590">
	<ele>2272.40</ele>
	<time>2023-08-06T08:08:32.000Z</time>
</trkpt>
<trkpt lat="46.0484950" lon="10.4874550">
	<ele>2272.40</ele>
	<time>2023-08-06T08:08:33.000Z</time>
</trkpt>
<trkpt lat="46.0484960" lon="10.4874540">
	<ele>2272.40</ele>
	<time>2023-08-06T08:08:34.000Z</time>
</trkpt>
<trkpt lat="46.0484970" lon="10.4874530">
	<ele>2272.60</ele>
	<time>2023-08-06T08:08:35.000Z</time>
</trkpt>
<trkpt lat="46.0484980" lon="10.4874540">
	<ele>2272.60</ele>
	<time>2023-08-06T08:08:36.000Z</time>
</trkpt>
<trkpt lat="46.0485000" lon="10.4874530">
	<ele>2272.60</ele>
	<time>2023-08-06T08:08:37.000Z</time>
</trkpt>
<trkpt lat="46.0485000" lon="10.4874510">
	<ele>2272.60</ele>
	<time>2023-08-06T08:08:38.000Z</time>
</trkpt>
<trkpt lat="46.0485000" lon="10.4874490">
	<ele>2272.60</ele>
	<time>2023-08-06T08:08:39.000Z</time>
</trkpt>
<trkpt lat="46.0485000" lon="10.4874480">
	<ele>2272.40</ele>
	<time>2023-08-06T08:08:40.000Z</time>
</trkpt>
<trkpt lat="46.0485000" lon="10.4874480">
	<ele>2272.40</ele>
	<time>2023-08-06T08:08:41.000Z</time>
</trkpt>
<trkpt lat="46.0485000" lon="10.4874480">
	<ele>2272.40</ele>
	<time>2023-08-06T08:08:42.000Z</time>
</trkpt>
<trkpt lat="46.0485000" lon="10.4874480">
	<ele>2272.40</ele>
	<time>2023-08-06T08:08:43.000Z</time>
</trkpt>
<trkpt lat="46.0485000" lon="10.4874480">
	<ele>2272.40</ele>
	<time>2023-08-06T08:08:44.000Z</time>
</trkpt>
<trkpt lat="46.0485000" lon="10.4874480">
	<ele>2272.40</ele>
	<time>2023-08-06T08:08:45.000Z</time>
</trkpt>
<trkpt lat="46.0485000" lon="10.4874480">
	<ele>2272.40</ele>
	<time>2023-08-06T08:08:46.000Z</time>
</trkpt>
<trkpt lat="46.0485000" lon="10.4874480">
	<ele>2272.40</ele>
	<time>2023-08-06T08:08:47.000Z</time>
</trkpt>
<trkpt lat="46.0485000" lon="10.4874480">
	<ele>2272.40</ele>
	<time>2023-08-06T08:08:48.000Z</time>
</trkpt>
<trkpt lat="46.0485000" lon="10.4874480">
	<ele>2272.40</ele>
	<time>2023-08-06T08:08:49.000Z</time>
</trkpt>
<trkpt lat="46.0485000" lon="10.4874480">
	<ele>2272.40</ele>
	<time>2023-08-06T08:08:50.000Z</time>
</trkpt>
<trkpt lat="46.0485000" lon="10.4874480">
	<ele>2272.40</ele>
	<time>2023-08-06T08:08:51.000Z</time>
</trkpt>
<trkpt lat="46.0485000" lon="10.4874490">
	<ele>2272.40</ele>
	<time>2023-08-06T08:08:52.000Z</time>
</trkpt>
<trkpt lat="46.0484990" lon="10.4874500">
	<ele>2272.40</ele>
	<time>2023-08-06T08:08:53.000Z</time>
</trkpt>
<trkpt lat="46.0484990" lon="10.4874510">
	<ele>2272.40</ele>
	<time>2023-08-06T08:08:54.000Z</time>
</trkpt>
<trkpt lat="46.0484990" lon="10.4874520">
	<ele>2272.60</ele>
	<time>2023-08-06T08:08:55.000Z</time>
</trkpt>
<trkpt lat="46.0484990" lon="10.4874530">
	<ele>2272.60</ele>
	<time>2023-08-06T08:08:56.000Z</time>
</trkpt>
<trkpt lat="46.0484990" lon="10.4874530">
	<ele>2272.40</ele>
	<time>2023-08-06T08:08:57.000Z</time>
</trkpt>
<trkpt lat="46.0484980" lon="10.4874540">
	<ele>2272.40</ele>
	<time>2023-08-06T08:08:58.000Z</time>
</trkpt>
<trkpt lat="46.0484980" lon="10.4874540">
	<ele>2272.40</ele>
	<time>2023-08-06T08:08:59.000Z</time>
</trkpt>
<trkpt lat="46.0484980" lon="10.4874550">
	<ele>2272.40</ele>
	<time>2023-08-06T08:09:00.000Z</time>
</trkpt>
<trkpt lat="46.0484980" lon="10.4874560">
	<ele>2272.40</ele>
	<time>2023-08-06T08:09:01.000Z</time>
</trkpt>
<trkpt lat="46.0484980" lon="10.4874560">
	<ele>2272.40</ele>
	<time>2023-08-06T08:09:02.000Z</time>
</trkpt>
<trkpt lat="46.0484980" lon="10.4874610">
	<ele>2272.60</ele>
	<time>2023-08-06T08:09:03.000Z</time>
</trkpt>
<trkpt lat="46.0484980" lon="10.4874630">
	<ele>2272.60</ele>
	<time>2023-08-06T08:09:04.000Z</time>
</trkpt>
<trkpt lat="46.0484980" lon="10.4874650">
	<ele>2272.60</ele>
	<time>2023-08-06T08:09:05.000Z</time>
</trkpt>
<trkpt lat="46.0484980" lon="10.4874690">
	<ele>2272.40</ele>
	<time>2023-08-06T08:09:06.000Z</time>
</trkpt>
<trkpt lat="46.0484980" lon="10.4874700">
	<ele>2272.60</ele>
	<time>2023-08-06T08:09:07.000Z</time>
</trkpt>
<trkpt lat="46.0484980" lon="10.4874710">
	<ele>2272.60</ele>
	<time>2023-08-06T08:09:08.000Z</time>
</trkpt>
<trkpt lat="46.0484980" lon="10.4874720">
	<ele>2272.60</ele>
	<time>2023-08-06T08:09:09.000Z</time>
</trkpt>
<trkpt lat="46.0484980" lon="10.4874750">
	<ele>2272.60</ele>
	<time>2023-08-06T08:09:10.000Z</time>
</trkpt>
<trkpt lat="46.0484980" lon="10.4874800">
	<ele>2272.60</ele>
	<time>2023-08-06T08:09:11.000Z</time>
</trkpt>
<trkpt lat="46.0484980" lon="10.4874850">
	<ele>2272.60</ele>
	<time>2023-08-06T08:09:12.000Z</time>
</trkpt>
<trkpt lat="46.0484980" lon="10.4874880">
	<ele>2272.60</ele>
	<time>2023-08-06T08:09:13.000Z</time>
</trkpt>
<trkpt lat="46.0484980" lon="10.4874900">
	<ele>2272.60</ele>
	<time>2023-08-06T08:09:14.000Z</time>
</trkpt>
<trkpt lat="46.0484980" lon="10.4874910">
	<ele>2272.60</ele>
	<time>2023-08-06T08:09:15.000Z</time>
</trkpt>
<trkpt lat="46.0484980" lon="10.4874910">
	<ele>2272.40</ele>
	<time>2023-08-06T08:09:16.000Z</time>
</trkpt>
<trkpt lat="46.0484980" lon="10.4874910">
	<ele>2272.40</ele>
	<time>2023-08-06T08:09:17.000Z</time>
</trkpt>
<trkpt lat="46.0484970" lon="10.4874910">
	<ele>2272.40</ele>
	<time>2023-08-06T08:09:18.000Z</time>
</trkpt>
<trkpt lat="46.0484970" lon="10.4874910">
	<ele>2272.40</ele>
	<time>2023-08-06T08:09:19.000Z</time>
</trkpt>
<trkpt lat="46.0484970" lon="10.4874910">
	<ele>2272.60</ele>
	<time>2023-08-06T08:09:20.000Z</time>
</trkpt>
<trkpt lat="46.0484970" lon="10.4874910">
	<ele>2272.40</ele>
	<time>2023-08-06T08:09:21.000Z</time>
</trkpt>
<trkpt lat="46.0484970" lon="10.4874910">
	<ele>2272.60</ele>
	<time>2023-08-06T08:09:22.000Z</time>
</trkpt>
<trkpt lat="46.0484970" lon="10.4874910">
	<ele>2272.60</ele>
	<time>2023-08-06T08:09:23.000Z</time>
</trkpt>
<trkpt lat="46.0484970" lon="10.4874910">
	<ele>2272.60</ele>
	<time>2023-08-06T08:09:24.000Z</time>
</trkpt>
<trkpt lat="46.0484970" lon="10.4874910">
	<ele>2272.80</ele>
	<time>2023-08-06T08:09:25.000Z</time>
</trkpt>
<trkpt lat="46.0484970" lon="10.4874910">
	<ele>2272.80</ele>
	<time>2023-08-06T08:09:26.000Z</time>
</trkpt>
<trkpt lat="46.0484970" lon="10.4874910">
	<ele>2273.00</ele>
	<time>2023-08-06T08:09:27.000Z</time>
</trkpt>
<trkpt lat="46.0484980" lon="10.4874910">
	<ele>2273.20</ele>
	<time>2023-08-06T08:09:28.000Z</time>
</trkpt>
<trkpt lat="46.0484980" lon="10.4874910">
	<ele>2273.40</ele>
	<time>2023-08-06T08:09:29.000Z</time>
</trkpt>
<trkpt lat="46.0484980" lon="10.4874880">
	<ele>2273.40</ele>
	<time>2023-08-06T08:09:30.000Z</time>
</trkpt>
<trkpt lat="46.0484980" lon="10.4874850">
	<ele>2273.40</ele>
	<time>2023-08-06T08:09:31.000Z</time>
</trkpt>
<trkpt lat="46.0484980" lon="10.4874830">
	<ele>2273.40</ele>
	<time>2023-08-06T08:09:32.000Z</time>
</trkpt>
<trkpt lat="46.0484980" lon="10.4874750">
	<ele>2273.40</ele>
	<time>2023-08-06T08:09:33.000Z</time>
</trkpt>
<trkpt lat="46.0484990" lon="10.4874700">
	<ele>2273.60</ele>
	<time>2023-08-06T08:09:34.000Z</time>
</trkpt>
<trkpt lat="46.0484990" lon="10.4874680">
	<ele>2273.60</ele>
	<time>2023-08-06T08:09:35.000Z</time>
</trkpt>
<trkpt lat="46.0485000" lon="10.4874660">
	<ele>2273.60</ele>
	<time>2023-08-06T08:09:36.000Z</time>
</trkpt>
<trkpt lat="46.0485000" lon="10.4874630">
	<ele>2273.60</ele>
	<time>2023-08-06T08:09:37.000Z</time>
</trkpt>
<trkpt lat="46.0485050" lon="10.4874620">
	<ele>2273.80</ele>
	<time>2023-08-06T08:09:38.000Z</time>
</trkpt>
<trkpt lat="46.0485090" lon="10.4874620">
	<ele>2274.00</ele>
	<time>2023-08-06T08:09:39.000Z</time>
</trkpt>
<trkpt lat="46.0485130" lon="10.4874600">
	<ele>2274.20</ele>
	<time>2023-08-06T08:09:40.000Z</time>
</trkpt>
<trkpt lat="46.0485160" lon="10.4874590">
	<ele>2274.40</ele>
	<time>2023-08-06T08:09:41.000Z</time>
</trkpt>
<trkpt lat="46.0485180" lon="10.4874570">
	<ele>2274.40</ele>
	<time>2023-08-06T08:09:42.000Z</time>
</trkpt>
<trkpt lat="46.0485190" lon="10.4874560">
	<ele>2274.60</ele>
	<time>2023-08-06T08:09:43.000Z</time>
</trkpt>
<trkpt lat="46.0485220" lon="10.4874540">
	<ele>2274.60</ele>
	<time>2023-08-06T08:09:44.000Z</time>
</trkpt>
<trkpt lat="46.0485240" lon="10.4874530">
	<ele>2274.60</ele>
	<time>2023-08-06T08:09:45.000Z</time>
</trkpt>
<trkpt lat="46.0485250" lon="10.4874520">
	<ele>2274.60</ele>
	<time>2023-08-06T08:09:46.000Z</time>
</trkpt>
<trkpt lat="46.0485260" lon="10.4874520">
	<ele>2274.60</ele>
	<time>2023-08-06T08:09:47.000Z</time>
</trkpt>
<trkpt lat="46.0485260" lon="10.4874510">
	<ele>2274.60</ele>
	<time>2023-08-06T08:09:48.000Z</time>
</trkpt>
<trkpt lat="46.0485270" lon="10.4874500">
	<ele>2274.60</ele>
	<time>2023-08-06T08:09:49.000Z</time>
</trkpt>
<trkpt lat="46.0485270" lon="10.4874500">
	<ele>2274.60</ele>
	<time>2023-08-06T08:09:50.000Z</time>
</trkpt>
<trkpt lat="46.0485270" lon="10.4874490">
	<ele>2274.60</ele>
	<time>2023-08-06T08:09:51.000Z</time>
</trkpt>
<trkpt lat="46.0485280" lon="10.4874490">
	<ele>2274.40</ele>
	<time>2023-08-06T08:09:52.000Z</time>
</trkpt>
<trkpt lat="46.0485280" lon="10.4874450">
	<ele>2274.40</ele>
	<time>2023-08-06T08:09:53.000Z</time>
</trkpt>
<trkpt lat="46.0485290" lon="10.4874430">
	<ele>2274.40</ele>
	<time>2023-08-06T08:09:54.000Z</time>
</trkpt>
<trkpt lat="46.0485290" lon="10.4874410">
	<ele>2274.40</ele>
	<time>2023-08-06T08:09:55.000Z</time>
</trkpt>
<trkpt lat="46.0485290" lon="10.4874410">
	<ele>2274.20</ele>
	<time>2023-08-06T08:09:56.000Z</time>
</trkpt>
<trkpt lat="46.0485290" lon="10.4874410">
	<ele>2274.20</ele>
	<time>2023-08-06T08:09:57.000Z</time>
</trkpt>
<trkpt lat="46.0485300" lon="10.4874400">
	<ele>2274.20</ele>
	<time>2023-08-06T08:09:58.000Z</time>
</trkpt>
<trkpt lat="46.0485300" lon="10.4874400">
	<ele>2274.20</ele>
	<time>2023-08-06T08:09:59.000Z</time>
</trkpt>
<trkpt lat="46.0485300" lon="10.4874400">
	<ele>2274.20</ele>
	<time>2023-08-06T08:10:00.000Z</time>
</trkpt>
<trkpt lat="46.0485310" lon="10.4874390">
	<ele>2274.20</ele>
	<time>2023-08-06T08:10:01.000Z</time>
</trkpt>
<trkpt lat="46.0485310" lon="10.4874390">
	<ele>2274.20</ele>
	<time>2023-08-06T08:10:02.000Z</time>
</trkpt>
<trkpt lat="46.0485310" lon="10.4874380">
	<ele>2274.20</ele>
	<time>2023-08-06T08:10:03.000Z</time>
</trkpt>
<trkpt lat="46.0485320" lon="10.4874370">
	<ele>2274.20</ele>
	<time>2023-08-06T08:10:04.000Z</time>
</trkpt>
<trkpt lat="46.0485320" lon="10.4874360">
	<ele>2274.20</ele>
	<time>2023-08-06T08:10:05.000Z</time>
</trkpt>
<trkpt lat="46.0485330" lon="10.4874360">
	<ele>2274.20</ele>
	<time>2023-08-06T08:10:06.000Z</time>
</trkpt>
<trkpt lat="46.0485340" lon="10.4874360">
	<ele>2274.20</ele>
	<time>2023-08-06T08:10:07.000Z</time>
</trkpt>
<trkpt lat="46.0485350" lon="10.4874360">
	<ele>2274.20</ele>
	<time>2023-08-06T08:10:08.000Z</time>
</trkpt>
<trkpt lat="46.0485350" lon="10.4874360">
	<ele>2274.40</ele>
	<time>2023-08-06T08:10:09.000Z</time>
</trkpt>
<trkpt lat="46.0485360" lon="10.4874360">
	<ele>2274.40</ele>
	<time>2023-08-06T08:10:10.000Z</time>
</trkpt>
<trkpt lat="46.0485360" lon="10.4874360">
	<ele>2274.40</ele>
	<time>2023-08-06T08:10:11.000Z</time>
</trkpt>
<trkpt lat="46.0485370" lon="10.4874360">
	<ele>2274.60</ele>
	<time>2023-08-06T08:10:12.000Z</time>
</trkpt>
<trkpt lat="46.0485380" lon="10.4874360">
	<ele>2274.60</ele>
	<time>2023-08-06T08:10:13.000Z</time>
</trkpt>
<trkpt lat="46.0485390" lon="10.4874360">
	<ele>2274.60</ele>
	<time>2023-08-06T08:10:14.000Z</time>
</trkpt>
<trkpt lat="46.0485400" lon="10.4874370">
	<ele>2274.60</ele>
	<time>2023-08-06T08:10:15.000Z</time>
</trkpt>
<trkpt lat="46.0485400" lon="10.4874380">
	<ele>2274.60</ele>
	<time>2023-08-06T08:10:16.000Z</time>
</trkpt>
<trkpt lat="46.0485410" lon="10.4874390">
	<ele>2274.40</ele>
	<time>2023-08-06T08:10:17.000Z</time>
</trkpt>
<trkpt lat="46.0485420" lon="10.4874400">
	<ele>2274.40</ele>
	<time>2023-08-06T08:10:18.000Z</time>
</trkpt>
<trkpt lat="46.0485440" lon="10.4874420">
	<ele>2274.40</ele>
	<time>2023-08-06T08:10:19.000Z</time>
</trkpt>
<trkpt lat="46.0485450" lon="10.4874450">
	<ele>2274.40</ele>
	<time>2023-08-06T08:10:20.000Z</time>
</trkpt>
<trkpt lat="46.0485450" lon="10.4874480">
	<ele>2274.40</ele>
	<time>2023-08-06T08:10:21.000Z</time>
</trkpt>
<trkpt lat="46.0485450" lon="10.4874500">
	<ele>2274.60</ele>
	<time>2023-08-06T08:10:22.000Z</time>
</trkpt>
<trkpt lat="46.0485450" lon="10.4874530">
	<ele>2274.80</ele>
	<time>2023-08-06T08:10:23.000Z</time>
</trkpt>
<trkpt lat="46.0485460" lon="10.4874540">
	<ele>2274.80</ele>
	<time>2023-08-06T08:10:24.000Z</time>
</trkpt>
<trkpt lat="46.0485460" lon="10.4874550">
	<ele>2275.00</ele>
	<time>2023-08-06T08:10:25.000Z</time>
</trkpt>
<trkpt lat="46.0485460" lon="10.4874550">
	<ele>2275.00</ele>
	<time>2023-08-06T08:10:26.000Z</time>
</trkpt>
<trkpt lat="46.0485460" lon="10.4874560">
	<ele>2275.20</ele>
	<time>2023-08-06T08:10:27.000Z</time>
</trkpt>
<trkpt lat="46.0485460" lon="10.4874560">
	<ele>2275.20</ele>
	<time>2023-08-06T08:10:28.000Z</time>
</trkpt>
<trkpt lat="46.0485460" lon="10.4874560">
	<ele>2275.40</ele>
	<time>2023-08-06T08:10:29.000Z</time>
</trkpt>
<trkpt lat="46.0485460" lon="10.4874560">
	<ele>2275.40</ele>
	<time>2023-08-06T08:10:30.000Z</time>
</trkpt>
<trkpt lat="46.0485460" lon="10.4874560">
	<ele>2275.60</ele>
	<time>2023-08-06T08:10:31.000Z</time>
</trkpt>
<trkpt lat="46.0485460" lon="10.4874560">
	<ele>2275.60</ele>
	<time>2023-08-06T08:10:32.000Z</time>
</trkpt>
<trkpt lat="46.0485460" lon="10.4874560">
	<ele>2275.60</ele>
	<time>2023-08-06T08:10:33.000Z</time>
</trkpt>
<trkpt lat="46.0485460" lon="10.4874560">
	<ele>2275.60</ele>
	<time>2023-08-06T08:10:34.000Z</time>
</trkpt>
<trkpt lat="46.0485460" lon="10.4874560">
	<ele>2275.80</ele>
	<time>2023-08-06T08:10:35.000Z</time>
</trkpt>
<trkpt lat="46.0485460" lon="10.4874560">
	<ele>2275.80</ele>
	<time>2023-08-06T08:10:36.000Z</time>
</trkpt>
<trkpt lat="46.0485460" lon="10.4874560">
	<ele>2275.80</ele>
	<time>2023-08-06T08:10:37.000Z</time>
</trkpt>
<trkpt lat="46.0485460" lon="10.4874560">
	<ele>2275.80</ele>
	<time>2023-08-06T08:10:38.000Z</time>
</trkpt>
<trkpt lat="46.0485460" lon="10.4874560">
	<ele>2276.00</ele>
	<time>2023-08-06T08:10:39.000Z</time>
</trkpt>
<trkpt lat="46.0485460" lon="10.4874550">
	<ele>2276.20</ele>
	<time>2023-08-06T08:10:40.000Z</time>
</trkpt>
<trkpt lat="46.0485460" lon="10.4874540">
	<ele>2276.40</ele>
	<time>2023-08-06T08:10:41.000Z</time>
</trkpt>
<trkpt lat="46.0485460" lon="10.4874540">
	<ele>2276.60</ele>
	<time>2023-08-06T08:10:42.000Z</time>
</trkpt>
<trkpt lat="46.0485460" lon="10.4874530">
	<ele>2276.80</ele>
	<time>2023-08-06T08:10:43.000Z</time>
</trkpt>
<trkpt lat="46.0485460" lon="10.4874530">
	<ele>2277.20</ele>
	<time>2023-08-06T08:10:44.000Z</time>
</trkpt>
<trkpt lat="46.0485460" lon="10.4874520">
	<ele>2277.40</ele>
	<time>2023-08-06T08:10:45.000Z</time>
</trkpt>
<trkpt lat="46.0485460" lon="10.4874510">
	<ele>2277.80</ele>
	<time>2023-08-06T08:10:46.000Z</time>
</trkpt>
<trkpt lat="46.0485470" lon="10.4874500">
	<ele>2277.80</ele>
	<time>2023-08-06T08:10:47.000Z</time>
</trkpt>
<trkpt lat="46.0485470" lon="10.4874500">
	<ele>2278.00</ele>
	<time>2023-08-06T08:10:48.000Z</time>
</trkpt>
<trkpt lat="46.0485480" lon="10.4874490">
	<ele>2278.00</ele>
	<time>2023-08-06T08:10:49.000Z</time>
</trkpt>
<trkpt lat="46.0485490" lon="10.4874480">
	<ele>2278.00</ele>
	<time>2023-08-06T08:10:50.000Z</time>
</trkpt>
<trkpt lat="46.0485490" lon="10.4874460">
	<ele>2278.20</ele>
	<time>2023-08-06T08:10:51.000Z</time>
</trkpt>
<trkpt lat="46.0485500" lon="10.4874450">
	<ele>2278.20</ele>
	<time>2023-08-06T08:10:52.000Z</time>
</trkpt>
<trkpt lat="46.0485500" lon="10.4874440">
	<ele>2278.40</ele>
	<time>2023-08-06T08:10:53.000Z</time>
</trkpt>
<trkpt lat="46.0485510" lon="10.4874400">
	<ele>2278.60</ele>
	<time>2023-08-06T08:10:54.000Z</time>
</trkpt>
<trkpt lat="46.0485510" lon="10.4874350">
	<ele>2278.60</ele>
	<time>2023-08-06T08:10:55.000Z</time>
</trkpt>
<trkpt lat="46.0485510" lon="10.4874310">
	<ele>2278.60</ele>
	<time>2023-08-06T08:10:56.000Z</time>
</trkpt>
<trkpt lat="46.0485520" lon="10.4874270">
	<ele>2278.60</ele>
	<time>2023-08-06T08:10:57.000Z</time>
</trkpt>
<trkpt lat="46.0485520" lon="10.4874230">
	<ele>2278.60</ele>
	<time>2023-08-06T08:10:58.000Z</time>
</trkpt>
<trkpt lat="46.0485520" lon="10.4874190">
	<ele>2278.40</ele>
	<time>2023-08-06T08:10:59.000Z</time>
</trkpt>
<trkpt lat="46.0485520" lon="10.4874160">
	<ele>2278.00</ele>
	<time>2023-08-06T08:11:00.000Z</time>
</trkpt>
<trkpt lat="46.0485530" lon="10.4874130">
	<ele>2277.80</ele>
	<time>2023-08-06T08:11:01.000Z</time>
</trkpt>
<trkpt lat="46.0485530" lon="10.4874120">
	<ele>2277.80</ele>
	<time>2023-08-06T08:11:02.000Z</time>
</trkpt>
<trkpt lat="46.0485540" lon="10.4874100">
	<ele>2277.80</ele>
	<time>2023-08-06T08:11:03.000Z</time>
</trkpt>
<trkpt lat="46.0485540" lon="10.4874090">
	<ele>2277.80</ele>
	<time>2023-08-06T08:11:04.000Z</time>
</trkpt>
<trkpt lat="46.0485550" lon="10.4874080">
	<ele>2278.00</ele>
	<time>2023-08-06T08:11:05.000Z</time>
</trkpt>
<trkpt lat="46.0485560" lon="10.4874070">
	<ele>2278.00</ele>
	<time>2023-08-06T08:11:06.000Z</time>
</trkpt>
<trkpt lat="46.0485560" lon="10.4874060">
	<ele>2278.20</ele>
	<time>2023-08-06T08:11:07.000Z</time>
</trkpt>
<trkpt lat="46.0485570" lon="10.4874050">
	<ele>2278.20</ele>
	<time>2023-08-06T08:11:08.000Z</time>
</trkpt>
<trkpt lat="46.0485570" lon="10.4874050">
	<ele>2278.20</ele>
	<time>2023-08-06T08:11:09.000Z</time>
</trkpt>
<trkpt lat="46.0485570" lon="10.4874040">
	<ele>2278.20</ele>
	<time>2023-08-06T08:11:10.000Z</time>
</trkpt>
<trkpt lat="46.0485570" lon="10.4874040">
	<ele>2278.20</ele>
	<time>2023-08-06T08:11:11.000Z</time>
</trkpt>
<trkpt lat="46.0485570" lon="10.4874040">
	<ele>2278.20</ele>
	<time>2023-08-06T08:11:12.000Z</time>
</trkpt>
<trkpt lat="46.0485580" lon="10.4874040">
	<ele>2278.20</ele>
	<time>2023-08-06T08:11:13.000Z</time>
</trkpt>
<trkpt lat="46.0485580" lon="10.4874040">
	<ele>2278.20</ele>
	<time>2023-08-06T08:11:14.000Z</time>
</trkpt>
<trkpt lat="46.0485580" lon="10.4874030">
	<ele>2278.20</ele>
	<time>2023-08-06T08:11:15.000Z</time>
</trkpt>
<trkpt lat="46.0485580" lon="10.4874030">
	<ele>2278.20</ele>
	<time>2023-08-06T08:11:16.000Z</time>
</trkpt>
<trkpt lat="46.0485580" lon="10.4874030">
	<ele>2278.20</ele>
	<time>2023-08-06T08:11:17.000Z</time>
</trkpt>
<trkpt lat="46.0485590" lon="10.4874030">
	<ele>2278.20</ele>
	<time>2023-08-06T08:11:18.000Z</time>
</trkpt>
<trkpt lat="46.0485590" lon="10.4874030">
	<ele>2278.40</ele>
	<time>2023-08-06T08:11:19.000Z</time>
</trkpt>
<trkpt lat="46.0485600" lon="10.4874030">
	<ele>2278.40</ele>
	<time>2023-08-06T08:11:20.000Z</time>
</trkpt>
<trkpt lat="46.0485600" lon="10.4874030">
	<ele>2278.40</ele>
	<time>2023-08-06T08:11:21.000Z</time>
</trkpt>
<trkpt lat="46.0485600" lon="10.4874030">
	<ele>2278.40</ele>
	<time>2023-08-06T08:11:22.000Z</time>
</trkpt>
<trkpt lat="46.0485600" lon="10.4874030">
	<ele>2278.60</ele>
	<time>2023-08-06T08:11:23.000Z</time>
</trkpt>
<trkpt lat="46.0485600" lon="10.4874030">
	<ele>2278.80</ele>
	<time>2023-08-06T08:11:24.000Z</time>
</trkpt>
<trkpt lat="46.0485600" lon="10.4874030">
	<ele>2278.80</ele>
	<time>2023-08-06T08:11:25.000Z</time>
</trkpt>
<trkpt lat="46.0485610" lon="10.4874030">
	<ele>2279.20</ele>
	<time>2023-08-06T08:11:26.000Z</time>
</trkpt>
<trkpt lat="46.0485610" lon="10.4874030">
	<ele>2279.20</ele>
	<time>2023-08-06T08:11:27.000Z</time>
</trkpt>
<trkpt lat="46.0485610" lon="10.4874030">
	<ele>2279.40</ele>
	<time>2023-08-06T08:11:28.000Z</time>
</trkpt>
<trkpt lat="46.0485610" lon="10.4874020">
	<ele>2279.40</ele>
	<time>2023-08-06T08:11:29.000Z</time>
</trkpt>
<trkpt lat="46.0485610" lon="10.4874010">
	<ele>2279.60</ele>
	<time>2023-08-06T08:11:30.000Z</time>
</trkpt>
<trkpt lat="46.0485620" lon="10.4874000">
	<ele>2279.80</ele>
	<time>2023-08-06T08:11:31.000Z</time>
</trkpt>
<trkpt lat="46.0485640" lon="10.4873990">
	<ele>2280.00</ele>
	<time>2023-08-06T08:11:32.000Z</time>
</trkpt>
<trkpt lat="46.0485650" lon="10.4873990">
	<ele>2280.20</ele>
	<time>2023-08-06T08:11:33.000Z</time>
</trkpt>
<trkpt lat="46.0485660" lon="10.4873980">
	<ele>2280.20</ele>
	<time>2023-08-06T08:11:34.000Z</time>
</trkpt>
<trkpt lat="46.0485680" lon="10.4873980">
	<ele>2280.40</ele>
	<time>2023-08-06T08:11:35.000Z</time>
</trkpt>
<trkpt lat="46.0485690" lon="10.4873970">
	<ele>2280.40</ele>
	<time>2023-08-06T08:11:36.000Z</time>
</trkpt>
<trkpt lat="46.0485690" lon="10.4873960">
	<ele>2280.60</ele>
	<time>2023-08-06T08:11:37.000Z</time>
</trkpt>
<trkpt lat="46.0485700" lon="10.4873940">
	<ele>2280.80</ele>
	<time>2023-08-06T08:11:38.000Z</time>
</trkpt>
<trkpt lat="46.0485710" lon="10.4873920">
	<ele>2281.00</ele>
	<time>2023-08-06T08:11:39.000Z</time>
</trkpt>
<trkpt lat="46.0485710" lon="10.4873900">
	<ele>2281.00</ele>
	<time>2023-08-06T08:11:40.000Z</time>
</trkpt>
<trkpt lat="46.0485720" lon="10.4873880">
	<ele>2281.20</ele>
	<time>2023-08-06T08:11:41.000Z</time>
</trkpt>
<trkpt lat="46.0485720" lon="10.4873870">
	<ele>2281.20</ele>
	<time>2023-08-06T08:11:42.000Z</time>
</trkpt>
<trkpt lat="46.0485730" lon="10.4873850">
	<ele>2281.40</ele>
	<time>2023-08-06T08:11:43.000Z</time>
</trkpt>
<trkpt lat="46.0485730" lon="10.4873840">
	<ele>2281.40</ele>
	<time>2023-08-06T08:11:44.000Z</time>
</trkpt>
<trkpt lat="46.0485740" lon="10.4873830">
	<ele>2281.60</ele>
	<time>2023-08-06T08:11:45.000Z</time>
</trkpt>
<trkpt lat="46.0485750" lon="10.4873820">
	<ele>2281.60</ele>
	<time>2023-08-06T08:11:46.000Z</time>
</trkpt>
<trkpt lat="46.0485770" lon="10.4873810">
	<ele>2281.60</ele>
	<time>2023-08-06T08:11:47.000Z</time>
</trkpt>
<trkpt lat="46.0485780" lon="10.4873800">
	<ele>2281.60</ele>
	<time>2023-08-06T08:11:48.000Z</time>
</trkpt>
<trkpt lat="46.0485790" lon="10.4873790">
	<ele>2282.00</ele>
	<time>2023-08-06T08:11:49.000Z</time>
</trkpt>
<trkpt lat="46.0485800" lon="10.4873780">
	<ele>2282.20</ele>
	<time>2023-08-06T08:11:50.000Z</time>
</trkpt>
<trkpt lat="46.0485810" lon="10.4873770">
	<ele>2282.40</ele>
	<time>2023-08-06T08:11:51.000Z</time>
</trkpt>
<trkpt lat="46.0485820" lon="10.4873770">
	<ele>2282.60</ele>
	<time>2023-08-06T08:11:52.000Z</time>
</trkpt>
<trkpt lat="46.0485830" lon="10.4873760">
	<ele>2282.80</ele>
	<time>2023-08-06T08:11:53.000Z</time>
</trkpt>
<trkpt lat="46.0485830" lon="10.4873750">
	<ele>2283.00</ele>
	<time>2023-08-06T08:11:54.000Z</time>
</trkpt>
<trkpt lat="46.0485840" lon="10.4873750">
	<ele>2283.20</ele>
	<time>2023-08-06T08:11:55.000Z</time>
</trkpt>
<trkpt lat="46.0485840" lon="10.4873740">
	<ele>2283.20</ele>
	<time>2023-08-06T08:11:56.000Z</time>
</trkpt>
<trkpt lat="46.0485850" lon="10.4873740">
	<ele>2283.20</ele>
	<time>2023-08-06T08:11:57.000Z</time>
</trkpt>
<trkpt lat="46.0485850" lon="10.4873730">
	<ele>2283.40</ele>
	<time>2023-08-06T08:11:58.000Z</time>
</trkpt>
<trkpt lat="46.0485850" lon="10.4873730">
	<ele>2283.60</ele>
	<time>2023-08-06T08:11:59.000Z</time>
</trkpt>
<trkpt lat="46.0485850" lon="10.4873730">
	<ele>2283.80</ele>
	<time>2023-08-06T08:12:00.000Z</time>
</trkpt>
<trkpt lat="46.0485850" lon="10.4873720">
	<ele>2283.80</ele>
	<time>2023-08-06T08:12:01.000Z</time>
</trkpt>
<trkpt lat="46.0485850" lon="10.4873720">
	<ele>2284.00</ele>
	<time>2023-08-06T08:12:02.000Z</time>
</trkpt>
<trkpt lat="46.0485850" lon="10.4873720">
	<ele>2284.20</ele>
	<time>2023-08-06T08:12:03.000Z</time>
</trkpt>
<trkpt lat="46.0485850" lon="10.4873720">
	<ele>2284.40</ele>
	<time>2023-08-06T08:12:04.000Z</time>
</trkpt>
<trkpt lat="46.0485860" lon="10.4873720">
	<ele>2284.40</ele>
	<time>2023-08-06T08:12:05.000Z</time>
</trkpt>
<trkpt lat="46.0485850" lon="10.4873720">
	<ele>2284.60</ele>
	<time>2023-08-06T08:12:06.000Z</time>
</trkpt>
<trkpt lat="46.0485850" lon="10.4873720">
	<ele>2284.80</ele>
	<time>2023-08-06T08:12:07.000Z</time>
</trkpt>
<trkpt lat="46.0485850" lon="10.4873710">
	<ele>2285.00</ele>
	<time>2023-08-06T08:12:08.000Z</time>
</trkpt>
<trkpt lat="46.0485850" lon="10.4873710">
	<ele>2285.00</ele>
	<time>2023-08-06T08:12:09.000Z</time>
</trkpt>
<trkpt lat="46.0485850" lon="10.4873710">
	<ele>2285.20</ele>
	<time>2023-08-06T08:12:10.000Z</time>
</trkpt>
<trkpt lat="46.0485850" lon="10.4873710">
	<ele>2285.40</ele>
	<time>2023-08-06T08:12:11.000Z</time>
</trkpt>
<trkpt lat="46.0485850" lon="10.4873710">
	<ele>2285.40</ele>
	<time>2023-08-06T08:12:12.000Z</time>
</trkpt>
<trkpt lat="46.0485850" lon="10.4873700">
	<ele>2285.60</ele>
	<time>2023-08-06T08:12:13.000Z</time>
</trkpt>
<trkpt lat="46.0485850" lon="10.4873700">
	<ele>2285.80</ele>
	<time>2023-08-06T08:12:14.000Z</time>
</trkpt>
<trkpt lat="46.0485850" lon="10.4873700">
	<ele>2286.20</ele>
	<time>2023-08-06T08:12:15.000Z</time>
</trkpt>
<trkpt lat="46.0485850" lon="10.4873700">
	<ele>2286.60</ele>
	<time>2023-08-06T08:12:16.000Z</time>
</trkpt>
<trkpt lat="46.0485850" lon="10.4873700">
	<ele>2286.80</ele>
	<time>2023-08-06T08:12:17.000Z</time>
</trkpt>
<trkpt lat="46.0485850" lon="10.4873690">
	<ele>2287.00</ele>
	<time>2023-08-06T08:12:18.000Z</time>
</trkpt>
<trkpt lat="46.0485850" lon="10.4873690">
	<ele>2287.20</ele>
	<time>2023-08-06T08:12:19.000Z</time>
</trkpt>
<trkpt lat="46.0485850" lon="10.4873690">
	<ele>2287.20</ele>
	<time>2023-08-06T08:12:20.000Z</time>
</trkpt>
<trkpt lat="46.0485850" lon="10.4873690">
	<ele>2287.20</ele>
	<time>2023-08-06T08:12:21.000Z</time>
</trkpt>
<trkpt lat="46.0485850" lon="10.4873690">
	<ele>2287.20</ele>
	<time>2023-08-06T08:12:22.000Z</time>
</trkpt>
<trkpt lat="46.0485850" lon="10.4873690">
	<ele>2287.20</ele>
	<time>2023-08-06T08:12:23.000Z</time>
</trkpt>
<trkpt lat="46.0485850" lon="10.4873690">
	<ele>2287.20</ele>
	<time>2023-08-06T08:12:24.000Z</time>
</trkpt>
<trkpt lat="46.0485850" lon="10.4873680">
	<ele>2287.20</ele>
	<time>2023-08-06T08:12:25.000Z</time>
</trkpt>
<trkpt lat="46.0485840" lon="10.4873680">
	<ele>2287.20</ele>
	<time>2023-08-06T08:12:26.000Z</time>
</trkpt>
<trkpt lat="46.0485840" lon="10.4873680">
	<ele>2287.00</ele>
	<time>2023-08-06T08:12:27.000Z</time>
</trkpt>
<trkpt lat="46.0485840" lon="10.4873680">
	<ele>2287.00</ele>
	<time>2023-08-06T08:12:28.000Z</time>
</trkpt>
<trkpt lat="46.0485840" lon="10.4873680">
	<ele>2287.00</ele>
	<time>2023-08-06T08:12:29.000Z</time>
</trkpt>
<trkpt lat="46.0485840" lon="10.4873680">
	<ele>2287.00</ele>
	<time>2023-08-06T08:12:30.000Z</time>
</trkpt>
<trkpt lat="46.0485840" lon="10.4873680">
	<ele>2287.00</ele>
	<time>2023-08-06T08:12:31.000Z</time>
</trkpt>
<trkpt lat="46.0485830" lon="10.4873680">
	<ele>2287.00</ele>
	<time>2023-08-06T08:12:32.000Z</time>
</trkpt>
<trkpt lat="46.0485830" lon="10.4873680">
	<ele>2287.00</ele>
	<time>2023-08-06T08:12:33.000Z</time>
</trkpt>
<trkpt lat="46.0485830" lon="10.4873680">
	<ele>2287.40</ele>
	<time>2023-08-06T08:12:34.000Z</time>
</trkpt>
<trkpt lat="46.0485830" lon="10.4873680">
	<ele>2287.40</ele>
	<time>2023-08-06T08:12:35.000Z</time>
</trkpt>
<trkpt lat="46.0485830" lon="10.4873680">
	<ele>2287.60</ele>
	<time>2023-08-06T08:12:36.000Z</time>
</trkpt>
<trkpt lat="46.0485830" lon="10.4873680">
	<ele>2287.60</ele>
	<time>2023-08-06T08:12:37.000Z</time>
</trkpt>
<trkpt lat="46.0485830" lon="10.4873670">
	<ele>2287.60</ele>
	<time>2023-08-06T08:12:38.000Z</time>
</trkpt>
<trkpt lat="46.0485830" lon="10.4873670">
	<ele>2287.60</ele>
	<time>2023-08-06T08:12:39.000Z</time>
</trkpt>
<trkpt lat="46.0485830" lon="10.4873670">
	<ele>2287.60</ele>
	<time>2023-08-06T08:12:40.000Z</time>
</trkpt>
<trkpt lat="46.0485830" lon="10.4873670">
	<ele>2287.60</ele>
	<time>2023-08-06T08:12:41.000Z</time>
</trkpt>
<trkpt lat="46.0485830" lon="10.4873670">
	<ele>2287.60</ele>
	<time>2023-08-06T08:12:42.000Z</time>
</trkpt>
<trkpt lat="46.0485890" lon="10.4873630">
	<ele>2287.60</ele>
	<time>2023-08-06T08:12:43.000Z</time>
</trkpt>
<trkpt lat="46.0486020" lon="10.4873690">
	<ele>2287.80</ele>
	<time>2023-08-06T08:12:44.000Z</time>
</trkpt>
<trkpt lat="46.0486110" lon="10.4873660">
	<ele>2287.80</ele>
	<time>2023-08-06T08:12:45.000Z</time>
</trkpt>
<trkpt lat="46.0486180" lon="10.4873650">
	<ele>2287.80</ele>
	<time>2023-08-06T08:12:46.000Z</time>
</trkpt>
<trkpt lat="46.0486250" lon="10.4873600">
	<ele>2288.00</ele>
	<time>2023-08-06T08:12:47.000Z</time>
</trkpt>
<trkpt lat="46.0486320" lon="10.4873310">
	<ele>2288.00</ele>
	<time>2023-08-06T08:12:48.000Z</time>
</trkpt>
<trkpt lat="46.0486390" lon="10.4873170">
	<ele>2288.20</ele>
	<time>2023-08-06T08:12:49.000Z</time>
</trkpt>
<trkpt lat="46.0486460" lon="10.4873100">
	<ele>2288.40</ele>
	<time>2023-08-06T08:12:50.000Z</time>
</trkpt>
<trkpt lat="46.0486540" lon="10.4873050">
	<ele>2288.40</ele>
	<time>2023-08-06T08:12:51.000Z</time>
</trkpt>
<trkpt lat="46.0486610" lon="10.4873010">
	<ele>2288.40</ele>
	<time>2023-08-06T08:12:52.000Z</time>
</trkpt>
<trkpt lat="46.0486590" lon="10.4873070">
	<ele>2288.60</ele>
	<time>2023-08-06T08:12:53.000Z</time>
</trkpt>
<trkpt lat="46.0486620" lon="10.4873090">
	<ele>2288.80</ele>
	<time>2023-08-06T08:12:54.000Z</time>
</trkpt>
<trkpt lat="46.0486670" lon="10.4873070">
	<ele>2288.80</ele>
	<time>2023-08-06T08:12:55.000Z</time>
</trkpt>
<trkpt lat="46.0486720" lon="10.4873110">
	<ele>2289.00</ele>
	<time>2023-08-06T08:12:56.000Z</time>
</trkpt>
<trkpt lat="46.0486780" lon="10.4873160">
	<ele>2289.20</ele>
	<time>2023-08-06T08:12:57.000Z</time>
</trkpt>
<trkpt lat="46.0486800" lon="10.4873180">
	<ele>2289.20</ele>
	<time>2023-08-06T08:12:58.000Z</time>
</trkpt>
<trkpt lat="46.0486830" lon="10.4873210">
	<ele>2289.60</ele>
	<time>2023-08-06T08:12:59.000Z</time>
</trkpt>
<trkpt lat="46.0486830" lon="10.4873250">
	<ele>2289.80</ele>
	<time>2023-08-06T08:13:00.000Z</time>
</trkpt>
<trkpt lat="46.0486850" lon="10.4873270">
	<ele>2290.00</ele>
	<time>2023-08-06T08:13:01.000Z</time>
</trkpt>
<trkpt lat="46.0486880" lon="10.4873290">
	<ele>2290.00</ele>
	<time>2023-08-06T08:13:02.000Z</time>
</trkpt>
<trkpt lat="46.0486920" lon="10.4873280">
	<ele>2290.20</ele>
	<time>2023-08-06T08:13:03.000Z</time>
</trkpt>
<trkpt lat="46.0486950" lon="10.4873270">
	<ele>2290.40</ele>
	<time>2023-08-06T08:13:04.000Z</time>
</trkpt>
<trkpt lat="46.0486980" lon="10.4873230">
	<ele>2290.40</ele>
	<time>2023-08-06T08:13:05.000Z</time>
</trkpt>
<trkpt lat="46.0486990" lon="10.4873200">
	<ele>2290.60</ele>
	<time>2023-08-06T08:13:06.000Z</time>
</trkpt>
<trkpt lat="46.0487000" lon="10.4873140">
	<ele>2290.80</ele>
	<time>2023-08-06T08:13:07.000Z</time>
</trkpt>
<trkpt lat="46.0487050" lon="10.4873100">
	<ele>2290.80</ele>
	<time>2023-08-06T08:13:08.000Z</time>
</trkpt>
<trkpt lat="46.0487060" lon="10.4873080">
	<ele>2290.80</ele>
	<time>2023-08-06T08:13:09.000Z</time>
</trkpt>
<trkpt lat="46.0487060" lon="10.4873070">
	<ele>2290.80</ele>
	<time>2023-08-06T08:13:10.000Z</time>
</trkpt>
<trkpt lat="46.0487060" lon="10.4873060">
	<ele>2290.80</ele>
	<time>2023-08-06T08:13:11.000Z</time>
</trkpt>
<trkpt lat="46.0487090" lon="10.4873020">
	<ele>2291.00</ele>
	<time>2023-08-06T08:13:12.000Z</time>
</trkpt>
<trkpt lat="46.0487080" lon="10.4873020">
	<ele>2291.20</ele>
	<time>2023-08-06T08:13:13.000Z</time>
</trkpt>
<trkpt lat="46.0486990" lon="10.4873040">
	<ele>2291.20</ele>
	<time>2023-08-06T08:13:14.000Z</time>
</trkpt>
<trkpt lat="46.0486950" lon="10.4873070">
	<ele>2291.40</ele>
	<time>2023-08-06T08:13:15.000Z</time>
</trkpt>
<trkpt lat="46.0486940" lon="10.4873080">
	<ele>2291.60</ele>
	<time>2023-08-06T08:13:16.000Z</time>
</trkpt>
<trkpt lat="46.0486970" lon="10.4873090">
	<ele>2291.80</ele>
	<time>2023-08-06T08:13:17.000Z</time>
</trkpt>
<trkpt lat="46.0486960" lon="10.4873090">
	<ele>2291.80</ele>
	<time>2023-08-06T08:13:18.000Z</time>
</trkpt>
<trkpt lat="46.0486990" lon="10.4873090">
	<ele>2292.00</ele>
	<time>2023-08-06T08:13:19.000Z</time>
</trkpt>
<trkpt lat="46.0487050" lon="10.4873090">
	<ele>2292.00</ele>
	<time>2023-08-06T08:13:20.000Z</time>
</trkpt>
<trkpt lat="46.0487020" lon="10.4873130">
	<ele>2292.00</ele>
	<time>2023-08-06T08:13:21.000Z</time>
</trkpt>
<trkpt lat="46.0487090" lon="10.4873110">
	<ele>2292.20</ele>
	<time>2023-08-06T08:13:22.000Z</time>
</trkpt>
<trkpt lat="46.0487160" lon="10.4873170">
	<ele>2292.40</ele>
	<time>2023-08-06T08:13:23.000Z</time>
</trkpt>
<trkpt lat="46.0487230" lon="10.4873230">
	<ele>2292.60</ele>
	<time>2023-08-06T08:13:24.000Z</time>
</trkpt>
<trkpt lat="46.0487240" lon="10.4873270">
	<ele>2292.60</ele>
	<time>2023-08-06T08:13:25.000Z</time>
</trkpt>
<trkpt lat="46.0487260" lon="10.4873340">
	<ele>2292.80</ele>
	<time>2023-08-06T08:13:26.000Z</time>
</trkpt>
<trkpt lat="46.0487250" lon="10.4873380">
	<ele>2293.00</ele>
	<time>2023-08-06T08:13:27.000Z</time>
</trkpt>
<trkpt lat="46.0487250" lon="10.4873410">
	<ele>2293.00</ele>
	<time>2023-08-06T08:13:28.000Z</time>
</trkpt>
<trkpt lat="46.0487200" lon="10.4873410">
	<ele>2293.20</ele>
	<time>2023-08-06T08:13:29.000Z</time>
</trkpt>
<trkpt lat="46.0487170" lon="10.4873390">
	<ele>2293.20</ele>
	<time>2023-08-06T08:13:30.000Z</time>
</trkpt>
<trkpt lat="46.0487170" lon="10.4873380">
	<ele>2293.40</ele>
	<time>2023-08-06T08:13:31.000Z</time>
</trkpt>
<trkpt lat="46.0487180" lon="10.4873370">
	<ele>2293.40</ele>
	<time>2023-08-06T08:13:32.000Z</time>
</trkpt>
<trkpt lat="46.0487180" lon="10.4873370">
	<ele>2293.60</ele>
	<time>2023-08-06T08:13:33.000Z</time>
</trkpt>
<trkpt lat="46.0487180" lon="10.4873370">
	<ele>2293.60</ele>
	<time>2023-08-06T08:13:34.000Z</time>
</trkpt>
<trkpt lat="46.0487180" lon="10.4873370">
	<ele>2293.80</ele>
	<time>2023-08-06T08:13:35.000Z</time>
</trkpt>
<trkpt lat="46.0487180" lon="10.4873370">
	<ele>2293.80</ele>
	<time>2023-08-06T08:13:36.000Z</time>
</trkpt>
<trkpt lat="46.0487180" lon="10.4873370">
	<ele>2293.80</ele>
	<time>2023-08-06T08:13:37.000Z</time>
</trkpt>
<trkpt lat="46.0487180" lon="10.4873370">
	<ele>2294.00</ele>
	<time>2023-08-06T08:13:38.000Z</time>
</trkpt>
<trkpt lat="46.0487180" lon="10.4873370">
	<ele>2294.00</ele>
	<time>2023-08-06T08:13:39.000Z</time>
</trkpt>
<trkpt lat="46.0487180" lon="10.4873370">
	<ele>2294.00</ele>
	<time>2023-08-06T08:13:40.000Z</time>
</trkpt>
<trkpt lat="46.0487180" lon="10.4873370">
	<ele>2294.20</ele>
	<time>2023-08-06T08:13:41.000Z</time>
</trkpt>
<trkpt lat="46.0487180" lon="10.4873370">
	<ele>2294.60</ele>
	<time>2023-08-06T08:13:42.000Z</time>
</trkpt>
<trkpt lat="46.0487180" lon="10.4873370">
	<ele>2295.00</ele>
	<time>2023-08-06T08:13:43.000Z</time>
</trkpt>
<trkpt lat="46.0487200" lon="10.4873370">
	<ele>2295.20</ele>
	<time>2023-08-06T08:13:44.000Z</time>
</trkpt>
<trkpt lat="46.0487210" lon="10.4873340">
	<ele>2295.20</ele>
	<time>2023-08-06T08:13:45.000Z</time>
</trkpt>
<trkpt lat="46.0487220" lon="10.4873320">
	<ele>2295.40</ele>
	<time>2023-08-06T08:13:46.000Z</time>
</trkpt>
<trkpt lat="46.0487230" lon="10.4873320">
	<ele>2295.60</ele>
	<time>2023-08-06T08:13:47.000Z</time>
</trkpt>
<trkpt lat="46.0487240" lon="10.4873310">
	<ele>2295.60</ele>
	<time>2023-08-06T08:13:48.000Z</time>
</trkpt>
<trkpt lat="46.0487240" lon="10.4873280">
	<ele>2295.60</ele>
	<time>2023-08-06T08:13:49.000Z</time>
</trkpt>
<trkpt lat="46.0487250" lon="10.4873270">
	<ele>2295.60</ele>
	<time>2023-08-06T08:13:50.000Z</time>
</trkpt>
<trkpt lat="46.0487250" lon="10.4873270">
	<ele>2295.60</ele>
	<time>2023-08-06T08:13:51.000Z</time>
</trkpt>
<trkpt lat="46.0487250" lon="10.4873260">
	<ele>2295.80</ele>
	<time>2023-08-06T08:13:52.000Z</time>
</trkpt>
<trkpt lat="46.0487250" lon="10.4873260">
	<ele>2295.80</ele>
	<time>2023-08-06T08:13:53.000Z</time>
</trkpt>
<trkpt lat="46.0487260" lon="10.4873250">
	<ele>2296.00</ele>
	<time>2023-08-06T08:13:54.000Z</time>
</trkpt>
<trkpt lat="46.0487260" lon="10.4873250">
	<ele>2296.00</ele>
	<time>2023-08-06T08:13:55.000Z</time>
</trkpt>
<trkpt lat="46.0487270" lon="10.4873230">
	<ele>2296.20</ele>
	<time>2023-08-06T08:13:56.000Z</time>
</trkpt>
<trkpt lat="46.0487280" lon="10.4873230">
	<ele>2296.20</ele>
	<time>2023-08-06T08:13:57.000Z</time>
</trkpt>
<trkpt lat="46.0487280" lon="10.4873220">
	<ele>2296.60</ele>
	<time>2023-08-06T08:13:58.000Z</time>
</trkpt>
<trkpt lat="46.0487280" lon="10.4873200">
	<ele>2296.80</ele>
	<time>2023-08-06T08:13:59.000Z</time>
</trkpt>
<trkpt lat="46.0487280" lon="10.4873190">
	<ele>2297.00</ele>
	<time>2023-08-06T08:14:00.000Z</time>
</trkpt>
<trkpt lat="46.0487290" lon="10.4873150">
	<ele>2297.20</ele>
	<time>2023-08-06T08:14:01.000Z</time>
</trkpt>
<trkpt lat="46.0487290" lon="10.4873110">
	<ele>2297.40</ele>
	<time>2023-08-06T08:14:02.000Z</time>
</trkpt>
<trkpt lat="46.0487290" lon="10.4873090">
	<ele>2297.40</ele>
	<time>2023-08-06T08:14:03.000Z</time>
</trkpt>
<trkpt lat="46.0487300" lon="10.4873080">
	<ele>2297.40</ele>
	<time>2023-08-06T08:14:04.000Z</time>
</trkpt>
<trkpt lat="46.0487300" lon="10.4873080">
	<ele>2297.40</ele>
	<time>2023-08-06T08:14:05.000Z</time>
</trkpt>
<trkpt lat="46.0487310" lon="10.4873070">
	<ele>2297.40</ele>
	<time>2023-08-06T08:14:06.000Z</time>
</trkpt>
<trkpt lat="46.0487320" lon="10.4873070">
	<ele>2297.60</ele>
	<time>2023-08-06T08:14:07.000Z</time>
</trkpt>
<trkpt lat="46.0487320" lon="10.4873060">
	<ele>2297.80</ele>
	<time>2023-08-06T08:14:08.000Z</time>
</trkpt>
<trkpt lat="46.0487320" lon="10.4873050">
	<ele>2297.80</ele>
	<time>2023-08-06T08:14:09.000Z</time>
</trkpt>
<trkpt lat="46.0487320" lon="10.4873040">
	<ele>2298.00</ele>
	<time>2023-08-06T08:14:10.000Z</time>
</trkpt>
<trkpt lat="46.0487320" lon="10.4873030">
	<ele>2298.00</ele>
	<time>2023-08-06T08:14:11.000Z</time>
</trkpt>
<trkpt lat="46.0487330" lon="10.4873010">
	<ele>2298.20</ele>
	<time>2023-08-06T08:14:12.000Z</time>
</trkpt>
<trkpt lat="46.0487330" lon="10.4873000">
	<ele>2298.40</ele>
	<time>2023-08-06T08:14:13.000Z</time>
</trkpt>
<trkpt lat="46.0487330" lon="10.4872990">
	<ele>2298.60</ele>
	<time>2023-08-06T08:14:14.000Z</time>
</trkpt>
<trkpt lat="46.0487340" lon="10.4872980">
	<ele>2298.60</ele>
	<time>2023-08-06T08:14:15.000Z</time>
</trkpt>
<trkpt lat="46.0487350" lon="10.4872970">
	<ele>2298.80</ele>
	<time>2023-08-06T08:14:16.000Z</time>
</trkpt>
<trkpt lat="46.0487360" lon="10.4872910">
	<ele>2299.00</ele>
	<time>2023-08-06T08:14:17.000Z</time>
</trkpt>
<trkpt lat="46.0487380" lon="10.4872820">
	<ele>2299.20</ele>
	<time>2023-08-06T08:14:18.000Z</time>
</trkpt>
<trkpt lat="46.0487390" lon="10.4872800">
	<ele>2299.40</ele>
	<time>2023-08-06T08:14:19.000Z</time>
</trkpt>
<trkpt lat="46.0487410" lon="10.4872780">
	<ele>2299.40</ele>
	<time>2023-08-06T08:14:20.000Z</time>
</trkpt>
<trkpt lat="46.0487440" lon="10.4872740">
	<ele>2299.60</ele>
	<time>2023-08-06T08:14:21.000Z</time>
</trkpt>
<trkpt lat="46.0487480" lon="10.4872710">
	<ele>2299.60</ele>
	<time>2023-08-06T08:14:22.000Z</time>
</trkpt>
<trkpt lat="46.0487540" lon="10.4872680">
	<ele>2299.80</ele>
	<time>2023-08-06T08:14:23.000Z</time>
</trkpt>
<trkpt lat="46.0487600" lon="10.4872650">
	<ele>2300.00</ele>
	<time>2023-08-06T08:14:24.000Z</time>
</trkpt>
<trkpt lat="46.0487690" lon="10.4872620">
	<ele>2300.20</ele>
	<time>2023-08-06T08:14:25.000Z</time>
</trkpt>
<trkpt lat="46.0487750" lon="10.4872580">
	<ele>2300.40</ele>
	<time>2023-08-06T08:14:26.000Z</time>
</trkpt>
<trkpt lat="46.0487820" lon="10.4872510">
	<ele>2300.40</ele>
	<time>2023-08-06T08:14:27.000Z</time>
</trkpt>
<trkpt lat="46.0487890" lon="10.4872430">
	<ele>2300.40</ele>
	<time>2023-08-06T08:14:28.000Z</time>
</trkpt>
<trkpt lat="46.0487960" lon="10.4872360">
	<ele>2300.80</ele>
	<time>2023-08-06T08:14:29.000Z</time>
</trkpt>
<trkpt lat="46.0488010" lon="10.4872290">
	<ele>2300.80</ele>
	<time>2023-08-06T08:14:30.000Z</time>
</trkpt>
<trkpt lat="46.0488060" lon="10.4872240">
	<ele>2301.00</ele>
	<time>2023-08-06T08:14:31.000Z</time>
</trkpt>
<trkpt lat="46.0488110" lon="10.4872260">
	<ele>2301.00</ele>
	<time>2023-08-06T08:14:32.000Z</time>
</trkpt>
<trkpt lat="46.0488110" lon="10.4872220">
	<ele>2301.00</ele>
	<time>2023-08-06T08:14:33.000Z</time>
</trkpt>
<trkpt lat="46.0488110" lon="10.4872200">
	<ele>2301.00</ele>
	<time>2023-08-06T08:14:34.000Z</time>
</trkpt>
<trkpt lat="46.0488120" lon="10.4872180">
	<ele>2301.40</ele>
	<time>2023-08-06T08:14:35.000Z</time>
</trkpt>
<trkpt lat="46.0488120" lon="10.4872190">
	<ele>2301.40</ele>
	<time>2023-08-06T08:14:36.000Z</time>
</trkpt>
<trkpt lat="46.0488120" lon="10.4872130">
	<ele>2301.60</ele>
	<time>2023-08-06T08:14:37.000Z</time>
</trkpt>
<trkpt lat="46.0488130" lon="10.4872120">
	<ele>2301.60</ele>
	<time>2023-08-06T08:14:38.000Z</time>
</trkpt>
<trkpt lat="46.0488160" lon="10.4872090">
	<ele>2301.80</ele>
	<time>2023-08-06T08:14:39.000Z</time>
</trkpt>
<trkpt lat="46.0488170" lon="10.4872070">
	<ele>2302.00</ele>
	<time>2023-08-06T08:14:40.000Z</time>
</trkpt>
<trkpt lat="46.0488180" lon="10.4872060">
	<ele>2302.20</ele>
	<time>2023-08-06T08:14:41.000Z</time>
</trkpt>
<trkpt lat="46.0488090" lon="10.4872080">
	<ele>2302.20</ele>
	<time>2023-08-06T08:14:42.000Z</time>
</trkpt>
<trkpt lat="46.0488120" lon="10.4872100">
	<ele>2302.20</ele>
	<time>2023-08-06T08:14:43.000Z</time>
</trkpt>
<trkpt lat="46.0488120" lon="10.4872080">
	<ele>2302.20</ele>
	<time>2023-08-06T08:14:44.000Z</time>
</trkpt>
<trkpt lat="46.0488120" lon="10.4872080">
	<ele>2302.20</ele>
	<time>2023-08-06T08:14:45.000Z</time>
</trkpt>
<trkpt lat="46.0488130" lon="10.4872090">
	<ele>2302.20</ele>
	<time>2023-08-06T08:14:46.000Z</time>
</trkpt>
<trkpt lat="46.0488140" lon="10.4872100">
	<ele>2302.20</ele>
	<time>2023-08-06T08:14:47.000Z</time>
</trkpt>
<trkpt lat="46.0488150" lon="10.4872110">
	<ele>2302.20</ele>
	<time>2023-08-06T08:14:48.000Z</time>
</trkpt>
<trkpt lat="46.0488150" lon="10.4872110">
	<ele>2302.20</ele>
	<time>2023-08-06T08:14:49.000Z</time>
</trkpt>
<trkpt lat="46.0488150" lon="10.4872110">
	<ele>2302.20</ele>
	<time>2023-08-06T08:14:50.000Z</time>
</trkpt>
<trkpt lat="46.0488150" lon="10.4872110">
	<ele>2302.20</ele>
	<time>2023-08-06T08:14:51.000Z</time>
</trkpt>
<trkpt lat="46.0488150" lon="10.4872110">
	<ele>2302.20</ele>
	<time>2023-08-06T08:14:52.000Z</time>
</trkpt>
<trkpt lat="46.0488150" lon="10.4872110">
	<ele>2302.40</ele>
	<time>2023-08-06T08:14:53.000Z</time>
</trkpt>
<trkpt lat="46.0488150" lon="10.4872110">
	<ele>2302.40</ele>
	<time>2023-08-06T08:14:54.000Z</time>
</trkpt>
<trkpt lat="46.0488150" lon="10.4872110">
	<ele>2302.40</ele>
	<time>2023-08-06T08:14:55.000Z</time>
</trkpt>
<trkpt lat="46.0488150" lon="10.4872110">
	<ele>2302.60</ele>
	<time>2023-08-06T08:14:56.000Z</time>
</trkpt>
<trkpt lat="46.0488150" lon="10.4872110">
	<ele>2303.00</ele>
	<time>2023-08-06T08:14:57.000Z</time>
</trkpt>
<trkpt lat="46.0488150" lon="10.4872110">
	<ele>2303.00</ele>
	<time>2023-08-06T08:14:58.000Z</time>
</trkpt>
<trkpt lat="46.0488150" lon="10.4872110">
	<ele>2303.20</ele>
	<time>2023-08-06T08:14:59.000Z</time>
</trkpt>
<trkpt lat="46.0488150" lon="10.4872110">
	<ele>2303.20</ele>
	<time>2023-08-06T08:15:00.000Z</time>
</trkpt>
<trkpt lat="46.0488150" lon="10.4872110">
	<ele>2303.40</ele>
	<time>2023-08-06T08:15:01.000Z</time>
</trkpt>
<trkpt lat="46.0488150" lon="10.4872110">
	<ele>2303.40</ele>
	<time>2023-08-06T08:15:02.000Z</time>
</trkpt>
<trkpt lat="46.0488150" lon="10.4872110">
	<ele>2303.40</ele>
	<time>2023-08-06T08:15:03.000Z</time>
</trkpt>
<trkpt lat="46.0488150" lon="10.4872110">
	<ele>2303.60</ele>
	<time>2023-08-06T08:15:04.000Z</time>
</trkpt>
<trkpt lat="46.0488170" lon="10.4872100">
	<ele>2303.60</ele>
	<time>2023-08-06T08:15:05.000Z</time>
</trkpt>
<trkpt lat="46.0488180" lon="10.4872100">
	<ele>2303.80</ele>
	<time>2023-08-06T08:15:06.000Z</time>
</trkpt>
<trkpt lat="46.0488180" lon="10.4872100">
	<ele>2304.00</ele>
	<time>2023-08-06T08:15:07.000Z</time>
</trkpt>
<trkpt lat="46.0488200" lon="10.4872090">
	<ele>2304.20</ele>
	<time>2023-08-06T08:15:08.000Z</time>
</trkpt>
<trkpt lat="46.0488230" lon="10.4872090">
	<ele>2304.20</ele>
	<time>2023-08-06T08:15:09.000Z</time>
</trkpt>
<trkpt lat="46.0488280" lon="10.4872090">
	<ele>2304.20</ele>
	<time>2023-08-06T08:15:10.000Z</time>
</trkpt>
<trkpt lat="46.0488330" lon="10.4872090">
	<ele>2304.40</ele>
	<time>2023-08-06T08:15:11.000Z</time>
</trkpt>
<trkpt lat="46.0488370" lon="10.4872090">
	<ele>2304.60</ele>
	<time>2023-08-06T08:15:12.000Z</time>
</trkpt>
<trkpt lat="46.0488380" lon="10.4872080">
	<ele>2304.60</ele>
	<time>2023-08-06T08:15:13.000Z</time>
</trkpt>
<trkpt lat="46.0488380" lon="10.4872080">
	<ele>2304.60</ele>
	<time>2023-08-06T08:15:14.000Z</time>
</trkpt>
<trkpt lat="46.0488380" lon="10.4872070">
	<ele>2305.00</ele>
	<time>2023-08-06T08:15:15.000Z</time>
</trkpt>
<trkpt lat="46.0488390" lon="10.4872060">
	<ele>2305.40</ele>
	<time>2023-08-06T08:15:16.000Z</time>
</trkpt>
<trkpt lat="46.0488390" lon="10.4872050">
	<ele>2305.80</ele>
	<time>2023-08-06T08:15:17.000Z</time>
</trkpt>
<trkpt lat="46.0488390" lon="10.4872040">
	<ele>2305.80</ele>
	<time>2023-08-06T08:15:18.000Z</time>
</trkpt>
<trkpt lat="46.0488390" lon="10.4872010">
	<ele>2306.00</ele>
	<time>2023-08-06T08:15:19.000Z</time>
</trkpt>
<trkpt lat="46.0488410" lon="10.4871990">
	<ele>2306.00</ele>
	<time>2023-08-06T08:15:20.000Z</time>
</trkpt>
<trkpt lat="46.0488410" lon="10.4871940">
	<ele>2306.00</ele>
	<time>2023-08-06T08:15:21.000Z</time>
</trkpt>
<trkpt lat="46.0488410" lon="10.4871920">
	<ele>2306.00</ele>
	<time>2023-08-06T08:15:22.000Z</time>
</trkpt>
<trkpt lat="46.0488420" lon="10.4871910">
	<ele>2306.00</ele>
	<time>2023-08-06T08:15:23.000Z</time>
</trkpt>
<trkpt lat="46.0488430" lon="10.4871910">
	<ele>2306.00</ele>
	<time>2023-08-06T08:15:24.000Z</time>
</trkpt>
<trkpt lat="46.0488430" lon="10.4871890">
	<ele>2306.00</ele>
	<time>2023-08-06T08:15:25.000Z</time>
</trkpt>
<trkpt lat="46.0488460" lon="10.4871870">
	<ele>2306.00</ele>
	<time>2023-08-06T08:15:26.000Z</time>
</trkpt>
<trkpt lat="46.0488490" lon="10.4871830">
	<ele>2306.00</ele>
	<time>2023-08-06T08:15:27.000Z</time>
</trkpt>
<trkpt lat="46.0488510" lon="10.4871810">
	<ele>2306.00</ele>
	<time>2023-08-06T08:15:28.000Z</time>
</trkpt>
<trkpt lat="46.0488560" lon="10.4871790">
	<ele>2306.20</ele>
	<time>2023-08-06T08:15:29.000Z</time>
</trkpt>
<trkpt lat="46.0488610" lon="10.4871750">
	<ele>2306.20</ele>
	<time>2023-08-06T08:15:30.000Z</time>
</trkpt>
<trkpt lat="46.0488630" lon="10.4871740">
	<ele>2306.40</ele>
	<time>2023-08-06T08:15:31.000Z</time>
</trkpt>
<trkpt lat="46.0488690" lon="10.4871720">
	<ele>2306.60</ele>
	<time>2023-08-06T08:15:32.000Z</time>
</trkpt>
<trkpt lat="46.0488740" lon="10.4871720">
	<ele>2306.60</ele>
	<time>2023-08-06T08:15:33.000Z</time>
</trkpt>
<trkpt lat="46.0488750" lon="10.4871710">
	<ele>2306.60</ele>
	<time>2023-08-06T08:15:34.000Z</time>
</trkpt>
<trkpt lat="46.0488770" lon="10.4871700">
	<ele>2306.80</ele>
	<time>2023-08-06T08:15:35.000Z</time>
</trkpt>
<trkpt lat="46.0488780" lon="10.4871700">
	<ele>2306.80</ele>
	<time>2023-08-06T08:15:36.000Z</time>
</trkpt>
<trkpt lat="46.0488830" lon="10.4871700">
	<ele>2307.00</ele>
	<time>2023-08-06T08:15:37.000Z</time>
</trkpt>
<trkpt lat="46.0488880" lon="10.4871690">
	<ele>2307.00</ele>
	<time>2023-08-06T08:15:38.000Z</time>
</trkpt>
<trkpt lat="46.0488930" lon="10.4871690">
	<ele>2307.00</ele>
	<time>2023-08-06T08:15:39.000Z</time>
</trkpt>
<trkpt lat="46.0489000" lon="10.4871680">
	<ele>2307.20</ele>
	<time>2023-08-06T08:15:40.000Z</time>
</trkpt>
<trkpt lat="46.0489060" lon="10.4871680">
	<ele>2307.20</ele>
	<time>2023-08-06T08:15:41.000Z</time>
</trkpt>
<trkpt lat="46.0489130" lon="10.4871680">
	<ele>2307.40</ele>
	<time>2023-08-06T08:15:42.000Z</time>
</trkpt>
<trkpt lat="46.0489210" lon="10.4871670">
	<ele>2307.40</ele>
	<time>2023-08-06T08:15:43.000Z</time>
</trkpt>
<trkpt lat="46.0489260" lon="10.4871660">
	<ele>2307.40</ele>
	<time>2023-08-06T08:15:44.000Z</time>
</trkpt>
<trkpt lat="46.0489280" lon="10.4871660">
	<ele>2307.60</ele>
	<time>2023-08-06T08:15:45.000Z</time>
</trkpt>
<trkpt lat="46.0489310" lon="10.4871650">
	<ele>2307.60</ele>
	<time>2023-08-06T08:15:46.000Z</time>
</trkpt>
<trkpt lat="46.0489320" lon="10.4871650">
	<ele>2307.60</ele>
	<time>2023-08-06T08:15:47.000Z</time>
</trkpt>
<trkpt lat="46.0489340" lon="10.4871650">
	<ele>2307.80</ele>
	<time>2023-08-06T08:15:48.000Z</time>
</trkpt>
<trkpt lat="46.0489350" lon="10.4871640">
	<ele>2307.60</ele>
	<time>2023-08-06T08:15:49.000Z</time>
</trkpt>
<trkpt lat="46.0489350" lon="10.4871600">
	<ele>2307.60</ele>
	<time>2023-08-06T08:15:50.000Z</time>
</trkpt>
<trkpt lat="46.0489350" lon="10.4871570">
	<ele>2307.60</ele>
	<time>2023-08-06T08:15:51.000Z</time>
</trkpt>
<trkpt lat="46.0489350" lon="10.4871540">
	<ele>2307.60</ele>
	<time>2023-08-06T08:15:52.000Z</time>
</trkpt>
<trkpt lat="46.0489390" lon="10.4871530">
	<ele>2307.60</ele>
	<time>2023-08-06T08:15:53.000Z</time>
</trkpt>
<trkpt lat="46.0489420" lon="10.4871510">
	<ele>2307.60</ele>
	<time>2023-08-06T08:15:54.000Z</time>
</trkpt>
<trkpt lat="46.0489440" lon="10.4871480">
	<ele>2307.80</ele>
	<time>2023-08-06T08:15:55.000Z</time>
</trkpt>
<trkpt lat="46.0489470" lon="10.4871460">
	<ele>2307.80</ele>
	<time>2023-08-06T08:15:56.000Z</time>
</trkpt>
<trkpt lat="46.0489490" lon="10.4871430">
	<ele>2308.00</ele>
	<time>2023-08-06T08:15:57.000Z</time>
</trkpt>
<trkpt lat="46.0489520" lon="10.4871410">
	<ele>2307.80</ele>
	<time>2023-08-06T08:15:58.000Z</time>
</trkpt>
<trkpt lat="46.0489530" lon="10.4871380">
	<ele>2307.80</ele>
	<time>2023-08-06T08:15:59.000Z</time>
</trkpt>
<trkpt lat="46.0489540" lon="10.4871360">
	<ele>2307.60</ele>
	<time>2023-08-06T08:16:00.000Z</time>
</trkpt>
<trkpt lat="46.0489540" lon="10.4871340">
	<ele>2307.60</ele>
	<time>2023-08-06T08:16:01.000Z</time>
</trkpt>
<trkpt lat="46.0489570" lon="10.4871340">
	<ele>2307.40</ele>
	<time>2023-08-06T08:16:02.000Z</time>
</trkpt>
<trkpt lat="46.0489640" lon="10.4871340">
	<ele>2307.40</ele>
	<time>2023-08-06T08:16:03.000Z</time>
</trkpt>
<trkpt lat="46.0489680" lon="10.4871340">
	<ele>2307.20</ele>
	<time>2023-08-06T08:16:04.000Z</time>
</trkpt>
<trkpt lat="46.0489710" lon="10.4871340">
	<ele>2307.40</ele>
	<time>2023-08-06T08:16:05.000Z</time>
</trkpt>
<trkpt lat="46.0489730" lon="10.4871340">
	<ele>2307.40</ele>
	<time>2023-08-06T08:16:06.000Z</time>
</trkpt>
<trkpt lat="46.0489730" lon="10.4871340">
	<ele>2307.40</ele>
	<time>2023-08-06T08:16:07.000Z</time>
</trkpt>
<trkpt lat="46.0489740" lon="10.4871340">
	<ele>2307.40</ele>
	<time>2023-08-06T08:16:08.000Z</time>
</trkpt>
<trkpt lat="46.0489740" lon="10.4871340">
	<ele>2307.40</ele>
	<time>2023-08-06T08:16:09.000Z</time>
</trkpt>
<trkpt lat="46.0489740" lon="10.4871340">
	<ele>2307.60</ele>
	<time>2023-08-06T08:16:10.000Z</time>
</trkpt>
<trkpt lat="46.0489750" lon="10.4871340">
	<ele>2307.60</ele>
	<time>2023-08-06T08:16:11.000Z</time>
</trkpt>
<trkpt lat="46.0489750" lon="10.4871340">
	<ele>2307.60</ele>
	<time>2023-08-06T08:16:12.000Z</time>
</trkpt>
<trkpt lat="46.0489760" lon="10.4871340">
	<ele>2307.60</ele>
	<time>2023-08-06T08:16:13.000Z</time>
</trkpt>
<trkpt lat="46.0489770" lon="10.4871340">
	<ele>2307.40</ele>
	<time>2023-08-06T08:16:14.000Z</time>
</trkpt>
<trkpt lat="46.0489770" lon="10.4871340">
	<ele>2307.40</ele>
	<time>2023-08-06T08:16:15.000Z</time>
</trkpt>
<trkpt lat="46.0489780" lon="10.4871360">
	<ele>2307.40</ele>
	<time>2023-08-06T08:16:16.000Z</time>
</trkpt>
<trkpt lat="46.0489810" lon="10.4871400">
	<ele>2307.40</ele>
	<time>2023-08-06T08:16:17.000Z</time>
</trkpt>
<trkpt lat="46.0489840" lon="10.4871440">
	<ele>2307.60</ele>
	<time>2023-08-06T08:16:18.000Z</time>
</trkpt>
<trkpt lat="46.0489870" lon="10.4871460">
	<ele>2307.60</ele>
	<time>2023-08-06T08:16:19.000Z</time>
</trkpt>
<trkpt lat="46.0489900" lon="10.4871460">
	<ele>2307.80</ele>
	<time>2023-08-06T08:16:20.000Z</time>
</trkpt>
<trkpt lat="46.0489920" lon="10.4871470">
	<ele>2307.80</ele>
	<time>2023-08-06T08:16:21.000Z</time>
</trkpt>
<trkpt lat="46.0489930" lon="10.4871470">
	<ele>2307.80</ele>
	<time>2023-08-06T08:16:22.000Z</time>
</trkpt>
<trkpt lat="46.0489950" lon="10.4871470">
	<ele>2308.00</ele>
	<time>2023-08-06T08:16:23.000Z</time>
</trkpt>
<trkpt lat="46.0489950" lon="10.4871470">
	<ele>2307.80</ele>
	<time>2023-08-06T08:16:24.000Z</time>
</trkpt>
<trkpt lat="46.0489950" lon="10.4871470">
	<ele>2307.40</ele>
	<time>2023-08-06T08:16:25.000Z</time>
</trkpt>
<trkpt lat="46.0489950" lon="10.4871470">
	<ele>2307.40</ele>
	<time>2023-08-06T08:16:26.000Z</time>
</trkpt>
<trkpt lat="46.0489960" lon="10.4871470">
	<ele>2307.20</ele>
	<time>2023-08-06T08:16:27.000Z</time>
</trkpt>
<trkpt lat="46.0489960" lon="10.4871470">
	<ele>2307.20</ele>
	<time>2023-08-06T08:16:28.000Z</time>
</trkpt>
<trkpt lat="46.0489960" lon="10.4871470">
	<ele>2307.20</ele>
	<time>2023-08-06T08:16:29.000Z</time>
</trkpt>
<trkpt lat="46.0489960" lon="10.4871470">
	<ele>2307.00</ele>
	<time>2023-08-06T08:16:30.000Z</time>
</trkpt>
<trkpt lat="46.0489960" lon="10.4871470">
	<ele>2307.00</ele>
	<time>2023-08-06T08:16:31.000Z</time>
</trkpt>
<trkpt lat="46.0489960" lon="10.4871470">
	<ele>2307.00</ele>
	<time>2023-08-06T08:16:32.000Z</time>
</trkpt>
<trkpt lat="46.0489970" lon="10.4871470">
	<ele>2307.00</ele>
	<time>2023-08-06T08:16:33.000Z</time>
</trkpt>
<trkpt lat="46.0489970" lon="10.4871470">
	<ele>2307.00</ele>
	<time>2023-08-06T08:16:34.000Z</time>
</trkpt>
<trkpt lat="46.0489970" lon="10.4871460">
	<ele>2307.00</ele>
	<time>2023-08-06T08:16:35.000Z</time>
</trkpt>
<trkpt lat="46.0489980" lon="10.4871450">
	<ele>2307.20</ele>
	<time>2023-08-06T08:16:36.000Z</time>
</trkpt>
<trkpt lat="46.0489980" lon="10.4871450">
	<ele>2307.20</ele>
	<time>2023-08-06T08:16:37.000Z</time>
</trkpt>
<trkpt lat="46.0489980" lon="10.4871450">
	<ele>2307.20</ele>
	<time>2023-08-06T08:16:38.000Z</time>
</trkpt>
<trkpt lat="46.0489980" lon="10.4871450">
	<ele>2307.40</ele>
	<time>2023-08-06T08:16:39.000Z</time>
</trkpt>
<trkpt lat="46.0489980" lon="10.4871450">
	<ele>2307.40</ele>
	<time>2023-08-06T08:16:40.000Z</time>
</trkpt>
<trkpt lat="46.0489980" lon="10.4871450">
	<ele>2307.60</ele>
	<time>2023-08-06T08:16:41.000Z</time>
</trkpt>
<trkpt lat="46.0489990" lon="10.4871450">
	<ele>2307.60</ele>
	<time>2023-08-06T08:16:42.000Z</time>
</trkpt>
<trkpt lat="46.0489990" lon="10.4871450">
	<ele>2307.60</ele>
	<time>2023-08-06T08:16:43.000Z</time>
</trkpt>
<trkpt lat="46.0489990" lon="10.4871450">
	<ele>2307.60</ele>
	<time>2023-08-06T08:16:44.000Z</time>
</trkpt>
<trkpt lat="46.0489990" lon="10.4871450">
	<ele>2307.60</ele>
	<time>2023-08-06T08:16:45.000Z</time>
</trkpt>
<trkpt lat="46.0489990" lon="10.4871450">
	<ele>2307.60</ele>
	<time>2023-08-06T08:16:46.000Z</time>
</trkpt>
<trkpt lat="46.0489990" lon="10.4871450">
	<ele>2307.40</ele>
	<time>2023-08-06T08:16:47.000Z</time>
</trkpt>
<trkpt lat="46.0489990" lon="10.4871450">
	<ele>2307.40</ele>
	<time>2023-08-06T08:16:48.000Z</time>
</trkpt>
<trkpt lat="46.0489990" lon="10.4871450">
	<ele>2307.20</ele>
	<time>2023-08-06T08:16:49.000Z</time>
</trkpt>
<trkpt lat="46.0489990" lon="10.4871450">
	<ele>2307.40</ele>
	<time>2023-08-06T08:16:50.000Z</time>
</trkpt>
<trkpt lat="46.0489990" lon="10.4871450">
	<ele>2307.40</ele>
	<time>2023-08-06T08:16:51.000Z</time>
</trkpt>
<trkpt lat="46.0489990" lon="10.4871450">
	<ele>2307.40</ele>
	<time>2023-08-06T08:16:52.000Z</time>
</trkpt>
<trkpt lat="46.0489990" lon="10.4871450">
	<ele>2307.60</ele>
	<time>2023-08-06T08:16:53.000Z</time>
</trkpt>
<trkpt lat="46.0489990" lon="10.4871450">
	<ele>2307.60</ele>
	<time>2023-08-06T08:16:54.000Z</time>
</trkpt>
<trkpt lat="46.0489990" lon="10.4871460">
	<ele>2307.40</ele>
	<time>2023-08-06T08:16:55.000Z</time>
</trkpt>
<trkpt lat="46.0489990" lon="10.4871470">
	<ele>2307.40</ele>
	<time>2023-08-06T08:16:56.000Z</time>
</trkpt>
<trkpt lat="46.0489990" lon="10.4871480">
	<ele>2307.40</ele>
	<time>2023-08-06T08:16:57.000Z</time>
</trkpt>
<trkpt lat="46.0489990" lon="10.4871480">
	<ele>2307.00</ele>
	<time>2023-08-06T08:16:58.000Z</time>
</trkpt>
<trkpt lat="46.0489990" lon="10.4871490">
	<ele>2307.00</ele>
	<time>2023-08-06T08:16:59.000Z</time>
</trkpt>
<trkpt lat="46.0489990" lon="10.4871500">
	<ele>2306.80</ele>
	<time>2023-08-06T08:17:00.000Z</time>
</trkpt>
<trkpt lat="46.0489990" lon="10.4871510">
	<ele>2306.80</ele>
	<time>2023-08-06T08:17:01.000Z</time>
</trkpt>
<trkpt lat="46.0489990" lon="10.4871510">
	<ele>2306.80</ele>
	<time>2023-08-06T08:17:02.000Z</time>
</trkpt>
<trkpt lat="46.0489990" lon="10.4871520">
	<ele>2307.00</ele>
	<time>2023-08-06T08:17:03.000Z</time>
</trkpt>
<trkpt lat="46.0489980" lon="10.4871520">
	<ele>2307.00</ele>
	<time>2023-08-06T08:17:04.000Z</time>
</trkpt>
<trkpt lat="46.0489980" lon="10.4871520">
	<ele>2307.20</ele>
	<time>2023-08-06T08:17:05.000Z</time>
</trkpt>
<trkpt lat="46.0489980" lon="10.4871530">
	<ele>2307.20</ele>
	<time>2023-08-06T08:17:06.000Z</time>
</trkpt>
<trkpt lat="46.0489980" lon="10.4871530">
	<ele>2307.20</ele>
	<time>2023-08-06T08:17:07.000Z</time>
</trkpt>
<trkpt lat="46.0489980" lon="10.4871530">
	<ele>2307.20</ele>
	<time>2023-08-06T08:17:08.000Z</time>
</trkpt>
<trkpt lat="46.0489980" lon="10.4871530">
	<ele>2307.40</ele>
	<time>2023-08-06T08:17:09.000Z</time>
</trkpt>
<trkpt lat="46.0489980" lon="10.4871540">
	<ele>2307.20</ele>
	<time>2023-08-06T08:17:10.000Z</time>
</trkpt>
<trkpt lat="46.0489980" lon="10.4871540">
	<ele>2307.40</ele>
	<time>2023-08-06T08:17:11.000Z</time>
</trkpt>
<trkpt lat="46.0489980" lon="10.4871540">
	<ele>2307.40</ele>
	<time>2023-08-06T08:17:12.000Z</time>
</trkpt>
<trkpt lat="46.0489970" lon="10.4871540">
	<ele>2307.40</ele>
	<time>2023-08-06T08:17:13.000Z</time>
</trkpt>
<trkpt lat="46.0489970" lon="10.4871550">
	<ele>2307.40</ele>
	<time>2023-08-06T08:17:14.000Z</time>
</trkpt>
<trkpt lat="46.0489970" lon="10.4871550">
	<ele>2307.40</ele>
	<time>2023-08-06T08:17:15.000Z</time>
</trkpt>
<trkpt lat="46.0489970" lon="10.4871550">
	<ele>2307.40</ele>
	<time>2023-08-06T08:17:16.000Z</time>
</trkpt>
<trkpt lat="46.0489960" lon="10.4871550">
	<ele>2307.40</ele>
	<time>2023-08-06T08:17:17.000Z</time>
</trkpt>
<trkpt lat="46.0489960" lon="10.4871550">
	<ele>2307.40</ele>
	<time>2023-08-06T08:17:18.000Z</time>
</trkpt>
<trkpt lat="46.0489950" lon="10.4871550">
	<ele>2307.40</ele>
	<time>2023-08-06T08:17:19.000Z</time>
</trkpt>
<trkpt lat="46.0489940" lon="10.4871550">
	<ele>2307.40</ele>
	<time>2023-08-06T08:17:20.000Z</time>
</trkpt>
<trkpt lat="46.0489940" lon="10.4871550">
	<ele>2307.40</ele>
	<time>2023-08-06T08:17:21.000Z</time>
</trkpt>
<trkpt lat="46.0489930" lon="10.4871560">
	<ele>2307.40</ele>
	<time>2023-08-06T08:17:22.000Z</time>
</trkpt>
<trkpt lat="46.0489930" lon="10.4871560">
	<ele>2307.40</ele>
	<time>2023-08-06T08:17:23.000Z</time>
</trkpt>
<trkpt lat="46.0489920" lon="10.4871560">
	<ele>2307.40</ele>
	<time>2023-08-06T08:17:24.000Z</time>
</trkpt>
<trkpt lat="46.0489920" lon="10.4871570">
	<ele>2307.40</ele>
	<time>2023-08-06T08:17:25.000Z</time>
</trkpt>
<trkpt lat="46.0489920" lon="10.4871570">
	<ele>2307.40</ele>
	<time>2023-08-06T08:17:26.000Z</time>
</trkpt>
<trkpt lat="46.0489920" lon="10.4871570">
	<ele>2307.00</ele>
	<time>2023-08-06T08:17:27.000Z</time>
</trkpt>
<trkpt lat="46.0489910" lon="10.4871570">
	<ele>2307.00</ele>
	<time>2023-08-06T08:17:28.000Z</time>
</trkpt>
<trkpt lat="46.0489910" lon="10.4871580">
	<ele>2307.00</ele>
	<time>2023-08-06T08:17:29.000Z</time>
</trkpt>
<trkpt lat="46.0489910" lon="10.4871580">
	<ele>2307.00</ele>
	<time>2023-08-06T08:17:30.000Z</time>
</trkpt>
<trkpt lat="46.0489910" lon="10.4871580">
	<ele>2307.00</ele>
	<time>2023-08-06T08:17:31.000Z</time>
</trkpt>
<trkpt lat="46.0489910" lon="10.4871580">
	<ele>2307.00</ele>
	<time>2023-08-06T08:17:32.000Z</time>
</trkpt>
<trkpt lat="46.0489910" lon="10.4871580">
	<ele>2307.00</ele>
	<time>2023-08-06T08:17:33.000Z</time>
</trkpt>
<trkpt lat="46.0489910" lon="10.4871580">
	<ele>2307.00</ele>
	<time>2023-08-06T08:17:34.000Z</time>
</trkpt>
<trkpt lat="46.0489910" lon="10.4871580">
	<ele>2307.00</ele>
	<time>2023-08-06T08:17:35.000Z</time>
</trkpt>
<trkpt lat="46.0489910" lon="10.4871580">
	<ele>2307.00</ele>
	<time>2023-08-06T08:17:36.000Z</time>
</trkpt>
<trkpt lat="46.0489910" lon="10.4871580">
	<ele>2307.00</ele>
	<time>2023-08-06T08:17:37.000Z</time>
</trkpt>
<trkpt lat="46.0489910" lon="10.4871580">
	<ele>2307.00</ele>
	<time>2023-08-06T08:17:38.000Z</time>
</trkpt>
<trkpt lat="46.0489910" lon="10.4871590">
	<ele>2307.00</ele>
	<time>2023-08-06T08:17:39.000Z</time>
</trkpt>
<trkpt lat="46.0489910" lon="10.4871590">
	<ele>2307.00</ele>
	<time>2023-08-06T08:17:40.000Z</time>
</trkpt>
<trkpt lat="46.0489910" lon="10.4871590">
	<ele>2307.00</ele>
	<time>2023-08-06T08:17:41.000Z</time>
</trkpt>
<trkpt lat="46.0489910" lon="10.4871590">
	<ele>2307.00</ele>
	<time>2023-08-06T08:17:42.000Z</time>
</trkpt>
<trkpt lat="46.0489910" lon="10.4871590">
	<ele>2307.00</ele>
	<time>2023-08-06T08:17:43.000Z</time>
</trkpt>
<trkpt lat="46.0489910" lon="10.4871590">
	<ele>2307.00</ele>
	<time>2023-08-06T08:17:44.000Z</time>
</trkpt>
<trkpt lat="46.0489910" lon="10.4871590">
	<ele>2307.00</ele>
	<time>2023-08-06T08:17:45.000Z</time>
</trkpt>
<trkpt lat="46.0489910" lon="10.4871590">
	<ele>2307.00</ele>
	<time>2023-08-06T08:17:46.000Z</time>
</trkpt>
<trkpt lat="46.0489910" lon="10.4871590">
	<ele>2307.00</ele>
	<time>2023-08-06T08:17:47.000Z</time>
</trkpt>
<trkpt lat="46.0489910" lon="10.4871590">
	<ele>2307.00</ele>
	<time>2023-08-06T08:17:48.000Z</time>
</trkpt>
<trkpt lat="46.0489910" lon="10.4871600">
	<ele>2307.00</ele>
	<time>2023-08-06T08:17:49.000Z</time>
</trkpt>
<trkpt lat="46.0489910" lon="10.4871600">
	<ele>2307.00</ele>
	<time>2023-08-06T08:17:50.000Z</time>
</trkpt>
<trkpt lat="46.0489920" lon="10.4871600">
	<ele>2307.00</ele>
	<time>2023-08-06T08:17:51.000Z</time>
</trkpt>
<trkpt lat="46.0489920" lon="10.4871600">
	<ele>2307.00</ele>
	<time>2023-08-06T08:17:52.000Z</time>
</trkpt>
<trkpt lat="46.0489920" lon="10.4871600">
	<ele>2307.00</ele>
	<time>2023-08-06T08:17:53.000Z</time>
</trkpt>
<trkpt lat="46.0489920" lon="10.4871600">
	<ele>2307.00</ele>
	<time>2023-08-06T08:17:54.000Z</time>
</trkpt>
<trkpt lat="46.0489920" lon="10.4871610">
	<ele>2307.00</ele>
	<time>2023-08-06T08:17:55.000Z</time>
</trkpt>
<trkpt lat="46.0489920" lon="10.4871610">
	<ele>2307.00</ele>
	<time>2023-08-06T08:17:56.000Z</time>
</trkpt>
<trkpt lat="46.0489960" lon="10.4871640">
	<ele>2307.00</ele>
	<time>2023-08-06T08:17:57.000Z</time>
</trkpt>
<trkpt lat="46.0490030" lon="10.4871690">
	<ele>2307.00</ele>
	<time>2023-08-06T08:17:58.000Z</time>
</trkpt>
<trkpt lat="46.0490100" lon="10.4871740">
	<ele>2307.00</ele>
	<time>2023-08-06T08:17:59.000Z</time>
</trkpt>
<trkpt lat="46.0490180" lon="10.4871770">
	<ele>2307.00</ele>
	<time>2023-08-06T08:18:00.000Z</time>
</trkpt>
<trkpt lat="46.0490290" lon="10.4871760">
	<ele>2307.00</ele>
	<time>2023-08-06T08:18:01.000Z</time>
</trkpt>
<trkpt lat="46.0490400" lon="10.4871810">
	<ele>2307.00</ele>
	<time>2023-08-06T08:18:02.000Z</time>
</trkpt>
<trkpt lat="46.0490540" lon="10.4871880">
	<ele>2307.00</ele>
	<time>2023-08-06T08:18:03.000Z</time>
</trkpt>
<trkpt lat="46.0490610" lon="10.4871920">
	<ele>2307.00</ele>
	<time>2023-08-06T08:18:04.000Z</time>
</trkpt>
<trkpt lat="46.0490680" lon="10.4871970">
	<ele>2307.00</ele>
	<time>2023-08-06T08:18:05.000Z</time>
</trkpt>
<trkpt lat="46.0490760" lon="10.4871980">
	<ele>2307.00</ele>
	<time>2023-08-06T08:18:06.000Z</time>
</trkpt>
<trkpt lat="46.0490790" lon="10.4871970">
	<ele>2307.00</ele>
	<time>2023-08-06T08:18:07.000Z</time>
</trkpt>
<trkpt lat="46.0490780" lon="10.4871940">
	<ele>2307.00</ele>
	<time>2023-08-06T08:18:08.000Z</time>
</trkpt>
<trkpt lat="46.0490760" lon="10.4871910">
	<ele>2307.00</ele>
	<time>2023-08-06T08:18:09.000Z</time>
</trkpt>
<trkpt lat="46.0490760" lon="10.4871880">
	<ele>2307.00</ele>
	<time>2023-08-06T08:18:10.000Z</time>
</trkpt>
<trkpt lat="46.0490770" lon="10.4871830">
	<ele>2307.00</ele>
	<time>2023-08-06T08:18:11.000Z</time>
</trkpt>
<trkpt lat="46.0490760" lon="10.4871800">
	<ele>2307.00</ele>
	<time>2023-08-06T08:18:12.000Z</time>
</trkpt>
<trkpt lat="46.0490740" lon="10.4871790">
	<ele>2307.00</ele>
	<time>2023-08-06T08:18:13.000Z</time>
</trkpt>
<trkpt lat="46.0490730" lon="10.4871840">
	<ele>2307.00</ele>
	<time>2023-08-06T08:18:14.000Z</time>
</trkpt>
<trkpt lat="46.0490700" lon="10.4871830">
	<ele>2307.00</ele>
	<time>2023-08-06T08:18:15.000Z</time>
</trkpt>
<trkpt lat="46.0490640" lon="10.4871770">
	<ele>2307.00</ele>
	<time>2023-08-06T08:18:16.000Z</time>
</trkpt>
<trkpt lat="46.0490630" lon="10.4871730">
	<ele>2307.00</ele>
	<time>2023-08-06T08:18:17.000Z</time>
</trkpt>
<trkpt lat="46.0490620" lon="10.4871690">
	<ele>2307.00</ele>
	<time>2023-08-06T08:18:18.000Z</time>
</trkpt>
<trkpt lat="46.0490650" lon="10.4871630">
	<ele>2307.00</ele>
	<time>2023-08-06T08:18:19.000Z</time>
</trkpt>
<trkpt lat="46.0490670" lon="10.4871560">
	<ele>2307.00</ele>
	<time>2023-08-06T08:18:20.000Z</time>
</trkpt>
<trkpt lat="46.0490660" lon="10.4871530">
	<ele>2307.00</ele>
	<time>2023-08-06T08:18:21.000Z</time>
</trkpt>
<trkpt lat="46.0490600" lon="10.4871490">
	<ele>2307.00</ele>
	<time>2023-08-06T08:18:22.000Z</time>
</trkpt>
<trkpt lat="46.0490550" lon="10.4871470">
	<ele>2307.00</ele>
	<time>2023-08-06T08:18:23.000Z</time>
</trkpt>
<trkpt lat="46.0490540" lon="10.4871420">
	<ele>2307.00</ele>
	<time>2023-08-06T08:18:24.000Z</time>
</trkpt>
<trkpt lat="46.0490510" lon="10.4871320">
	<ele>2307.00</ele>
	<time>2023-08-06T08:18:25.000Z</time>
</trkpt>
<trkpt lat="46.0490500" lon="10.4871260">
	<ele>2307.00</ele>
	<time>2023-08-06T08:18:26.000Z</time>
</trkpt>
<trkpt lat="46.0490490" lon="10.4871190">
	<ele>2307.00</ele>
	<time>2023-08-06T08:18:27.000Z</time>
</trkpt>
<trkpt lat="46.0490500" lon="10.4871090">
	<ele>2312.00</ele>
	<time>2023-08-06T08:18:28.000Z</time>
</trkpt>
<trkpt lat="46.0490530" lon="10.4871030">
	<ele>2312.00</ele>
	<time>2023-08-06T08:18:29.000Z</time>
</trkpt>
<trkpt lat="46.0490580" lon="10.4870920">
	<ele>2312.00</ele>
	<time>2023-08-06T08:18:30.000Z</time>
</trkpt>
<trkpt lat="46.0490590" lon="10.4870860">
	<ele>2312.00</ele>
	<time>2023-08-06T08:18:31.000Z</time>
</trkpt>
<trkpt lat="46.0490600" lon="10.4870820">
	<ele>2312.00</ele>
	<time>2023-08-06T08:18:32.000Z</time>
</trkpt>
<trkpt lat="46.0490620" lon="10.4870830">
	<ele>2312.00</ele>
	<time>2023-08-06T08:18:33.000Z</time>
</trkpt>
<trkpt lat="46.0490640" lon="10.4870810">
	<ele>2312.20</ele>
	<time>2023-08-06T08:18:34.000Z</time>
</trkpt>
<trkpt lat="46.0490670" lon="10.4870790">
	<ele>2312.20</ele>
	<time>2023-08-06T08:18:35.000Z</time>
</trkpt>
<trkpt lat="46.0490690" lon="10.4870780">
	<ele>2312.20</ele>
	<time>2023-08-06T08:18:36.000Z</time>
</trkpt>
<trkpt lat="46.0490740" lon="10.4870760">
	<ele>2312.40</ele>
	<time>2023-08-06T08:18:37.000Z</time>
</trkpt>
<trkpt lat="46.0490870" lon="10.4870710">
	<ele>2312.60</ele>
	<time>2023-08-06T08:18:38.000Z</time>
</trkpt>
<trkpt lat="46.0491000" lon="10.4870640">
	<ele>2312.80</ele>
	<time>2023-08-06T08:18:39.000Z</time>
</trkpt>
<trkpt lat="46.0491110" lon="10.4870690">
	<ele>2312.80</ele>
	<time>2023-08-06T08:18:40.000Z</time>
</trkpt>
<trkpt lat="46.0491140" lon="10.4870720">
	<ele>2313.00</ele>
	<time>2023-08-06T08:18:41.000Z</time>
</trkpt>
<trkpt lat="46.0491150" lon="10.4870780">
	<ele>2313.20</ele>
	<time>2023-08-06T08:18:42.000Z</time>
</trkpt>
<trkpt lat="46.0491150" lon="10.4870800">
	<ele>2313.40</ele>
	<time>2023-08-06T08:18:43.000Z</time>
</trkpt>
<trkpt lat="46.0491160" lon="10.4870830">
	<ele>2313.60</ele>
	<time>2023-08-06T08:18:44.000Z</time>
</trkpt>
<trkpt lat="46.0491180" lon="10.4870790">
	<ele>2313.60</ele>
	<time>2023-08-06T08:18:45.000Z</time>
</trkpt>
<trkpt lat="46.0491220" lon="10.4870730">
	<ele>2313.80</ele>
	<time>2023-08-06T08:18:46.000Z</time>
</trkpt>
<trkpt lat="46.0491280" lon="10.4870740">
	<ele>2313.80</ele>
	<time>2023-08-06T08:18:47.000Z</time>
</trkpt>
<trkpt lat="46.0491300" lon="10.4870730">
	<ele>2313.80</ele>
	<time>2023-08-06T08:18:48.000Z</time>
</trkpt>
<trkpt lat="46.0491320" lon="10.4870710">
	<ele>2313.80</ele>
	<time>2023-08-06T08:18:49.000Z</time>
</trkpt>
<trkpt lat="46.0491330" lon="10.4870660">
	<ele>2313.80</ele>
	<time>2023-08-06T08:18:50.000Z</time>
</trkpt>
<trkpt lat="46.0491330" lon="10.4870630">
	<ele>2313.80</ele>
	<time>2023-08-06T08:18:51.000Z</time>
</trkpt>
<trkpt lat="46.0491320" lon="10.4870550">
	<ele>2313.80</ele>
	<time>2023-08-06T08:18:52.000Z</time>
</trkpt>
<trkpt lat="46.0491370" lon="10.4870520">
	<ele>2314.00</ele>
	<time>2023-08-06T08:18:53.000Z</time>
</trkpt>
<trkpt lat="46.0491430" lon="10.4870510">
	<ele>2314.00</ele>
	<time>2023-08-06T08:18:54.000Z</time>
</trkpt>
<trkpt lat="46.0491420" lon="10.4870440">
	<ele>2314.00</ele>
	<time>2023-08-06T08:18:55.000Z</time>
</trkpt>
<trkpt lat="46.0491430" lon="10.4870400">
	<ele>2314.20</ele>
	<time>2023-08-06T08:18:56.000Z</time>
</trkpt>
<trkpt lat="46.0491450" lon="10.4870400">
	<ele>2314.20</ele>
	<time>2023-08-06T08:18:57.000Z</time>
</trkpt>
<trkpt lat="46.0491460" lon="10.4870370">
	<ele>2314.40</ele>
	<time>2023-08-06T08:18:58.000Z</time>
</trkpt>
<trkpt lat="46.0491470" lon="10.4870360">
	<ele>2314.40</ele>
	<time>2023-08-06T08:18:59.000Z</time>
</trkpt>
<trkpt lat="46.0491530" lon="10.4870340">
	<ele>2314.80</ele>
	<time>2023-08-06T08:19:00.000Z</time>
</trkpt>
<trkpt lat="46.0491560" lon="10.4870310">
	<ele>2315.00</ele>
	<time>2023-08-06T08:19:01.000Z</time>
</trkpt>
<trkpt lat="46.0491590" lon="10.4870280">
	<ele>2315.20</ele>
	<time>2023-08-06T08:19:02.000Z</time>
</trkpt>
<trkpt lat="46.0491660" lon="10.4870270">
	<ele>2315.40</ele>
	<time>2023-08-06T08:19:03.000Z</time>
</trkpt>
<trkpt lat="46.0491780" lon="10.4870280">
	<ele>2315.40</ele>
	<time>2023-08-06T08:19:04.000Z</time>
</trkpt>
<trkpt lat="46.0491840" lon="10.4870270">
	<ele>2315.40</ele>
	<time>2023-08-06T08:19:05.000Z</time>
</trkpt>
<trkpt lat="46.0491890" lon="10.4870270">
	<ele>2315.40</ele>
	<time>2023-08-06T08:19:06.000Z</time>
</trkpt>
<trkpt lat="46.0491920" lon="10.4870290">
	<ele>2315.60</ele>
	<time>2023-08-06T08:19:07.000Z</time>
</trkpt>
<trkpt lat="46.0491970" lon="10.4870230">
	<ele>2315.60</ele>
	<time>2023-08-06T08:19:08.000Z</time>
</trkpt>
<trkpt lat="46.0492000" lon="10.4870220">
	<ele>2315.80</ele>
	<time>2023-08-06T08:19:09.000Z</time>
</trkpt>
<trkpt lat="46.0492050" lon="10.4870200">
	<ele>2315.80</ele>
	<time>2023-08-06T08:19:10.000Z</time>
</trkpt>
<trkpt lat="46.0492050" lon="10.4870190">
	<ele>2316.00</ele>
	<time>2023-08-06T08:19:11.000Z</time>
</trkpt>
<trkpt lat="46.0492060" lon="10.4870190">
	<ele>2316.00</ele>
	<time>2023-08-06T08:19:12.000Z</time>
</trkpt>
<trkpt lat="46.0492080" lon="10.4870180">
	<ele>2316.00</ele>
	<time>2023-08-06T08:19:13.000Z</time>
</trkpt>
<trkpt lat="46.0492090" lon="10.4870170">
	<ele>2316.00</ele>
	<time>2023-08-06T08:19:14.000Z</time>
</trkpt>
<trkpt lat="46.0492100" lon="10.4870150">
	<ele>2316.20</ele>
	<time>2023-08-06T08:19:15.000Z</time>
</trkpt>
<trkpt lat="46.0492060" lon="10.4870090">
	<ele>2316.20</ele>
	<time>2023-08-06T08:19:16.000Z</time>
</trkpt>
<trkpt lat="46.0492050" lon="10.4870040">
	<ele>2316.40</ele>
	<time>2023-08-06T08:19:17.000Z</time>
</trkpt>
<trkpt lat="46.0492030" lon="10.4870030">
	<ele>2316.40</ele>
	<time>2023-08-06T08:19:18.000Z</time>
</trkpt>
<trkpt lat="46.0492010" lon="10.4870010">
	<ele>2316.40</ele>
	<time>2023-08-06T08:19:19.000Z</time>
</trkpt>
<trkpt lat="46.0491990" lon="10.4869990">
	<ele>2316.60</ele>
	<time>2023-08-06T08:19:20.000Z</time>
</trkpt>
<trkpt lat="46.0491960" lon="10.4869970">
	<ele>2316.80</ele>
	<time>2023-08-06T08:19:21.000Z</time>
</trkpt>
<trkpt lat="46.0491940" lon="10.4869950">
	<ele>2316.80</ele>
	<time>2023-08-06T08:19:22.000Z</time>
</trkpt>
<trkpt lat="46.0491910" lon="10.4869930">
	<ele>2316.80</ele>
	<time>2023-08-06T08:19:23.000Z</time>
</trkpt>
<trkpt lat="46.0491890" lon="10.4869850">
	<ele>2316.80</ele>
	<time>2023-08-06T08:19:24.000Z</time>
</trkpt>
<trkpt lat="46.0491920" lon="10.4869860">
	<ele>2317.00</ele>
	<time>2023-08-06T08:19:25.000Z</time>
</trkpt>
<trkpt lat="46.0491930" lon="10.4869870">
	<ele>2317.00</ele>
	<time>2023-08-06T08:19:26.000Z</time>
</trkpt>
<trkpt lat="46.0491910" lon="10.4869840">
	<ele>2317.00</ele>
	<time>2023-08-06T08:19:27.000Z</time>
</trkpt>
<trkpt lat="46.0491890" lon="10.4869840">
	<ele>2317.20</ele>
	<time>2023-08-06T08:19:28.000Z</time>
</trkpt>
<trkpt lat="46.0491890" lon="10.4869830">
	<ele>2317.20</ele>
	<time>2023-08-06T08:19:29.000Z</time>
</trkpt>
<trkpt lat="46.0491900" lon="10.4869820">
	<ele>2317.40</ele>
	<time>2023-08-06T08:19:30.000Z</time>
</trkpt>
<trkpt lat="46.0491900" lon="10.4869810">
	<ele>2317.40</ele>
	<time>2023-08-06T08:19:31.000Z</time>
</trkpt>
<trkpt lat="46.0491910" lon="10.4869790">
	<ele>2317.40</ele>
	<time>2023-08-06T08:19:32.000Z</time>
</trkpt>
<trkpt lat="46.0491920" lon="10.4869780">
	<ele>2317.40</ele>
	<time>2023-08-06T08:19:33.000Z</time>
</trkpt>
<trkpt lat="46.0491940" lon="10.4869760">
	<ele>2317.40</ele>
	<time>2023-08-06T08:19:34.000Z</time>
</trkpt>
<trkpt lat="46.0491970" lon="10.4869750">
	<ele>2317.60</ele>
	<time>2023-08-06T08:19:35.000Z</time>
</trkpt>
<trkpt lat="46.0492040" lon="10.4869720">
	<ele>2317.60</ele>
	<time>2023-08-06T08:19:36.000Z</time>
</trkpt>
<trkpt lat="46.0492110" lon="10.4869690">
	<ele>2317.60</ele>
	<time>2023-08-06T08:19:37.000Z</time>
</trkpt>
<trkpt lat="46.0492130" lon="10.4869640">
	<ele>2317.60</ele>
	<time>2023-08-06T08:19:38.000Z</time>
</trkpt>
<trkpt lat="46.0492140" lon="10.4869620">
	<ele>2317.80</ele>
	<time>2023-08-06T08:19:39.000Z</time>
</trkpt>
<trkpt lat="46.0492190" lon="10.4869620">
	<ele>2317.80</ele>
	<time>2023-08-06T08:19:40.000Z</time>
</trkpt>
<trkpt lat="46.0492220" lon="10.4869630">
	<ele>2318.00</ele>
	<time>2023-08-06T08:19:41.000Z</time>
</trkpt>
<trkpt lat="46.0492240" lon="10.4869650">
	<ele>2318.00</ele>
	<time>2023-08-06T08:19:42.000Z</time>
</trkpt>
<trkpt lat="46.0492260" lon="10.4869660">
	<ele>2318.00</ele>
	<time>2023-08-06T08:19:43.000Z</time>
</trkpt>
<trkpt lat="46.0492250" lon="10.4869660">
	<ele>2318.00</ele>
	<time>2023-08-06T08:19:44.000Z</time>
</trkpt>
<trkpt lat="46.0492250" lon="10.4869660">
	<ele>2318.00</ele>
	<time>2023-08-06T08:19:45.000Z</time>
</trkpt>
<trkpt lat="46.0492250" lon="10.4869660">
	<ele>2318.00</ele>
	<time>2023-08-06T08:19:46.000Z</time>
</trkpt>
<trkpt lat="46.0492250" lon="10.4869660">
	<ele>2318.00</ele>
	<time>2023-08-06T08:19:47.000Z</time>
</trkpt>
<trkpt lat="46.0492250" lon="10.4869660">
	<ele>2318.00</ele>
	<time>2023-08-06T08:19:48.000Z</time>
</trkpt>
<trkpt lat="46.0492250" lon="10.4869660">
	<ele>2318.20</ele>
	<time>2023-08-06T08:19:49.000Z</time>
</trkpt>
<trkpt lat="46.0492250" lon="10.4869660">
	<ele>2318.20</ele>
	<time>2023-08-06T08:19:50.000Z</time>
</trkpt>
<trkpt lat="46.0492250" lon="10.4869660">
	<ele>2318.40</ele>
	<time>2023-08-06T08:19:51.000Z</time>
</trkpt>
<trkpt lat="46.0492250" lon="10.4869660">
	<ele>2318.60</ele>
	<time>2023-08-06T08:19:52.000Z</time>
</trkpt>
<trkpt lat="46.0492250" lon="10.4869660">
	<ele>2318.60</ele>
	<time>2023-08-06T08:19:53.000Z</time>
</trkpt>
<trkpt lat="46.0492250" lon="10.4869660">
	<ele>2318.80</ele>
	<time>2023-08-06T08:19:54.000Z</time>
</trkpt>
<trkpt lat="46.0492250" lon="10.4869650">
	<ele>2319.00</ele>
	<time>2023-08-06T08:19:55.000Z</time>
</trkpt>
<trkpt lat="46.0492250" lon="10.4869640">
	<ele>2319.20</ele>
	<time>2023-08-06T08:19:56.000Z</time>
</trkpt>
<trkpt lat="46.0492250" lon="10.4869630">
	<ele>2319.40</ele>
	<time>2023-08-06T08:19:57.000Z</time>
</trkpt>
<trkpt lat="46.0492250" lon="10.4869630">
	<ele>2319.60</ele>
	<time>2023-08-06T08:19:58.000Z</time>
</trkpt>
<trkpt lat="46.0492260" lon="10.4869620">
	<ele>2319.60</ele>
	<time>2023-08-06T08:19:59.000Z</time>
</trkpt>
<trkpt lat="46.0492270" lon="10.4869620">
	<ele>2319.80</ele>
	<time>2023-08-06T08:20:00.000Z</time>
</trkpt>
<trkpt lat="46.0492280" lon="10.4869600">
	<ele>2319.80</ele>
	<time>2023-08-06T08:20:01.000Z</time>
</trkpt>
<trkpt lat="46.0492300" lon="10.4869580">
	<ele>2320.00</ele>
	<time>2023-08-06T08:20:02.000Z</time>
</trkpt>
<trkpt lat="46.0492310" lon="10.4869550">
	<ele>2320.00</ele>
	<time>2023-08-06T08:20:03.000Z</time>
</trkpt>
<trkpt lat="46.0492330" lon="10.4869520">
	<ele>2320.20</ele>
	<time>2023-08-06T08:20:04.000Z</time>
</trkpt>
<trkpt lat="46.0492340" lon="10.4869490">
	<ele>2320.20</ele>
	<time>2023-08-06T08:20:05.000Z</time>
</trkpt>
<trkpt lat="46.0492360" lon="10.4869480">
	<ele>2320.20</ele>
	<time>2023-08-06T08:20:06.000Z</time>
</trkpt>
<trkpt lat="46.0492360" lon="10.4869430">
	<ele>2320.20</ele>
	<time>2023-08-06T08:20:07.000Z</time>
</trkpt>
<trkpt lat="46.0492370" lon="10.4869400">
	<ele>2320.40</ele>
	<time>2023-08-06T08:20:08.000Z</time>
</trkpt>
<trkpt lat="46.0492370" lon="10.4869360">
	<ele>2320.40</ele>
	<time>2023-08-06T08:20:09.000Z</time>
</trkpt>
<trkpt lat="46.0492370" lon="10.4869320">
	<ele>2320.60</ele>
	<time>2023-08-06T08:20:10.000Z</time>
</trkpt>
<trkpt lat="46.0492380" lon="10.4869260">
	<ele>2320.60</ele>
	<time>2023-08-06T08:20:11.000Z</time>
</trkpt>
<trkpt lat="46.0492380" lon="10.4869240">
	<ele>2321.00</ele>
	<time>2023-08-06T08:20:12.000Z</time>
</trkpt>
<trkpt lat="46.0492380" lon="10.4869230">
	<ele>2321.20</ele>
	<time>2023-08-06T08:20:13.000Z</time>
</trkpt>
<trkpt lat="46.0492380" lon="10.4869180">
	<ele>2321.20</ele>
	<time>2023-08-06T08:20:14.000Z</time>
</trkpt>
<trkpt lat="46.0492380" lon="10.4869160">
	<ele>2321.40</ele>
	<time>2023-08-06T08:20:15.000Z</time>
</trkpt>
<trkpt lat="46.0492380" lon="10.4869150">
	<ele>2321.40</ele>
	<time>2023-08-06T08:20:16.000Z</time>
</trkpt>
<trkpt lat="46.0492380" lon="10.4869130">
	<ele>2321.40</ele>
	<time>2023-08-06T08:20:17.000Z</time>
</trkpt>
<trkpt lat="46.0492380" lon="10.4869070">
	<ele>2321.40</ele>
	<time>2023-08-06T08:20:18.000Z</time>
</trkpt>
<trkpt lat="46.0492380" lon="10.4869040">
	<ele>2321.60</ele>
	<time>2023-08-06T08:20:19.000Z</time>
</trkpt>
<trkpt lat="46.0492380" lon="10.4869000">
	<ele>2321.60</ele>
	<time>2023-08-06T08:20:20.000Z</time>
</trkpt>
<trkpt lat="46.0492380" lon="10.4868960">
	<ele>2321.60</ele>
	<time>2023-08-06T08:20:21.000Z</time>
</trkpt>
<trkpt lat="46.0492380" lon="10.4868940">
	<ele>2321.80</ele>
	<time>2023-08-06T08:20:22.000Z</time>
</trkpt>
<trkpt lat="46.0492380" lon="10.4868890">
	<ele>2321.80</ele>
	<time>2023-08-06T08:20:23.000Z</time>
</trkpt>
<trkpt lat="46.0492380" lon="10.4868830">
	<ele>2322.00</ele>
	<time>2023-08-06T08:20:24.000Z</time>
</trkpt>
<trkpt lat="46.0492380" lon="10.4868780">
	<ele>2322.20</ele>
	<time>2023-08-06T08:20:25.000Z</time>
</trkpt>
<trkpt lat="46.0492380" lon="10.4868760">
	<ele>2322.20</ele>
	<time>2023-08-06T08:20:26.000Z</time>
</trkpt>
<trkpt lat="46.0492380" lon="10.4868740">
	<ele>2322.20</ele>
	<time>2023-08-06T08:20:27.000Z</time>
</trkpt>
<trkpt lat="46.0492370" lon="10.4868710">
	<ele>2322.40</ele>
	<time>2023-08-06T08:20:28.000Z</time>
</trkpt>
<trkpt lat="46.0492370" lon="10.4868650">
	<ele>2322.60</ele>
	<time>2023-08-06T08:20:29.000Z</time>
</trkpt>
<trkpt lat="46.0492350" lon="10.4868630">
	<ele>2322.80</ele>
	<time>2023-08-06T08:20:30.000Z</time>
</trkpt>
<trkpt lat="46.0492340" lon="10.4868620">
	<ele>2322.80</ele>
	<time>2023-08-06T08:20:31.000Z</time>
</trkpt>
<trkpt lat="46.0492320" lon="10.4868600">
	<ele>2323.00</ele>
	<time>2023-08-06T08:20:32.000Z</time>
</trkpt>
<trkpt lat="46.0492310" lon="10.4868570">
	<ele>2323.00</ele>
	<time>2023-08-06T08:20:33.000Z</time>
</trkpt>
<trkpt lat="46.0492300" lon="10.4868530">
	<ele>2323.20</ele>
	<time>2023-08-06T08:20:34.000Z</time>
</trkpt>
<trkpt lat="46.0492300" lon="10.4868490">
	<ele>2323.20</ele>
	<time>2023-08-06T08:20:35.000Z</time>
</trkpt>
<trkpt lat="46.0492300" lon="10.4868440">
	<ele>2323.40</ele>
	<time>2023-08-06T08:20:36.000Z</time>
</trkpt>
<trkpt lat="46.0492290" lon="10.4868390">
	<ele>2323.40</ele>
	<time>2023-08-06T08:20:37.000Z</time>
</trkpt>
<trkpt lat="46.0492280" lon="10.4868350">
	<ele>2323.40</ele>
	<time>2023-08-06T08:20:38.000Z</time>
</trkpt>
<trkpt lat="46.0492280" lon="10.4868340">
	<ele>2323.60</ele>
	<time>2023-08-06T08:20:39.000Z</time>
</trkpt>
<trkpt lat="46.0492280" lon="10.4868330">
	<ele>2323.80</ele>
	<time>2023-08-06T08:20:40.000Z</time>
</trkpt>
<trkpt lat="46.0492280" lon="10.4868330">
	<ele>2323.80</ele>
	<time>2023-08-06T08:20:41.000Z</time>
</trkpt>
<trkpt lat="46.0492280" lon="10.4868310">
	<ele>2324.00</ele>
	<time>2023-08-06T08:20:42.000Z</time>
</trkpt>
<trkpt lat="46.0492280" lon="10.4868290">
	<ele>2324.20</ele>
	<time>2023-08-06T08:20:43.000Z</time>
</trkpt>
<trkpt lat="46.0492280" lon="10.4868280">
	<ele>2324.40</ele>
	<time>2023-08-06T08:20:44.000Z</time>
</trkpt>
<trkpt lat="46.0492280" lon="10.4868250">
	<ele>2324.80</ele>
	<time>2023-08-06T08:20:45.000Z</time>
</trkpt>
<trkpt lat="46.0492280" lon="10.4868230">
	<ele>2324.80</ele>
	<time>2023-08-06T08:20:46.000Z</time>
</trkpt>
<trkpt lat="46.0492280" lon="10.4868180">
	<ele>2325.00</ele>
	<time>2023-08-06T08:20:47.000Z</time>
</trkpt>
<trkpt lat="46.0492290" lon="10.4868140">
	<ele>2325.00</ele>
	<time>2023-08-06T08:20:48.000Z</time>
</trkpt>
<trkpt lat="46.0492300" lon="10.4868060">
	<ele>2325.00</ele>
	<time>2023-08-06T08:20:49.000Z</time>
</trkpt>
<trkpt lat="46.0492300" lon="10.4867990">
	<ele>2325.20</ele>
	<time>2023-08-06T08:20:50.000Z</time>
</trkpt>
<trkpt lat="46.0492300" lon="10.4867940">
	<ele>2325.40</ele>
	<time>2023-08-06T08:20:51.000Z</time>
</trkpt>
<trkpt lat="46.0492320" lon="10.4867880">
	<ele>2325.60</ele>
	<time>2023-08-06T08:20:52.000Z</time>
</trkpt>
<trkpt lat="46.0492330" lon="10.4867840">
	<ele>2325.60</ele>
	<time>2023-08-06T08:20:53.000Z</time>
</trkpt>
<trkpt lat="46.0492330" lon="10.4867820">
	<ele>2325.80</ele>
	<time>2023-08-06T08:20:54.000Z</time>
</trkpt>
<trkpt lat="46.0492330" lon="10.4867800">
	<ele>2325.80</ele>
	<time>2023-08-06T08:20:55.000Z</time>
</trkpt>
<trkpt lat="46.0492330" lon="10.4867780">
	<ele>2326.00</ele>
	<time>2023-08-06T08:20:56.000Z</time>
</trkpt>
<trkpt lat="46.0492330" lon="10.4867740">
	<ele>2326.00</ele>
	<time>2023-08-06T08:20:57.000Z</time>
</trkpt>
<trkpt lat="46.0492340" lon="10.4867700">
	<ele>2326.20</ele>
	<time>2023-08-06T08:20:58.000Z</time>
</trkpt>
<trkpt lat="46.0492350" lon="10.4867660">
	<ele>2326.60</ele>
	<time>2023-08-06T08:20:59.000Z</time>
</trkpt>
<trkpt lat="46.0492360" lon="10.4867630">
	<ele>2326.60</ele>
	<time>2023-08-06T08:21:00.000Z</time>
</trkpt>
<trkpt lat="46.0492390" lon="10.4867610">
	<ele>2326.80</ele>
	<time>2023-08-06T08:21:01.000Z</time>
</trkpt>
<trkpt lat="46.0492400" lon="10.4867600">
	<ele>2326.80</ele>
	<time>2023-08-06T08:21:02.000Z</time>
</trkpt>
<trkpt lat="46.0492410" lon="10.4867580">
	<ele>2326.80</ele>
	<time>2023-08-06T08:21:03.000Z</time>
</trkpt>
<trkpt lat="46.0492430" lon="10.4867560">
	<ele>2326.80</ele>
	<time>2023-08-06T08:21:04.000Z</time>
</trkpt>
<trkpt lat="46.0492430" lon="10.4867530">
	<ele>2326.80</ele>
	<time>2023-08-06T08:21:05.000Z</time>
</trkpt>
<trkpt lat="46.0492440" lon="10.4867490">
	<ele>2327.20</ele>
	<time>2023-08-06T08:21:06.000Z</time>
</trkpt>
<trkpt lat="46.0492450" lon="10.4867470">
	<ele>2327.40</ele>
	<time>2023-08-06T08:21:07.000Z</time>
</trkpt>
<trkpt lat="46.0492450" lon="10.4867430">
	<ele>2327.60</ele>
	<time>2023-08-06T08:21:08.000Z</time>
</trkpt>
<trkpt lat="46.0492460" lon="10.4867400">
	<ele>2327.60</ele>
	<time>2023-08-06T08:21:09.000Z</time>
</trkpt>
<trkpt lat="46.0492460" lon="10.4867360">
	<ele>2327.80</ele>
	<time>2023-08-06T08:21:10.000Z</time>
</trkpt>
<trkpt lat="46.0492470" lon="10.4867300">
	<ele>2327.80</ele>
	<time>2023-08-06T08:21:11.000Z</time>
</trkpt>
<trkpt lat="46.0492470" lon="10.4867240">
	<ele>2328.00</ele>
	<time>2023-08-06T08:21:12.000Z</time>
</trkpt>
<trkpt lat="46.0492470" lon="10.4867210">
	<ele>2328.20</ele>
	<time>2023-08-06T08:21:13.000Z</time>
</trkpt>
<trkpt lat="46.0492470" lon="10.4867180">
	<ele>2328.40</ele>
	<time>2023-08-06T08:21:14.000Z</time>
</trkpt>
<trkpt lat="46.0492470" lon="10.4867160">
	<ele>2328.40</ele>
	<time>2023-08-06T08:21:15.000Z</time>
</trkpt>
<trkpt lat="46.0492470" lon="10.4867150">
	<ele>2328.60</ele>
	<time>2023-08-06T08:21:16.000Z</time>
</trkpt>
<trkpt lat="46.0492470" lon="10.4867140">
	<ele>2328.80</ele>
	<time>2023-08-06T08:21:17.000Z</time>
</trkpt>
<trkpt lat="46.0492490" lon="10.4867130">
	<ele>2328.80</ele>
	<time>2023-08-06T08:21:18.000Z</time>
</trkpt>
<trkpt lat="46.0492500" lon="10.4867130">
	<ele>2328.80</ele>
	<time>2023-08-06T08:21:19.000Z</time>
</trkpt>
<trkpt lat="46.0492550" lon="10.4867130">
	<ele>2329.00</ele>
	<time>2023-08-06T08:21:20.000Z</time>
</trkpt>
<trkpt lat="46.0492620" lon="10.4867120">
	<ele>2329.00</ele>
	<time>2023-08-06T08:21:21.000Z</time>
</trkpt>
<trkpt lat="46.0492690" lon="10.4867120">
	<ele>2329.00</ele>
	<time>2023-08-06T08:21:22.000Z</time>
</trkpt>
<trkpt lat="46.0492750" lon="10.4867110">
	<ele>2329.00</ele>
	<time>2023-08-06T08:21:23.000Z</time>
</trkpt>
<trkpt lat="46.0492790" lon="10.4867110">
	<ele>2329.00</ele>
	<time>2023-08-06T08:21:24.000Z</time>
</trkpt>
<trkpt lat="46.0492850" lon="10.4867110">
	<ele>2329.20</ele>
	<time>2023-08-06T08:21:25.000Z</time>
</trkpt>
<trkpt lat="46.0492890" lon="10.4867110">
	<ele>2329.40</ele>
	<time>2023-08-06T08:21:26.000Z</time>
</trkpt>
<trkpt lat="46.0492930" lon="10.4867110">
	<ele>2329.40</ele>
	<time>2023-08-06T08:21:27.000Z</time>
</trkpt>
<trkpt lat="46.0492960" lon="10.4867100">
	<ele>2329.80</ele>
	<time>2023-08-06T08:21:28.000Z</time>
</trkpt>
<trkpt lat="46.0492970" lon="10.4867100">
	<ele>2329.80</ele>
	<time>2023-08-06T08:21:29.000Z</time>
</trkpt>
<trkpt lat="46.0492980" lon="10.4867100">
	<ele>2330.00</ele>
	<time>2023-08-06T08:21:30.000Z</time>
</trkpt>
<trkpt lat="46.0492990" lon="10.4867100">
	<ele>2330.20</ele>
	<time>2023-08-06T08:21:31.000Z</time>
</trkpt>
<trkpt lat="46.0492990" lon="10.4867100">
	<ele>2330.40</ele>
	<time>2023-08-06T08:21:32.000Z</time>
</trkpt>
<trkpt lat="46.0492990" lon="10.4867090">
	<ele>2330.60</ele>
	<time>2023-08-06T08:21:33.000Z</time>
</trkpt>
<trkpt lat="46.0493000" lon="10.4867090">
	<ele>2330.80</ele>
	<time>2023-08-06T08:21:34.000Z</time>
</trkpt>
<trkpt lat="46.0493000" lon="10.4867080">
	<ele>2330.80</ele>
	<time>2023-08-06T08:21:35.000Z</time>
</trkpt>
<trkpt lat="46.0493000" lon="10.4867070">
	<ele>2331.00</ele>
	<time>2023-08-06T08:21:36.000Z</time>
</trkpt>
<trkpt lat="46.0493000" lon="10.4867050">
	<ele>2331.20</ele>
	<time>2023-08-06T08:21:37.000Z</time>
</trkpt>
<trkpt lat="46.0493000" lon="10.4867020">
	<ele>2331.40</ele>
	<time>2023-08-06T08:21:38.000Z</time>
</trkpt>
<trkpt lat="46.0493000" lon="10.4866990">
	<ele>2331.40</ele>
	<time>2023-08-06T08:21:39.000Z</time>
</trkpt>
<trkpt lat="46.0493000" lon="10.4866940">
	<ele>2331.60</ele>
	<time>2023-08-06T08:21:40.000Z</time>
</trkpt>
<trkpt lat="46.0493000" lon="10.4866900">
	<ele>2331.60</ele>
	<time>2023-08-06T08:21:41.000Z</time>
</trkpt>
<trkpt lat="46.0493000" lon="10.4866840">
	<ele>2331.80</ele>
	<time>2023-08-06T08:21:42.000Z</time>
</trkpt>
<trkpt lat="46.0493000" lon="10.4866790">
	<ele>2331.80</ele>
	<time>2023-08-06T08:21:43.000Z</time>
</trkpt>
<trkpt lat="46.0493000" lon="10.4866750">
	<ele>2332.00</ele>
	<time>2023-08-06T08:21:44.000Z</time>
</trkpt>
<trkpt lat="46.0493000" lon="10.4866710">
	<ele>2332.00</ele>
	<time>2023-08-06T08:21:45.000Z</time>
</trkpt>
<trkpt lat="46.0492990" lon="10.4866680">
	<ele>2332.00</ele>
	<time>2023-08-06T08:21:46.000Z</time>
</trkpt>
<trkpt lat="46.0492990" lon="10.4866660">
	<ele>2332.20</ele>
	<time>2023-08-06T08:21:47.000Z</time>
</trkpt>
<trkpt lat="46.0492990" lon="10.4866640">
	<ele>2332.20</ele>
	<time>2023-08-06T08:21:48.000Z</time>
</trkpt>
<trkpt lat="46.0492990" lon="10.4866610">
	<ele>2332.60</ele>
	<time>2023-08-06T08:21:49.000Z</time>
</trkpt>
<trkpt lat="46.0492990" lon="10.4866570">
	<ele>2332.80</ele>
	<time>2023-08-06T08:21:50.000Z</time>
</trkpt>
<trkpt lat="46.0492980" lon="10.4866540">
	<ele>2333.00</ele>
	<time>2023-08-06T08:21:51.000Z</time>
</trkpt>
<trkpt lat="46.0492980" lon="10.4866510">
	<ele>2333.20</ele>
	<time>2023-08-06T08:21:52.000Z</time>
</trkpt>
<trkpt lat="46.0492970" lon="10.4866470">
	<ele>2333.20</ele>
	<time>2023-08-06T08:21:53.000Z</time>
</trkpt>
<trkpt lat="46.0492960" lon="10.4866420">
	<ele>2333.40</ele>
	<time>2023-08-06T08:21:54.000Z</time>
</trkpt>
<trkpt lat="46.0492950" lon="10.4866370">
	<ele>2333.40</ele>
	<time>2023-08-06T08:21:55.000Z</time>
</trkpt>
<trkpt lat="46.0492930" lon="10.4866330">
	<ele>2333.40</ele>
	<time>2023-08-06T08:21:56.000Z</time>
</trkpt>
<trkpt lat="46.0492910" lon="10.4866290">
	<ele>2333.60</ele>
	<time>2023-08-06T08:21:57.000Z</time>
</trkpt>
<trkpt lat="46.0492880" lon="10.4866240">
	<ele>2333.60</ele>
	<time>2023-08-06T08:21:58.000Z</time>
</trkpt>
<trkpt lat="46.0492860" lon="10.4866200">
	<ele>2333.60</ele>
	<time>2023-08-06T08:21:59.000Z</time>
</trkpt>
<trkpt lat="46.0492840" lon="10.4866170">
	<ele>2333.80</ele>
	<time>2023-08-06T08:22:00.000Z</time>
</trkpt>
<trkpt lat="46.0492820" lon="10.4866150">
	<ele>2334.20</ele>
	<time>2023-08-06T08:22:01.000Z</time>
</trkpt>
<trkpt lat="46.0492800" lon="10.4866130">
	<ele>2334.40</ele>
	<time>2023-08-06T08:22:02.000Z</time>
</trkpt>
<trkpt lat="46.0492780" lon="10.4866090">
	<ele>2334.60</ele>
	<time>2023-08-06T08:22:03.000Z</time>
</trkpt>
<trkpt lat="46.0492760" lon="10.4866050">
	<ele>2334.80</ele>
	<time>2023-08-06T08:22:04.000Z</time>
</trkpt>
<trkpt lat="46.0492750" lon="10.4866010">
	<ele>2335.00</ele>
	<time>2023-08-06T08:22:05.000Z</time>
</trkpt>
<trkpt lat="46.0492730" lon="10.4865990">
	<ele>2335.20</ele>
	<time>2023-08-06T08:22:06.000Z</time>
</trkpt>
<trkpt lat="46.0492720" lon="10.4865960">
	<ele>2335.20</ele>
	<time>2023-08-06T08:22:07.000Z</time>
</trkpt>
<trkpt lat="46.0492710" lon="10.4865930">
	<ele>2335.20</ele>
	<time>2023-08-06T08:22:08.000Z</time>
</trkpt>
<trkpt lat="46.0492700" lon="10.4865900">
	<ele>2335.20</ele>
	<time>2023-08-06T08:22:09.000Z</time>
</trkpt>
<trkpt lat="46.0492690" lon="10.4865880">
	<ele>2335.40</ele>
	<time>2023-08-06T08:22:10.000Z</time>
</trkpt>
<trkpt lat="46.0492680" lon="10.4865850">
	<ele>2335.40</ele>
	<time>2023-08-06T08:22:11.000Z</time>
</trkpt>
<trkpt lat="46.0492670" lon="10.4865820">
	<ele>2335.40</ele>
	<time>2023-08-06T08:22:12.000Z</time>
</trkpt>
<trkpt lat="46.0492650" lon="10.4865790">
	<ele>2335.40</ele>
	<time>2023-08-06T08:22:13.000Z</time>
</trkpt>
<trkpt lat="46.0492640" lon="10.4865750">
	<ele>2335.60</ele>
	<time>2023-08-06T08:22:14.000Z</time>
</trkpt>
<trkpt lat="46.0492630" lon="10.4865700">
	<ele>2335.60</ele>
	<time>2023-08-06T08:22:15.000Z</time>
</trkpt>
<trkpt lat="46.0492620" lon="10.4865660">
	<ele>2335.60</ele>
	<time>2023-08-06T08:22:16.000Z</time>
</trkpt>
<trkpt lat="46.0492610" lon="10.4865610">
	<ele>2335.60</ele>
	<time>2023-08-06T08:22:17.000Z</time>
</trkpt>
<trkpt lat="46.0492600" lon="10.4865570">
	<ele>2336.00</ele>
	<time>2023-08-06T08:22:18.000Z</time>
</trkpt>
<trkpt lat="46.0492590" lon="10.4865530">
	<ele>2336.20</ele>
	<time>2023-08-06T08:22:19.000Z</time>
</trkpt>
<trkpt lat="46.0492590" lon="10.4865490">
	<ele>2336.40</ele>
	<time>2023-08-06T08:22:20.000Z</time>
</trkpt>
<trkpt lat="46.0492580" lon="10.4865460">
	<ele>2336.60</ele>
	<time>2023-08-06T08:22:21.000Z</time>
</trkpt>
<trkpt lat="46.0492570" lon="10.4865430">
	<ele>2336.60</ele>
	<time>2023-08-06T08:22:22.000Z</time>
</trkpt>
<trkpt lat="46.0492560" lon="10.4865400">
	<ele>2336.80</ele>
	<time>2023-08-06T08:22:23.000Z</time>
</trkpt>
<trkpt lat="46.0492550" lon="10.4865360">
	<ele>2336.80</ele>
	<time>2023-08-06T08:22:24.000Z</time>
</trkpt>
<trkpt lat="46.0492530" lon="10.4865330">
	<ele>2337.00</ele>
	<time>2023-08-06T08:22:25.000Z</time>
</trkpt>
<trkpt lat="46.0492520" lon="10.4865290">
	<ele>2337.00</ele>
	<time>2023-08-06T08:22:26.000Z</time>
</trkpt>
<trkpt lat="46.0492500" lon="10.4865260">
	<ele>2337.20</ele>
	<time>2023-08-06T08:22:27.000Z</time>
</trkpt>
<trkpt lat="46.0492490" lon="10.4865230">
	<ele>2337.40</ele>
	<time>2023-08-06T08:22:28.000Z</time>
</trkpt>
<trkpt lat="46.0492480" lon="10.4865200">
	<ele>2337.40</ele>
	<time>2023-08-06T08:22:29.000Z</time>
</trkpt>
<trkpt lat="46.0492480" lon="10.4865170">
	<ele>2337.60</ele>
	<time>2023-08-06T08:22:30.000Z</time>
</trkpt>
<trkpt lat="46.0492470" lon="10.4865140">
	<ele>2337.60</ele>
	<time>2023-08-06T08:22:31.000Z</time>
</trkpt>
<trkpt lat="46.0492460" lon="10.4865100">
	<ele>2337.80</ele>
	<time>2023-08-06T08:22:32.000Z</time>
</trkpt>
<trkpt lat="46.0492460" lon="10.4865080">
	<ele>2338.00</ele>
	<time>2023-08-06T08:22:33.000Z</time>
</trkpt>
<trkpt lat="46.0492460" lon="10.4865040">
	<ele>2338.20</ele>
	<time>2023-08-06T08:22:34.000Z</time>
</trkpt>
<trkpt lat="46.0492450" lon="10.4865000">
	<ele>2338.20</ele>
	<time>2023-08-06T08:22:35.000Z</time>
</trkpt>
<trkpt lat="46.0492450" lon="10.4864960">
	<ele>2338.40</ele>
	<time>2023-08-06T08:22:36.000Z</time>
</trkpt>
<trkpt lat="46.0492450" lon="10.4864920">
	<ele>2338.40</ele>
	<time>2023-08-06T08:22:37.000Z</time>
</trkpt>
<trkpt lat="46.0492450" lon="10.4864880">
	<ele>2338.60</ele>
	<time>2023-08-06T08:22:38.000Z</time>
</trkpt>
<trkpt lat="46.0492440" lon="10.4864840">
	<ele>2338.60</ele>
	<time>2023-08-06T08:22:39.000Z</time>
</trkpt>
<trkpt lat="46.0492440" lon="10.4864790">
	<ele>2338.80</ele>
	<time>2023-08-06T08:22:40.000Z</time>
</trkpt>
<trkpt lat="46.0492440" lon="10.4864760">
	<ele>2338.80</ele>
	<time>2023-08-06T08:22:41.000Z</time>
</trkpt>
<trkpt lat="46.0492430" lon="10.4864720">
	<ele>2338.80</ele>
	<time>2023-08-06T08:22:42.000Z</time>
</trkpt>
<trkpt lat="46.0492430" lon="10.4864690">
	<ele>2338.80</ele>
	<time>2023-08-06T08:22:43.000Z</time>
</trkpt>
<trkpt lat="46.0492420" lon="10.4864660">
	<ele>2339.00</ele>
	<time>2023-08-06T08:22:44.000Z</time>
</trkpt>
<trkpt lat="46.0492410" lon="10.4864640">
	<ele>2339.20</ele>
	<time>2023-08-06T08:22:45.000Z</time>
</trkpt>
<trkpt lat="46.0492410" lon="10.4864620">
	<ele>2339.40</ele>
	<time>2023-08-06T08:22:46.000Z</time>
</trkpt>
<trkpt lat="46.0492400" lon="10.4864590">
	<ele>2339.40</ele>
	<time>2023-08-06T08:22:47.000Z</time>
</trkpt>
<trkpt lat="46.0492390" lon="10.4864570">
	<ele>2339.60</ele>
	<time>2023-08-06T08:22:48.000Z</time>
</trkpt>
<trkpt lat="46.0492390" lon="10.4864560">
	<ele>2339.80</ele>
	<time>2023-08-06T08:22:49.000Z</time>
</trkpt>
<trkpt lat="46.0492390" lon="10.4864540">
	<ele>2340.00</ele>
	<time>2023-08-06T08:22:50.000Z</time>
</trkpt>
<trkpt lat="46.0492390" lon="10.4864530">
	<ele>2340.20</ele>
	<time>2023-08-06T08:22:51.000Z</time>
</trkpt>
<trkpt lat="46.0492380" lon="10.4864510">
	<ele>2340.20</ele>
	<time>2023-08-06T08:22:52.000Z</time>
</trkpt>
<trkpt lat="46.0492380" lon="10.4864500">
	<ele>2340.40</ele>
	<time>2023-08-06T08:22:53.000Z</time>
</trkpt>
<trkpt lat="46.0492380" lon="10.4864480">
	<ele>2340.60</ele>
	<time>2023-08-06T08:22:54.000Z</time>
</trkpt>
<trkpt lat="46.0492390" lon="10.4864470">
	<ele>2340.60</ele>
	<time>2023-08-06T08:22:55.000Z</time>
</trkpt>
<trkpt lat="46.0492390" lon="10.4864460">
	<ele>2340.60</ele>
	<time>2023-08-06T08:22:56.000Z</time>
</trkpt>
<trkpt lat="46.0492390" lon="10.4864450">
	<ele>2340.80</ele>
	<time>2023-08-06T08:22:57.000Z</time>
</trkpt>
<trkpt lat="46.0492390" lon="10.4864440">
	<ele>2340.80</ele>
	<time>2023-08-06T08:22:58.000Z</time>
</trkpt>
<trkpt lat="46.0492390" lon="10.4864430">
	<ele>2340.80</ele>
	<time>2023-08-06T08:22:59.000Z</time>
</trkpt>
<trkpt lat="46.0492390" lon="10.4864420">
	<ele>2340.80</ele>
	<time>2023-08-06T08:23:00.000Z</time>
</trkpt>
<trkpt lat="46.0492390" lon="10.4864410">
	<ele>2340.80</ele>
	<time>2023-08-06T08:23:01.000Z</time>
</trkpt>
<trkpt lat="46.0492390" lon="10.4864410">
	<ele>2340.80</ele>
	<time>2023-08-06T08:23:02.000Z</time>
</trkpt>
<trkpt lat="46.0492390" lon="10.4864400">
	<ele>2340.80</ele>
	<time>2023-08-06T08:23:03.000Z</time>
</trkpt>
<trkpt lat="46.0492390" lon="10.4864400">
	<ele>2341.00</ele>
	<time>2023-08-06T08:23:04.000Z</time>
</trkpt>
<trkpt lat="46.0492390" lon="10.4864390">
	<ele>2341.20</ele>
	<time>2023-08-06T08:23:05.000Z</time>
</trkpt>
<trkpt lat="46.0492390" lon="10.4864390">
	<ele>2341.40</ele>
	<time>2023-08-06T08:23:06.000Z</time>
</trkpt>
<trkpt lat="46.0492390" lon="10.4864390">
	<ele>2341.60</ele>
	<time>2023-08-06T08:23:07.000Z</time>
</trkpt>
<trkpt lat="46.0492390" lon="10.4864390">
	<ele>2341.80</ele>
	<time>2023-08-06T08:23:08.000Z</time>
</trkpt>
<trkpt lat="46.0492390" lon="10.4864390">
	<ele>2341.80</ele>
	<time>2023-08-06T08:23:09.000Z</time>
</trkpt>
<trkpt lat="46.0492390" lon="10.4864380">
	<ele>2342.00</ele>
	<time>2023-08-06T08:23:10.000Z</time>
</trkpt>
<trkpt lat="46.0492390" lon="10.4864380">
	<ele>2342.20</ele>
	<time>2023-08-06T08:23:11.000Z</time>
</trkpt>
<trkpt lat="46.0492390" lon="10.4864380">
	<ele>2342.20</ele>
	<time>2023-08-06T08:23:12.000Z</time>
</trkpt>
<trkpt lat="46.0492390" lon="10.4864370">
	<ele>2342.20</ele>
	<time>2023-08-06T08:23:13.000Z</time>
</trkpt>
<trkpt lat="46.0492390" lon="10.4864370">
	<ele>2342.20</ele>
	<time>2023-08-06T08:23:14.000Z</time>
</trkpt>
<trkpt lat="46.0492380" lon="10.4864370">
	<ele>2342.40</ele>
	<time>2023-08-06T08:23:15.000Z</time>
</trkpt>
<trkpt lat="46.0492380" lon="10.4864370">
	<ele>2342.60</ele>
	<time>2023-08-06T08:23:16.000Z</time>
</trkpt>
<trkpt lat="46.0492380" lon="10.4864370">
	<ele>2342.60</ele>
	<time>2023-08-06T08:23:17.000Z</time>
</trkpt>
<trkpt lat="46.0492390" lon="10.4864360">
	<ele>2342.80</ele>
	<time>2023-08-06T08:23:18.000Z</time>
</trkpt>
<trkpt lat="46.0492390" lon="10.4864360">
	<ele>2342.80</ele>
	<time>2023-08-06T08:23:19.000Z</time>
</trkpt>
<trkpt lat="46.0492390" lon="10.4864360">
	<ele>2343.00</ele>
	<time>2023-08-06T08:23:20.000Z</time>
</trkpt>
<trkpt lat="46.0492390" lon="10.4864360">
	<ele>2343.00</ele>
	<time>2023-08-06T08:23:21.000Z</time>
</trkpt>
<trkpt lat="46.0492390" lon="10.4864350">
	<ele>2343.20</ele>
	<time>2023-08-06T08:23:22.000Z</time>
</trkpt>
<trkpt lat="46.0492390" lon="10.4864350">
	<ele>2343.40</ele>
	<time>2023-08-06T08:23:23.000Z</time>
</trkpt>
<trkpt lat="46.0492380" lon="10.4864350">
	<ele>2343.60</ele>
	<time>2023-08-06T08:23:24.000Z</time>
</trkpt>
<trkpt lat="46.0492380" lon="10.4864350">
	<ele>2343.60</ele>
	<time>2023-08-06T08:23:25.000Z</time>
</trkpt>
<trkpt lat="46.0492380" lon="10.4864350">
	<ele>2343.60</ele>
	<time>2023-08-06T08:23:26.000Z</time>
</trkpt>
<trkpt lat="46.0492390" lon="10.4864350">
	<ele>2343.80</ele>
	<time>2023-08-06T08:23:27.000Z</time>
</trkpt>
<trkpt lat="46.0492380" lon="10.4864340">
	<ele>2343.80</ele>
	<time>2023-08-06T08:23:28.000Z</time>
</trkpt>
<trkpt lat="46.0492390" lon="10.4864340">
	<ele>2343.80</ele>
	<time>2023-08-06T08:23:29.000Z</time>
</trkpt>
<trkpt lat="46.0492390" lon="10.4864340">
	<ele>2343.80</ele>
	<time>2023-08-06T08:23:30.000Z</time>
</trkpt>
<trkpt lat="46.0492390" lon="10.4864340">
	<ele>2344.00</ele>
	<time>2023-08-06T08:23:31.000Z</time>
</trkpt>
<trkpt lat="46.0492390" lon="10.4864330">
	<ele>2344.40</ele>
	<time>2023-08-06T08:23:32.000Z</time>
</trkpt>
<trkpt lat="46.0492390" lon="10.4864330">
	<ele>2344.60</ele>
	<time>2023-08-06T08:23:33.000Z</time>
</trkpt>
<trkpt lat="46.0492400" lon="10.4864330">
	<ele>2344.60</ele>
	<time>2023-08-06T08:23:34.000Z</time>
</trkpt>
<trkpt lat="46.0492400" lon="10.4864320">
	<ele>2344.80</ele>
	<time>2023-08-06T08:23:35.000Z</time>
</trkpt>
<trkpt lat="46.0492400" lon="10.4864310">
	<ele>2344.80</ele>
	<time>2023-08-06T08:23:36.000Z</time>
</trkpt>
<trkpt lat="46.0492400" lon="10.4864310">
	<ele>2344.80</ele>
	<time>2023-08-06T08:23:37.000Z</time>
</trkpt>
<trkpt lat="46.0492400" lon="10.4864310">
	<ele>2345.00</ele>
	<time>2023-08-06T08:23:38.000Z</time>
</trkpt>
<trkpt lat="46.0492400" lon="10.4864300">
	<ele>2345.20</ele>
	<time>2023-08-06T08:23:39.000Z</time>
</trkpt>
<trkpt lat="46.0492400" lon="10.4864300">
	<ele>2345.40</ele>
	<time>2023-08-06T08:23:40.000Z</time>
</trkpt>
<trkpt lat="46.0492410" lon="10.4864300">
	<ele>2345.60</ele>
	<time>2023-08-06T08:23:41.000Z</time>
</trkpt>
<trkpt lat="46.0492410" lon="10.4864300">
	<ele>2345.60</ele>
	<time>2023-08-06T08:23:42.000Z</time>
</trkpt>
<trkpt lat="46.0492410" lon="10.4864290">
	<ele>2345.80</ele>
	<time>2023-08-06T08:23:43.000Z</time>
</trkpt>
<trkpt lat="46.0492410" lon="10.4864290">
	<ele>2345.80</ele>
	<time>2023-08-06T08:23:44.000Z</time>
</trkpt>
<trkpt lat="46.0492410" lon="10.4864290">
	<ele>2345.80</ele>
	<time>2023-08-06T08:23:45.000Z</time>
</trkpt>
<trkpt lat="46.0492410" lon="10.4864290">
	<ele>2346.00</ele>
	<time>2023-08-06T08:23:46.000Z</time>
</trkpt>
<trkpt lat="46.0492420" lon="10.4864290">
	<ele>2346.20</ele>
	<time>2023-08-06T08:23:47.000Z</time>
</trkpt>
<trkpt lat="46.0492420" lon="10.4864290">
	<ele>2346.40</ele>
	<time>2023-08-06T08:23:48.000Z</time>
</trkpt>
<trkpt lat="46.0492420" lon="10.4864280">
	<ele>2346.40</ele>
	<time>2023-08-06T08:23:49.000Z</time>
</trkpt>
<trkpt lat="46.0492420" lon="10.4864280">
	<ele>2346.40</ele>
	<time>2023-08-06T08:23:50.000Z</time>
</trkpt>
<trkpt lat="46.0492420" lon="10.4864280">
	<ele>2346.60</ele>
	<time>2023-08-06T08:23:51.000Z</time>
</trkpt>
<trkpt lat="46.0492420" lon="10.4864280">
	<ele>2346.60</ele>
	<time>2023-08-06T08:23:52.000Z</time>
</trkpt>
<trkpt lat="46.0492420" lon="10.4864270">
	<ele>2346.60</ele>
	<time>2023-08-06T08:23:53.000Z</time>
</trkpt>
<trkpt lat="46.0492420" lon="10.4864270">
	<ele>2346.80</ele>
	<time>2023-08-06T08:23:54.000Z</time>
</trkpt>
<trkpt lat="46.0492420" lon="10.4864270">
	<ele>2347.00</ele>
	<time>2023-08-06T08:23:55.000Z</time>
</trkpt>
<trkpt lat="46.0492420" lon="10.4864270">
	<ele>2347.00</ele>
	<time>2023-08-06T08:23:56.000Z</time>
</trkpt>
<trkpt lat="46.0492420" lon="10.4864260">
	<ele>2347.20</ele>
	<time>2023-08-06T08:23:57.000Z</time>
</trkpt>
<trkpt lat="46.0492420" lon="10.4864260">
	<ele>2347.20</ele>
	<time>2023-08-06T08:23:58.000Z</time>
</trkpt>
<trkpt lat="46.0492420" lon="10.4864260">
	<ele>2347.40</ele>
	<time>2023-08-06T08:23:59.000Z</time>
</trkpt>
<trkpt lat="46.0492420" lon="10.4864250">
	<ele>2347.40</ele>
	<time>2023-08-06T08:24:00.000Z</time>
</trkpt>
<trkpt lat="46.0492420" lon="10.4864250">
	<ele>2347.60</ele>
	<time>2023-08-06T08:24:01.000Z</time>
</trkpt>
<trkpt lat="46.0492420" lon="10.4864250">
	<ele>2347.80</ele>
	<time>2023-08-06T08:24:02.000Z</time>
</trkpt>
<trkpt lat="46.0492430" lon="10.4864250">
	<ele>2347.80</ele>
	<time>2023-08-06T08:24:03.000Z</time>
</trkpt>
<trkpt lat="46.0492430" lon="10.4864250">
	<ele>2348.00</ele>
	<time>2023-08-06T08:24:04.000Z</time>
</trkpt>
<trkpt lat="46.0492430" lon="10.4864250">
	<ele>2348.20</ele>
	<time>2023-08-06T08:24:05.000Z</time>
</trkpt>
<trkpt lat="46.0492440" lon="10.4864240">
	<ele>2348.40</ele>
	<time>2023-08-06T08:24:06.000Z</time>
</trkpt>
<trkpt lat="46.0492440" lon="10.4864240">
	<ele>2348.40</ele>
	<time>2023-08-06T08:24:07.000Z</time>
</trkpt>
<trkpt lat="46.0492440" lon="10.4864240">
	<ele>2348.40</ele>
	<time>2023-08-06T08:24:08.000Z</time>
</trkpt>
<trkpt lat="46.0492450" lon="10.4864240">
	<ele>2348.40</ele>
	<time>2023-08-06T08:24:09.000Z</time>
</trkpt>
<trkpt lat="46.0492450" lon="10.4864230">
	<ele>2348.40</ele>
	<time>2023-08-06T08:24:10.000Z</time>
</trkpt>
<trkpt lat="46.0492450" lon="10.4864230">
	<ele>2348.60</ele>
	<time>2023-08-06T08:24:11.000Z</time>
</trkpt>
<trkpt lat="46.0492450" lon="10.4864230">
	<ele>2348.80</ele>
	<time>2023-08-06T08:24:12.000Z</time>
</trkpt>
<trkpt lat="46.0492450" lon="10.4864230">
	<ele>2348.80</ele>
	<time>2023-08-06T08:24:13.000Z</time>
</trkpt>
<trkpt lat="46.0492450" lon="10.4864230">
	<ele>2348.80</ele>
	<time>2023-08-06T08:24:14.000Z</time>
</trkpt>
<trkpt lat="46.0492460" lon="10.4864220">
	<ele>2349.00</ele>
	<time>2023-08-06T08:24:15.000Z</time>
</trkpt>
<trkpt lat="46.0492460" lon="10.4864220">
	<ele>2349.20</ele>
	<time>2023-08-06T08:24:16.000Z</time>
</trkpt>
<trkpt lat="46.0492460" lon="10.4864220">
	<ele>2349.40</ele>
	<time>2023-08-06T08:24:17.000Z</time>
</trkpt>
<trkpt lat="46.0492470" lon="10.4864220">
	<ele>2349.40</ele>
	<time>2023-08-06T08:24:18.000Z</time>
</trkpt>
<trkpt lat="46.0492470" lon="10.4864220">
	<ele>2349.40</ele>
	<time>2023-08-06T08:24:19.000Z</time>
</trkpt>
<trkpt lat="46.0492470" lon="10.4864210">
	<ele>2349.60</ele>
	<time>2023-08-06T08:24:20.000Z</time>
</trkpt>
<trkpt lat="46.0492470" lon="10.4864210">
	<ele>2349.60</ele>
	<time>2023-08-06T08:24:21.000Z</time>
</trkpt>
<trkpt lat="46.0492470" lon="10.4864210">
	<ele>2349.60</ele>
	<time>2023-08-06T08:24:22.000Z</time>
</trkpt>
<trkpt lat="46.0492470" lon="10.4864210">
	<ele>2349.80</ele>
	<time>2023-08-06T08:24:23.000Z</time>
</trkpt>
<trkpt lat="46.0492470" lon="10.4864210">
	<ele>2349.80</ele>
	<time>2023-08-06T08:24:24.000Z</time>
</trkpt>
<trkpt lat="46.0492470" lon="10.4864200">
	<ele>2350.00</ele>
	<time>2023-08-06T08:24:25.000Z</time>
</trkpt>
<trkpt lat="46.0492470" lon="10.4864200">
	<ele>2350.00</ele>
	<time>2023-08-06T08:24:26.000Z</time>
</trkpt>
<trkpt lat="46.0492480" lon="10.4864200">
	<ele>2350.20</ele>
	<time>2023-08-06T08:24:27.000Z</time>
</trkpt>
<trkpt lat="46.0492480" lon="10.4864200">
	<ele>2350.40</ele>
	<time>2023-08-06T08:24:28.000Z</time>
</trkpt>
<trkpt lat="46.0492590" lon="10.4864010">
	<ele>2350.60</ele>
	<time>2023-08-06T08:24:29.000Z</time>
</trkpt>
<trkpt lat="46.0492760" lon="10.4863880">
	<ele>2350.80</ele>
	<time>2023-08-06T08:24:30.000Z</time>
</trkpt>
<trkpt lat="46.0492930" lon="10.4863730">
	<ele>2350.80</ele>
	<time>2023-08-06T08:24:31.000Z</time>
</trkpt>
<trkpt lat="46.0493070" lon="10.4863560">
	<ele>2351.00</ele>
	<time>2023-08-06T08:24:32.000Z</time>
</trkpt>
<trkpt lat="46.0493200" lon="10.4863440">
	<ele>2351.00</ele>
	<time>2023-08-06T08:24:33.000Z</time>
</trkpt>
<trkpt lat="46.0493340" lon="10.4863270">
	<ele>2351.00</ele>
	<time>2023-08-06T08:24:34.000Z</time>
</trkpt>
<trkpt lat="46.0493470" lon="10.4863080">
	<ele>2351.00</ele>
	<time>2023-08-06T08:24:35.000Z</time>
</trkpt>
<trkpt lat="46.0493600" lon="10.4862930">
	<ele>2351.00</ele>
	<time>2023-08-06T08:24:36.000Z</time>
</trkpt>
<trkpt lat="46.0493710" lon="10.4862760">
	<ele>2351.00</ele>
	<time>2023-08-06T08:24:37.000Z</time>
</trkpt>
<trkpt lat="46.0493820" lon="10.4862580">
	<ele>2351.20</ele>
	<time>2023-08-06T08:24:38.000Z</time>
</trkpt>
<trkpt lat="46.0493830" lon="10.4862580">
	<ele>2351.20</ele>
	<time>2023-08-06T08:24:39.000Z</time>
</trkpt>
<trkpt lat="46.0493840" lon="10.4862570">
	<ele>2351.60</ele>
	<time>2023-08-06T08:24:40.000Z</time>
</trkpt>
<trkpt lat="46.0493840" lon="10.4862550">
	<ele>2351.60</ele>
	<time>2023-08-06T08:24:41.000Z</time>
</trkpt>
<trkpt lat="46.0493840" lon="10.4862540">
	<ele>2351.60</ele>
	<time>2023-08-06T08:24:42.000Z</time>
</trkpt>
<trkpt lat="46.0493840" lon="10.4862540">
	<ele>2351.80</ele>
	<time>2023-08-06T08:24:43.000Z</time>
</trkpt>
<trkpt lat="46.0493840" lon="10.4862540">
	<ele>2351.80</ele>
	<time>2023-08-06T08:24:44.000Z</time>
</trkpt>
<trkpt lat="46.0493840" lon="10.4862540">
	<ele>2351.80</ele>
	<time>2023-08-06T08:24:45.000Z</time>
</trkpt>
<trkpt lat="46.0493840" lon="10.4862540">
	<ele>2351.80</ele>
	<time>2023-08-06T08:24:46.000Z</time>
</trkpt>
<trkpt lat="46.0493840" lon="10.4862540">
	<ele>2351.80</ele>
	<time>2023-08-06T08:24:47.000Z</time>
</trkpt>
<trkpt lat="46.0493840" lon="10.4862540">
	<ele>2352.00</ele>
	<time>2023-08-06T08:24:48.000Z</time>
</trkpt>
<trkpt lat="46.0493840" lon="10.4862540">
	<ele>2352.00</ele>
	<time>2023-08-06T08:24:49.000Z</time>
</trkpt>
<trkpt lat="46.0493840" lon="10.4862540">
	<ele>2352.00</ele>
	<time>2023-08-06T08:24:50.000Z</time>
</trkpt>
<trkpt lat="46.0493840" lon="10.4862540">
	<ele>2352.00</ele>
	<time>2023-08-06T08:24:51.000Z</time>
</trkpt>
<trkpt lat="46.0493840" lon="10.4862540">
	<ele>2352.00</ele>
	<time>2023-08-06T08:24:52.000Z</time>
</trkpt>
<trkpt lat="46.0493840" lon="10.4862540">
	<ele>2351.80</ele>
	<time>2023-08-06T08:24:53.000Z</time>
</trkpt>
<trkpt lat="46.0493840" lon="10.4862540">
	<ele>2351.60</ele>
	<time>2023-08-06T08:24:54.000Z</time>
</trkpt>
<trkpt lat="46.0493840" lon="10.4862540">
	<ele>2351.60</ele>
	<time>2023-08-06T08:24:55.000Z</time>
</trkpt>
<trkpt lat="46.0493840" lon="10.4862540">
	<ele>2351.40</ele>
	<time>2023-08-06T08:24:56.000Z</time>
</trkpt>
<trkpt lat="46.0493840" lon="10.4862530">
	<ele>2351.40</ele>
	<time>2023-08-06T08:24:57.000Z</time>
</trkpt>
<trkpt lat="46.0493840" lon="10.4862520">
	<ele>2351.40</ele>
	<time>2023-08-06T08:24:58.000Z</time>
</trkpt>
<trkpt lat="46.0493850" lon="10.4862520">
	<ele>2351.60</ele>
	<time>2023-08-06T08:24:59.000Z</time>
</trkpt>
<trkpt lat="46.0493870" lon="10.4862510">
	<ele>2351.60</ele>
	<time>2023-08-06T08:25:00.000Z</time>
</trkpt>
<trkpt lat="46.0493870" lon="10.4862510">
	<ele>2351.80</ele>
	<time>2023-08-06T08:25:01.000Z</time>
</trkpt>
<trkpt lat="46.0493880" lon="10.4862510">
	<ele>2351.80</ele>
	<time>2023-08-06T08:25:02.000Z</time>
</trkpt>
<trkpt lat="46.0493930" lon="10.4862520">
	<ele>2352.00</ele>
	<time>2023-08-06T08:25:03.000Z</time>
</trkpt>
<trkpt lat="46.0493930" lon="10.4862640">
	<ele>2352.20</ele>
	<time>2023-08-06T08:25:04.000Z</time>
</trkpt>
<trkpt lat="46.0494000" lon="10.4862700">
	<ele>2352.40</ele>
	<time>2023-08-06T08:25:05.000Z</time>
</trkpt>
<trkpt lat="46.0494050" lon="10.4862750">
	<ele>2352.60</ele>
	<time>2023-08-06T08:25:06.000Z</time>
</trkpt>
<trkpt lat="46.0494110" lon="10.4862790">
	<ele>2352.80</ele>
	<time>2023-08-06T08:25:07.000Z</time>
</trkpt>
<trkpt lat="46.0494150" lon="10.4862840">
	<ele>2353.00</ele>
	<time>2023-08-06T08:25:08.000Z</time>
</trkpt>
<trkpt lat="46.0494200" lon="10.4862870">
	<ele>2353.00</ele>
	<time>2023-08-06T08:25:09.000Z</time>
</trkpt>
<trkpt lat="46.0494320" lon="10.4862890">
	<ele>2353.00</ele>
	<time>2023-08-06T08:25:10.000Z</time>
</trkpt>
<trkpt lat="46.0494390" lon="10.4862930">
	<ele>2353.00</ele>
	<time>2023-08-06T08:25:11.000Z</time>
</trkpt>
<trkpt lat="46.0494490" lon="10.4862990">
	<ele>2353.00</ele>
	<time>2023-08-06T08:25:12.000Z</time>
</trkpt>
<trkpt lat="46.0494560" lon="10.4862980">
	<ele>2353.20</ele>
	<time>2023-08-06T08:25:13.000Z</time>
</trkpt>
<trkpt lat="46.0494660" lon="10.4862930">
	<ele>2353.60</ele>
	<time>2023-08-06T08:25:14.000Z</time>
</trkpt>
<trkpt lat="46.0494720" lon="10.4862880">
	<ele>2353.80</ele>
	<time>2023-08-06T08:25:15.000Z</time>
</trkpt>
<trkpt lat="46.0494770" lon="10.4862880">
	<ele>2353.80</ele>
	<time>2023-08-06T08:25:16.000Z</time>
</trkpt>
<trkpt lat="46.0494780" lon="10.4862880">
	<ele>2354.00</ele>
	<time>2023-08-06T08:25:17.000Z</time>
</trkpt>
<trkpt lat="46.0494830" lon="10.4862850">
	<ele>2354.00</ele>
	<time>2023-08-06T08:25:18.000Z</time>
</trkpt>
<trkpt lat="46.0494860" lon="10.4862800">
	<ele>2354.20</ele>
	<time>2023-08-06T08:25:19.000Z</time>
</trkpt>
<trkpt lat="46.0494830" lon="10.4862770">
	<ele>2354.20</ele>
	<time>2023-08-06T08:25:20.000Z</time>
</trkpt>
<trkpt lat="46.0494830" lon="10.4862740">
	<ele>2354.40</ele>
	<time>2023-08-06T08:25:21.000Z</time>
</trkpt>
<trkpt lat="46.0494880" lon="10.4862680">
	<ele>2354.40</ele>
	<time>2023-08-06T08:25:22.000Z</time>
</trkpt>
<trkpt lat="46.0494960" lon="10.4862630">
	<ele>2354.40</ele>
	<time>2023-08-06T08:25:23.000Z</time>
</trkpt>
<trkpt lat="46.0495020" lon="10.4862670">
	<ele>2354.40</ele>
	<time>2023-08-06T08:25:24.000Z</time>
</trkpt>
<trkpt lat="46.0495060" lon="10.4862720">
	<ele>2354.20</ele>
	<time>2023-08-06T08:25:25.000Z</time>
</trkpt>
<trkpt lat="46.0495100" lon="10.4862810">
	<ele>2354.20</ele>
	<time>2023-08-06T08:25:26.000Z</time>
</trkpt>
<trkpt lat="46.0495150" lon="10.4862820">
	<ele>2354.20</ele>
	<time>2023-08-06T08:25:27.000Z</time>
</trkpt>
<trkpt lat="46.0495260" lon="10.4862900">
	<ele>2354.20</ele>
	<time>2023-08-06T08:25:28.000Z</time>
</trkpt>
<trkpt lat="46.0495280" lon="10.4862990">
	<ele>2354.20</ele>
	<time>2023-08-06T08:25:29.000Z</time>
</trkpt>
<trkpt lat="46.0495310" lon="10.4863030">
	<ele>2354.40</ele>
	<time>2023-08-06T08:25:30.000Z</time>
</trkpt>
<trkpt lat="46.0495390" lon="10.4863040">
	<ele>2354.60</ele>
	<time>2023-08-06T08:25:31.000Z</time>
</trkpt>
<trkpt lat="46.0495430" lon="10.4863080">
	<ele>2354.80</ele>
	<time>2023-08-06T08:25:32.000Z</time>
</trkpt>
<trkpt lat="46.0495470" lon="10.4862970">
	<ele>2355.00</ele>
	<time>2023-08-06T08:25:33.000Z</time>
</trkpt>
<trkpt lat="46.0495460" lon="10.4862980">
	<ele>2355.00</ele>
	<time>2023-08-06T08:25:34.000Z</time>
</trkpt>
<trkpt lat="46.0495480" lon="10.4863030">
	<ele>2355.40</ele>
	<time>2023-08-06T08:25:35.000Z</time>
</trkpt>
<trkpt lat="46.0495520" lon="10.4863060">
	<ele>2355.60</ele>
	<time>2023-08-06T08:25:36.000Z</time>
</trkpt>
<trkpt lat="46.0495550" lon="10.4863160">
	<ele>2355.60</ele>
	<time>2023-08-06T08:25:37.000Z</time>
</trkpt>
<trkpt lat="46.0495580" lon="10.4863190">
	<ele>2355.80</ele>
	<time>2023-08-06T08:25:38.000Z</time>
</trkpt>
<trkpt lat="46.0495600" lon="10.4863220">
	<ele>2355.80</ele>
	<time>2023-08-06T08:25:39.000Z</time>
</trkpt>
<trkpt lat="46.0495630" lon="10.4863250">
	<ele>2356.00</ele>
	<time>2023-08-06T08:25:40.000Z</time>
</trkpt>
<trkpt lat="46.0495670" lon="10.4863290">
	<ele>2356.00</ele>
	<time>2023-08-06T08:25:41.000Z</time>
</trkpt>
<trkpt lat="46.0495710" lon="10.4863340">
	<ele>2356.20</ele>
	<time>2023-08-06T08:25:42.000Z</time>
</trkpt>
<trkpt lat="46.0495770" lon="10.4863380">
	<ele>2356.40</ele>
	<time>2023-08-06T08:25:43.000Z</time>
</trkpt>
<trkpt lat="46.0495860" lon="10.4863430">
	<ele>2356.60</ele>
	<time>2023-08-06T08:25:44.000Z</time>
</trkpt>
<trkpt lat="46.0495910" lon="10.4863490">
	<ele>2356.80</ele>
	<time>2023-08-06T08:25:45.000Z</time>
</trkpt>
<trkpt lat="46.0495950" lon="10.4863540">
	<ele>2357.00</ele>
	<time>2023-08-06T08:25:46.000Z</time>
</trkpt>
<trkpt lat="46.0495990" lon="10.4863550">
	<ele>2357.00</ele>
	<time>2023-08-06T08:25:47.000Z</time>
</trkpt>
<trkpt lat="46.0496030" lon="10.4863580">
	<ele>2357.00</ele>
	<time>2023-08-06T08:25:48.000Z</time>
</trkpt>
<trkpt lat="46.0496100" lon="10.4863610">
	<ele>2357.20</ele>
	<time>2023-08-06T08:25:49.000Z</time>
</trkpt>
<trkpt lat="46.0496170" lon="10.4863640">
	<ele>2357.40</ele>
	<time>2023-08-06T08:25:50.000Z</time>
</trkpt>
<trkpt lat="46.0496210" lon="10.4863690">
	<ele>2357.40</ele>
	<time>2023-08-06T08:25:51.000Z</time>
</trkpt>
<trkpt lat="46.0496280" lon="10.4863710">
	<ele>2357.40</ele>
	<time>2023-08-06T08:25:52.000Z</time>
</trkpt>
<trkpt lat="46.0496350" lon="10.4863730">
	<ele>2357.60</ele>
	<time>2023-08-06T08:25:53.000Z</time>
</trkpt>
<trkpt lat="46.0496410" lon="10.4863750">
	<ele>2357.60</ele>
	<time>2023-08-06T08:25:54.000Z</time>
</trkpt>
<trkpt lat="46.0496450" lon="10.4863770">
	<ele>2357.80</ele>
	<time>2023-08-06T08:25:55.000Z</time>
</trkpt>
<trkpt lat="46.0496520" lon="10.4863770">
	<ele>2358.00</ele>
	<time>2023-08-06T08:25:56.000Z</time>
</trkpt>
<trkpt lat="46.0496610" lon="10.4863800">
	<ele>2358.00</ele>
	<time>2023-08-06T08:25:57.000Z</time>
</trkpt>
<trkpt lat="46.0496680" lon="10.4863840">
	<ele>2358.20</ele>
	<time>2023-08-06T08:25:58.000Z</time>
</trkpt>
<trkpt lat="46.0496760" lon="10.4863890">
	<ele>2358.20</ele>
	<time>2023-08-06T08:25:59.000Z</time>
</trkpt>
<trkpt lat="46.0496840" lon="10.4863960">
	<ele>2358.40</ele>
	<time>2023-08-06T08:26:00.000Z</time>
</trkpt>
<trkpt lat="46.0496890" lon="10.4864060">
	<ele>2358.40</ele>
	<time>2023-08-06T08:26:01.000Z</time>
</trkpt>
<trkpt lat="46.0496910" lon="10.4864140">
	<ele>2358.40</ele>
	<time>2023-08-06T08:26:02.000Z</time>
</trkpt>
<trkpt lat="46.0496950" lon="10.4864200">
	<ele>2358.40</ele>
	<time>2023-08-06T08:26:03.000Z</time>
</trkpt>
<trkpt lat="46.0496950" lon="10.4864260">
	<ele>2358.60</ele>
	<time>2023-08-06T08:26:04.000Z</time>
</trkpt>
<trkpt lat="46.0497000" lon="10.4864300">
	<ele>2358.80</ele>
	<time>2023-08-06T08:26:05.000Z</time>
</trkpt>
<trkpt lat="46.0497060" lon="10.4864310">
	<ele>2358.80</ele>
	<time>2023-08-06T08:26:06.000Z</time>
</trkpt>
<trkpt lat="46.0497110" lon="10.4864380">
	<ele>2359.00</ele>
	<time>2023-08-06T08:26:07.000Z</time>
</trkpt>
<trkpt lat="46.0497150" lon="10.4864390">
	<ele>2359.00</ele>
	<time>2023-08-06T08:26:08.000Z</time>
</trkpt>
<trkpt lat="46.0497220" lon="10.4864440">
	<ele>2359.20</ele>
	<time>2023-08-06T08:26:09.000Z</time>
</trkpt>
<trkpt lat="46.0497310" lon="10.4864490">
	<ele>2359.40</ele>
	<time>2023-08-06T08:26:10.000Z</time>
</trkpt>
<trkpt lat="46.0497400" lon="10.4864530">
	<ele>2359.40</ele>
	<time>2023-08-06T08:26:11.000Z</time>
</trkpt>
<trkpt lat="46.0497470" lon="10.4864610">
	<ele>2359.60</ele>
	<time>2023-08-06T08:26:12.000Z</time>
</trkpt>
<trkpt lat="46.0497540" lon="10.4864680">
	<ele>2359.60</ele>
	<time>2023-08-06T08:26:13.000Z</time>
</trkpt>
<trkpt lat="46.0497610" lon="10.4864750">
	<ele>2359.60</ele>
	<time>2023-08-06T08:26:14.000Z</time>
</trkpt>
<trkpt lat="46.0497620" lon="10.4864830">
	<ele>2359.80</ele>
	<time>2023-08-06T08:26:15.000Z</time>
</trkpt>
<trkpt lat="46.0497710" lon="10.4864890">
	<ele>2359.80</ele>
	<time>2023-08-06T08:26:16.000Z</time>
</trkpt>
<trkpt lat="46.0497790" lon="10.4864950">
	<ele>2360.00</ele>
	<time>2023-08-06T08:26:17.000Z</time>
</trkpt>
<trkpt lat="46.0497810" lon="10.4865010">
	<ele>2360.20</ele>
	<time>2023-08-06T08:26:18.000Z</time>
</trkpt>
<trkpt lat="46.0497890" lon="10.4865050">
	<ele>2360.20</ele>
	<time>2023-08-06T08:26:19.000Z</time>
</trkpt>
<trkpt lat="46.0497970" lon="10.4865090">
	<ele>2360.40</ele>
	<time>2023-08-06T08:26:20.000Z</time>
</trkpt>
<trkpt lat="46.0498020" lon="10.4865070">
	<ele>2360.40</ele>
	<time>2023-08-06T08:26:21.000Z</time>
</trkpt>
<trkpt lat="46.0498030" lon="10.4865020">
	<ele>2360.60</ele>
	<time>2023-08-06T08:26:22.000Z</time>
</trkpt>
<trkpt lat="46.0498050" lon="10.4864990">
	<ele>2360.60</ele>
	<time>2023-08-06T08:26:23.000Z</time>
</trkpt>
<trkpt lat="46.0498090" lon="10.4864980">
	<ele>2360.80</ele>
	<time>2023-08-06T08:26:24.000Z</time>
</trkpt>
<trkpt lat="46.0498140" lon="10.4864990">
	<ele>2360.80</ele>
	<time>2023-08-06T08:26:25.000Z</time>
</trkpt>
<trkpt lat="46.0498230" lon="10.4865010">
	<ele>2360.80</ele>
	<time>2023-08-06T08:26:26.000Z</time>
</trkpt>
<trkpt lat="46.0498320" lon="10.4865070">
	<ele>2360.80</ele>
	<time>2023-08-06T08:26:27.000Z</time>
</trkpt>
<trkpt lat="46.0498380" lon="10.4865120">
	<ele>2361.00</ele>
	<time>2023-08-06T08:26:28.000Z</time>
</trkpt>
<trkpt lat="46.0498470" lon="10.4865150">
	<ele>2361.20</ele>
	<time>2023-08-06T08:26:29.000Z</time>
</trkpt>
<trkpt lat="46.0498540" lon="10.4865170">
	<ele>2361.20</ele>
	<time>2023-08-06T08:26:30.000Z</time>
</trkpt>
<trkpt lat="46.0498620" lon="10.4865170">
	<ele>2361.40</ele>
	<time>2023-08-06T08:26:31.000Z</time>
</trkpt>
<trkpt lat="46.0498650" lon="10.4865150">
	<ele>2361.40</ele>
	<time>2023-08-06T08:26:32.000Z</time>
</trkpt>
<trkpt lat="46.0498710" lon="10.4865120">
	<ele>2361.40</ele>
	<time>2023-08-06T08:26:33.000Z</time>
</trkpt>
<trkpt lat="46.0498780" lon="10.4865070">
	<ele>2361.40</ele>
	<time>2023-08-06T08:26:34.000Z</time>
</trkpt>
<trkpt lat="46.0498800" lon="10.4865000">
	<ele>2361.40</ele>
	<time>2023-08-06T08:26:35.000Z</time>
</trkpt>
<trkpt lat="46.0498860" lon="10.4864910">
	<ele>2361.40</ele>
	<time>2023-08-06T08:26:36.000Z</time>
</trkpt>
<trkpt lat="46.0498930" lon="10.4864870">
	<ele>2361.40</ele>
	<time>2023-08-06T08:26:37.000Z</time>
</trkpt>
<trkpt lat="46.0499000" lon="10.4864880">
	<ele>2361.40</ele>
	<time>2023-08-06T08:26:38.000Z</time>
</trkpt>
<trkpt lat="46.0499070" lon="10.4864870">
	<ele>2361.40</ele>
	<time>2023-08-06T08:26:39.000Z</time>
</trkpt>
<trkpt lat="46.0499150" lon="10.4864830">
	<ele>2361.40</ele>
	<time>2023-08-06T08:26:40.000Z</time>
</trkpt>
<trkpt lat="46.0499200" lon="10.4864790">
	<ele>2361.40</ele>
	<time>2023-08-06T08:26:41.000Z</time>
</trkpt>
<trkpt lat="46.0499300" lon="10.4864760">
	<ele>2361.40</ele>
	<time>2023-08-06T08:26:42.000Z</time>
</trkpt>
<trkpt lat="46.0499350" lon="10.4864750">
	<ele>2361.40</ele>
	<time>2023-08-06T08:26:43.000Z</time>
</trkpt>
<trkpt lat="46.0499410" lon="10.4864730">
	<ele>2361.20</ele>
	<time>2023-08-06T08:26:44.000Z</time>
</trkpt>
<trkpt lat="46.0499470" lon="10.4864690">
	<ele>2361.20</ele>
	<time>2023-08-06T08:26:45.000Z</time>
</trkpt>
<trkpt lat="46.0499540" lon="10.4864690">
	<ele>2361.20</ele>
	<time>2023-08-06T08:26:46.000Z</time>
</trkpt>
<trkpt lat="46.0499610" lon="10.4864700">
	<ele>2361.20</ele>
	<time>2023-08-06T08:26:47.000Z</time>
</trkpt>
<trkpt lat="46.0499730" lon="10.4864700">
	<ele>2361.20</ele>
	<time>2023-08-06T08:26:48.000Z</time>
</trkpt>
<trkpt lat="46.0499810" lon="10.4864690">
	<ele>2361.20</ele>
	<time>2023-08-06T08:26:49.000Z</time>
</trkpt>
<trkpt lat="46.0499880" lon="10.4864660">
	<ele>2361.20</ele>
	<time>2023-08-06T08:26:50.000Z</time>
</trkpt>
<trkpt lat="46.0499920" lon="10.4864600">
	<ele>2361.20</ele>
	<time>2023-08-06T08:26:51.000Z</time>
</trkpt>
<trkpt lat="46.0499960" lon="10.4864550">
	<ele>2361.20</ele>
	<time>2023-08-06T08:26:52.000Z</time>
</trkpt>
<trkpt lat="46.0499960" lon="10.4864480">
	<ele>2361.40</ele>
	<time>2023-08-06T08:26:53.000Z</time>
</trkpt>
<trkpt lat="46.0499980" lon="10.4864390">
	<ele>2361.40</ele>
	<time>2023-08-06T08:26:54.000Z</time>
</trkpt>
<trkpt lat="46.0500040" lon="10.4864340">
	<ele>2361.60</ele>
	<time>2023-08-06T08:26:55.000Z</time>
</trkpt>
<trkpt lat="46.0500080" lon="10.4864300">
	<ele>2361.80</ele>
	<time>2023-08-06T08:26:56.000Z</time>
</trkpt>
<trkpt lat="46.0500150" lon="10.4864300">
	<ele>2362.00</ele>
	<time>2023-08-06T08:26:57.000Z</time>
</trkpt>
<trkpt lat="46.0500160" lon="10.4864290">
	<ele>2362.20</ele>
	<time>2023-08-06T08:26:58.000Z</time>
</trkpt>
<trkpt lat="46.0500180" lon="10.4864290">
	<ele>2362.20</ele>
	<time>2023-08-06T08:26:59.000Z</time>
</trkpt>
<trkpt lat="46.0500210" lon="10.4864310">
	<ele>2362.40</ele>
	<time>2023-08-06T08:27:00.000Z</time>
</trkpt>
<trkpt lat="46.0500290" lon="10.4864330">
	<ele>2362.60</ele>
	<time>2023-08-06T08:27:01.000Z</time>
</trkpt>
<trkpt lat="46.0500370" lon="10.4864330">
	<ele>2362.60</ele>
	<time>2023-08-06T08:27:02.000Z</time>
</trkpt>
<trkpt lat="46.0500450" lon="10.4864340">
	<ele>2362.80</ele>
	<time>2023-08-06T08:27:03.000Z</time>
</trkpt>
<trkpt lat="46.0500540" lon="10.4864350">
	<ele>2363.00</ele>
	<time>2023-08-06T08:27:04.000Z</time>
</trkpt>
<trkpt lat="46.0500570" lon="10.4864360">
	<ele>2363.20</ele>
	<time>2023-08-06T08:27:05.000Z</time>
</trkpt>
<trkpt lat="46.0500610" lon="10.4864370">
	<ele>2363.20</ele>
	<time>2023-08-06T08:27:06.000Z</time>
</trkpt>
<trkpt lat="46.0500620" lon="10.4864370">
	<ele>2363.40</ele>
	<time>2023-08-06T08:27:07.000Z</time>
</trkpt>
<trkpt lat="46.0500660" lon="10.4864380">
	<ele>2363.40</ele>
	<time>2023-08-06T08:27:08.000Z</time>
</trkpt>
<trkpt lat="46.0500710" lon="10.4864380">
	<ele>2363.40</ele>
	<time>2023-08-06T08:27:09.000Z</time>
</trkpt>
<trkpt lat="46.0500800" lon="10.4864420">
	<ele>2363.60</ele>
	<time>2023-08-06T08:27:10.000Z</time>
</trkpt>
<trkpt lat="46.0500870" lon="10.4864450">
	<ele>2363.80</ele>
	<time>2023-08-06T08:27:11.000Z</time>
</trkpt>
<trkpt lat="46.0500920" lon="10.4864520">
	<ele>2364.20</ele>
	<time>2023-08-06T08:27:12.000Z</time>
</trkpt>
<trkpt lat="46.0500930" lon="10.4864530">
	<ele>2364.20</ele>
	<time>2023-08-06T08:27:13.000Z</time>
</trkpt>
<trkpt lat="46.0500970" lon="10.4864500">
	<ele>2364.40</ele>
	<time>2023-08-06T08:27:14.000Z</time>
</trkpt>
<trkpt lat="46.0501000" lon="10.4864490">
	<ele>2364.40</ele>
	<time>2023-08-06T08:27:15.000Z</time>
</trkpt>
<trkpt lat="46.0501010" lon="10.4864510">
	<ele>2364.60</ele>
	<time>2023-08-06T08:27:16.000Z</time>
</trkpt>
<trkpt lat="46.0501020" lon="10.4864530">
	<ele>2365.00</ele>
	<time>2023-08-06T08:27:17.000Z</time>
</trkpt>
<trkpt lat="46.0501030" lon="10.4864540">
	<ele>2365.40</ele>
	<time>2023-08-06T08:27:18.000Z</time>
</trkpt>
<trkpt lat="46.0501050" lon="10.4864580">
	<ele>2365.60</ele>
	<time>2023-08-06T08:27:19.000Z</time>
</trkpt>
<trkpt lat="46.0501100" lon="10.4864620">
	<ele>2365.60</ele>
	<time>2023-08-06T08:27:20.000Z</time>
</trkpt>
<trkpt lat="46.0501140" lon="10.4864640">
	<ele>2365.80</ele>
	<time>2023-08-06T08:27:21.000Z</time>
</trkpt>
<trkpt lat="46.0501130" lon="10.4864690">
	<ele>2365.80</ele>
	<time>2023-08-06T08:27:22.000Z</time>
</trkpt>
<trkpt lat="46.0501110" lon="10.4864740">
	<ele>2366.00</ele>
	<time>2023-08-06T08:27:23.000Z</time>
</trkpt>
<trkpt lat="46.0501080" lon="10.4864720">
	<ele>2366.20</ele>
	<time>2023-08-06T08:27:24.000Z</time>
</trkpt>
<trkpt lat="46.0501080" lon="10.4864690">
	<ele>2366.40</ele>
	<time>2023-08-06T08:27:25.000Z</time>
</trkpt>
<trkpt lat="46.0501080" lon="10.4864630">
	<ele>2366.40</ele>
	<time>2023-08-06T08:27:26.000Z</time>
</trkpt>
<trkpt lat="46.0501130" lon="10.4864590">
	<ele>2366.60</ele>
	<time>2023-08-06T08:27:27.000Z</time>
</trkpt>
<trkpt lat="46.0501210" lon="10.4864590">
	<ele>2366.60</ele>
	<time>2023-08-06T08:27:28.000Z</time>
</trkpt>
<trkpt lat="46.0501280" lon="10.4864610">
	<ele>2366.80</ele>
	<time>2023-08-06T08:27:29.000Z</time>
</trkpt>
<trkpt lat="46.0501350" lon="10.4864650">
	<ele>2367.20</ele>
	<time>2023-08-06T08:27:30.000Z</time>
</trkpt>
<trkpt lat="46.0501380" lon="10.4864690">
	<ele>2367.20</ele>
	<time>2023-08-06T08:27:31.000Z</time>
</trkpt>
<trkpt lat="46.0501420" lon="10.4864720">
	<ele>2367.40</ele>
	<time>2023-08-06T08:27:32.000Z</time>
</trkpt>
<trkpt lat="46.0501450" lon="10.4864750">
	<ele>2367.40</ele>
	<time>2023-08-06T08:27:33.000Z</time>
</trkpt>
<trkpt lat="46.0501500" lon="10.4864770">
	<ele>2367.60</ele>
	<time>2023-08-06T08:27:34.000Z</time>
</trkpt>
<trkpt lat="46.0501560" lon="10.4864790">
	<ele>2367.60</ele>
	<time>2023-08-06T08:27:35.000Z</time>
</trkpt>
<trkpt lat="46.0501570" lon="10.4864830">
	<ele>2367.80</ele>
	<time>2023-08-06T08:27:36.000Z</time>
</trkpt>
<trkpt lat="46.0501610" lon="10.4864860">
	<ele>2368.00</ele>
	<time>2023-08-06T08:27:37.000Z</time>
</trkpt>
<trkpt lat="46.0501650" lon="10.4864890">
	<ele>2368.00</ele>
	<time>2023-08-06T08:27:38.000Z</time>
</trkpt>
<trkpt lat="46.0501730" lon="10.4864900">
	<ele>2368.00</ele>
	<time>2023-08-06T08:27:39.000Z</time>
</trkpt>
<trkpt lat="46.0501770" lon="10.4864920">
	<ele>2368.20</ele>
	<time>2023-08-06T08:27:40.000Z</time>
</trkpt>
<trkpt lat="46.0501790" lon="10.4864890">
	<ele>2368.40</ele>
	<time>2023-08-06T08:27:41.000Z</time>
</trkpt>
<trkpt lat="46.0501840" lon="10.4864890">
	<ele>2368.40</ele>
	<time>2023-08-06T08:27:42.000Z</time>
</trkpt>
<trkpt lat="46.0501890" lon="10.4864880">
	<ele>2368.60</ele>
	<time>2023-08-06T08:27:43.000Z</time>
</trkpt>
<trkpt lat="46.0501920" lon="10.4864870">
	<ele>2368.80</ele>
	<time>2023-08-06T08:27:44.000Z</time>
</trkpt>
<trkpt lat="46.0501960" lon="10.4864860">
	<ele>2368.80</ele>
	<time>2023-08-06T08:27:45.000Z</time>
</trkpt>
<trkpt lat="46.0501990" lon="10.4864830">
	<ele>2369.00</ele>
	<time>2023-08-06T08:27:46.000Z</time>
</trkpt>
<trkpt lat="46.0502000" lon="10.4864850">
	<ele>2369.20</ele>
	<time>2023-08-06T08:27:47.000Z</time>
</trkpt>
<trkpt lat="46.0502010" lon="10.4864850">
	<ele>2369.20</ele>
	<time>2023-08-06T08:27:48.000Z</time>
</trkpt>
<trkpt lat="46.0502050" lon="10.4864820">
	<ele>2369.40</ele>
	<time>2023-08-06T08:27:49.000Z</time>
</trkpt>
<trkpt lat="46.0502080" lon="10.4864780">
	<ele>2369.60</ele>
	<time>2023-08-06T08:27:50.000Z</time>
</trkpt>
<trkpt lat="46.0502130" lon="10.4864730">
	<ele>2369.60</ele>
	<time>2023-08-06T08:27:51.000Z</time>
</trkpt>
<trkpt lat="46.0502190" lon="10.4864710">
	<ele>2369.60</ele>
	<time>2023-08-06T08:27:52.000Z</time>
</trkpt>
<trkpt lat="46.0502200" lon="10.4864710">
	<ele>2369.80</ele>
	<time>2023-08-06T08:27:53.000Z</time>
</trkpt>
<trkpt lat="46.0502240" lon="10.4864680">
	<ele>2369.80</ele>
	<time>2023-08-06T08:27:54.000Z</time>
</trkpt>
<trkpt lat="46.0502250" lon="10.4864650">
	<ele>2370.00</ele>
	<time>2023-08-06T08:27:55.000Z</time>
</trkpt>
<trkpt lat="46.0502250" lon="10.4864630">
	<ele>2370.00</ele>
	<time>2023-08-06T08:27:56.000Z</time>
</trkpt>
<trkpt lat="46.0502190" lon="10.4864560">
	<ele>2370.20</ele>
	<time>2023-08-06T08:27:57.000Z</time>
</trkpt>
<trkpt lat="46.0502170" lon="10.4864500">
	<ele>2370.20</ele>
	<time>2023-08-06T08:27:58.000Z</time>
</trkpt>
<trkpt lat="46.0502160" lon="10.4864450">
	<ele>2370.20</ele>
	<time>2023-08-06T08:27:59.000Z</time>
</trkpt>
<trkpt lat="46.0502170" lon="10.4864400">
	<ele>2370.20</ele>
	<time>2023-08-06T08:28:00.000Z</time>
</trkpt>
<trkpt lat="46.0502170" lon="10.4864360">
	<ele>2370.40</ele>
	<time>2023-08-06T08:28:01.000Z</time>
</trkpt>
<trkpt lat="46.0502160" lon="10.4864310">
	<ele>2370.40</ele>
	<time>2023-08-06T08:28:02.000Z</time>
</trkpt>
<trkpt lat="46.0502150" lon="10.4864260">
	<ele>2370.60</ele>
	<time>2023-08-06T08:28:03.000Z</time>
</trkpt>
<trkpt lat="46.0502140" lon="10.4864190">
	<ele>2370.60</ele>
	<time>2023-08-06T08:28:04.000Z</time>
</trkpt>
<trkpt lat="46.0502110" lon="10.4864110">
	<ele>2370.80</ele>
	<time>2023-08-06T08:28:05.000Z</time>
</trkpt>
<trkpt lat="46.0502100" lon="10.4864030">
	<ele>2370.80</ele>
	<time>2023-08-06T08:28:06.000Z</time>
</trkpt>
<trkpt lat="46.0502080" lon="10.4863920">
	<ele>2371.00</ele>
	<time>2023-08-06T08:28:07.000Z</time>
</trkpt>
<trkpt lat="46.0502070" lon="10.4863800">
	<ele>2371.20</ele>
	<time>2023-08-06T08:28:08.000Z</time>
</trkpt>
<trkpt lat="46.0502080" lon="10.4863740">
	<ele>2371.20</ele>
	<time>2023-08-06T08:28:09.000Z</time>
</trkpt>
<trkpt lat="46.0502100" lon="10.4863650">
	<ele>2371.20</ele>
	<time>2023-08-06T08:28:10.000Z</time>
</trkpt>
<trkpt lat="46.0502120" lon="10.4863580">
	<ele>2371.40</ele>
	<time>2023-08-06T08:28:11.000Z</time>
</trkpt>
<trkpt lat="46.0502130" lon="10.4863520">
	<ele>2371.40</ele>
	<time>2023-08-06T08:28:12.000Z</time>
</trkpt>
<trkpt lat="46.0502150" lon="10.4863470">
	<ele>2371.40</ele>
	<time>2023-08-06T08:28:13.000Z</time>
</trkpt>
<trkpt lat="46.0502150" lon="10.4863430">
	<ele>2371.60</ele>
	<time>2023-08-06T08:28:14.000Z</time>
</trkpt>
<trkpt lat="46.0502150" lon="10.4863360">
	<ele>2371.60</ele>
	<time>2023-08-06T08:28:15.000Z</time>
</trkpt>
<trkpt lat="46.0502160" lon="10.4863300">
	<ele>2371.60</ele>
	<time>2023-08-06T08:28:16.000Z</time>
</trkpt>
<trkpt lat="46.0502160" lon="10.4863240">
	<ele>2371.60</ele>
	<time>2023-08-06T08:28:17.000Z</time>
</trkpt>
<trkpt lat="46.0502170" lon="10.4863180">
	<ele>2371.60</ele>
	<time>2023-08-06T08:28:18.000Z</time>
</trkpt>
<trkpt lat="46.0502200" lon="10.4863080">
	<ele>2371.80</ele>
	<time>2023-08-06T08:28:19.000Z</time>
</trkpt>
<trkpt lat="46.0502230" lon="10.4863010">
	<ele>2371.80</ele>
	<time>2023-08-06T08:28:20.000Z</time>
</trkpt>
<trkpt lat="46.0502300" lon="10.4862940">
	<ele>2371.80</ele>
	<time>2023-08-06T08:28:21.000Z</time>
</trkpt>
<trkpt lat="46.0502380" lon="10.4862840">
	<ele>2371.80</ele>
	<time>2023-08-06T08:28:22.000Z</time>
</trkpt>
<trkpt lat="46.0502440" lon="10.4862810">
	<ele>2371.80</ele>
	<time>2023-08-06T08:28:23.000Z</time>
</trkpt>
<trkpt lat="46.0502490" lon="10.4862800">
	<ele>2371.80</ele>
	<time>2023-08-06T08:28:24.000Z</time>
</trkpt>
<trkpt lat="46.0502530" lon="10.4862800">
	<ele>2372.00</ele>
	<time>2023-08-06T08:28:25.000Z</time>
</trkpt>
<trkpt lat="46.0502510" lon="10.4862710">
	<ele>2372.00</ele>
	<time>2023-08-06T08:28:26.000Z</time>
</trkpt>
<trkpt lat="46.0502580" lon="10.4862710">
	<ele>2372.00</ele>
	<time>2023-08-06T08:28:27.000Z</time>
</trkpt>
<trkpt lat="46.0502620" lon="10.4862730">
	<ele>2372.00</ele>
	<time>2023-08-06T08:28:28.000Z</time>
</trkpt>
<trkpt lat="46.0502640" lon="10.4862730">
	<ele>2372.40</ele>
	<time>2023-08-06T08:28:29.000Z</time>
</trkpt>
<trkpt lat="46.0502710" lon="10.4862740">
	<ele>2372.40</ele>
	<time>2023-08-06T08:28:30.000Z</time>
</trkpt>
<trkpt lat="46.0502730" lon="10.4862730">
	<ele>2372.60</ele>
	<time>2023-08-06T08:28:31.000Z</time>
</trkpt>
<trkpt lat="46.0502770" lon="10.4862740">
	<ele>2372.60</ele>
	<time>2023-08-06T08:28:32.000Z</time>
</trkpt>
<trkpt lat="46.0502830" lon="10.4862720">
	<ele>2372.60</ele>
	<time>2023-08-06T08:28:33.000Z</time>
</trkpt>
<trkpt lat="46.0502870" lon="10.4862690">
	<ele>2372.80</ele>
	<time>2023-08-06T08:28:34.000Z</time>
</trkpt>
<trkpt lat="46.0502890" lon="10.4862640">
	<ele>2373.00</ele>
	<time>2023-08-06T08:28:35.000Z</time>
</trkpt>
<trkpt lat="46.0502880" lon="10.4862560">
	<ele>2373.20</ele>
	<time>2023-08-06T08:28:36.000Z</time>
</trkpt>
<trkpt lat="46.0502880" lon="10.4862500">
	<ele>2373.40</ele>
	<time>2023-08-06T08:28:37.000Z</time>
</trkpt>
<trkpt lat="46.0502900" lon="10.4862460">
	<ele>2373.40</ele>
	<time>2023-08-06T08:28:38.000Z</time>
</trkpt>
<trkpt lat="46.0502950" lon="10.4862460">
	<ele>2373.60</ele>
	<time>2023-08-06T08:28:39.000Z</time>
</trkpt>
<trkpt lat="46.0503010" lon="10.4862490">
	<ele>2373.60</ele>
	<time>2023-08-06T08:28:40.000Z</time>
</trkpt>
<trkpt lat="46.0503040" lon="10.4862520">
	<ele>2373.60</ele>
	<time>2023-08-06T08:28:41.000Z</time>
</trkpt>
<trkpt lat="46.0503050" lon="10.4862550">
	<ele>2373.80</ele>
	<time>2023-08-06T08:28:42.000Z</time>
</trkpt>
<trkpt lat="46.0503070" lon="10.4862640">
	<ele>2373.80</ele>
	<time>2023-08-06T08:28:43.000Z</time>
</trkpt>
<trkpt lat="46.0503090" lon="10.4862680">
	<ele>2374.00</ele>
	<time>2023-08-06T08:28:44.000Z</time>
</trkpt>
<trkpt lat="46.0503100" lon="10.4862730">
	<ele>2374.20</ele>
	<time>2023-08-06T08:28:45.000Z</time>
</trkpt>
<trkpt lat="46.0503120" lon="10.4862760">
	<ele>2374.40</ele>
	<time>2023-08-06T08:28:46.000Z</time>
</trkpt>
<trkpt lat="46.0503130" lon="10.4862800">
	<ele>2374.40</ele>
	<time>2023-08-06T08:28:47.000Z</time>
</trkpt>
<trkpt lat="46.0503150" lon="10.4862870">
	<ele>2374.60</ele>
	<time>2023-08-06T08:28:48.000Z</time>
</trkpt>
<trkpt lat="46.0503170" lon="10.4862890">
	<ele>2374.60</ele>
	<time>2023-08-06T08:28:49.000Z</time>
</trkpt>
<trkpt lat="46.0503210" lon="10.4862890">
	<ele>2374.60</ele>
	<time>2023-08-06T08:28:50.000Z</time>
</trkpt>
<trkpt lat="46.0503230" lon="10.4862900">
	<ele>2374.60</ele>
	<time>2023-08-06T08:28:51.000Z</time>
</trkpt>
<trkpt lat="46.0503300" lon="10.4862910">
	<ele>2374.80</ele>
	<time>2023-08-06T08:28:52.000Z</time>
</trkpt>
<trkpt lat="46.0503360" lon="10.4862950">
	<ele>2374.80</ele>
	<time>2023-08-06T08:28:53.000Z</time>
</trkpt>
<trkpt lat="46.0503400" lon="10.4862970">
	<ele>2375.20</ele>
	<time>2023-08-06T08:28:54.000Z</time>
</trkpt>
<trkpt lat="46.0503440" lon="10.4862990">
	<ele>2375.40</ele>
	<time>2023-08-06T08:28:55.000Z</time>
</trkpt>
<trkpt lat="46.0503480" lon="10.4863010">
	<ele>2375.60</ele>
	<time>2023-08-06T08:28:56.000Z</time>
</trkpt>
<trkpt lat="46.0503510" lon="10.4863060">
	<ele>2375.60</ele>
	<time>2023-08-06T08:28:57.000Z</time>
</trkpt>
<trkpt lat="46.0503510" lon="10.4863110">
	<ele>2375.80</ele>
	<time>2023-08-06T08:28:58.000Z</time>
</trkpt>
<trkpt lat="46.0503510" lon="10.4863140">
	<ele>2375.80</ele>
	<time>2023-08-06T08:28:59.000Z</time>
</trkpt>
<trkpt lat="46.0503520" lon="10.4863180">
	<ele>2376.00</ele>
	<time>2023-08-06T08:29:00.000Z</time>
</trkpt>
<trkpt lat="46.0503550" lon="10.4863190">
	<ele>2376.00</ele>
	<time>2023-08-06T08:29:01.000Z</time>
</trkpt>
<trkpt lat="46.0503590" lon="10.4863190">
	<ele>2376.20</ele>
	<time>2023-08-06T08:29:02.000Z</time>
</trkpt>
<trkpt lat="46.0503650" lon="10.4863180">
	<ele>2376.20</ele>
	<time>2023-08-06T08:29:03.000Z</time>
</trkpt>
<trkpt lat="46.0503700" lon="10.4863170">
	<ele>2376.40</ele>
	<time>2023-08-06T08:29:04.000Z</time>
</trkpt>
<trkpt lat="46.0503750" lon="10.4863160">
	<ele>2376.40</ele>
	<time>2023-08-06T08:29:05.000Z</time>
</trkpt>
<trkpt lat="46.0503780" lon="10.4863210">
	<ele>2376.60</ele>
	<time>2023-08-06T08:29:06.000Z</time>
</trkpt>
<trkpt lat="46.0503810" lon="10.4863230">
	<ele>2377.00</ele>
	<time>2023-08-06T08:29:07.000Z</time>
</trkpt>
<trkpt lat="46.0503840" lon="10.4863230">
	<ele>2377.00</ele>
	<time>2023-08-06T08:29:08.000Z</time>
</trkpt>
<trkpt lat="46.0503880" lon="10.4863240">
	<ele>2377.00</ele>
	<time>2023-08-06T08:29:09.000Z</time>
</trkpt>
<trkpt lat="46.0503930" lon="10.4863240">
	<ele>2377.20</ele>
	<time>2023-08-06T08:29:10.000Z</time>
</trkpt>
<trkpt lat="46.0503960" lon="10.4863230">
	<ele>2377.40</ele>
	<time>2023-08-06T08:29:11.000Z</time>
</trkpt>
<trkpt lat="46.0503990" lon="10.4863230">
	<ele>2377.60</ele>
	<time>2023-08-06T08:29:12.000Z</time>
</trkpt>
<trkpt lat="46.0504000" lon="10.4863210">
	<ele>2377.60</ele>
	<time>2023-08-06T08:29:13.000Z</time>
</trkpt>
<trkpt lat="46.0504000" lon="10.4863190">
	<ele>2377.80</ele>
	<time>2023-08-06T08:29:14.000Z</time>
</trkpt>
<trkpt lat="46.0504020" lon="10.4863170">
	<ele>2378.00</ele>
	<time>2023-08-06T08:29:15.000Z</time>
</trkpt>
<trkpt lat="46.0504030" lon="10.4863140">
	<ele>2378.00</ele>
	<time>2023-08-06T08:29:16.000Z</time>
</trkpt>
<trkpt lat="46.0504060" lon="10.4863120">
	<ele>2378.20</ele>
	<time>2023-08-06T08:29:17.000Z</time>
</trkpt>
<trkpt lat="46.0504100" lon="10.4863120">
	<ele>2378.40</ele>
	<time>2023-08-06T08:29:18.000Z</time>
</trkpt>
<trkpt lat="46.0504130" lon="10.4863110">
	<ele>2378.40</ele>
	<time>2023-08-06T08:29:19.000Z</time>
</trkpt>
<trkpt lat="46.0504120" lon="10.4863110">
	<ele>2378.60</ele>
	<time>2023-08-06T08:29:20.000Z</time>
</trkpt>
<trkpt lat="46.0504140" lon="10.4863080">
	<ele>2378.60</ele>
	<time>2023-08-06T08:29:21.000Z</time>
</trkpt>
<trkpt lat="46.0504120" lon="10.4863050">
	<ele>2378.80</ele>
	<time>2023-08-06T08:29:22.000Z</time>
</trkpt>
<trkpt lat="46.0504110" lon="10.4863020">
	<ele>2379.20</ele>
	<time>2023-08-06T08:29:23.000Z</time>
</trkpt>
<trkpt lat="46.0504110" lon="10.4862990">
	<ele>2379.40</ele>
	<time>2023-08-06T08:29:24.000Z</time>
</trkpt>
<trkpt lat="46.0504110" lon="10.4862950">
	<ele>2379.40</ele>
	<time>2023-08-06T08:29:25.000Z</time>
</trkpt>
<trkpt lat="46.0504140" lon="10.4862930">
	<ele>2379.60</ele>
	<time>2023-08-06T08:29:26.000Z</time>
</trkpt>
<trkpt lat="46.0504210" lon="10.4862880">
	<ele>2379.60</ele>
	<time>2023-08-06T08:29:27.000Z</time>
</trkpt>
<trkpt lat="46.0504220" lon="10.4862830">
	<ele>2379.80</ele>
	<time>2023-08-06T08:29:28.000Z</time>
</trkpt>
<trkpt lat="46.0504260" lon="10.4862780">
	<ele>2380.00</ele>
	<time>2023-08-06T08:29:29.000Z</time>
</trkpt>
<trkpt lat="46.0504290" lon="10.4862750">
	<ele>2380.20</ele>
	<time>2023-08-06T08:29:30.000Z</time>
</trkpt>
<trkpt lat="46.0504330" lon="10.4862710">
	<ele>2380.20</ele>
	<time>2023-08-06T08:29:31.000Z</time>
</trkpt>
<trkpt lat="46.0504350" lon="10.4862620">
	<ele>2380.40</ele>
	<time>2023-08-06T08:29:32.000Z</time>
</trkpt>
<trkpt lat="46.0504380" lon="10.4862540">
	<ele>2380.40</ele>
	<time>2023-08-06T08:29:33.000Z</time>
</trkpt>
<trkpt lat="46.0504380" lon="10.4862490">
	<ele>2380.60</ele>
	<time>2023-08-06T08:29:34.000Z</time>
</trkpt>
<trkpt lat="46.0504360" lon="10.4862460">
	<ele>2380.60</ele>
	<time>2023-08-06T08:29:35.000Z</time>
</trkpt>
<trkpt lat="46.0504360" lon="10.4862440">
	<ele>2380.80</ele>
	<time>2023-08-06T08:29:36.000Z</time>
</trkpt>
<trkpt lat="46.0504410" lon="10.4862430">
	<ele>2381.00</ele>
	<time>2023-08-06T08:29:37.000Z</time>
</trkpt>
<trkpt lat="46.0504450" lon="10.4862400">
	<ele>2381.20</ele>
	<time>2023-08-06T08:29:38.000Z</time>
</trkpt>
<trkpt lat="46.0504460" lon="10.4862390">
	<ele>2381.40</ele>
	<time>2023-08-06T08:29:39.000Z</time>
</trkpt>
<trkpt lat="46.0504460" lon="10.4862370">
	<ele>2381.40</ele>
	<time>2023-08-06T08:29:40.000Z</time>
</trkpt>
<trkpt lat="46.0504470" lon="10.4862330">
	<ele>2381.60</ele>
	<time>2023-08-06T08:29:41.000Z</time>
</trkpt>
<trkpt lat="46.0504470" lon="10.4862260">
	<ele>2381.80</ele>
	<time>2023-08-06T08:29:42.000Z</time>
</trkpt>
<trkpt lat="46.0504480" lon="10.4862210">
	<ele>2382.00</ele>
	<time>2023-08-06T08:29:43.000Z</time>
</trkpt>
<trkpt lat="46.0504480" lon="10.4862140">
	<ele>2382.00</ele>
	<time>2023-08-06T08:29:44.000Z</time>
</trkpt>
<trkpt lat="46.0504510" lon="10.4862060">
	<ele>2382.00</ele>
	<time>2023-08-06T08:29:45.000Z</time>
</trkpt>
<trkpt lat="46.0504530" lon="10.4862000">
	<ele>2382.20</ele>
	<time>2023-08-06T08:29:46.000Z</time>
</trkpt>
<trkpt lat="46.0504550" lon="10.4861910">
	<ele>2382.40</ele>
	<time>2023-08-06T08:29:47.000Z</time>
</trkpt>
<trkpt lat="46.0504600" lon="10.4861820">
	<ele>2382.40</ele>
	<time>2023-08-06T08:29:48.000Z</time>
</trkpt>
<trkpt lat="46.0504670" lon="10.4861750">
	<ele>2382.20</ele>
	<time>2023-08-06T08:29:49.000Z</time>
</trkpt>
<trkpt lat="46.0504750" lon="10.4861710">
	<ele>2382.20</ele>
	<time>2023-08-06T08:29:50.000Z</time>
</trkpt>
<trkpt lat="46.0504830" lon="10.4861640">
	<ele>2382.00</ele>
	<time>2023-08-06T08:29:51.000Z</time>
</trkpt>
<trkpt lat="46.0504880" lon="10.4861600">
	<ele>2382.00</ele>
	<time>2023-08-06T08:29:52.000Z</time>
</trkpt>
<trkpt lat="46.0504900" lon="10.4861540">
	<ele>2382.00</ele>
	<time>2023-08-06T08:29:53.000Z</time>
</trkpt>
<trkpt lat="46.0504950" lon="10.4861480">
	<ele>2382.20</ele>
	<time>2023-08-06T08:29:54.000Z</time>
</trkpt>
<trkpt lat="46.0504990" lon="10.4861480">
	<ele>2382.40</ele>
	<time>2023-08-06T08:29:55.000Z</time>
</trkpt>
<trkpt lat="46.0505070" lon="10.4861460">
	<ele>2382.40</ele>
	<time>2023-08-06T08:29:56.000Z</time>
</trkpt>
<trkpt lat="46.0505190" lon="10.4861420">
	<ele>2382.40</ele>
	<time>2023-08-06T08:29:57.000Z</time>
</trkpt>
<trkpt lat="46.0505280" lon="10.4861380">
	<ele>2382.40</ele>
	<time>2023-08-06T08:29:58.000Z</time>
</trkpt>
<trkpt lat="46.0505330" lon="10.4861380">
	<ele>2382.60</ele>
	<time>2023-08-06T08:29:59.000Z</time>
</trkpt>
<trkpt lat="46.0505420" lon="10.4861290">
	<ele>2382.60</ele>
	<time>2023-08-06T08:30:00.000Z</time>
</trkpt>
<trkpt lat="46.0505510" lon="10.4861230">
	<ele>2382.60</ele>
	<time>2023-08-06T08:30:01.000Z</time>
</trkpt>
<trkpt lat="46.0505560" lon="10.4861180">
	<ele>2382.80</ele>
	<time>2023-08-06T08:30:02.000Z</time>
</trkpt>
<trkpt lat="46.0505590" lon="10.4861110">
	<ele>2382.80</ele>
	<time>2023-08-06T08:30:03.000Z</time>
</trkpt>
<trkpt lat="46.0505630" lon="10.4861020">
	<ele>2382.80</ele>
	<time>2023-08-06T08:30:04.000Z</time>
</trkpt>
<trkpt lat="46.0505620" lon="10.4860940">
	<ele>2382.80</ele>
	<time>2023-08-06T08:30:05.000Z</time>
</trkpt>
<trkpt lat="46.0505560" lon="10.4860850">
	<ele>2382.80</ele>
	<time>2023-08-06T08:30:06.000Z</time>
</trkpt>
<trkpt lat="46.0505560" lon="10.4860860">
	<ele>2382.80</ele>
	<time>2023-08-06T08:30:07.000Z</time>
</trkpt>
<trkpt lat="46.0505570" lon="10.4860880">
	<ele>2382.60</ele>
	<time>2023-08-06T08:30:08.000Z</time>
</trkpt>
<trkpt lat="46.0505610" lon="10.4860880">
	<ele>2382.40</ele>
	<time>2023-08-06T08:30:09.000Z</time>
</trkpt>
<trkpt lat="46.0505660" lon="10.4860860">
	<ele>2382.40</ele>
	<time>2023-08-06T08:30:10.000Z</time>
</trkpt>
<trkpt lat="46.0505680" lon="10.4860840">
	<ele>2382.40</ele>
	<time>2023-08-06T08:30:11.000Z</time>
</trkpt>
<trkpt lat="46.0505700" lon="10.4860830">
	<ele>2382.80</ele>
	<time>2023-08-06T08:30:12.000Z</time>
</trkpt>
<trkpt lat="46.0505710" lon="10.4860820">
	<ele>2383.20</ele>
	<time>2023-08-06T08:30:13.000Z</time>
</trkpt>
<trkpt lat="46.0505710" lon="10.4860830">
	<ele>2383.40</ele>
	<time>2023-08-06T08:30:14.000Z</time>
</trkpt>
<trkpt lat="46.0505690" lon="10.4860850">
	<ele>2383.60</ele>
	<time>2023-08-06T08:30:15.000Z</time>
</trkpt>
<trkpt lat="46.0505660" lon="10.4860840">
	<ele>2383.60</ele>
	<time>2023-08-06T08:30:16.000Z</time>
</trkpt>
<trkpt lat="46.0505630" lon="10.4860840">
	<ele>2383.80</ele>
	<time>2023-08-06T08:30:17.000Z</time>
</trkpt>
<trkpt lat="46.0505630" lon="10.4860840">
	<ele>2384.00</ele>
	<time>2023-08-06T08:30:18.000Z</time>
</trkpt>
<trkpt lat="46.0505630" lon="10.4860840">
	<ele>2384.00</ele>
	<time>2023-08-06T08:30:19.000Z</time>
</trkpt>
<trkpt lat="46.0505630" lon="10.4860840">
	<ele>2384.20</ele>
	<time>2023-08-06T08:30:20.000Z</time>
</trkpt>
<trkpt lat="46.0505630" lon="10.4860840">
	<ele>2384.40</ele>
	<time>2023-08-06T08:30:21.000Z</time>
</trkpt>
<trkpt lat="46.0505630" lon="10.4860840">
	<ele>2384.60</ele>
	<time>2023-08-06T08:30:22.000Z</time>
</trkpt>
<trkpt lat="46.0505630" lon="10.4860840">
	<ele>2384.60</ele>
	<time>2023-08-06T08:30:23.000Z</time>
</trkpt>
<trkpt lat="46.0505630" lon="10.4860840">
	<ele>2384.80</ele>
	<time>2023-08-06T08:30:24.000Z</time>
</trkpt>
<trkpt lat="46.0505630" lon="10.4860840">
	<ele>2384.60</ele>
	<time>2023-08-06T08:30:25.000Z</time>
</trkpt>
<trkpt lat="46.0505630" lon="10.4860840">
	<ele>2384.40</ele>
	<time>2023-08-06T08:30:26.000Z</time>
</trkpt>
<trkpt lat="46.0505630" lon="10.4860840">
	<ele>2384.20</ele>
	<time>2023-08-06T08:30:27.000Z</time>
</trkpt>
<trkpt lat="46.0505630" lon="10.4860840">
	<ele>2383.80</ele>
	<time>2023-08-06T08:30:28.000Z</time>
</trkpt>
<trkpt lat="46.0505630" lon="10.4860840">
	<ele>2383.40</ele>
	<time>2023-08-06T08:30:29.000Z</time>
</trkpt>
<trkpt lat="46.0505630" lon="10.4860840">
	<ele>2383.20</ele>
	<time>2023-08-06T08:30:30.000Z</time>
</trkpt>
<trkpt lat="46.0505630" lon="10.4860840">
	<ele>2383.20</ele>
	<time>2023-08-06T08:30:31.000Z</time>
</trkpt>
<trkpt lat="46.0505640" lon="10.4860840">
	<ele>2383.20</ele>
	<time>2023-08-06T08:30:32.000Z</time>
</trkpt>
<trkpt lat="46.0505640" lon="10.4860840">
	<ele>2383.00</ele>
	<time>2023-08-06T08:30:33.000Z</time>
</trkpt>
<trkpt lat="46.0505650" lon="10.4860840">
	<ele>2383.20</ele>
	<time>2023-08-06T08:30:34.000Z</time>
</trkpt>
<trkpt lat="46.0505680" lon="10.4860790">
	<ele>2383.20</ele>
	<time>2023-08-06T08:30:35.000Z</time>
</trkpt>
<trkpt lat="46.0505730" lon="10.4860640">
	<ele>2383.40</ele>
	<time>2023-08-06T08:30:36.000Z</time>
</trkpt>
<trkpt lat="46.0505770" lon="10.4860530">
	<ele>2383.60</ele>
	<time>2023-08-06T08:30:37.000Z</time>
</trkpt>
<trkpt lat="46.0505790" lon="10.4860390">
	<ele>2383.60</ele>
	<time>2023-08-06T08:30:38.000Z</time>
</trkpt>
<trkpt lat="46.0505860" lon="10.4860260">
	<ele>2383.60</ele>
	<time>2023-08-06T08:30:39.000Z</time>
</trkpt>
<trkpt lat="46.0505920" lon="10.4860160">
	<ele>2383.80</ele>
	<time>2023-08-06T08:30:40.000Z</time>
</trkpt>
<trkpt lat="46.0505960" lon="10.4860070">
	<ele>2383.80</ele>
	<time>2023-08-06T08:30:41.000Z</time>
</trkpt>
<trkpt lat="46.0506020" lon="10.4859940">
	<ele>2383.80</ele>
	<time>2023-08-06T08:30:42.000Z</time>
</trkpt>
<trkpt lat="46.0506060" lon="10.4859810">
	<ele>2384.00</ele>
	<time>2023-08-06T08:30:43.000Z</time>
</trkpt>
<trkpt lat="46.0506100" lon="10.4859710">
	<ele>2384.20</ele>
	<time>2023-08-06T08:30:44.000Z</time>
</trkpt>
<trkpt lat="46.0506110" lon="10.4859680">
	<ele>2384.40</ele>
	<time>2023-08-06T08:30:45.000Z</time>
</trkpt>
<trkpt lat="46.0506140" lon="10.4859630">
	<ele>2384.60</ele>
	<time>2023-08-06T08:30:46.000Z</time>
</trkpt>
<trkpt lat="46.0506140" lon="10.4859570">
	<ele>2384.80</ele>
	<time>2023-08-06T08:30:47.000Z</time>
</trkpt>
<trkpt lat="46.0506130" lon="10.4859510">
	<ele>2384.80</ele>
	<time>2023-08-06T08:30:48.000Z</time>
</trkpt>
<trkpt lat="46.0506120" lon="10.4859450">
	<ele>2385.00</ele>
	<time>2023-08-06T08:30:49.000Z</time>
</trkpt>
<trkpt lat="46.0506130" lon="10.4859410">
	<ele>2385.00</ele>
	<time>2023-08-06T08:30:50.000Z</time>
</trkpt>
<trkpt lat="46.0506110" lon="10.4859370">
	<ele>2385.00</ele>
	<time>2023-08-06T08:30:51.000Z</time>
</trkpt>
<trkpt lat="46.0506090" lon="10.4859330">
	<ele>2385.20</ele>
	<time>2023-08-06T08:30:52.000Z</time>
</trkpt>
<trkpt lat="46.0506070" lon="10.4859280">
	<ele>2385.40</ele>
	<time>2023-08-06T08:30:53.000Z</time>
</trkpt>
<trkpt lat="46.0506070" lon="10.4859230">
	<ele>2385.60</ele>
	<time>2023-08-06T08:30:54.000Z</time>
</trkpt>
<trkpt lat="46.0506080" lon="10.4859180">
	<ele>2385.60</ele>
	<time>2023-08-06T08:30:55.000Z</time>
</trkpt>
<trkpt lat="46.0506070" lon="10.4859100">
	<ele>2385.60</ele>
	<time>2023-08-06T08:30:56.000Z</time>
</trkpt>
<trkpt lat="46.0506060" lon="10.4859050">
	<ele>2385.80</ele>
	<time>2023-08-06T08:30:57.000Z</time>
</trkpt>
<trkpt lat="46.0506060" lon="10.4858970">
	<ele>2386.00</ele>
	<time>2023-08-06T08:30:58.000Z</time>
</trkpt>
<trkpt lat="46.0506060" lon="10.4858910">
	<ele>2386.20</ele>
	<time>2023-08-06T08:30:59.000Z</time>
</trkpt>
<trkpt lat="46.0506020" lon="10.4858850">
	<ele>2386.40</ele>
	<time>2023-08-06T08:31:00.000Z</time>
</trkpt>
<trkpt lat="46.0506040" lon="10.4858820">
	<ele>2386.60</ele>
	<time>2023-08-06T08:31:01.000Z</time>
</trkpt>
<trkpt lat="46.0506040" lon="10.4858770">
	<ele>2386.60</ele>
	<time>2023-08-06T08:31:02.000Z</time>
</trkpt>
<trkpt lat="46.0506050" lon="10.4858760">
	<ele>2386.80</ele>
	<time>2023-08-06T08:31:03.000Z</time>
</trkpt>
<trkpt lat="46.0506040" lon="10.4858740">
	<ele>2386.80</ele>
	<time>2023-08-06T08:31:04.000Z</time>
</trkpt>
<trkpt lat="46.0506050" lon="10.4858710">
	<ele>2387.00</ele>
	<time>2023-08-06T08:31:05.000Z</time>
</trkpt>
<trkpt lat="46.0506120" lon="10.4858670">
	<ele>2387.00</ele>
	<time>2023-08-06T08:31:06.000Z</time>
</trkpt>
<trkpt lat="46.0506190" lon="10.4858630">
	<ele>2387.00</ele>
	<time>2023-08-06T08:31:07.000Z</time>
</trkpt>
<trkpt lat="46.0506210" lon="10.4858610">
	<ele>2387.40</ele>
	<time>2023-08-06T08:31:08.000Z</time>
</trkpt>
<trkpt lat="46.0506220" lon="10.4858600">
	<ele>2387.60</ele>
	<time>2023-08-06T08:31:09.000Z</time>
</trkpt>
<trkpt lat="46.0506240" lon="10.4858600">
	<ele>2387.80</ele>
	<time>2023-08-06T08:31:10.000Z</time>
</trkpt>
<trkpt lat="46.0506260" lon="10.4858540">
	<ele>2387.80</ele>
	<time>2023-08-06T08:31:11.000Z</time>
</trkpt>
<trkpt lat="46.0506280" lon="10.4858500">
	<ele>2387.80</ele>
	<time>2023-08-06T08:31:12.000Z</time>
</trkpt>
<trkpt lat="46.0506300" lon="10.4858480">
	<ele>2387.80</ele>
	<time>2023-08-06T08:31:13.000Z</time>
</trkpt>
<trkpt lat="46.0506310" lon="10.4858470">
	<ele>2388.00</ele>
	<time>2023-08-06T08:31:14.000Z</time>
</trkpt>
<trkpt lat="46.0506330" lon="10.4858440">
	<ele>2388.00</ele>
	<time>2023-08-06T08:31:15.000Z</time>
</trkpt>
<trkpt lat="46.0506370" lon="10.4858420">
	<ele>2388.00</ele>
	<time>2023-08-06T08:31:16.000Z</time>
</trkpt>
<trkpt lat="46.0506390" lon="10.4858400">
	<ele>2388.20</ele>
	<time>2023-08-06T08:31:17.000Z</time>
</trkpt>
<trkpt lat="46.0506440" lon="10.4858390">
	<ele>2388.40</ele>
	<time>2023-08-06T08:31:18.000Z</time>
</trkpt>
<trkpt lat="46.0506490" lon="10.4858390">
	<ele>2388.60</ele>
	<time>2023-08-06T08:31:19.000Z</time>
</trkpt>
<trkpt lat="46.0506530" lon="10.4858380">
	<ele>2388.80</ele>
	<time>2023-08-06T08:31:20.000Z</time>
</trkpt>
<trkpt lat="46.0506530" lon="10.4858410">
	<ele>2388.80</ele>
	<time>2023-08-06T08:31:21.000Z</time>
</trkpt>
<trkpt lat="46.0506540" lon="10.4858420">
	<ele>2388.80</ele>
	<time>2023-08-06T08:31:22.000Z</time>
</trkpt>
<trkpt lat="46.0506550" lon="10.4858430">
	<ele>2389.00</ele>
	<time>2023-08-06T08:31:23.000Z</time>
</trkpt>
<trkpt lat="46.0506590" lon="10.4858460">
	<ele>2389.00</ele>
	<time>2023-08-06T08:31:24.000Z</time>
</trkpt>
<trkpt lat="46.0506610" lon="10.4858490">
	<ele>2389.20</ele>
	<time>2023-08-06T08:31:25.000Z</time>
</trkpt>
<trkpt lat="46.0506630" lon="10.4858520">
	<ele>2389.40</ele>
	<time>2023-08-06T08:31:26.000Z</time>
</trkpt>
<trkpt lat="46.0506690" lon="10.4858540">
	<ele>2389.60</ele>
	<time>2023-08-06T08:31:27.000Z</time>
</trkpt>
<trkpt lat="46.0506740" lon="10.4858590">
	<ele>2389.80</ele>
	<time>2023-08-06T08:31:28.000Z</time>
</trkpt>
<trkpt lat="46.0506770" lon="10.4858640">
	<ele>2390.00</ele>
	<time>2023-08-06T08:31:29.000Z</time>
</trkpt>
<trkpt lat="46.0506780" lon="10.4858690">
	<ele>2390.20</ele>
	<time>2023-08-06T08:31:30.000Z</time>
</trkpt>
<trkpt lat="46.0506790" lon="10.4858730">
	<ele>2390.20</ele>
	<time>2023-08-06T08:31:31.000Z</time>
</trkpt>
<trkpt lat="46.0506800" lon="10.4858760">
	<ele>2390.40</ele>
	<time>2023-08-06T08:31:32.000Z</time>
</trkpt>
<trkpt lat="46.0506810" lon="10.4858790">
	<ele>2390.40</ele>
	<time>2023-08-06T08:31:33.000Z</time>
</trkpt>
<trkpt lat="46.0506820" lon="10.4858790">
	<ele>2390.40</ele>
	<time>2023-08-06T08:31:34.000Z</time>
</trkpt>
<trkpt lat="46.0506850" lon="10.4858780">
	<ele>2390.40</ele>
	<time>2023-08-06T08:31:35.000Z</time>
</trkpt>
<trkpt lat="46.0506870" lon="10.4858800">
	<ele>2390.60</ele>
	<time>2023-08-06T08:31:36.000Z</time>
</trkpt>
<trkpt lat="46.0506900" lon="10.4858800">
	<ele>2390.60</ele>
	<time>2023-08-06T08:31:37.000Z</time>
</trkpt>
<trkpt lat="46.0506920" lon="10.4858790">
	<ele>2390.80</ele>
	<time>2023-08-06T08:31:38.000Z</time>
</trkpt>
<trkpt lat="46.0506940" lon="10.4858790">
	<ele>2390.80</ele>
	<time>2023-08-06T08:31:39.000Z</time>
</trkpt>
<trkpt lat="46.0506950" lon="10.4858770">
	<ele>2391.00</ele>
	<time>2023-08-06T08:31:40.000Z</time>
</trkpt>
<trkpt lat="46.0506960" lon="10.4858730">
	<ele>2391.20</ele>
	<time>2023-08-06T08:31:41.000Z</time>
</trkpt>
<trkpt lat="46.0507010" lon="10.4858680">
	<ele>2391.40</ele>
	<time>2023-08-06T08:31:42.000Z</time>
</trkpt>
<trkpt lat="46.0507050" lon="10.4858650">
	<ele>2391.60</ele>
	<time>2023-08-06T08:31:43.000Z</time>
</trkpt>
<trkpt lat="46.0507120" lon="10.4858650">
	<ele>2391.80</ele>
	<time>2023-08-06T08:31:44.000Z</time>
</trkpt>
<trkpt lat="46.0507180" lon="10.4858620">
	<ele>2392.00</ele>
	<time>2023-08-06T08:31:45.000Z</time>
</trkpt>
<trkpt lat="46.0507220" lon="10.4858630">
	<ele>2392.00</ele>
	<time>2023-08-06T08:31:46.000Z</time>
</trkpt>
<trkpt lat="46.0507240" lon="10.4858640">
	<ele>2392.20</ele>
	<time>2023-08-06T08:31:47.000Z</time>
</trkpt>
<trkpt lat="46.0507260" lon="10.4858680">
	<ele>2392.20</ele>
	<time>2023-08-06T08:31:48.000Z</time>
</trkpt>
<trkpt lat="46.0507290" lon="10.4858710">
	<ele>2392.40</ele>
	<time>2023-08-06T08:31:49.000Z</time>
</trkpt>
<trkpt lat="46.0507320" lon="10.4858730">
	<ele>2392.60</ele>
	<time>2023-08-06T08:31:50.000Z</time>
</trkpt>
<trkpt lat="46.0507340" lon="10.4858760">
	<ele>2392.80</ele>
	<time>2023-08-06T08:31:51.000Z</time>
</trkpt>
<trkpt lat="46.0507350" lon="10.4858770">
	<ele>2392.80</ele>
	<time>2023-08-06T08:31:52.000Z</time>
</trkpt>
<trkpt lat="46.0507380" lon="10.4858820">
	<ele>2393.00</ele>
	<time>2023-08-06T08:31:53.000Z</time>
</trkpt>
<trkpt lat="46.0507410" lon="10.4858850">
	<ele>2393.00</ele>
	<time>2023-08-06T08:31:54.000Z</time>
</trkpt>
<trkpt lat="46.0507440" lon="10.4858880">
	<ele>2393.20</ele>
	<time>2023-08-06T08:31:55.000Z</time>
</trkpt>
<trkpt lat="46.0507460" lon="10.4858930">
	<ele>2393.40</ele>
	<time>2023-08-06T08:31:56.000Z</time>
</trkpt>
<trkpt lat="46.0507530" lon="10.4858970">
	<ele>2393.40</ele>
	<time>2023-08-06T08:31:57.000Z</time>
</trkpt>
<trkpt lat="46.0507570" lon="10.4859010">
	<ele>2393.40</ele>
	<time>2023-08-06T08:31:58.000Z</time>
</trkpt>
<trkpt lat="46.0507600" lon="10.4859030">
	<ele>2393.60</ele>
	<time>2023-08-06T08:31:59.000Z</time>
</trkpt>
<trkpt lat="46.0507610" lon="10.4859060">
	<ele>2393.60</ele>
	<time>2023-08-06T08:32:00.000Z</time>
</trkpt>
<trkpt lat="46.0507650" lon="10.4859070">
	<ele>2393.60</ele>
	<time>2023-08-06T08:32:01.000Z</time>
</trkpt>
<trkpt lat="46.0507690" lon="10.4859090">
	<ele>2393.80</ele>
	<time>2023-08-06T08:32:02.000Z</time>
</trkpt>
<trkpt lat="46.0507720" lon="10.4859120">
	<ele>2393.80</ele>
	<time>2023-08-06T08:32:03.000Z</time>
</trkpt>
<trkpt lat="46.0507740" lon="10.4859160">
	<ele>2393.80</ele>
	<time>2023-08-06T08:32:04.000Z</time>
</trkpt>
<trkpt lat="46.0507770" lon="10.4859210">
	<ele>2394.20</ele>
	<time>2023-08-06T08:32:05.000Z</time>
</trkpt>
<trkpt lat="46.0507800" lon="10.4859220">
	<ele>2394.20</ele>
	<time>2023-08-06T08:32:06.000Z</time>
</trkpt>
<trkpt lat="46.0507820" lon="10.4859230">
	<ele>2394.40</ele>
	<time>2023-08-06T08:32:07.000Z</time>
</trkpt>
<trkpt lat="46.0507820" lon="10.4859200">
	<ele>2394.60</ele>
	<time>2023-08-06T08:32:08.000Z</time>
</trkpt>
<trkpt lat="46.0507820" lon="10.4859170">
	<ele>2394.80</ele>
	<time>2023-08-06T08:32:09.000Z</time>
</trkpt>
<trkpt lat="46.0507820" lon="10.4859160">
	<ele>2395.00</ele>
	<time>2023-08-06T08:32:10.000Z</time>
</trkpt>
<trkpt lat="46.0507830" lon="10.4859110">
	<ele>2395.20</ele>
	<time>2023-08-06T08:32:11.000Z</time>
</trkpt>
<trkpt lat="46.0507840" lon="10.4859080">
	<ele>2395.40</ele>
	<time>2023-08-06T08:32:12.000Z</time>
</trkpt>
<trkpt lat="46.0507840" lon="10.4859050">
	<ele>2395.80</ele>
	<time>2023-08-06T08:32:13.000Z</time>
</trkpt>
<trkpt lat="46.0507860" lon="10.4859000">
	<ele>2396.00</ele>
	<time>2023-08-06T08:32:14.000Z</time>
</trkpt>
<trkpt lat="46.0507860" lon="10.4858950">
	<ele>2395.80</ele>
	<time>2023-08-06T08:32:15.000Z</time>
</trkpt>
<trkpt lat="46.0507900" lon="10.4858920">
	<ele>2395.80</ele>
	<time>2023-08-06T08:32:16.000Z</time>
</trkpt>
<trkpt lat="46.0507910" lon="10.4858910">
	<ele>2396.00</ele>
	<time>2023-08-06T08:32:17.000Z</time>
</trkpt>
<trkpt lat="46.0507930" lon="10.4858920">
	<ele>2395.80</ele>
	<time>2023-08-06T08:32:18.000Z</time>
</trkpt>
<trkpt lat="46.0507970" lon="10.4858910">
	<ele>2395.80</ele>
	<time>2023-08-06T08:32:19.000Z</time>
</trkpt>
<trkpt lat="46.0508010" lon="10.4858910">
	<ele>2395.80</ele>
	<time>2023-08-06T08:32:20.000Z</time>
</trkpt>
<trkpt lat="46.0508030" lon="10.4858930">
	<ele>2395.80</ele>
	<time>2023-08-06T08:32:21.000Z</time>
</trkpt>
<trkpt lat="46.0508080" lon="10.4858930">
	<ele>2395.80</ele>
	<time>2023-08-06T08:32:22.000Z</time>
</trkpt>
<trkpt lat="46.0508160" lon="10.4858880">
	<ele>2395.80</ele>
	<time>2023-08-06T08:32:23.000Z</time>
</trkpt>
<trkpt lat="46.0508220" lon="10.4858860">
	<ele>2395.80</ele>
	<time>2023-08-06T08:32:24.000Z</time>
</trkpt>
<trkpt lat="46.0508250" lon="10.4858870">
	<ele>2396.00</ele>
	<time>2023-08-06T08:32:25.000Z</time>
</trkpt>
<trkpt lat="46.0508290" lon="10.4858940">
	<ele>2396.20</ele>
	<time>2023-08-06T08:32:26.000Z</time>
</trkpt>
<trkpt lat="46.0508320" lon="10.4859010">
	<ele>2396.20</ele>
	<time>2023-08-06T08:32:27.000Z</time>
</trkpt>
<trkpt lat="46.0508340" lon="10.4859040">
	<ele>2396.40</ele>
	<time>2023-08-06T08:32:28.000Z</time>
</trkpt>
<trkpt lat="46.0508380" lon="10.4859090">
	<ele>2396.40</ele>
	<time>2023-08-06T08:32:29.000Z</time>
</trkpt>
<trkpt lat="46.0508430" lon="10.4859190">
	<ele>2396.40</ele>
	<time>2023-08-06T08:32:30.000Z</time>
</trkpt>
<trkpt lat="46.0508470" lon="10.4859230">
	<ele>2396.60</ele>
	<time>2023-08-06T08:32:31.000Z</time>
</trkpt>
<trkpt lat="46.0508510" lon="10.4859280">
	<ele>2396.60</ele>
	<time>2023-08-06T08:32:32.000Z</time>
</trkpt>
<trkpt lat="46.0508530" lon="10.4859320">
	<ele>2396.40</ele>
	<time>2023-08-06T08:32:33.000Z</time>
</trkpt>
<trkpt lat="46.0508570" lon="10.4859360">
	<ele>2396.60</ele>
	<time>2023-08-06T08:32:34.000Z</time>
</trkpt>
<trkpt lat="46.0508600" lon="10.4859370">
	<ele>2396.60</ele>
	<time>2023-08-06T08:32:35.000Z</time>
</trkpt>
<trkpt lat="46.0508630" lon="10.4859380">
	<ele>2396.80</ele>
	<time>2023-08-06T08:32:36.000Z</time>
</trkpt>
<trkpt lat="46.0508670" lon="10.4859380">
	<ele>2396.80</ele>
	<time>2023-08-06T08:32:37.000Z</time>
</trkpt>
<trkpt lat="46.0508700" lon="10.4859390">
	<ele>2397.00</ele>
	<time>2023-08-06T08:32:38.000Z</time>
</trkpt>
<trkpt lat="46.0508740" lon="10.4859410">
	<ele>2397.20</ele>
	<time>2023-08-06T08:32:39.000Z</time>
</trkpt>
<trkpt lat="46.0508760" lon="10.4859430">
	<ele>2397.20</ele>
	<time>2023-08-06T08:32:40.000Z</time>
</trkpt>
<trkpt lat="46.0508760" lon="10.4859450">
	<ele>2397.20</ele>
	<time>2023-08-06T08:32:41.000Z</time>
</trkpt>
<trkpt lat="46.0508750" lon="10.4859430">
	<ele>2397.20</ele>
	<time>2023-08-06T08:32:42.000Z</time>
</trkpt>
<trkpt lat="46.0508750" lon="10.4859420">
	<ele>2397.40</ele>
	<time>2023-08-06T08:32:43.000Z</time>
</trkpt>
<trkpt lat="46.0508740" lon="10.4859420">
	<ele>2397.20</ele>
	<time>2023-08-06T08:32:44.000Z</time>
</trkpt>
<trkpt lat="46.0508730" lon="10.4859430">
	<ele>2397.40</ele>
	<time>2023-08-06T08:32:45.000Z</time>
</trkpt>
<trkpt lat="46.0508760" lon="10.4859430">
	<ele>2397.40</ele>
	<time>2023-08-06T08:32:46.000Z</time>
</trkpt>
<trkpt lat="46.0508780" lon="10.4859420">
	<ele>2397.40</ele>
	<time>2023-08-06T08:32:47.000Z</time>
</trkpt>
<trkpt lat="46.0508780" lon="10.4859420">
	<ele>2397.60</ele>
	<time>2023-08-06T08:32:48.000Z</time>
</trkpt>
<trkpt lat="46.0508780" lon="10.4859420">
	<ele>2397.60</ele>
	<time>2023-08-06T08:32:49.000Z</time>
</trkpt>
<trkpt lat="46.0508780" lon="10.4859420">
	<ele>2397.80</ele>
	<time>2023-08-06T08:32:50.000Z</time>
</trkpt>
<trkpt lat="46.0508780" lon="10.4859420">
	<ele>2397.80</ele>
	<time>2023-08-06T08:32:51.000Z</time>
</trkpt>
<trkpt lat="46.0508780" lon="10.4859420">
	<ele>2397.80</ele>
	<time>2023-08-06T08:32:52.000Z</time>
</trkpt>
<trkpt lat="46.0508780" lon="10.4859420">
	<ele>2397.80</ele>
	<time>2023-08-06T08:32:53.000Z</time>
</trkpt>
<trkpt lat="46.0508780" lon="10.4859420">
	<ele>2397.60</ele>
	<time>2023-08-06T08:32:54.000Z</time>
</trkpt>
<trkpt lat="46.0508780" lon="10.4859420">
	<ele>2397.60</ele>
	<time>2023-08-06T08:32:55.000Z</time>
</trkpt>
<trkpt lat="46.0508780" lon="10.4859420">
	<ele>2397.60</ele>
	<time>2023-08-06T08:32:56.000Z</time>
</trkpt>
<trkpt lat="46.0508780" lon="10.4859420">
	<ele>2397.60</ele>
	<time>2023-08-06T08:32:57.000Z</time>
</trkpt>
<trkpt lat="46.0508780" lon="10.4859420">
	<ele>2397.60</ele>
	<time>2023-08-06T08:32:58.000Z</time>
</trkpt>
<trkpt lat="46.0508780" lon="10.4859420">
	<ele>2397.60</ele>
	<time>2023-08-06T08:32:59.000Z</time>
</trkpt>
<trkpt lat="46.0508780" lon="10.4859420">
	<ele>2397.60</ele>
	<time>2023-08-06T08:33:00.000Z</time>
</trkpt>
<trkpt lat="46.0508780" lon="10.4859430">
	<ele>2397.60</ele>
	<time>2023-08-06T08:33:01.000Z</time>
</trkpt>
<trkpt lat="46.0508780" lon="10.4859430">
	<ele>2397.60</ele>
	<time>2023-08-06T08:33:02.000Z</time>
</trkpt>
<trkpt lat="46.0508780" lon="10.4859430">
	<ele>2397.60</ele>
	<time>2023-08-06T08:33:03.000Z</time>
</trkpt>
<trkpt lat="46.0508780" lon="10.4859430">
	<ele>2397.60</ele>
	<time>2023-08-06T08:33:04.000Z</time>
</trkpt>
<trkpt lat="46.0508780" lon="10.4859450">
	<ele>2397.60</ele>
	<time>2023-08-06T08:33:05.000Z</time>
</trkpt>
<trkpt lat="46.0508780" lon="10.4859450">
	<ele>2397.60</ele>
	<time>2023-08-06T08:33:06.000Z</time>
</trkpt>
<trkpt lat="46.0508780" lon="10.4859450">
	<ele>2397.60</ele>
	<time>2023-08-06T08:33:07.000Z</time>
</trkpt>
<trkpt lat="46.0508790" lon="10.4859460">
	<ele>2397.60</ele>
	<time>2023-08-06T08:33:08.000Z</time>
</trkpt>
<trkpt lat="46.0508800" lon="10.4859460">
	<ele>2397.60</ele>
	<time>2023-08-06T08:33:09.000Z</time>
</trkpt>
<trkpt lat="46.0508850" lon="10.4859500">
	<ele>2397.60</ele>
	<time>2023-08-06T08:33:10.000Z</time>
</trkpt>
<trkpt lat="46.0508880" lon="10.4859530">
	<ele>2397.80</ele>
	<time>2023-08-06T08:33:11.000Z</time>
</trkpt>
<trkpt lat="46.0508890" lon="10.4859540">
	<ele>2398.00</ele>
	<time>2023-08-06T08:33:12.000Z</time>
</trkpt>
<trkpt lat="46.0508940" lon="10.4859550">
	<ele>2398.20</ele>
	<time>2023-08-06T08:33:13.000Z</time>
</trkpt>
<trkpt lat="46.0508990" lon="10.4859550">
	<ele>2398.40</ele>
	<time>2023-08-06T08:33:14.000Z</time>
</trkpt>
<trkpt lat="46.0509050" lon="10.4859590">
	<ele>2398.60</ele>
	<time>2023-08-06T08:33:15.000Z</time>
</trkpt>
<trkpt lat="46.0509110" lon="10.4859640">
	<ele>2398.80</ele>
	<time>2023-08-06T08:33:16.000Z</time>
</trkpt>
<trkpt lat="46.0509140" lon="10.4859670">
	<ele>2398.80</ele>
	<time>2023-08-06T08:33:17.000Z</time>
</trkpt>
<trkpt lat="46.0509170" lon="10.4859720">
	<ele>2399.00</ele>
	<time>2023-08-06T08:33:18.000Z</time>
</trkpt>
<trkpt lat="46.0509260" lon="10.4859730">
	<ele>2399.20</ele>
	<time>2023-08-06T08:33:19.000Z</time>
</trkpt>
<trkpt lat="46.0509390" lon="10.4859760">
	<ele>2399.20</ele>
	<time>2023-08-06T08:33:20.000Z</time>
</trkpt>
<trkpt lat="46.0509510" lon="10.4859800">
	<ele>2399.40</ele>
	<time>2023-08-06T08:33:21.000Z</time>
</trkpt>
<trkpt lat="46.0509640" lon="10.4859850">
	<ele>2399.60</ele>
	<time>2023-08-06T08:33:22.000Z</time>
</trkpt>
<trkpt lat="46.0509760" lon="10.4859870">
	<ele>2399.80</ele>
	<time>2023-08-06T08:33:23.000Z</time>
</trkpt>
<trkpt lat="46.0509890" lon="10.4859900">
	<ele>2400.00</ele>
	<time>2023-08-06T08:33:24.000Z</time>
</trkpt>
<trkpt lat="46.0510010" lon="10.4859940">
	<ele>2400.00</ele>
	<time>2023-08-06T08:33:25.000Z</time>
</trkpt>
<trkpt lat="46.0510150" lon="10.4859970">
	<ele>2400.20</ele>
	<time>2023-08-06T08:33:26.000Z</time>
</trkpt>
<trkpt lat="46.0510270" lon="10.4859970">
	<ele>2400.40</ele>
	<time>2023-08-06T08:33:27.000Z</time>
</trkpt>
<trkpt lat="46.0510400" lon="10.4860020">
	<ele>2400.60</ele>
	<time>2023-08-06T08:33:28.000Z</time>
</trkpt>
<trkpt lat="46.0510430" lon="10.4860040">
	<ele>2400.60</ele>
	<time>2023-08-06T08:33:29.000Z</time>
</trkpt>
<trkpt lat="46.0510450" lon="10.4860050">
	<ele>2401.00</ele>
	<time>2023-08-06T08:33:30.000Z</time>
</trkpt>
<trkpt lat="46.0510470" lon="10.4860070">
	<ele>2401.20</ele>
	<time>2023-08-06T08:33:31.000Z</time>
</trkpt>
<trkpt lat="46.0510510" lon="10.4860070">
	<ele>2401.40</ele>
	<time>2023-08-06T08:33:32.000Z</time>
</trkpt>
<trkpt lat="46.0510560" lon="10.4860060">
	<ele>2401.40</ele>
	<time>2023-08-06T08:33:33.000Z</time>
</trkpt>
<trkpt lat="46.0510590" lon="10.4860090">
	<ele>2401.40</ele>
	<time>2023-08-06T08:33:34.000Z</time>
</trkpt>
<trkpt lat="46.0510630" lon="10.4860090">
	<ele>2401.60</ele>
	<time>2023-08-06T08:33:35.000Z</time>
</trkpt>
<trkpt lat="46.0510590" lon="10.4860130">
	<ele>2401.60</ele>
	<time>2023-08-06T08:33:36.000Z</time>
</trkpt>
<trkpt lat="46.0510540" lon="10.4860130">
	<ele>2401.80</ele>
	<time>2023-08-06T08:33:37.000Z</time>
</trkpt>
<trkpt lat="46.0510550" lon="10.4860140">
	<ele>2402.00</ele>
	<time>2023-08-06T08:33:38.000Z</time>
</trkpt>
<trkpt lat="46.0510570" lon="10.4860130">
	<ele>2402.00</ele>
	<time>2023-08-06T08:33:39.000Z</time>
</trkpt>
<trkpt lat="46.0510590" lon="10.4860130">
	<ele>2402.20</ele>
	<time>2023-08-06T08:33:40.000Z</time>
</trkpt>
<trkpt lat="46.0510610" lon="10.4860120">
	<ele>2402.20</ele>
	<time>2023-08-06T08:33:41.000Z</time>
</trkpt>
<trkpt lat="46.0510620" lon="10.4860110">
	<ele>2402.40</ele>
	<time>2023-08-06T08:33:42.000Z</time>
</trkpt>
<trkpt lat="46.0510630" lon="10.4860100">
	<ele>2402.60</ele>
	<time>2023-08-06T08:33:43.000Z</time>
</trkpt>
<trkpt lat="46.0510640" lon="10.4860080">
	<ele>2402.60</ele>
	<time>2023-08-06T08:33:44.000Z</time>
</trkpt>
<trkpt lat="46.0510640" lon="10.4860050">
	<ele>2402.80</ele>
	<time>2023-08-06T08:33:45.000Z</time>
</trkpt>
<trkpt lat="46.0510640" lon="10.4859990">
	<ele>2403.00</ele>
	<time>2023-08-06T08:33:46.000Z</time>
</trkpt>
<trkpt lat="46.0510630" lon="10.4859930">
	<ele>2403.20</ele>
	<time>2023-08-06T08:33:47.000Z</time>
</trkpt>
<trkpt lat="46.0510660" lon="10.4859830">
	<ele>2403.20</ele>
	<time>2023-08-06T08:33:48.000Z</time>
</trkpt>
<trkpt lat="46.0510710" lon="10.4859740">
	<ele>2403.40</ele>
	<time>2023-08-06T08:33:49.000Z</time>
</trkpt>
<trkpt lat="46.0510750" lon="10.4859680">
	<ele>2403.60</ele>
	<time>2023-08-06T08:33:50.000Z</time>
</trkpt>
<trkpt lat="46.0510790" lon="10.4859680">
	<ele>2403.80</ele>
	<time>2023-08-06T08:33:51.000Z</time>
</trkpt>
<trkpt lat="46.0510840" lon="10.4859690">
	<ele>2404.00</ele>
	<time>2023-08-06T08:33:52.000Z</time>
</trkpt>
<trkpt lat="46.0510870" lon="10.4859700">
	<ele>2404.20</ele>
	<time>2023-08-06T08:33:53.000Z</time>
</trkpt>
<trkpt lat="46.0510930" lon="10.4859720">
	<ele>2404.40</ele>
	<time>2023-08-06T08:33:54.000Z</time>
</trkpt>
<trkpt lat="46.0510970" lon="10.4859770">
	<ele>2404.60</ele>
	<time>2023-08-06T08:33:55.000Z</time>
</trkpt>
<trkpt lat="46.0510990" lon="10.4859780">
	<ele>2404.80</ele>
	<time>2023-08-06T08:33:56.000Z</time>
</trkpt>
<trkpt lat="46.0511010" lon="10.4859780">
	<ele>2404.80</ele>
	<time>2023-08-06T08:33:57.000Z</time>
</trkpt>
<trkpt lat="46.0511070" lon="10.4859770">
	<ele>2405.00</ele>
	<time>2023-08-06T08:33:58.000Z</time>
</trkpt>
<trkpt lat="46.0511130" lon="10.4859780">
	<ele>2405.00</ele>
	<time>2023-08-06T08:33:59.000Z</time>
</trkpt>
<trkpt lat="46.0511200" lon="10.4859810">
	<ele>2405.20</ele>
	<time>2023-08-06T08:34:00.000Z</time>
</trkpt>
<trkpt lat="46.0511270" lon="10.4859850">
	<ele>2405.40</ele>
	<time>2023-08-06T08:34:01.000Z</time>
</trkpt>
<trkpt lat="46.0511310" lon="10.4859860">
	<ele>2405.40</ele>
	<time>2023-08-06T08:34:02.000Z</time>
</trkpt>
<trkpt lat="46.0511340" lon="10.4859860">
	<ele>2405.60</ele>
	<time>2023-08-06T08:34:03.000Z</time>
</trkpt>
<trkpt lat="46.0511370" lon="10.4859900">
	<ele>2405.60</ele>
	<time>2023-08-06T08:34:04.000Z</time>
</trkpt>
<trkpt lat="46.0511390" lon="10.4859940">
	<ele>2405.80</ele>
	<time>2023-08-06T08:34:05.000Z</time>
</trkpt>
<trkpt lat="46.0511410" lon="10.4859940">
	<ele>2406.00</ele>
	<time>2023-08-06T08:34:06.000Z</time>
</trkpt>
<trkpt lat="46.0511400" lon="10.4859920">
	<ele>2406.20</ele>
	<time>2023-08-06T08:34:07.000Z</time>
</trkpt>
<trkpt lat="46.0511430" lon="10.4859930">
	<ele>2406.40</ele>
	<time>2023-08-06T08:34:08.000Z</time>
</trkpt>
<trkpt lat="46.0511450" lon="10.4859940">
	<ele>2406.40</ele>
	<time>2023-08-06T08:34:09.000Z</time>
</trkpt>
<trkpt lat="46.0511460" lon="10.4859900">
	<ele>2406.60</ele>
	<time>2023-08-06T08:34:10.000Z</time>
</trkpt>
<trkpt lat="46.0511460" lon="10.4859860">
	<ele>2406.60</ele>
	<time>2023-08-06T08:34:11.000Z</time>
</trkpt>
<trkpt lat="46.0511450" lon="10.4859830">
	<ele>2406.80</ele>
	<time>2023-08-06T08:34:12.000Z</time>
</trkpt>
<trkpt lat="46.0511480" lon="10.4859800">
	<ele>2406.80</ele>
	<time>2023-08-06T08:34:13.000Z</time>
</trkpt>
<trkpt lat="46.0511550" lon="10.4859760">
	<ele>2407.00</ele>
	<time>2023-08-06T08:34:14.000Z</time>
</trkpt>
<trkpt lat="46.0511580" lon="10.4859750">
	<ele>2407.00</ele>
	<time>2023-08-06T08:34:15.000Z</time>
</trkpt>
<trkpt lat="46.0511610" lon="10.4859730">
	<ele>2407.20</ele>
	<time>2023-08-06T08:34:16.000Z</time>
</trkpt>
<trkpt lat="46.0511660" lon="10.4859730">
	<ele>2407.40</ele>
	<time>2023-08-06T08:34:17.000Z</time>
</trkpt>
<trkpt lat="46.0511670" lon="10.4859740">
	<ele>2407.60</ele>
	<time>2023-08-06T08:34:18.000Z</time>
</trkpt>
<trkpt lat="46.0511730" lon="10.4859780">
	<ele>2407.60</ele>
	<time>2023-08-06T08:34:19.000Z</time>
</trkpt>
<trkpt lat="46.0511760" lon="10.4859880">
	<ele>2407.80</ele>
	<time>2023-08-06T08:34:20.000Z</time>
</trkpt>
<trkpt lat="46.0511810" lon="10.4859950">
	<ele>2408.20</ele>
	<time>2023-08-06T08:34:21.000Z</time>
</trkpt>
<trkpt lat="46.0511820" lon="10.4859980">
	<ele>2408.20</ele>
	<time>2023-08-06T08:34:22.000Z</time>
</trkpt>
<trkpt lat="46.0511820" lon="10.4859990">
	<ele>2408.40</ele>
	<time>2023-08-06T08:34:23.000Z</time>
</trkpt>
<trkpt lat="46.0511810" lon="10.4860050">
	<ele>2408.60</ele>
	<time>2023-08-06T08:34:24.000Z</time>
</trkpt>
<trkpt lat="46.0511830" lon="10.4860080">
	<ele>2408.60</ele>
	<time>2023-08-06T08:34:25.000Z</time>
</trkpt>
<trkpt lat="46.0511850" lon="10.4860100">
	<ele>2408.60</ele>
	<time>2023-08-06T08:34:26.000Z</time>
</trkpt>
<trkpt lat="46.0511880" lon="10.4860100">
	<ele>2408.60</ele>
	<time>2023-08-06T08:34:27.000Z</time>
</trkpt>
<trkpt lat="46.0511940" lon="10.4860100">
	<ele>2408.80</ele>
	<time>2023-08-06T08:34:28.000Z</time>
</trkpt>
<trkpt lat="46.0511960" lon="10.4860100">
	<ele>2409.00</ele>
	<time>2023-08-06T08:34:29.000Z</time>
</trkpt>
<trkpt lat="46.0511980" lon="10.4860110">
	<ele>2409.20</ele>
	<time>2023-08-06T08:34:30.000Z</time>
</trkpt>
<trkpt lat="46.0511980" lon="10.4860110">
	<ele>2409.40</ele>
	<time>2023-08-06T08:34:31.000Z</time>
</trkpt>
<trkpt lat="46.0511980" lon="10.4860110">
	<ele>2409.60</ele>
	<time>2023-08-06T08:34:32.000Z</time>
</trkpt>
<trkpt lat="46.0511980" lon="10.4860110">
	<ele>2409.80</ele>
	<time>2023-08-06T08:34:33.000Z</time>
</trkpt>
<trkpt lat="46.0511980" lon="10.4860110">
	<ele>2410.00</ele>
	<time>2023-08-06T08:34:34.000Z</time>
</trkpt>
<trkpt lat="46.0511980" lon="10.4860110">
	<ele>2410.20</ele>
	<time>2023-08-06T08:34:35.000Z</time>
</trkpt>
<trkpt lat="46.0511980" lon="10.4860110">
	<ele>2410.20</ele>
	<time>2023-08-06T08:34:36.000Z</time>
</trkpt>
<trkpt lat="46.0511980" lon="10.4860110">
	<ele>2410.40</ele>
	<time>2023-08-06T08:34:37.000Z</time>
</trkpt>
<trkpt lat="46.0511980" lon="10.4860110">
	<ele>2410.60</ele>
	<time>2023-08-06T08:34:38.000Z</time>
</trkpt>
<trkpt lat="46.0511980" lon="10.4860110">
	<ele>2410.60</ele>
	<time>2023-08-06T08:34:39.000Z</time>
</trkpt>
<trkpt lat="46.0511980" lon="10.4860100">
	<ele>2410.60</ele>
	<time>2023-08-06T08:34:40.000Z</time>
</trkpt>
<trkpt lat="46.0511980" lon="10.4860100">
	<ele>2410.60</ele>
	<time>2023-08-06T08:34:41.000Z</time>
</trkpt>
<trkpt lat="46.0511980" lon="10.4860100">
	<ele>2410.60</ele>
	<time>2023-08-06T08:34:42.000Z</time>
</trkpt>
<trkpt lat="46.0511980" lon="10.4860100">
	<ele>2410.60</ele>
	<time>2023-08-06T08:34:43.000Z</time>
</trkpt>
<trkpt lat="46.0511980" lon="10.4860100">
	<ele>2410.60</ele>
	<time>2023-08-06T08:34:44.000Z</time>
</trkpt>
<trkpt lat="46.0511980" lon="10.4860080">
	<ele>2410.60</ele>
	<time>2023-08-06T08:34:45.000Z</time>
</trkpt>
<trkpt lat="46.0511980" lon="10.4860080">
	<ele>2410.80</ele>
	<time>2023-08-06T08:34:46.000Z</time>
</trkpt>
<trkpt lat="46.0511980" lon="10.4860060">
	<ele>2411.00</ele>
	<time>2023-08-06T08:34:47.000Z</time>
</trkpt>
<trkpt lat="46.0511980" lon="10.4860060">
	<ele>2411.20</ele>
	<time>2023-08-06T08:34:48.000Z</time>
</trkpt>
<trkpt lat="46.0511990" lon="10.4860060">
	<ele>2411.40</ele>
	<time>2023-08-06T08:34:49.000Z</time>
</trkpt>
<trkpt lat="46.0512000" lon="10.4860060">
	<ele>2411.40</ele>
	<time>2023-08-06T08:34:50.000Z</time>
</trkpt>
<trkpt lat="46.0512030" lon="10.4860060">
	<ele>2411.60</ele>
	<time>2023-08-06T08:34:51.000Z</time>
</trkpt>
<trkpt lat="46.0512050" lon="10.4860060">
	<ele>2411.60</ele>
	<time>2023-08-06T08:34:52.000Z</time>
</trkpt>
<trkpt lat="46.0512080" lon="10.4860060">
	<ele>2411.80</ele>
	<time>2023-08-06T08:34:53.000Z</time>
</trkpt>
<trkpt lat="46.0512110" lon="10.4860070">
	<ele>2411.80</ele>
	<time>2023-08-06T08:34:54.000Z</time>
</trkpt>
<trkpt lat="46.0512150" lon="10.4860070">
	<ele>2412.00</ele>
	<time>2023-08-06T08:34:55.000Z</time>
</trkpt>
<trkpt lat="46.0512170" lon="10.4860070">
	<ele>2412.20</ele>
	<time>2023-08-06T08:34:56.000Z</time>
</trkpt>
<trkpt lat="46.0512190" lon="10.4860070">
	<ele>2412.40</ele>
	<time>2023-08-06T08:34:57.000Z</time>
</trkpt>
<trkpt lat="46.0512210" lon="10.4860070">
	<ele>2412.60</ele>
	<time>2023-08-06T08:34:58.000Z</time>
</trkpt>
<trkpt lat="46.0512230" lon="10.4860070">
	<ele>2412.80</ele>
	<time>2023-08-06T08:34:59.000Z</time>
</trkpt>
<trkpt lat="46.0512250" lon="10.4860070">
	<ele>2413.00</ele>
	<time>2023-08-06T08:35:00.000Z</time>
</trkpt>
<trkpt lat="46.0512290" lon="10.4860070">
	<ele>2413.00</ele>
	<time>2023-08-06T08:35:01.000Z</time>
</trkpt>
<trkpt lat="46.0512330" lon="10.4860070">
	<ele>2413.20</ele>
	<time>2023-08-06T08:35:02.000Z</time>
</trkpt>
<trkpt lat="46.0512370" lon="10.4860070">
	<ele>2413.40</ele>
	<time>2023-08-06T08:35:03.000Z</time>
</trkpt>
<trkpt lat="46.0512400" lon="10.4860100">
	<ele>2413.40</ele>
	<time>2023-08-06T08:35:04.000Z</time>
</trkpt>
<trkpt lat="46.0512480" lon="10.4860120">
	<ele>2413.60</ele>
	<time>2023-08-06T08:35:05.000Z</time>
</trkpt>
<trkpt lat="46.0512540" lon="10.4860160">
	<ele>2413.80</ele>
	<time>2023-08-06T08:35:06.000Z</time>
</trkpt>
<trkpt lat="46.0512570" lon="10.4860200">
	<ele>2413.80</ele>
	<time>2023-08-06T08:35:07.000Z</time>
</trkpt>
<trkpt lat="46.0512590" lon="10.4860250">
	<ele>2414.00</ele>
	<time>2023-08-06T08:35:08.000Z</time>
</trkpt>
<trkpt lat="46.0512620" lon="10.4860280">
	<ele>2414.00</ele>
	<time>2023-08-06T08:35:09.000Z</time>
</trkpt>
<trkpt lat="46.0512660" lon="10.4860320">
	<ele>2414.20</ele>
	<time>2023-08-06T08:35:10.000Z</time>
</trkpt>
<trkpt lat="46.0512710" lon="10.4860380">
	<ele>2414.40</ele>
	<time>2023-08-06T08:35:11.000Z</time>
</trkpt>
<trkpt lat="46.0512770" lon="10.4860410">
	<ele>2414.60</ele>
	<time>2023-08-06T08:35:12.000Z</time>
</trkpt>
<trkpt lat="46.0512790" lon="10.4860430">
	<ele>2414.80</ele>
	<time>2023-08-06T08:35:13.000Z</time>
</trkpt>
<trkpt lat="46.0512810" lon="10.4860440">
	<ele>2414.80</ele>
	<time>2023-08-06T08:35:14.000Z</time>
</trkpt>
<trkpt lat="46.0512860" lon="10.4860450">
	<ele>2415.00</ele>
	<time>2023-08-06T08:35:15.000Z</time>
</trkpt>
<trkpt lat="46.0512900" lon="10.4860460">
	<ele>2415.00</ele>
	<time>2023-08-06T08:35:16.000Z</time>
</trkpt>
<trkpt lat="46.0512940" lon="10.4860460">
	<ele>2415.20</ele>
	<time>2023-08-06T08:35:17.000Z</time>
</trkpt>
<trkpt lat="46.0512970" lon="10.4860470">
	<ele>2415.20</ele>
	<time>2023-08-06T08:35:18.000Z</time>
</trkpt>
<trkpt lat="46.0513010" lon="10.4860470">
	<ele>2415.20</ele>
	<time>2023-08-06T08:35:19.000Z</time>
</trkpt>
<trkpt lat="46.0513020" lon="10.4860470">
	<ele>2415.40</ele>
	<time>2023-08-06T08:35:20.000Z</time>
</trkpt>
<trkpt lat="46.0513050" lon="10.4860470">
	<ele>2415.40</ele>
	<time>2023-08-06T08:35:21.000Z</time>
</trkpt>
<trkpt lat="46.0513090" lon="10.4860480">
	<ele>2415.40</ele>
	<time>2023-08-06T08:35:22.000Z</time>
</trkpt>
<trkpt lat="46.0513110" lon="10.4860490">
	<ele>2415.60</ele>
	<time>2023-08-06T08:35:23.000Z</time>
</trkpt>
<trkpt lat="46.0513130" lon="10.4860500">
	<ele>2415.80</ele>
	<time>2023-08-06T08:35:24.000Z</time>
</trkpt>
<trkpt lat="46.0513170" lon="10.4860500">
	<ele>2415.80</ele>
	<time>2023-08-06T08:35:25.000Z</time>
</trkpt>
<trkpt lat="46.0513210" lon="10.4860500">
	<ele>2416.00</ele>
	<time>2023-08-06T08:35:26.000Z</time>
</trkpt>
<trkpt lat="46.0513230" lon="10.4860510">
	<ele>2416.20</ele>
	<time>2023-08-06T08:35:27.000Z</time>
</trkpt>
<trkpt lat="46.0513240" lon="10.4860510">
	<ele>2416.40</ele>
	<time>2023-08-06T08:35:28.000Z</time>
</trkpt>
<trkpt lat="46.0513270" lon="10.4860510">
	<ele>2416.40</ele>
	<time>2023-08-06T08:35:29.000Z</time>
</trkpt>
<trkpt lat="46.0513320" lon="10.4860530">
	<ele>2416.60</ele>
	<time>2023-08-06T08:35:30.000Z</time>
</trkpt>
<trkpt lat="46.0513380" lon="10.4860540">
	<ele>2416.60</ele>
	<time>2023-08-06T08:35:31.000Z</time>
</trkpt>
<trkpt lat="46.0513420" lon="10.4860550">
	<ele>2416.60</ele>
	<time>2023-08-06T08:35:32.000Z</time>
</trkpt>
<trkpt lat="46.0513450" lon="10.4860550">
	<ele>2416.60</ele>
	<time>2023-08-06T08:35:33.000Z</time>
</trkpt>
<trkpt lat="46.0513480" lon="10.4860560">
	<ele>2416.80</ele>
	<time>2023-08-06T08:35:34.000Z</time>
</trkpt>
<trkpt lat="46.0513500" lon="10.4860580">
	<ele>2417.60</ele>
	<time>2023-08-06T08:35:35.000Z</time>
</trkpt>
<trkpt lat="46.0513540" lon="10.4860610">
	<ele>2418.00</ele>
	<time>2023-08-06T08:35:36.000Z</time>
</trkpt>
<trkpt lat="46.0513570" lon="10.4860630">
	<ele>2418.20</ele>
	<time>2023-08-06T08:35:37.000Z</time>
</trkpt>
<trkpt lat="46.0513630" lon="10.4860660">
	<ele>2417.60</ele>
	<time>2023-08-06T08:35:38.000Z</time>
</trkpt>
<trkpt lat="46.0513680" lon="10.4860700">
	<ele>2418.00</ele>
	<time>2023-08-06T08:35:39.000Z</time>
</trkpt>
<trkpt lat="46.0513710" lon="10.4860730">
	<ele>2418.20</ele>
	<time>2023-08-06T08:35:40.000Z</time>
</trkpt>
<trkpt lat="46.0513730" lon="10.4860770">
	<ele>2418.40</ele>
	<time>2023-08-06T08:35:41.000Z</time>
</trkpt>
<trkpt lat="46.0513750" lon="10.4860820">
	<ele>2418.40</ele>
	<time>2023-08-06T08:35:42.000Z</time>
</trkpt>
<trkpt lat="46.0513770" lon="10.4860840">
	<ele>2418.40</ele>
	<time>2023-08-06T08:35:43.000Z</time>
</trkpt>
<trkpt lat="46.0513800" lon="10.4860860">
	<ele>2418.40</ele>
	<time>2023-08-06T08:35:44.000Z</time>
</trkpt>
<trkpt lat="46.0513830" lon="10.4860870">
	<ele>2418.40</ele>
	<time>2023-08-06T08:35:45.000Z</time>
</trkpt>
<trkpt lat="46.0513860" lon="10.4860880">
	<ele>2418.60</ele>
	<time>2023-08-06T08:35:46.000Z</time>
</trkpt>
<trkpt lat="46.0513890" lon="10.4860890">
	<ele>2418.60</ele>
	<time>2023-08-06T08:35:47.000Z</time>
</trkpt>
<trkpt lat="46.0513930" lon="10.4860890">
	<ele>2418.60</ele>
	<time>2023-08-06T08:35:48.000Z</time>
</trkpt>
<trkpt lat="46.0513960" lon="10.4860890">
	<ele>2418.40</ele>
	<time>2023-08-06T08:35:49.000Z</time>
</trkpt>
<trkpt lat="46.0513980" lon="10.4860900">
	<ele>2418.40</ele>
	<time>2023-08-06T08:35:50.000Z</time>
</trkpt>
<trkpt lat="46.0514000" lon="10.4860900">
	<ele>2418.40</ele>
	<time>2023-08-06T08:35:51.000Z</time>
</trkpt>
<trkpt lat="46.0514010" lon="10.4860900">
	<ele>2418.00</ele>
	<time>2023-08-06T08:35:52.000Z</time>
</trkpt>
<trkpt lat="46.0514020" lon="10.4860900">
	<ele>2417.80</ele>
	<time>2023-08-06T08:35:53.000Z</time>
</trkpt>
<trkpt lat="46.0514030" lon="10.4860900">
	<ele>2417.40</ele>
	<time>2023-08-06T08:35:54.000Z</time>
</trkpt>
<trkpt lat="46.0514040" lon="10.4860900">
	<ele>2417.20</ele>
	<time>2023-08-06T08:35:55.000Z</time>
</trkpt>
<trkpt lat="46.0514040" lon="10.4860900">
	<ele>2417.00</ele>
	<time>2023-08-06T08:35:56.000Z</time>
</trkpt>
<trkpt lat="46.0514050" lon="10.4860910">
	<ele>2417.40</ele>
	<time>2023-08-06T08:35:57.000Z</time>
</trkpt>
<trkpt lat="46.0514050" lon="10.4860910">
	<ele>2417.60</ele>
	<time>2023-08-06T08:35:58.000Z</time>
</trkpt>
<trkpt lat="46.0514060" lon="10.4860910">
	<ele>2417.80</ele>
	<time>2023-08-06T08:35:59.000Z</time>
</trkpt>
<trkpt lat="46.0514060" lon="10.4860910">
	<ele>2418.40</ele>
	<time>2023-08-06T08:36:00.000Z</time>
</trkpt>
<trkpt lat="46.0514070" lon="10.4860910">
	<ele>2418.80</ele>
	<time>2023-08-06T08:36:01.000Z</time>
</trkpt>
<trkpt lat="46.0514070" lon="10.4860920">
	<ele>2419.00</ele>
	<time>2023-08-06T08:36:02.000Z</time>
</trkpt>
<trkpt lat="46.0514070" lon="10.4860920">
	<ele>2419.20</ele>
	<time>2023-08-06T08:36:03.000Z</time>
</trkpt>
<trkpt lat="46.0514090" lon="10.4860920">
	<ele>2419.20</ele>
	<time>2023-08-06T08:36:04.000Z</time>
</trkpt>
<trkpt lat="46.0514120" lon="10.4860920">
	<ele>2419.20</ele>
	<time>2023-08-06T08:36:05.000Z</time>
</trkpt>
<trkpt lat="46.0514150" lon="10.4860920">
	<ele>2419.00</ele>
	<time>2023-08-06T08:36:06.000Z</time>
</trkpt>
<trkpt lat="46.0514180" lon="10.4860920">
	<ele>2418.80</ele>
	<time>2023-08-06T08:36:07.000Z</time>
</trkpt>
<trkpt lat="46.0514220" lon="10.4860930">
	<ele>2418.80</ele>
	<time>2023-08-06T08:36:08.000Z</time>
</trkpt>
<trkpt lat="46.0514260" lon="10.4860940">
	<ele>2418.60</ele>
	<time>2023-08-06T08:36:09.000Z</time>
</trkpt>
<trkpt lat="46.0514320" lon="10.4860950">
	<ele>2418.60</ele>
	<time>2023-08-06T08:36:10.000Z</time>
</trkpt>
<trkpt lat="46.0514380" lon="10.4860960">
	<ele>2418.60</ele>
	<time>2023-08-06T08:36:11.000Z</time>
</trkpt>
<trkpt lat="46.0514420" lon="10.4860970">
	<ele>2418.80</ele>
	<time>2023-08-06T08:36:12.000Z</time>
</trkpt>
<trkpt lat="46.0514470" lon="10.4860980">
	<ele>2418.80</ele>
	<time>2023-08-06T08:36:13.000Z</time>
</trkpt>
<trkpt lat="46.0514520" lon="10.4860990">
	<ele>2419.00</ele>
	<time>2023-08-06T08:36:14.000Z</time>
</trkpt>
<trkpt lat="46.0514570" lon="10.4861000">
	<ele>2419.20</ele>
	<time>2023-08-06T08:36:15.000Z</time>
</trkpt>
<trkpt lat="46.0514630" lon="10.4861010">
	<ele>2419.40</ele>
	<time>2023-08-06T08:36:16.000Z</time>
</trkpt>
<trkpt lat="46.0514690" lon="10.4861030">
	<ele>2419.80</ele>
	<time>2023-08-06T08:36:17.000Z</time>
</trkpt>
<trkpt lat="46.0514750" lon="10.4861050">
	<ele>2420.00</ele>
	<time>2023-08-06T08:36:18.000Z</time>
</trkpt>
<trkpt lat="46.0514810" lon="10.4861060">
	<ele>2420.00</ele>
	<time>2023-08-06T08:36:19.000Z</time>
</trkpt>
<trkpt lat="46.0514880" lon="10.4861060">
	<ele>2420.20</ele>
	<time>2023-08-06T08:36:20.000Z</time>
</trkpt>
<trkpt lat="46.0514930" lon="10.4861070">
	<ele>2420.20</ele>
	<time>2023-08-06T08:36:21.000Z</time>
</trkpt>
<trkpt lat="46.0514960" lon="10.4861070">
	<ele>2420.20</ele>
	<time>2023-08-06T08:36:22.000Z</time>
</trkpt>
<trkpt lat="46.0514980" lon="10.4861070">
	<ele>2420.40</ele>
	<time>2023-08-06T08:36:23.000Z</time>
</trkpt>
<trkpt lat="46.0514990" lon="10.4861070">
	<ele>2420.40</ele>
	<time>2023-08-06T08:36:24.000Z</time>
</trkpt>
<trkpt lat="46.0515010" lon="10.4861080">
	<ele>2420.40</ele>
	<time>2023-08-06T08:36:25.000Z</time>
</trkpt>
<trkpt lat="46.0515020" lon="10.4861080">
	<ele>2420.60</ele>
	<time>2023-08-06T08:36:26.000Z</time>
</trkpt>
<trkpt lat="46.0515030" lon="10.4861080">
	<ele>2420.60</ele>
	<time>2023-08-06T08:36:27.000Z</time>
</trkpt>
<trkpt lat="46.0515030" lon="10.4861080">
	<ele>2420.60</ele>
	<time>2023-08-06T08:36:28.000Z</time>
</trkpt>
<trkpt lat="46.0515040" lon="10.4861080">
	<ele>2420.40</ele>
	<time>2023-08-06T08:36:29.000Z</time>
</trkpt>
<trkpt lat="46.0515040" lon="10.4861080">
	<ele>2420.00</ele>
	<time>2023-08-06T08:36:30.000Z</time>
</trkpt>
<trkpt lat="46.0515040" lon="10.4861080">
	<ele>2419.60</ele>
	<time>2023-08-06T08:36:31.000Z</time>
</trkpt>
<trkpt lat="46.0515040" lon="10.4861080">
	<ele>2419.20</ele>
	<time>2023-08-06T08:36:32.000Z</time>
</trkpt>
<trkpt lat="46.0515050" lon="10.4861080">
	<ele>2419.20</ele>
	<time>2023-08-06T08:36:33.000Z</time>
</trkpt>
<trkpt lat="46.0515050" lon="10.4861080">
	<ele>2419.00</ele>
	<time>2023-08-06T08:36:34.000Z</time>
</trkpt>
<trkpt lat="46.0515090" lon="10.4861100">
	<ele>2419.00</ele>
	<time>2023-08-06T08:36:35.000Z</time>
</trkpt>
<trkpt lat="46.0515190" lon="10.4861190">
	<ele>2419.20</ele>
	<time>2023-08-06T08:36:36.000Z</time>
</trkpt>
<trkpt lat="46.0515260" lon="10.4861280">
	<ele>2419.20</ele>
	<time>2023-08-06T08:36:37.000Z</time>
</trkpt>
<trkpt lat="46.0515350" lon="10.4861340">
	<ele>2419.40</ele>
	<time>2023-08-06T08:36:38.000Z</time>
</trkpt>
<trkpt lat="46.0515400" lon="10.4861380">
	<ele>2419.80</ele>
	<time>2023-08-06T08:36:39.000Z</time>
</trkpt>
<trkpt lat="46.0515470" lon="10.4861420">
	<ele>2419.80</ele>
	<time>2023-08-06T08:36:40.000Z</time>
</trkpt>
<trkpt lat="46.0515550" lon="10.4861490">
	<ele>2419.80</ele>
	<time>2023-08-06T08:36:41.000Z</time>
</trkpt>
<trkpt lat="46.0515610" lon="10.4861550">
	<ele>2419.80</ele>
	<time>2023-08-06T08:36:42.000Z</time>
</trkpt>
<trkpt lat="46.0515680" lon="10.4861620">
	<ele>2419.80</ele>
	<time>2023-08-06T08:36:43.000Z</time>
</trkpt>
<trkpt lat="46.0515770" lon="10.4861640">
	<ele>2420.00</ele>
	<time>2023-08-06T08:36:44.000Z</time>
</trkpt>
<trkpt lat="46.0515790" lon="10.4861700">
	<ele>2420.20</ele>
	<time>2023-08-06T08:36:45.000Z</time>
</trkpt>
<trkpt lat="46.0515810" lon="10.4861730">
	<ele>2420.20</ele>
	<time>2023-08-06T08:36:46.000Z</time>
</trkpt>
<trkpt lat="46.0515800" lon="10.4861820">
	<ele>2420.40</ele>
	<time>2023-08-06T08:36:47.000Z</time>
</trkpt>
<trkpt lat="46.0515840" lon="10.4861870">
	<ele>2420.40</ele>
	<time>2023-08-06T08:36:48.000Z</time>
</trkpt>
<trkpt lat="46.0515910" lon="10.4861900">
	<ele>2420.60</ele>
	<time>2023-08-06T08:36:49.000Z</time>
</trkpt>
<trkpt lat="46.0515940" lon="10.4861920">
	<ele>2420.80</ele>
	<time>2023-08-06T08:36:50.000Z</time>
</trkpt>
<trkpt lat="46.0515980" lon="10.4861930">
	<ele>2420.80</ele>
	<time>2023-08-06T08:36:51.000Z</time>
</trkpt>
<trkpt lat="46.0516030" lon="10.4861950">
	<ele>2420.80</ele>
	<time>2023-08-06T08:36:52.000Z</time>
</trkpt>
<trkpt lat="46.0516070" lon="10.4861980">
	<ele>2420.80</ele>
	<time>2023-08-06T08:36:53.000Z</time>
</trkpt>
<trkpt lat="46.0516140" lon="10.4861960">
	<ele>2420.80</ele>
	<time>2023-08-06T08:36:54.000Z</time>
</trkpt>
<trkpt lat="46.0516170" lon="10.4862020">
	<ele>2420.80</ele>
	<time>2023-08-06T08:36:55.000Z</time>
</trkpt>
<trkpt lat="46.0516170" lon="10.4862030">
	<ele>2421.20</ele>
	<time>2023-08-06T08:36:56.000Z</time>
</trkpt>
<trkpt lat="46.0516170" lon="10.4862040">
	<ele>2421.40</ele>
	<time>2023-08-06T08:36:57.000Z</time>
</trkpt>
<trkpt lat="46.0516160" lon="10.4862040">
	<ele>2421.80</ele>
	<time>2023-08-06T08:36:58.000Z</time>
</trkpt>
<trkpt lat="46.0516160" lon="10.4862030">
	<ele>2421.80</ele>
	<time>2023-08-06T08:36:59.000Z</time>
</trkpt>
<trkpt lat="46.0516160" lon="10.4862030">
	<ele>2422.00</ele>
	<time>2023-08-06T08:37:00.000Z</time>
</trkpt>
<trkpt lat="46.0516160" lon="10.4862030">
	<ele>2422.00</ele>
	<time>2023-08-06T08:37:01.000Z</time>
</trkpt>
<trkpt lat="46.0516160" lon="10.4862020">
	<ele>2422.00</ele>
	<time>2023-08-06T08:37:02.000Z</time>
</trkpt>
<trkpt lat="46.0516160" lon="10.4862020">
	<ele>2422.00</ele>
	<time>2023-08-06T08:37:03.000Z</time>
</trkpt>
<trkpt lat="46.0516160" lon="10.4862020">
	<ele>2422.00</ele>
	<time>2023-08-06T08:37:04.000Z</time>
</trkpt>
<trkpt lat="46.0516160" lon="10.4862020">
	<ele>2421.80</ele>
	<time>2023-08-06T08:37:05.000Z</time>
</trkpt>
<trkpt lat="46.0516160" lon="10.4862020">
	<ele>2422.00</ele>
	<time>2023-08-06T08:37:06.000Z</time>
</trkpt>
<trkpt lat="46.0516160" lon="10.4862020">
	<ele>2422.00</ele>
	<time>2023-08-06T08:37:07.000Z</time>
</trkpt>
<trkpt lat="46.0516160" lon="10.4862020">
	<ele>2422.00</ele>
	<time>2023-08-06T08:37:08.000Z</time>
</trkpt>
<trkpt lat="46.0516160" lon="10.4862020">
	<ele>2422.00</ele>
	<time>2023-08-06T08:37:09.000Z</time>
</trkpt>
<trkpt lat="46.0516160" lon="10.4862020">
	<ele>2422.00</ele>
	<time>2023-08-06T08:37:10.000Z</time>
</trkpt>
<trkpt lat="46.0516160" lon="10.4862020">
	<ele>2422.00</ele>
	<time>2023-08-06T08:37:11.000Z</time>
</trkpt>
<trkpt lat="46.0516160" lon="10.4862030">
	<ele>2421.80</ele>
	<time>2023-08-06T08:37:12.000Z</time>
</trkpt>
<trkpt lat="46.0516160" lon="10.4862030">
	<ele>2421.80</ele>
	<time>2023-08-06T08:37:13.000Z</time>
</trkpt>
<trkpt lat="46.0516160" lon="10.4862030">
	<ele>2421.60</ele>
	<time>2023-08-06T08:37:14.000Z</time>
</trkpt>
<trkpt lat="46.0516160" lon="10.4862030">
	<ele>2421.60</ele>
	<time>2023-08-06T08:37:15.000Z</time>
</trkpt>
<trkpt lat="46.0516160" lon="10.4862030">
	<ele>2421.40</ele>
	<time>2023-08-06T08:37:16.000Z</time>
</trkpt>
<trkpt lat="46.0516170" lon="10.4862030">
	<ele>2421.20</ele>
	<time>2023-08-06T08:37:17.000Z</time>
</trkpt>
<trkpt lat="46.0516170" lon="10.4862040">
	<ele>2421.00</ele>
	<time>2023-08-06T08:37:18.000Z</time>
</trkpt>
<trkpt lat="46.0516170" lon="10.4862040">
	<ele>2421.00</ele>
	<time>2023-08-06T08:37:19.000Z</time>
</trkpt>
<trkpt lat="46.0516210" lon="10.4862060">
	<ele>2420.80</ele>
	<time>2023-08-06T08:37:20.000Z</time>
</trkpt>
<trkpt lat="46.0516220" lon="10.4862070">
	<ele>2420.80</ele>
	<time>2023-08-06T08:37:21.000Z</time>
</trkpt>
<trkpt lat="46.0516220" lon="10.4862100">
	<ele>2420.80</ele>
	<time>2023-08-06T08:37:22.000Z</time>
</trkpt>
<trkpt lat="46.0516220" lon="10.4862140">
	<ele>2420.80</ele>
	<time>2023-08-06T08:37:23.000Z</time>
</trkpt>
<trkpt lat="46.0516230" lon="10.4862180">
	<ele>2420.60</ele>
	<time>2023-08-06T08:37:24.000Z</time>
</trkpt>
<trkpt lat="46.0516240" lon="10.4862220">
	<ele>2420.60</ele>
	<time>2023-08-06T08:37:25.000Z</time>
</trkpt>
<trkpt lat="46.0516240" lon="10.4862240">
	<ele>2420.60</ele>
	<time>2023-08-06T08:37:26.000Z</time>
</trkpt>
<trkpt lat="46.0516240" lon="10.4862280">
	<ele>2420.60</ele>
	<time>2023-08-06T08:37:27.000Z</time>
</trkpt>
<trkpt lat="46.0516260" lon="10.4862320">
	<ele>2420.80</ele>
	<time>2023-08-06T08:37:28.000Z</time>
</trkpt>
<trkpt lat="46.0516270" lon="10.4862360">
	<ele>2420.80</ele>
	<time>2023-08-06T08:37:29.000Z</time>
</trkpt>
<trkpt lat="46.0516270" lon="10.4862420">
	<ele>2420.80</ele>
	<time>2023-08-06T08:37:30.000Z</time>
</trkpt>
<trkpt lat="46.0516280" lon="10.4862470">
	<ele>2420.80</ele>
	<time>2023-08-06T08:37:31.000Z</time>
</trkpt>
<trkpt lat="46.0516290" lon="10.4862530">
	<ele>2420.80</ele>
	<time>2023-08-06T08:37:32.000Z</time>
</trkpt>
<trkpt lat="46.0516310" lon="10.4862610">
	<ele>2420.80</ele>
	<time>2023-08-06T08:37:33.000Z</time>
</trkpt>
<trkpt lat="46.0516320" lon="10.4862670">
	<ele>2420.80</ele>
	<time>2023-08-06T08:37:34.000Z</time>
</trkpt>
<trkpt lat="46.0516320" lon="10.4862670">
	<ele>2421.00</ele>
	<time>2023-08-06T08:37:35.000Z</time>
</trkpt>
<trkpt lat="46.0516330" lon="10.4862670">
	<ele>2421.20</ele>
	<time>2023-08-06T08:37:36.000Z</time>
</trkpt>
<trkpt lat="46.0516330" lon="10.4862670">
	<ele>2421.20</ele>
	<time>2023-08-06T08:37:37.000Z</time>
</trkpt>
<trkpt lat="46.0516330" lon="10.4862670">
	<ele>2421.20</ele>
	<time>2023-08-06T08:37:38.000Z</time>
</trkpt>
<trkpt lat="46.0516330" lon="10.4862670">
	<ele>2421.20</ele>
	<time>2023-08-06T08:37:39.000Z</time>
</trkpt>
<trkpt lat="46.0516340" lon="10.4862670">
	<ele>2421.20</ele>
	<time>2023-08-06T08:37:40.000Z</time>
</trkpt>
<trkpt lat="46.0516350" lon="10.4862670">
	<ele>2421.20</ele>
	<time>2023-08-06T08:37:41.000Z</time>
</trkpt>
<trkpt lat="46.0516350" lon="10.4862670">
	<ele>2421.20</ele>
	<time>2023-08-06T08:37:42.000Z</time>
</trkpt>
<trkpt lat="46.0516350" lon="10.4862670">
	<ele>2421.20</ele>
	<time>2023-08-06T08:37:43.000Z</time>
</trkpt>
<trkpt lat="46.0516350" lon="10.4862670">
	<ele>2421.20</ele>
	<time>2023-08-06T08:37:44.000Z</time>
</trkpt>
<trkpt lat="46.0516350" lon="10.4862670">
	<ele>2421.20</ele>
	<time>2023-08-06T08:37:45.000Z</time>
</trkpt>
<trkpt lat="46.0516350" lon="10.4862670">
	<ele>2421.20</ele>
	<time>2023-08-06T08:37:46.000Z</time>
</trkpt>
<trkpt lat="46.0516350" lon="10.4862670">
	<ele>2421.20</ele>
	<time>2023-08-06T08:37:47.000Z</time>
</trkpt>
<trkpt lat="46.0516350" lon="10.4862670">
	<ele>2421.00</ele>
	<time>2023-08-06T08:37:48.000Z</time>
</trkpt>
<trkpt lat="46.0516350" lon="10.4862670">
	<ele>2421.00</ele>
	<time>2023-08-06T08:37:49.000Z</time>
</trkpt>
<trkpt lat="46.0516350" lon="10.4862670">
	<ele>2421.00</ele>
	<time>2023-08-06T08:37:50.000Z</time>
</trkpt>
<trkpt lat="46.0516350" lon="10.4862670">
	<ele>2421.00</ele>
	<time>2023-08-06T08:37:51.000Z</time>
</trkpt>
<trkpt lat="46.0516350" lon="10.4862660">
	<ele>2420.80</ele>
	<time>2023-08-06T08:37:52.000Z</time>
</trkpt>
<trkpt lat="46.0516350" lon="10.4862650">
	<ele>2420.80</ele>
	<time>2023-08-06T08:37:53.000Z</time>
</trkpt>
<trkpt lat="46.0516350" lon="10.4862640">
	<ele>2420.80</ele>
	<time>2023-08-06T08:37:54.000Z</time>
</trkpt>
<trkpt lat="46.0516350" lon="10.4862640">
	<ele>2420.60</ele>
	<time>2023-08-06T08:37:55.000Z</time>
</trkpt>
<trkpt lat="46.0516350" lon="10.4862640">
	<ele>2420.60</ele>
	<time>2023-08-06T08:37:56.000Z</time>
</trkpt>
<trkpt lat="46.0516360" lon="10.4862640">
	<ele>2420.40</ele>
	<time>2023-08-06T08:37:57.000Z</time>
</trkpt>
<trkpt lat="46.0516360" lon="10.4862640">
	<ele>2420.60</ele>
	<time>2023-08-06T08:37:58.000Z</time>
</trkpt>
<trkpt lat="46.0516360" lon="10.4862640">
	<ele>2420.60</ele>
	<time>2023-08-06T08:37:59.000Z</time>
</trkpt>
<trkpt lat="46.0516360" lon="10.4862640">
	<ele>2420.60</ele>
	<time>2023-08-06T08:38:00.000Z</time>
</trkpt>
<trkpt lat="46.0516360" lon="10.4862630">
	<ele>2420.60</ele>
	<time>2023-08-06T08:38:01.000Z</time>
</trkpt>
<trkpt lat="46.0516360" lon="10.4862630">
	<ele>2420.60</ele>
	<time>2023-08-06T08:38:02.000Z</time>
</trkpt>
<trkpt lat="46.0516370" lon="10.4862630">
	<ele>2420.60</ele>
	<time>2023-08-06T08:38:03.000Z</time>
</trkpt>
<trkpt lat="46.0516370" lon="10.4862630">
	<ele>2420.60</ele>
	<time>2023-08-06T08:38:04.000Z</time>
</trkpt>
<trkpt lat="46.0516380" lon="10.4862630">
	<ele>2420.60</ele>
	<time>2023-08-06T08:38:05.000Z</time>
</trkpt>
<trkpt lat="46.0516380" lon="10.4862630">
	<ele>2420.60</ele>
	<time>2023-08-06T08:38:06.000Z</time>
</trkpt>
<trkpt lat="46.0516380" lon="10.4862630">
	<ele>2420.60</ele>
	<time>2023-08-06T08:38:07.000Z</time>
</trkpt>
<trkpt lat="46.0516380" lon="10.4862630">
	<ele>2420.60</ele>
	<time>2023-08-06T08:38:08.000Z</time>
</trkpt>
<trkpt lat="46.0516380" lon="10.4862630">
	<ele>2420.60</ele>
	<time>2023-08-06T08:38:09.000Z</time>
</trkpt>
<trkpt lat="46.0516400" lon="10.4862630">
	<ele>2420.60</ele>
	<time>2023-08-06T08:38:10.000Z</time>
</trkpt>
<trkpt lat="46.0516400" lon="10.4862630">
	<ele>2420.60</ele>
	<time>2023-08-06T08:38:11.000Z</time>
</trkpt>
<trkpt lat="46.0516410" lon="10.4862630">
	<ele>2420.60</ele>
	<time>2023-08-06T08:38:12.000Z</time>
</trkpt>
<trkpt lat="46.0516410" lon="10.4862630">
	<ele>2420.80</ele>
	<time>2023-08-06T08:38:13.000Z</time>
</trkpt>
<trkpt lat="46.0516410" lon="10.4862630">
	<ele>2420.80</ele>
	<time>2023-08-06T08:38:14.000Z</time>
</trkpt>
<trkpt lat="46.0516410" lon="10.4862620">
	<ele>2420.80</ele>
	<time>2023-08-06T08:38:15.000Z</time>
</trkpt>
<trkpt lat="46.0516420" lon="10.4862610">
	<ele>2420.80</ele>
	<time>2023-08-06T08:38:16.000Z</time>
</trkpt>
<trkpt lat="46.0516420" lon="10.4862600">
	<ele>2420.60</ele>
	<time>2023-08-06T08:38:17.000Z</time>
</trkpt>
<trkpt lat="46.0516420" lon="10.4862600">
	<ele>2420.60</ele>
	<time>2023-08-06T08:38:18.000Z</time>
</trkpt>
<trkpt lat="46.0516430" lon="10.4862600">
	<ele>2420.40</ele>
	<time>2023-08-06T08:38:19.000Z</time>
</trkpt>
<trkpt lat="46.0516430" lon="10.4862600">
	<ele>2420.40</ele>
	<time>2023-08-06T08:38:20.000Z</time>
</trkpt>
<trkpt lat="46.0516440" lon="10.4862600">
	<ele>2420.20</ele>
	<time>2023-08-06T08:38:21.000Z</time>
</trkpt>
<trkpt lat="46.0516440" lon="10.4862600">
	<ele>2420.20</ele>
	<time>2023-08-06T08:38:22.000Z</time>
</trkpt>
<trkpt lat="46.0516440" lon="10.4862590">
	<ele>2420.20</ele>
	<time>2023-08-06T08:38:23.000Z</time>
</trkpt>
<trkpt lat="46.0516440" lon="10.4862590">
	<ele>2420.00</ele>
	<time>2023-08-06T08:38:24.000Z</time>
</trkpt>
<trkpt lat="46.0516440" lon="10.4862590">
	<ele>2420.00</ele>
	<time>2023-08-06T08:38:25.000Z</time>
</trkpt>
<trkpt lat="46.0516440" lon="10.4862590">
	<ele>2420.00</ele>
	<time>2023-08-06T08:38:26.000Z</time>
</trkpt>
<trkpt lat="46.0516440" lon="10.4862580">
	<ele>2420.00</ele>
	<time>2023-08-06T08:38:27.000Z</time>
</trkpt>
<trkpt lat="46.0516440" lon="10.4862570">
	<ele>2420.00</ele>
	<time>2023-08-06T08:38:28.000Z</time>
</trkpt>
<trkpt lat="46.0516440" lon="10.4862570">
	<ele>2420.00</ele>
	<time>2023-08-06T08:38:29.000Z</time>
</trkpt>
<trkpt lat="46.0516440" lon="10.4862570">
	<ele>2420.00</ele>
	<time>2023-08-06T08:38:30.000Z</time>
</trkpt>
<trkpt lat="46.0516440" lon="10.4862560">
	<ele>2420.20</ele>
	<time>2023-08-06T08:38:31.000Z</time>
</trkpt>
<trkpt lat="46.0516440" lon="10.4862550">
	<ele>2420.20</ele>
	<time>2023-08-06T08:38:32.000Z</time>
</trkpt>
<trkpt lat="46.0516440" lon="10.4862550">
	<ele>2420.20</ele>
	<time>2023-08-06T08:38:33.000Z</time>
</trkpt>
<trkpt lat="46.0516440" lon="10.4862540">
	<ele>2420.20</ele>
	<time>2023-08-06T08:38:34.000Z</time>
</trkpt>
<trkpt lat="46.0516440" lon="10.4862530">
	<ele>2420.20</ele>
	<time>2023-08-06T08:38:35.000Z</time>
</trkpt>
<trkpt lat="46.0516440" lon="10.4862520">
	<ele>2420.20</ele>
	<time>2023-08-06T08:38:36.000Z</time>
</trkpt>
<trkpt lat="46.0516430" lon="10.4862510">
	<ele>2420.20</ele>
	<time>2023-08-06T08:38:37.000Z</time>
</trkpt>
<trkpt lat="46.0516410" lon="10.4862510">
	<ele>2420.20</ele>
	<time>2023-08-06T08:38:38.000Z</time>
</trkpt>
<trkpt lat="46.0516380" lon="10.4862500">
	<ele>2420.00</ele>
	<time>2023-08-06T08:38:39.000Z</time>
</trkpt>
<trkpt lat="46.0516360" lon="10.4862500">
	<ele>2420.00</ele>
	<time>2023-08-06T08:38:40.000Z</time>
</trkpt>
<trkpt lat="46.0516340" lon="10.4862490">
	<ele>2420.00</ele>
	<time>2023-08-06T08:38:41.000Z</time>
</trkpt>
<trkpt lat="46.0516320" lon="10.4862490">
	<ele>2419.80</ele>
	<time>2023-08-06T08:38:42.000Z</time>
</trkpt>
<trkpt lat="46.0516310" lon="10.4862490">
	<ele>2419.60</ele>
	<time>2023-08-06T08:38:43.000Z</time>
</trkpt>
<trkpt lat="46.0516300" lon="10.4862490">
	<ele>2419.40</ele>
	<time>2023-08-06T08:38:44.000Z</time>
</trkpt>
<trkpt lat="46.0516290" lon="10.4862490">
	<ele>2419.40</ele>
	<time>2023-08-06T08:38:45.000Z</time>
</trkpt>
<trkpt lat="46.0516280" lon="10.4862490">
	<ele>2419.40</ele>
	<time>2023-08-06T08:38:46.000Z</time>
</trkpt>
<trkpt lat="46.0516280" lon="10.4862490">
	<ele>2419.60</ele>
	<time>2023-08-06T08:38:47.000Z</time>
</trkpt>
<trkpt lat="46.0516280" lon="10.4862480">
	<ele>2419.80</ele>
	<time>2023-08-06T08:38:48.000Z</time>
</trkpt>
<trkpt lat="46.0516270" lon="10.4862480">
	<ele>2419.80</ele>
	<time>2023-08-06T08:38:49.000Z</time>
</trkpt>
<trkpt lat="46.0516270" lon="10.4862480">
	<ele>2419.80</ele>
	<time>2023-08-06T08:38:50.000Z</time>
</trkpt>
<trkpt lat="46.0516290" lon="10.4862490">
	<ele>2419.80</ele>
	<time>2023-08-06T08:38:51.000Z</time>
</trkpt>
<trkpt lat="46.0516380" lon="10.4862520">
	<ele>2420.00</ele>
	<time>2023-08-06T08:38:52.000Z</time>
</trkpt>
<trkpt lat="46.0516440" lon="10.4862540">
	<ele>2420.00</ele>
	<time>2023-08-06T08:38:53.000Z</time>
</trkpt>
<trkpt lat="46.0516480" lon="10.4862550">
	<ele>2419.80</ele>
	<time>2023-08-06T08:38:54.000Z</time>
</trkpt>
<trkpt lat="46.0516520" lon="10.4862570">
	<ele>2419.80</ele>
	<time>2023-08-06T08:38:55.000Z</time>
</trkpt>
<trkpt lat="46.0516530" lon="10.4862590">
	<ele>2419.80</ele>
	<time>2023-08-06T08:38:56.000Z</time>
</trkpt>
<trkpt lat="46.0516540" lon="10.4862600">
	<ele>2419.80</ele>
	<time>2023-08-06T08:38:57.000Z</time>
</trkpt>
<trkpt lat="46.0516540" lon="10.4862600">
	<ele>2419.80</ele>
	<time>2023-08-06T08:38:58.000Z</time>
</trkpt>
<trkpt lat="46.0516540" lon="10.4862600">
	<ele>2419.60</ele>
	<time>2023-08-06T08:38:59.000Z</time>
</trkpt>
<trkpt lat="46.0516540" lon="10.4862600">
	<ele>2419.60</ele>
	<time>2023-08-06T08:39:00.000Z</time>
</trkpt>
<trkpt lat="46.0516540" lon="10.4862600">
	<ele>2419.60</ele>
	<time>2023-08-06T08:39:01.000Z</time>
</trkpt>
<trkpt lat="46.0516540" lon="10.4862600">
	<ele>2419.60</ele>
	<time>2023-08-06T08:39:02.000Z</time>
</trkpt>
<trkpt lat="46.0516540" lon="10.4862600">
	<ele>2419.60</ele>
	<time>2023-08-06T08:39:03.000Z</time>
</trkpt>
<trkpt lat="46.0516540" lon="10.4862600">
	<ele>2419.60</ele>
	<time>2023-08-06T08:39:04.000Z</time>
</trkpt>
<trkpt lat="46.0516540" lon="10.4862600">
	<ele>2419.60</ele>
	<time>2023-08-06T08:39:05.000Z</time>
</trkpt>
<trkpt lat="46.0516540" lon="10.4862600">
	<ele>2419.60</ele>
	<time>2023-08-06T08:39:06.000Z</time>
</trkpt>
<trkpt lat="46.0516540" lon="10.4862600">
	<ele>2419.60</ele>
	<time>2023-08-06T08:39:07.000Z</time>
</trkpt>
<trkpt lat="46.0516550" lon="10.4862600">
	<ele>2419.40</ele>
	<time>2023-08-06T08:39:08.000Z</time>
</trkpt>
<trkpt lat="46.0516550" lon="10.4862600">
	<ele>2419.40</ele>
	<time>2023-08-06T08:39:09.000Z</time>
</trkpt>
<trkpt lat="46.0516560" lon="10.4862610">
	<ele>2419.40</ele>
	<time>2023-08-06T08:39:10.000Z</time>
</trkpt>
<trkpt lat="46.0516560" lon="10.4862620">
	<ele>2419.40</ele>
	<time>2023-08-06T08:39:11.000Z</time>
</trkpt>
<trkpt lat="46.0516560" lon="10.4862630">
	<ele>2419.40</ele>
	<time>2023-08-06T08:39:12.000Z</time>
</trkpt>
<trkpt lat="46.0516560" lon="10.4862640">
	<ele>2419.40</ele>
	<time>2023-08-06T08:39:13.000Z</time>
</trkpt>
<trkpt lat="46.0516560" lon="10.4862650">
	<ele>2419.40</ele>
	<time>2023-08-06T08:39:14.000Z</time>
</trkpt>
<trkpt lat="46.0516560" lon="10.4862650">
	<ele>2419.40</ele>
	<time>2023-08-06T08:39:15.000Z</time>
</trkpt>
<trkpt lat="46.0516560" lon="10.4862660">
	<ele>2419.40</ele>
	<time>2023-08-06T08:39:16.000Z</time>
</trkpt>
<trkpt lat="46.0516560" lon="10.4862660">
	<ele>2419.40</ele>
	<time>2023-08-06T08:39:17.000Z</time>
</trkpt>
<trkpt lat="46.0516560" lon="10.4862670">
	<ele>2419.40</ele>
	<time>2023-08-06T08:39:18.000Z</time>
</trkpt>
<trkpt lat="46.0516560" lon="10.4862670">
	<ele>2419.40</ele>
	<time>2023-08-06T08:39:19.000Z</time>
</trkpt>
<trkpt lat="46.0516560" lon="10.4862670">
	<ele>2419.40</ele>
	<time>2023-08-06T08:39:20.000Z</time>
</trkpt>
<trkpt lat="46.0516560" lon="10.4862680">
	<ele>2419.40</ele>
	<time>2023-08-06T08:39:21.000Z</time>
</trkpt>
<trkpt lat="46.0516560" lon="10.4862680">
	<ele>2419.40</ele>
	<time>2023-08-06T08:39:22.000Z</time>
</trkpt>
<trkpt lat="46.0516560" lon="10.4862680">
	<ele>2419.40</ele>
	<time>2023-08-06T08:39:23.000Z</time>
</trkpt>
<trkpt lat="46.0516560" lon="10.4862680">
	<ele>2419.20</ele>
	<time>2023-08-06T08:39:24.000Z</time>
</trkpt>
<trkpt lat="46.0516560" lon="10.4862680">
	<ele>2419.20</ele>
	<time>2023-08-06T08:39:25.000Z</time>
</trkpt>
<trkpt lat="46.0516550" lon="10.4862690">
	<ele>2419.00</ele>
	<time>2023-08-06T08:39:26.000Z</time>
</trkpt>
<trkpt lat="46.0516550" lon="10.4862690">
	<ele>2419.20</ele>
	<time>2023-08-06T08:39:27.000Z</time>
</trkpt>
<trkpt lat="46.0516550" lon="10.4862700">
	<ele>2419.20</ele>
	<time>2023-08-06T08:39:28.000Z</time>
</trkpt>
<trkpt lat="46.0516540" lon="10.4862710">
	<ele>2419.20</ele>
	<time>2023-08-06T08:39:29.000Z</time>
</trkpt>
<trkpt lat="46.0516540" lon="10.4862710">
	<ele>2419.20</ele>
	<time>2023-08-06T08:39:30.000Z</time>
</trkpt>
<trkpt lat="46.0516530" lon="10.4862710">
	<ele>2419.20</ele>
	<time>2023-08-06T08:39:31.000Z</time>
</trkpt>
<trkpt lat="46.0516520" lon="10.4862710">
	<ele>2419.20</ele>
	<time>2023-08-06T08:39:32.000Z</time>
</trkpt>
<trkpt lat="46.0516520" lon="10.4862710">
	<ele>2419.20</ele>
	<time>2023-08-06T08:39:33.000Z</time>
</trkpt>
<trkpt lat="46.0516520" lon="10.4862710">
	<ele>2419.20</ele>
	<time>2023-08-06T08:39:34.000Z</time>
</trkpt>
<trkpt lat="46.0516510" lon="10.4862710">
	<ele>2419.20</ele>
	<time>2023-08-06T08:39:35.000Z</time>
</trkpt>
<trkpt lat="46.0516510" lon="10.4862710">
	<ele>2419.00</ele>
	<time>2023-08-06T08:39:36.000Z</time>
</trkpt>
<trkpt lat="46.0516500" lon="10.4862710">
	<ele>2419.00</ele>
	<time>2023-08-06T08:39:37.000Z</time>
</trkpt>
<trkpt lat="46.0516500" lon="10.4862710">
	<ele>2419.00</ele>
	<time>2023-08-06T08:39:38.000Z</time>
</trkpt>
<trkpt lat="46.0516500" lon="10.4862710">
	<ele>2418.80</ele>
	<time>2023-08-06T08:39:39.000Z</time>
</trkpt>
<trkpt lat="46.0516500" lon="10.4862710">
	<ele>2418.80</ele>
	<time>2023-08-06T08:39:40.000Z</time>
</trkpt>
<trkpt lat="46.0516500" lon="10.4862710">
	<ele>2418.80</ele>
	<time>2023-08-06T08:39:41.000Z</time>
</trkpt>
<trkpt lat="46.0516500" lon="10.4862710">
	<ele>2418.80</ele>
	<time>2023-08-06T08:39:42.000Z</time>
</trkpt>
<trkpt lat="46.0516500" lon="10.4862700">
	<ele>2418.80</ele>
	<time>2023-08-06T08:39:43.000Z</time>
</trkpt>
<trkpt lat="46.0516490" lon="10.4862700">
	<ele>2418.60</ele>
	<time>2023-08-06T08:39:44.000Z</time>
</trkpt>
<trkpt lat="46.0516480" lon="10.4862700">
	<ele>2418.80</ele>
	<time>2023-08-06T08:39:45.000Z</time>
</trkpt>
<trkpt lat="46.0516480" lon="10.4862700">
	<ele>2418.80</ele>
	<time>2023-08-06T08:39:46.000Z</time>
</trkpt>
<trkpt lat="46.0516470" lon="10.4862700">
	<ele>2418.80</ele>
	<time>2023-08-06T08:39:47.000Z</time>
</trkpt>
<trkpt lat="46.0516470" lon="10.4862700">
	<ele>2418.80</ele>
	<time>2023-08-06T08:39:48.000Z</time>
</trkpt>
<trkpt lat="46.0516460" lon="10.4862700">
	<ele>2418.80</ele>
	<time>2023-08-06T08:39:49.000Z</time>
</trkpt>
<trkpt lat="46.0516460" lon="10.4862700">
	<ele>2418.80</ele>
	<time>2023-08-06T08:39:50.000Z</time>
</trkpt>
<trkpt lat="46.0516460" lon="10.4862700">
	<ele>2418.80</ele>
	<time>2023-08-06T08:39:51.000Z</time>
</trkpt>
<trkpt lat="46.0516460" lon="10.4862700">
	<ele>2418.80</ele>
	<time>2023-08-06T08:39:52.000Z</time>
</trkpt>
<trkpt lat="46.0516450" lon="10.4862700">
	<ele>2418.80</ele>
	<time>2023-08-06T08:39:53.000Z</time>
</trkpt>
<trkpt lat="46.0516450" lon="10.4862700">
	<ele>2418.80</ele>
	<time>2023-08-06T08:39:54.000Z</time>
</trkpt>
<trkpt lat="46.0516450" lon="10.4862700">
	<ele>2418.80</ele>
	<time>2023-08-06T08:39:55.000Z</time>
</trkpt>
<trkpt lat="46.0516450" lon="10.4862700">
	<ele>2418.60</ele>
	<time>2023-08-06T08:39:56.000Z</time>
</trkpt>
<trkpt lat="46.0516450" lon="10.4862700">
	<ele>2418.60</ele>
	<time>2023-08-06T08:39:57.000Z</time>
</trkpt>
<trkpt lat="46.0516450" lon="10.4862700">
	<ele>2418.60</ele>
	<time>2023-08-06T08:39:58.000Z</time>
</trkpt>
<trkpt lat="46.0516450" lon="10.4862700">
	<ele>2418.60</ele>
	<time>2023-08-06T08:39:59.000Z</time>
</trkpt>
<trkpt lat="46.0516450" lon="10.4862690">
	<ele>2418.60</ele>
	<time>2023-08-06T08:40:00.000Z</time>
</trkpt>
<trkpt lat="46.0516450" lon="10.4862690">
	<ele>2418.60</ele>
	<time>2023-08-06T08:40:01.000Z</time>
</trkpt>
<trkpt lat="46.0516440" lon="10.4862680">
	<ele>2418.60</ele>
	<time>2023-08-06T08:40:02.000Z</time>
</trkpt>
<trkpt lat="46.0516440" lon="10.4862680">
	<ele>2418.60</ele>
	<time>2023-08-06T08:40:03.000Z</time>
</trkpt>
<trkpt lat="46.0516440" lon="10.4862670">
	<ele>2418.60</ele>
	<time>2023-08-06T08:40:04.000Z</time>
</trkpt>
<trkpt lat="46.0516440" lon="10.4862670">
	<ele>2418.80</ele>
	<time>2023-08-06T08:40:05.000Z</time>
</trkpt>
<trkpt lat="46.0516440" lon="10.4862670">
	<ele>2418.80</ele>
	<time>2023-08-06T08:40:06.000Z</time>
</trkpt>
<trkpt lat="46.0516440" lon="10.4862670">
	<ele>2418.80</ele>
	<time>2023-08-06T08:40:07.000Z</time>
</trkpt>
<trkpt lat="46.0516440" lon="10.4862670">
	<ele>2419.00</ele>
	<time>2023-08-06T08:40:08.000Z</time>
</trkpt>
<trkpt lat="46.0516440" lon="10.4862670">
	<ele>2419.00</ele>
	<time>2023-08-06T08:40:09.000Z</time>
</trkpt>
<trkpt lat="46.0516440" lon="10.4862670">
	<ele>2419.00</ele>
	<time>2023-08-06T08:40:10.000Z</time>
</trkpt>
<trkpt lat="46.0516440" lon="10.4862660">
	<ele>2419.00</ele>
	<time>2023-08-06T08:40:11.000Z</time>
</trkpt>
<trkpt lat="46.0516430" lon="10.4862660">
	<ele>2418.80</ele>
	<time>2023-08-06T08:40:12.000Z</time>
</trkpt>
<trkpt lat="46.0516430" lon="10.4862650">
	<ele>2418.60</ele>
	<time>2023-08-06T08:40:13.000Z</time>
</trkpt>
<trkpt lat="46.0516430" lon="10.4862630">
	<ele>2418.60</ele>
	<time>2023-08-06T08:40:14.000Z</time>
</trkpt>
<trkpt lat="46.0516430" lon="10.4862620">
	<ele>2418.40</ele>
	<time>2023-08-06T08:40:15.000Z</time>
</trkpt>
<trkpt lat="46.0516430" lon="10.4862620">
	<ele>2418.20</ele>
	<time>2023-08-06T08:40:16.000Z</time>
</trkpt>
<trkpt lat="46.0516430" lon="10.4862620">
	<ele>2418.20</ele>
	<time>2023-08-06T08:40:17.000Z</time>
</trkpt>
<trkpt lat="46.0516430" lon="10.4862610">
	<ele>2418.00</ele>
	<time>2023-08-06T08:40:18.000Z</time>
</trkpt>
<trkpt lat="46.0516430" lon="10.4862600">
	<ele>2418.00</ele>
	<time>2023-08-06T08:40:19.000Z</time>
</trkpt>
<trkpt lat="46.0516430" lon="10.4862590">
	<ele>2418.00</ele>
	<time>2023-08-06T08:40:20.000Z</time>
</trkpt>
<trkpt lat="46.0516430" lon="10.4862580">
	<ele>2417.80</ele>
	<time>2023-08-06T08:40:21.000Z</time>
</trkpt>
<trkpt lat="46.0516430" lon="10.4862570">
	<ele>2417.80</ele>
	<time>2023-08-06T08:40:22.000Z</time>
</trkpt>
<trkpt lat="46.0516430" lon="10.4862560">
	<ele>2417.60</ele>
	<time>2023-08-06T08:40:23.000Z</time>
</trkpt>
<trkpt lat="46.0516430" lon="10.4862550">
	<ele>2417.60</ele>
	<time>2023-08-06T08:40:24.000Z</time>
</trkpt>
<trkpt lat="46.0516430" lon="10.4862540">
	<ele>2417.40</ele>
	<time>2023-08-06T08:40:25.000Z</time>
</trkpt>
<trkpt lat="46.0516430" lon="10.4862540">
	<ele>2417.40</ele>
	<time>2023-08-06T08:40:26.000Z</time>
</trkpt>
<trkpt lat="46.0516430" lon="10.4862540">
	<ele>2417.20</ele>
	<time>2023-08-06T08:40:27.000Z</time>
</trkpt>
<trkpt lat="46.0516430" lon="10.4862540">
	<ele>2417.20</ele>
	<time>2023-08-06T08:40:28.000Z</time>
</trkpt>
<trkpt lat="46.0516430" lon="10.4862540">
	<ele>2417.20</ele>
	<time>2023-08-06T08:40:29.000Z</time>
</trkpt>
<trkpt lat="46.0516430" lon="10.4862530">
	<ele>2417.20</ele>
	<time>2023-08-06T08:40:30.000Z</time>
</trkpt>
<trkpt lat="46.0516430" lon="10.4862530">
	<ele>2417.20</ele>
	<time>2023-08-06T08:40:31.000Z</time>
</trkpt>
<trkpt lat="46.0516430" lon="10.4862530">
	<ele>2417.20</ele>
	<time>2023-08-06T08:40:32.000Z</time>
</trkpt>
<trkpt lat="46.0516440" lon="10.4862530">
	<ele>2417.20</ele>
	<time>2023-08-06T08:40:33.000Z</time>
</trkpt>
<trkpt lat="46.0516440" lon="10.4862530">
	<ele>2417.20</ele>
	<time>2023-08-06T08:40:34.000Z</time>
</trkpt>
<trkpt lat="46.0516440" lon="10.4862530">
	<ele>2417.20</ele>
	<time>2023-08-06T08:40:35.000Z</time>
</trkpt>
<trkpt lat="46.0516440" lon="10.4862530">
	<ele>2417.20</ele>
	<time>2023-08-06T08:40:36.000Z</time>
</trkpt>
<trkpt lat="46.0516440" lon="10.4862530">
	<ele>2417.20</ele>
	<time>2023-08-06T08:40:37.000Z</time>
</trkpt>
<trkpt lat="46.0516450" lon="10.4862530">
	<ele>2417.20</ele>
	<time>2023-08-06T08:40:38.000Z</time>
</trkpt>
<trkpt lat="46.0516450" lon="10.4862540">
	<ele>2417.00</ele>
	<time>2023-08-06T08:40:39.000Z</time>
</trkpt>
<trkpt lat="46.0516470" lon="10.4862540">
	<ele>2417.00</ele>
	<time>2023-08-06T08:40:40.000Z</time>
</trkpt>
<trkpt lat="46.0516480" lon="10.4862570">
	<ele>2417.00</ele>
	<time>2023-08-06T08:40:41.000Z</time>
</trkpt>
<trkpt lat="46.0516500" lon="10.4862600">
	<ele>2417.00</ele>
	<time>2023-08-06T08:40:42.000Z</time>
</trkpt>
<trkpt lat="46.0516520" lon="10.4862620">
	<ele>2417.00</ele>
	<time>2023-08-06T08:40:43.000Z</time>
</trkpt>
<trkpt lat="46.0516530" lon="10.4862630">
	<ele>2417.00</ele>
	<time>2023-08-06T08:40:44.000Z</time>
</trkpt>
<trkpt lat="46.0516550" lon="10.4862640">
	<ele>2417.00</ele>
	<time>2023-08-06T08:40:45.000Z</time>
</trkpt>
<trkpt lat="46.0516560" lon="10.4862650">
	<ele>2417.00</ele>
	<time>2023-08-06T08:40:46.000Z</time>
</trkpt>
<trkpt lat="46.0516580" lon="10.4862660">
	<ele>2417.20</ele>
	<time>2023-08-06T08:40:47.000Z</time>
</trkpt>
<trkpt lat="46.0516590" lon="10.4862670">
	<ele>2417.20</ele>
	<time>2023-08-06T08:40:48.000Z</time>
</trkpt>
<trkpt lat="46.0516590" lon="10.4862670">
	<ele>2417.20</ele>
	<time>2023-08-06T08:40:49.000Z</time>
</trkpt>
<trkpt lat="46.0516600" lon="10.4862680">
	<ele>2417.20</ele>
	<time>2023-08-06T08:40:50.000Z</time>
</trkpt>
<trkpt lat="46.0516610" lon="10.4862680">
	<ele>2417.20</ele>
	<time>2023-08-06T08:40:51.000Z</time>
</trkpt>
<trkpt lat="46.0516620" lon="10.4862690">
	<ele>2417.40</ele>
	<time>2023-08-06T08:40:52.000Z</time>
</trkpt>
<trkpt lat="46.0516630" lon="10.4862690">
	<ele>2417.40</ele>
	<time>2023-08-06T08:40:53.000Z</time>
</trkpt>
<trkpt lat="46.0516640" lon="10.4862690">
	<ele>2417.40</ele>
	<time>2023-08-06T08:40:54.000Z</time>
</trkpt>
<trkpt lat="46.0516640" lon="10.4862700">
	<ele>2417.40</ele>
	<time>2023-08-06T08:40:55.000Z</time>
</trkpt>
<trkpt lat="46.0516650" lon="10.4862700">
	<ele>2417.40</ele>
	<time>2023-08-06T08:40:56.000Z</time>
</trkpt>
<trkpt lat="46.0516660" lon="10.4862700">
	<ele>2417.40</ele>
	<time>2023-08-06T08:40:57.000Z</time>
</trkpt>
<trkpt lat="46.0516660" lon="10.4862710">
	<ele>2417.40</ele>
	<time>2023-08-06T08:40:58.000Z</time>
</trkpt>
<trkpt lat="46.0516670" lon="10.4862710">
	<ele>2417.40</ele>
	<time>2023-08-06T08:40:59.000Z</time>
</trkpt>
<trkpt lat="46.0516670" lon="10.4862710">
	<ele>2417.40</ele>
	<time>2023-08-06T08:41:00.000Z</time>
</trkpt>
<trkpt lat="46.0516680" lon="10.4862730">
	<ele>2417.40</ele>
	<time>2023-08-06T08:41:01.000Z</time>
</trkpt>
<trkpt lat="46.0516690" lon="10.4862750">
	<ele>2417.20</ele>
	<time>2023-08-06T08:41:02.000Z</time>
</trkpt>
<trkpt lat="46.0516700" lon="10.4862760">
	<ele>2417.40</ele>
	<time>2023-08-06T08:41:03.000Z</time>
</trkpt>
<trkpt lat="46.0516710" lon="10.4862770">
	<ele>2417.40</ele>
	<time>2023-08-06T08:41:04.000Z</time>
</trkpt>
<trkpt lat="46.0516710" lon="10.4862780">
	<ele>2417.40</ele>
	<time>2023-08-06T08:41:05.000Z</time>
</trkpt>
<trkpt lat="46.0516720" lon="10.4862780">
	<ele>2417.40</ele>
	<time>2023-08-06T08:41:06.000Z</time>
</trkpt>
<trkpt lat="46.0516720" lon="10.4862790">
	<ele>2417.40</ele>
	<time>2023-08-06T08:41:07.000Z</time>
</trkpt>
<trkpt lat="46.0516720" lon="10.4862790">
	<ele>2417.40</ele>
	<time>2023-08-06T08:41:08.000Z</time>
</trkpt>
<trkpt lat="46.0516720" lon="10.4862790">
	<ele>2417.40</ele>
	<time>2023-08-06T08:41:09.000Z</time>
</trkpt>
<trkpt lat="46.0516720" lon="10.4862790">
	<ele>2417.40</ele>
	<time>2023-08-06T08:41:10.000Z</time>
</trkpt>
<trkpt lat="46.0516720" lon="10.4862790">
	<ele>2417.40</ele>
	<time>2023-08-06T08:41:11.000Z</time>
</trkpt>
<trkpt lat="46.0516720" lon="10.4862790">
	<ele>2417.40</ele>
	<time>2023-08-06T08:41:12.000Z</time>
</trkpt>
<trkpt lat="46.0516720" lon="10.4862790">
	<ele>2417.40</ele>
	<time>2023-08-06T08:41:13.000Z</time>
</trkpt>
<trkpt lat="46.0516720" lon="10.4862790">
	<ele>2417.40</ele>
	<time>2023-08-06T08:41:14.000Z</time>
</trkpt>
<trkpt lat="46.0516730" lon="10.4862790">
	<ele>2417.40</ele>
	<time>2023-08-06T08:41:15.000Z</time>
</trkpt>
<trkpt lat="46.0516730" lon="10.4862790">
	<ele>2417.40</ele>
	<time>2023-08-06T08:41:16.000Z</time>
</trkpt>
<trkpt lat="46.0516730" lon="10.4862790">
	<ele>2417.20</ele>
	<time>2023-08-06T08:41:17.000Z</time>
</trkpt>
<trkpt lat="46.0516730" lon="10.4862790">
	<ele>2417.20</ele>
	<time>2023-08-06T08:41:18.000Z</time>
</trkpt>
<trkpt lat="46.0516730" lon="10.4862790">
	<ele>2417.20</ele>
	<time>2023-08-06T08:41:19.000Z</time>
</trkpt>
<trkpt lat="46.0516720" lon="10.4862790">
	<ele>2417.00</ele>
	<time>2023-08-06T08:41:20.000Z</time>
</trkpt>
<trkpt lat="46.0516720" lon="10.4862790">
	<ele>2417.00</ele>
	<time>2023-08-06T08:41:21.000Z</time>
</trkpt>
<trkpt lat="46.0516720" lon="10.4862790">
	<ele>2417.00</ele>
	<time>2023-08-06T08:41:22.000Z</time>
</trkpt>
<trkpt lat="46.0516720" lon="10.4862790">
	<ele>2417.00</ele>
	<time>2023-08-06T08:41:23.000Z</time>
</trkpt>
<trkpt lat="46.0516720" lon="10.4862790">
	<ele>2417.00</ele>
	<time>2023-08-06T08:41:24.000Z</time>
</trkpt>
<trkpt lat="46.0516720" lon="10.4862790">
	<ele>2416.80</ele>
	<time>2023-08-06T08:41:25.000Z</time>
</trkpt>
<trkpt lat="46.0516710" lon="10.4862790">
	<ele>2417.00</ele>
	<time>2023-08-06T08:41:26.000Z</time>
</trkpt>
<trkpt lat="46.0516710" lon="10.4862790">
	<ele>2416.80</ele>
	<time>2023-08-06T08:41:27.000Z</time>
</trkpt>
<trkpt lat="46.0516710" lon="10.4862790">
	<ele>2416.80</ele>
	<time>2023-08-06T08:41:28.000Z</time>
</trkpt>
<trkpt lat="46.0516710" lon="10.4862790">
	<ele>2416.60</ele>
	<time>2023-08-06T08:41:29.000Z</time>
</trkpt>
<trkpt lat="46.0516700" lon="10.4862790">
	<ele>2416.60</ele>
	<time>2023-08-06T08:41:30.000Z</time>
</trkpt>
<trkpt lat="46.0516700" lon="10.4862790">
	<ele>2416.60</ele>
	<time>2023-08-06T08:41:31.000Z</time>
</trkpt>
<trkpt lat="46.0516700" lon="10.4862790">
	<ele>2416.60</ele>
	<time>2023-08-06T08:41:32.000Z</time>
</trkpt>
<trkpt lat="46.0516690" lon="10.4862790">
	<ele>2416.60</ele>
	<time>2023-08-06T08:41:33.000Z</time>
</trkpt>
<trkpt lat="46.0516690" lon="10.4862790">
	<ele>2416.60</ele>
	<time>2023-08-06T08:41:34.000Z</time>
</trkpt>
<trkpt lat="46.0516690" lon="10.4862790">
	<ele>2416.60</ele>
	<time>2023-08-06T08:41:35.000Z</time>
</trkpt>
<trkpt lat="46.0516680" lon="10.4862790">
	<ele>2416.60</ele>
	<time>2023-08-06T08:41:36.000Z</time>
</trkpt>
<trkpt lat="46.0516680" lon="10.4862790">
	<ele>2416.60</ele>
	<time>2023-08-06T08:41:37.000Z</time>
</trkpt>
<trkpt lat="46.0516680" lon="10.4862790">
	<ele>2416.60</ele>
	<time>2023-08-06T08:41:38.000Z</time>
</trkpt>
<trkpt lat="46.0516670" lon="10.4862790">
	<ele>2416.60</ele>
	<time>2023-08-06T08:41:39.000Z</time>
</trkpt>
<trkpt lat="46.0516670" lon="10.4862790">
	<ele>2416.60</ele>
	<time>2023-08-06T08:41:40.000Z</time>
</trkpt>
<trkpt lat="46.0516670" lon="10.4862790">
	<ele>2416.60</ele>
	<time>2023-08-06T08:41:41.000Z</time>
</trkpt>
<trkpt lat="46.0516670" lon="10.4862790">
	<ele>2416.60</ele>
	<time>2023-08-06T08:41:42.000Z</time>
</trkpt>
<trkpt lat="46.0516670" lon="10.4862790">
	<ele>2416.60</ele>
	<time>2023-08-06T08:41:43.000Z</time>
</trkpt>
<trkpt lat="46.0516660" lon="10.4862790">
	<ele>2416.60</ele>
	<time>2023-08-06T08:41:44.000Z</time>
</trkpt>
<trkpt lat="46.0516660" lon="10.4862800">
	<ele>2416.60</ele>
	<time>2023-08-06T08:41:45.000Z</time>
</trkpt>
<trkpt lat="46.0516660" lon="10.4862800">
	<ele>2416.40</ele>
	<time>2023-08-06T08:41:46.000Z</time>
</trkpt>
<trkpt lat="46.0516660" lon="10.4862800">
	<ele>2416.40</ele>
	<time>2023-08-06T08:41:47.000Z</time>
</trkpt>
<trkpt lat="46.0516660" lon="10.4862800">
	<ele>2416.60</ele>
	<time>2023-08-06T08:41:48.000Z</time>
</trkpt>
<trkpt lat="46.0516650" lon="10.4862810">
	<ele>2416.60</ele>
	<time>2023-08-06T08:41:49.000Z</time>
</trkpt>
<trkpt lat="46.0516650" lon="10.4862810">
	<ele>2416.60</ele>
	<time>2023-08-06T08:41:50.000Z</time>
</trkpt>
<trkpt lat="46.0516650" lon="10.4862810">
	<ele>2416.80</ele>
	<time>2023-08-06T08:41:51.000Z</time>
</trkpt>
<trkpt lat="46.0516650" lon="10.4862820">
	<ele>2416.80</ele>
	<time>2023-08-06T08:41:52.000Z</time>
</trkpt>
<trkpt lat="46.0516650" lon="10.4862820">
	<ele>2416.80</ele>
	<time>2023-08-06T08:41:53.000Z</time>
</trkpt>
<trkpt lat="46.0516650" lon="10.4862820">
	<ele>2416.80</ele>
	<time>2023-08-06T08:41:54.000Z</time>
</trkpt>
<trkpt lat="46.0516650" lon="10.4862820">
	<ele>2416.60</ele>
	<time>2023-08-06T08:41:55.000Z</time>
</trkpt>
<trkpt lat="46.0516650" lon="10.4862830">
	<ele>2416.60</ele>
	<time>2023-08-06T08:41:56.000Z</time>
</trkpt>
<trkpt lat="46.0516650" lon="10.4862830">
	<ele>2416.60</ele>
	<time>2023-08-06T08:41:57.000Z</time>
</trkpt>
<trkpt lat="46.0516650" lon="10.4862830">
	<ele>2416.60</ele>
	<time>2023-08-06T08:41:58.000Z</time>
</trkpt>
<trkpt lat="46.0516650" lon="10.4862830">
	<ele>2416.60</ele>
	<time>2023-08-06T08:41:59.000Z</time>
</trkpt>
<trkpt lat="46.0516650" lon="10.4862840">
	<ele>2416.80</ele>
	<time>2023-08-06T08:42:00.000Z</time>
</trkpt>
<trkpt lat="46.0516650" lon="10.4862840">
	<ele>2416.80</ele>
	<time>2023-08-06T08:42:01.000Z</time>
</trkpt>
<trkpt lat="46.0516640" lon="10.4862840">
	<ele>2416.80</ele>
	<time>2023-08-06T08:42:02.000Z</time>
</trkpt>
<trkpt lat="46.0516640" lon="10.4862840">
	<ele>2416.80</ele>
	<time>2023-08-06T08:42:03.000Z</time>
</trkpt>
<trkpt lat="46.0516640" lon="10.4862840">
	<ele>2416.80</ele>
	<time>2023-08-06T08:42:04.000Z</time>
</trkpt>
<trkpt lat="46.0516640" lon="10.4862840">
	<ele>2416.80</ele>
	<time>2023-08-06T08:42:05.000Z</time>
</trkpt>
<trkpt lat="46.0516640" lon="10.4862850">
	<ele>2416.80</ele>
	<time>2023-08-06T08:42:06.000Z</time>
</trkpt>
<trkpt lat="46.0516640" lon="10.4862850">
	<ele>2416.80</ele>
	<time>2023-08-06T08:42:07.000Z</time>
</trkpt>
<trkpt lat="46.0516640" lon="10.4862850">
	<ele>2416.80</ele>
	<time>2023-08-06T08:42:08.000Z</time>
</trkpt>
<trkpt lat="46.0516640" lon="10.4862860">
	<ele>2416.80</ele>
	<time>2023-08-06T08:42:09.000Z</time>
</trkpt>
<trkpt lat="46.0516640" lon="10.4862860">
	<ele>2416.60</ele>
	<time>2023-08-06T08:42:10.000Z</time>
</trkpt>
<trkpt lat="46.0516640" lon="10.4862860">
	<ele>2416.60</ele>
	<time>2023-08-06T08:42:11.000Z</time>
</trkpt>
<trkpt lat="46.0516640" lon="10.4862860">
	<ele>2416.60</ele>
	<time>2023-08-06T08:42:12.000Z</time>
</trkpt>
<trkpt lat="46.0516640" lon="10.4862870">
	<ele>2416.60</ele>
	<time>2023-08-06T08:42:13.000Z</time>
</trkpt>
<trkpt lat="46.0516640" lon="10.4862870">
	<ele>2416.60</ele>
	<time>2023-08-06T08:42:14.000Z</time>
</trkpt>
<trkpt lat="46.0516640" lon="10.4862870">
	<ele>2416.60</ele>
	<time>2023-08-06T08:42:15.000Z</time>
</trkpt>
<trkpt lat="46.0516650" lon="10.4862870">
	<ele>2416.60</ele>
	<time>2023-08-06T08:42:16.000Z</time>
</trkpt>
<trkpt lat="46.0516650" lon="10.4862870">
	<ele>2416.80</ele>
	<time>2023-08-06T08:42:17.000Z</time>
</trkpt>
<trkpt lat="46.0516650" lon="10.4862870">
	<ele>2416.80</ele>
	<time>2023-08-06T08:42:18.000Z</time>
</trkpt>
<trkpt lat="46.0516640" lon="10.4862870">
	<ele>2416.80</ele>
	<time>2023-08-06T08:42:19.000Z</time>
</trkpt>
<trkpt lat="46.0516640" lon="10.4862870">
	<ele>2416.80</ele>
	<time>2023-08-06T08:42:20.000Z</time>
</trkpt>
<trkpt lat="46.0516640" lon="10.4862870">
	<ele>2416.80</ele>
	<time>2023-08-06T08:42:21.000Z</time>
</trkpt>
<trkpt lat="46.0516640" lon="10.4862870">
	<ele>2416.80</ele>
	<time>2023-08-06T08:42:22.000Z</time>
</trkpt>
<trkpt lat="46.0516640" lon="10.4862870">
	<ele>2416.80</ele>
	<time>2023-08-06T08:42:23.000Z</time>
</trkpt>
<trkpt lat="46.0516640" lon="10.4862870">
	<ele>2416.60</ele>
	<time>2023-08-06T08:42:24.000Z</time>
</trkpt>
<trkpt lat="46.0516640" lon="10.4862870">
	<ele>2416.60</ele>
	<time>2023-08-06T08:42:25.000Z</time>
</trkpt>
<trkpt lat="46.0516640" lon="10.4862870">
	<ele>2416.60</ele>
	<time>2023-08-06T08:42:26.000Z</time>
</trkpt>
<trkpt lat="46.0516640" lon="10.4862870">
	<ele>2416.60</ele>
	<time>2023-08-06T08:42:27.000Z</time>
</trkpt>
<trkpt lat="46.0516640" lon="10.4862870">
	<ele>2416.40</ele>
	<time>2023-08-06T08:42:28.000Z</time>
</trkpt>
<trkpt lat="46.0516640" lon="10.4862870">
	<ele>2416.40</ele>
	<time>2023-08-06T08:42:29.000Z</time>
</trkpt>
<trkpt lat="46.0516640" lon="10.4862870">
	<ele>2416.40</ele>
	<time>2023-08-06T08:42:30.000Z</time>
</trkpt>
<trkpt lat="46.0516640" lon="10.4862870">
	<ele>2416.40</ele>
	<time>2023-08-06T08:42:31.000Z</time>
</trkpt>
<trkpt lat="46.0516640" lon="10.4862870">
	<ele>2416.60</ele>
	<time>2023-08-06T08:42:32.000Z</time>
</trkpt>
<trkpt lat="46.0516640" lon="10.4862870">
	<ele>2416.60</ele>
	<time>2023-08-06T08:42:33.000Z</time>
</trkpt>
<trkpt lat="46.0516640" lon="10.4862870">
	<ele>2416.60</ele>
	<time>2023-08-06T08:42:34.000Z</time>
</trkpt>
<trkpt lat="46.0516640" lon="10.4862870">
	<ele>2416.60</ele>
	<time>2023-08-06T08:42:35.000Z</time>
</trkpt>
<trkpt lat="46.0516640" lon="10.4862870">
	<ele>2416.40</ele>
	<time>2023-08-06T08:42:36.000Z</time>
</trkpt>
<trkpt lat="46.0516640" lon="10.4862870">
	<ele>2416.40</ele>
	<time>2023-08-06T08:42:37.000Z</time>
</trkpt>
<trkpt lat="46.0516640" lon="10.4862870">
	<ele>2416.20</ele>
	<time>2023-08-06T08:42:38.000Z</time>
</trkpt>
<trkpt lat="46.0516630" lon="10.4862870">
	<ele>2416.20</ele>
	<time>2023-08-06T08:42:39.000Z</time>
</trkpt>
<trkpt lat="46.0516630" lon="10.4862870">
	<ele>2416.20</ele>
	<time>2023-08-06T08:42:40.000Z</time>
</trkpt>
<trkpt lat="46.0516630" lon="10.4862870">
	<ele>2416.20</ele>
	<time>2023-08-06T08:42:41.000Z</time>
</trkpt>
<trkpt lat="46.0516630" lon="10.4862870">
	<ele>2416.20</ele>
	<time>2023-08-06T08:42:42.000Z</time>
</trkpt>
<trkpt lat="46.0516630" lon="10.4862870">
	<ele>2416.20</ele>
	<time>2023-08-06T08:42:43.000Z</time>
</trkpt>
<trkpt lat="46.0516630" lon="10.4862870">
	<ele>2416.20</ele>
	<time>2023-08-06T08:42:44.000Z</time>
</trkpt>
<trkpt lat="46.0516630" lon="10.4862870">
	<ele>2416.20</ele>
	<time>2023-08-06T08:42:45.000Z</time>
</trkpt>
<trkpt lat="46.0516630" lon="10.4862870">
	<ele>2416.20</ele>
	<time>2023-08-06T08:42:46.000Z</time>
</trkpt>
<trkpt lat="46.0516630" lon="10.4862870">
	<ele>2416.20</ele>
	<time>2023-08-06T08:42:47.000Z</time>
</trkpt>
<trkpt lat="46.0516630" lon="10.4862870">
	<ele>2416.20</ele>
	<time>2023-08-06T08:42:48.000Z</time>
</trkpt>
<trkpt lat="46.0516630" lon="10.4862870">
	<ele>2416.20</ele>
	<time>2023-08-06T08:42:49.000Z</time>
</trkpt>
<trkpt lat="46.0516630" lon="10.4862870">
	<ele>2416.20</ele>
	<time>2023-08-06T08:42:50.000Z</time>
</trkpt>
<trkpt lat="46.0516630" lon="10.4862870">
	<ele>2416.20</ele>
	<time>2023-08-06T08:42:51.000Z</time>
</trkpt>
<trkpt lat="46.0516630" lon="10.4862870">
	<ele>2416.20</ele>
	<time>2023-08-06T08:42:52.000Z</time>
</trkpt>
<trkpt lat="46.0516630" lon="10.4862870">
	<ele>2416.20</ele>
	<time>2023-08-06T08:42:53.000Z</time>
</trkpt>
<trkpt lat="46.0516630" lon="10.4862870">
	<ele>2416.20</ele>
	<time>2023-08-06T08:42:54.000Z</time>
</trkpt>
<trkpt lat="46.0516630" lon="10.4862870">
	<ele>2416.20</ele>
	<time>2023-08-06T08:42:55.000Z</time>
</trkpt>
<trkpt lat="46.0516630" lon="10.4862870">
	<ele>2416.20</ele>
	<time>2023-08-06T08:42:56.000Z</time>
</trkpt>
<trkpt lat="46.0516620" lon="10.4862870">
	<ele>2416.20</ele>
	<time>2023-08-06T08:42:57.000Z</time>
</trkpt>
<trkpt lat="46.0516620" lon="10.4862870">
	<ele>2416.20</ele>
	<time>2023-08-06T08:42:58.000Z</time>
</trkpt>
<trkpt lat="46.0516620" lon="10.4862870">
	<ele>2416.20</ele>
	<time>2023-08-06T08:42:59.000Z</time>
</trkpt>
<trkpt lat="46.0516620" lon="10.4862870">
	<ele>2416.20</ele>
	<time>2023-08-06T08:43:00.000Z</time>
</trkpt>
<trkpt lat="46.0516620" lon="10.4862870">
	<ele>2416.20</ele>
	<time>2023-08-06T08:43:01.000Z</time>
</trkpt>
<trkpt lat="46.0516620" lon="10.4862870">
	<ele>2416.20</ele>
	<time>2023-08-06T08:43:02.000Z</time>
</trkpt>
<trkpt lat="46.0516620" lon="10.4862870">
	<ele>2416.20</ele>
	<time>2023-08-06T08:43:03.000Z</time>
</trkpt>
<trkpt lat="46.0516620" lon="10.4862870">
	<ele>2416.20</ele>
	<time>2023-08-06T08:43:04.000Z</time>
</trkpt>
<trkpt lat="46.0516620" lon="10.4862870">
	<ele>2416.40</ele>
	<time>2023-08-06T08:43:05.000Z</time>
</trkpt>
<trkpt lat="46.0516620" lon="10.4862870">
	<ele>2416.40</ele>
	<time>2023-08-06T08:43:06.000Z</time>
</trkpt>
<trkpt lat="46.0516620" lon="10.4862870">
	<ele>2416.40</ele>
	<time>2023-08-06T08:43:07.000Z</time>
</trkpt>
<trkpt lat="46.0516620" lon="10.4862870">
	<ele>2416.40</ele>
	<time>2023-08-06T08:43:08.000Z</time>
</trkpt>
<trkpt lat="46.0516620" lon="10.4862870">
	<ele>2416.40</ele>
	<time>2023-08-06T08:43:09.000Z</time>
</trkpt>
<trkpt lat="46.0516620" lon="10.4862870">
	<ele>2416.20</ele>
	<time>2023-08-06T08:43:10.000Z</time>
</trkpt>
<trkpt lat="46.0516620" lon="10.4862870">
	<ele>2416.00</ele>
	<time>2023-08-06T08:43:11.000Z</time>
</trkpt>
<trkpt lat="46.0516620" lon="10.4862870">
	<ele>2416.00</ele>
	<time>2023-08-06T08:43:12.000Z</time>
</trkpt>
<trkpt lat="46.0516620" lon="10.4862870">
	<ele>2415.80</ele>
	<time>2023-08-06T08:43:13.000Z</time>
</trkpt>
<trkpt lat="46.0516620" lon="10.4862870">
	<ele>2415.80</ele>
	<time>2023-08-06T08:43:14.000Z</time>
</trkpt>
<trkpt lat="46.0516620" lon="10.4862870">
	<ele>2415.80</ele>
	<time>2023-08-06T08:43:15.000Z</time>
</trkpt>
<trkpt lat="46.0516620" lon="10.4862870">
	<ele>2415.80</ele>
	<time>2023-08-06T08:43:16.000Z</time>
</trkpt>
<trkpt lat="46.0516620" lon="10.4862870">
	<ele>2416.00</ele>
	<time>2023-08-06T08:43:17.000Z</time>
</trkpt>
<trkpt lat="46.0516620" lon="10.4862870">
	<ele>2416.00</ele>
	<time>2023-08-06T08:43:18.000Z</time>
</trkpt>
<trkpt lat="46.0516620" lon="10.4862870">
	<ele>2416.00</ele>
	<time>2023-08-06T08:43:19.000Z</time>
</trkpt>
<trkpt lat="46.0516620" lon="10.4862870">
	<ele>2416.00</ele>
	<time>2023-08-06T08:43:20.000Z</time>
</trkpt>
<trkpt lat="46.0516610" lon="10.4862870">
	<ele>2416.00</ele>
	<time>2023-08-06T08:43:21.000Z</time>
</trkpt>
<trkpt lat="46.0516610" lon="10.4862870">
	<ele>2416.00</ele>
	<time>2023-08-06T08:43:22.000Z</time>
</trkpt>
<trkpt lat="46.0516610" lon="10.4862870">
	<ele>2416.00</ele>
	<time>2023-08-06T08:43:23.000Z</time>
</trkpt>
<trkpt lat="46.0516610" lon="10.4862870">
	<ele>2415.80</ele>
	<time>2023-08-06T08:43:24.000Z</time>
</trkpt>
<trkpt lat="46.0516610" lon="10.4862870">
	<ele>2415.80</ele>
	<time>2023-08-06T08:43:25.000Z</time>
</trkpt>
<trkpt lat="46.0516610" lon="10.4862870">
	<ele>2415.80</ele>
	<time>2023-08-06T08:43:26.000Z</time>
</trkpt>
<trkpt lat="46.0516610" lon="10.4862870">
	<ele>2415.60</ele>
	<time>2023-08-06T08:43:27.000Z</time>
</trkpt>
<trkpt lat="46.0516610" lon="10.4862870">
	<ele>2415.60</ele>
	<time>2023-08-06T08:43:28.000Z</time>
</trkpt>
<trkpt lat="46.0516610" lon="10.4862870">
	<ele>2415.60</ele>
	<time>2023-08-06T08:43:29.000Z</time>
</trkpt>
<trkpt lat="46.0516610" lon="10.4862870">
	<ele>2415.60</ele>
	<time>2023-08-06T08:43:30.000Z</time>
</trkpt>
<trkpt lat="46.0516610" lon="10.4862870">
	<ele>2415.60</ele>
	<time>2023-08-06T08:43:31.000Z</time>
</trkpt>
<trkpt lat="46.0516610" lon="10.4862870">
	<ele>2415.60</ele>
	<time>2023-08-06T08:43:32.000Z</time>
</trkpt>
<trkpt lat="46.0516610" lon="10.4862870">
	<ele>2415.60</ele>
	<time>2023-08-06T08:43:33.000Z</time>
</trkpt>
<trkpt lat="46.0516610" lon="10.4862870">
	<ele>2415.60</ele>
	<time>2023-08-06T08:43:34.000Z</time>
</trkpt>
<trkpt lat="46.0516610" lon="10.4862870">
	<ele>2415.40</ele>
	<time>2023-08-06T08:43:35.000Z</time>
</trkpt>
<trkpt lat="46.0516610" lon="10.4862870">
	<ele>2415.40</ele>
	<time>2023-08-06T08:43:36.000Z</time>
</trkpt>
<trkpt lat="46.0516610" lon="10.4862870">
	<ele>2415.40</ele>
	<time>2023-08-06T08:43:37.000Z</time>
</trkpt>
<trkpt lat="46.0516610" lon="10.4862870">
	<ele>2415.40</ele>
	<time>2023-08-06T08:43:38.000Z</time>
</trkpt>
<trkpt lat="46.0516610" lon="10.4862870">
	<ele>2415.60</ele>
	<time>2023-08-06T08:43:39.000Z</time>
</trkpt>
<trkpt lat="46.0516610" lon="10.4862870">
	<ele>2415.60</ele>
	<time>2023-08-06T08:43:40.000Z</time>
</trkpt>
<trkpt lat="46.0516610" lon="10.4862870">
	<ele>2415.60</ele>
	<time>2023-08-06T08:43:41.000Z</time>
</trkpt>
<trkpt lat="46.0516610" lon="10.4862870">
	<ele>2415.80</ele>
	<time>2023-08-06T08:43:42.000Z</time>
</trkpt>
<trkpt lat="46.0516610" lon="10.4862870">
	<ele>2415.80</ele>
	<time>2023-08-06T08:43:43.000Z</time>
</trkpt>
<trkpt lat="46.0516610" lon="10.4862870">
	<ele>2415.80</ele>
	<time>2023-08-06T08:43:44.000Z</time>
</trkpt>
<trkpt lat="46.0516610" lon="10.4862860">
	<ele>2415.80</ele>
	<time>2023-08-06T08:43:45.000Z</time>
</trkpt>
<trkpt lat="46.0516610" lon="10.4862870">
	<ele>2415.80</ele>
	<time>2023-08-06T08:43:46.000Z</time>
</trkpt>
<trkpt lat="46.0516610" lon="10.4862870">
	<ele>2415.80</ele>
	<time>2023-08-06T08:43:47.000Z</time>
</trkpt>
<trkpt lat="46.0516610" lon="10.4862870">
	<ele>2415.80</ele>
	<time>2023-08-06T08:43:48.000Z</time>
</trkpt>
<trkpt lat="46.0516610" lon="10.4862870">
	<ele>2415.80</ele>
	<time>2023-08-06T08:43:49.000Z</time>
</trkpt>
<trkpt lat="46.0516610" lon="10.4862870">
	<ele>2415.60</ele>
	<time>2023-08-06T08:43:50.000Z</time>
</trkpt>
<trkpt lat="46.0516610" lon="10.4862870">
	<ele>2415.60</ele>
	<time>2023-08-06T08:43:51.000Z</time>
</trkpt>
<trkpt lat="46.0516610" lon="10.4862870">
	<ele>2415.60</ele>
	<time>2023-08-06T08:43:52.000Z</time>
</trkpt>
<trkpt lat="46.0516610" lon="10.4862870">
	<ele>2415.60</ele>
	<time>2023-08-06T08:43:53.000Z</time>
</trkpt>
<trkpt lat="46.0516610" lon="10.4862870">
	<ele>2415.60</ele>
	<time>2023-08-06T08:43:54.000Z</time>
</trkpt>
<trkpt lat="46.0516610" lon="10.4862870">
	<ele>2415.40</ele>
	<time>2023-08-06T08:43:55.000Z</time>
</trkpt>
<trkpt lat="46.0516610" lon="10.4862870">
	<ele>2415.40</ele>
	<time>2023-08-06T08:43:56.000Z</time>
</trkpt>
<trkpt lat="46.0516610" lon="10.4862870">
	<ele>2415.40</ele>
	<time>2023-08-06T08:43:57.000Z</time>
</trkpt>
<trkpt lat="46.0516610" lon="10.4862870">
	<ele>2415.40</ele>
	<time>2023-08-06T08:43:58.000Z</time>
</trkpt>
<trkpt lat="46.0516600" lon="10.4862870">
	<ele>2415.40</ele>
	<time>2023-08-06T08:43:59.000Z</time>
</trkpt>
<trkpt lat="46.0516600" lon="10.4862870">
	<ele>2415.40</ele>
	<time>2023-08-06T08:44:00.000Z</time>
</trkpt>
<trkpt lat="46.0516600" lon="10.4862870">
	<ele>2415.40</ele>
	<time>2023-08-06T08:44:01.000Z</time>
</trkpt>
<trkpt lat="46.0516600" lon="10.4862870">
	<ele>2415.40</ele>
	<time>2023-08-06T08:44:02.000Z</time>
</trkpt>
<trkpt lat="46.0516600" lon="10.4862870">
	<ele>2415.40</ele>
	<time>2023-08-06T08:44:03.000Z</time>
</trkpt>
<trkpt lat="46.0516600" lon="10.4862870">
	<ele>2415.40</ele>
	<time>2023-08-06T08:44:04.000Z</time>
</trkpt>
<trkpt lat="46.0516600" lon="10.4862870">
	<ele>2415.40</ele>
	<time>2023-08-06T08:44:05.000Z</time>
</trkpt>
<trkpt lat="46.0516600" lon="10.4862870">
	<ele>2415.40</ele>
	<time>2023-08-06T08:44:06.000Z</time>
</trkpt>
<trkpt lat="46.0516600" lon="10.4862870">
	<ele>2415.40</ele>
	<time>2023-08-06T08:44:07.000Z</time>
</trkpt>
<trkpt lat="46.0516600" lon="10.4862880">
	<ele>2415.40</ele>
	<time>2023-08-06T08:44:08.000Z</time>
</trkpt>
<trkpt lat="46.0516600" lon="10.4862880">
	<ele>2415.40</ele>
	<time>2023-08-06T08:44:09.000Z</time>
</trkpt>
<trkpt lat="46.0516600" lon="10.4862870">
	<ele>2415.40</ele>
	<time>2023-08-06T08:44:10.000Z</time>
</trkpt>
<trkpt lat="46.0516600" lon="10.4862870">
	<ele>2415.40</ele>
	<time>2023-08-06T08:44:11.000Z</time>
</trkpt>
<trkpt lat="46.0516600" lon="10.4862870">
	<ele>2415.40</ele>
	<time>2023-08-06T08:44:12.000Z</time>
</trkpt>
<trkpt lat="46.0516600" lon="10.4862870">
	<ele>2415.40</ele>
	<time>2023-08-06T08:44:13.000Z</time>
</trkpt>
<trkpt lat="46.0516600" lon="10.4862870">
	<ele>2415.40</ele>
	<time>2023-08-06T08:44:14.000Z</time>
</trkpt>
<trkpt lat="46.0516600" lon="10.4862870">
	<ele>2415.40</ele>
	<time>2023-08-06T08:44:15.000Z</time>
</trkpt>
<trkpt lat="46.0516600" lon="10.4862870">
	<ele>2415.40</ele>
	<time>2023-08-06T08:44:16.000Z</time>
</trkpt>
<trkpt lat="46.0516600" lon="10.4862870">
	<ele>2415.40</ele>
	<time>2023-08-06T08:44:17.000Z</time>
</trkpt>
<trkpt lat="46.0516600" lon="10.4862870">
	<ele>2415.40</ele>
	<time>2023-08-06T08:44:18.000Z</time>
</trkpt>
<trkpt lat="46.0516600" lon="10.4862870">
	<ele>2415.40</ele>
	<time>2023-08-06T08:44:19.000Z</time>
</trkpt>
<trkpt lat="46.0516600" lon="10.4862870">
	<ele>2415.40</ele>
	<time>2023-08-06T08:44:20.000Z</time>
</trkpt>
<trkpt lat="46.0516600" lon="10.4862870">
	<ele>2415.40</ele>
	<time>2023-08-06T08:44:21.000Z</time>
</trkpt>
<trkpt lat="46.0516590" lon="10.4862870">
	<ele>2415.40</ele>
	<time>2023-08-06T08:44:22.000Z</time>
</trkpt>
<trkpt lat="46.0516590" lon="10.4862870">
	<ele>2415.40</ele>
	<time>2023-08-06T08:44:23.000Z</time>
</trkpt>
<trkpt lat="46.0516590" lon="10.4862870">
	<ele>2415.40</ele>
	<time>2023-08-06T08:44:24.000Z</time>
</trkpt>
<trkpt lat="46.0516590" lon="10.4862870">
	<ele>2415.40</ele>
	<time>2023-08-06T08:44:25.000Z</time>
</trkpt>
<trkpt lat="46.0516590" lon="10.4862870">
	<ele>2415.40</ele>
	<time>2023-08-06T08:44:26.000Z</time>
</trkpt>
<trkpt lat="46.0516590" lon="10.4862870">
	<ele>2415.40</ele>
	<time>2023-08-06T08:44:27.000Z</time>
</trkpt>
<trkpt lat="46.0516590" lon="10.4862870">
	<ele>2415.40</ele>
	<time>2023-08-06T08:44:28.000Z</time>
</trkpt>
<trkpt lat="46.0516590" lon="10.4862870">
	<ele>2415.40</ele>
	<time>2023-08-06T08:44:29.000Z</time>
</trkpt>
<trkpt lat="46.0516590" lon="10.4862870">
	<ele>2415.40</ele>
	<time>2023-08-06T08:44:30.000Z</time>
</trkpt>
<trkpt lat="46.0516590" lon="10.4862870">
	<ele>2415.40</ele>
	<time>2023-08-06T08:44:31.000Z</time>
</trkpt>
<trkpt lat="46.0516590" lon="10.4862870">
	<ele>2415.40</ele>
	<time>2023-08-06T08:44:32.000Z</time>
</trkpt>
<trkpt lat="46.0516590" lon="10.4862870">
	<ele>2415.40</ele>
	<time>2023-08-06T08:44:33.000Z</time>
</trkpt>
<trkpt lat="46.0516590" lon="10.4862870">
	<ele>2415.40</ele>
	<time>2023-08-06T08:44:34.000Z</time>
</trkpt>
<trkpt lat="46.0516590" lon="10.4862870">
	<ele>2415.40</ele>
	<time>2023-08-06T08:44:35.000Z</time>
</trkpt>
<trkpt lat="46.0516590" lon="10.4862870">
	<ele>2415.40</ele>
	<time>2023-08-06T08:44:36.000Z</time>
</trkpt>
<trkpt lat="46.0516590" lon="10.4862870">
	<ele>2415.40</ele>
	<time>2023-08-06T08:44:37.000Z</time>
</trkpt>
<trkpt lat="46.0516590" lon="10.4862870">
	<ele>2415.40</ele>
	<time>2023-08-06T08:44:38.000Z</time>
</trkpt>
<trkpt lat="46.0516590" lon="10.4862870">
	<ele>2415.40</ele>
	<time>2023-08-06T08:44:39.000Z</time>
</trkpt>
<trkpt lat="46.0516590" lon="10.4862870">
	<ele>2415.40</ele>
	<time>2023-08-06T08:44:40.000Z</time>
</trkpt>
<trkpt lat="46.0516590" lon="10.4862870">
	<ele>2415.40</ele>
	<time>2023-08-06T08:44:41.000Z</time>
</trkpt>
<trkpt lat="46.0516590" lon="10.4862870">
	<ele>2415.40</ele>
	<time>2023-08-06T08:44:42.000Z</time>
</trkpt>
<trkpt lat="46.0516580" lon="10.4862870">
	<ele>2415.40</ele>
	<time>2023-08-06T08:44:43.000Z</time>
</trkpt>
<trkpt lat="46.0516580" lon="10.4862870">
	<ele>2415.40</ele>
	<time>2023-08-06T08:44:44.000Z</time>
</trkpt>
<trkpt lat="46.0516580" lon="10.4862870">
	<ele>2415.40</ele>
	<time>2023-08-06T08:44:45.000Z</time>
</trkpt>
<trkpt lat="46.0516580" lon="10.4862870">
	<ele>2415.40</ele>
	<time>2023-08-06T08:44:46.000Z</time>
</trkpt>
<trkpt lat="46.0516580" lon="10.4862870">
	<ele>2415.40</ele>
	<time>2023-08-06T08:44:47.000Z</time>
</trkpt>
<trkpt lat="46.0516580" lon="10.4862880">
	<ele>2415.40</ele>
	<time>2023-08-06T08:44:48.000Z</time>
</trkpt>
<trkpt lat="46.0516580" lon="10.4862880">
	<ele>2415.40</ele>
	<time>2023-08-06T08:44:49.000Z</time>
</trkpt>
<trkpt lat="46.0516580" lon="10.4862880">
	<ele>2415.40</ele>
	<time>2023-08-06T08:44:50.000Z</time>
</trkpt>
<trkpt lat="46.0516580" lon="10.4862880">
	<ele>2415.40</ele>
	<time>2023-08-06T08:44:51.000Z</time>
</trkpt>
<trkpt lat="46.0516580" lon="10.4862870">
	<ele>2415.40</ele>
	<time>2023-08-06T08:44:52.000Z</time>
</trkpt>
<trkpt lat="46.0516580" lon="10.4862870">
	<ele>2415.40</ele>
	<time>2023-08-06T08:44:53.000Z</time>
</trkpt>
<trkpt lat="46.0516580" lon="10.4862870">
	<ele>2415.40</ele>
	<time>2023-08-06T08:44:54.000Z</time>
</trkpt>
<trkpt lat="46.0516580" lon="10.4862870">
	<ele>2415.40</ele>
	<time>2023-08-06T08:44:55.000Z</time>
</trkpt>
<trkpt lat="46.0516580" lon="10.4862880">
	<ele>2415.40</ele>
	<time>2023-08-06T08:44:56.000Z</time>
</trkpt>
<trkpt lat="46.0516580" lon="10.4862880">
	<ele>2415.40</ele>
	<time>2023-08-06T08:44:57.000Z</time>
</trkpt>
<trkpt lat="46.0516580" lon="10.4862880">
	<ele>2415.40</ele>
	<time>2023-08-06T08:44:58.000Z</time>
</trkpt>
<trkpt lat="46.0516580" lon="10.4862870">
	<ele>2415.40</ele>
	<time>2023-08-06T08:44:59.000Z</time>
</trkpt>
<trkpt lat="46.0516580" lon="10.4862870">
	<ele>2415.40</ele>
	<time>2023-08-06T08:45:00.000Z</time>
</trkpt>
<trkpt lat="46.0516580" lon="10.4862870">
	<ele>2415.40</ele>
	<time>2023-08-06T08:45:01.000Z</time>
</trkpt>
<trkpt lat="46.0516580" lon="10.4862870">
	<ele>2415.40</ele>
	<time>2023-08-06T08:45:02.000Z</time>
</trkpt>
<trkpt lat="46.0516580" lon="10.4862870">
	<ele>2415.40</ele>
	<time>2023-08-06T08:45:03.000Z</time>
</trkpt>
<trkpt lat="46.0516580" lon="10.4862880">
	<ele>2415.40</ele>
	<time>2023-08-06T08:45:04.000Z</time>
</trkpt>
<trkpt lat="46.0516580" lon="10.4862880">
	<ele>2415.40</ele>
	<time>2023-08-06T08:45:05.000Z</time>
</trkpt>
<trkpt lat="46.0516570" lon="10.4862880">
	<ele>2415.40</ele>
	<time>2023-08-06T08:45:06.000Z</time>
</trkpt>
<trkpt lat="46.0516570" lon="10.4862880">
	<ele>2415.40</ele>
	<time>2023-08-06T08:45:07.000Z</time>
</trkpt>
<trkpt lat="46.0516570" lon="10.4862880">
	<ele>2415.40</ele>
	<time>2023-08-06T08:45:08.000Z</time>
</trkpt>
<trkpt lat="46.0516570" lon="10.4862880">
	<ele>2415.40</ele>
	<time>2023-08-06T08:45:09.000Z</time>
</trkpt>
<trkpt lat="46.0516570" lon="10.4862880">
	<ele>2415.40</ele>
	<time>2023-08-06T08:45:10.000Z</time>
</trkpt>
<trkpt lat="46.0516570" lon="10.4862880">
	<ele>2415.40</ele>
	<time>2023-08-06T08:45:11.000Z</time>
</trkpt>
<trkpt lat="46.0516570" lon="10.4862880">
	<ele>2415.40</ele>
	<time>2023-08-06T08:45:12.000Z</time>
</trkpt>
<trkpt lat="46.0516570" lon="10.4862880">
	<ele>2415.40</ele>
	<time>2023-08-06T08:45:13.000Z</time>
</trkpt>
<trkpt lat="46.0516570" lon="10.4862880">
	<ele>2415.40</ele>
	<time>2023-08-06T08:45:14.000Z</time>
</trkpt>
<trkpt lat="46.0516570" lon="10.4862880">
	<ele>2415.40</ele>
	<time>2023-08-06T08:45:15.000Z</time>
</trkpt>
<trkpt lat="46.0516570" lon="10.4862880">
	<ele>2415.40</ele>
	<time>2023-08-06T08:45:16.000Z</time>
</trkpt>
<trkpt lat="46.0516570" lon="10.4862880">
	<ele>2415.40</ele>
	<time>2023-08-06T08:45:17.000Z</time>
</trkpt>
<trkpt lat="46.0516570" lon="10.4862880">
	<ele>2415.40</ele>
	<time>2023-08-06T08:45:18.000Z</time>
</trkpt>
<trkpt lat="46.0516570" lon="10.4862880">
	<ele>2415.40</ele>
	<time>2023-08-06T08:45:19.000Z</time>
</trkpt>
<trkpt lat="46.0516570" lon="10.4862880">
	<ele>2415.40</ele>
	<time>2023-08-06T08:45:20.000Z</time>
</trkpt>
<trkpt lat="46.0516570" lon="10.4862880">
	<ele>2415.40</ele>
	<time>2023-08-06T08:45:21.000Z</time>
</trkpt>
<trkpt lat="46.0516570" lon="10.4862870">
	<ele>2415.40</ele>
	<time>2023-08-06T08:45:22.000Z</time>
</trkpt>
<trkpt lat="46.0516570" lon="10.4862870">
	<ele>2415.40</ele>
	<time>2023-08-06T08:45:23.000Z</time>
</trkpt>
<trkpt lat="46.0516570" lon="10.4862870">
	<ele>2415.40</ele>
	<time>2023-08-06T08:45:24.000Z</time>
</trkpt>
<trkpt lat="46.0516570" lon="10.4862870">
	<ele>2415.40</ele>
	<time>2023-08-06T08:45:25.000Z</time>
</trkpt>
<trkpt lat="46.0516570" lon="10.4862870">
	<ele>2415.40</ele>
	<time>2023-08-06T08:45:26.000Z</time>
</trkpt>
<trkpt lat="46.0516570" lon="10.4862870">
	<ele>2415.40</ele>
	<time>2023-08-06T08:45:27.000Z</time>
</trkpt>
<trkpt lat="46.0516570" lon="10.4862870">
	<ele>2415.40</ele>
	<time>2023-08-06T08:45:28.000Z</time>
</trkpt>
<trkpt lat="46.0516570" lon="10.4862870">
	<ele>2415.40</ele>
	<time>2023-08-06T08:45:29.000Z</time>
</trkpt>
<trkpt lat="46.0516570" lon="10.4862870">
	<ele>2415.40</ele>
	<time>2023-08-06T08:45:30.000Z</time>
</trkpt>
<trkpt lat="46.0516570" lon="10.4862870">
	<ele>2415.40</ele>
	<time>2023-08-06T08:45:31.000Z</time>
</trkpt>
<trkpt lat="46.0516560" lon="10.4862870">
	<ele>2415.40</ele>
	<time>2023-08-06T08:45:32.000Z</time>
</trkpt>
<trkpt lat="46.0516560" lon="10.4862870">
	<ele>2415.40</ele>
	<time>2023-08-06T08:45:33.000Z</time>
</trkpt>
<trkpt lat="46.0516560" lon="10.4862870">
	<ele>2415.40</ele>
	<time>2023-08-06T08:45:34.000Z</time>
</trkpt>
<trkpt lat="46.0516560" lon="10.4862870">
	<ele>2415.40</ele>
	<time>2023-08-06T08:45:35.000Z</time>
</trkpt>
<trkpt lat="46.0516560" lon="10.4862870">
	<ele>2415.40</ele>
	<time>2023-08-06T08:45:36.000Z</time>
</trkpt>
<trkpt lat="46.0516560" lon="10.4862870">
	<ele>2415.40</ele>
	<time>2023-08-06T08:45:37.000Z</time>
</trkpt>
<trkpt lat="46.0516560" lon="10.4862870">
	<ele>2415.40</ele>
	<time>2023-08-06T08:45:38.000Z</time>
</trkpt>
<trkpt lat="46.0516560" lon="10.4862870">
	<ele>2415.40</ele>
	<time>2023-08-06T08:45:39.000Z</time>
</trkpt>
<trkpt lat="46.0516560" lon="10.4862870">
	<ele>2415.40</ele>
	<time>2023-08-06T08:45:40.000Z</time>
</trkpt>
<trkpt lat="46.0516560" lon="10.4862870">
	<ele>2415.40</ele>
	<time>2023-08-06T08:45:41.000Z</time>
</trkpt>
<trkpt lat="46.0516560" lon="10.4862870">
	<ele>2415.40</ele>
	<time>2023-08-06T08:45:42.000Z</time>
</trkpt>
<trkpt lat="46.0516560" lon="10.4862870">
	<ele>2415.40</ele>
	<time>2023-08-06T08:45:43.000Z</time>
</trkpt>
<trkpt lat="46.0516560" lon="10.4862870">
	<ele>2415.40</ele>
	<time>2023-08-06T08:45:44.000Z</time>
</trkpt>
<trkpt lat="46.0516560" lon="10.4862870">
	<ele>2415.40</ele>
	<time>2023-08-06T08:45:45.000Z</time>
</trkpt>
<trkpt lat="46.0516560" lon="10.4862870">
	<ele>2415.40</ele>
	<time>2023-08-06T08:45:46.000Z</time>
</trkpt>
<trkpt lat="46.0516560" lon="10.4862870">
	<ele>2415.40</ele>
	<time>2023-08-06T08:45:47.000Z</time>
</trkpt>
<trkpt lat="46.0516560" lon="10.4862870">
	<ele>2415.40</ele>
	<time>2023-08-06T08:45:48.000Z</time>
</trkpt>
<trkpt lat="46.0516560" lon="10.4862870">
	<ele>2415.40</ele>
	<time>2023-08-06T08:45:49.000Z</time>
</trkpt>
<trkpt lat="46.0516560" lon="10.4862870">
	<ele>2415.40</ele>
	<time>2023-08-06T08:45:50.000Z</time>
</trkpt>
<trkpt lat="46.0516560" lon="10.4862870">
	<ele>2415.40</ele>
	<time>2023-08-06T08:45:51.000Z</time>
</trkpt>
<trkpt lat="46.0516560" lon="10.4862870">
	<ele>2415.40</ele>
	<time>2023-08-06T08:45:52.000Z</time>
</trkpt>
<trkpt lat="46.0516560" lon="10.4862870">
	<ele>2415.40</ele>
	<time>2023-08-06T08:45:53.000Z</time>
</trkpt>
<trkpt lat="46.0516560" lon="10.4862870">
	<ele>2415.40</ele>
	<time>2023-08-06T08:45:54.000Z</time>
</trkpt>
<trkpt lat="46.0516560" lon="10.4862870">
	<ele>2415.40</ele>
	<time>2023-08-06T08:45:55.000Z</time>
</trkpt>
<trkpt lat="46.0516560" lon="10.4862870">
	<ele>2415.40</ele>
	<time>2023-08-06T08:45:56.000Z</time>
</trkpt>
<trkpt lat="46.0516560" lon="10.4862870">
	<ele>2415.40</ele>
	<time>2023-08-06T08:45:57.000Z</time>
</trkpt>
<trkpt lat="46.0516560" lon="10.4862870">
	<ele>2415.40</ele>
	<time>2023-08-06T08:45:58.000Z</time>
</trkpt>
<trkpt lat="46.0516560" lon="10.4862870">
	<ele>2415.40</ele>
	<time>2023-08-06T08:45:59.000Z</time>
</trkpt>
<trkpt lat="46.0516560" lon="10.4862870">
	<ele>2415.40</ele>
	<time>2023-08-06T08:46:00.000Z</time>
</trkpt>
<trkpt lat="46.0516560" lon="10.4862870">
	<ele>2415.40</ele>
	<time>2023-08-06T08:46:01.000Z</time>
</trkpt>
<trkpt lat="46.0516560" lon="10.4862870">
	<ele>2415.40</ele>
	<time>2023-08-06T08:46:02.000Z</time>
</trkpt>
<trkpt lat="46.0516560" lon="10.4862870">
	<ele>2415.40</ele>
	<time>2023-08-06T08:46:03.000Z</time>
</trkpt>
<trkpt lat="46.0516560" lon="10.4862870">
	<ele>2415.40</ele>
	<time>2023-08-06T08:46:04.000Z</time>
</trkpt>
<trkpt lat="46.0516560" lon="10.4862870">
	<ele>2415.40</ele>
	<time>2023-08-06T08:46:05.000Z</time>
</trkpt>
<trkpt lat="46.0516560" lon="10.4862870">
	<ele>2415.40</ele>
	<time>2023-08-06T08:46:06.000Z</time>
</trkpt>
<trkpt lat="46.0516560" lon="10.4862870">
	<ele>2415.40</ele>
	<time>2023-08-06T08:46:07.000Z</time>
</trkpt>
<trkpt lat="46.0516560" lon="10.4862880">
	<ele>2415.40</ele>
	<time>2023-08-06T08:46:08.000Z</time>
</trkpt>
<trkpt lat="46.0516560" lon="10.4862880">
	<ele>2415.40</ele>
	<time>2023-08-06T08:46:09.000Z</time>
</trkpt>
<trkpt lat="46.0516560" lon="10.4862880">
	<ele>2415.40</ele>
	<time>2023-08-06T08:46:10.000Z</time>
</trkpt>
<trkpt lat="46.0516560" lon="10.4862880">
	<ele>2415.40</ele>
	<time>2023-08-06T08:46:11.000Z</time>
</trkpt>
<trkpt lat="46.0516560" lon="10.4862880">
	<ele>2415.40</ele>
	<time>2023-08-06T08:46:12.000Z</time>
</trkpt>
<trkpt lat="46.0516560" lon="10.4862880">
	<ele>2415.40</ele>
	<time>2023-08-06T08:46:13.000Z</time>
</trkpt>
<trkpt lat="46.0516560" lon="10.4862880">
	<ele>2415.40</ele>
	<time>2023-08-06T08:46:14.000Z</time>
</trkpt>
<trkpt lat="46.0516560" lon="10.4862880">
	<ele>2415.40</ele>
	<time>2023-08-06T08:46:15.000Z</time>
</trkpt>
<trkpt lat="46.0516560" lon="10.4862880">
	<ele>2415.40</ele>
	<time>2023-08-06T08:46:16.000Z</time>
</trkpt>
<trkpt lat="46.0516560" lon="10.4862880">
	<ele>2415.40</ele>
	<time>2023-08-06T08:46:17.000Z</time>
</trkpt>
<trkpt lat="46.0516560" lon="10.4862880">
	<ele>2415.40</ele>
	<time>2023-08-06T08:46:18.000Z</time>
</trkpt>
<trkpt lat="46.0516560" lon="10.4862880">
	<ele>2415.40</ele>
	<time>2023-08-06T08:46:19.000Z</time>
</trkpt>
<trkpt lat="46.0516550" lon="10.4862880">
	<ele>2415.40</ele>
	<time>2023-08-06T08:46:20.000Z</time>
</trkpt>
<trkpt lat="46.0516550" lon="10.4862880">
	<ele>2415.40</ele>
	<time>2023-08-06T08:46:21.000Z</time>
</trkpt>
<trkpt lat="46.0516550" lon="10.4862880">
	<ele>2415.40</ele>
	<time>2023-08-06T08:46:22.000Z</time>
</trkpt>
<trkpt lat="46.0516550" lon="10.4862880">
	<ele>2415.40</ele>
	<time>2023-08-06T08:46:23.000Z</time>
</trkpt>
<trkpt lat="46.0516550" lon="10.4862870">
	<ele>2415.40</ele>
	<time>2023-08-06T08:46:24.000Z</time>
</trkpt>
<trkpt lat="46.0516550" lon="10.4862870">
	<ele>2415.40</ele>
	<time>2023-08-06T08:46:25.000Z</time>
</trkpt>
<trkpt lat="46.0516550" lon="10.4862870">
	<ele>2415.40</ele>
	<time>2023-08-06T08:46:26.000Z</time>
</trkpt>
<trkpt lat="46.0516550" lon="10.4862880">
	<ele>2415.40</ele>
	<time>2023-08-06T08:46:27.000Z</time>
</trkpt>
<trkpt lat="46.0516550" lon="10.4862880">
	<ele>2415.40</ele>
	<time>2023-08-06T08:46:28.000Z</time>
</trkpt>
<trkpt lat="46.0516550" lon="10.4862880">
	<ele>2415.40</ele>
	<time>2023-08-06T08:46:29.000Z</time>
</trkpt>
<trkpt lat="46.0516550" lon="10.4862880">
	<ele>2415.40</ele>
	<time>2023-08-06T08:46:30.000Z</time>
</trkpt>
<trkpt lat="46.0516550" lon="10.4862880">
	<ele>2415.40</ele>
	<time>2023-08-06T08:46:31.000Z</time>
</trkpt>
<trkpt lat="46.0516550" lon="10.4862870">
	<ele>2415.40</ele>
	<time>2023-08-06T08:46:32.000Z</time>
</trkpt>
<trkpt lat="46.0516550" lon="10.4862870">
	<ele>2415.40</ele>
	<time>2023-08-06T08:46:33.000Z</time>
</trkpt>
<trkpt lat="46.0516550" lon="10.4862880">
	<ele>2415.40</ele>
	<time>2023-08-06T08:46:34.000Z</time>
</trkpt>
<trkpt lat="46.0516550" lon="10.4862880">
	<ele>2415.40</ele>
	<time>2023-08-06T08:46:35.000Z</time>
</trkpt>
<trkpt lat="46.0516550" lon="10.4862880">
	<ele>2415.40</ele>
	<time>2023-08-06T08:46:36.000Z</time>
</trkpt>
<trkpt lat="46.0516550" lon="10.4862880">
	<ele>2415.40</ele>
	<time>2023-08-06T08:46:37.000Z</time>
</trkpt>
<trkpt lat="46.0516550" lon="10.4862880">
	<ele>2415.40</ele>
	<time>2023-08-06T08:46:38.000Z</time>
</trkpt>
<trkpt lat="46.0516550" lon="10.4862880">
	<ele>2415.40</ele>
	<time>2023-08-06T08:46:39.000Z</time>
</trkpt>
<trkpt lat="46.0516550" lon="10.4862880">
	<ele>2415.40</ele>
	<time>2023-08-06T08:46:40.000Z</time>
</trkpt>
<trkpt lat="46.0516550" lon="10.4862880">
	<ele>2415.40</ele>
	<time>2023-08-06T08:46:41.000Z</time>
</trkpt>
<trkpt lat="46.0516550" lon="10.4862880">
	<ele>2415.40</ele>
	<time>2023-08-06T08:46:42.000Z</time>
</trkpt>
<trkpt lat="46.0516550" lon="10.4862880">
	<ele>2415.40</ele>
	<time>2023-08-06T08:46:43.000Z</time>
</trkpt>
<trkpt lat="46.0516550" lon="10.4862870">
	<ele>2415.40</ele>
	<time>2023-08-06T08:46:44.000Z</time>
</trkpt>
<trkpt lat="46.0516550" lon="10.4862870">
	<ele>2415.40</ele>
	<time>2023-08-06T08:46:45.000Z</time>
</trkpt>
<trkpt lat="46.0516550" lon="10.4862870">
	<ele>2415.40</ele>
	<time>2023-08-06T08:46:46.000Z</time>
</trkpt>
<trkpt lat="46.0516550" lon="10.4862870">
	<ele>2415.40</ele>
	<time>2023-08-06T08:46:47.000Z</time>
</trkpt>
<trkpt lat="46.0516540" lon="10.4862870">
	<ele>2415.40</ele>
	<time>2023-08-06T08:46:48.000Z</time>
</trkpt>
<trkpt lat="46.0516540" lon="10.4862870">
	<ele>2415.40</ele>
	<time>2023-08-06T08:46:49.000Z</time>
</trkpt>
<trkpt lat="46.0516540" lon="10.4862870">
	<ele>2415.40</ele>
	<time>2023-08-06T08:46:50.000Z</time>
</trkpt>
<trkpt lat="46.0516540" lon="10.4862870">
	<ele>2415.40</ele>
	<time>2023-08-06T08:46:51.000Z</time>
</trkpt>
<trkpt lat="46.0516540" lon="10.4862870">
	<ele>2415.40</ele>
	<time>2023-08-06T08:46:52.000Z</time>
</trkpt>
<trkpt lat="46.0516550" lon="10.4862870">
	<ele>2415.40</ele>
	<time>2023-08-06T08:46:53.000Z</time>
</trkpt>
<trkpt lat="46.0516550" lon="10.4862870">
	<ele>2415.40</ele>
	<time>2023-08-06T08:46:54.000Z</time>
</trkpt>
<trkpt lat="46.0516550" lon="10.4862870">
	<ele>2415.40</ele>
	<time>2023-08-06T08:46:55.000Z</time>
</trkpt>
<trkpt lat="46.0516550" lon="10.4862870">
	<ele>2415.40</ele>
	<time>2023-08-06T08:46:56.000Z</time>
</trkpt>
<trkpt lat="46.0516540" lon="10.4862870">
	<ele>2415.40</ele>
	<time>2023-08-06T08:46:57.000Z</time>
</trkpt>
<trkpt lat="46.0516540" lon="10.4862870">
	<ele>2412.60</ele>
	<time>2023-08-06T08:46:58.000Z</time>
</trkpt>
<trkpt lat="46.0516540" lon="10.4862870">
	<ele>2412.60</ele>
	<time>2023-08-06T08:46:59.000Z</time>
</trkpt>
<trkpt lat="46.0516540" lon="10.4862870">
	<ele>2412.60</ele>
	<time>2023-08-06T08:47:00.000Z</time>
</trkpt>
<trkpt lat="46.0516540" lon="10.4862870">
	<ele>2412.60</ele>
	<time>2023-08-06T08:47:01.000Z</time>
</trkpt>
<trkpt lat="46.0516540" lon="10.4862870">
	<ele>2412.60</ele>
	<time>2023-08-06T08:47:02.000Z</time>
</trkpt>
<trkpt lat="46.0516540" lon="10.4862870">
	<ele>2412.80</ele>
	<time>2023-08-06T08:47:03.000Z</time>
</trkpt>
<trkpt lat="46.0516540" lon="10.4862870">
	<ele>2412.80</ele>
	<time>2023-08-06T08:47:04.000Z</time>
</trkpt>
<trkpt lat="46.0516540" lon="10.4862870">
	<ele>2412.80</ele>
	<time>2023-08-06T08:47:05.000Z</time>
</trkpt>
<trkpt lat="46.0516540" lon="10.4862870">
	<ele>2412.80</ele>
	<time>2023-08-06T08:47:06.000Z</time>
</trkpt>
<trkpt lat="46.0516540" lon="10.4862870">
	<ele>2412.80</ele>
	<time>2023-08-06T08:47:07.000Z</time>
</trkpt>
<trkpt lat="46.0516540" lon="10.4862870">
	<ele>2412.80</ele>
	<time>2023-08-06T08:47:08.000Z</time>
</trkpt>
<trkpt lat="46.0516540" lon="10.4862870">
	<ele>2412.80</ele>
	<time>2023-08-06T08:47:09.000Z</time>
</trkpt>
<trkpt lat="46.0516540" lon="10.4862870">
	<ele>2412.80</ele>
	<time>2023-08-06T08:47:10.000Z</time>
</trkpt>
<trkpt lat="46.0516540" lon="10.4862870">
	<ele>2412.80</ele>
	<time>2023-08-06T08:47:11.000Z</time>
</trkpt>
<trkpt lat="46.0516540" lon="10.4862870">
	<ele>2412.80</ele>
	<time>2023-08-06T08:47:12.000Z</time>
</trkpt>
<trkpt lat="46.0516540" lon="10.4862870">
	<ele>2412.80</ele>
	<time>2023-08-06T08:47:13.000Z</time>
</trkpt>
<trkpt lat="46.0516540" lon="10.4862870">
	<ele>2413.00</ele>
	<time>2023-08-06T08:47:14.000Z</time>
</trkpt>
<trkpt lat="46.0516540" lon="10.4862870">
	<ele>2413.00</ele>
	<time>2023-08-06T08:47:15.000Z</time>
</trkpt>
<trkpt lat="46.0516540" lon="10.4862870">
	<ele>2413.00</ele>
	<time>2023-08-06T08:47:16.000Z</time>
</trkpt>
<trkpt lat="46.0516540" lon="10.4862870">
	<ele>2413.00</ele>
	<time>2023-08-06T08:47:17.000Z</time>
</trkpt>
<trkpt lat="46.0516540" lon="10.4862870">
	<ele>2413.00</ele>
	<time>2023-08-06T08:47:18.000Z</time>
</trkpt>
<trkpt lat="46.0516540" lon="10.4862870">
	<ele>2413.00</ele>
	<time>2023-08-06T08:47:19.000Z</time>
</trkpt>
<trkpt lat="46.0516540" lon="10.4862870">
	<ele>2412.80</ele>
	<time>2023-08-06T08:47:20.000Z</time>
</trkpt>
<trkpt lat="46.0516540" lon="10.4862870">
	<ele>2413.00</ele>
	<time>2023-08-06T08:47:21.000Z</time>
</trkpt>
<trkpt lat="46.0516540" lon="10.4862870">
	<ele>2413.00</ele>
	<time>2023-08-06T08:47:22.000Z</time>
</trkpt>
<trkpt lat="46.0516540" lon="10.4862870">
	<ele>2413.00</ele>
	<time>2023-08-06T08:47:23.000Z</time>
</trkpt>
<trkpt lat="46.0516540" lon="10.4862880">
	<ele>2413.00</ele>
	<time>2023-08-06T08:47:24.000Z</time>
</trkpt>
<trkpt lat="46.0516540" lon="10.4862880">
	<ele>2413.00</ele>
	<time>2023-08-06T08:47:25.000Z</time>
</trkpt>
<trkpt lat="46.0516540" lon="10.4862880">
	<ele>2413.00</ele>
	<time>2023-08-06T08:47:26.000Z</time>
</trkpt>
<trkpt lat="46.0516540" lon="10.4862880">
	<ele>2413.00</ele>
	<time>2023-08-06T08:47:27.000Z</time>
</trkpt>
<trkpt lat="46.0516540" lon="10.4862880">
	<ele>2413.20</ele>
	<time>2023-08-06T08:47:28.000Z</time>
</trkpt>
<trkpt lat="46.0516540" lon="10.4862880">
	<ele>2413.00</ele>
	<time>2023-08-06T08:47:29.000Z</time>
</trkpt>
<trkpt lat="46.0516540" lon="10.4862880">
	<ele>2413.00</ele>
	<time>2023-08-06T08:47:30.000Z</time>
</trkpt>
<trkpt lat="46.0516540" lon="10.4862880">
	<ele>2413.00</ele>
	<time>2023-08-06T08:47:31.000Z</time>
</trkpt>
<trkpt lat="46.0516540" lon="10.4862870">
	<ele>2413.00</ele>
	<time>2023-08-06T08:47:32.000Z</time>
</trkpt>
<trkpt lat="46.0516540" lon="10.4862880">
	<ele>2413.00</ele>
	<time>2023-08-06T08:47:33.000Z</time>
</trkpt>
<trkpt lat="46.0516540" lon="10.4862880">
	<ele>2413.00</ele>
	<time>2023-08-06T08:47:34.000Z</time>
</trkpt>
<trkpt lat="46.0516540" lon="10.4862880">
	<ele>2412.80</ele>
	<time>2023-08-06T08:47:35.000Z</time>
</trkpt>
<trkpt lat="46.0516540" lon="10.4862880">
	<ele>2412.80</ele>
	<time>2023-08-06T08:47:36.000Z</time>
</trkpt>
<trkpt lat="46.0516540" lon="10.4862880">
	<ele>2412.80</ele>
	<time>2023-08-06T08:47:37.000Z</time>
</trkpt>
<trkpt lat="46.0516540" lon="10.4862870">
	<ele>2412.80</ele>
	<time>2023-08-06T08:47:38.000Z</time>
</trkpt>
<trkpt lat="46.0516530" lon="10.4862870">
	<ele>2412.80</ele>
	<time>2023-08-06T08:47:39.000Z</time>
</trkpt>
<trkpt lat="46.0516540" lon="10.4862870">
	<ele>2412.80</ele>
	<time>2023-08-06T08:47:40.000Z</time>
</trkpt>
<trkpt lat="46.0516540" lon="10.4862870">
	<ele>2412.80</ele>
	<time>2023-08-06T08:47:41.000Z</time>
</trkpt>
<trkpt lat="46.0516530" lon="10.4862880">
	<ele>2412.80</ele>
	<time>2023-08-06T08:47:42.000Z</time>
</trkpt>
<trkpt lat="46.0516530" lon="10.4862880">
	<ele>2412.60</ele>
	<time>2023-08-06T08:47:43.000Z</time>
</trkpt>
<trkpt lat="46.0516530" lon="10.4862880">
	<ele>2412.60</ele>
	<time>2023-08-06T08:47:44.000Z</time>
</trkpt>
<trkpt lat="46.0516530" lon="10.4862880">
	<ele>2412.40</ele>
	<time>2023-08-06T08:47:45.000Z</time>
</trkpt>
<trkpt lat="46.0516530" lon="10.4862880">
	<ele>2412.40</ele>
	<time>2023-08-06T08:47:46.000Z</time>
</trkpt>
<trkpt lat="46.0516530" lon="10.4862880">
	<ele>2412.40</ele>
	<time>2023-08-06T08:47:47.000Z</time>
</trkpt>
<trkpt lat="46.0516530" lon="10.4862880">
	<ele>2412.20</ele>
	<time>2023-08-06T08:47:48.000Z</time>
</trkpt>
<trkpt lat="46.0516530" lon="10.4862880">
	<ele>2412.20</ele>
	<time>2023-08-06T08:47:49.000Z</time>
</trkpt>
<trkpt lat="46.0516530" lon="10.4862880">
	<ele>2412.20</ele>
	<time>2023-08-06T08:47:50.000Z</time>
</trkpt>
<trkpt lat="46.0516530" lon="10.4862880">
	<ele>2412.20</ele>
	<time>2023-08-06T08:47:51.000Z</time>
</trkpt>
<trkpt lat="46.0516530" lon="10.4862880">
	<ele>2412.20</ele>
	<time>2023-08-06T08:47:52.000Z</time>
</trkpt>
<trkpt lat="46.0516530" lon="10.4862880">
	<ele>2412.20</ele>
	<time>2023-08-06T08:47:53.000Z</time>
</trkpt>
<trkpt lat="46.0516530" lon="10.4862880">
	<ele>2412.40</ele>
	<time>2023-08-06T08:47:54.000Z</time>
</trkpt>
<trkpt lat="46.0516530" lon="10.4862880">
	<ele>2412.40</ele>
	<time>2023-08-06T08:47:55.000Z</time>
</trkpt>
<trkpt lat="46.0516530" lon="10.4862880">
	<ele>2412.40</ele>
	<time>2023-08-06T08:47:56.000Z</time>
</trkpt>
<trkpt lat="46.0516530" lon="10.4862880">
	<ele>2412.40</ele>
	<time>2023-08-06T08:47:57.000Z</time>
</trkpt>
<trkpt lat="46.0516530" lon="10.4862880">
	<ele>2412.40</ele>
	<time>2023-08-06T08:47:58.000Z</time>
</trkpt>
<trkpt lat="46.0516530" lon="10.4862880">
	<ele>2413.00</ele>
	<time>2023-08-06T08:47:59.000Z</time>
</trkpt>
<trkpt lat="46.0516530" lon="10.4862880">
	<ele>2413.00</ele>
	<time>2023-08-06T08:48:00.000Z</time>
</trkpt>
<trkpt lat="46.0516530" lon="10.4862880">
	<ele>2413.00</ele>
	<time>2023-08-06T08:48:01.000Z</time>
</trkpt>
<trkpt lat="46.0516530" lon="10.4862880">
	<ele>2413.00</ele>
	<time>2023-08-06T08:48:02.000Z</time>
</trkpt>
<trkpt lat="46.0516530" lon="10.4862880">
	<ele>2413.00</ele>
	<time>2023-08-06T08:48:03.000Z</time>
</trkpt>
<trkpt lat="46.0516530" lon="10.4862880">
	<ele>2413.00</ele>
	<time>2023-08-06T08:48:04.000Z</time>
</trkpt>
<trkpt lat="46.0516530" lon="10.4862880">
	<ele>2413.00</ele>
	<time>2023-08-06T08:48:05.000Z</time>
</trkpt>
<trkpt lat="46.0516530" lon="10.4862880">
	<ele>2413.00</ele>
	<time>2023-08-06T08:48:06.000Z</time>
</trkpt>
<trkpt lat="46.0516530" lon="10.4862880">
	<ele>2413.00</ele>
	<time>2023-08-06T08:48:07.000Z</time>
</trkpt>
<trkpt lat="46.0516530" lon="10.4862880">
	<ele>2413.00</ele>
	<time>2023-08-06T08:48:08.000Z</time>
</trkpt>
<trkpt lat="46.0516530" lon="10.4862880">
	<ele>2413.00</ele>
	<time>2023-08-06T08:48:09.000Z</time>
</trkpt>
<trkpt lat="46.0516530" lon="10.4862880">
	<ele>2413.00</ele>
	<time>2023-08-06T08:48:10.000Z</time>
</trkpt>
<trkpt lat="46.0516530" lon="10.4862880">
	<ele>2413.00</ele>
	<time>2023-08-06T08:48:11.000Z</time>
</trkpt>
<trkpt lat="46.0516530" lon="10.4862880">
	<ele>2413.00</ele>
	<time>2023-08-06T08:48:12.000Z</time>
</trkpt>
<trkpt lat="46.0516530" lon="10.4862880">
	<ele>2413.00</ele>
	<time>2023-08-06T08:48:13.000Z</time>
</trkpt>
<trkpt lat="46.0516530" lon="10.4862880">
	<ele>2413.00</ele>
	<time>2023-08-06T08:48:14.000Z</time>
</trkpt>
<trkpt lat="46.0516520" lon="10.4862880">
	<ele>2413.00</ele>
	<time>2023-08-06T08:48:15.000Z</time>
</trkpt>
<trkpt lat="46.0516520" lon="10.4862880">
	<ele>2413.00</ele>
	<time>2023-08-06T08:48:16.000Z</time>
</trkpt>
<trkpt lat="46.0516520" lon="10.4862880">
	<ele>2413.00</ele>
	<time>2023-08-06T08:48:17.000Z</time>
</trkpt>
<trkpt lat="46.0516520" lon="10.4862880">
	<ele>2413.00</ele>
	<time>2023-08-06T08:48:18.000Z</time>
</trkpt>
<trkpt lat="46.0516520" lon="10.4862880">
	<ele>2413.00</ele>
	<time>2023-08-06T08:48:19.000Z</time>
</trkpt>
<trkpt lat="46.0516520" lon="10.4862880">
	<ele>2413.00</ele>
	<time>2023-08-06T08:48:20.000Z</time>
</trkpt>
<trkpt lat="46.0516520" lon="10.4862880">
	<ele>2413.00</ele>
	<time>2023-08-06T08:48:21.000Z</time>
</trkpt>
<trkpt lat="46.0516520" lon="10.4862880">
	<ele>2413.00</ele>
	<time>2023-08-06T08:48:22.000Z</time>
</trkpt>
<trkpt lat="46.0516520" lon="10.4862880">
	<ele>2413.00</ele>
	<time>2023-08-06T08:48:23.000Z</time>
</trkpt>
<trkpt lat="46.0516520" lon="10.4862880">
	<ele>2413.00</ele>
	<time>2023-08-06T08:48:24.000Z</time>
</trkpt>
<trkpt lat="46.0516520" lon="10.4862880">
	<ele>2413.00</ele>
	<time>2023-08-06T08:48:25.000Z</time>
</trkpt>
<trkpt lat="46.0516520" lon="10.4862880">
	<ele>2413.00</ele>
	<time>2023-08-06T08:48:26.000Z</time>
</trkpt>
<trkpt lat="46.0516520" lon="10.4862880">
	<ele>2413.00</ele>
	<time>2023-08-06T08:48:27.000Z</time>
</trkpt>
<trkpt lat="46.0516520" lon="10.4862880">
	<ele>2413.00</ele>
	<time>2023-08-06T08:48:28.000Z</time>
</trkpt>
<trkpt lat="46.0516520" lon="10.4862880">
	<ele>2413.00</ele>
	<time>2023-08-06T08:48:29.000Z</time>
</trkpt>
<trkpt lat="46.0516520" lon="10.4862880">
	<ele>2413.00</ele>
	<time>2023-08-06T08:48:30.000Z</time>
</trkpt>
<trkpt lat="46.0516520" lon="10.4862880">
	<ele>2413.00</ele>
	<time>2023-08-06T08:48:31.000Z</time>
</trkpt>
<trkpt lat="46.0516520" lon="10.4862880">
	<ele>2413.00</ele>
	<time>2023-08-06T08:48:32.000Z</time>
</trkpt>
<trkpt lat="46.0516520" lon="10.4862880">
	<ele>2413.00</ele>
	<time>2023-08-06T08:48:33.000Z</time>
</trkpt>
<trkpt lat="46.0516510" lon="10.4862880">
	<ele>2413.00</ele>
	<time>2023-08-06T08:48:34.000Z</time>
</trkpt>
<trkpt lat="46.0516510" lon="10.4862880">
	<ele>2413.00</ele>
	<time>2023-08-06T08:48:35.000Z</time>
</trkpt>
<trkpt lat="46.0516510" lon="10.4862880">
	<ele>2413.00</ele>
	<time>2023-08-06T08:48:36.000Z</time>
</trkpt>
<trkpt lat="46.0516510" lon="10.4862880">
	<ele>2413.00</ele>
	<time>2023-08-06T08:48:37.000Z</time>
</trkpt>
<trkpt lat="46.0516510" lon="10.4862880">
	<ele>2413.00</ele>
	<time>2023-08-06T08:48:38.000Z</time>
</trkpt>
<trkpt lat="46.0516510" lon="10.4862880">
	<ele>2413.00</ele>
	<time>2023-08-06T08:48:39.000Z</time>
</trkpt>
<trkpt lat="46.0516510" lon="10.4862880">
	<ele>2413.00</ele>
	<time>2023-08-06T08:48:40.000Z</time>
</trkpt>
<trkpt lat="46.0516510" lon="10.4862880">
	<ele>2413.00</ele>
	<time>2023-08-06T08:48:41.000Z</time>
</trkpt>
<trkpt lat="46.0516510" lon="10.4862880">
	<ele>2413.00</ele>
	<time>2023-08-06T08:48:42.000Z</time>
</trkpt>
<trkpt lat="46.0516510" lon="10.4862880">
	<ele>2413.00</ele>
	<time>2023-08-06T08:48:43.000Z</time>
</trkpt>
<trkpt lat="46.0516510" lon="10.4862880">
	<ele>2413.00</ele>
	<time>2023-08-06T08:48:44.000Z</time>
</trkpt>
<trkpt lat="46.0516510" lon="10.4862880">
	<ele>2413.00</ele>
	<time>2023-08-06T08:48:45.000Z</time>
</trkpt>
<trkpt lat="46.0516510" lon="10.4862880">
	<ele>2413.00</ele>
	<time>2023-08-06T08:48:46.000Z</time>
</trkpt>
<trkpt lat="46.0516510" lon="10.4862880">
	<ele>2413.00</ele>
	<time>2023-08-06T08:48:47.000Z</time>
</trkpt>
<trkpt lat="46.0516510" lon="10.4862880">
	<ele>2413.00</ele>
	<time>2023-08-06T08:48:48.000Z</time>
</trkpt>
<trkpt lat="46.0516510" lon="10.4862880">
	<ele>2413.00</ele>
	<time>2023-08-06T08:48:49.000Z</time>
</trkpt>
<trkpt lat="46.0516510" lon="10.4862880">
	<ele>2413.00</ele>
	<time>2023-08-06T08:48:50.000Z</time>
</trkpt>
<trkpt lat="46.0516510" lon="10.4862880">
	<ele>2413.00</ele>
	<time>2023-08-06T08:48:51.000Z</time>
</trkpt>
<trkpt lat="46.0516510" lon="10.4862880">
	<ele>2413.00</ele>
	<time>2023-08-06T08:48:52.000Z</time>
</trkpt>
<trkpt lat="46.0516510" lon="10.4862880">
	<ele>2413.00</ele>
	<time>2023-08-06T08:48:53.000Z</time>
</trkpt>
<trkpt lat="46.0516510" lon="10.4862880">
	<ele>2413.00</ele>
	<time>2023-08-06T08:48:54.000Z</time>
</trkpt>
<trkpt lat="46.0516510" lon="10.4862880">
	<ele>2413.00</ele>
	<time>2023-08-06T08:48:55.000Z</time>
</trkpt>
<trkpt lat="46.0516510" lon="10.4862880">
	<ele>2413.00</ele>
	<time>2023-08-06T08:48:56.000Z</time>
</trkpt>
<trkpt lat="46.0516500" lon="10.4862880">
	<ele>2413.00</ele>
	<time>2023-08-06T08:48:57.000Z</time>
</trkpt>
<trkpt lat="46.0516500" lon="10.4862880">
	<ele>2413.00</ele>
	<time>2023-08-06T08:48:58.000Z</time>
</trkpt>
<trkpt lat="46.0516500" lon="10.4862880">
	<ele>2413.00</ele>
	<time>2023-08-06T08:48:59.000Z</time>
</trkpt>
<trkpt lat="46.0516500" lon="10.4862880">
	<ele>2413.00</ele>
	<time>2023-08-06T08:49:00.000Z</time>
</trkpt>
<trkpt lat="46.0516500" lon="10.4862880">
	<ele>2413.00</ele>
	<time>2023-08-06T08:49:01.000Z</time>
</trkpt>
<trkpt lat="46.0516500" lon="10.4862880">
	<ele>2413.00</ele>
	<time>2023-08-06T08:49:02.000Z</time>
</trkpt>
<trkpt lat="46.0516500" lon="10.4862880">
	<ele>2413.00</ele>
	<time>2023-08-06T08:49:03.000Z</time>
</trkpt>
<trkpt lat="46.0516500" lon="10.4862880">
	<ele>2413.00</ele>
	<time>2023-08-06T08:49:04.000Z</time>
</trkpt>
<trkpt lat="46.0516500" lon="10.4862880">
	<ele>2413.00</ele>
	<time>2023-08-06T08:49:05.000Z</time>
</trkpt>
<trkpt lat="46.0516500" lon="10.4862880">
	<ele>2413.00</ele>
	<time>2023-08-06T08:49:06.000Z</time>
</trkpt>
<trkpt lat="46.0516500" lon="10.4862880">
	<ele>2413.00</ele>
	<time>2023-08-06T08:49:07.000Z</time>
</trkpt>
<trkpt lat="46.0516500" lon="10.4862880">
	<ele>2413.00</ele>
	<time>2023-08-06T08:49:08.000Z</time>
</trkpt>
<trkpt lat="46.0516500" lon="10.4862880">
	<ele>2413.00</ele>
	<time>2023-08-06T08:49:09.000Z</time>
</trkpt>
<trkpt lat="46.0516500" lon="10.4862880">
	<ele>2413.00</ele>
	<time>2023-08-06T08:49:10.000Z</time>
</trkpt>
<trkpt lat="46.0516500" lon="10.4862870">
	<ele>2413.00</ele>
	<time>2023-08-06T08:49:11.000Z</time>
</trkpt>
<trkpt lat="46.0516500" lon="10.4862870">
	<ele>2413.00</ele>
	<time>2023-08-06T08:49:12.000Z</time>
</trkpt>
<trkpt lat="46.0516500" lon="10.4862870">
	<ele>2413.00</ele>
	<time>2023-08-06T08:49:13.000Z</time>
</trkpt>
<trkpt lat="46.0516500" lon="10.4862870">
	<ele>2413.00</ele>
	<time>2023-08-06T08:49:14.000Z</time>
</trkpt>
<trkpt lat="46.0516500" lon="10.4862870">
	<ele>2413.00</ele>
	<time>2023-08-06T08:49:15.000Z</time>
</trkpt>
<trkpt lat="46.0516500" lon="10.4862870">
	<ele>2413.00</ele>
	<time>2023-08-06T08:49:16.000Z</time>
</trkpt>
<trkpt lat="46.0516500" lon="10.4862870">
	<ele>2413.00</ele>
	<time>2023-08-06T08:49:17.000Z</time>
</trkpt>
<trkpt lat="46.0516500" lon="10.4862870">
	<ele>2413.00</ele>
	<time>2023-08-06T08:49:18.000Z</time>
</trkpt>
<trkpt lat="46.0516500" lon="10.4862870">
	<ele>2413.00</ele>
	<time>2023-08-06T08:49:19.000Z</time>
</trkpt>
<trkpt lat="46.0516500" lon="10.4862870">
	<ele>2413.00</ele>
	<time>2023-08-06T08:49:20.000Z</time>
</trkpt>
<trkpt lat="46.0516490" lon="10.4862870">
	<ele>2413.00</ele>
	<time>2023-08-06T08:49:21.000Z</time>
</trkpt>
<trkpt lat="46.0516490" lon="10.4862870">
	<ele>2413.00</ele>
	<time>2023-08-06T08:49:22.000Z</time>
</trkpt>
<trkpt lat="46.0516490" lon="10.4862870">
	<ele>2413.00</ele>
	<time>2023-08-06T08:49:23.000Z</time>
</trkpt>
<trkpt lat="46.0516490" lon="10.4862880">
	<ele>2413.00</ele>
	<time>2023-08-06T08:49:24.000Z</time>
</trkpt>
<trkpt lat="46.0516490" lon="10.4862880">
	<ele>2413.00</ele>
	<time>2023-08-06T08:49:25.000Z</time>
</trkpt>
<trkpt lat="46.0516490" lon="10.4862880">
	<ele>2413.00</ele>
	<time>2023-08-06T08:49:26.000Z</time>
</trkpt>
<trkpt lat="46.0516490" lon="10.4862880">
	<ele>2413.00</ele>
	<time>2023-08-06T08:49:27.000Z</time>
</trkpt>
<trkpt lat="46.0516490" lon="10.4862880">
	<ele>2413.00</ele>
	<time>2023-08-06T08:49:28.000Z</time>
</trkpt>
<trkpt lat="46.0516500" lon="10.4862880">
	<ele>2413.00</ele>
	<time>2023-08-06T08:49:29.000Z</time>
</trkpt>
<trkpt lat="46.0516500" lon="10.4862880">
	<ele>2413.00</ele>
	<time>2023-08-06T08:49:30.000Z</time>
</trkpt>
<trkpt lat="46.0516500" lon="10.4862880">
	<ele>2413.00</ele>
	<time>2023-08-06T08:49:31.000Z</time>
</trkpt>
<trkpt lat="46.0516500" lon="10.4862880">
	<ele>2413.00</ele>
	<time>2023-08-06T08:49:32.000Z</time>
</trkpt>
<trkpt lat="46.0516500" lon="10.4862880">
	<ele>2413.00</ele>
	<time>2023-08-06T08:49:33.000Z</time>
</trkpt>
<trkpt lat="46.0516490" lon="10.4862880">
	<ele>2413.00</ele>
	<time>2023-08-06T08:49:34.000Z</time>
</trkpt>
<trkpt lat="46.0516490" lon="10.4862880">
	<ele>2413.00</ele>
	<time>2023-08-06T08:49:35.000Z</time>
</trkpt>
<trkpt lat="46.0516490" lon="10.4862880">
	<ele>2413.00</ele>
	<time>2023-08-06T08:49:36.000Z</time>
</trkpt>
<trkpt lat="46.0516490" lon="10.4862880">
	<ele>2413.00</ele>
	<time>2023-08-06T08:49:37.000Z</time>
</trkpt>
<trkpt lat="46.0516490" lon="10.4862880">
	<ele>2413.00</ele>
	<time>2023-08-06T08:49:38.000Z</time>
</trkpt>
<trkpt lat="46.0516490" lon="10.4862880">
	<ele>2413.00</ele>
	<time>2023-08-06T08:49:39.000Z</time>
</trkpt>
<trkpt lat="46.0516490" lon="10.4862880">
	<ele>2413.00</ele>
	<time>2023-08-06T08:49:40.000Z</time>
</trkpt>
<trkpt lat="46.0516490" lon="10.4862880">
	<ele>2413.00</ele>
	<time>2023-08-06T08:49:41.000Z</time>
</trkpt>
<trkpt lat="46.0516490" lon="10.4862880">
	<ele>2413.00</ele>
	<time>2023-08-06T08:49:42.000Z</time>
</trkpt>
<trkpt lat="46.0516490" lon="10.4862880">
	<ele>2413.00</ele>
	<time>2023-08-06T08:49:43.000Z</time>
</trkpt>
<trkpt lat="46.0516490" lon="10.4862880">
	<ele>2413.00</ele>
	<time>2023-08-06T08:49:44.000Z</time>
</trkpt>
<trkpt lat="46.0516490" lon="10.4862880">
	<ele>2413.00</ele>
	<time>2023-08-06T08:49:45.000Z</time>
</trkpt>
<trkpt lat="46.0516490" lon="10.4862880">
	<ele>2413.00</ele>
	<time>2023-08-06T08:49:46.000Z</time>
</trkpt>
<trkpt lat="46.0516490" lon="10.4862880">
	<ele>2413.00</ele>
	<time>2023-08-06T08:49:47.000Z</time>
</trkpt>
<trkpt lat="46.0516490" lon="10.4862880">
	<ele>2413.00</ele>
	<time>2023-08-06T08:49:48.000Z</time>
</trkpt>
<trkpt lat="46.0516490" lon="10.4862880">
	<ele>2413.00</ele>
	<time>2023-08-06T08:49:49.000Z</time>
</trkpt>
<trkpt lat="46.0516490" lon="10.4862880">
	<ele>2413.00</ele>
	<time>2023-08-06T08:49:50.000Z</time>
</trkpt>
<trkpt lat="46.0516490" lon="10.4862880">
	<ele>2413.00</ele>
	<time>2023-08-06T08:49:51.000Z</time>
</trkpt>
<trkpt lat="46.0516490" lon="10.4862880">
	<ele>2413.00</ele>
	<time>2023-08-06T08:49:52.000Z</time>
</trkpt>
<trkpt lat="46.0516490" lon="10.4862880">
	<ele>2413.00</ele>
	<time>2023-08-06T08:49:53.000Z</time>
</trkpt>
<trkpt lat="46.0516490" lon="10.4862880">
	<ele>2413.00</ele>
	<time>2023-08-06T08:49:54.000Z</time>
</trkpt>
<trkpt lat="46.0516490" lon="10.4862880">
	<ele>2413.00</ele>
	<time>2023-08-06T08:49:55.000Z</time>
</trkpt>
<trkpt lat="46.0516490" lon="10.4862880">
	<ele>2413.00</ele>
	<time>2023-08-06T08:49:56.000Z</time>
</trkpt>
<trkpt lat="46.0516490" lon="10.4862880">
	<ele>2413.00</ele>
	<time>2023-08-06T08:49:57.000Z</time>
</trkpt>
<trkpt lat="46.0516480" lon="10.4862880">
	<ele>2413.00</ele>
	<time>2023-08-06T08:49:58.000Z</time>
</trkpt>
<trkpt lat="46.0516480" lon="10.4862880">
	<ele>2413.00</ele>
	<time>2023-08-06T08:49:59.000Z</time>
</trkpt>
<trkpt lat="46.0516480" lon="10.4862880">
	<ele>2413.00</ele>
	<time>2023-08-06T08:50:00.000Z</time>
</trkpt>
<trkpt lat="46.0516480" lon="10.4862880">
	<ele>2413.00</ele>
	<time>2023-08-06T08:50:01.000Z</time>
</trkpt>
<trkpt lat="46.0516480" lon="10.4862880">
	<ele>2413.00</ele>
	<time>2023-08-06T08:50:02.000Z</time>
</trkpt>
<trkpt lat="46.0516480" lon="10.4862880">
	<ele>2413.00</ele>
	<time>2023-08-06T08:50:03.000Z</time>
</trkpt>
<trkpt lat="46.0516480" lon="10.4862880">
	<ele>2413.00</ele>
	<time>2023-08-06T08:50:04.000Z</time>
</trkpt>
<trkpt lat="46.0516480" lon="10.4862880">
	<ele>2413.00</ele>
	<time>2023-08-06T08:50:05.000Z</time>
</trkpt>
<trkpt lat="46.0516480" lon="10.4862880">
	<ele>2413.00</ele>
	<time>2023-08-06T08:50:06.000Z</time>
</trkpt>
<trkpt lat="46.0516480" lon="10.4862880">
	<ele>2413.00</ele>
	<time>2023-08-06T08:50:07.000Z</time>
</trkpt>
<trkpt lat="46.0516480" lon="10.4862880">
	<ele>2413.00</ele>
	<time>2023-08-06T08:50:08.000Z</time>
</trkpt>
<trkpt lat="46.0516480" lon="10.4862880">
	<ele>2413.00</ele>
	<time>2023-08-06T08:50:09.000Z</time>
</trkpt>
<trkpt lat="46.0516480" lon="10.4862880">
	<ele>2413.00</ele>
	<time>2023-08-06T08:50:10.000Z</time>
</trkpt>
<trkpt lat="46.0516480" lon="10.4862880">
	<ele>2413.00</ele>
	<time>2023-08-06T08:50:11.000Z</time>
</trkpt>
<trkpt lat="46.0516480" lon="10.4862880">
	<ele>2413.00</ele>
	<time>2023-08-06T08:50:12.000Z</time>
</trkpt>
<trkpt lat="46.0516480" lon="10.4862880">
	<ele>2413.00</ele>
	<time>2023-08-06T08:50:13.000Z</time>
</trkpt>
<trkpt lat="46.0516480" lon="10.4862880">
	<ele>2413.00</ele>
	<time>2023-08-06T08:50:14.000Z</time>
</trkpt>
<trkpt lat="46.0516480" lon="10.4862880">
	<ele>2413.00</ele>
	<time>2023-08-06T08:50:15.000Z</time>
</trkpt>
<trkpt lat="46.0516480" lon="10.4862880">
	<ele>2413.00</ele>
	<time>2023-08-06T08:50:16.000Z</time>
</trkpt>
<trkpt lat="46.0516480" lon="10.4862880">
	<ele>2413.00</ele>
	<time>2023-08-06T08:50:17.000Z</time>
</trkpt>
<trkpt lat="46.0516480" lon="10.4862880">
	<ele>2413.00</ele>
	<time>2023-08-06T08:50:18.000Z</time>
</trkpt>
<trkpt lat="46.0516480" lon="10.4862870">
	<ele>2413.00</ele>
	<time>2023-08-06T08:50:19.000Z</time>
</trkpt>
<trkpt lat="46.0516480" lon="10.4862870">
	<ele>2413.00</ele>
	<time>2023-08-06T08:50:20.000Z</time>
</trkpt>
<trkpt lat="46.0516480" lon="10.4862870">
	<ele>2413.00</ele>
	<time>2023-08-06T08:50:21.000Z</time>
</trkpt>
<trkpt lat="46.0516480" lon="10.4862870">
	<ele>2413.00</ele>
	<time>2023-08-06T08:50:22.000Z</time>
</trkpt>
<trkpt lat="46.0516480" lon="10.4862870">
	<ele>2413.00</ele>
	<time>2023-08-06T08:50:23.000Z</time>
</trkpt>
<trkpt lat="46.0516480" lon="10.4862870">
	<ele>2413.00</ele>
	<time>2023-08-06T08:50:24.000Z</time>
</trkpt>
<trkpt lat="46.0516480" lon="10.4862870">
	<ele>2413.00</ele>
	<time>2023-08-06T08:50:25.000Z</time>
</trkpt>
<trkpt lat="46.0516480" lon="10.4862870">
	<ele>2413.00</ele>
	<time>2023-08-06T08:50:26.000Z</time>
</trkpt>
<trkpt lat="46.0516480" lon="10.4862870">
	<ele>2413.00</ele>
	<time>2023-08-06T08:50:27.000Z</time>
</trkpt>
<trkpt lat="46.0516480" lon="10.4862870">
	<ele>2413.00</ele>
	<time>2023-08-06T08:50:28.000Z</time>
</trkpt>
<trkpt lat="46.0516480" lon="10.4862870">
	<ele>2413.00</ele>
	<time>2023-08-06T08:50:29.000Z</time>
</trkpt>
<trkpt lat="46.0516480" lon="10.4862870">
	<ele>2413.00</ele>
	<time>2023-08-06T08:50:30.000Z</time>
</trkpt>
<trkpt lat="46.0516480" lon="10.4862870">
	<ele>2413.00</ele>
	<time>2023-08-06T08:50:31.000Z</time>
</trkpt>
<trkpt lat="46.0516480" lon="10.4862870">
	<ele>2413.00</ele>
	<time>2023-08-06T08:50:32.000Z</time>
</trkpt>
<trkpt lat="46.0516480" lon="10.4862870">
	<ele>2413.00</ele>
	<time>2023-08-06T08:50:33.000Z</time>
</trkpt>
<trkpt lat="46.0516480" lon="10.4862870">
	<ele>2413.00</ele>
	<time>2023-08-06T08:50:34.000Z</time>
</trkpt>
<trkpt lat="46.0516480" lon="10.4862870">
	<ele>2413.00</ele>
	<time>2023-08-06T08:50:35.000Z</time>
</trkpt>
<trkpt lat="46.0516480" lon="10.4862870">
	<ele>2413.00</ele>
	<time>2023-08-06T08:50:36.000Z</time>
</trkpt>
<trkpt lat="46.0516480" lon="10.4862870">
	<ele>2413.00</ele>
	<time>2023-08-06T08:50:37.000Z</time>
</trkpt>
<trkpt lat="46.0516480" lon="10.4862870">
	<ele>2413.00</ele>
	<time>2023-08-06T08:50:38.000Z</time>
</trkpt>
<trkpt lat="46.0516480" lon="10.4862870">
	<ele>2413.00</ele>
	<time>2023-08-06T08:50:39.000Z</time>
</trkpt>
<trkpt lat="46.0516480" lon="10.4862870">
	<ele>2413.00</ele>
	<time>2023-08-06T08:50:40.000Z</time>
</trkpt>
<trkpt lat="46.0516480" lon="10.4862860">
	<ele>2413.00</ele>
	<time>2023-08-06T08:50:41.000Z</time>
</trkpt>
<trkpt lat="46.0516550" lon="10.4862830">
	<ele>2413.00</ele>
	<time>2023-08-06T08:50:42.000Z</time>
</trkpt>
<trkpt lat="46.0516740" lon="10.4862800">
	<ele>2413.00</ele>
	<time>2023-08-06T08:50:43.000Z</time>
</trkpt>
<trkpt lat="46.0516860" lon="10.4862800">
	<ele>2413.00</ele>
	<time>2023-08-06T08:50:44.000Z</time>
</trkpt>
<trkpt lat="46.0517010" lon="10.4862780">
	<ele>2413.00</ele>
	<time>2023-08-06T08:50:45.000Z</time>
</trkpt>
<trkpt lat="46.0517140" lon="10.4862760">
	<ele>2413.00</ele>
	<time>2023-08-06T08:50:46.000Z</time>
</trkpt>
<trkpt lat="46.0517240" lon="10.4862770">
	<ele>2413.00</ele>
	<time>2023-08-06T08:50:47.000Z</time>
</trkpt>
<trkpt lat="46.0517360" lon="10.4862770">
	<ele>2413.00</ele>
	<time>2023-08-06T08:50:48.000Z</time>
</trkpt>
<trkpt lat="46.0517490" lon="10.4862750">
	<ele>2413.00</ele>
	<time>2023-08-06T08:50:49.000Z</time>
</trkpt>
<trkpt lat="46.0517640" lon="10.4862770">
	<ele>2413.00</ele>
	<time>2023-08-06T08:50:50.000Z</time>
</trkpt>
<trkpt lat="46.0517790" lon="10.4862810">
	<ele>2413.00</ele>
	<time>2023-08-06T08:50:51.000Z</time>
</trkpt>
<trkpt lat="46.0517860" lon="10.4862870">
	<ele>2413.00</ele>
	<time>2023-08-06T08:50:52.000Z</time>
</trkpt>
<trkpt lat="46.0517920" lon="10.4862920">
	<ele>2413.00</ele>
	<time>2023-08-06T08:50:53.000Z</time>
</trkpt>
<trkpt lat="46.0518020" lon="10.4862960">
	<ele>2413.00</ele>
	<time>2023-08-06T08:50:54.000Z</time>
</trkpt>
<trkpt lat="46.0518130" lon="10.4862930">
	<ele>2413.00</ele>
	<time>2023-08-06T08:50:55.000Z</time>
</trkpt>
<trkpt lat="46.0518200" lon="10.4862880">
	<ele>2413.00</ele>
	<time>2023-08-06T08:50:56.000Z</time>
</trkpt>
<trkpt lat="46.0518250" lon="10.4862840">
	<ele>2413.00</ele>
	<time>2023-08-06T08:50:57.000Z</time>
</trkpt>
<trkpt lat="46.0518260" lon="10.4862750">
	<ele>2413.00</ele>
	<time>2023-08-06T08:50:58.000Z</time>
</trkpt>
<trkpt lat="46.0518310" lon="10.4862710">
	<ele>2413.00</ele>
	<time>2023-08-06T08:50:59.000Z</time>
</trkpt>
<trkpt lat="46.0518380" lon="10.4862710">
	<ele>2413.00</ele>
	<time>2023-08-06T08:51:00.000Z</time>
</trkpt>
<trkpt lat="46.0518470" lon="10.4862750">
	<ele>2413.00</ele>
	<time>2023-08-06T08:51:01.000Z</time>
</trkpt>
<trkpt lat="46.0518580" lon="10.4862810">
	<ele>2415.40</ele>
	<time>2023-08-06T08:51:02.000Z</time>
</trkpt>
<trkpt lat="46.0518670" lon="10.4862860">
	<ele>2415.40</ele>
	<time>2023-08-06T08:51:03.000Z</time>
</trkpt>
<trkpt lat="46.0518740" lon="10.4862900">
	<ele>2415.40</ele>
	<time>2023-08-06T08:51:04.000Z</time>
</trkpt>
<trkpt lat="46.0518780" lon="10.4862940">
	<ele>2415.40</ele>
	<time>2023-08-06T08:51:05.000Z</time>
</trkpt>
<trkpt lat="46.0518870" lon="10.4862990">
	<ele>2415.40</ele>
	<time>2023-08-06T08:51:06.000Z</time>
</trkpt>
<trkpt lat="46.0518910" lon="10.4863030">
	<ele>2415.40</ele>
	<time>2023-08-06T08:51:07.000Z</time>
</trkpt>
<trkpt lat="46.0518970" lon="10.4863120">
	<ele>2415.20</ele>
	<time>2023-08-06T08:51:08.000Z</time>
</trkpt>
<trkpt lat="46.0519000" lon="10.4863180">
	<ele>2415.20</ele>
	<time>2023-08-06T08:51:09.000Z</time>
</trkpt>
<trkpt lat="46.0519030" lon="10.4863280">
	<ele>2415.40</ele>
	<time>2023-08-06T08:51:10.000Z</time>
</trkpt>
<trkpt lat="46.0519070" lon="10.4863340">
	<ele>2415.40</ele>
	<time>2023-08-06T08:51:11.000Z</time>
</trkpt>
<trkpt lat="46.0519120" lon="10.4863420">
	<ele>2415.40</ele>
	<time>2023-08-06T08:51:12.000Z</time>
</trkpt>
<trkpt lat="46.0519120" lon="10.4863550">
	<ele>2415.40</ele>
	<time>2023-08-06T08:51:13.000Z</time>
</trkpt>
<trkpt lat="46.0519180" lon="10.4863630">
	<ele>2415.40</ele>
	<time>2023-08-06T08:51:14.000Z</time>
</trkpt>
<trkpt lat="46.0519210" lon="10.4863660">
	<ele>2415.40</ele>
	<time>2023-08-06T08:51:15.000Z</time>
</trkpt>
<trkpt lat="46.0519270" lon="10.4863700">
	<ele>2415.40</ele>
	<time>2023-08-06T08:51:16.000Z</time>
</trkpt>
<trkpt lat="46.0519330" lon="10.4863750">
	<ele>2415.60</ele>
	<time>2023-08-06T08:51:17.000Z</time>
</trkpt>
<trkpt lat="46.0519390" lon="10.4863840">
	<ele>2415.80</ele>
	<time>2023-08-06T08:51:18.000Z</time>
</trkpt>
<trkpt lat="46.0519450" lon="10.4863910">
	<ele>2415.80</ele>
	<time>2023-08-06T08:51:19.000Z</time>
</trkpt>
<trkpt lat="46.0519480" lon="10.4863980">
	<ele>2416.00</ele>
	<time>2023-08-06T08:51:20.000Z</time>
</trkpt>
<trkpt lat="46.0519500" lon="10.4864070">
	<ele>2416.00</ele>
	<time>2023-08-06T08:51:21.000Z</time>
</trkpt>
<trkpt lat="46.0519570" lon="10.4864160">
	<ele>2416.00</ele>
	<time>2023-08-06T08:51:22.000Z</time>
</trkpt>
<trkpt lat="46.0519590" lon="10.4864210">
	<ele>2416.00</ele>
	<time>2023-08-06T08:51:23.000Z</time>
</trkpt>
<trkpt lat="46.0519630" lon="10.4864250">
	<ele>2416.00</ele>
	<time>2023-08-06T08:51:24.000Z</time>
</trkpt>
<trkpt lat="46.0519690" lon="10.4864300">
	<ele>2416.00</ele>
	<time>2023-08-06T08:51:25.000Z</time>
</trkpt>
<trkpt lat="46.0519780" lon="10.4864350">
	<ele>2415.80</ele>
	<time>2023-08-06T08:51:26.000Z</time>
</trkpt>
<trkpt lat="46.0519860" lon="10.4864360">
	<ele>2415.80</ele>
	<time>2023-08-06T08:51:27.000Z</time>
</trkpt>
<trkpt lat="46.0519930" lon="10.4864350">
	<ele>2415.80</ele>
	<time>2023-08-06T08:51:28.000Z</time>
</trkpt>
<trkpt lat="46.0519920" lon="10.4864330">
	<ele>2415.80</ele>
	<time>2023-08-06T08:51:29.000Z</time>
</trkpt>
<trkpt lat="46.0519930" lon="10.4864400">
	<ele>2415.60</ele>
	<time>2023-08-06T08:51:30.000Z</time>
</trkpt>
<trkpt lat="46.0519930" lon="10.4864410">
	<ele>2415.60</ele>
	<time>2023-08-06T08:51:31.000Z</time>
</trkpt>
<trkpt lat="46.0519960" lon="10.4864410">
	<ele>2415.40</ele>
	<time>2023-08-06T08:51:32.000Z</time>
</trkpt>
<trkpt lat="46.0520030" lon="10.4864420">
	<ele>2415.40</ele>
	<time>2023-08-06T08:51:33.000Z</time>
</trkpt>
<trkpt lat="46.0520060" lon="10.4864420">
	<ele>2415.20</ele>
	<time>2023-08-06T08:51:34.000Z</time>
</trkpt>
<trkpt lat="46.0520080" lon="10.4864460">
	<ele>2415.00</ele>
	<time>2023-08-06T08:51:35.000Z</time>
</trkpt>
<trkpt lat="46.0520110" lon="10.4864480">
	<ele>2415.00</ele>
	<time>2023-08-06T08:51:36.000Z</time>
</trkpt>
<trkpt lat="46.0520280" lon="10.4864350">
	<ele>2414.80</ele>
	<time>2023-08-06T08:51:37.000Z</time>
</trkpt>
<trkpt lat="46.0520450" lon="10.4864320">
	<ele>2414.80</ele>
	<time>2023-08-06T08:51:38.000Z</time>
</trkpt>
<trkpt lat="46.0520510" lon="10.4864380">
	<ele>2414.80</ele>
	<time>2023-08-06T08:51:39.000Z</time>
</trkpt>
<trkpt lat="46.0520550" lon="10.4864430">
	<ele>2414.60</ele>
	<time>2023-08-06T08:51:40.000Z</time>
</trkpt>
<trkpt lat="46.0520610" lon="10.4864480">
	<ele>2414.40</ele>
	<time>2023-08-06T08:51:41.000Z</time>
</trkpt>
<trkpt lat="46.0520680" lon="10.4864590">
	<ele>2414.20</ele>
	<time>2023-08-06T08:51:42.000Z</time>
</trkpt>
<trkpt lat="46.0520790" lon="10.4864690">
	<ele>2414.20</ele>
	<time>2023-08-06T08:51:43.000Z</time>
</trkpt>
<trkpt lat="46.0520930" lon="10.4864790">
	<ele>2414.00</ele>
	<time>2023-08-06T08:51:44.000Z</time>
</trkpt>
<trkpt lat="46.0520990" lon="10.4864730">
	<ele>2414.00</ele>
	<time>2023-08-06T08:51:45.000Z</time>
</trkpt>
<trkpt lat="46.0521060" lon="10.4864760">
	<ele>2414.00</ele>
	<time>2023-08-06T08:51:46.000Z</time>
</trkpt>
<trkpt lat="46.0521070" lon="10.4864780">
	<ele>2414.00</ele>
	<time>2023-08-06T08:51:47.000Z</time>
</trkpt>
<trkpt lat="46.0521110" lon="10.4864810">
	<ele>2413.80</ele>
	<time>2023-08-06T08:51:48.000Z</time>
</trkpt>
<trkpt lat="46.0521170" lon="10.4864840">
	<ele>2413.40</ele>
	<time>2023-08-06T08:51:49.000Z</time>
</trkpt>
<trkpt lat="46.0521210" lon="10.4864860">
	<ele>2413.20</ele>
	<time>2023-08-06T08:51:50.000Z</time>
</trkpt>
<trkpt lat="46.0521260" lon="10.4864870">
	<ele>2413.00</ele>
	<time>2023-08-06T08:51:51.000Z</time>
</trkpt>
<trkpt lat="46.0521350" lon="10.4864830">
	<ele>2413.00</ele>
	<time>2023-08-06T08:51:52.000Z</time>
</trkpt>
<trkpt lat="46.0521460" lon="10.4864810">
	<ele>2413.00</ele>
	<time>2023-08-06T08:51:53.000Z</time>
</trkpt>
<trkpt lat="46.0521550" lon="10.4864760">
	<ele>2413.00</ele>
	<time>2023-08-06T08:51:54.000Z</time>
</trkpt>
<trkpt lat="46.0521670" lon="10.4864730">
	<ele>2413.00</ele>
	<time>2023-08-06T08:51:55.000Z</time>
</trkpt>
<trkpt lat="46.0521760" lon="10.4864740">
	<ele>2413.00</ele>
	<time>2023-08-06T08:51:56.000Z</time>
</trkpt>
<trkpt lat="46.0521860" lon="10.4864730">
	<ele>2413.00</ele>
	<time>2023-08-06T08:51:57.000Z</time>
</trkpt>
<trkpt lat="46.0521990" lon="10.4864720">
	<ele>2413.00</ele>
	<time>2023-08-06T08:51:58.000Z</time>
</trkpt>
<trkpt lat="46.0522100" lon="10.4864680">
	<ele>2413.00</ele>
	<time>2023-08-06T08:51:59.000Z</time>
</trkpt>
<trkpt lat="46.0522170" lon="10.4864680">
	<ele>2413.00</ele>
	<time>2023-08-06T08:52:00.000Z</time>
</trkpt>
<trkpt lat="46.0522210" lon="10.4864650">
	<ele>2413.00</ele>
	<time>2023-08-06T08:52:01.000Z</time>
</trkpt>
<trkpt lat="46.0522300" lon="10.4864570">
	<ele>2413.00</ele>
	<time>2023-08-06T08:52:02.000Z</time>
</trkpt>
<trkpt lat="46.0522360" lon="10.4864520">
	<ele>2413.20</ele>
	<time>2023-08-06T08:52:03.000Z</time>
</trkpt>
<trkpt lat="46.0522400" lon="10.4864490">
	<ele>2413.40</ele>
	<time>2023-08-06T08:52:04.000Z</time>
</trkpt>
<trkpt lat="46.0522410" lon="10.4864450">
	<ele>2413.40</ele>
	<time>2023-08-06T08:52:05.000Z</time>
</trkpt>
<trkpt lat="46.0522510" lon="10.4864340">
	<ele>2413.60</ele>
	<time>2023-08-06T08:52:06.000Z</time>
</trkpt>
<trkpt lat="46.0522560" lon="10.4864320">
	<ele>2413.60</ele>
	<time>2023-08-06T08:52:07.000Z</time>
</trkpt>
<trkpt lat="46.0522570" lon="10.4864280">
	<ele>2413.80</ele>
	<time>2023-08-06T08:52:08.000Z</time>
</trkpt>
<trkpt lat="46.0522580" lon="10.4864300">
	<ele>2413.80</ele>
	<time>2023-08-06T08:52:09.000Z</time>
</trkpt>
<trkpt lat="46.0522590" lon="10.4864320">
	<ele>2414.00</ele>
	<time>2023-08-06T08:52:10.000Z</time>
</trkpt>
<trkpt lat="46.0522620" lon="10.4864310">
	<ele>2414.00</ele>
	<time>2023-08-06T08:52:11.000Z</time>
</trkpt>
<trkpt lat="46.0522650" lon="10.4864300">
	<ele>2414.00</ele>
	<time>2023-08-06T08:52:12.000Z</time>
</trkpt>
<trkpt lat="46.0522670" lon="10.4864270">
	<ele>2414.00</ele>
	<time>2023-08-06T08:52:13.000Z</time>
</trkpt>
<trkpt lat="46.0522670" lon="10.4864250">
	<ele>2414.00</ele>
	<time>2023-08-06T08:52:14.000Z</time>
</trkpt>
<trkpt lat="46.0522660" lon="10.4864260">
	<ele>2414.00</ele>
	<time>2023-08-06T08:52:15.000Z</time>
</trkpt>
<trkpt lat="46.0522650" lon="10.4864250">
	<ele>2414.00</ele>
	<time>2023-08-06T08:52:16.000Z</time>
</trkpt>
<trkpt lat="46.0522660" lon="10.4864250">
	<ele>2414.20</ele>
	<time>2023-08-06T08:52:17.000Z</time>
</trkpt>
<trkpt lat="46.0522660" lon="10.4864250">
	<ele>2414.40</ele>
	<time>2023-08-06T08:52:18.000Z</time>
</trkpt>
<trkpt lat="46.0522660" lon="10.4864240">
	<ele>2414.60</ele>
	<time>2023-08-06T08:52:19.000Z</time>
</trkpt>
<trkpt lat="46.0522670" lon="10.4864200">
	<ele>2414.80</ele>
	<time>2023-08-06T08:52:20.000Z</time>
</trkpt>
<trkpt lat="46.0522670" lon="10.4864200">
	<ele>2415.00</ele>
	<time>2023-08-06T08:52:21.000Z</time>
</trkpt>
<trkpt lat="46.0522660" lon="10.4864190">
	<ele>2415.00</ele>
	<time>2023-08-06T08:52:22.000Z</time>
</trkpt>
<trkpt lat="46.0522660" lon="10.4864190">
	<ele>2415.00</ele>
	<time>2023-08-06T08:52:23.000Z</time>
</trkpt>
<trkpt lat="46.0522670" lon="10.4864180">
	<ele>2415.20</ele>
	<time>2023-08-06T08:52:24.000Z</time>
</trkpt>
<trkpt lat="46.0522690" lon="10.4864200">
	<ele>2415.20</ele>
	<time>2023-08-06T08:52:25.000Z</time>
</trkpt>
<trkpt lat="46.0522700" lon="10.4864210">
	<ele>2415.20</ele>
	<time>2023-08-06T08:52:26.000Z</time>
</trkpt>
<trkpt lat="46.0522700" lon="10.4864210">
	<ele>2415.20</ele>
	<time>2023-08-06T08:52:27.000Z</time>
</trkpt>
<trkpt lat="46.0522700" lon="10.4864210">
	<ele>2415.00</ele>
	<time>2023-08-06T08:52:28.000Z</time>
</trkpt>
<trkpt lat="46.0522700" lon="10.4864210">
	<ele>2415.00</ele>
	<time>2023-08-06T08:52:29.000Z</time>
</trkpt>
<trkpt lat="46.0522700" lon="10.4864210">
	<ele>2414.80</ele>
	<time>2023-08-06T08:52:30.000Z</time>
</trkpt>
<trkpt lat="46.0522700" lon="10.4864210">
	<ele>2414.60</ele>
	<time>2023-08-06T08:52:31.000Z</time>
</trkpt>
<trkpt lat="46.0522700" lon="10.4864210">
	<ele>2414.40</ele>
	<time>2023-08-06T08:52:32.000Z</time>
</trkpt>
<trkpt lat="46.0522700" lon="10.4864210">
	<ele>2414.40</ele>
	<time>2023-08-06T08:52:33.000Z</time>
</trkpt>
<trkpt lat="46.0522740" lon="10.4864200">
	<ele>2414.40</ele>
	<time>2023-08-06T08:52:34.000Z</time>
</trkpt>
<trkpt lat="46.0522850" lon="10.4864180">
	<ele>2414.40</ele>
	<time>2023-08-06T08:52:35.000Z</time>
</trkpt>
<trkpt lat="46.0522930" lon="10.4864170">
	<ele>2414.60</ele>
	<time>2023-08-06T08:52:36.000Z</time>
</trkpt>
<trkpt lat="46.0523010" lon="10.4864130">
	<ele>2414.60</ele>
	<time>2023-08-06T08:52:37.000Z</time>
</trkpt>
<trkpt lat="46.0523080" lon="10.4864060">
	<ele>2414.80</ele>
	<time>2023-08-06T08:52:38.000Z</time>
</trkpt>
<trkpt lat="46.0523170" lon="10.4864010">
	<ele>2415.00</ele>
	<time>2023-08-06T08:52:39.000Z</time>
</trkpt>
<trkpt lat="46.0523300" lon="10.4863990">
	<ele>2415.00</ele>
	<time>2023-08-06T08:52:40.000Z</time>
</trkpt>
<trkpt lat="46.0523440" lon="10.4863980">
	<ele>2415.20</ele>
	<time>2023-08-06T08:52:41.000Z</time>
</trkpt>
<trkpt lat="46.0523560" lon="10.4863960">
	<ele>2415.20</ele>
	<time>2023-08-06T08:52:42.000Z</time>
</trkpt>
<trkpt lat="46.0523650" lon="10.4863950">
	<ele>2415.40</ele>
	<time>2023-08-06T08:52:43.000Z</time>
</trkpt>
<trkpt lat="46.0523700" lon="10.4863950">
	<ele>2415.60</ele>
	<time>2023-08-06T08:52:44.000Z</time>
</trkpt>
<trkpt lat="46.0523740" lon="10.4863920">
	<ele>2415.60</ele>
	<time>2023-08-06T08:52:45.000Z</time>
</trkpt>
<trkpt lat="46.0523760" lon="10.4863900">
	<ele>2415.80</ele>
	<time>2023-08-06T08:52:46.000Z</time>
</trkpt>
<trkpt lat="46.0523820" lon="10.4863830">
	<ele>2416.00</ele>
	<time>2023-08-06T08:52:47.000Z</time>
</trkpt>
<trkpt lat="46.0523890" lon="10.4863810">
	<ele>2416.20</ele>
	<time>2023-08-06T08:52:48.000Z</time>
</trkpt>
<trkpt lat="46.0523990" lon="10.4863810">
	<ele>2416.40</ele>
	<time>2023-08-06T08:52:49.000Z</time>
</trkpt>
<trkpt lat="46.0524100" lon="10.4863800">
	<ele>2416.80</ele>
	<time>2023-08-06T08:52:50.000Z</time>
</trkpt>
<trkpt lat="46.0524190" lon="10.4863810">
	<ele>2416.80</ele>
	<time>2023-08-06T08:52:51.000Z</time>
</trkpt>
<trkpt lat="46.0524220" lon="10.4863800">
	<ele>2417.00</ele>
	<time>2023-08-06T08:52:52.000Z</time>
</trkpt>
<trkpt lat="46.0524270" lon="10.4863760">
	<ele>2417.00</ele>
	<time>2023-08-06T08:52:53.000Z</time>
</trkpt>
<trkpt lat="46.0524320" lon="10.4863730">
	<ele>2417.20</ele>
	<time>2023-08-06T08:52:54.000Z</time>
</trkpt>
<trkpt lat="46.0524380" lon="10.4863750">
	<ele>2417.40</ele>
	<time>2023-08-06T08:52:55.000Z</time>
</trkpt>
<trkpt lat="46.0524410" lon="10.4863740">
	<ele>2417.40</ele>
	<time>2023-08-06T08:52:56.000Z</time>
</trkpt>
<trkpt lat="46.0524450" lon="10.4863780">
	<ele>2417.60</ele>
	<time>2023-08-06T08:52:57.000Z</time>
</trkpt>
<trkpt lat="46.0524480" lon="10.4863790">
	<ele>2417.60</ele>
	<time>2023-08-06T08:52:58.000Z</time>
</trkpt>
<trkpt lat="46.0524560" lon="10.4863800">
	<ele>2417.80</ele>
	<time>2023-08-06T08:52:59.000Z</time>
</trkpt>
<trkpt lat="46.0524660" lon="10.4863780">
	<ele>2418.00</ele>
	<time>2023-08-06T08:53:00.000Z</time>
</trkpt>
<trkpt lat="46.0524720" lon="10.4863780">
	<ele>2418.00</ele>
	<time>2023-08-06T08:53:01.000Z</time>
</trkpt>
<trkpt lat="46.0524780" lon="10.4863790">
	<ele>2418.00</ele>
	<time>2023-08-06T08:53:02.000Z</time>
</trkpt>
<trkpt lat="46.0524820" lon="10.4863770">
	<ele>2418.20</ele>
	<time>2023-08-06T08:53:03.000Z</time>
</trkpt>
<trkpt lat="46.0524860" lon="10.4863780">
	<ele>2418.20</ele>
	<time>2023-08-06T08:53:04.000Z</time>
</trkpt>
<trkpt lat="46.0524900" lon="10.4863800">
	<ele>2418.40</ele>
	<time>2023-08-06T08:53:05.000Z</time>
</trkpt>
<trkpt lat="46.0524940" lon="10.4863790">
	<ele>2418.40</ele>
	<time>2023-08-06T08:53:06.000Z</time>
</trkpt>
<trkpt lat="46.0524980" lon="10.4863800">
	<ele>2418.40</ele>
	<time>2023-08-06T08:53:07.000Z</time>
</trkpt>
<trkpt lat="46.0525020" lon="10.4863850">
	<ele>2418.40</ele>
	<time>2023-08-06T08:53:08.000Z</time>
</trkpt>
<trkpt lat="46.0525060" lon="10.4863890">
	<ele>2418.20</ele>
	<time>2023-08-06T08:53:09.000Z</time>
</trkpt>
<trkpt lat="46.0525090" lon="10.4863920">
	<ele>2418.20</ele>
	<time>2023-08-06T08:53:10.000Z</time>
</trkpt>
<trkpt lat="46.0525120" lon="10.4863950">
	<ele>2418.20</ele>
	<time>2023-08-06T08:53:11.000Z</time>
</trkpt>
<trkpt lat="46.0525130" lon="10.4863990">
	<ele>2418.20</ele>
	<time>2023-08-06T08:53:12.000Z</time>
</trkpt>
<trkpt lat="46.0525150" lon="10.4864060">
	<ele>2418.20</ele>
	<time>2023-08-06T08:53:13.000Z</time>
</trkpt>
<trkpt lat="46.0525180" lon="10.4864140">
	<ele>2417.80</ele>
	<time>2023-08-06T08:53:14.000Z</time>
</trkpt>
<trkpt lat="46.0525210" lon="10.4864170">
	<ele>2417.80</ele>
	<time>2023-08-06T08:53:15.000Z</time>
</trkpt>
<trkpt lat="46.0525240" lon="10.4864210">
	<ele>2417.80</ele>
	<time>2023-08-06T08:53:16.000Z</time>
</trkpt>
<trkpt lat="46.0525240" lon="10.4864260">
	<ele>2417.80</ele>
	<time>2023-08-06T08:53:17.000Z</time>
</trkpt>
<trkpt lat="46.0525200" lon="10.4864260">
	<ele>2417.80</ele>
	<time>2023-08-06T08:53:18.000Z</time>
</trkpt>
<trkpt lat="46.0525200" lon="10.4864320">
	<ele>2417.80</ele>
	<time>2023-08-06T08:53:19.000Z</time>
</trkpt>
<trkpt lat="46.0525190" lon="10.4864390">
	<ele>2418.00</ele>
	<time>2023-08-06T08:53:20.000Z</time>
</trkpt>
<trkpt lat="46.0525190" lon="10.4864430">
	<ele>2418.20</ele>
	<time>2023-08-06T08:53:21.000Z</time>
</trkpt>
<trkpt lat="46.0525190" lon="10.4864440">
	<ele>2418.20</ele>
	<time>2023-08-06T08:53:22.000Z</time>
</trkpt>
<trkpt lat="46.0525200" lon="10.4864480">
	<ele>2418.40</ele>
	<time>2023-08-06T08:53:23.000Z</time>
</trkpt>
<trkpt lat="46.0525210" lon="10.4864550">
	<ele>2418.40</ele>
	<time>2023-08-06T08:53:24.000Z</time>
</trkpt>
<trkpt lat="46.0525260" lon="10.4864620">
	<ele>2418.40</ele>
	<time>2023-08-06T08:53:25.000Z</time>
</trkpt>
<trkpt lat="46.0525280" lon="10.4864660">
	<ele>2418.60</ele>
	<time>2023-08-06T08:53:26.000Z</time>
</trkpt>
<trkpt lat="46.0525300" lon="10.4864700">
	<ele>2418.60</ele>
	<time>2023-08-06T08:53:27.000Z</time>
</trkpt>
<trkpt lat="46.0525300" lon="10.4864710">
	<ele>2418.80</ele>
	<time>2023-08-06T08:53:28.000Z</time>
</trkpt>
<trkpt lat="46.0525280" lon="10.4864730">
	<ele>2418.80</ele>
	<time>2023-08-06T08:53:29.000Z</time>
</trkpt>
<trkpt lat="46.0525270" lon="10.4864770">
	<ele>2418.80</ele>
	<time>2023-08-06T08:53:30.000Z</time>
</trkpt>
<trkpt lat="46.0525270" lon="10.4864810">
	<ele>2419.00</ele>
	<time>2023-08-06T08:53:31.000Z</time>
</trkpt>
<trkpt lat="46.0525270" lon="10.4864860">
	<ele>2419.20</ele>
	<time>2023-08-06T08:53:32.000Z</time>
</trkpt>
<trkpt lat="46.0525270" lon="10.4864900">
	<ele>2419.20</ele>
	<time>2023-08-06T08:53:33.000Z</time>
</trkpt>
<trkpt lat="46.0525310" lon="10.4864940">
	<ele>2419.40</ele>
	<time>2023-08-06T08:53:34.000Z</time>
</trkpt>
<trkpt lat="46.0525330" lon="10.4864980">
	<ele>2419.60</ele>
	<time>2023-08-06T08:53:35.000Z</time>
</trkpt>
<trkpt lat="46.0525340" lon="10.4865030">
	<ele>2419.80</ele>
	<time>2023-08-06T08:53:36.000Z</time>
</trkpt>
<trkpt lat="46.0525300" lon="10.4865060">
	<ele>2419.80</ele>
	<time>2023-08-06T08:53:37.000Z</time>
</trkpt>
<trkpt lat="46.0525210" lon="10.4865040">
	<ele>2420.00</ele>
	<time>2023-08-06T08:53:38.000Z</time>
</trkpt>
<trkpt lat="46.0525180" lon="10.4865060">
	<ele>2420.00</ele>
	<time>2023-08-06T08:53:39.000Z</time>
</trkpt>
<trkpt lat="46.0525170" lon="10.4865090">
	<ele>2420.40</ele>
	<time>2023-08-06T08:53:40.000Z</time>
</trkpt>
<trkpt lat="46.0525170" lon="10.4865100">
	<ele>2420.40</ele>
	<time>2023-08-06T08:53:41.000Z</time>
</trkpt>
<trkpt lat="46.0525180" lon="10.4865120">
	<ele>2420.60</ele>
	<time>2023-08-06T08:53:42.000Z</time>
</trkpt>
<trkpt lat="46.0525180" lon="10.4865130">
	<ele>2420.60</ele>
	<time>2023-08-06T08:53:43.000Z</time>
</trkpt>
<trkpt lat="46.0525180" lon="10.4865130">
	<ele>2420.80</ele>
	<time>2023-08-06T08:53:44.000Z</time>
</trkpt>
<trkpt lat="46.0525180" lon="10.4865130">
	<ele>2420.80</ele>
	<time>2023-08-06T08:53:45.000Z</time>
</trkpt>
<trkpt lat="46.0525180" lon="10.4865130">
	<ele>2421.00</ele>
	<time>2023-08-06T08:53:46.000Z</time>
</trkpt>
<trkpt lat="46.0525180" lon="10.4865130">
	<ele>2421.20</ele>
	<time>2023-08-06T08:53:47.000Z</time>
</trkpt>
<trkpt lat="46.0525180" lon="10.4865130">
	<ele>2421.40</ele>
	<time>2023-08-06T08:53:48.000Z</time>
</trkpt>
<trkpt lat="46.0525180" lon="10.4865130">
	<ele>2421.40</ele>
	<time>2023-08-06T08:53:49.000Z</time>
</trkpt>
<trkpt lat="46.0525180" lon="10.4865130">
	<ele>2421.40</ele>
	<time>2023-08-06T08:53:50.000Z</time>
</trkpt>
<trkpt lat="46.0525180" lon="10.4865130">
	<ele>2421.60</ele>
	<time>2023-08-06T08:53:51.000Z</time>
</trkpt>
<trkpt lat="46.0525180" lon="10.4865130">
	<ele>2421.60</ele>
	<time>2023-08-06T08:53:52.000Z</time>
</trkpt>
<trkpt lat="46.0525180" lon="10.4865130">
	<ele>2421.80</ele>
	<time>2023-08-06T08:53:53.000Z</time>
</trkpt>
<trkpt lat="46.0525180" lon="10.4865130">
	<ele>2422.00</ele>
	<time>2023-08-06T08:53:54.000Z</time>
</trkpt>
<trkpt lat="46.0525180" lon="10.4865130">
	<ele>2422.20</ele>
	<time>2023-08-06T08:53:55.000Z</time>
</trkpt>
<trkpt lat="46.0525180" lon="10.4865130">
	<ele>2422.20</ele>
	<time>2023-08-06T08:53:56.000Z</time>
</trkpt>
<trkpt lat="46.0525170" lon="10.4865130">
	<ele>2422.40</ele>
	<time>2023-08-06T08:53:57.000Z</time>
</trkpt>
<trkpt lat="46.0525170" lon="10.4865130">
	<ele>2422.60</ele>
	<time>2023-08-06T08:53:58.000Z</time>
</trkpt>
<trkpt lat="46.0525170" lon="10.4865160">
	<ele>2422.60</ele>
	<time>2023-08-06T08:53:59.000Z</time>
</trkpt>
<trkpt lat="46.0525180" lon="10.4865220">
	<ele>2422.80</ele>
	<time>2023-08-06T08:54:00.000Z</time>
</trkpt>
<trkpt lat="46.0525200" lon="10.4865320">
	<ele>2422.80</ele>
	<time>2023-08-06T08:54:01.000Z</time>
</trkpt>
<trkpt lat="46.0525200" lon="10.4865410">
	<ele>2423.00</ele>
	<time>2023-08-06T08:54:02.000Z</time>
</trkpt>
<trkpt lat="46.0525210" lon="10.4865500">
	<ele>2423.00</ele>
	<time>2023-08-06T08:54:03.000Z</time>
</trkpt>
<trkpt lat="46.0525230" lon="10.4865560">
	<ele>2423.00</ele>
	<time>2023-08-06T08:54:04.000Z</time>
</trkpt>
<trkpt lat="46.0525250" lon="10.4865620">
	<ele>2423.20</ele>
	<time>2023-08-06T08:54:05.000Z</time>
</trkpt>
<trkpt lat="46.0525270" lon="10.4865680">
	<ele>2423.20</ele>
	<time>2023-08-06T08:54:06.000Z</time>
</trkpt>
<trkpt lat="46.0525310" lon="10.4865790">
	<ele>2423.40</ele>
	<time>2023-08-06T08:54:07.000Z</time>
</trkpt>
<trkpt lat="46.0525320" lon="10.4865860">
	<ele>2423.40</ele>
	<time>2023-08-06T08:54:08.000Z</time>
</trkpt>
<trkpt lat="46.0525330" lon="10.4865950">
	<ele>2423.60</ele>
	<time>2023-08-06T08:54:09.000Z</time>
</trkpt>
<trkpt lat="46.0525390" lon="10.4865990">
	<ele>2423.80</ele>
	<time>2023-08-06T08:54:10.000Z</time>
</trkpt>
<trkpt lat="46.0525380" lon="10.4866000">
	<ele>2423.80</ele>
	<time>2023-08-06T08:54:11.000Z</time>
</trkpt>
<trkpt lat="46.0525370" lon="10.4866020">
	<ele>2424.00</ele>
	<time>2023-08-06T08:54:12.000Z</time>
</trkpt>
<trkpt lat="46.0525340" lon="10.4866100">
	<ele>2424.00</ele>
	<time>2023-08-06T08:54:13.000Z</time>
</trkpt>
<trkpt lat="46.0525270" lon="10.4866170">
	<ele>2424.20</ele>
	<time>2023-08-06T08:54:14.000Z</time>
</trkpt>
<trkpt lat="46.0525210" lon="10.4866230">
	<ele>2424.20</ele>
	<time>2023-08-06T08:54:15.000Z</time>
</trkpt>
<trkpt lat="46.0525240" lon="10.4866260">
	<ele>2424.40</ele>
	<time>2023-08-06T08:54:16.000Z</time>
</trkpt>
<trkpt lat="46.0525260" lon="10.4866310">
	<ele>2424.40</ele>
	<time>2023-08-06T08:54:17.000Z</time>
</trkpt>
<trkpt lat="46.0525280" lon="10.4866400">
	<ele>2424.60</ele>
	<time>2023-08-06T08:54:18.000Z</time>
</trkpt>
<trkpt lat="46.0525290" lon="10.4866480">
	<ele>2424.60</ele>
	<time>2023-08-06T08:54:19.000Z</time>
</trkpt>
<trkpt lat="46.0525280" lon="10.4866520">
	<ele>2424.60</ele>
	<time>2023-08-06T08:54:20.000Z</time>
</trkpt>
<trkpt lat="46.0525250" lon="10.4866570">
	<ele>2424.80</ele>
	<time>2023-08-06T08:54:21.000Z</time>
</trkpt>
<trkpt lat="46.0525220" lon="10.4866620">
	<ele>2424.80</ele>
	<time>2023-08-06T08:54:22.000Z</time>
</trkpt>
<trkpt lat="46.0525210" lon="10.4866670">
	<ele>2425.00</ele>
	<time>2023-08-06T08:54:23.000Z</time>
</trkpt>
<trkpt lat="46.0525180" lon="10.4866710">
	<ele>2425.20</ele>
	<time>2023-08-06T08:54:24.000Z</time>
</trkpt>
<trkpt lat="46.0525170" lon="10.4866730">
	<ele>2425.40</ele>
	<time>2023-08-06T08:54:25.000Z</time>
</trkpt>
<trkpt lat="46.0525170" lon="10.4866750">
	<ele>2425.40</ele>
	<time>2023-08-06T08:54:26.000Z</time>
</trkpt>
<trkpt lat="46.0525190" lon="10.4866770">
	<ele>2425.60</ele>
	<time>2023-08-06T08:54:27.000Z</time>
</trkpt>
<trkpt lat="46.0525180" lon="10.4866810">
	<ele>2425.80</ele>
	<time>2023-08-06T08:54:28.000Z</time>
</trkpt>
<trkpt lat="46.0525150" lon="10.4866870">
	<ele>2425.80</ele>
	<time>2023-08-06T08:54:29.000Z</time>
</trkpt>
<trkpt lat="46.0525130" lon="10.4866950">
	<ele>2426.00</ele>
	<time>2023-08-06T08:54:30.000Z</time>
</trkpt>
<trkpt lat="46.0525120" lon="10.4866970">
	<ele>2426.00</ele>
	<time>2023-08-06T08:54:31.000Z</time>
</trkpt>
<trkpt lat="46.0525120" lon="10.4866970">
	<ele>2426.00</ele>
	<time>2023-08-06T08:54:32.000Z</time>
</trkpt>
<trkpt lat="46.0525120" lon="10.4866970">
	<ele>2426.20</ele>
	<time>2023-08-06T08:54:33.000Z</time>
</trkpt>
<trkpt lat="46.0525120" lon="10.4866970">
	<ele>2426.20</ele>
	<time>2023-08-06T08:54:34.000Z</time>
</trkpt>
<trkpt lat="46.0525120" lon="10.4866970">
	<ele>2426.40</ele>
	<time>2023-08-06T08:54:35.000Z</time>
</trkpt>
<trkpt lat="46.0525120" lon="10.4866970">
	<ele>2426.60</ele>
	<time>2023-08-06T08:54:36.000Z</time>
</trkpt>
<trkpt lat="46.0525120" lon="10.4866970">
	<ele>2426.60</ele>
	<time>2023-08-06T08:54:37.000Z</time>
</trkpt>
<trkpt lat="46.0525120" lon="10.4866970">
	<ele>2426.80</ele>
	<time>2023-08-06T08:54:38.000Z</time>
</trkpt>
<trkpt lat="46.0525120" lon="10.4866970">
	<ele>2426.80</ele>
	<time>2023-08-06T08:54:39.000Z</time>
</trkpt>
<trkpt lat="46.0525120" lon="10.4866970">
	<ele>2427.00</ele>
	<time>2023-08-06T08:54:40.000Z</time>
</trkpt>
<trkpt lat="46.0525120" lon="10.4866970">
	<ele>2427.20</ele>
	<time>2023-08-06T08:54:41.000Z</time>
</trkpt>
<trkpt lat="46.0525130" lon="10.4866970">
	<ele>2427.40</ele>
	<time>2023-08-06T08:54:42.000Z</time>
</trkpt>
<trkpt lat="46.0525130" lon="10.4866970">
	<ele>2427.40</ele>
	<time>2023-08-06T08:54:43.000Z</time>
</trkpt>
<trkpt lat="46.0525130" lon="10.4866970">
	<ele>2427.60</ele>
	<time>2023-08-06T08:54:44.000Z</time>
</trkpt>
<trkpt lat="46.0525130" lon="10.4866970">
	<ele>2427.80</ele>
	<time>2023-08-06T08:54:45.000Z</time>
</trkpt>
<trkpt lat="46.0525120" lon="10.4867040">
	<ele>2427.80</ele>
	<time>2023-08-06T08:54:46.000Z</time>
</trkpt>
<trkpt lat="46.0525050" lon="10.4867130">
	<ele>2428.00</ele>
	<time>2023-08-06T08:54:47.000Z</time>
</trkpt>
<trkpt lat="46.0524970" lon="10.4867220">
	<ele>2428.00</ele>
	<time>2023-08-06T08:54:48.000Z</time>
</trkpt>
<trkpt lat="46.0524930" lon="10.4867290">
	<ele>2428.20</ele>
	<time>2023-08-06T08:54:49.000Z</time>
</trkpt>
<trkpt lat="46.0524920" lon="10.4867360">
	<ele>2428.20</ele>
	<time>2023-08-06T08:54:50.000Z</time>
</trkpt>
<trkpt lat="46.0524920" lon="10.4867460">
	<ele>2428.20</ele>
	<time>2023-08-06T08:54:51.000Z</time>
</trkpt>
<trkpt lat="46.0524920" lon="10.4867570">
	<ele>2428.40</ele>
	<time>2023-08-06T08:54:52.000Z</time>
</trkpt>
<trkpt lat="46.0524910" lon="10.4867660">
	<ele>2428.60</ele>
	<time>2023-08-06T08:54:53.000Z</time>
</trkpt>
<trkpt lat="46.0524900" lon="10.4867780">
	<ele>2428.80</ele>
	<time>2023-08-06T08:54:54.000Z</time>
</trkpt>
<trkpt lat="46.0524890" lon="10.4867910">
	<ele>2429.00</ele>
	<time>2023-08-06T08:54:55.000Z</time>
</trkpt>
<trkpt lat="46.0524850" lon="10.4867980">
	<ele>2429.20</ele>
	<time>2023-08-06T08:54:56.000Z</time>
</trkpt>
<trkpt lat="46.0524840" lon="10.4868000">
	<ele>2429.40</ele>
	<time>2023-08-06T08:54:57.000Z</time>
</trkpt>
<trkpt lat="46.0524810" lon="10.4868010">
	<ele>2429.40</ele>
	<time>2023-08-06T08:54:58.000Z</time>
</trkpt>
<trkpt lat="46.0524740" lon="10.4868030">
	<ele>2429.40</ele>
	<time>2023-08-06T08:54:59.000Z</time>
</trkpt>
<trkpt lat="46.0524750" lon="10.4868040">
	<ele>2429.40</ele>
	<time>2023-08-06T08:55:00.000Z</time>
</trkpt>
<trkpt lat="46.0524770" lon="10.4868050">
	<ele>2429.40</ele>
	<time>2023-08-06T08:55:01.000Z</time>
</trkpt>
<trkpt lat="46.0524750" lon="10.4868080">
	<ele>2429.40</ele>
	<time>2023-08-06T08:55:02.000Z</time>
</trkpt>
<trkpt lat="46.0524750" lon="10.4868110">
	<ele>2429.60</ele>
	<time>2023-08-06T08:55:03.000Z</time>
</trkpt>
<trkpt lat="46.0524750" lon="10.4868120">
	<ele>2429.60</ele>
	<time>2023-08-06T08:55:04.000Z</time>
</trkpt>
<trkpt lat="46.0524750" lon="10.4868140">
	<ele>2429.60</ele>
	<time>2023-08-06T08:55:05.000Z</time>
</trkpt>
<trkpt lat="46.0524760" lon="10.4868150">
	<ele>2429.60</ele>
	<time>2023-08-06T08:55:06.000Z</time>
</trkpt>
<trkpt lat="46.0524750" lon="10.4868160">
	<ele>2429.60</ele>
	<time>2023-08-06T08:55:07.000Z</time>
</trkpt>
<trkpt lat="46.0524750" lon="10.4868160">
	<ele>2429.60</ele>
	<time>2023-08-06T08:55:08.000Z</time>
</trkpt>
<trkpt lat="46.0524750" lon="10.4868160">
	<ele>2429.60</ele>
	<time>2023-08-06T08:55:09.000Z</time>
</trkpt>
<trkpt lat="46.0524750" lon="10.4868160">
	<ele>2429.80</ele>
	<time>2023-08-06T08:55:10.000Z</time>
</trkpt>
<trkpt lat="46.0524750" lon="10.4868160">
	<ele>2429.80</ele>
	<time>2023-08-06T08:55:11.000Z</time>
</trkpt>
<trkpt lat="46.0524750" lon="10.4868160">
	<ele>2430.00</ele>
	<time>2023-08-06T08:55:12.000Z</time>
</trkpt>
<trkpt lat="46.0524750" lon="10.4868160">
	<ele>2430.00</ele>
	<time>2023-08-06T08:55:13.000Z</time>
</trkpt>
<trkpt lat="46.0524750" lon="10.4868160">
	<ele>2430.20</ele>
	<time>2023-08-06T08:55:14.000Z</time>
</trkpt>
<trkpt lat="46.0524750" lon="10.4868160">
	<ele>2430.40</ele>
	<time>2023-08-06T08:55:15.000Z</time>
</trkpt>
<trkpt lat="46.0524750" lon="10.4868160">
	<ele>2430.40</ele>
	<time>2023-08-06T08:55:16.000Z</time>
</trkpt>
<trkpt lat="46.0524750" lon="10.4868160">
	<ele>2430.60</ele>
	<time>2023-08-06T08:55:17.000Z</time>
</trkpt>
<trkpt lat="46.0524750" lon="10.4868160">
	<ele>2430.60</ele>
	<time>2023-08-06T08:55:18.000Z</time>
</trkpt>
<trkpt lat="46.0524750" lon="10.4868160">
	<ele>2430.80</ele>
	<time>2023-08-06T08:55:19.000Z</time>
</trkpt>
<trkpt lat="46.0524750" lon="10.4868160">
	<ele>2430.80</ele>
	<time>2023-08-06T08:55:20.000Z</time>
</trkpt>
<trkpt lat="46.0524750" lon="10.4868160">
	<ele>2430.80</ele>
	<time>2023-08-06T08:55:21.000Z</time>
</trkpt>
<trkpt lat="46.0524740" lon="10.4868160">
	<ele>2430.80</ele>
	<time>2023-08-06T08:55:22.000Z</time>
</trkpt>
<trkpt lat="46.0524740" lon="10.4868180">
	<ele>2430.80</ele>
	<time>2023-08-06T08:55:23.000Z</time>
</trkpt>
<trkpt lat="46.0524740" lon="10.4868220">
	<ele>2431.00</ele>
	<time>2023-08-06T08:55:24.000Z</time>
</trkpt>
<trkpt lat="46.0524730" lon="10.4868270">
	<ele>2431.20</ele>
	<time>2023-08-06T08:55:25.000Z</time>
</trkpt>
<trkpt lat="46.0524710" lon="10.4868310">
	<ele>2431.20</ele>
	<time>2023-08-06T08:55:26.000Z</time>
</trkpt>
<trkpt lat="46.0524700" lon="10.4868340">
	<ele>2431.40</ele>
	<time>2023-08-06T08:55:27.000Z</time>
</trkpt>
<trkpt lat="46.0524670" lon="10.4868380">
	<ele>2431.80</ele>
	<time>2023-08-06T08:55:28.000Z</time>
</trkpt>
<trkpt lat="46.0524650" lon="10.4868440">
	<ele>2432.00</ele>
	<time>2023-08-06T08:55:29.000Z</time>
</trkpt>
<trkpt lat="46.0524640" lon="10.4868480">
	<ele>2432.20</ele>
	<time>2023-08-06T08:55:30.000Z</time>
</trkpt>
<trkpt lat="46.0524620" lon="10.4868510">
	<ele>2432.20</ele>
	<time>2023-08-06T08:55:31.000Z</time>
</trkpt>
<trkpt lat="46.0524610" lon="10.4868530">
	<ele>2432.40</ele>
	<time>2023-08-06T08:55:32.000Z</time>
</trkpt>
<trkpt lat="46.0524610" lon="10.4868540">
	<ele>2432.60</ele>
	<time>2023-08-06T08:55:33.000Z</time>
</trkpt>
<trkpt lat="46.0524610" lon="10.4868560">
	<ele>2432.80</ele>
	<time>2023-08-06T08:55:34.000Z</time>
</trkpt>
<trkpt lat="46.0524610" lon="10.4868570">
	<ele>2432.80</ele>
	<time>2023-08-06T08:55:35.000Z</time>
</trkpt>
<trkpt lat="46.0524610" lon="10.4868600">
	<ele>2433.00</ele>
	<time>2023-08-06T08:55:36.000Z</time>
</trkpt>
<trkpt lat="46.0524610" lon="10.4868640">
	<ele>2433.00</ele>
	<time>2023-08-06T08:55:37.000Z</time>
</trkpt>
<trkpt lat="46.0524610" lon="10.4868650">
	<ele>2433.00</ele>
	<time>2023-08-06T08:55:38.000Z</time>
</trkpt>
<trkpt lat="46.0524610" lon="10.4868670">
	<ele>2433.00</ele>
	<time>2023-08-06T08:55:39.000Z</time>
</trkpt>
<trkpt lat="46.0524610" lon="10.4868700">
	<ele>2433.00</ele>
	<time>2023-08-06T08:55:40.000Z</time>
</trkpt>
<trkpt lat="46.0524610" lon="10.4868740">
	<ele>2433.00</ele>
	<time>2023-08-06T08:55:41.000Z</time>
</trkpt>
<trkpt lat="46.0524610" lon="10.4868790">
	<ele>2433.00</ele>
	<time>2023-08-06T08:55:42.000Z</time>
</trkpt>
<trkpt lat="46.0524610" lon="10.4868830">
	<ele>2433.00</ele>
	<time>2023-08-06T08:55:43.000Z</time>
</trkpt>
<trkpt lat="46.0524610" lon="10.4868850">
	<ele>2433.00</ele>
	<time>2023-08-06T08:55:44.000Z</time>
</trkpt>
<trkpt lat="46.0524610" lon="10.4868860">
	<ele>2433.40</ele>
	<time>2023-08-06T08:55:45.000Z</time>
</trkpt>
<trkpt lat="46.0524610" lon="10.4868880">
	<ele>2433.80</ele>
	<time>2023-08-06T08:55:46.000Z</time>
</trkpt>
<trkpt lat="46.0524610" lon="10.4868890">
	<ele>2433.80</ele>
	<time>2023-08-06T08:55:47.000Z</time>
</trkpt>
<trkpt lat="46.0524610" lon="10.4868900">
	<ele>2434.00</ele>
	<time>2023-08-06T08:55:48.000Z</time>
</trkpt>
<trkpt lat="46.0524620" lon="10.4868900">
	<ele>2434.20</ele>
	<time>2023-08-06T08:55:49.000Z</time>
</trkpt>
<trkpt lat="46.0524660" lon="10.4868930">
	<ele>2434.40</ele>
	<time>2023-08-06T08:55:50.000Z</time>
</trkpt>
<trkpt lat="46.0524680" lon="10.4868940">
	<ele>2434.60</ele>
	<time>2023-08-06T08:55:51.000Z</time>
</trkpt>
<trkpt lat="46.0524680" lon="10.4868950">
	<ele>2434.80</ele>
	<time>2023-08-06T08:55:52.000Z</time>
</trkpt>
<trkpt lat="46.0524680" lon="10.4868960">
	<ele>2434.80</ele>
	<time>2023-08-06T08:55:53.000Z</time>
</trkpt>
<trkpt lat="46.0524700" lon="10.4868960">
	<ele>2434.80</ele>
	<time>2023-08-06T08:55:54.000Z</time>
</trkpt>
<trkpt lat="46.0524730" lon="10.4868990">
	<ele>2435.00</ele>
	<time>2023-08-06T08:55:55.000Z</time>
</trkpt>
<trkpt lat="46.0524740" lon="10.4869000">
	<ele>2435.00</ele>
	<time>2023-08-06T08:55:56.000Z</time>
</trkpt>
<trkpt lat="46.0524760" lon="10.4869010">
	<ele>2435.20</ele>
	<time>2023-08-06T08:55:57.000Z</time>
</trkpt>
<trkpt lat="46.0524790" lon="10.4869020">
	<ele>2435.40</ele>
	<time>2023-08-06T08:55:58.000Z</time>
</trkpt>
<trkpt lat="46.0524800" lon="10.4869020">
	<ele>2435.60</ele>
	<time>2023-08-06T08:55:59.000Z</time>
</trkpt>
<trkpt lat="46.0524810" lon="10.4869020">
	<ele>2435.60</ele>
	<time>2023-08-06T08:56:00.000Z</time>
</trkpt>
<trkpt lat="46.0524830" lon="10.4869030">
	<ele>2435.60</ele>
	<time>2023-08-06T08:56:01.000Z</time>
</trkpt>
<trkpt lat="46.0524840" lon="10.4869030">
	<ele>2435.80</ele>
	<time>2023-08-06T08:56:02.000Z</time>
</trkpt>
<trkpt lat="46.0524850" lon="10.4869060">
	<ele>2435.80</ele>
	<time>2023-08-06T08:56:03.000Z</time>
</trkpt>
<trkpt lat="46.0524860" lon="10.4869110">
	<ele>2436.00</ele>
	<time>2023-08-06T08:56:04.000Z</time>
</trkpt>
<trkpt lat="46.0524860" lon="10.4869160">
	<ele>2436.00</ele>
	<time>2023-08-06T08:56:05.000Z</time>
</trkpt>
<trkpt lat="46.0524870" lon="10.4869190">
	<ele>2436.20</ele>
	<time>2023-08-06T08:56:06.000Z</time>
</trkpt>
<trkpt lat="46.0524870" lon="10.4869230">
	<ele>2436.20</ele>
	<time>2023-08-06T08:56:07.000Z</time>
</trkpt>
<trkpt lat="46.0524870" lon="10.4869240">
	<ele>2436.40</ele>
	<time>2023-08-06T08:56:08.000Z</time>
</trkpt>
<trkpt lat="46.0524880" lon="10.4869260">
	<ele>2436.40</ele>
	<time>2023-08-06T08:56:09.000Z</time>
</trkpt>
<trkpt lat="46.0524880" lon="10.4869300">
	<ele>2436.60</ele>
	<time>2023-08-06T08:56:10.000Z</time>
</trkpt>
<trkpt lat="46.0524880" lon="10.4869350">
	<ele>2436.60</ele>
	<time>2023-08-06T08:56:11.000Z</time>
</trkpt>
<trkpt lat="46.0524890" lon="10.4869400">
	<ele>2436.80</ele>
	<time>2023-08-06T08:56:12.000Z</time>
</trkpt>
<trkpt lat="46.0524890" lon="10.4869440">
	<ele>2437.00</ele>
	<time>2023-08-06T08:56:13.000Z</time>
</trkpt>
<trkpt lat="46.0524900" lon="10.4869490">
	<ele>2437.00</ele>
	<time>2023-08-06T08:56:14.000Z</time>
</trkpt>
<trkpt lat="46.0524900" lon="10.4869540">
	<ele>2437.00</ele>
	<time>2023-08-06T08:56:15.000Z</time>
</trkpt>
<trkpt lat="46.0524900" lon="10.4869570">
	<ele>2437.20</ele>
	<time>2023-08-06T08:56:16.000Z</time>
</trkpt>
<trkpt lat="46.0524900" lon="10.4869580">
	<ele>2437.20</ele>
	<time>2023-08-06T08:56:17.000Z</time>
</trkpt>
<trkpt lat="46.0524900" lon="10.4869590">
	<ele>2437.40</ele>
	<time>2023-08-06T08:56:18.000Z</time>
</trkpt>
<trkpt lat="46.0524900" lon="10.4869590">
	<ele>2437.40</ele>
	<time>2023-08-06T08:56:19.000Z</time>
</trkpt>
<trkpt lat="46.0524900" lon="10.4869590">
	<ele>2437.60</ele>
	<time>2023-08-06T08:56:20.000Z</time>
</trkpt>
<trkpt lat="46.0524900" lon="10.4869590">
	<ele>2437.80</ele>
	<time>2023-08-06T08:56:21.000Z</time>
</trkpt>
<trkpt lat="46.0524920" lon="10.4869590">
	<ele>2437.80</ele>
	<time>2023-08-06T08:56:22.000Z</time>
</trkpt>
<trkpt lat="46.0524960" lon="10.4869600">
	<ele>2438.00</ele>
	<time>2023-08-06T08:56:23.000Z</time>
</trkpt>
<trkpt lat="46.0524980" lon="10.4869600">
	<ele>2438.00</ele>
	<time>2023-08-06T08:56:24.000Z</time>
</trkpt>
<trkpt lat="46.0524990" lon="10.4869610">
	<ele>2438.40</ele>
	<time>2023-08-06T08:56:25.000Z</time>
</trkpt>
<trkpt lat="46.0525020" lon="10.4869610">
	<ele>2438.60</ele>
	<time>2023-08-06T08:56:26.000Z</time>
</trkpt>
<trkpt lat="46.0525050" lon="10.4869620">
	<ele>2438.80</ele>
	<time>2023-08-06T08:56:27.000Z</time>
</trkpt>
<trkpt lat="46.0525080" lon="10.4869620">
	<ele>2439.00</ele>
	<time>2023-08-06T08:56:28.000Z</time>
</trkpt>
<trkpt lat="46.0525090" lon="10.4869630">
	<ele>2439.00</ele>
	<time>2023-08-06T08:56:29.000Z</time>
</trkpt>
<trkpt lat="46.0525100" lon="10.4869630">
	<ele>2439.00</ele>
	<time>2023-08-06T08:56:30.000Z</time>
</trkpt>
<trkpt lat="46.0525110" lon="10.4869640">
	<ele>2439.00</ele>
	<time>2023-08-06T08:56:31.000Z</time>
</trkpt>
<trkpt lat="46.0525110" lon="10.4869650">
	<ele>2439.00</ele>
	<time>2023-08-06T08:56:32.000Z</time>
</trkpt>
<trkpt lat="46.0525130" lon="10.4869660">
	<ele>2439.00</ele>
	<time>2023-08-06T08:56:33.000Z</time>
</trkpt>
<trkpt lat="46.0525180" lon="10.4869660">
	<ele>2439.00</ele>
	<time>2023-08-06T08:56:34.000Z</time>
</trkpt>
<trkpt lat="46.0525220" lon="10.4869660">
	<ele>2439.00</ele>
	<time>2023-08-06T08:56:35.000Z</time>
</trkpt>
<trkpt lat="46.0525250" lon="10.4869660">
	<ele>2439.00</ele>
	<time>2023-08-06T08:56:36.000Z</time>
</trkpt>
<trkpt lat="46.0525270" lon="10.4869670">
	<ele>2439.40</ele>
	<time>2023-08-06T08:56:37.000Z</time>
</trkpt>
<trkpt lat="46.0525290" lon="10.4869670">
	<ele>2439.60</ele>
	<time>2023-08-06T08:56:38.000Z</time>
</trkpt>
<trkpt lat="46.0525290" lon="10.4869710">
	<ele>2439.80</ele>
	<time>2023-08-06T08:56:39.000Z</time>
</trkpt>
<trkpt lat="46.0525300" lon="10.4869730">
	<ele>2439.80</ele>
	<time>2023-08-06T08:56:40.000Z</time>
</trkpt>
<trkpt lat="46.0525300" lon="10.4869750">
	<ele>2439.60</ele>
	<time>2023-08-06T08:56:41.000Z</time>
</trkpt>
<trkpt lat="46.0525300" lon="10.4869760">
	<ele>2439.40</ele>
	<time>2023-08-06T08:56:42.000Z</time>
</trkpt>
<trkpt lat="46.0525300" lon="10.4869770">
	<ele>2439.40</ele>
	<time>2023-08-06T08:56:43.000Z</time>
</trkpt>
<trkpt lat="46.0525300" lon="10.4869770">
	<ele>2439.40</ele>
	<time>2023-08-06T08:56:44.000Z</time>
</trkpt>
<trkpt lat="46.0525300" lon="10.4869780">
	<ele>2439.40</ele>
	<time>2023-08-06T08:56:45.000Z</time>
</trkpt>
<trkpt lat="46.0525300" lon="10.4869790">
	<ele>2439.40</ele>
	<time>2023-08-06T08:56:46.000Z</time>
</trkpt>
<trkpt lat="46.0525310" lon="10.4869790">
	<ele>2439.60</ele>
	<time>2023-08-06T08:56:47.000Z</time>
</trkpt>
<trkpt lat="46.0525310" lon="10.4869790">
	<ele>2439.80</ele>
	<time>2023-08-06T08:56:48.000Z</time>
</trkpt>
<trkpt lat="46.0525310" lon="10.4869800">
	<ele>2440.00</ele>
	<time>2023-08-06T08:56:49.000Z</time>
</trkpt>
<trkpt lat="46.0525310" lon="10.4869800">
	<ele>2440.20</ele>
	<time>2023-08-06T08:56:50.000Z</time>
</trkpt>
<trkpt lat="46.0525310" lon="10.4869810">
	<ele>2440.40</ele>
	<time>2023-08-06T08:56:51.000Z</time>
</trkpt>
<trkpt lat="46.0525310" lon="10.4869810">
	<ele>2440.40</ele>
	<time>2023-08-06T08:56:52.000Z</time>
</trkpt>
<trkpt lat="46.0525310" lon="10.4869820">
	<ele>2440.40</ele>
	<time>2023-08-06T08:56:53.000Z</time>
</trkpt>
<trkpt lat="46.0525310" lon="10.4869820">
	<ele>2440.60</ele>
	<time>2023-08-06T08:56:54.000Z</time>
</trkpt>
<trkpt lat="46.0525310" lon="10.4869830">
	<ele>2440.60</ele>
	<time>2023-08-06T08:56:55.000Z</time>
</trkpt>
<trkpt lat="46.0525320" lon="10.4869830">
	<ele>2440.80</ele>
	<time>2023-08-06T08:56:56.000Z</time>
</trkpt>
<trkpt lat="46.0525320" lon="10.4869830">
	<ele>2440.80</ele>
	<time>2023-08-06T08:56:57.000Z</time>
</trkpt>
<trkpt lat="46.0525330" lon="10.4869840">
	<ele>2441.00</ele>
	<time>2023-08-06T08:56:58.000Z</time>
</trkpt>
<trkpt lat="46.0525330" lon="10.4869840">
	<ele>2441.00</ele>
	<time>2023-08-06T08:56:59.000Z</time>
</trkpt>
<trkpt lat="46.0525330" lon="10.4869840">
	<ele>2441.00</ele>
	<time>2023-08-06T08:57:00.000Z</time>
</trkpt>
<trkpt lat="46.0525340" lon="10.4869840">
	<ele>2441.00</ele>
	<time>2023-08-06T08:57:01.000Z</time>
</trkpt>
<trkpt lat="46.0525340" lon="10.4869850">
	<ele>2441.20</ele>
	<time>2023-08-06T08:57:02.000Z</time>
</trkpt>
<trkpt lat="46.0525340" lon="10.4869850">
	<ele>2441.40</ele>
	<time>2023-08-06T08:57:03.000Z</time>
</trkpt>
<trkpt lat="46.0525340" lon="10.4869860">
	<ele>2441.60</ele>
	<time>2023-08-06T08:57:04.000Z</time>
</trkpt>
<trkpt lat="46.0525340" lon="10.4869860">
	<ele>2441.60</ele>
	<time>2023-08-06T08:57:05.000Z</time>
</trkpt>
<trkpt lat="46.0525340" lon="10.4869890">
	<ele>2441.60</ele>
	<time>2023-08-06T08:57:06.000Z</time>
</trkpt>
<trkpt lat="46.0525340" lon="10.4869920">
	<ele>2441.60</ele>
	<time>2023-08-06T08:57:07.000Z</time>
</trkpt>
<trkpt lat="46.0525340" lon="10.4869970">
	<ele>2441.60</ele>
	<time>2023-08-06T08:57:08.000Z</time>
</trkpt>
<trkpt lat="46.0525340" lon="10.4870010">
	<ele>2441.80</ele>
	<time>2023-08-06T08:57:09.000Z</time>
</trkpt>
<trkpt lat="46.0525340" lon="10.4870060">
	<ele>2441.80</ele>
	<time>2023-08-06T08:57:10.000Z</time>
</trkpt>
<trkpt lat="46.0525340" lon="10.4870100">
	<ele>2441.80</ele>
	<time>2023-08-06T08:57:11.000Z</time>
</trkpt>
<trkpt lat="46.0525340" lon="10.4870130">
	<ele>2441.80</ele>
	<time>2023-08-06T08:57:12.000Z</time>
</trkpt>
<trkpt lat="46.0525340" lon="10.4870160">
	<ele>2441.80</ele>
	<time>2023-08-06T08:57:13.000Z</time>
</trkpt>
<trkpt lat="46.0525340" lon="10.4870180">
	<ele>2441.80</ele>
	<time>2023-08-06T08:57:14.000Z</time>
</trkpt>
<trkpt lat="46.0525330" lon="10.4870210">
	<ele>2442.00</ele>
	<time>2023-08-06T08:57:15.000Z</time>
</trkpt>
<trkpt lat="46.0525330" lon="10.4870230">
	<ele>2442.00</ele>
	<time>2023-08-06T08:57:16.000Z</time>
</trkpt>
<trkpt lat="46.0525330" lon="10.4870260">
	<ele>2442.20</ele>
	<time>2023-08-06T08:57:17.000Z</time>
</trkpt>
<trkpt lat="46.0525320" lon="10.4870280">
	<ele>2442.40</ele>
	<time>2023-08-06T08:57:18.000Z</time>
</trkpt>
<trkpt lat="46.0525320" lon="10.4870300">
	<ele>2442.60</ele>
	<time>2023-08-06T08:57:19.000Z</time>
</trkpt>
<trkpt lat="46.0525320" lon="10.4870310">
	<ele>2442.80</ele>
	<time>2023-08-06T08:57:20.000Z</time>
</trkpt>
<trkpt lat="46.0525320" lon="10.4870310">
	<ele>2442.80</ele>
	<time>2023-08-06T08:57:21.000Z</time>
</trkpt>
<trkpt lat="46.0525320" lon="10.4870320">
	<ele>2442.80</ele>
	<time>2023-08-06T08:57:22.000Z</time>
</trkpt>
<trkpt lat="46.0525310" lon="10.4870320">
	<ele>2443.00</ele>
	<time>2023-08-06T08:57:23.000Z</time>
</trkpt>
<trkpt lat="46.0525310" lon="10.4870330">
	<ele>2443.00</ele>
	<time>2023-08-06T08:57:24.000Z</time>
</trkpt>
<trkpt lat="46.0525310" lon="10.4870330">
	<ele>2443.20</ele>
	<time>2023-08-06T08:57:25.000Z</time>
</trkpt>
<trkpt lat="46.0525300" lon="10.4870340">
	<ele>2443.20</ele>
	<time>2023-08-06T08:57:26.000Z</time>
</trkpt>
<trkpt lat="46.0525300" lon="10.4870350">
	<ele>2443.40</ele>
	<time>2023-08-06T08:57:27.000Z</time>
</trkpt>
<trkpt lat="46.0525300" lon="10.4870350">
	<ele>2443.60</ele>
	<time>2023-08-06T08:57:28.000Z</time>
</trkpt>
<trkpt lat="46.0525300" lon="10.4870370">
	<ele>2443.80</ele>
	<time>2023-08-06T08:57:29.000Z</time>
</trkpt>
<trkpt lat="46.0525300" lon="10.4870380">
	<ele>2444.00</ele>
	<time>2023-08-06T08:57:30.000Z</time>
</trkpt>
<trkpt lat="46.0525300" lon="10.4870410">
	<ele>2444.00</ele>
	<time>2023-08-06T08:57:31.000Z</time>
</trkpt>
<trkpt lat="46.0525300" lon="10.4870430">
	<ele>2444.20</ele>
	<time>2023-08-06T08:57:32.000Z</time>
</trkpt>
<trkpt lat="46.0525300" lon="10.4870450">
	<ele>2444.20</ele>
	<time>2023-08-06T08:57:33.000Z</time>
</trkpt>
<trkpt lat="46.0525300" lon="10.4870480">
	<ele>2444.20</ele>
	<time>2023-08-06T08:57:34.000Z</time>
</trkpt>
<trkpt lat="46.0525300" lon="10.4870510">
	<ele>2444.20</ele>
	<time>2023-08-06T08:57:35.000Z</time>
</trkpt>
<trkpt lat="46.0525300" lon="10.4870540">
	<ele>2444.40</ele>
	<time>2023-08-06T08:57:36.000Z</time>
</trkpt>
<trkpt lat="46.0525300" lon="10.4870580">
	<ele>2444.60</ele>
	<time>2023-08-06T08:57:37.000Z</time>
</trkpt>
<trkpt lat="46.0525300" lon="10.4870620">
	<ele>2444.60</ele>
	<time>2023-08-06T08:57:38.000Z</time>
</trkpt>
<trkpt lat="46.0525300" lon="10.4870660">
	<ele>2444.60</ele>
	<time>2023-08-06T08:57:39.000Z</time>
</trkpt>
<trkpt lat="46.0525300" lon="10.4870690">
	<ele>2444.80</ele>
	<time>2023-08-06T08:57:40.000Z</time>
</trkpt>
<trkpt lat="46.0525300" lon="10.4870720">
	<ele>2444.80</ele>
	<time>2023-08-06T08:57:41.000Z</time>
</trkpt>
<trkpt lat="46.0525300" lon="10.4870750">
	<ele>2445.00</ele>
	<time>2023-08-06T08:57:42.000Z</time>
</trkpt>
<trkpt lat="46.0525300" lon="10.4870780">
	<ele>2445.20</ele>
	<time>2023-08-06T08:57:43.000Z</time>
</trkpt>
<trkpt lat="46.0525300" lon="10.4870810">
	<ele>2445.20</ele>
	<time>2023-08-06T08:57:44.000Z</time>
</trkpt>
<trkpt lat="46.0525310" lon="10.4870840">
	<ele>2445.40</ele>
	<time>2023-08-06T08:57:45.000Z</time>
</trkpt>
<trkpt lat="46.0525310" lon="10.4870870">
	<ele>2445.40</ele>
	<time>2023-08-06T08:57:46.000Z</time>
</trkpt>
<trkpt lat="46.0525320" lon="10.4870900">
	<ele>2445.60</ele>
	<time>2023-08-06T08:57:47.000Z</time>
</trkpt>
<trkpt lat="46.0525330" lon="10.4870930">
	<ele>2445.60</ele>
	<time>2023-08-06T08:57:48.000Z</time>
</trkpt>
<trkpt lat="46.0525340" lon="10.4870960">
	<ele>2445.80</ele>
	<time>2023-08-06T08:57:49.000Z</time>
</trkpt>
<trkpt lat="46.0525360" lon="10.4870990">
	<ele>2445.80</ele>
	<time>2023-08-06T08:57:50.000Z</time>
</trkpt>
<trkpt lat="46.0525380" lon="10.4871030">
	<ele>2445.80</ele>
	<time>2023-08-06T08:57:51.000Z</time>
</trkpt>
<trkpt lat="46.0525390" lon="10.4871120">
	<ele>2446.00</ele>
	<time>2023-08-06T08:57:52.000Z</time>
</trkpt>
<trkpt lat="46.0525420" lon="10.4871240">
	<ele>2446.00</ele>
	<time>2023-08-06T08:57:53.000Z</time>
</trkpt>
<trkpt lat="46.0525440" lon="10.4871430">
	<ele>2446.20</ele>
	<time>2023-08-06T08:57:54.000Z</time>
</trkpt>
<trkpt lat="46.0525460" lon="10.4871570">
	<ele>2446.40</ele>
	<time>2023-08-06T08:57:55.000Z</time>
</trkpt>
<trkpt lat="46.0525450" lon="10.4871690">
	<ele>2446.60</ele>
	<time>2023-08-06T08:57:56.000Z</time>
</trkpt>
<trkpt lat="46.0525450" lon="10.4871810">
	<ele>2446.80</ele>
	<time>2023-08-06T08:57:57.000Z</time>
</trkpt>
<trkpt lat="46.0525470" lon="10.4871920">
	<ele>2446.80</ele>
	<time>2023-08-06T08:57:58.000Z</time>
</trkpt>
<trkpt lat="46.0525520" lon="10.4872010">
	<ele>2447.00</ele>
	<time>2023-08-06T08:57:59.000Z</time>
</trkpt>
<trkpt lat="46.0525560" lon="10.4872120">
	<ele>2447.00</ele>
	<time>2023-08-06T08:58:00.000Z</time>
</trkpt>
<trkpt lat="46.0525580" lon="10.4872210">
	<ele>2447.00</ele>
	<time>2023-08-06T08:58:01.000Z</time>
</trkpt>
<trkpt lat="46.0525610" lon="10.4872270">
	<ele>2447.00</ele>
	<time>2023-08-06T08:58:02.000Z</time>
</trkpt>
<trkpt lat="46.0525620" lon="10.4872290">
	<ele>2447.20</ele>
	<time>2023-08-06T08:58:03.000Z</time>
</trkpt>
<trkpt lat="46.0525600" lon="10.4872250">
	<ele>2447.20</ele>
	<time>2023-08-06T08:58:04.000Z</time>
</trkpt>
<trkpt lat="46.0525600" lon="10.4872160">
	<ele>2447.20</ele>
	<time>2023-08-06T08:58:05.000Z</time>
</trkpt>
<trkpt lat="46.0525600" lon="10.4872130">
	<ele>2447.40</ele>
	<time>2023-08-06T08:58:06.000Z</time>
</trkpt>
<trkpt lat="46.0525610" lon="10.4872130">
	<ele>2447.40</ele>
	<time>2023-08-06T08:58:07.000Z</time>
</trkpt>
<trkpt lat="46.0525700" lon="10.4872150">
	<ele>2447.60</ele>
	<time>2023-08-06T08:58:08.000Z</time>
</trkpt>
<trkpt lat="46.0525740" lon="10.4872210">
	<ele>2447.80</ele>
	<time>2023-08-06T08:58:09.000Z</time>
</trkpt>
<trkpt lat="46.0525780" lon="10.4872250">
	<ele>2448.00</ele>
	<time>2023-08-06T08:58:10.000Z</time>
</trkpt>
<trkpt lat="46.0525800" lon="10.4872280">
	<ele>2448.40</ele>
	<time>2023-08-06T08:58:11.000Z</time>
</trkpt>
<trkpt lat="46.0525820" lon="10.4872300">
	<ele>2448.60</ele>
	<time>2023-08-06T08:58:12.000Z</time>
</trkpt>
<trkpt lat="46.0525830" lon="10.4872350">
	<ele>2448.60</ele>
	<time>2023-08-06T08:58:13.000Z</time>
</trkpt>
<trkpt lat="46.0525830" lon="10.4872380">
	<ele>2448.80</ele>
	<time>2023-08-06T08:58:14.000Z</time>
</trkpt>
<trkpt lat="46.0525830" lon="10.4872410">
	<ele>2448.80</ele>
	<time>2023-08-06T08:58:15.000Z</time>
</trkpt>
<trkpt lat="46.0525830" lon="10.4872430">
	<ele>2449.00</ele>
	<time>2023-08-06T08:58:16.000Z</time>
</trkpt>
<trkpt lat="46.0525840" lon="10.4872450">
	<ele>2449.00</ele>
	<time>2023-08-06T08:58:17.000Z</time>
</trkpt>
<trkpt lat="46.0525890" lon="10.4872510">
	<ele>2449.00</ele>
	<time>2023-08-06T08:58:18.000Z</time>
</trkpt>
<trkpt lat="46.0525940" lon="10.4872550">
	<ele>2449.00</ele>
	<time>2023-08-06T08:58:19.000Z</time>
</trkpt>
<trkpt lat="46.0525980" lon="10.4872600">
	<ele>2449.20</ele>
	<time>2023-08-06T08:58:20.000Z</time>
</trkpt>
<trkpt lat="46.0526000" lon="10.4872620">
	<ele>2449.40</ele>
	<time>2023-08-06T08:58:21.000Z</time>
</trkpt>
<trkpt lat="46.0526010" lon="10.4872620">
	<ele>2449.60</ele>
	<time>2023-08-06T08:58:22.000Z</time>
</trkpt>
<trkpt lat="46.0526020" lon="10.4872640">
	<ele>2449.60</ele>
	<time>2023-08-06T08:58:23.000Z</time>
</trkpt>
<trkpt lat="46.0526040" lon="10.4872650">
	<ele>2449.60</ele>
	<time>2023-08-06T08:58:24.000Z</time>
</trkpt>
<trkpt lat="46.0526050" lon="10.4872670">
	<ele>2449.60</ele>
	<time>2023-08-06T08:58:25.000Z</time>
</trkpt>
<trkpt lat="46.0526060" lon="10.4872650">
	<ele>2449.60</ele>
	<time>2023-08-06T08:58:26.000Z</time>
</trkpt>
<trkpt lat="46.0526070" lon="10.4872660">
	<ele>2449.60</ele>
	<time>2023-08-06T08:58:27.000Z</time>
</trkpt>
<trkpt lat="46.0526110" lon="10.4872680">
	<ele>2449.60</ele>
	<time>2023-08-06T08:58:28.000Z</time>
</trkpt>
<trkpt lat="46.0526120" lon="10.4872700">
	<ele>2449.60</ele>
	<time>2023-08-06T08:58:29.000Z</time>
</trkpt>
<trkpt lat="46.0526120" lon="10.4872720">
	<ele>2449.80</ele>
	<time>2023-08-06T08:58:30.000Z</time>
</trkpt>
<trkpt lat="46.0526120" lon="10.4872720">
	<ele>2450.00</ele>
	<time>2023-08-06T08:58:31.000Z</time>
</trkpt>
<trkpt lat="46.0526120" lon="10.4872720">
	<ele>2450.20</ele>
	<time>2023-08-06T08:58:32.000Z</time>
</trkpt>
<trkpt lat="46.0526120" lon="10.4872720">
	<ele>2450.20</ele>
	<time>2023-08-06T08:58:33.000Z</time>
</trkpt>
<trkpt lat="46.0526120" lon="10.4872720">
	<ele>2450.40</ele>
	<time>2023-08-06T08:58:34.000Z</time>
</trkpt>
<trkpt lat="46.0526120" lon="10.4872720">
	<ele>2450.40</ele>
	<time>2023-08-06T08:58:35.000Z</time>
</trkpt>
<trkpt lat="46.0526120" lon="10.4872720">
	<ele>2450.40</ele>
	<time>2023-08-06T08:58:36.000Z</time>
</trkpt>
<trkpt lat="46.0526120" lon="10.4872720">
	<ele>2450.60</ele>
	<time>2023-08-06T08:58:37.000Z</time>
</trkpt>
<trkpt lat="46.0526120" lon="10.4872720">
	<ele>2450.60</ele>
	<time>2023-08-06T08:58:38.000Z</time>
</trkpt>
<trkpt lat="46.0526120" lon="10.4872720">
	<ele>2450.80</ele>
	<time>2023-08-06T08:58:39.000Z</time>
</trkpt>
<trkpt lat="46.0526120" lon="10.4872720">
	<ele>2450.80</ele>
	<time>2023-08-06T08:58:40.000Z</time>
</trkpt>
<trkpt lat="46.0526120" lon="10.4872720">
	<ele>2451.00</ele>
	<time>2023-08-06T08:58:41.000Z</time>
</trkpt>
<trkpt lat="46.0526120" lon="10.4872720">
	<ele>2451.00</ele>
	<time>2023-08-06T08:58:42.000Z</time>
</trkpt>
<trkpt lat="46.0526120" lon="10.4872710">
	<ele>2451.00</ele>
	<time>2023-08-06T08:58:43.000Z</time>
</trkpt>
<trkpt lat="46.0526120" lon="10.4872700">
	<ele>2451.20</ele>
	<time>2023-08-06T08:58:44.000Z</time>
</trkpt>
<trkpt lat="46.0526120" lon="10.4872680">
	<ele>2451.20</ele>
	<time>2023-08-06T08:58:45.000Z</time>
</trkpt>
<trkpt lat="46.0526120" lon="10.4872680">
	<ele>2451.40</ele>
	<time>2023-08-06T08:58:46.000Z</time>
</trkpt>
<trkpt lat="46.0526120" lon="10.4872680">
	<ele>2451.60</ele>
	<time>2023-08-06T08:58:47.000Z</time>
</trkpt>
<trkpt lat="46.0526130" lon="10.4872670">
	<ele>2451.60</ele>
	<time>2023-08-06T08:58:48.000Z</time>
</trkpt>
<trkpt lat="46.0526130" lon="10.4872660">
	<ele>2451.80</ele>
	<time>2023-08-06T08:58:49.000Z</time>
</trkpt>
<trkpt lat="46.0526140" lon="10.4872650">
	<ele>2452.00</ele>
	<time>2023-08-06T08:58:50.000Z</time>
</trkpt>
<trkpt lat="46.0526140" lon="10.4872650">
	<ele>2452.00</ele>
	<time>2023-08-06T08:58:51.000Z</time>
</trkpt>
<trkpt lat="46.0526160" lon="10.4872650">
	<ele>2452.20</ele>
	<time>2023-08-06T08:58:52.000Z</time>
</trkpt>
<trkpt lat="46.0526160" lon="10.4872650">
	<ele>2452.20</ele>
	<time>2023-08-06T08:58:53.000Z</time>
</trkpt>
<trkpt lat="46.0526170" lon="10.4872630">
	<ele>2452.40</ele>
	<time>2023-08-06T08:58:54.000Z</time>
</trkpt>
<trkpt lat="46.0526170" lon="10.4872590">
	<ele>2452.40</ele>
	<time>2023-08-06T08:58:55.000Z</time>
</trkpt>
<trkpt lat="46.0526180" lon="10.4872570">
	<ele>2452.40</ele>
	<time>2023-08-06T08:58:56.000Z</time>
</trkpt>
<trkpt lat="46.0526190" lon="10.4872490">
	<ele>2452.80</ele>
	<time>2023-08-06T08:58:57.000Z</time>
</trkpt>
<trkpt lat="46.0526190" lon="10.4872360">
	<ele>2452.80</ele>
	<time>2023-08-06T08:58:58.000Z</time>
</trkpt>
<trkpt lat="46.0526190" lon="10.4872280">
	<ele>2453.00</ele>
	<time>2023-08-06T08:58:59.000Z</time>
</trkpt>
<trkpt lat="46.0526200" lon="10.4872210">
	<ele>2453.00</ele>
	<time>2023-08-06T08:59:00.000Z</time>
</trkpt>
<trkpt lat="46.0526200" lon="10.4872140">
	<ele>2453.20</ele>
	<time>2023-08-06T08:59:01.000Z</time>
</trkpt>
<trkpt lat="46.0526200" lon="10.4872050">
	<ele>2453.20</ele>
	<time>2023-08-06T08:59:02.000Z</time>
</trkpt>
<trkpt lat="46.0526200" lon="10.4871980">
	<ele>2453.20</ele>
	<time>2023-08-06T08:59:03.000Z</time>
</trkpt>
<trkpt lat="46.0526210" lon="10.4871930">
	<ele>2453.20</ele>
	<time>2023-08-06T08:59:04.000Z</time>
</trkpt>
<trkpt lat="46.0526230" lon="10.4871880">
	<ele>2453.20</ele>
	<time>2023-08-06T08:59:05.000Z</time>
</trkpt>
<trkpt lat="46.0526250" lon="10.4871810">
	<ele>2453.20</ele>
	<time>2023-08-06T08:59:06.000Z</time>
</trkpt>
<trkpt lat="46.0526280" lon="10.4871790">
	<ele>2453.20</ele>
	<time>2023-08-06T08:59:07.000Z</time>
</trkpt>
<trkpt lat="46.0526290" lon="10.4871780">
	<ele>2453.20</ele>
	<time>2023-08-06T08:59:08.000Z</time>
</trkpt>
<trkpt lat="46.0526320" lon="10.4871740">
	<ele>2453.40</ele>
	<time>2023-08-06T08:59:09.000Z</time>
</trkpt>
<trkpt lat="46.0526340" lon="10.4871690">
	<ele>2453.60</ele>
	<time>2023-08-06T08:59:10.000Z</time>
</trkpt>
<trkpt lat="46.0526350" lon="10.4871650">
	<ele>2454.00</ele>
	<time>2023-08-06T08:59:11.000Z</time>
</trkpt>
<trkpt lat="46.0526350" lon="10.4871600">
	<ele>2454.00</ele>
	<time>2023-08-06T08:59:12.000Z</time>
</trkpt>
<trkpt lat="46.0526360" lon="10.4871550">
	<ele>2454.20</ele>
	<time>2023-08-06T08:59:13.000Z</time>
</trkpt>
<trkpt lat="46.0526360" lon="10.4871470">
	<ele>2454.20</ele>
	<time>2023-08-06T08:59:14.000Z</time>
</trkpt>
<trkpt lat="46.0526370" lon="10.4871410">
	<ele>2454.20</ele>
	<time>2023-08-06T08:59:15.000Z</time>
</trkpt>
<trkpt lat="46.0526400" lon="10.4871390">
	<ele>2454.40</ele>
	<time>2023-08-06T08:59:16.000Z</time>
</trkpt>
<trkpt lat="46.0526410" lon="10.4871380">
	<ele>2454.60</ele>
	<time>2023-08-06T08:59:17.000Z</time>
</trkpt>
<trkpt lat="46.0526410" lon="10.4871380">
	<ele>2454.60</ele>
	<time>2023-08-06T08:59:18.000Z</time>
</trkpt>
<trkpt lat="46.0526420" lon="10.4871380">
	<ele>2454.80</ele>
	<time>2023-08-06T08:59:19.000Z</time>
</trkpt>
<trkpt lat="46.0526430" lon="10.4871380">
	<ele>2454.80</ele>
	<time>2023-08-06T08:59:20.000Z</time>
</trkpt>
<trkpt lat="46.0526460" lon="10.4871380">
	<ele>2454.80</ele>
	<time>2023-08-06T08:59:21.000Z</time>
</trkpt>
<trkpt lat="46.0526490" lon="10.4871380">
	<ele>2455.00</ele>
	<time>2023-08-06T08:59:22.000Z</time>
</trkpt>
<trkpt lat="46.0526540" lon="10.4871380">
	<ele>2455.00</ele>
	<time>2023-08-06T08:59:23.000Z</time>
</trkpt>
<trkpt lat="46.0526570" lon="10.4871380">
	<ele>2455.20</ele>
	<time>2023-08-06T08:59:24.000Z</time>
</trkpt>
<trkpt lat="46.0526590" lon="10.4871380">
	<ele>2455.40</ele>
	<time>2023-08-06T08:59:25.000Z</time>
</trkpt>
<trkpt lat="46.0526590" lon="10.4871380">
	<ele>2455.40</ele>
	<time>2023-08-06T08:59:26.000Z</time>
</trkpt>
<trkpt lat="46.0526600" lon="10.4871380">
	<ele>2455.60</ele>
	<time>2023-08-06T08:59:27.000Z</time>
</trkpt>
<trkpt lat="46.0526600" lon="10.4871380">
	<ele>2455.60</ele>
	<time>2023-08-06T08:59:28.000Z</time>
</trkpt>
<trkpt lat="46.0526600" lon="10.4871380">
	<ele>2455.80</ele>
	<time>2023-08-06T08:59:29.000Z</time>
</trkpt>
<trkpt lat="46.0526630" lon="10.4871380">
	<ele>2455.80</ele>
	<time>2023-08-06T08:59:30.000Z</time>
</trkpt>
<trkpt lat="46.0526650" lon="10.4871380">
	<ele>2456.00</ele>
	<time>2023-08-06T08:59:31.000Z</time>
</trkpt>
<trkpt lat="46.0526660" lon="10.4871400">
	<ele>2456.00</ele>
	<time>2023-08-06T08:59:32.000Z</time>
</trkpt>
<trkpt lat="46.0526670" lon="10.4871420">
	<ele>2456.20</ele>
	<time>2023-08-06T08:59:33.000Z</time>
</trkpt>
<trkpt lat="46.0526680" lon="10.4871460">
	<ele>2456.40</ele>
	<time>2023-08-06T08:59:34.000Z</time>
</trkpt>
<trkpt lat="46.0526710" lon="10.4871520">
	<ele>2456.60</ele>
	<time>2023-08-06T08:59:35.000Z</time>
</trkpt>
<trkpt lat="46.0526720" lon="10.4871580">
	<ele>2456.80</ele>
	<time>2023-08-06T08:59:36.000Z</time>
</trkpt>
<trkpt lat="46.0526720" lon="10.4871610">
	<ele>2456.80</ele>
	<time>2023-08-06T08:59:37.000Z</time>
</trkpt>
<trkpt lat="46.0526730" lon="10.4871660">
	<ele>2456.80</ele>
	<time>2023-08-06T08:59:38.000Z</time>
</trkpt>
<trkpt lat="46.0526730" lon="10.4871690">
	<ele>2457.00</ele>
	<time>2023-08-06T08:59:39.000Z</time>
</trkpt>
<trkpt lat="46.0526730" lon="10.4871720">
	<ele>2457.00</ele>
	<time>2023-08-06T08:59:40.000Z</time>
</trkpt>
<trkpt lat="46.0526730" lon="10.4871760">
	<ele>2457.00</ele>
	<time>2023-08-06T08:59:41.000Z</time>
</trkpt>
<trkpt lat="46.0526740" lon="10.4871790">
	<ele>2457.00</ele>
	<time>2023-08-06T08:59:42.000Z</time>
</trkpt>
<trkpt lat="46.0526740" lon="10.4871830">
	<ele>2457.00</ele>
	<time>2023-08-06T08:59:43.000Z</time>
</trkpt>
<trkpt lat="46.0526740" lon="10.4871870">
	<ele>2457.00</ele>
	<time>2023-08-06T08:59:44.000Z</time>
</trkpt>
<trkpt lat="46.0526750" lon="10.4871890">
	<ele>2457.20</ele>
	<time>2023-08-06T08:59:45.000Z</time>
</trkpt>
<trkpt lat="46.0526750" lon="10.4871940">
	<ele>2457.20</ele>
	<time>2023-08-06T08:59:46.000Z</time>
</trkpt>
<trkpt lat="46.0526780" lon="10.4872030">
	<ele>2457.40</ele>
	<time>2023-08-06T08:59:47.000Z</time>
</trkpt>
<trkpt lat="46.0526790" lon="10.4872090">
	<ele>2457.40</ele>
	<time>2023-08-06T08:59:48.000Z</time>
</trkpt>
<trkpt lat="46.0526800" lon="10.4872140">
	<ele>2457.60</ele>
	<time>2023-08-06T08:59:49.000Z</time>
</trkpt>
<trkpt lat="46.0526810" lon="10.4872180">
	<ele>2457.60</ele>
	<time>2023-08-06T08:59:50.000Z</time>
</trkpt>
<trkpt lat="46.0526830" lon="10.4872220">
	<ele>2457.80</ele>
	<time>2023-08-06T08:59:51.000Z</time>
</trkpt>
<trkpt lat="46.0526840" lon="10.4872260">
	<ele>2457.80</ele>
	<time>2023-08-06T08:59:52.000Z</time>
</trkpt>
<trkpt lat="46.0526850" lon="10.4872320">
	<ele>2457.80</ele>
	<time>2023-08-06T08:59:53.000Z</time>
</trkpt>
<trkpt lat="46.0526880" lon="10.4872390">
	<ele>2457.80</ele>
	<time>2023-08-06T08:59:54.000Z</time>
</trkpt>
<trkpt lat="46.0526900" lon="10.4872470">
	<ele>2458.00</ele>
	<time>2023-08-06T08:59:55.000Z</time>
</trkpt>
<trkpt lat="46.0526910" lon="10.4872520">
	<ele>2458.00</ele>
	<time>2023-08-06T08:59:56.000Z</time>
</trkpt>
<trkpt lat="46.0526920" lon="10.4872580">
	<ele>2458.00</ele>
	<time>2023-08-06T08:59:57.000Z</time>
</trkpt>
<trkpt lat="46.0526930" lon="10.4872660">
	<ele>2458.00</ele>
	<time>2023-08-06T08:59:58.000Z</time>
</trkpt>
<trkpt lat="46.0526930" lon="10.4872780">
	<ele>2458.00</ele>
	<time>2023-08-06T08:59:59.000Z</time>
</trkpt>
<trkpt lat="46.0526940" lon="10.4872970">
	<ele>2458.00</ele>
	<time>2023-08-06T09:00:00.000Z</time>
</trkpt>
<trkpt lat="46.0526970" lon="10.4873190">
	<ele>2458.00</ele>
	<time>2023-08-06T09:00:01.000Z</time>
</trkpt>
<trkpt lat="46.0527050" lon="10.4873410">
	<ele>2458.20</ele>
	<time>2023-08-06T09:00:02.000Z</time>
</trkpt>
<trkpt lat="46.0527120" lon="10.4873610">
	<ele>2458.40</ele>
	<time>2023-08-06T09:00:03.000Z</time>
</trkpt>
<trkpt lat="46.0527180" lon="10.4873800">
	<ele>2458.40</ele>
	<time>2023-08-06T09:00:04.000Z</time>
</trkpt>
<trkpt lat="46.0527210" lon="10.4873960">
	<ele>2458.60</ele>
	<time>2023-08-06T09:00:05.000Z</time>
</trkpt>
<trkpt lat="46.0527210" lon="10.4874100">
	<ele>2458.60</ele>
	<time>2023-08-06T09:00:06.000Z</time>
</trkpt>
<trkpt lat="46.0527260" lon="10.4874280">
	<ele>2458.60</ele>
	<time>2023-08-06T09:00:07.000Z</time>
</trkpt>
<trkpt lat="46.0527280" lon="10.4874470">
	<ele>2458.60</ele>
	<time>2023-08-06T09:00:08.000Z</time>
</trkpt>
<trkpt lat="46.0527310" lon="10.4874560">
	<ele>2458.80</ele>
	<time>2023-08-06T09:00:09.000Z</time>
</trkpt>
<trkpt lat="46.0527340" lon="10.4874610">
	<ele>2459.00</ele>
	<time>2023-08-06T09:00:10.000Z</time>
</trkpt>
<trkpt lat="46.0527380" lon="10.4874650">
	<ele>2459.20</ele>
	<time>2023-08-06T09:00:11.000Z</time>
</trkpt>
<trkpt lat="46.0527490" lon="10.4874770">
	<ele>2459.40</ele>
	<time>2023-08-06T09:00:12.000Z</time>
</trkpt>
<trkpt lat="46.0527520" lon="10.4874830">
	<ele>2459.40</ele>
	<time>2023-08-06T09:00:13.000Z</time>
</trkpt>
<trkpt lat="46.0527560" lon="10.4874910">
	<ele>2459.40</ele>
	<time>2023-08-06T09:00:14.000Z</time>
</trkpt>
<trkpt lat="46.0527550" lon="10.4874970">
	<ele>2459.40</ele>
	<time>2023-08-06T09:00:15.000Z</time>
</trkpt>
<trkpt lat="46.0527630" lon="10.4875020">
	<ele>2459.60</ele>
	<time>2023-08-06T09:00:16.000Z</time>
</trkpt>
<trkpt lat="46.0527700" lon="10.4875070">
	<ele>2459.60</ele>
	<time>2023-08-06T09:00:17.000Z</time>
</trkpt>
<trkpt lat="46.0527750" lon="10.4875110">
	<ele>2459.80</ele>
	<time>2023-08-06T09:00:18.000Z</time>
</trkpt>
<trkpt lat="46.0527780" lon="10.4875160">
	<ele>2459.80</ele>
	<time>2023-08-06T09:00:19.000Z</time>
</trkpt>
<trkpt lat="46.0527800" lon="10.4875200">
	<ele>2460.00</ele>
	<time>2023-08-06T09:00:20.000Z</time>
</trkpt>
<trkpt lat="46.0527800" lon="10.4875230">
	<ele>2460.00</ele>
	<time>2023-08-06T09:00:21.000Z</time>
</trkpt>
<trkpt lat="46.0527810" lon="10.4875260">
	<ele>2460.20</ele>
	<time>2023-08-06T09:00:22.000Z</time>
</trkpt>
<trkpt lat="46.0527830" lon="10.4875300">
	<ele>2460.20</ele>
	<time>2023-08-06T09:00:23.000Z</time>
</trkpt>
<trkpt lat="46.0527840" lon="10.4875360">
	<ele>2460.20</ele>
	<time>2023-08-06T09:00:24.000Z</time>
</trkpt>
<trkpt lat="46.0527860" lon="10.4875410">
	<ele>2460.40</ele>
	<time>2023-08-06T09:00:25.000Z</time>
</trkpt>
<trkpt lat="46.0527870" lon="10.4875510">
	<ele>2460.40</ele>
	<time>2023-08-06T09:00:26.000Z</time>
</trkpt>
<trkpt lat="46.0527870" lon="10.4875580">
	<ele>2460.60</ele>
	<time>2023-08-06T09:00:27.000Z</time>
</trkpt>
<trkpt lat="46.0527890" lon="10.4875660">
	<ele>2460.60</ele>
	<time>2023-08-06T09:00:28.000Z</time>
</trkpt>
<trkpt lat="46.0527890" lon="10.4875750">
	<ele>2460.80</ele>
	<time>2023-08-06T09:00:29.000Z</time>
</trkpt>
<trkpt lat="46.0527880" lon="10.4875780">
	<ele>2460.80</ele>
	<time>2023-08-06T09:00:30.000Z</time>
</trkpt>
<trkpt lat="46.0527890" lon="10.4875810">
	<ele>2461.00</ele>
	<time>2023-08-06T09:00:31.000Z</time>
</trkpt>
<trkpt lat="46.0527890" lon="10.4875840">
	<ele>2461.20</ele>
	<time>2023-08-06T09:00:32.000Z</time>
</trkpt>
<trkpt lat="46.0527880" lon="10.4875810">
	<ele>2461.40</ele>
	<time>2023-08-06T09:00:33.000Z</time>
</trkpt>
<trkpt lat="46.0527880" lon="10.4875730">
	<ele>2461.60</ele>
	<time>2023-08-06T09:00:34.000Z</time>
</trkpt>
<trkpt lat="46.0527900" lon="10.4875660">
	<ele>2461.60</ele>
	<time>2023-08-06T09:00:35.000Z</time>
</trkpt>
<trkpt lat="46.0527930" lon="10.4875600">
	<ele>2461.80</ele>
	<time>2023-08-06T09:00:36.000Z</time>
</trkpt>
<trkpt lat="46.0527980" lon="10.4875590">
	<ele>2461.80</ele>
	<time>2023-08-06T09:00:37.000Z</time>
</trkpt>
<trkpt lat="46.0527990" lon="10.4875570">
	<ele>2461.80</ele>
	<time>2023-08-06T09:00:38.000Z</time>
</trkpt>
<trkpt lat="46.0528040" lon="10.4875540">
	<ele>2462.00</ele>
	<time>2023-08-06T09:00:39.000Z</time>
</trkpt>
<trkpt lat="46.0528080" lon="10.4875510">
	<ele>2462.00</ele>
	<time>2023-08-06T09:00:40.000Z</time>
</trkpt>
<trkpt lat="46.0528120" lon="10.4875480">
	<ele>2462.00</ele>
	<time>2023-08-06T09:00:41.000Z</time>
</trkpt>
<trkpt lat="46.0528150" lon="10.4875450">
	<ele>2462.20</ele>
	<time>2023-08-06T09:00:42.000Z</time>
</trkpt>
<trkpt lat="46.0528180" lon="10.4875390">
	<ele>2462.40</ele>
	<time>2023-08-06T09:00:43.000Z</time>
</trkpt>
<trkpt lat="46.0528200" lon="10.4875320">
	<ele>2462.60</ele>
	<time>2023-08-06T09:00:44.000Z</time>
</trkpt>
<trkpt lat="46.0528210" lon="10.4875250">
	<ele>2462.60</ele>
	<time>2023-08-06T09:00:45.000Z</time>
</trkpt>
<trkpt lat="46.0528210" lon="10.4875180">
	<ele>2462.60</ele>
	<time>2023-08-06T09:00:46.000Z</time>
</trkpt>
<trkpt lat="46.0528240" lon="10.4875070">
	<ele>2462.80</ele>
	<time>2023-08-06T09:00:47.000Z</time>
</trkpt>
<trkpt lat="46.0528280" lon="10.4874980">
	<ele>2462.80</ele>
	<time>2023-08-06T09:00:48.000Z</time>
</trkpt>
<trkpt lat="46.0528370" lon="10.4874960">
	<ele>2463.00</ele>
	<time>2023-08-06T09:00:49.000Z</time>
</trkpt>
<trkpt lat="46.0528460" lon="10.4874970">
	<ele>2463.00</ele>
	<time>2023-08-06T09:00:50.000Z</time>
</trkpt>
<trkpt lat="46.0528480" lon="10.4875010">
	<ele>2463.20</ele>
	<time>2023-08-06T09:00:51.000Z</time>
</trkpt>
<trkpt lat="46.0528500" lon="10.4875050">
	<ele>2463.40</ele>
	<time>2023-08-06T09:00:52.000Z</time>
</trkpt>
<trkpt lat="46.0528520" lon="10.4875090">
	<ele>2463.60</ele>
	<time>2023-08-06T09:00:53.000Z</time>
</trkpt>
<trkpt lat="46.0528540" lon="10.4875150">
	<ele>2463.60</ele>
	<time>2023-08-06T09:00:54.000Z</time>
</trkpt>
<trkpt lat="46.0528520" lon="10.4875190">
	<ele>2463.80</ele>
	<time>2023-08-06T09:00:55.000Z</time>
</trkpt>
<trkpt lat="46.0528520" lon="10.4875230">
	<ele>2464.00</ele>
	<time>2023-08-06T09:00:56.000Z</time>
</trkpt>
<trkpt lat="46.0528550" lon="10.4875310">
	<ele>2464.00</ele>
	<time>2023-08-06T09:00:57.000Z</time>
</trkpt>
<trkpt lat="46.0528580" lon="10.4875380">
	<ele>2464.20</ele>
	<time>2023-08-06T09:00:58.000Z</time>
</trkpt>
<trkpt lat="46.0528590" lon="10.4875440">
	<ele>2464.20</ele>
	<time>2023-08-06T09:00:59.000Z</time>
</trkpt>
<trkpt lat="46.0528650" lon="10.4875520">
	<ele>2464.40</ele>
	<time>2023-08-06T09:01:00.000Z</time>
</trkpt>
<trkpt lat="46.0528700" lon="10.4875600">
	<ele>2464.40</ele>
	<time>2023-08-06T09:01:01.000Z</time>
</trkpt>
<trkpt lat="46.0528750" lon="10.4875660">
	<ele>2464.40</ele>
	<time>2023-08-06T09:01:02.000Z</time>
</trkpt>
<trkpt lat="46.0528780" lon="10.4875720">
	<ele>2464.60</ele>
	<time>2023-08-06T09:01:03.000Z</time>
</trkpt>
<trkpt lat="46.0528790" lon="10.4875790">
	<ele>2464.60</ele>
	<time>2023-08-06T09:01:04.000Z</time>
</trkpt>
<trkpt lat="46.0528800" lon="10.4875830">
	<ele>2464.80</ele>
	<time>2023-08-06T09:01:05.000Z</time>
</trkpt>
<trkpt lat="46.0528840" lon="10.4875860">
	<ele>2464.80</ele>
	<time>2023-08-06T09:01:06.000Z</time>
</trkpt>
<trkpt lat="46.0528900" lon="10.4875920">
	<ele>2464.80</ele>
	<time>2023-08-06T09:01:07.000Z</time>
</trkpt>
<trkpt lat="46.0528940" lon="10.4876030">
	<ele>2465.00</ele>
	<time>2023-08-06T09:01:08.000Z</time>
</trkpt>
<trkpt lat="46.0528940" lon="10.4876130">
	<ele>2465.00</ele>
	<time>2023-08-06T09:01:09.000Z</time>
</trkpt>
<trkpt lat="46.0528950" lon="10.4876190">
	<ele>2465.20</ele>
	<time>2023-08-06T09:01:10.000Z</time>
</trkpt>
<trkpt lat="46.0528960" lon="10.4876250">
	<ele>2465.40</ele>
	<time>2023-08-06T09:01:11.000Z</time>
</trkpt>
<trkpt lat="46.0528980" lon="10.4876310">
	<ele>2465.60</ele>
	<time>2023-08-06T09:01:12.000Z</time>
</trkpt>
<trkpt lat="46.0528990" lon="10.4876360">
	<ele>2465.60</ele>
	<time>2023-08-06T09:01:13.000Z</time>
</trkpt>
<trkpt lat="46.0529010" lon="10.4876400">
	<ele>2465.60</ele>
	<time>2023-08-06T09:01:14.000Z</time>
</trkpt>
<trkpt lat="46.0529020" lon="10.4876390">
	<ele>2465.80</ele>
	<time>2023-08-06T09:01:15.000Z</time>
</trkpt>
<trkpt lat="46.0529050" lon="10.4876390">
	<ele>2465.80</ele>
	<time>2023-08-06T09:01:16.000Z</time>
</trkpt>
<trkpt lat="46.0529090" lon="10.4876400">
	<ele>2465.80</ele>
	<time>2023-08-06T09:01:17.000Z</time>
</trkpt>
<trkpt lat="46.0529040" lon="10.4876350">
	<ele>2465.80</ele>
	<time>2023-08-06T09:01:18.000Z</time>
</trkpt>
<trkpt lat="46.0529090" lon="10.4876360">
	<ele>2465.80</ele>
	<time>2023-08-06T09:01:19.000Z</time>
</trkpt>
<trkpt lat="46.0529120" lon="10.4876410">
	<ele>2466.00</ele>
	<time>2023-08-06T09:01:20.000Z</time>
</trkpt>
<trkpt lat="46.0529150" lon="10.4876450">
	<ele>2466.40</ele>
	<time>2023-08-06T09:01:21.000Z</time>
</trkpt>
<trkpt lat="46.0529160" lon="10.4876480">
	<ele>2466.60</ele>
	<time>2023-08-06T09:01:22.000Z</time>
</trkpt>
<trkpt lat="46.0529140" lon="10.4876530">
	<ele>2466.80</ele>
	<time>2023-08-06T09:01:23.000Z</time>
</trkpt>
<trkpt lat="46.0529170" lon="10.4876580">
	<ele>2466.80</ele>
	<time>2023-08-06T09:01:24.000Z</time>
</trkpt>
<trkpt lat="46.0529190" lon="10.4876640">
	<ele>2467.00</ele>
	<time>2023-08-06T09:01:25.000Z</time>
</trkpt>
<trkpt lat="46.0529250" lon="10.4876690">
	<ele>2467.00</ele>
	<time>2023-08-06T09:01:26.000Z</time>
</trkpt>
<trkpt lat="46.0529290" lon="10.4876710">
	<ele>2467.00</ele>
	<time>2023-08-06T09:01:27.000Z</time>
</trkpt>
<trkpt lat="46.0529300" lon="10.4876700">
	<ele>2467.20</ele>
	<time>2023-08-06T09:01:28.000Z</time>
</trkpt>
<trkpt lat="46.0529330" lon="10.4876700">
	<ele>2467.20</ele>
	<time>2023-08-06T09:01:29.000Z</time>
</trkpt>
<trkpt lat="46.0529370" lon="10.4876680">
	<ele>2467.40</ele>
	<time>2023-08-06T09:01:30.000Z</time>
</trkpt>
<trkpt lat="46.0529390" lon="10.4876690">
	<ele>2467.60</ele>
	<time>2023-08-06T09:01:31.000Z</time>
</trkpt>
<trkpt lat="46.0529400" lon="10.4876660">
	<ele>2467.60</ele>
	<time>2023-08-06T09:01:32.000Z</time>
</trkpt>
<trkpt lat="46.0529410" lon="10.4876650">
	<ele>2467.80</ele>
	<time>2023-08-06T09:01:33.000Z</time>
</trkpt>
<trkpt lat="46.0529400" lon="10.4876610">
	<ele>2468.00</ele>
	<time>2023-08-06T09:01:34.000Z</time>
</trkpt>
<trkpt lat="46.0529420" lon="10.4876560">
	<ele>2468.00</ele>
	<time>2023-08-06T09:01:35.000Z</time>
</trkpt>
<trkpt lat="46.0529460" lon="10.4876510">
	<ele>2468.20</ele>
	<time>2023-08-06T09:01:36.000Z</time>
</trkpt>
<trkpt lat="46.0529460" lon="10.4876500">
	<ele>2468.20</ele>
	<time>2023-08-06T09:01:37.000Z</time>
</trkpt>
<trkpt lat="46.0529480" lon="10.4876430">
	<ele>2468.40</ele>
	<time>2023-08-06T09:01:38.000Z</time>
</trkpt>
<trkpt lat="46.0529480" lon="10.4876350">
	<ele>2468.40</ele>
	<time>2023-08-06T09:01:39.000Z</time>
</trkpt>
<trkpt lat="46.0529480" lon="10.4876280">
	<ele>2468.40</ele>
	<time>2023-08-06T09:01:40.000Z</time>
</trkpt>
<trkpt lat="46.0529510" lon="10.4876240">
	<ele>2468.60</ele>
	<time>2023-08-06T09:01:41.000Z</time>
</trkpt>
<trkpt lat="46.0529530" lon="10.4876180">
	<ele>2468.60</ele>
	<time>2023-08-06T09:01:42.000Z</time>
</trkpt>
<trkpt lat="46.0529560" lon="10.4876150">
	<ele>2468.60</ele>
	<time>2023-08-06T09:01:43.000Z</time>
</trkpt>
<trkpt lat="46.0529600" lon="10.4876140">
	<ele>2468.80</ele>
	<time>2023-08-06T09:01:44.000Z</time>
</trkpt>
<trkpt lat="46.0529630" lon="10.4876120">
	<ele>2468.80</ele>
	<time>2023-08-06T09:01:45.000Z</time>
</trkpt>
<trkpt lat="46.0529670" lon="10.4876100">
	<ele>2469.20</ele>
	<time>2023-08-06T09:01:46.000Z</time>
</trkpt>
<trkpt lat="46.0529720" lon="10.4876100">
	<ele>2469.40</ele>
	<time>2023-08-06T09:01:47.000Z</time>
</trkpt>
<trkpt lat="46.0529740" lon="10.4876100">
	<ele>2469.60</ele>
	<time>2023-08-06T09:01:48.000Z</time>
</trkpt>
<trkpt lat="46.0529760" lon="10.4876140">
	<ele>2469.80</ele>
	<time>2023-08-06T09:01:49.000Z</time>
</trkpt>
<trkpt lat="46.0529800" lon="10.4876210">
	<ele>2470.00</ele>
	<time>2023-08-06T09:01:50.000Z</time>
</trkpt>
<trkpt lat="46.0529820" lon="10.4876270">
	<ele>2470.00</ele>
	<time>2023-08-06T09:01:51.000Z</time>
</trkpt>
<trkpt lat="46.0529840" lon="10.4876320">
	<ele>2470.00</ele>
	<time>2023-08-06T09:01:52.000Z</time>
</trkpt>
<trkpt lat="46.0529830" lon="10.4876360">
	<ele>2470.20</ele>
	<time>2023-08-06T09:01:53.000Z</time>
</trkpt>
<trkpt lat="46.0529830" lon="10.4876400">
	<ele>2470.20</ele>
	<time>2023-08-06T09:01:54.000Z</time>
</trkpt>
<trkpt lat="46.0529830" lon="10.4876420">
	<ele>2470.40</ele>
	<time>2023-08-06T09:01:55.000Z</time>
</trkpt>
<trkpt lat="46.0529820" lon="10.4876440">
	<ele>2470.60</ele>
	<time>2023-08-06T09:01:56.000Z</time>
</trkpt>
<trkpt lat="46.0529800" lon="10.4876450">
	<ele>2470.60</ele>
	<time>2023-08-06T09:01:57.000Z</time>
</trkpt>
<trkpt lat="46.0529780" lon="10.4876440">
	<ele>2470.80</ele>
	<time>2023-08-06T09:01:58.000Z</time>
</trkpt>
<trkpt lat="46.0529790" lon="10.4876410">
	<ele>2470.80</ele>
	<time>2023-08-06T09:01:59.000Z</time>
</trkpt>
<trkpt lat="46.0529810" lon="10.4876380">
	<ele>2471.00</ele>
	<time>2023-08-06T09:02:00.000Z</time>
</trkpt>
<trkpt lat="46.0529860" lon="10.4876370">
	<ele>2471.00</ele>
	<time>2023-08-06T09:02:01.000Z</time>
</trkpt>
<trkpt lat="46.0529910" lon="10.4876350">
	<ele>2471.20</ele>
	<time>2023-08-06T09:02:02.000Z</time>
</trkpt>
<trkpt lat="46.0529940" lon="10.4876290">
	<ele>2471.40</ele>
	<time>2023-08-06T09:02:03.000Z</time>
</trkpt>
<trkpt lat="46.0529960" lon="10.4876200">
	<ele>2471.40</ele>
	<time>2023-08-06T09:02:04.000Z</time>
</trkpt>
<trkpt lat="46.0529980" lon="10.4876190">
	<ele>2471.60</ele>
	<time>2023-08-06T09:02:05.000Z</time>
</trkpt>
<trkpt lat="46.0530000" lon="10.4876150">
	<ele>2471.60</ele>
	<time>2023-08-06T09:02:06.000Z</time>
</trkpt>
<trkpt lat="46.0530040" lon="10.4876110">
	<ele>2471.80</ele>
	<time>2023-08-06T09:02:07.000Z</time>
</trkpt>
<trkpt lat="46.0530100" lon="10.4876130">
	<ele>2471.80</ele>
	<time>2023-08-06T09:02:08.000Z</time>
</trkpt>
<trkpt lat="46.0530130" lon="10.4876170">
	<ele>2472.00</ele>
	<time>2023-08-06T09:02:09.000Z</time>
</trkpt>
<trkpt lat="46.0530140" lon="10.4876230">
	<ele>2472.20</ele>
	<time>2023-08-06T09:02:10.000Z</time>
</trkpt>
<trkpt lat="46.0530140" lon="10.4876290">
	<ele>2472.40</ele>
	<time>2023-08-06T09:02:11.000Z</time>
</trkpt>
<trkpt lat="46.0530130" lon="10.4876320">
	<ele>2472.40</ele>
	<time>2023-08-06T09:02:12.000Z</time>
</trkpt>
<trkpt lat="46.0530120" lon="10.4876370">
	<ele>2472.60</ele>
	<time>2023-08-06T09:02:13.000Z</time>
</trkpt>
<trkpt lat="46.0530110" lon="10.4876440">
	<ele>2472.60</ele>
	<time>2023-08-06T09:02:14.000Z</time>
</trkpt>
<trkpt lat="46.0530090" lon="10.4876530">
	<ele>2472.80</ele>
	<time>2023-08-06T09:02:15.000Z</time>
</trkpt>
<trkpt lat="46.0530080" lon="10.4876610">
	<ele>2473.00</ele>
	<time>2023-08-06T09:02:16.000Z</time>
</trkpt>
<trkpt lat="46.0530080" lon="10.4876640">
	<ele>2473.00</ele>
	<time>2023-08-06T09:02:17.000Z</time>
</trkpt>
<trkpt lat="46.0530080" lon="10.4876670">
	<ele>2473.20</ele>
	<time>2023-08-06T09:02:18.000Z</time>
</trkpt>
<trkpt lat="46.0530120" lon="10.4876730">
	<ele>2473.20</ele>
	<time>2023-08-06T09:02:19.000Z</time>
</trkpt>
<trkpt lat="46.0530130" lon="10.4876750">
	<ele>2473.40</ele>
	<time>2023-08-06T09:02:20.000Z</time>
</trkpt>
<trkpt lat="46.0530140" lon="10.4876760">
	<ele>2473.40</ele>
	<time>2023-08-06T09:02:21.000Z</time>
</trkpt>
<trkpt lat="46.0530160" lon="10.4876750">
	<ele>2473.60</ele>
	<time>2023-08-06T09:02:22.000Z</time>
</trkpt>
<trkpt lat="46.0530190" lon="10.4876750">
	<ele>2473.60</ele>
	<time>2023-08-06T09:02:23.000Z</time>
</trkpt>
<trkpt lat="46.0530240" lon="10.4876740">
	<ele>2473.80</ele>
	<time>2023-08-06T09:02:24.000Z</time>
</trkpt>
<trkpt lat="46.0530250" lon="10.4876700">
	<ele>2473.80</ele>
	<time>2023-08-06T09:02:25.000Z</time>
</trkpt>
<trkpt lat="46.0530260" lon="10.4876650">
	<ele>2474.00</ele>
	<time>2023-08-06T09:02:26.000Z</time>
</trkpt>
<trkpt lat="46.0530290" lon="10.4876630">
	<ele>2474.00</ele>
	<time>2023-08-06T09:02:27.000Z</time>
</trkpt>
<trkpt lat="46.0530380" lon="10.4876620">
	<ele>2474.20</ele>
	<time>2023-08-06T09:02:28.000Z</time>
</trkpt>
<trkpt lat="46.0530420" lon="10.4876640">
	<ele>2474.20</ele>
	<time>2023-08-06T09:02:29.000Z</time>
</trkpt>
<trkpt lat="46.0530440" lon="10.4876660">
	<ele>2474.20</ele>
	<time>2023-08-06T09:02:30.000Z</time>
</trkpt>
<trkpt lat="46.0530440" lon="10.4876670">
	<ele>2474.40</ele>
	<time>2023-08-06T09:02:31.000Z</time>
</trkpt>
<trkpt lat="46.0530440" lon="10.4876670">
	<ele>2474.40</ele>
	<time>2023-08-06T09:02:32.000Z</time>
</trkpt>
<trkpt lat="46.0530440" lon="10.4876670">
	<ele>2474.60</ele>
	<time>2023-08-06T09:02:33.000Z</time>
</trkpt>
<trkpt lat="46.0530440" lon="10.4876670">
	<ele>2474.80</ele>
	<time>2023-08-06T09:02:34.000Z</time>
</trkpt>
<trkpt lat="46.0530440" lon="10.4876670">
	<ele>2474.80</ele>
	<time>2023-08-06T09:02:35.000Z</time>
</trkpt>
<trkpt lat="46.0530440" lon="10.4876670">
	<ele>2475.00</ele>
	<time>2023-08-06T09:02:36.000Z</time>
</trkpt>
<trkpt lat="46.0530440" lon="10.4876670">
	<ele>2475.20</ele>
	<time>2023-08-06T09:02:37.000Z</time>
</trkpt>
<trkpt lat="46.0530440" lon="10.4876670">
	<ele>2475.20</ele>
	<time>2023-08-06T09:02:38.000Z</time>
</trkpt>
<trkpt lat="46.0530440" lon="10.4876670">
	<ele>2475.40</ele>
	<time>2023-08-06T09:02:39.000Z</time>
</trkpt>
<trkpt lat="46.0530420" lon="10.4876670">
	<ele>2475.40</ele>
	<time>2023-08-06T09:02:40.000Z</time>
</trkpt>
<trkpt lat="46.0530420" lon="10.4876670">
	<ele>2475.60</ele>
	<time>2023-08-06T09:02:41.000Z</time>
</trkpt>
<trkpt lat="46.0530420" lon="10.4876670">
	<ele>2475.80</ele>
	<time>2023-08-06T09:02:42.000Z</time>
</trkpt>
<trkpt lat="46.0530400" lon="10.4876670">
	<ele>2475.80</ele>
	<time>2023-08-06T09:02:43.000Z</time>
</trkpt>
<trkpt lat="46.0530400" lon="10.4876660">
	<ele>2476.00</ele>
	<time>2023-08-06T09:02:44.000Z</time>
</trkpt>
<trkpt lat="46.0530400" lon="10.4876650">
	<ele>2476.00</ele>
	<time>2023-08-06T09:02:45.000Z</time>
</trkpt>
<trkpt lat="46.0530400" lon="10.4876650">
	<ele>2476.20</ele>
	<time>2023-08-06T09:02:46.000Z</time>
</trkpt>
<trkpt lat="46.0530400" lon="10.4876640">
	<ele>2476.20</ele>
	<time>2023-08-06T09:02:47.000Z</time>
</trkpt>
<trkpt lat="46.0530390" lon="10.4876640">
	<ele>2476.40</ele>
	<time>2023-08-06T09:02:48.000Z</time>
</trkpt>
<trkpt lat="46.0530390" lon="10.4876630">
	<ele>2476.60</ele>
	<time>2023-08-06T09:02:49.000Z</time>
</trkpt>
<trkpt lat="46.0530390" lon="10.4876620">
	<ele>2476.60</ele>
	<time>2023-08-06T09:02:50.000Z</time>
</trkpt>
<trkpt lat="46.0530390" lon="10.4876610">
	<ele>2476.80</ele>
	<time>2023-08-06T09:02:51.000Z</time>
</trkpt>
<trkpt lat="46.0530390" lon="10.4876580">
	<ele>2477.00</ele>
	<time>2023-08-06T09:02:52.000Z</time>
</trkpt>
<trkpt lat="46.0530390" lon="10.4876520">
	<ele>2477.20</ele>
	<time>2023-08-06T09:02:53.000Z</time>
</trkpt>
<trkpt lat="46.0530400" lon="10.4876470">
	<ele>2477.40</ele>
	<time>2023-08-06T09:02:54.000Z</time>
</trkpt>
<trkpt lat="46.0530400" lon="10.4876430">
	<ele>2477.60</ele>
	<time>2023-08-06T09:02:55.000Z</time>
</trkpt>
<trkpt lat="46.0530400" lon="10.4876430">
	<ele>2477.80</ele>
	<time>2023-08-06T09:02:56.000Z</time>
</trkpt>
<trkpt lat="46.0530400" lon="10.4876420">
	<ele>2478.00</ele>
	<time>2023-08-06T09:02:57.000Z</time>
</trkpt>
<trkpt lat="46.0530410" lon="10.4876420">
	<ele>2478.00</ele>
	<time>2023-08-06T09:02:58.000Z</time>
</trkpt>
<trkpt lat="46.0530420" lon="10.4876390">
	<ele>2478.20</ele>
	<time>2023-08-06T09:02:59.000Z</time>
</trkpt>
<trkpt lat="46.0530420" lon="10.4876380">
	<ele>2478.20</ele>
	<time>2023-08-06T09:03:00.000Z</time>
</trkpt>
<trkpt lat="46.0530420" lon="10.4876350">
	<ele>2478.20</ele>
	<time>2023-08-06T09:03:01.000Z</time>
</trkpt>
<trkpt lat="46.0530420" lon="10.4876350">
	<ele>2478.20</ele>
	<time>2023-08-06T09:03:02.000Z</time>
</trkpt>
<trkpt lat="46.0530420" lon="10.4876340">
	<ele>2478.40</ele>
	<time>2023-08-06T09:03:03.000Z</time>
</trkpt>
<trkpt lat="46.0530420" lon="10.4876340">
	<ele>2478.40</ele>
	<time>2023-08-06T09:03:04.000Z</time>
</trkpt>
<trkpt lat="46.0530470" lon="10.4876330">
	<ele>2478.60</ele>
	<time>2023-08-06T09:03:05.000Z</time>
</trkpt>
<trkpt lat="46.0530500" lon="10.4876330">
	<ele>2478.60</ele>
	<time>2023-08-06T09:03:06.000Z</time>
</trkpt>
<trkpt lat="46.0530500" lon="10.4876330">
	<ele>2478.60</ele>
	<time>2023-08-06T09:03:07.000Z</time>
</trkpt>
<trkpt lat="46.0530510" lon="10.4876310">
	<ele>2478.60</ele>
	<time>2023-08-06T09:03:08.000Z</time>
</trkpt>
<trkpt lat="46.0530560" lon="10.4876300">
	<ele>2478.60</ele>
	<time>2023-08-06T09:03:09.000Z</time>
</trkpt>
<trkpt lat="46.0530580" lon="10.4876280">
	<ele>2478.60</ele>
	<time>2023-08-06T09:03:10.000Z</time>
</trkpt>
<trkpt lat="46.0530580" lon="10.4876270">
	<ele>2478.60</ele>
	<time>2023-08-06T09:03:11.000Z</time>
</trkpt>
<trkpt lat="46.0530590" lon="10.4876270">
	<ele>2478.60</ele>
	<time>2023-08-06T09:03:12.000Z</time>
</trkpt>
<trkpt lat="46.0530590" lon="10.4876270">
	<ele>2478.60</ele>
	<time>2023-08-06T09:03:13.000Z</time>
</trkpt>
<trkpt lat="46.0530590" lon="10.4876270">
	<ele>2478.60</ele>
	<time>2023-08-06T09:03:14.000Z</time>
</trkpt>
<trkpt lat="46.0530590" lon="10.4876270">
	<ele>2478.60</ele>
	<time>2023-08-06T09:03:15.000Z</time>
</trkpt>
<trkpt lat="46.0530590" lon="10.4876270">
	<ele>2478.60</ele>
	<time>2023-08-06T09:03:16.000Z</time>
</trkpt>
<trkpt lat="46.0530590" lon="10.4876270">
	<ele>2478.60</ele>
	<time>2023-08-06T09:03:17.000Z</time>
</trkpt>
<trkpt lat="46.0530590" lon="10.4876270">
	<ele>2478.60</ele>
	<time>2023-08-06T09:03:18.000Z</time>
</trkpt>
<trkpt lat="46.0530590" lon="10.4876270">
	<ele>2478.60</ele>
	<time>2023-08-06T09:03:19.000Z</time>
</trkpt>
<trkpt lat="46.0530590" lon="10.4876270">
	<ele>2478.60</ele>
	<time>2023-08-06T09:03:20.000Z</time>
</trkpt>
<trkpt lat="46.0530590" lon="10.4876290">
	<ele>2478.60</ele>
	<time>2023-08-06T09:03:21.000Z</time>
</trkpt>
<trkpt lat="46.0530590" lon="10.4876300">
	<ele>2478.60</ele>
	<time>2023-08-06T09:03:22.000Z</time>
</trkpt>
<trkpt lat="46.0530590" lon="10.4876310">
	<ele>2478.60</ele>
	<time>2023-08-06T09:03:23.000Z</time>
</trkpt>
<trkpt lat="46.0530590" lon="10.4876320">
	<ele>2478.60</ele>
	<time>2023-08-06T09:03:24.000Z</time>
</trkpt>
<trkpt lat="46.0530590" lon="10.4876320">
	<ele>2478.60</ele>
	<time>2023-08-06T09:03:25.000Z</time>
</trkpt>
<trkpt lat="46.0530590" lon="10.4876320">
	<ele>2478.60</ele>
	<time>2023-08-06T09:03:26.000Z</time>
</trkpt>
<trkpt lat="46.0530590" lon="10.4876320">
	<ele>2478.60</ele>
	<time>2023-08-06T09:03:27.000Z</time>
</trkpt>
<trkpt lat="46.0530590" lon="10.4876320">
	<ele>2478.60</ele>
	<time>2023-08-06T09:03:28.000Z</time>
</trkpt>
<trkpt lat="46.0530590" lon="10.4876320">
	<ele>2478.60</ele>
	<time>2023-08-06T09:03:29.000Z</time>
</trkpt>
<trkpt lat="46.0530590" lon="10.4876320">
	<ele>2479.00</ele>
	<time>2023-08-06T09:03:30.000Z</time>
</trkpt>
<trkpt lat="46.0530590" lon="10.4876320">
	<ele>2479.20</ele>
	<time>2023-08-06T09:03:31.000Z</time>
</trkpt>
<trkpt lat="46.0530590" lon="10.4876320">
	<ele>2479.40</ele>
	<time>2023-08-06T09:03:32.000Z</time>
</trkpt>
<trkpt lat="46.0530590" lon="10.4876320">
	<ele>2479.60</ele>
	<time>2023-08-06T09:03:33.000Z</time>
</trkpt>
<trkpt lat="46.0530590" lon="10.4876320">
	<ele>2479.60</ele>
	<time>2023-08-06T09:03:34.000Z</time>
</trkpt>
<trkpt lat="46.0530590" lon="10.4876320">
	<ele>2479.80</ele>
	<time>2023-08-06T09:03:35.000Z</time>
</trkpt>
<trkpt lat="46.0530590" lon="10.4876320">
	<ele>2479.80</ele>
	<time>2023-08-06T09:03:36.000Z</time>
</trkpt>
<trkpt lat="46.0530590" lon="10.4876320">
	<ele>2479.80</ele>
	<time>2023-08-06T09:03:37.000Z</time>
</trkpt>
<trkpt lat="46.0530600" lon="10.4876320">
	<ele>2480.00</ele>
	<time>2023-08-06T09:03:38.000Z</time>
</trkpt>
<trkpt lat="46.0530600" lon="10.4876320">
	<ele>2480.20</ele>
	<time>2023-08-06T09:03:39.000Z</time>
</trkpt>
<trkpt lat="46.0530600" lon="10.4876330">
	<ele>2480.20</ele>
	<time>2023-08-06T09:03:40.000Z</time>
</trkpt>
<trkpt lat="46.0530600" lon="10.4876330">
	<ele>2480.40</ele>
	<time>2023-08-06T09:03:41.000Z</time>
</trkpt>
<trkpt lat="46.0530600" lon="10.4876340">
	<ele>2480.40</ele>
	<time>2023-08-06T09:03:42.000Z</time>
</trkpt>
<trkpt lat="46.0530610" lon="10.4876350">
	<ele>2480.40</ele>
	<time>2023-08-06T09:03:43.000Z</time>
</trkpt>
<trkpt lat="46.0530610" lon="10.4876360">
	<ele>2480.40</ele>
	<time>2023-08-06T09:03:44.000Z</time>
</trkpt>
<trkpt lat="46.0530650" lon="10.4876370">
	<ele>2480.60</ele>
	<time>2023-08-06T09:03:45.000Z</time>
</trkpt>
<trkpt lat="46.0530680" lon="10.4876380">
	<ele>2480.60</ele>
	<time>2023-08-06T09:03:46.000Z</time>
</trkpt>
<trkpt lat="46.0530700" lon="10.4876390">
	<ele>2480.80</ele>
	<time>2023-08-06T09:03:47.000Z</time>
</trkpt>
<trkpt lat="46.0530770" lon="10.4876400">
	<ele>2480.80</ele>
	<time>2023-08-06T09:03:48.000Z</time>
</trkpt>
<trkpt lat="46.0530850" lon="10.4876400">
	<ele>2480.80</ele>
	<time>2023-08-06T09:03:49.000Z</time>
</trkpt>
<trkpt lat="46.0530920" lon="10.4876400">
	<ele>2481.00</ele>
	<time>2023-08-06T09:03:50.000Z</time>
</trkpt>
<trkpt lat="46.0530980" lon="10.4876410">
	<ele>2481.00</ele>
	<time>2023-08-06T09:03:51.000Z</time>
</trkpt>
<trkpt lat="46.0531010" lon="10.4876420">
	<ele>2481.00</ele>
	<time>2023-08-06T09:03:52.000Z</time>
</trkpt>
<trkpt lat="46.0531030" lon="10.4876420">
	<ele>2481.20</ele>
	<time>2023-08-06T09:03:53.000Z</time>
</trkpt>
<trkpt lat="46.0531030" lon="10.4876430">
	<ele>2481.40</ele>
	<time>2023-08-06T09:03:54.000Z</time>
</trkpt>
<trkpt lat="46.0531040" lon="10.4876440">
	<ele>2481.60</ele>
	<time>2023-08-06T09:03:55.000Z</time>
</trkpt>
<trkpt lat="46.0531040" lon="10.4876500">
	<ele>2481.60</ele>
	<time>2023-08-06T09:03:56.000Z</time>
</trkpt>
<trkpt lat="46.0531040" lon="10.4876560">
	<ele>2481.80</ele>
	<time>2023-08-06T09:03:57.000Z</time>
</trkpt>
<trkpt lat="46.0531040" lon="10.4876620">
	<ele>2482.00</ele>
	<time>2023-08-06T09:03:58.000Z</time>
</trkpt>
<trkpt lat="46.0531040" lon="10.4876640">
	<ele>2482.20</ele>
	<time>2023-08-06T09:03:59.000Z</time>
</trkpt>
<trkpt lat="46.0531050" lon="10.4876650">
	<ele>2482.20</ele>
	<time>2023-08-06T09:04:00.000Z</time>
</trkpt>
<trkpt lat="46.0531050" lon="10.4876650">
	<ele>2482.40</ele>
	<time>2023-08-06T09:04:01.000Z</time>
</trkpt>
<trkpt lat="46.0531050" lon="10.4876660">
	<ele>2482.40</ele>
	<time>2023-08-06T09:04:02.000Z</time>
</trkpt>
<trkpt lat="46.0531050" lon="10.4876660">
	<ele>2482.60</ele>
	<time>2023-08-06T09:04:03.000Z</time>
</trkpt>
<trkpt lat="46.0531060" lon="10.4876660">
	<ele>2482.60</ele>
	<time>2023-08-06T09:04:04.000Z</time>
</trkpt>
<trkpt lat="46.0531090" lon="10.4876660">
	<ele>2482.80</ele>
	<time>2023-08-06T09:04:05.000Z</time>
</trkpt>
<trkpt lat="46.0531110" lon="10.4876710">
	<ele>2482.80</ele>
	<time>2023-08-06T09:04:06.000Z</time>
</trkpt>
<trkpt lat="46.0531140" lon="10.4876770">
	<ele>2483.00</ele>
	<time>2023-08-06T09:04:07.000Z</time>
</trkpt>
<trkpt lat="46.0531190" lon="10.4876830">
	<ele>2483.40</ele>
	<time>2023-08-06T09:04:08.000Z</time>
</trkpt>
<trkpt lat="46.0531250" lon="10.4876860">
	<ele>2483.60</ele>
	<time>2023-08-06T09:04:09.000Z</time>
</trkpt>
<trkpt lat="46.0531290" lon="10.4876900">
	<ele>2483.80</ele>
	<time>2023-08-06T09:04:10.000Z</time>
</trkpt>
<trkpt lat="46.0531370" lon="10.4876950">
	<ele>2483.80</ele>
	<time>2023-08-06T09:04:11.000Z</time>
</trkpt>
<trkpt lat="46.0531460" lon="10.4877010">
	<ele>2484.00</ele>
	<time>2023-08-06T09:04:12.000Z</time>
</trkpt>
<trkpt lat="46.0531560" lon="10.4877070">
	<ele>2484.00</ele>
	<time>2023-08-06T09:04:13.000Z</time>
</trkpt>
<trkpt lat="46.0531620" lon="10.4877110">
	<ele>2484.00</ele>
	<time>2023-08-06T09:04:14.000Z</time>
</trkpt>
<trkpt lat="46.0531620" lon="10.4877120">
	<ele>2484.20</ele>
	<time>2023-08-06T09:04:15.000Z</time>
</trkpt>
<trkpt lat="46.0531640" lon="10.4877120">
	<ele>2484.20</ele>
	<time>2023-08-06T09:04:16.000Z</time>
</trkpt>
<trkpt lat="46.0531680" lon="10.4877140">
	<ele>2484.20</ele>
	<time>2023-08-06T09:04:17.000Z</time>
</trkpt>
<trkpt lat="46.0531720" lon="10.4877190">
	<ele>2484.20</ele>
	<time>2023-08-06T09:04:18.000Z</time>
</trkpt>
<trkpt lat="46.0531750" lon="10.4877240">
	<ele>2484.40</ele>
	<time>2023-08-06T09:04:19.000Z</time>
</trkpt>
<trkpt lat="46.0531760" lon="10.4877310">
	<ele>2484.40</ele>
	<time>2023-08-06T09:04:20.000Z</time>
</trkpt>
<trkpt lat="46.0531740" lon="10.4877360">
	<ele>2484.60</ele>
	<time>2023-08-06T09:04:21.000Z</time>
</trkpt>
<trkpt lat="46.0531760" lon="10.4877390">
	<ele>2484.80</ele>
	<time>2023-08-06T09:04:22.000Z</time>
</trkpt>
<trkpt lat="46.0531800" lon="10.4877410">
	<ele>2485.00</ele>
	<time>2023-08-06T09:04:23.000Z</time>
</trkpt>
<trkpt lat="46.0531840" lon="10.4877450">
	<ele>2485.20</ele>
	<time>2023-08-06T09:04:24.000Z</time>
</trkpt>
<trkpt lat="46.0531890" lon="10.4877430">
	<ele>2485.20</ele>
	<time>2023-08-06T09:04:25.000Z</time>
</trkpt>
<trkpt lat="46.0531910" lon="10.4877400">
	<ele>2485.40</ele>
	<time>2023-08-06T09:04:26.000Z</time>
</trkpt>
<trkpt lat="46.0531930" lon="10.4877400">
	<ele>2485.40</ele>
	<time>2023-08-06T09:04:27.000Z</time>
</trkpt>
<trkpt lat="46.0531950" lon="10.4877450">
	<ele>2485.60</ele>
	<time>2023-08-06T09:04:28.000Z</time>
</trkpt>
<trkpt lat="46.0532010" lon="10.4877520">
	<ele>2485.60</ele>
	<time>2023-08-06T09:04:29.000Z</time>
</trkpt>
<trkpt lat="46.0532080" lon="10.4877600">
	<ele>2485.60</ele>
	<time>2023-08-06T09:04:30.000Z</time>
</trkpt>
<trkpt lat="46.0532110" lon="10.4877640">
	<ele>2485.80</ele>
	<time>2023-08-06T09:04:31.000Z</time>
</trkpt>
<trkpt lat="46.0532120" lon="10.4877700">
	<ele>2486.00</ele>
	<time>2023-08-06T09:04:32.000Z</time>
</trkpt>
<trkpt lat="46.0532100" lon="10.4877770">
	<ele>2486.00</ele>
	<time>2023-08-06T09:04:33.000Z</time>
</trkpt>
<trkpt lat="46.0532100" lon="10.4877810">
	<ele>2486.20</ele>
	<time>2023-08-06T09:04:34.000Z</time>
</trkpt>
<trkpt lat="46.0532110" lon="10.4877840">
	<ele>2486.40</ele>
	<time>2023-08-06T09:04:35.000Z</time>
</trkpt>
<trkpt lat="46.0532100" lon="10.4877900">
	<ele>2486.40</ele>
	<time>2023-08-06T09:04:36.000Z</time>
</trkpt>
<trkpt lat="46.0532120" lon="10.4877930">
	<ele>2486.80</ele>
	<time>2023-08-06T09:04:37.000Z</time>
</trkpt>
<trkpt lat="46.0532120" lon="10.4877960">
	<ele>2486.80</ele>
	<time>2023-08-06T09:04:38.000Z</time>
</trkpt>
<trkpt lat="46.0532120" lon="10.4877960">
	<ele>2487.00</ele>
	<time>2023-08-06T09:04:39.000Z</time>
</trkpt>
<trkpt lat="46.0532150" lon="10.4877980">
	<ele>2487.20</ele>
	<time>2023-08-06T09:04:40.000Z</time>
</trkpt>
<trkpt lat="46.0532170" lon="10.4878000">
	<ele>2487.20</ele>
	<time>2023-08-06T09:04:41.000Z</time>
</trkpt>
<trkpt lat="46.0532210" lon="10.4878010">
	<ele>2487.40</ele>
	<time>2023-08-06T09:04:42.000Z</time>
</trkpt>
<trkpt lat="46.0532230" lon="10.4877960">
	<ele>2487.40</ele>
	<time>2023-08-06T09:04:43.000Z</time>
</trkpt>
<trkpt lat="46.0532250" lon="10.4877920">
	<ele>2487.40</ele>
	<time>2023-08-06T09:04:44.000Z</time>
</trkpt>
<trkpt lat="46.0532250" lon="10.4877890">
	<ele>2487.40</ele>
	<time>2023-08-06T09:04:45.000Z</time>
</trkpt>
<trkpt lat="46.0532280" lon="10.4877890">
	<ele>2487.60</ele>
	<time>2023-08-06T09:04:46.000Z</time>
</trkpt>
<trkpt lat="46.0532310" lon="10.4877890">
	<ele>2487.60</ele>
	<time>2023-08-06T09:04:47.000Z</time>
</trkpt>
<trkpt lat="46.0532300" lon="10.4877890">
	<ele>2487.80</ele>
	<time>2023-08-06T09:04:48.000Z</time>
</trkpt>
<trkpt lat="46.0532280" lon="10.4877860">
	<ele>2487.80</ele>
	<time>2023-08-06T09:04:49.000Z</time>
</trkpt>
<trkpt lat="46.0532290" lon="10.4877810">
	<ele>2488.20</ele>
	<time>2023-08-06T09:04:50.000Z</time>
</trkpt>
<trkpt lat="46.0532290" lon="10.4877780">
	<ele>2488.20</ele>
	<time>2023-08-06T09:04:51.000Z</time>
</trkpt>
<trkpt lat="46.0532270" lon="10.4877770">
	<ele>2488.40</ele>
	<time>2023-08-06T09:04:52.000Z</time>
</trkpt>
<trkpt lat="46.0532250" lon="10.4877730">
	<ele>2488.60</ele>
	<time>2023-08-06T09:04:53.000Z</time>
</trkpt>
<trkpt lat="46.0532240" lon="10.4877700">
	<ele>2488.60</ele>
	<time>2023-08-06T09:04:54.000Z</time>
</trkpt>
<trkpt lat="46.0532210" lon="10.4877640">
	<ele>2488.60</ele>
	<time>2023-08-06T09:04:55.000Z</time>
</trkpt>
<trkpt lat="46.0532210" lon="10.4877610">
	<ele>2488.60</ele>
	<time>2023-08-06T09:04:56.000Z</time>
</trkpt>
<trkpt lat="46.0532230" lon="10.4877590">
	<ele>2488.60</ele>
	<time>2023-08-06T09:04:57.000Z</time>
</trkpt>
<trkpt lat="46.0532230" lon="10.4877530">
	<ele>2488.60</ele>
	<time>2023-08-06T09:04:58.000Z</time>
</trkpt>
<trkpt lat="46.0532220" lon="10.4877460">
	<ele>2488.60</ele>
	<time>2023-08-06T09:04:59.000Z</time>
</trkpt>
<trkpt lat="46.0532220" lon="10.4877390">
	<ele>2488.60</ele>
	<time>2023-08-06T09:05:00.000Z</time>
</trkpt>
<trkpt lat="46.0532190" lon="10.4877320">
	<ele>2488.60</ele>
	<time>2023-08-06T09:05:01.000Z</time>
</trkpt>
<trkpt lat="46.0532180" lon="10.4877190">
	<ele>2488.60</ele>
	<time>2023-08-06T09:05:02.000Z</time>
</trkpt>
<trkpt lat="46.0532170" lon="10.4877110">
	<ele>2488.60</ele>
	<time>2023-08-06T09:05:03.000Z</time>
</trkpt>
<trkpt lat="46.0532160" lon="10.4877030">
	<ele>2488.60</ele>
	<time>2023-08-06T09:05:04.000Z</time>
</trkpt>
<trkpt lat="46.0532160" lon="10.4876930">
	<ele>2488.60</ele>
	<time>2023-08-06T09:05:05.000Z</time>
</trkpt>
<trkpt lat="46.0532140" lon="10.4876820">
	<ele>2488.60</ele>
	<time>2023-08-06T09:05:06.000Z</time>
</trkpt>
<trkpt lat="46.0532140" lon="10.4876710">
	<ele>2488.60</ele>
	<time>2023-08-06T09:05:07.000Z</time>
</trkpt>
<trkpt lat="46.0532130" lon="10.4876610">
	<ele>2488.60</ele>
	<time>2023-08-06T09:05:08.000Z</time>
</trkpt>
<trkpt lat="46.0532140" lon="10.4876530">
	<ele>2488.80</ele>
	<time>2023-08-06T09:05:09.000Z</time>
</trkpt>
<trkpt lat="46.0532130" lon="10.4876420">
	<ele>2489.00</ele>
	<time>2023-08-06T09:05:10.000Z</time>
</trkpt>
<trkpt lat="46.0532140" lon="10.4876280">
	<ele>2489.00</ele>
	<time>2023-08-06T09:05:11.000Z</time>
</trkpt>
<trkpt lat="46.0532150" lon="10.4876200">
	<ele>2489.00</ele>
	<time>2023-08-06T09:05:12.000Z</time>
</trkpt>
<trkpt lat="46.0532200" lon="10.4876120">
	<ele>2489.00</ele>
	<time>2023-08-06T09:05:13.000Z</time>
</trkpt>
<trkpt lat="46.0532290" lon="10.4876030">
	<ele>2489.00</ele>
	<time>2023-08-06T09:05:14.000Z</time>
</trkpt>
<trkpt lat="46.0532330" lon="10.4876000">
	<ele>2489.00</ele>
	<time>2023-08-06T09:05:15.000Z</time>
</trkpt>
<trkpt lat="46.0532330" lon="10.4876010">
	<ele>2489.20</ele>
	<time>2023-08-06T09:05:16.000Z</time>
</trkpt>
<trkpt lat="46.0532330" lon="10.4876010">
	<ele>2489.20</ele>
	<time>2023-08-06T09:05:17.000Z</time>
</trkpt>
<trkpt lat="46.0532330" lon="10.4876020">
	<ele>2489.20</ele>
	<time>2023-08-06T09:05:18.000Z</time>
</trkpt>
<trkpt lat="46.0532330" lon="10.4876020">
	<ele>2489.20</ele>
	<time>2023-08-06T09:05:19.000Z</time>
</trkpt>
<trkpt lat="46.0532330" lon="10.4876010">
	<ele>2489.20</ele>
	<time>2023-08-06T09:05:20.000Z</time>
</trkpt>
<trkpt lat="46.0532340" lon="10.4876000">
	<ele>2489.20</ele>
	<time>2023-08-06T09:05:21.000Z</time>
</trkpt>
<trkpt lat="46.0532340" lon="10.4876000">
	<ele>2489.20</ele>
	<time>2023-08-06T09:05:22.000Z</time>
</trkpt>
<trkpt lat="46.0532330" lon="10.4876000">
	<ele>2489.00</ele>
	<time>2023-08-06T09:05:23.000Z</time>
</trkpt>
<trkpt lat="46.0532330" lon="10.4875990">
	<ele>2489.00</ele>
	<time>2023-08-06T09:05:24.000Z</time>
</trkpt>
<trkpt lat="46.0532330" lon="10.4875970">
	<ele>2489.00</ele>
	<time>2023-08-06T09:05:25.000Z</time>
</trkpt>
<trkpt lat="46.0532320" lon="10.4875960">
	<ele>2488.80</ele>
	<time>2023-08-06T09:05:26.000Z</time>
</trkpt>
<trkpt lat="46.0532320" lon="10.4875960">
	<ele>2488.80</ele>
	<time>2023-08-06T09:05:27.000Z</time>
</trkpt>
<trkpt lat="46.0532320" lon="10.4875960">
	<ele>2488.80</ele>
	<time>2023-08-06T09:05:28.000Z</time>
</trkpt>
<trkpt lat="46.0532320" lon="10.4875960">
	<ele>2489.00</ele>
	<time>2023-08-06T09:05:29.000Z</time>
</trkpt>
<trkpt lat="46.0532320" lon="10.4875960">
	<ele>2489.00</ele>
	<time>2023-08-06T09:05:30.000Z</time>
</trkpt>
<trkpt lat="46.0532320" lon="10.4875960">
	<ele>2489.00</ele>
	<time>2023-08-06T09:05:31.000Z</time>
</trkpt>
<trkpt lat="46.0532320" lon="10.4875960">
	<ele>2489.00</ele>
	<time>2023-08-06T09:05:32.000Z</time>
</trkpt>
<trkpt lat="46.0532320" lon="10.4875960">
	<ele>2489.00</ele>
	<time>2023-08-06T09:05:33.000Z</time>
</trkpt>
<trkpt lat="46.0532320" lon="10.4875960">
	<ele>2489.00</ele>
	<time>2023-08-06T09:05:34.000Z</time>
</trkpt>
<trkpt lat="46.0532320" lon="10.4875960">
	<ele>2489.00</ele>
	<time>2023-08-06T09:05:35.000Z</time>
</trkpt>
<trkpt lat="46.0532320" lon="10.4875960">
	<ele>2489.00</ele>
	<time>2023-08-06T09:05:36.000Z</time>
</trkpt>
<trkpt lat="46.0532320" lon="10.4875960">
	<ele>2489.00</ele>
	<time>2023-08-06T09:05:37.000Z</time>
</trkpt>
<trkpt lat="46.0532350" lon="10.4875920">
	<ele>2489.20</ele>
	<time>2023-08-06T09:05:38.000Z</time>
</trkpt>
<trkpt lat="46.0532430" lon="10.4875780">
	<ele>2489.20</ele>
	<time>2023-08-06T09:05:39.000Z</time>
</trkpt>
<trkpt lat="46.0532500" lon="10.4875690">
	<ele>2489.00</ele>
	<time>2023-08-06T09:05:40.000Z</time>
</trkpt>
<trkpt lat="46.0532590" lon="10.4875600">
	<ele>2489.20</ele>
	<time>2023-08-06T09:05:41.000Z</time>
</trkpt>
<trkpt lat="46.0532650" lon="10.4875470">
	<ele>2489.20</ele>
	<time>2023-08-06T09:05:42.000Z</time>
</trkpt>
<trkpt lat="46.0532710" lon="10.4875360">
	<ele>2489.20</ele>
	<time>2023-08-06T09:05:43.000Z</time>
</trkpt>
<trkpt lat="46.0532770" lon="10.4875250">
	<ele>2489.20</ele>
	<time>2023-08-06T09:05:44.000Z</time>
</trkpt>
<trkpt lat="46.0532830" lon="10.4875170">
	<ele>2489.20</ele>
	<time>2023-08-06T09:05:45.000Z</time>
</trkpt>
<trkpt lat="46.0532850" lon="10.4875040">
	<ele>2489.20</ele>
	<time>2023-08-06T09:05:46.000Z</time>
</trkpt>
<trkpt lat="46.0532880" lon="10.4874930">
	<ele>2489.20</ele>
	<time>2023-08-06T09:05:47.000Z</time>
</trkpt>
<trkpt lat="46.0532890" lon="10.4874790">
	<ele>2489.20</ele>
	<time>2023-08-06T09:05:48.000Z</time>
</trkpt>
<trkpt lat="46.0532920" lon="10.4874700">
	<ele>2489.20</ele>
	<time>2023-08-06T09:05:49.000Z</time>
</trkpt>
<trkpt lat="46.0532940" lon="10.4874650">
	<ele>2489.20</ele>
	<time>2023-08-06T09:05:50.000Z</time>
</trkpt>
<trkpt lat="46.0533000" lon="10.4874630">
	<ele>2489.40</ele>
	<time>2023-08-06T09:05:51.000Z</time>
</trkpt>
<trkpt lat="46.0533040" lon="10.4874600">
	<ele>2489.40</ele>
	<time>2023-08-06T09:05:52.000Z</time>
</trkpt>
<trkpt lat="46.0533050" lon="10.4874520">
	<ele>2489.40</ele>
	<time>2023-08-06T09:05:53.000Z</time>
</trkpt>
<trkpt lat="46.0533080" lon="10.4874440">
	<ele>2489.60</ele>
	<time>2023-08-06T09:05:54.000Z</time>
</trkpt>
<trkpt lat="46.0533130" lon="10.4874390">
	<ele>2489.80</ele>
	<time>2023-08-06T09:05:55.000Z</time>
</trkpt>
<trkpt lat="46.0533140" lon="10.4874340">
	<ele>2489.80</ele>
	<time>2023-08-06T09:05:56.000Z</time>
</trkpt>
<trkpt lat="46.0533210" lon="10.4874300">
	<ele>2489.80</ele>
	<time>2023-08-06T09:05:57.000Z</time>
</trkpt>
<trkpt lat="46.0533320" lon="10.4874260">
	<ele>2490.00</ele>
	<time>2023-08-06T09:05:58.000Z</time>
</trkpt>
<trkpt lat="46.0533400" lon="10.4874230">
	<ele>2490.00</ele>
	<time>2023-08-06T09:05:59.000Z</time>
</trkpt>
<trkpt lat="46.0533510" lon="10.4874230">
	<ele>2489.60</ele>
	<time>2023-08-06T09:06:00.000Z</time>
</trkpt>
<trkpt lat="46.0533620" lon="10.4874210">
	<ele>2489.60</ele>
	<time>2023-08-06T09:06:01.000Z</time>
</trkpt>
<trkpt lat="46.0533670" lon="10.4874210">
	<ele>2489.40</ele>
	<time>2023-08-06T09:06:02.000Z</time>
</trkpt>
<trkpt lat="46.0533690" lon="10.4874200">
	<ele>2489.40</ele>
	<time>2023-08-06T09:06:03.000Z</time>
</trkpt>
<trkpt lat="46.0533710" lon="10.4874220">
	<ele>2489.40</ele>
	<time>2023-08-06T09:06:04.000Z</time>
</trkpt>
<trkpt lat="46.0533680" lon="10.4874200">
	<ele>2489.60</ele>
	<time>2023-08-06T09:06:05.000Z</time>
</trkpt>
<trkpt lat="46.0533660" lon="10.4874180">
	<ele>2489.60</ele>
	<time>2023-08-06T09:06:06.000Z</time>
</trkpt>
<trkpt lat="46.0533660" lon="10.4874130">
	<ele>2489.60</ele>
	<time>2023-08-06T09:06:07.000Z</time>
</trkpt>
<trkpt lat="46.0533690" lon="10.4874100">
	<ele>2489.60</ele>
	<time>2023-08-06T09:06:08.000Z</time>
</trkpt>
<trkpt lat="46.0533720" lon="10.4874070">
	<ele>2489.60</ele>
	<time>2023-08-06T09:06:09.000Z</time>
</trkpt>
<trkpt lat="46.0533730" lon="10.4874030">
	<ele>2489.60</ele>
	<time>2023-08-06T09:06:10.000Z</time>
</trkpt>
<trkpt lat="46.0533730" lon="10.4873980">
	<ele>2489.40</ele>
	<time>2023-08-06T09:06:11.000Z</time>
</trkpt>
<trkpt lat="46.0533800" lon="10.4873900">
	<ele>2489.40</ele>
	<time>2023-08-06T09:06:12.000Z</time>
</trkpt>
<trkpt lat="46.0533820" lon="10.4873820">
	<ele>2489.20</ele>
	<time>2023-08-06T09:06:13.000Z</time>
</trkpt>
<trkpt lat="46.0533900" lon="10.4873810">
	<ele>2489.00</ele>
	<time>2023-08-06T09:06:14.000Z</time>
</trkpt>
<trkpt lat="46.0533990" lon="10.4873760">
	<ele>2488.60</ele>
	<time>2023-08-06T09:06:15.000Z</time>
</trkpt>
<trkpt lat="46.0534090" lon="10.4873720">
	<ele>2488.40</ele>
	<time>2023-08-06T09:06:16.000Z</time>
</trkpt>
<trkpt lat="46.0534130" lon="10.4873670">
	<ele>2488.40</ele>
	<time>2023-08-06T09:06:17.000Z</time>
</trkpt>
<trkpt lat="46.0534200" lon="10.4873600">
	<ele>2488.40</ele>
	<time>2023-08-06T09:06:18.000Z</time>
</trkpt>
<trkpt lat="46.0534280" lon="10.4873570">
	<ele>2488.20</ele>
	<time>2023-08-06T09:06:19.000Z</time>
</trkpt>
<trkpt lat="46.0534380" lon="10.4873510">
	<ele>2488.20</ele>
	<time>2023-08-06T09:06:20.000Z</time>
</trkpt>
<trkpt lat="46.0534410" lon="10.4873460">
	<ele>2488.20</ele>
	<time>2023-08-06T09:06:21.000Z</time>
</trkpt>
<trkpt lat="46.0534460" lon="10.4873400">
	<ele>2488.40</ele>
	<time>2023-08-06T09:06:22.000Z</time>
</trkpt>
<trkpt lat="46.0534520" lon="10.4873350">
	<ele>2488.40</ele>
	<time>2023-08-06T09:06:23.000Z</time>
</trkpt>
<trkpt lat="46.0534620" lon="10.4873300">
	<ele>2488.40</ele>
	<time>2023-08-06T09:06:24.000Z</time>
</trkpt>
<trkpt lat="46.0534690" lon="10.4873290">
	<ele>2488.40</ele>
	<time>2023-08-06T09:06:25.000Z</time>
</trkpt>
<trkpt lat="46.0534780" lon="10.4873270">
	<ele>2488.40</ele>
	<time>2023-08-06T09:06:26.000Z</time>
</trkpt>
<trkpt lat="46.0534840" lon="10.4873230">
	<ele>2488.40</ele>
	<time>2023-08-06T09:06:27.000Z</time>
</trkpt>
<trkpt lat="46.0534900" lon="10.4873230">
	<ele>2488.40</ele>
	<time>2023-08-06T09:06:28.000Z</time>
</trkpt>
<trkpt lat="46.0534960" lon="10.4873220">
	<ele>2488.40</ele>
	<time>2023-08-06T09:06:29.000Z</time>
</trkpt>
<trkpt lat="46.0535010" lon="10.4873230">
	<ele>2488.40</ele>
	<time>2023-08-06T09:06:30.000Z</time>
</trkpt>
<trkpt lat="46.0535070" lon="10.4873200">
	<ele>2488.40</ele>
	<time>2023-08-06T09:06:31.000Z</time>
</trkpt>
<trkpt lat="46.0535130" lon="10.4873100">
	<ele>2488.20</ele>
	<time>2023-08-06T09:06:32.000Z</time>
</trkpt>
<trkpt lat="46.0535180" lon="10.4872990">
	<ele>2488.20</ele>
	<time>2023-08-06T09:06:33.000Z</time>
</trkpt>
<trkpt lat="46.0535220" lon="10.4872930">
	<ele>2488.20</ele>
	<time>2023-08-06T09:06:34.000Z</time>
</trkpt>
<trkpt lat="46.0535280" lon="10.4872880">
	<ele>2488.00</ele>
	<time>2023-08-06T09:06:35.000Z</time>
</trkpt>
<trkpt lat="46.0535330" lon="10.4872820">
	<ele>2488.20</ele>
	<time>2023-08-06T09:06:36.000Z</time>
</trkpt>
<trkpt lat="46.0535330" lon="10.4872730">
	<ele>2488.20</ele>
	<time>2023-08-06T09:06:37.000Z</time>
</trkpt>
<trkpt lat="46.0535350" lon="10.4872640">
	<ele>2488.20</ele>
	<time>2023-08-06T09:06:38.000Z</time>
</trkpt>
<trkpt lat="46.0535410" lon="10.4872580">
	<ele>2488.40</ele>
	<time>2023-08-06T09:06:39.000Z</time>
</trkpt>
<trkpt lat="46.0535440" lon="10.4872540">
	<ele>2488.60</ele>
	<time>2023-08-06T09:06:40.000Z</time>
</trkpt>
<trkpt lat="46.0535490" lon="10.4872520">
	<ele>2488.80</ele>
	<time>2023-08-06T09:06:41.000Z</time>
</trkpt>
<trkpt lat="46.0535540" lon="10.4872500">
	<ele>2489.00</ele>
	<time>2023-08-06T09:06:42.000Z</time>
</trkpt>
<trkpt lat="46.0535580" lon="10.4872450">
	<ele>2489.00</ele>
	<time>2023-08-06T09:06:43.000Z</time>
</trkpt>
<trkpt lat="46.0535640" lon="10.4872450">
	<ele>2489.20</ele>
	<time>2023-08-06T09:06:44.000Z</time>
</trkpt>
<trkpt lat="46.0535710" lon="10.4872460">
	<ele>2489.20</ele>
	<time>2023-08-06T09:06:45.000Z</time>
</trkpt>
<trkpt lat="46.0535760" lon="10.4872440">
	<ele>2489.00</ele>
	<time>2023-08-06T09:06:46.000Z</time>
</trkpt>
<trkpt lat="46.0535800" lon="10.4872400">
	<ele>2489.00</ele>
	<time>2023-08-06T09:06:47.000Z</time>
</trkpt>
<trkpt lat="46.0535840" lon="10.4872330">
	<ele>2489.00</ele>
	<time>2023-08-06T09:06:48.000Z</time>
</trkpt>
<trkpt lat="46.0535870" lon="10.4872240">
	<ele>2489.00</ele>
	<time>2023-08-06T09:06:49.000Z</time>
</trkpt>
<trkpt lat="46.0535910" lon="10.4872120">
	<ele>2488.80</ele>
	<time>2023-08-06T09:06:50.000Z</time>
</trkpt>
<trkpt lat="46.0535930" lon="10.4872050">
	<ele>2488.60</ele>
	<time>2023-08-06T09:06:51.000Z</time>
</trkpt>
<trkpt lat="46.0536000" lon="10.4871990">
	<ele>2488.40</ele>
	<time>2023-08-06T09:06:52.000Z</time>
</trkpt>
<trkpt lat="46.0536080" lon="10.4871880">
	<ele>2488.40</ele>
	<time>2023-08-06T09:06:53.000Z</time>
</trkpt>
<trkpt lat="46.0536140" lon="10.4871840">
	<ele>2488.40</ele>
	<time>2023-08-06T09:06:54.000Z</time>
</trkpt>
<trkpt lat="46.0536210" lon="10.4871790">
	<ele>2488.40</ele>
	<time>2023-08-06T09:06:55.000Z</time>
</trkpt>
<trkpt lat="46.0536300" lon="10.4871740">
	<ele>2488.40</ele>
	<time>2023-08-06T09:06:56.000Z</time>
</trkpt>
<trkpt lat="46.0536340" lon="10.4871730">
	<ele>2488.40</ele>
	<time>2023-08-06T09:06:57.000Z</time>
</trkpt>
<trkpt lat="46.0536380" lon="10.4871780">
	<ele>2488.60</ele>
	<time>2023-08-06T09:06:58.000Z</time>
</trkpt>
<trkpt lat="46.0536360" lon="10.4871840">
	<ele>2488.80</ele>
	<time>2023-08-06T09:06:59.000Z</time>
</trkpt>
<trkpt lat="46.0536360" lon="10.4871850">
	<ele>2489.00</ele>
	<time>2023-08-06T09:07:00.000Z</time>
</trkpt>
<trkpt lat="46.0536350" lon="10.4871860">
	<ele>2489.00</ele>
	<time>2023-08-06T09:07:01.000Z</time>
</trkpt>
<trkpt lat="46.0536350" lon="10.4871850">
	<ele>2489.20</ele>
	<time>2023-08-06T09:07:02.000Z</time>
</trkpt>
<trkpt lat="46.0536360" lon="10.4871850">
	<ele>2489.20</ele>
	<time>2023-08-06T09:07:03.000Z</time>
</trkpt>
<trkpt lat="46.0536310" lon="10.4871900">
	<ele>2489.20</ele>
	<time>2023-08-06T09:07:04.000Z</time>
</trkpt>
<trkpt lat="46.0536360" lon="10.4871880">
	<ele>2489.20</ele>
	<time>2023-08-06T09:07:05.000Z</time>
</trkpt>
<trkpt lat="46.0536390" lon="10.4871880">
	<ele>2489.00</ele>
	<time>2023-08-06T09:07:06.000Z</time>
</trkpt>
<trkpt lat="46.0536400" lon="10.4871880">
	<ele>2488.80</ele>
	<time>2023-08-06T09:07:07.000Z</time>
</trkpt>
<trkpt lat="46.0536440" lon="10.4871870">
	<ele>2488.80</ele>
	<time>2023-08-06T09:07:08.000Z</time>
</trkpt>
<trkpt lat="46.0536430" lon="10.4871890">
	<ele>2488.60</ele>
	<time>2023-08-06T09:07:09.000Z</time>
</trkpt>
<trkpt lat="46.0536460" lon="10.4871840">
	<ele>2488.60</ele>
	<time>2023-08-06T09:07:10.000Z</time>
</trkpt>
<trkpt lat="46.0536540" lon="10.4871780">
	<ele>2488.60</ele>
	<time>2023-08-06T09:07:11.000Z</time>
</trkpt>
<trkpt lat="46.0536660" lon="10.4871670">
	<ele>2488.80</ele>
	<time>2023-08-06T09:07:12.000Z</time>
</trkpt>
<trkpt lat="46.0536760" lon="10.4871640">
	<ele>2489.00</ele>
	<time>2023-08-06T09:07:13.000Z</time>
</trkpt>
<trkpt lat="46.0536800" lon="10.4871600">
	<ele>2489.00</ele>
	<time>2023-08-06T09:07:14.000Z</time>
</trkpt>
<trkpt lat="46.0536860" lon="10.4871550">
	<ele>2489.20</ele>
	<time>2023-08-06T09:07:15.000Z</time>
</trkpt>
<trkpt lat="46.0536860" lon="10.4871510">
	<ele>2489.20</ele>
	<time>2023-08-06T09:07:16.000Z</time>
</trkpt>
<trkpt lat="46.0536910" lon="10.4871470">
	<ele>2489.40</ele>
	<time>2023-08-06T09:07:17.000Z</time>
</trkpt>
<trkpt lat="46.0536950" lon="10.4871420">
	<ele>2489.60</ele>
	<time>2023-08-06T09:07:18.000Z</time>
</trkpt>
<trkpt lat="46.0537020" lon="10.4871400">
	<ele>2489.60</ele>
	<time>2023-08-06T09:07:19.000Z</time>
</trkpt>
<trkpt lat="46.0537090" lon="10.4871390">
	<ele>2489.60</ele>
	<time>2023-08-06T09:07:20.000Z</time>
</trkpt>
<trkpt lat="46.0537150" lon="10.4871400">
	<ele>2489.60</ele>
	<time>2023-08-06T09:07:21.000Z</time>
</trkpt>
<trkpt lat="46.0537230" lon="10.4871420">
	<ele>2489.60</ele>
	<time>2023-08-06T09:07:22.000Z</time>
</trkpt>
<trkpt lat="46.0537300" lon="10.4871430">
	<ele>2489.60</ele>
	<time>2023-08-06T09:07:23.000Z</time>
</trkpt>
<trkpt lat="46.0537320" lon="10.4871460">
	<ele>2489.60</ele>
	<time>2023-08-06T09:07:24.000Z</time>
</trkpt>
<trkpt lat="46.0537350" lon="10.4871480">
	<ele>2489.60</ele>
	<time>2023-08-06T09:07:25.000Z</time>
</trkpt>
<trkpt lat="46.0537390" lon="10.4871510">
	<ele>2489.60</ele>
	<time>2023-08-06T09:07:26.000Z</time>
</trkpt>
<trkpt lat="46.0537480" lon="10.4871510">
	<ele>2489.60</ele>
	<time>2023-08-06T09:07:27.000Z</time>
</trkpt>
<trkpt lat="46.0537550" lon="10.4871520">
	<ele>2489.60</ele>
	<time>2023-08-06T09:07:28.000Z</time>
</trkpt>
<trkpt lat="46.0537570" lon="10.4871510">
	<ele>2489.80</ele>
	<time>2023-08-06T09:07:29.000Z</time>
</trkpt>
<trkpt lat="46.0537600" lon="10.4871470">
	<ele>2489.80</ele>
	<time>2023-08-06T09:07:30.000Z</time>
</trkpt>
<trkpt lat="46.0537660" lon="10.4871410">
	<ele>2489.80</ele>
	<time>2023-08-06T09:07:31.000Z</time>
</trkpt>
<trkpt lat="46.0537720" lon="10.4871370">
	<ele>2489.80</ele>
	<time>2023-08-06T09:07:32.000Z</time>
</trkpt>
<trkpt lat="46.0537780" lon="10.4871340">
	<ele>2489.80</ele>
	<time>2023-08-06T09:07:33.000Z</time>
</trkpt>
<trkpt lat="46.0537840" lon="10.4871300">
	<ele>2489.60</ele>
	<time>2023-08-06T09:07:34.000Z</time>
</trkpt>
<trkpt lat="46.0537950" lon="10.4871310">
	<ele>2489.60</ele>
	<time>2023-08-06T09:07:35.000Z</time>
</trkpt>
<trkpt lat="46.0538050" lon="10.4871320">
	<ele>2489.40</ele>
	<time>2023-08-06T09:07:36.000Z</time>
</trkpt>
<trkpt lat="46.0538120" lon="10.4871340">
	<ele>2489.40</ele>
	<time>2023-08-06T09:07:37.000Z</time>
</trkpt>
<trkpt lat="46.0538210" lon="10.4871360">
	<ele>2489.40</ele>
	<time>2023-08-06T09:07:38.000Z</time>
</trkpt>
<trkpt lat="46.0538290" lon="10.4871340">
	<ele>2489.20</ele>
	<time>2023-08-06T09:07:39.000Z</time>
</trkpt>
<trkpt lat="46.0538370" lon="10.4871340">
	<ele>2489.20</ele>
	<time>2023-08-06T09:07:40.000Z</time>
</trkpt>
<trkpt lat="46.0538470" lon="10.4871320">
	<ele>2489.20</ele>
	<time>2023-08-06T09:07:41.000Z</time>
</trkpt>
<trkpt lat="46.0538530" lon="10.4871240">
	<ele>2489.20</ele>
	<time>2023-08-06T09:07:42.000Z</time>
</trkpt>
<trkpt lat="46.0538570" lon="10.4871140">
	<ele>2489.00</ele>
	<time>2023-08-06T09:07:43.000Z</time>
</trkpt>
<trkpt lat="46.0538610" lon="10.4871080">
	<ele>2488.80</ele>
	<time>2023-08-06T09:07:44.000Z</time>
</trkpt>
<trkpt lat="46.0538670" lon="10.4871080">
	<ele>2488.80</ele>
	<time>2023-08-06T09:07:45.000Z</time>
</trkpt>
<trkpt lat="46.0538730" lon="10.4871060">
	<ele>2488.60</ele>
	<time>2023-08-06T09:07:46.000Z</time>
</trkpt>
<trkpt lat="46.0538780" lon="10.4871040">
	<ele>2488.60</ele>
	<time>2023-08-06T09:07:47.000Z</time>
</trkpt>
<trkpt lat="46.0538800" lon="10.4871010">
	<ele>2488.60</ele>
	<time>2023-08-06T09:07:48.000Z</time>
</trkpt>
<trkpt lat="46.0538870" lon="10.4870960">
	<ele>2488.40</ele>
	<time>2023-08-06T09:07:49.000Z</time>
</trkpt>
<trkpt lat="46.0538920" lon="10.4870940">
	<ele>2488.20</ele>
	<time>2023-08-06T09:07:50.000Z</time>
</trkpt>
<trkpt lat="46.0538940" lon="10.4870930">
	<ele>2488.00</ele>
	<time>2023-08-06T09:07:51.000Z</time>
</trkpt>
<trkpt lat="46.0538980" lon="10.4870940">
	<ele>2488.00</ele>
	<time>2023-08-06T09:07:52.000Z</time>
</trkpt>
<trkpt lat="46.0539030" lon="10.4870980">
	<ele>2487.80</ele>
	<time>2023-08-06T09:07:53.000Z</time>
</trkpt>
<trkpt lat="46.0539120" lon="10.4871050">
	<ele>2487.80</ele>
	<time>2023-08-06T09:07:54.000Z</time>
</trkpt>
<trkpt lat="46.0539130" lon="10.4871100">
	<ele>2487.80</ele>
	<time>2023-08-06T09:07:55.000Z</time>
</trkpt>
<trkpt lat="46.0539140" lon="10.4871140">
	<ele>2487.80</ele>
	<time>2023-08-06T09:07:56.000Z</time>
</trkpt>
<trkpt lat="46.0539110" lon="10.4871230">
	<ele>2487.80</ele>
	<time>2023-08-06T09:07:57.000Z</time>
</trkpt>
<trkpt lat="46.0539130" lon="10.4871320">
	<ele>2487.80</ele>
	<time>2023-08-06T09:07:58.000Z</time>
</trkpt>
<trkpt lat="46.0539190" lon="10.4871390">
	<ele>2488.00</ele>
	<time>2023-08-06T09:07:59.000Z</time>
</trkpt>
<trkpt lat="46.0539250" lon="10.4871460">
	<ele>2488.00</ele>
	<time>2023-08-06T09:08:00.000Z</time>
</trkpt>
<trkpt lat="46.0539270" lon="10.4871520">
	<ele>2488.00</ele>
	<time>2023-08-06T09:08:01.000Z</time>
</trkpt>
<trkpt lat="46.0539310" lon="10.4871580">
	<ele>2488.00</ele>
	<time>2023-08-06T09:08:02.000Z</time>
</trkpt>
<trkpt lat="46.0539350" lon="10.4871610">
	<ele>2488.00</ele>
	<time>2023-08-06T09:08:03.000Z</time>
</trkpt>
<trkpt lat="46.0539380" lon="10.4871680">
	<ele>2488.00</ele>
	<time>2023-08-06T09:08:04.000Z</time>
</trkpt>
<trkpt lat="46.0539450" lon="10.4871730">
	<ele>2488.00</ele>
	<time>2023-08-06T09:08:05.000Z</time>
</trkpt>
<trkpt lat="46.0539500" lon="10.4871730">
	<ele>2488.20</ele>
	<time>2023-08-06T09:08:06.000Z</time>
</trkpt>
<trkpt lat="46.0539560" lon="10.4871680">
	<ele>2488.20</ele>
	<time>2023-08-06T09:08:07.000Z</time>
</trkpt>
<trkpt lat="46.0539650" lon="10.4871630">
	<ele>2488.20</ele>
	<time>2023-08-06T09:08:08.000Z</time>
</trkpt>
<trkpt lat="46.0539730" lon="10.4871630">
	<ele>2488.40</ele>
	<time>2023-08-06T09:08:09.000Z</time>
</trkpt>
<trkpt lat="46.0539820" lon="10.4871650">
	<ele>2488.40</ele>
	<time>2023-08-06T09:08:10.000Z</time>
</trkpt>
<trkpt lat="46.0539900" lon="10.4871630">
	<ele>2488.40</ele>
	<time>2023-08-06T09:08:11.000Z</time>
</trkpt>
<trkpt lat="46.0539980" lon="10.4871690">
	<ele>2488.40</ele>
	<time>2023-08-06T09:08:12.000Z</time>
</trkpt>
<trkpt lat="46.0540000" lon="10.4871730">
	<ele>2488.40</ele>
	<time>2023-08-06T09:08:13.000Z</time>
</trkpt>
<trkpt lat="46.0540040" lon="10.4871760">
	<ele>2488.40</ele>
	<time>2023-08-06T09:08:14.000Z</time>
</trkpt>
<trkpt lat="46.0540080" lon="10.4871770">
	<ele>2488.40</ele>
	<time>2023-08-06T09:08:15.000Z</time>
</trkpt>
<trkpt lat="46.0540140" lon="10.4871780">
	<ele>2488.40</ele>
	<time>2023-08-06T09:08:16.000Z</time>
</trkpt>
<trkpt lat="46.0540150" lon="10.4871730">
	<ele>2488.20</ele>
	<time>2023-08-06T09:08:17.000Z</time>
</trkpt>
<trkpt lat="46.0540190" lon="10.4871710">
	<ele>2488.00</ele>
	<time>2023-08-06T09:08:18.000Z</time>
</trkpt>
<trkpt lat="46.0540250" lon="10.4871690">
	<ele>2488.00</ele>
	<time>2023-08-06T09:08:19.000Z</time>
</trkpt>
<trkpt lat="46.0540290" lon="10.4871670">
	<ele>2487.80</ele>
	<time>2023-08-06T09:08:20.000Z</time>
</trkpt>
<trkpt lat="46.0540310" lon="10.4871650">
	<ele>2487.80</ele>
	<time>2023-08-06T09:08:21.000Z</time>
</trkpt>
<trkpt lat="46.0540320" lon="10.4871610">
	<ele>2487.60</ele>
	<time>2023-08-06T09:08:22.000Z</time>
</trkpt>
<trkpt lat="46.0540350" lon="10.4871550">
	<ele>2487.60</ele>
	<time>2023-08-06T09:08:23.000Z</time>
</trkpt>
<trkpt lat="46.0540430" lon="10.4871510">
	<ele>2487.40</ele>
	<time>2023-08-06T09:08:24.000Z</time>
</trkpt>
<trkpt lat="46.0540510" lon="10.4871510">
	<ele>2487.40</ele>
	<time>2023-08-06T09:08:25.000Z</time>
</trkpt>
<trkpt lat="46.0540580" lon="10.4871520">
	<ele>2487.40</ele>
	<time>2023-08-06T09:08:26.000Z</time>
</trkpt>
<trkpt lat="46.0540650" lon="10.4871540">
	<ele>2487.20</ele>
	<time>2023-08-06T09:08:27.000Z</time>
</trkpt>
<trkpt lat="46.0540680" lon="10.4871530">
	<ele>2487.00</ele>
	<time>2023-08-06T09:08:28.000Z</time>
</trkpt>
<trkpt lat="46.0540750" lon="10.4871540">
	<ele>2487.00</ele>
	<time>2023-08-06T09:08:29.000Z</time>
</trkpt>
<trkpt lat="46.0540850" lon="10.4871500">
	<ele>2486.80</ele>
	<time>2023-08-06T09:08:30.000Z</time>
</trkpt>
<trkpt lat="46.0540880" lon="10.4871460">
	<ele>2486.60</ele>
	<time>2023-08-06T09:08:31.000Z</time>
</trkpt>
<trkpt lat="46.0540940" lon="10.4871390">
	<ele>2486.60</ele>
	<time>2023-08-06T09:08:32.000Z</time>
</trkpt>
<trkpt lat="46.0541030" lon="10.4871330">
	<ele>2486.40</ele>
	<time>2023-08-06T09:08:33.000Z</time>
</trkpt>
<trkpt lat="46.0541100" lon="10.4871310">
	<ele>2486.40</ele>
	<time>2023-08-06T09:08:34.000Z</time>
</trkpt>
<trkpt lat="46.0541170" lon="10.4871270">
	<ele>2486.20</ele>
	<time>2023-08-06T09:08:35.000Z</time>
</trkpt>
<trkpt lat="46.0541210" lon="10.4871220">
	<ele>2486.20</ele>
	<time>2023-08-06T09:08:36.000Z</time>
</trkpt>
<trkpt lat="46.0541210" lon="10.4871140">
	<ele>2486.00</ele>
	<time>2023-08-06T09:08:37.000Z</time>
</trkpt>
<trkpt lat="46.0541260" lon="10.4871070">
	<ele>2486.00</ele>
	<time>2023-08-06T09:08:38.000Z</time>
</trkpt>
<trkpt lat="46.0541320" lon="10.4871010">
	<ele>2485.80</ele>
	<time>2023-08-06T09:08:39.000Z</time>
</trkpt>
<trkpt lat="46.0541420" lon="10.4870980">
	<ele>2485.80</ele>
	<time>2023-08-06T09:08:40.000Z</time>
</trkpt>
<trkpt lat="46.0541440" lon="10.4870980">
	<ele>2485.60</ele>
	<time>2023-08-06T09:08:41.000Z</time>
</trkpt>
<trkpt lat="46.0541480" lon="10.4871000">
	<ele>2485.60</ele>
	<time>2023-08-06T09:08:42.000Z</time>
</trkpt>
<trkpt lat="46.0541490" lon="10.4870970">
	<ele>2485.40</ele>
	<time>2023-08-06T09:08:43.000Z</time>
</trkpt>
<trkpt lat="46.0541550" lon="10.4870950">
	<ele>2485.20</ele>
	<time>2023-08-06T09:08:44.000Z</time>
</trkpt>
<trkpt lat="46.0541650" lon="10.4870930">
	<ele>2485.20</ele>
	<time>2023-08-06T09:08:45.000Z</time>
</trkpt>
<trkpt lat="46.0541720" lon="10.4870890">
	<ele>2485.00</ele>
	<time>2023-08-06T09:08:46.000Z</time>
</trkpt>
<trkpt lat="46.0541760" lon="10.4870840">
	<ele>2485.00</ele>
	<time>2023-08-06T09:08:47.000Z</time>
</trkpt>
<trkpt lat="46.0541830" lon="10.4870780">
	<ele>2485.00</ele>
	<time>2023-08-06T09:08:48.000Z</time>
</trkpt>
<trkpt lat="46.0541930" lon="10.4870740">
	<ele>2484.80</ele>
	<time>2023-08-06T09:08:49.000Z</time>
</trkpt>
<trkpt lat="46.0541970" lon="10.4870710">
	<ele>2484.80</ele>
	<time>2023-08-06T09:08:50.000Z</time>
</trkpt>
<trkpt lat="46.0542060" lon="10.4870680">
	<ele>2484.60</ele>
	<time>2023-08-06T09:08:51.000Z</time>
</trkpt>
<trkpt lat="46.0542190" lon="10.4870700">
	<ele>2484.60</ele>
	<time>2023-08-06T09:08:52.000Z</time>
</trkpt>
<trkpt lat="46.0542250" lon="10.4870730">
	<ele>2484.60</ele>
	<time>2023-08-06T09:08:53.000Z</time>
</trkpt>
<trkpt lat="46.0542310" lon="10.4870750">
	<ele>2484.60</ele>
	<time>2023-08-06T09:08:54.000Z</time>
</trkpt>
<trkpt lat="46.0542390" lon="10.4870790">
	<ele>2484.80</ele>
	<time>2023-08-06T09:08:55.000Z</time>
</trkpt>
<trkpt lat="46.0542460" lon="10.4870780">
	<ele>2485.00</ele>
	<time>2023-08-06T09:08:56.000Z</time>
</trkpt>
<trkpt lat="46.0542510" lon="10.4870730">
	<ele>2485.20</ele>
	<time>2023-08-06T09:08:57.000Z</time>
</trkpt>
<trkpt lat="46.0542590" lon="10.4870650">
	<ele>2485.40</ele>
	<time>2023-08-06T09:08:58.000Z</time>
</trkpt>
<trkpt lat="46.0542660" lon="10.4870650">
	<ele>2485.40</ele>
	<time>2023-08-06T09:08:59.000Z</time>
</trkpt>
<trkpt lat="46.0542710" lon="10.4870700">
	<ele>2485.60</ele>
	<time>2023-08-06T09:09:00.000Z</time>
</trkpt>
<trkpt lat="46.0542770" lon="10.4870720">
	<ele>2485.80</ele>
	<time>2023-08-06T09:09:01.000Z</time>
</trkpt>
<trkpt lat="46.0542790" lon="10.4870700">
	<ele>2486.00</ele>
	<time>2023-08-06T09:09:02.000Z</time>
</trkpt>
<trkpt lat="46.0542810" lon="10.4870660">
	<ele>2486.00</ele>
	<time>2023-08-06T09:09:03.000Z</time>
</trkpt>
<trkpt lat="46.0542900" lon="10.4870610">
	<ele>2486.20</ele>
	<time>2023-08-06T09:09:04.000Z</time>
</trkpt>
<trkpt lat="46.0542970" lon="10.4870560">
	<ele>2486.20</ele>
	<time>2023-08-06T09:09:05.000Z</time>
</trkpt>
<trkpt lat="46.0543070" lon="10.4870540">
	<ele>2486.20</ele>
	<time>2023-08-06T09:09:06.000Z</time>
</trkpt>
<trkpt lat="46.0543100" lon="10.4870520">
	<ele>2486.20</ele>
	<time>2023-08-06T09:09:07.000Z</time>
</trkpt>
<trkpt lat="46.0543190" lon="10.4870480">
	<ele>2486.40</ele>
	<time>2023-08-06T09:09:08.000Z</time>
</trkpt>
<trkpt lat="46.0543290" lon="10.4870420">
	<ele>2486.40</ele>
	<time>2023-08-06T09:09:09.000Z</time>
</trkpt>
<trkpt lat="46.0543440" lon="10.4870360">
	<ele>2486.60</ele>
	<time>2023-08-06T09:09:10.000Z</time>
</trkpt>
<trkpt lat="46.0543480" lon="10.4870320">
	<ele>2486.80</ele>
	<time>2023-08-06T09:09:11.000Z</time>
</trkpt>
<trkpt lat="46.0543430" lon="10.4870260">
	<ele>2486.80</ele>
	<time>2023-08-06T09:09:12.000Z</time>
</trkpt>
<trkpt lat="46.0543390" lon="10.4870160">
	<ele>2486.80</ele>
	<time>2023-08-06T09:09:13.000Z</time>
</trkpt>
<trkpt lat="46.0543440" lon="10.4870060">
	<ele>2487.00</ele>
	<time>2023-08-06T09:09:14.000Z</time>
</trkpt>
<trkpt lat="46.0543530" lon="10.4870000">
	<ele>2487.00</ele>
	<time>2023-08-06T09:09:15.000Z</time>
</trkpt>
<trkpt lat="46.0543730" lon="10.4870040">
	<ele>2487.20</ele>
	<time>2023-08-06T09:09:16.000Z</time>
</trkpt>
<trkpt lat="46.0543890" lon="10.4870120">
	<ele>2487.40</ele>
	<time>2023-08-06T09:09:17.000Z</time>
</trkpt>
<trkpt lat="46.0543950" lon="10.4870150">
	<ele>2487.40</ele>
	<time>2023-08-06T09:09:18.000Z</time>
</trkpt>
<trkpt lat="46.0543950" lon="10.4870180">
	<ele>2487.40</ele>
	<time>2023-08-06T09:09:19.000Z</time>
</trkpt>
<trkpt lat="46.0544010" lon="10.4870200">
	<ele>2487.60</ele>
	<time>2023-08-06T09:09:20.000Z</time>
</trkpt>
<trkpt lat="46.0544040" lon="10.4870200">
	<ele>2487.60</ele>
	<time>2023-08-06T09:09:21.000Z</time>
</trkpt>
<trkpt lat="46.0544090" lon="10.4870200">
	<ele>2487.80</ele>
	<time>2023-08-06T09:09:22.000Z</time>
</trkpt>
<trkpt lat="46.0544130" lon="10.4870210">
	<ele>2488.00</ele>
	<time>2023-08-06T09:09:23.000Z</time>
</trkpt>
<trkpt lat="46.0544190" lon="10.4870200">
	<ele>2488.20</ele>
	<time>2023-08-06T09:09:24.000Z</time>
</trkpt>
<trkpt lat="46.0544190" lon="10.4870100">
	<ele>2488.40</ele>
	<time>2023-08-06T09:09:25.000Z</time>
</trkpt>
<trkpt lat="46.0544230" lon="10.4870080">
	<ele>2488.40</ele>
	<time>2023-08-06T09:09:26.000Z</time>
</trkpt>
<trkpt lat="46.0544270" lon="10.4870080">
	<ele>2488.60</ele>
	<time>2023-08-06T09:09:27.000Z</time>
</trkpt>
<trkpt lat="46.0544300" lon="10.4870060">
	<ele>2488.60</ele>
	<time>2023-08-06T09:09:28.000Z</time>
</trkpt>
<trkpt lat="46.0544320" lon="10.4870090">
	<ele>2488.80</ele>
	<time>2023-08-06T09:09:29.000Z</time>
</trkpt>
<trkpt lat="46.0544410" lon="10.4870140">
	<ele>2489.00</ele>
	<time>2023-08-06T09:09:30.000Z</time>
</trkpt>
<trkpt lat="46.0544450" lon="10.4870160">
	<ele>2489.20</ele>
	<time>2023-08-06T09:09:31.000Z</time>
</trkpt>
<trkpt lat="46.0544500" lon="10.4870180">
	<ele>2489.40</ele>
	<time>2023-08-06T09:09:32.000Z</time>
</trkpt>
<trkpt lat="46.0544540" lon="10.4870250">
	<ele>2489.60</ele>
	<time>2023-08-06T09:09:33.000Z</time>
</trkpt>
<trkpt lat="46.0544590" lon="10.4870320">
	<ele>2489.60</ele>
	<time>2023-08-06T09:09:34.000Z</time>
</trkpt>
<trkpt lat="46.0544660" lon="10.4870410">
	<ele>2489.80</ele>
	<time>2023-08-06T09:09:35.000Z</time>
</trkpt>
<trkpt lat="46.0544690" lon="10.4870500">
	<ele>2489.80</ele>
	<time>2023-08-06T09:09:36.000Z</time>
</trkpt>
<trkpt lat="46.0544740" lon="10.4870600">
	<ele>2489.80</ele>
	<time>2023-08-06T09:09:37.000Z</time>
</trkpt>
<trkpt lat="46.0544770" lon="10.4870690">
	<ele>2490.00</ele>
	<time>2023-08-06T09:09:38.000Z</time>
</trkpt>
<trkpt lat="46.0544820" lon="10.4870740">
	<ele>2490.00</ele>
	<time>2023-08-06T09:09:39.000Z</time>
</trkpt>
<trkpt lat="46.0544910" lon="10.4870760">
	<ele>2490.00</ele>
	<time>2023-08-06T09:09:40.000Z</time>
</trkpt>
<trkpt lat="46.0544960" lon="10.4870750">
	<ele>2490.20</ele>
	<time>2023-08-06T09:09:41.000Z</time>
</trkpt>
<trkpt lat="46.0545000" lon="10.4870740">
	<ele>2490.40</ele>
	<time>2023-08-06T09:09:42.000Z</time>
</trkpt>
<trkpt lat="46.0545060" lon="10.4870770">
	<ele>2490.40</ele>
	<time>2023-08-06T09:09:43.000Z</time>
</trkpt>
<trkpt lat="46.0545100" lon="10.4870800">
	<ele>2490.60</ele>
	<time>2023-08-06T09:09:44.000Z</time>
</trkpt>
<trkpt lat="46.0545170" lon="10.4870850">
	<ele>2490.60</ele>
	<time>2023-08-06T09:09:45.000Z</time>
</trkpt>
<trkpt lat="46.0545240" lon="10.4870890">
	<ele>2490.80</ele>
	<time>2023-08-06T09:09:46.000Z</time>
</trkpt>
<trkpt lat="46.0545310" lon="10.4870870">
	<ele>2490.80</ele>
	<time>2023-08-06T09:09:47.000Z</time>
</trkpt>
<trkpt lat="46.0545380" lon="10.4870860">
	<ele>2490.80</ele>
	<time>2023-08-06T09:09:48.000Z</time>
</trkpt>
<trkpt lat="46.0545460" lon="10.4870880">
	<ele>2490.80</ele>
	<time>2023-08-06T09:09:49.000Z</time>
</trkpt>
<trkpt lat="46.0545540" lon="10.4870920">
	<ele>2491.20</ele>
	<time>2023-08-06T09:09:50.000Z</time>
</trkpt>
<trkpt lat="46.0545580" lon="10.4870960">
	<ele>2491.40</ele>
	<time>2023-08-06T09:09:51.000Z</time>
</trkpt>
<trkpt lat="46.0545620" lon="10.4871000">
	<ele>2491.40</ele>
	<time>2023-08-06T09:09:52.000Z</time>
</trkpt>
<trkpt lat="46.0545640" lon="10.4871010">
	<ele>2491.60</ele>
	<time>2023-08-06T09:09:53.000Z</time>
</trkpt>
<trkpt lat="46.0545660" lon="10.4871000">
	<ele>2491.60</ele>
	<time>2023-08-06T09:09:54.000Z</time>
</trkpt>
<trkpt lat="46.0545670" lon="10.4871000">
	<ele>2491.60</ele>
	<time>2023-08-06T09:09:55.000Z</time>
</trkpt>
<trkpt lat="46.0545690" lon="10.4870990">
	<ele>2491.60</ele>
	<time>2023-08-06T09:09:56.000Z</time>
</trkpt>
<trkpt lat="46.0545730" lon="10.4870970">
	<ele>2491.80</ele>
	<time>2023-08-06T09:09:57.000Z</time>
</trkpt>
<trkpt lat="46.0545780" lon="10.4870950">
	<ele>2491.80</ele>
	<time>2023-08-06T09:09:58.000Z</time>
</trkpt>
<trkpt lat="46.0545860" lon="10.4870910">
	<ele>2491.80</ele>
	<time>2023-08-06T09:09:59.000Z</time>
</trkpt>
<trkpt lat="46.0545900" lon="10.4870910">
	<ele>2491.80</ele>
	<time>2023-08-06T09:10:00.000Z</time>
</trkpt>
<trkpt lat="46.0545970" lon="10.4870890">
	<ele>2491.60</ele>
	<time>2023-08-06T09:10:01.000Z</time>
</trkpt>
<trkpt lat="46.0546010" lon="10.4870900">
	<ele>2491.60</ele>
	<time>2023-08-06T09:10:02.000Z</time>
</trkpt>
<trkpt lat="46.0546060" lon="10.4870920">
	<ele>2491.60</ele>
	<time>2023-08-06T09:10:03.000Z</time>
</trkpt>
<trkpt lat="46.0546110" lon="10.4870910">
	<ele>2491.80</ele>
	<time>2023-08-06T09:10:04.000Z</time>
</trkpt>
<trkpt lat="46.0546140" lon="10.4870890">
	<ele>2491.80</ele>
	<time>2023-08-06T09:10:05.000Z</time>
</trkpt>
<trkpt lat="46.0546190" lon="10.4870850">
	<ele>2491.80</ele>
	<time>2023-08-06T09:10:06.000Z</time>
</trkpt>
<trkpt lat="46.0546270" lon="10.4870830">
	<ele>2491.80</ele>
	<time>2023-08-06T09:10:07.000Z</time>
</trkpt>
<trkpt lat="46.0546360" lon="10.4870780">
	<ele>2491.80</ele>
	<time>2023-08-06T09:10:08.000Z</time>
</trkpt>
<trkpt lat="46.0546420" lon="10.4870780">
	<ele>2491.60</ele>
	<time>2023-08-06T09:10:09.000Z</time>
</trkpt>
<trkpt lat="46.0546510" lon="10.4870770">
	<ele>2491.60</ele>
	<time>2023-08-06T09:10:10.000Z</time>
</trkpt>
<trkpt lat="46.0546550" lon="10.4870780">
	<ele>2491.60</ele>
	<time>2023-08-06T09:10:11.000Z</time>
</trkpt>
<trkpt lat="46.0546650" lon="10.4870790">
	<ele>2491.60</ele>
	<time>2023-08-06T09:10:12.000Z</time>
</trkpt>
<trkpt lat="46.0546730" lon="10.4870800">
	<ele>2491.60</ele>
	<time>2023-08-06T09:10:13.000Z</time>
</trkpt>
<trkpt lat="46.0546770" lon="10.4870800">
	<ele>2491.80</ele>
	<time>2023-08-06T09:10:14.000Z</time>
</trkpt>
<trkpt lat="46.0546810" lon="10.4870850">
	<ele>2491.80</ele>
	<time>2023-08-06T09:10:15.000Z</time>
</trkpt>
<trkpt lat="46.0546850" lon="10.4870870">
	<ele>2492.00</ele>
	<time>2023-08-06T09:10:16.000Z</time>
</trkpt>
<trkpt lat="46.0546920" lon="10.4870890">
	<ele>2492.00</ele>
	<time>2023-08-06T09:10:17.000Z</time>
</trkpt>
<trkpt lat="46.0546960" lon="10.4870920">
	<ele>2492.20</ele>
	<time>2023-08-06T09:10:18.000Z</time>
</trkpt>
<trkpt lat="46.0547000" lon="10.4870930">
	<ele>2492.40</ele>
	<time>2023-08-06T09:10:19.000Z</time>
</trkpt>
<trkpt lat="46.0547100" lon="10.4870960">
	<ele>2492.60</ele>
	<time>2023-08-06T09:10:20.000Z</time>
</trkpt>
<trkpt lat="46.0547150" lon="10.4870970">
	<ele>2492.60</ele>
	<time>2023-08-06T09:10:21.000Z</time>
</trkpt>
<trkpt lat="46.0547170" lon="10.4871020">
	<ele>2492.80</ele>
	<time>2023-08-06T09:10:22.000Z</time>
</trkpt>
<trkpt lat="46.0547180" lon="10.4871040">
	<ele>2492.80</ele>
	<time>2023-08-06T09:10:23.000Z</time>
</trkpt>
<trkpt lat="46.0547250" lon="10.4871090">
	<ele>2493.00</ele>
	<time>2023-08-06T09:10:24.000Z</time>
</trkpt>
<trkpt lat="46.0547300" lon="10.4871120">
	<ele>2493.00</ele>
	<time>2023-08-06T09:10:25.000Z</time>
</trkpt>
<trkpt lat="46.0547330" lon="10.4871170">
	<ele>2493.20</ele>
	<time>2023-08-06T09:10:26.000Z</time>
</trkpt>
<trkpt lat="46.0547360" lon="10.4871200">
	<ele>2493.40</ele>
	<time>2023-08-06T09:10:27.000Z</time>
</trkpt>
<trkpt lat="46.0547420" lon="10.4871230">
	<ele>2493.60</ele>
	<time>2023-08-06T09:10:28.000Z</time>
</trkpt>
<trkpt lat="46.0547490" lon="10.4871250">
	<ele>2493.80</ele>
	<time>2023-08-06T09:10:29.000Z</time>
</trkpt>
<trkpt lat="46.0547530" lon="10.4871250">
	<ele>2494.00</ele>
	<time>2023-08-06T09:10:30.000Z</time>
</trkpt>
<trkpt lat="46.0547570" lon="10.4871250">
	<ele>2494.00</ele>
	<time>2023-08-06T09:10:31.000Z</time>
</trkpt>
<trkpt lat="46.0547570" lon="10.4871240">
	<ele>2494.00</ele>
	<time>2023-08-06T09:10:32.000Z</time>
</trkpt>
<trkpt lat="46.0547590" lon="10.4871210">
	<ele>2494.20</ele>
	<time>2023-08-06T09:10:33.000Z</time>
</trkpt>
<trkpt lat="46.0547610" lon="10.4871240">
	<ele>2494.40</ele>
	<time>2023-08-06T09:10:34.000Z</time>
</trkpt>
<trkpt lat="46.0547620" lon="10.4871250">
	<ele>2494.40</ele>
	<time>2023-08-06T09:10:35.000Z</time>
</trkpt>
<trkpt lat="46.0547650" lon="10.4871280">
	<ele>2494.60</ele>
	<time>2023-08-06T09:10:36.000Z</time>
</trkpt>
<trkpt lat="46.0547680" lon="10.4871280">
	<ele>2494.60</ele>
	<time>2023-08-06T09:10:37.000Z</time>
</trkpt>
<trkpt lat="46.0547750" lon="10.4871310">
	<ele>2494.80</ele>
	<time>2023-08-06T09:10:38.000Z</time>
</trkpt>
<trkpt lat="46.0547780" lon="10.4871310">
	<ele>2495.00</ele>
	<time>2023-08-06T09:10:39.000Z</time>
</trkpt>
<trkpt lat="46.0547810" lon="10.4871310">
	<ele>2495.40</ele>
	<time>2023-08-06T09:10:40.000Z</time>
</trkpt>
<trkpt lat="46.0547840" lon="10.4871290">
	<ele>2495.60</ele>
	<time>2023-08-06T09:10:41.000Z</time>
</trkpt>
<trkpt lat="46.0547880" lon="10.4871340">
	<ele>2495.80</ele>
	<time>2023-08-06T09:10:42.000Z</time>
</trkpt>
<trkpt lat="46.0547920" lon="10.4871410">
	<ele>2496.00</ele>
	<time>2023-08-06T09:10:43.000Z</time>
</trkpt>
<trkpt lat="46.0547950" lon="10.4871470">
	<ele>2496.20</ele>
	<time>2023-08-06T09:10:44.000Z</time>
</trkpt>
<trkpt lat="46.0547960" lon="10.4871510">
	<ele>2496.20</ele>
	<time>2023-08-06T09:10:45.000Z</time>
</trkpt>
<trkpt lat="46.0548000" lon="10.4871520">
	<ele>2496.20</ele>
	<time>2023-08-06T09:10:46.000Z</time>
</trkpt>
<trkpt lat="46.0548050" lon="10.4871520">
	<ele>2496.40</ele>
	<time>2023-08-06T09:10:47.000Z</time>
</trkpt>
<trkpt lat="46.0548120" lon="10.4871530">
	<ele>2496.60</ele>
	<time>2023-08-06T09:10:48.000Z</time>
</trkpt>
<trkpt lat="46.0548190" lon="10.4871560">
	<ele>2496.80</ele>
	<time>2023-08-06T09:10:49.000Z</time>
</trkpt>
<trkpt lat="46.0548240" lon="10.4871600">
	<ele>2496.80</ele>
	<time>2023-08-06T09:10:50.000Z</time>
</trkpt>
<trkpt lat="46.0548270" lon="10.4871620">
	<ele>2497.00</ele>
	<time>2023-08-06T09:10:51.000Z</time>
</trkpt>
<trkpt lat="46.0548310" lon="10.4871650">
	<ele>2497.00</ele>
	<time>2023-08-06T09:10:52.000Z</time>
</trkpt>
<trkpt lat="46.0548320" lon="10.4871730">
	<ele>2497.00</ele>
	<time>2023-08-06T09:10:53.000Z</time>
</trkpt>
<trkpt lat="46.0548310" lon="10.4871810">
	<ele>2497.20</ele>
	<time>2023-08-06T09:10:54.000Z</time>
</trkpt>
<trkpt lat="46.0548340" lon="10.4871890">
	<ele>2497.40</ele>
	<time>2023-08-06T09:10:55.000Z</time>
</trkpt>
<trkpt lat="46.0548330" lon="10.4871980">
	<ele>2497.80</ele>
	<time>2023-08-06T09:10:56.000Z</time>
</trkpt>
<trkpt lat="46.0548310" lon="10.4872060">
	<ele>2498.00</ele>
	<time>2023-08-06T09:10:57.000Z</time>
</trkpt>
<trkpt lat="46.0548300" lon="10.4872110">
	<ele>2498.20</ele>
	<time>2023-08-06T09:10:58.000Z</time>
</trkpt>
<trkpt lat="46.0548300" lon="10.4872140">
	<ele>2498.20</ele>
	<time>2023-08-06T09:10:59.000Z</time>
</trkpt>
<trkpt lat="46.0548320" lon="10.4872190">
	<ele>2498.40</ele>
	<time>2023-08-06T09:11:00.000Z</time>
</trkpt>
<trkpt lat="46.0548330" lon="10.4872230">
	<ele>2498.40</ele>
	<time>2023-08-06T09:11:01.000Z</time>
</trkpt>
<trkpt lat="46.0548340" lon="10.4872280">
	<ele>2498.40</ele>
	<time>2023-08-06T09:11:02.000Z</time>
</trkpt>
<trkpt lat="46.0548350" lon="10.4872320">
	<ele>2498.60</ele>
	<time>2023-08-06T09:11:03.000Z</time>
</trkpt>
<trkpt lat="46.0548340" lon="10.4872380">
	<ele>2498.60</ele>
	<time>2023-08-06T09:11:04.000Z</time>
</trkpt>
<trkpt lat="46.0548360" lon="10.4872460">
	<ele>2498.80</ele>
	<time>2023-08-06T09:11:05.000Z</time>
</trkpt>
<trkpt lat="46.0548370" lon="10.4872530">
	<ele>2498.80</ele>
	<time>2023-08-06T09:11:06.000Z</time>
</trkpt>
<trkpt lat="46.0548380" lon="10.4872560">
	<ele>2498.80</ele>
	<time>2023-08-06T09:11:07.000Z</time>
</trkpt>
<trkpt lat="46.0548400" lon="10.4872590">
	<ele>2499.00</ele>
	<time>2023-08-06T09:11:08.000Z</time>
</trkpt>
<trkpt lat="46.0548440" lon="10.4872630">
	<ele>2499.00</ele>
	<time>2023-08-06T09:11:09.000Z</time>
</trkpt>
<trkpt lat="46.0548470" lon="10.4872680">
	<ele>2499.20</ele>
	<time>2023-08-06T09:11:10.000Z</time>
</trkpt>
<trkpt lat="46.0548490" lon="10.4872730">
	<ele>2499.40</ele>
	<time>2023-08-06T09:11:11.000Z</time>
</trkpt>
<trkpt lat="46.0548510" lon="10.4872780">
	<ele>2499.60</ele>
	<time>2023-08-06T09:11:12.000Z</time>
</trkpt>
<trkpt lat="46.0548520" lon="10.4872810">
	<ele>2499.60</ele>
	<time>2023-08-06T09:11:13.000Z</time>
</trkpt>
<trkpt lat="46.0548530" lon="10.4872860">
	<ele>2499.80</ele>
	<time>2023-08-06T09:11:14.000Z</time>
</trkpt>
<trkpt lat="46.0548550" lon="10.4872910">
	<ele>2499.80</ele>
	<time>2023-08-06T09:11:15.000Z</time>
</trkpt>
<trkpt lat="46.0548590" lon="10.4872890">
	<ele>2500.00</ele>
	<time>2023-08-06T09:11:16.000Z</time>
</trkpt>
<trkpt lat="46.0548620" lon="10.4872900">
	<ele>2500.00</ele>
	<time>2023-08-06T09:11:17.000Z</time>
</trkpt>
<trkpt lat="46.0548650" lon="10.4872930">
	<ele>2500.40</ele>
	<time>2023-08-06T09:11:18.000Z</time>
</trkpt>
<trkpt lat="46.0548670" lon="10.4872950">
	<ele>2500.40</ele>
	<time>2023-08-06T09:11:19.000Z</time>
</trkpt>
<trkpt lat="46.0548690" lon="10.4872980">
	<ele>2500.80</ele>
	<time>2023-08-06T09:11:20.000Z</time>
</trkpt>
<trkpt lat="46.0548720" lon="10.4873010">
	<ele>2501.00</ele>
	<time>2023-08-06T09:11:21.000Z</time>
</trkpt>
<trkpt lat="46.0548760" lon="10.4873050">
	<ele>2501.00</ele>
	<time>2023-08-06T09:11:22.000Z</time>
</trkpt>
<trkpt lat="46.0548780" lon="10.4873070">
	<ele>2501.20</ele>
	<time>2023-08-06T09:11:23.000Z</time>
</trkpt>
<trkpt lat="46.0548800" lon="10.4873100">
	<ele>2501.40</ele>
	<time>2023-08-06T09:11:24.000Z</time>
</trkpt>
<trkpt lat="46.0548820" lon="10.4873110">
	<ele>2501.60</ele>
	<time>2023-08-06T09:11:25.000Z</time>
</trkpt>
<trkpt lat="46.0548850" lon="10.4873130">
	<ele>2501.60</ele>
	<time>2023-08-06T09:11:26.000Z</time>
</trkpt>
<trkpt lat="46.0548870" lon="10.4873130">
	<ele>2501.80</ele>
	<time>2023-08-06T09:11:27.000Z</time>
</trkpt>
<trkpt lat="46.0548930" lon="10.4873140">
	<ele>2501.80</ele>
	<time>2023-08-06T09:11:28.000Z</time>
</trkpt>
<trkpt lat="46.0548960" lon="10.4873170">
	<ele>2502.00</ele>
	<time>2023-08-06T09:11:29.000Z</time>
</trkpt>
<trkpt lat="46.0548990" lon="10.4873220">
	<ele>2502.00</ele>
	<time>2023-08-06T09:11:30.000Z</time>
</trkpt>
<trkpt lat="46.0549060" lon="10.4873220">
	<ele>2502.20</ele>
	<time>2023-08-06T09:11:31.000Z</time>
</trkpt>
<trkpt lat="46.0549120" lon="10.4873210">
	<ele>2502.40</ele>
	<time>2023-08-06T09:11:32.000Z</time>
</trkpt>
<trkpt lat="46.0549160" lon="10.4873210">
	<ele>2502.40</ele>
	<time>2023-08-06T09:11:33.000Z</time>
</trkpt>
<trkpt lat="46.0549210" lon="10.4873220">
	<ele>2502.60</ele>
	<time>2023-08-06T09:11:34.000Z</time>
</trkpt>
<trkpt lat="46.0549250" lon="10.4873200">
	<ele>2502.80</ele>
	<time>2023-08-06T09:11:35.000Z</time>
</trkpt>
<trkpt lat="46.0549290" lon="10.4873200">
	<ele>2502.80</ele>
	<time>2023-08-06T09:11:36.000Z</time>
</trkpt>
<trkpt lat="46.0549370" lon="10.4873190">
	<ele>2502.80</ele>
	<time>2023-08-06T09:11:37.000Z</time>
</trkpt>
<trkpt lat="46.0549440" lon="10.4873180">
	<ele>2502.80</ele>
	<time>2023-08-06T09:11:38.000Z</time>
</trkpt>
<trkpt lat="46.0549480" lon="10.4873190">
	<ele>2503.00</ele>
	<time>2023-08-06T09:11:39.000Z</time>
</trkpt>
<trkpt lat="46.0549520" lon="10.4873220">
	<ele>2503.20</ele>
	<time>2023-08-06T09:11:40.000Z</time>
</trkpt>
<trkpt lat="46.0549580" lon="10.4873260">
	<ele>2503.20</ele>
	<time>2023-08-06T09:11:41.000Z</time>
</trkpt>
<trkpt lat="46.0549630" lon="10.4873300">
	<ele>2503.40</ele>
	<time>2023-08-06T09:11:42.000Z</time>
</trkpt>
<trkpt lat="46.0549670" lon="10.4873330">
	<ele>2503.60</ele>
	<time>2023-08-06T09:11:43.000Z</time>
</trkpt>
<trkpt lat="46.0549690" lon="10.4873360">
	<ele>2503.80</ele>
	<time>2023-08-06T09:11:44.000Z</time>
</trkpt>
<trkpt lat="46.0549700" lon="10.4873390">
	<ele>2504.00</ele>
	<time>2023-08-06T09:11:45.000Z</time>
</trkpt>
<trkpt lat="46.0549690" lon="10.4873420">
	<ele>2504.20</ele>
	<time>2023-08-06T09:11:46.000Z</time>
</trkpt>
<trkpt lat="46.0549700" lon="10.4873460">
	<ele>2504.40</ele>
	<time>2023-08-06T09:11:47.000Z</time>
</trkpt>
<trkpt lat="46.0549720" lon="10.4873490">
	<ele>2504.40</ele>
	<time>2023-08-06T09:11:48.000Z</time>
</trkpt>
<trkpt lat="46.0549780" lon="10.4873460">
	<ele>2504.60</ele>
	<time>2023-08-06T09:11:49.000Z</time>
</trkpt>
<trkpt lat="46.0549840" lon="10.4873440">
	<ele>2504.80</ele>
	<time>2023-08-06T09:11:50.000Z</time>
</trkpt>
<trkpt lat="46.0549890" lon="10.4873420">
	<ele>2504.80</ele>
	<time>2023-08-06T09:11:51.000Z</time>
</trkpt>
<trkpt lat="46.0549960" lon="10.4873410">
	<ele>2504.80</ele>
	<time>2023-08-06T09:11:52.000Z</time>
</trkpt>
<trkpt lat="46.0550010" lon="10.4873420">
	<ele>2505.00</ele>
	<time>2023-08-06T09:11:53.000Z</time>
</trkpt>
<trkpt lat="46.0550070" lon="10.4873410">
	<ele>2505.00</ele>
	<time>2023-08-06T09:11:54.000Z</time>
</trkpt>
<trkpt lat="46.0550110" lon="10.4873410">
	<ele>2505.20</ele>
	<time>2023-08-06T09:11:55.000Z</time>
</trkpt>
<trkpt lat="46.0550150" lon="10.4873410">
	<ele>2505.40</ele>
	<time>2023-08-06T09:11:56.000Z</time>
</trkpt>
<trkpt lat="46.0550170" lon="10.4873420">
	<ele>2505.60</ele>
	<time>2023-08-06T09:11:57.000Z</time>
</trkpt>
<trkpt lat="46.0550220" lon="10.4873450">
	<ele>2505.80</ele>
	<time>2023-08-06T09:11:58.000Z</time>
</trkpt>
<trkpt lat="46.0550270" lon="10.4873450">
	<ele>2505.80</ele>
	<time>2023-08-06T09:11:59.000Z</time>
</trkpt>
<trkpt lat="46.0550310" lon="10.4873480">
	<ele>2506.00</ele>
	<time>2023-08-06T09:12:00.000Z</time>
</trkpt>
<trkpt lat="46.0550320" lon="10.4873530">
	<ele>2506.00</ele>
	<time>2023-08-06T09:12:01.000Z</time>
</trkpt>
<trkpt lat="46.0550350" lon="10.4873570">
	<ele>2506.20</ele>
	<time>2023-08-06T09:12:02.000Z</time>
</trkpt>
<trkpt lat="46.0550360" lon="10.4873610">
	<ele>2506.40</ele>
	<time>2023-08-06T09:12:03.000Z</time>
</trkpt>
<trkpt lat="46.0550380" lon="10.4873640">
	<ele>2506.40</ele>
	<time>2023-08-06T09:12:04.000Z</time>
</trkpt>
<trkpt lat="46.0550410" lon="10.4873680">
	<ele>2506.60</ele>
	<time>2023-08-06T09:12:05.000Z</time>
</trkpt>
<trkpt lat="46.0550430" lon="10.4873690">
	<ele>2506.60</ele>
	<time>2023-08-06T09:12:06.000Z</time>
</trkpt>
<trkpt lat="46.0550450" lon="10.4873730">
	<ele>2506.60</ele>
	<time>2023-08-06T09:12:07.000Z</time>
</trkpt>
<trkpt lat="46.0550490" lon="10.4873730">
	<ele>2506.60</ele>
	<time>2023-08-06T09:12:08.000Z</time>
</trkpt>
<trkpt lat="46.0550540" lon="10.4873730">
	<ele>2506.80</ele>
	<time>2023-08-06T09:12:09.000Z</time>
</trkpt>
<trkpt lat="46.0550560" lon="10.4873720">
	<ele>2507.00</ele>
	<time>2023-08-06T09:12:10.000Z</time>
</trkpt>
<trkpt lat="46.0550620" lon="10.4873700">
	<ele>2507.00</ele>
	<time>2023-08-06T09:12:11.000Z</time>
</trkpt>
<trkpt lat="46.0550650" lon="10.4873720">
	<ele>2507.20</ele>
	<time>2023-08-06T09:12:12.000Z</time>
</trkpt>
<trkpt lat="46.0550690" lon="10.4873780">
	<ele>2507.40</ele>
	<time>2023-08-06T09:12:13.000Z</time>
</trkpt>
<trkpt lat="46.0550710" lon="10.4873820">
	<ele>2507.60</ele>
	<time>2023-08-06T09:12:14.000Z</time>
</trkpt>
<trkpt lat="46.0550690" lon="10.4873880">
	<ele>2507.60</ele>
	<time>2023-08-06T09:12:15.000Z</time>
</trkpt>
<trkpt lat="46.0550660" lon="10.4873940">
	<ele>2507.80</ele>
	<time>2023-08-06T09:12:16.000Z</time>
</trkpt>
<trkpt lat="46.0550670" lon="10.4873980">
	<ele>2508.00</ele>
	<time>2023-08-06T09:12:17.000Z</time>
</trkpt>
<trkpt lat="46.0550670" lon="10.4874000">
	<ele>2508.00</ele>
	<time>2023-08-06T09:12:18.000Z</time>
</trkpt>
<trkpt lat="46.0550710" lon="10.4874060">
	<ele>2508.20</ele>
	<time>2023-08-06T09:12:19.000Z</time>
</trkpt>
<trkpt lat="46.0550710" lon="10.4874120">
	<ele>2508.40</ele>
	<time>2023-08-06T09:12:20.000Z</time>
</trkpt>
<trkpt lat="46.0550730" lon="10.4874170">
	<ele>2508.60</ele>
	<time>2023-08-06T09:12:21.000Z</time>
</trkpt>
<trkpt lat="46.0550740" lon="10.4874200">
	<ele>2508.60</ele>
	<time>2023-08-06T09:12:22.000Z</time>
</trkpt>
<trkpt lat="46.0550760" lon="10.4874210">
	<ele>2508.80</ele>
	<time>2023-08-06T09:12:23.000Z</time>
</trkpt>
<trkpt lat="46.0550760" lon="10.4874230">
	<ele>2508.80</ele>
	<time>2023-08-06T09:12:24.000Z</time>
</trkpt>
<trkpt lat="46.0550790" lon="10.4874230">
	<ele>2508.80</ele>
	<time>2023-08-06T09:12:25.000Z</time>
</trkpt>
<trkpt lat="46.0550800" lon="10.4874240">
	<ele>2508.80</ele>
	<time>2023-08-06T09:12:26.000Z</time>
</trkpt>
<trkpt lat="46.0550840" lon="10.4874270">
	<ele>2509.00</ele>
	<time>2023-08-06T09:12:27.000Z</time>
</trkpt>
<trkpt lat="46.0550900" lon="10.4874310">
	<ele>2509.00</ele>
	<time>2023-08-06T09:12:28.000Z</time>
</trkpt>
<trkpt lat="46.0550930" lon="10.4874330">
	<ele>2509.00</ele>
	<time>2023-08-06T09:12:29.000Z</time>
</trkpt>
<trkpt lat="46.0550960" lon="10.4874330">
	<ele>2509.20</ele>
	<time>2023-08-06T09:12:30.000Z</time>
</trkpt>
<trkpt lat="46.0550980" lon="10.4874310">
	<ele>2509.20</ele>
	<time>2023-08-06T09:12:31.000Z</time>
</trkpt>
<trkpt lat="46.0551000" lon="10.4874330">
	<ele>2509.40</ele>
	<time>2023-08-06T09:12:32.000Z</time>
</trkpt>
<trkpt lat="46.0551020" lon="10.4874370">
	<ele>2509.60</ele>
	<time>2023-08-06T09:12:33.000Z</time>
</trkpt>
<trkpt lat="46.0551040" lon="10.4874380">
	<ele>2509.80</ele>
	<time>2023-08-06T09:12:34.000Z</time>
</trkpt>
<trkpt lat="46.0551050" lon="10.4874380">
	<ele>2509.80</ele>
	<time>2023-08-06T09:12:35.000Z</time>
</trkpt>
<trkpt lat="46.0551070" lon="10.4874390">
	<ele>2510.00</ele>
	<time>2023-08-06T09:12:36.000Z</time>
</trkpt>
<trkpt lat="46.0551020" lon="10.4874460">
	<ele>2510.20</ele>
	<time>2023-08-06T09:12:37.000Z</time>
</trkpt>
<trkpt lat="46.0551010" lon="10.4874500">
	<ele>2510.20</ele>
	<time>2023-08-06T09:12:38.000Z</time>
</trkpt>
<trkpt lat="46.0551020" lon="10.4874530">
	<ele>2510.40</ele>
	<time>2023-08-06T09:12:39.000Z</time>
</trkpt>
<trkpt lat="46.0551090" lon="10.4874520">
	<ele>2510.60</ele>
	<time>2023-08-06T09:12:40.000Z</time>
</trkpt>
<trkpt lat="46.0551150" lon="10.4874530">
	<ele>2510.60</ele>
	<time>2023-08-06T09:12:41.000Z</time>
</trkpt>
<trkpt lat="46.0551180" lon="10.4874540">
	<ele>2510.80</ele>
	<time>2023-08-06T09:12:42.000Z</time>
</trkpt>
<trkpt lat="46.0551210" lon="10.4874510">
	<ele>2510.80</ele>
	<time>2023-08-06T09:12:43.000Z</time>
</trkpt>
<trkpt lat="46.0551300" lon="10.4874490">
	<ele>2510.80</ele>
	<time>2023-08-06T09:12:44.000Z</time>
</trkpt>
<trkpt lat="46.0551390" lon="10.4874500">
	<ele>2511.00</ele>
	<time>2023-08-06T09:12:45.000Z</time>
</trkpt>
<trkpt lat="46.0551400" lon="10.4874500">
	<ele>2511.00</ele>
	<time>2023-08-06T09:12:46.000Z</time>
</trkpt>
<trkpt lat="46.0551440" lon="10.4874500">
	<ele>2511.00</ele>
	<time>2023-08-06T09:12:47.000Z</time>
</trkpt>
<trkpt lat="46.0551480" lon="10.4874480">
	<ele>2511.20</ele>
	<time>2023-08-06T09:12:48.000Z</time>
</trkpt>
<trkpt lat="46.0551530" lon="10.4874490">
	<ele>2511.20</ele>
	<time>2023-08-06T09:12:49.000Z</time>
</trkpt>
<trkpt lat="46.0551570" lon="10.4874500">
	<ele>2511.60</ele>
	<time>2023-08-06T09:12:50.000Z</time>
</trkpt>
<trkpt lat="46.0551610" lon="10.4874500">
	<ele>2511.80</ele>
	<time>2023-08-06T09:12:51.000Z</time>
</trkpt>
<trkpt lat="46.0551660" lon="10.4874520">
	<ele>2512.00</ele>
	<time>2023-08-06T09:12:52.000Z</time>
</trkpt>
<trkpt lat="46.0551720" lon="10.4874540">
	<ele>2512.20</ele>
	<time>2023-08-06T09:12:53.000Z</time>
</trkpt>
<trkpt lat="46.0551780" lon="10.4874560">
	<ele>2512.20</ele>
	<time>2023-08-06T09:12:54.000Z</time>
</trkpt>
<trkpt lat="46.0551880" lon="10.4874550">
	<ele>2512.20</ele>
	<time>2023-08-06T09:12:55.000Z</time>
</trkpt>
<trkpt lat="46.0551950" lon="10.4874540">
	<ele>2512.20</ele>
	<time>2023-08-06T09:12:56.000Z</time>
</trkpt>
<trkpt lat="46.0552010" lon="10.4874510">
	<ele>2512.20</ele>
	<time>2023-08-06T09:12:57.000Z</time>
</trkpt>
<trkpt lat="46.0552100" lon="10.4874500">
	<ele>2512.20</ele>
	<time>2023-08-06T09:12:58.000Z</time>
</trkpt>
<trkpt lat="46.0552130" lon="10.4874480">
	<ele>2512.20</ele>
	<time>2023-08-06T09:12:59.000Z</time>
</trkpt>
<trkpt lat="46.0552220" lon="10.4874510">
	<ele>2512.40</ele>
	<time>2023-08-06T09:13:00.000Z</time>
</trkpt>
<trkpt lat="46.0552300" lon="10.4874530">
	<ele>2512.60</ele>
	<time>2023-08-06T09:13:01.000Z</time>
</trkpt>
<trkpt lat="46.0552370" lon="10.4874520">
	<ele>2512.60</ele>
	<time>2023-08-06T09:13:02.000Z</time>
</trkpt>
<trkpt lat="46.0552420" lon="10.4874520">
	<ele>2512.80</ele>
	<time>2023-08-06T09:13:03.000Z</time>
</trkpt>
<trkpt lat="46.0552500" lon="10.4874530">
	<ele>2513.00</ele>
	<time>2023-08-06T09:13:04.000Z</time>
</trkpt>
<trkpt lat="46.0552560" lon="10.4874550">
	<ele>2513.20</ele>
	<time>2023-08-06T09:13:05.000Z</time>
</trkpt>
<trkpt lat="46.0552610" lon="10.4874580">
	<ele>2513.20</ele>
	<time>2023-08-06T09:13:06.000Z</time>
</trkpt>
<trkpt lat="46.0552630" lon="10.4874610">
	<ele>2513.40</ele>
	<time>2023-08-06T09:13:07.000Z</time>
</trkpt>
<trkpt lat="46.0552660" lon="10.4874640">
	<ele>2513.60</ele>
	<time>2023-08-06T09:13:08.000Z</time>
</trkpt>
<trkpt lat="46.0552680" lon="10.4874640">
	<ele>2513.80</ele>
	<time>2023-08-06T09:13:09.000Z</time>
</trkpt>
<trkpt lat="46.0552690" lon="10.4874640">
	<ele>2514.00</ele>
	<time>2023-08-06T09:13:10.000Z</time>
</trkpt>
<trkpt lat="46.0552720" lon="10.4874650">
	<ele>2514.00</ele>
	<time>2023-08-06T09:13:11.000Z</time>
</trkpt>
<trkpt lat="46.0552720" lon="10.4874710">
	<ele>2514.20</ele>
	<time>2023-08-06T09:13:12.000Z</time>
</trkpt>
<trkpt lat="46.0552740" lon="10.4874740">
	<ele>2514.20</ele>
	<time>2023-08-06T09:13:13.000Z</time>
</trkpt>
<trkpt lat="46.0552750" lon="10.4874780">
	<ele>2514.20</ele>
	<time>2023-08-06T09:13:14.000Z</time>
</trkpt>
<trkpt lat="46.0552740" lon="10.4874820">
	<ele>2514.40</ele>
	<time>2023-08-06T09:13:15.000Z</time>
</trkpt>
<trkpt lat="46.0552710" lon="10.4874820">
	<ele>2514.40</ele>
	<time>2023-08-06T09:13:16.000Z</time>
</trkpt>
<trkpt lat="46.0552700" lon="10.4874800">
	<ele>2514.40</ele>
	<time>2023-08-06T09:13:17.000Z</time>
</trkpt>
<trkpt lat="46.0552690" lon="10.4874790">
	<ele>2514.40</ele>
	<time>2023-08-06T09:13:18.000Z</time>
</trkpt>
<trkpt lat="46.0552640" lon="10.4874790">
	<ele>2514.40</ele>
	<time>2023-08-06T09:13:19.000Z</time>
</trkpt>
<trkpt lat="46.0552570" lon="10.4874780">
	<ele>2514.40</ele>
	<time>2023-08-06T09:13:20.000Z</time>
</trkpt>
<trkpt lat="46.0552560" lon="10.4874780">
	<ele>2514.40</ele>
	<time>2023-08-06T09:13:21.000Z</time>
</trkpt>
<trkpt lat="46.0552580" lon="10.4874780">
	<ele>2514.60</ele>
	<time>2023-08-06T09:13:22.000Z</time>
</trkpt>
<trkpt lat="46.0552580" lon="10.4874780">
	<ele>2514.60</ele>
	<time>2023-08-06T09:13:23.000Z</time>
</trkpt>
<trkpt lat="46.0552580" lon="10.4874780">
	<ele>2514.60</ele>
	<time>2023-08-06T09:13:24.000Z</time>
</trkpt>
<trkpt lat="46.0552580" lon="10.4874780">
	<ele>2514.60</ele>
	<time>2023-08-06T09:13:25.000Z</time>
</trkpt>
<trkpt lat="46.0552580" lon="10.4874780">
	<ele>2514.60</ele>
	<time>2023-08-06T09:13:26.000Z</time>
</trkpt>
<trkpt lat="46.0552580" lon="10.4874780">
	<ele>2514.60</ele>
	<time>2023-08-06T09:13:27.000Z</time>
</trkpt>
<trkpt lat="46.0552580" lon="10.4874780">
	<ele>2514.60</ele>
	<time>2023-08-06T09:13:28.000Z</time>
</trkpt>
<trkpt lat="46.0552580" lon="10.4874780">
	<ele>2514.60</ele>
	<time>2023-08-06T09:13:29.000Z</time>
</trkpt>
<trkpt lat="46.0552580" lon="10.4874780">
	<ele>2514.60</ele>
	<time>2023-08-06T09:13:30.000Z</time>
</trkpt>
<trkpt lat="46.0552580" lon="10.4874780">
	<ele>2514.80</ele>
	<time>2023-08-06T09:13:31.000Z</time>
</trkpt>
<trkpt lat="46.0552580" lon="10.4874780">
	<ele>2514.80</ele>
	<time>2023-08-06T09:13:32.000Z</time>
</trkpt>
<trkpt lat="46.0552580" lon="10.4874780">
	<ele>2514.80</ele>
	<time>2023-08-06T09:13:33.000Z</time>
</trkpt>
<trkpt lat="46.0552580" lon="10.4874780">
	<ele>2514.80</ele>
	<time>2023-08-06T09:13:34.000Z</time>
</trkpt>
<trkpt lat="46.0552580" lon="10.4874780">
	<ele>2514.80</ele>
	<time>2023-08-06T09:13:35.000Z</time>
</trkpt>
<trkpt lat="46.0552580" lon="10.4874780">
	<ele>2514.80</ele>
	<time>2023-08-06T09:13:36.000Z</time>
</trkpt>
<trkpt lat="46.0552580" lon="10.4874780">
	<ele>2514.80</ele>
	<time>2023-08-06T09:13:37.000Z</time>
</trkpt>
<trkpt lat="46.0552570" lon="10.4874760">
	<ele>2514.80</ele>
	<time>2023-08-06T09:13:38.000Z</time>
</trkpt>
<trkpt lat="46.0552570" lon="10.4874760">
	<ele>2514.80</ele>
	<time>2023-08-06T09:13:39.000Z</time>
</trkpt>
<trkpt lat="46.0552580" lon="10.4874740">
	<ele>2514.60</ele>
	<time>2023-08-06T09:13:40.000Z</time>
</trkpt>
<trkpt lat="46.0552620" lon="10.4874730">
	<ele>2514.60</ele>
	<time>2023-08-06T09:13:41.000Z</time>
</trkpt>
<trkpt lat="46.0552640" lon="10.4874750">
	<ele>2514.60</ele>
	<time>2023-08-06T09:13:42.000Z</time>
</trkpt>
<trkpt lat="46.0552690" lon="10.4874770">
	<ele>2514.60</ele>
	<time>2023-08-06T09:13:43.000Z</time>
</trkpt>
<trkpt lat="46.0552750" lon="10.4874820">
	<ele>2514.60</ele>
	<time>2023-08-06T09:13:44.000Z</time>
</trkpt>
<trkpt lat="46.0552840" lon="10.4874840">
	<ele>2514.60</ele>
	<time>2023-08-06T09:13:45.000Z</time>
</trkpt>
<trkpt lat="46.0552870" lon="10.4874870">
	<ele>2514.80</ele>
	<time>2023-08-06T09:13:46.000Z</time>
</trkpt>
<trkpt lat="46.0552950" lon="10.4874900">
	<ele>2514.80</ele>
	<time>2023-08-06T09:13:47.000Z</time>
</trkpt>
<trkpt lat="46.0552990" lon="10.4874910">
	<ele>2514.80</ele>
	<time>2023-08-06T09:13:48.000Z</time>
</trkpt>
<trkpt lat="46.0553060" lon="10.4874960">
	<ele>2515.00</ele>
	<time>2023-08-06T09:13:49.000Z</time>
</trkpt>
<trkpt lat="46.0553090" lon="10.4875000">
	<ele>2515.00</ele>
	<time>2023-08-06T09:13:50.000Z</time>
</trkpt>
<trkpt lat="46.0553140" lon="10.4875020">
	<ele>2515.00</ele>
	<time>2023-08-06T09:13:51.000Z</time>
</trkpt>
<trkpt lat="46.0553210" lon="10.4875030">
	<ele>2515.00</ele>
	<time>2023-08-06T09:13:52.000Z</time>
</trkpt>
<trkpt lat="46.0553270" lon="10.4875070">
	<ele>2515.20</ele>
	<time>2023-08-06T09:13:53.000Z</time>
</trkpt>
<trkpt lat="46.0553310" lon="10.4875120">
	<ele>2515.20</ele>
	<time>2023-08-06T09:13:54.000Z</time>
</trkpt>
<trkpt lat="46.0553330" lon="10.4875150">
	<ele>2515.40</ele>
	<time>2023-08-06T09:13:55.000Z</time>
</trkpt>
<trkpt lat="46.0553410" lon="10.4875230">
	<ele>2515.40</ele>
	<time>2023-08-06T09:13:56.000Z</time>
</trkpt>
<trkpt lat="46.0553490" lon="10.4875290">
	<ele>2515.40</ele>
	<time>2023-08-06T09:13:57.000Z</time>
</trkpt>
<trkpt lat="46.0553500" lon="10.4875340">
	<ele>2515.60</ele>
	<time>2023-08-06T09:13:58.000Z</time>
</trkpt>
<trkpt lat="46.0553620" lon="10.4875310">
	<ele>2515.80</ele>
	<time>2023-08-06T09:13:59.000Z</time>
</trkpt>
<trkpt lat="46.0553750" lon="10.4875280">
	<ele>2516.00</ele>
	<time>2023-08-06T09:14:00.000Z</time>
</trkpt>
<trkpt lat="46.0553800" lon="10.4875320">
	<ele>2516.20</ele>
	<time>2023-08-06T09:14:01.000Z</time>
</trkpt>
<trkpt lat="46.0553830" lon="10.4875370">
	<ele>2516.40</ele>
	<time>2023-08-06T09:14:02.000Z</time>
</trkpt>
<trkpt lat="46.0553860" lon="10.4875400">
	<ele>2516.40</ele>
	<time>2023-08-06T09:14:03.000Z</time>
</trkpt>
<trkpt lat="46.0553870" lon="10.4875400">
	<ele>2516.80</ele>
	<time>2023-08-06T09:14:04.000Z</time>
</trkpt>
<trkpt lat="46.0553890" lon="10.4875420">
	<ele>2517.00</ele>
	<time>2023-08-06T09:14:05.000Z</time>
</trkpt>
<trkpt lat="46.0553910" lon="10.4875450">
	<ele>2517.00</ele>
	<time>2023-08-06T09:14:06.000Z</time>
</trkpt>
<trkpt lat="46.0553930" lon="10.4875460">
	<ele>2517.20</ele>
	<time>2023-08-06T09:14:07.000Z</time>
</trkpt>
<trkpt lat="46.0554000" lon="10.4875450">
	<ele>2517.20</ele>
	<time>2023-08-06T09:14:08.000Z</time>
</trkpt>
<trkpt lat="46.0554040" lon="10.4875460">
	<ele>2517.20</ele>
	<time>2023-08-06T09:14:09.000Z</time>
</trkpt>
<trkpt lat="46.0554120" lon="10.4875470">
	<ele>2517.20</ele>
	<time>2023-08-06T09:14:10.000Z</time>
</trkpt>
<trkpt lat="46.0554210" lon="10.4875520">
	<ele>2517.40</ele>
	<time>2023-08-06T09:14:11.000Z</time>
</trkpt>
<trkpt lat="46.0554280" lon="10.4875550">
	<ele>2517.60</ele>
	<time>2023-08-06T09:14:12.000Z</time>
</trkpt>
<trkpt lat="46.0554320" lon="10.4875560">
	<ele>2517.80</ele>
	<time>2023-08-06T09:14:13.000Z</time>
</trkpt>
<trkpt lat="46.0554330" lon="10.4875570">
	<ele>2518.00</ele>
	<time>2023-08-06T09:14:14.000Z</time>
</trkpt>
<trkpt lat="46.0554350" lon="10.4875550">
	<ele>2518.20</ele>
	<time>2023-08-06T09:14:15.000Z</time>
</trkpt>
<trkpt lat="46.0554400" lon="10.4875590">
	<ele>2518.20</ele>
	<time>2023-08-06T09:14:16.000Z</time>
</trkpt>
<trkpt lat="46.0554440" lon="10.4875600">
	<ele>2518.40</ele>
	<time>2023-08-06T09:14:17.000Z</time>
</trkpt>
<trkpt lat="46.0554450" lon="10.4875610">
	<ele>2518.40</ele>
	<time>2023-08-06T09:14:18.000Z</time>
</trkpt>
<trkpt lat="46.0554490" lon="10.4875600">
	<ele>2518.60</ele>
	<time>2023-08-06T09:14:19.000Z</time>
</trkpt>
<trkpt lat="46.0554500" lon="10.4875570">
	<ele>2518.60</ele>
	<time>2023-08-06T09:14:20.000Z</time>
</trkpt>
<trkpt lat="46.0554540" lon="10.4875570">
	<ele>2518.60</ele>
	<time>2023-08-06T09:14:21.000Z</time>
</trkpt>
<trkpt lat="46.0554600" lon="10.4875550">
	<ele>2518.60</ele>
	<time>2023-08-06T09:14:22.000Z</time>
</trkpt>
<trkpt lat="46.0554610" lon="10.4875530">
	<ele>2518.80</ele>
	<time>2023-08-06T09:14:23.000Z</time>
</trkpt>
<trkpt lat="46.0554700" lon="10.4875500">
	<ele>2518.80</ele>
	<time>2023-08-06T09:14:24.000Z</time>
</trkpt>
<trkpt lat="46.0554750" lon="10.4875480">
	<ele>2518.60</ele>
	<time>2023-08-06T09:14:25.000Z</time>
</trkpt>
<trkpt lat="46.0554790" lon="10.4875460">
	<ele>2518.60</ele>
	<time>2023-08-06T09:14:26.000Z</time>
</trkpt>
<trkpt lat="46.0554880" lon="10.4875450">
	<ele>2518.80</ele>
	<time>2023-08-06T09:14:27.000Z</time>
</trkpt>
<trkpt lat="46.0554940" lon="10.4875450">
	<ele>2518.80</ele>
	<time>2023-08-06T09:14:28.000Z</time>
</trkpt>
<trkpt lat="46.0554960" lon="10.4875450">
	<ele>2519.00</ele>
	<time>2023-08-06T09:14:29.000Z</time>
</trkpt>
<trkpt lat="46.0555000" lon="10.4875460">
	<ele>2519.20</ele>
	<time>2023-08-06T09:14:30.000Z</time>
</trkpt>
<trkpt lat="46.0555070" lon="10.4875480">
	<ele>2519.40</ele>
	<time>2023-08-06T09:14:31.000Z</time>
</trkpt>
<trkpt lat="46.0555150" lon="10.4875520">
	<ele>2519.60</ele>
	<time>2023-08-06T09:14:32.000Z</time>
</trkpt>
<trkpt lat="46.0555210" lon="10.4875530">
	<ele>2519.60</ele>
	<time>2023-08-06T09:14:33.000Z</time>
</trkpt>
<trkpt lat="46.0555250" lon="10.4875530">
	<ele>2519.60</ele>
	<time>2023-08-06T09:14:34.000Z</time>
</trkpt>
<trkpt lat="46.0555290" lon="10.4875530">
	<ele>2519.80</ele>
	<time>2023-08-06T09:14:35.000Z</time>
</trkpt>
<trkpt lat="46.0555310" lon="10.4875560">
	<ele>2520.00</ele>
	<time>2023-08-06T09:14:36.000Z</time>
</trkpt>
<trkpt lat="46.0555330" lon="10.4875580">
	<ele>2520.20</ele>
	<time>2023-08-06T09:14:37.000Z</time>
</trkpt>
<trkpt lat="46.0555330" lon="10.4875590">
	<ele>2520.40</ele>
	<time>2023-08-06T09:14:38.000Z</time>
</trkpt>
<trkpt lat="46.0555320" lon="10.4875590">
	<ele>2520.40</ele>
	<time>2023-08-06T09:14:39.000Z</time>
</trkpt>
<trkpt lat="46.0555360" lon="10.4875610">
	<ele>2520.40</ele>
	<time>2023-08-06T09:14:40.000Z</time>
</trkpt>
<trkpt lat="46.0555410" lon="10.4875640">
	<ele>2520.40</ele>
	<time>2023-08-06T09:14:41.000Z</time>
</trkpt>
<trkpt lat="46.0555470" lon="10.4875670">
	<ele>2520.40</ele>
	<time>2023-08-06T09:14:42.000Z</time>
</trkpt>
<trkpt lat="46.0555530" lon="10.4875680">
	<ele>2520.60</ele>
	<time>2023-08-06T09:14:43.000Z</time>
</trkpt>
<trkpt lat="46.0555600" lon="10.4875740">
	<ele>2520.40</ele>
	<time>2023-08-06T09:14:44.000Z</time>
</trkpt>
<trkpt lat="46.0555680" lon="10.4875730">
	<ele>2520.40</ele>
	<time>2023-08-06T09:14:45.000Z</time>
</trkpt>
<trkpt lat="46.0555750" lon="10.4875730">
	<ele>2520.40</ele>
	<time>2023-08-06T09:14:46.000Z</time>
</trkpt>
<trkpt lat="46.0555840" lon="10.4875730">
	<ele>2520.60</ele>
	<time>2023-08-06T09:14:47.000Z</time>
</trkpt>
<trkpt lat="46.0555890" lon="10.4875730">
	<ele>2520.60</ele>
	<time>2023-08-06T09:14:48.000Z</time>
</trkpt>
<trkpt lat="46.0555960" lon="10.4875700">
	<ele>2520.60</ele>
	<time>2023-08-06T09:14:49.000Z</time>
</trkpt>
<trkpt lat="46.0556030" lon="10.4875660">
	<ele>2520.60</ele>
	<time>2023-08-06T09:14:50.000Z</time>
</trkpt>
<trkpt lat="46.0556040" lon="10.4875660">
	<ele>2520.60</ele>
	<time>2023-08-06T09:14:51.000Z</time>
</trkpt>
<trkpt lat="46.0556110" lon="10.4875720">
	<ele>2520.80</ele>
	<time>2023-08-06T09:14:52.000Z</time>
</trkpt>
<trkpt lat="46.0556150" lon="10.4875770">
	<ele>2520.80</ele>
	<time>2023-08-06T09:14:53.000Z</time>
</trkpt>
<trkpt lat="46.0556180" lon="10.4875790">
	<ele>2520.80</ele>
	<time>2023-08-06T09:14:54.000Z</time>
</trkpt>
<trkpt lat="46.0556200" lon="10.4875790">
	<ele>2521.00</ele>
	<time>2023-08-06T09:14:55.000Z</time>
</trkpt>
<trkpt lat="46.0556210" lon="10.4875770">
	<ele>2521.00</ele>
	<time>2023-08-06T09:14:56.000Z</time>
</trkpt>
<trkpt lat="46.0556230" lon="10.4875770">
	<ele>2521.20</ele>
	<time>2023-08-06T09:14:57.000Z</time>
</trkpt>
<trkpt lat="46.0556290" lon="10.4875800">
	<ele>2521.20</ele>
	<time>2023-08-06T09:14:58.000Z</time>
</trkpt>
<trkpt lat="46.0556340" lon="10.4875820">
	<ele>2521.40</ele>
	<time>2023-08-06T09:14:59.000Z</time>
</trkpt>
<trkpt lat="46.0556360" lon="10.4875840">
	<ele>2521.60</ele>
	<time>2023-08-06T09:15:00.000Z</time>
</trkpt>
<trkpt lat="46.0556390" lon="10.4875840">
	<ele>2521.60</ele>
	<time>2023-08-06T09:15:01.000Z</time>
</trkpt>
<trkpt lat="46.0556440" lon="10.4875810">
	<ele>2521.80</ele>
	<time>2023-08-06T09:15:02.000Z</time>
</trkpt>
<trkpt lat="46.0556510" lon="10.4875790">
	<ele>2521.80</ele>
	<time>2023-08-06T09:15:03.000Z</time>
</trkpt>
<trkpt lat="46.0556560" lon="10.4875790">
	<ele>2522.00</ele>
	<time>2023-08-06T09:15:04.000Z</time>
</trkpt>
<trkpt lat="46.0556600" lon="10.4875800">
	<ele>2522.00</ele>
	<time>2023-08-06T09:15:05.000Z</time>
</trkpt>
<trkpt lat="46.0556600" lon="10.4875810">
	<ele>2522.20</ele>
	<time>2023-08-06T09:15:06.000Z</time>
</trkpt>
<trkpt lat="46.0556630" lon="10.4875830">
	<ele>2522.20</ele>
	<time>2023-08-06T09:15:07.000Z</time>
</trkpt>
<trkpt lat="46.0556660" lon="10.4875890">
	<ele>2522.20</ele>
	<time>2023-08-06T09:15:08.000Z</time>
</trkpt>
<trkpt lat="46.0556700" lon="10.4875920">
	<ele>2522.60</ele>
	<time>2023-08-06T09:15:09.000Z</time>
</trkpt>
<trkpt lat="46.0556730" lon="10.4875940">
	<ele>2522.60</ele>
	<time>2023-08-06T09:15:10.000Z</time>
</trkpt>
<trkpt lat="46.0556800" lon="10.4875980">
	<ele>2522.80</ele>
	<time>2023-08-06T09:15:11.000Z</time>
</trkpt>
<trkpt lat="46.0556820" lon="10.4876000">
	<ele>2522.80</ele>
	<time>2023-08-06T09:15:12.000Z</time>
</trkpt>
<trkpt lat="46.0556830" lon="10.4876010">
	<ele>2523.20</ele>
	<time>2023-08-06T09:15:13.000Z</time>
</trkpt>
<trkpt lat="46.0556840" lon="10.4875990">
	<ele>2523.40</ele>
	<time>2023-08-06T09:15:14.000Z</time>
</trkpt>
<trkpt lat="46.0556860" lon="10.4875960">
	<ele>2523.60</ele>
	<time>2023-08-06T09:15:15.000Z</time>
</trkpt>
<trkpt lat="46.0556900" lon="10.4875980">
	<ele>2523.60</ele>
	<time>2023-08-06T09:15:16.000Z</time>
</trkpt>
<trkpt lat="46.0556940" lon="10.4876000">
	<ele>2523.60</ele>
	<time>2023-08-06T09:15:17.000Z</time>
</trkpt>
<trkpt lat="46.0556960" lon="10.4876010">
	<ele>2523.60</ele>
	<time>2023-08-06T09:15:18.000Z</time>
</trkpt>
<trkpt lat="46.0556970" lon="10.4876040">
	<ele>2523.80</ele>
	<time>2023-08-06T09:15:19.000Z</time>
</trkpt>
<trkpt lat="46.0557000" lon="10.4876060">
	<ele>2523.80</ele>
	<time>2023-08-06T09:15:20.000Z</time>
</trkpt>
<trkpt lat="46.0557070" lon="10.4876070">
	<ele>2523.80</ele>
	<time>2023-08-06T09:15:21.000Z</time>
</trkpt>
<trkpt lat="46.0557080" lon="10.4876000">
	<ele>2524.00</ele>
	<time>2023-08-06T09:15:22.000Z</time>
</trkpt>
<trkpt lat="46.0557110" lon="10.4875990">
	<ele>2524.00</ele>
	<time>2023-08-06T09:15:23.000Z</time>
</trkpt>
<trkpt lat="46.0557130" lon="10.4875920">
	<ele>2524.00</ele>
	<time>2023-08-06T09:15:24.000Z</time>
</trkpt>
<trkpt lat="46.0557160" lon="10.4875900">
	<ele>2524.00</ele>
	<time>2023-08-06T09:15:25.000Z</time>
</trkpt>
<trkpt lat="46.0557190" lon="10.4875880">
	<ele>2524.40</ele>
	<time>2023-08-06T09:15:26.000Z</time>
</trkpt>
<trkpt lat="46.0557180" lon="10.4875820">
	<ele>2524.40</ele>
	<time>2023-08-06T09:15:27.000Z</time>
</trkpt>
<trkpt lat="46.0557170" lon="10.4875780">
	<ele>2524.60</ele>
	<time>2023-08-06T09:15:28.000Z</time>
</trkpt>
<trkpt lat="46.0557130" lon="10.4875720">
	<ele>2524.60</ele>
	<time>2023-08-06T09:15:29.000Z</time>
</trkpt>
<trkpt lat="46.0557130" lon="10.4875660">
	<ele>2524.80</ele>
	<time>2023-08-06T09:15:30.000Z</time>
</trkpt>
<trkpt lat="46.0557140" lon="10.4875600">
	<ele>2524.80</ele>
	<time>2023-08-06T09:15:31.000Z</time>
</trkpt>
<trkpt lat="46.0557200" lon="10.4875590">
	<ele>2525.00</ele>
	<time>2023-08-06T09:15:32.000Z</time>
</trkpt>
<trkpt lat="46.0557240" lon="10.4875560">
	<ele>2525.20</ele>
	<time>2023-08-06T09:15:33.000Z</time>
</trkpt>
<trkpt lat="46.0557260" lon="10.4875560">
	<ele>2525.20</ele>
	<time>2023-08-06T09:15:34.000Z</time>
</trkpt>
<trkpt lat="46.0557300" lon="10.4875560">
	<ele>2525.40</ele>
	<time>2023-08-06T09:15:35.000Z</time>
</trkpt>
<trkpt lat="46.0557310" lon="10.4875530">
	<ele>2525.40</ele>
	<time>2023-08-06T09:15:36.000Z</time>
</trkpt>
<trkpt lat="46.0557320" lon="10.4875530">
	<ele>2525.60</ele>
	<time>2023-08-06T09:15:37.000Z</time>
</trkpt>
<trkpt lat="46.0557340" lon="10.4875520">
	<ele>2525.80</ele>
	<time>2023-08-06T09:15:38.000Z</time>
</trkpt>
<trkpt lat="46.0557360" lon="10.4875520">
	<ele>2526.00</ele>
	<time>2023-08-06T09:15:39.000Z</time>
</trkpt>
<trkpt lat="46.0557400" lon="10.4875540">
	<ele>2526.00</ele>
	<time>2023-08-06T09:15:40.000Z</time>
</trkpt>
<trkpt lat="46.0557440" lon="10.4875550">
	<ele>2526.20</ele>
	<time>2023-08-06T09:15:41.000Z</time>
</trkpt>
<trkpt lat="46.0557460" lon="10.4875530">
	<ele>2526.40</ele>
	<time>2023-08-06T09:15:42.000Z</time>
</trkpt>
<trkpt lat="46.0557470" lon="10.4875490">
	<ele>2526.60</ele>
	<time>2023-08-06T09:15:43.000Z</time>
</trkpt>
<trkpt lat="46.0557480" lon="10.4875470">
	<ele>2526.80</ele>
	<time>2023-08-06T09:15:44.000Z</time>
</trkpt>
<trkpt lat="46.0557530" lon="10.4875470">
	<ele>2527.00</ele>
	<time>2023-08-06T09:15:45.000Z</time>
</trkpt>
<trkpt lat="46.0557560" lon="10.4875500">
	<ele>2527.00</ele>
	<time>2023-08-06T09:15:46.000Z</time>
</trkpt>
<trkpt lat="46.0557570" lon="10.4875520">
	<ele>2527.20</ele>
	<time>2023-08-06T09:15:47.000Z</time>
</trkpt>
<trkpt lat="46.0557590" lon="10.4875550">
	<ele>2527.40</ele>
	<time>2023-08-06T09:15:48.000Z</time>
</trkpt>
<trkpt lat="46.0557600" lon="10.4875610">
	<ele>2527.60</ele>
	<time>2023-08-06T09:15:49.000Z</time>
</trkpt>
<trkpt lat="46.0557600" lon="10.4875650">
	<ele>2527.60</ele>
	<time>2023-08-06T09:15:50.000Z</time>
</trkpt>
<trkpt lat="46.0557630" lon="10.4875720">
	<ele>2527.80</ele>
	<time>2023-08-06T09:15:51.000Z</time>
</trkpt>
<trkpt lat="46.0557660" lon="10.4875790">
	<ele>2528.00</ele>
	<time>2023-08-06T09:15:52.000Z</time>
</trkpt>
<trkpt lat="46.0557680" lon="10.4875830">
	<ele>2528.20</ele>
	<time>2023-08-06T09:15:53.000Z</time>
</trkpt>
<trkpt lat="46.0557670" lon="10.4875860">
	<ele>2528.40</ele>
	<time>2023-08-06T09:15:54.000Z</time>
</trkpt>
<trkpt lat="46.0557670" lon="10.4875900">
	<ele>2528.40</ele>
	<time>2023-08-06T09:15:55.000Z</time>
</trkpt>
<trkpt lat="46.0557680" lon="10.4875930">
	<ele>2528.40</ele>
	<time>2023-08-06T09:15:56.000Z</time>
</trkpt>
<trkpt lat="46.0557700" lon="10.4875920">
	<ele>2528.40</ele>
	<time>2023-08-06T09:15:57.000Z</time>
</trkpt>
<trkpt lat="46.0557700" lon="10.4875930">
	<ele>2528.60</ele>
	<time>2023-08-06T09:15:58.000Z</time>
</trkpt>
<trkpt lat="46.0557690" lon="10.4876000">
	<ele>2528.60</ele>
	<time>2023-08-06T09:15:59.000Z</time>
</trkpt>
<trkpt lat="46.0557730" lon="10.4876030">
	<ele>2528.80</ele>
	<time>2023-08-06T09:16:00.000Z</time>
</trkpt>
<trkpt lat="46.0557770" lon="10.4876070">
	<ele>2528.80</ele>
	<time>2023-08-06T09:16:01.000Z</time>
</trkpt>
<trkpt lat="46.0557780" lon="10.4876100">
	<ele>2529.00</ele>
	<time>2023-08-06T09:16:02.000Z</time>
</trkpt>
<trkpt lat="46.0557800" lon="10.4876110">
	<ele>2529.20</ele>
	<time>2023-08-06T09:16:03.000Z</time>
</trkpt>
<trkpt lat="46.0557810" lon="10.4876110">
	<ele>2529.60</ele>
	<time>2023-08-06T09:16:04.000Z</time>
</trkpt>
<trkpt lat="46.0557830" lon="10.4876170">
	<ele>2529.60</ele>
	<time>2023-08-06T09:16:05.000Z</time>
</trkpt>
<trkpt lat="46.0557850" lon="10.4876220">
	<ele>2529.80</ele>
	<time>2023-08-06T09:16:06.000Z</time>
</trkpt>
<trkpt lat="46.0557860" lon="10.4876270">
	<ele>2530.00</ele>
	<time>2023-08-06T09:16:07.000Z</time>
</trkpt>
<trkpt lat="46.0557860" lon="10.4876330">
	<ele>2530.20</ele>
	<time>2023-08-06T09:16:08.000Z</time>
</trkpt>
<trkpt lat="46.0557860" lon="10.4876410">
	<ele>2530.40</ele>
	<time>2023-08-06T09:16:09.000Z</time>
</trkpt>
<trkpt lat="46.0557880" lon="10.4876450">
	<ele>2530.40</ele>
	<time>2023-08-06T09:16:10.000Z</time>
</trkpt>
<trkpt lat="46.0557900" lon="10.4876420">
	<ele>2530.60</ele>
	<time>2023-08-06T09:16:11.000Z</time>
</trkpt>
<trkpt lat="46.0557920" lon="10.4876410">
	<ele>2530.80</ele>
	<time>2023-08-06T09:16:12.000Z</time>
</trkpt>
<trkpt lat="46.0557950" lon="10.4876410">
	<ele>2530.80</ele>
	<time>2023-08-06T09:16:13.000Z</time>
</trkpt>
<trkpt lat="46.0557970" lon="10.4876400">
	<ele>2531.00</ele>
	<time>2023-08-06T09:16:14.000Z</time>
</trkpt>
<trkpt lat="46.0557980" lon="10.4876390">
	<ele>2531.00</ele>
	<time>2023-08-06T09:16:15.000Z</time>
</trkpt>
<trkpt lat="46.0558040" lon="10.4876370">
	<ele>2531.20</ele>
	<time>2023-08-06T09:16:16.000Z</time>
</trkpt>
<trkpt lat="46.0558100" lon="10.4876380">
	<ele>2531.20</ele>
	<time>2023-08-06T09:16:17.000Z</time>
</trkpt>
<trkpt lat="46.0558120" lon="10.4876400">
	<ele>2531.40</ele>
	<time>2023-08-06T09:16:18.000Z</time>
</trkpt>
<trkpt lat="46.0558140" lon="10.4876430">
	<ele>2531.40</ele>
	<time>2023-08-06T09:16:19.000Z</time>
</trkpt>
<trkpt lat="46.0558140" lon="10.4876450">
	<ele>2531.40</ele>
	<time>2023-08-06T09:16:20.000Z</time>
</trkpt>
<trkpt lat="46.0558140" lon="10.4876490">
	<ele>2531.80</ele>
	<time>2023-08-06T09:16:21.000Z</time>
</trkpt>
<trkpt lat="46.0558150" lon="10.4876520">
	<ele>2532.00</ele>
	<time>2023-08-06T09:16:22.000Z</time>
</trkpt>
<trkpt lat="46.0558160" lon="10.4876510">
	<ele>2532.20</ele>
	<time>2023-08-06T09:16:23.000Z</time>
</trkpt>
<trkpt lat="46.0558170" lon="10.4876510">
	<ele>2532.20</ele>
	<time>2023-08-06T09:16:24.000Z</time>
</trkpt>
<trkpt lat="46.0558190" lon="10.4876520">
	<ele>2532.40</ele>
	<time>2023-08-06T09:16:25.000Z</time>
</trkpt>
<trkpt lat="46.0558190" lon="10.4876520">
	<ele>2532.60</ele>
	<time>2023-08-06T09:16:26.000Z</time>
</trkpt>
<trkpt lat="46.0558200" lon="10.4876520">
	<ele>2532.60</ele>
	<time>2023-08-06T09:16:27.000Z</time>
</trkpt>
<trkpt lat="46.0558200" lon="10.4876520">
	<ele>2532.60</ele>
	<time>2023-08-06T09:16:28.000Z</time>
</trkpt>
<trkpt lat="46.0558200" lon="10.4876520">
	<ele>2532.60</ele>
	<time>2023-08-06T09:16:29.000Z</time>
</trkpt>
<trkpt lat="46.0558200" lon="10.4876520">
	<ele>2532.80</ele>
	<time>2023-08-06T09:16:30.000Z</time>
</trkpt>
<trkpt lat="46.0558200" lon="10.4876520">
	<ele>2532.80</ele>
	<time>2023-08-06T09:16:31.000Z</time>
</trkpt>
<trkpt lat="46.0558200" lon="10.4876520">
	<ele>2533.20</ele>
	<time>2023-08-06T09:16:32.000Z</time>
</trkpt>
<trkpt lat="46.0558200" lon="10.4876520">
	<ele>2533.40</ele>
	<time>2023-08-06T09:16:33.000Z</time>
</trkpt>
<trkpt lat="46.0558200" lon="10.4876520">
	<ele>2533.60</ele>
	<time>2023-08-06T09:16:34.000Z</time>
</trkpt>
<trkpt lat="46.0558200" lon="10.4876520">
	<ele>2533.80</ele>
	<time>2023-08-06T09:16:35.000Z</time>
</trkpt>
<trkpt lat="46.0558200" lon="10.4876520">
	<ele>2534.00</ele>
	<time>2023-08-06T09:16:36.000Z</time>
</trkpt>
<trkpt lat="46.0558200" lon="10.4876520">
	<ele>2534.20</ele>
	<time>2023-08-06T09:16:37.000Z</time>
</trkpt>
<trkpt lat="46.0558200" lon="10.4876520">
	<ele>2534.40</ele>
	<time>2023-08-06T09:16:38.000Z</time>
</trkpt>
<trkpt lat="46.0558200" lon="10.4876520">
	<ele>2534.80</ele>
	<time>2023-08-06T09:16:39.000Z</time>
</trkpt>
<trkpt lat="46.0558200" lon="10.4876520">
	<ele>2534.80</ele>
	<time>2023-08-06T09:16:40.000Z</time>
</trkpt>
<trkpt lat="46.0558200" lon="10.4876520">
	<ele>2535.00</ele>
	<time>2023-08-06T09:16:41.000Z</time>
</trkpt>
<trkpt lat="46.0558200" lon="10.4876520">
	<ele>2535.00</ele>
	<time>2023-08-06T09:16:42.000Z</time>
</trkpt>
<trkpt lat="46.0558200" lon="10.4876520">
	<ele>2535.00</ele>
	<time>2023-08-06T09:16:43.000Z</time>
</trkpt>
<trkpt lat="46.0558210" lon="10.4876520">
	<ele>2535.20</ele>
	<time>2023-08-06T09:16:44.000Z</time>
</trkpt>
<trkpt lat="46.0558220" lon="10.4876520">
	<ele>2535.40</ele>
	<time>2023-08-06T09:16:45.000Z</time>
</trkpt>
<trkpt lat="46.0558280" lon="10.4876520">
	<ele>2535.40</ele>
	<time>2023-08-06T09:16:46.000Z</time>
</trkpt>
<trkpt lat="46.0558320" lon="10.4876520">
	<ele>2535.60</ele>
	<time>2023-08-06T09:16:47.000Z</time>
</trkpt>
<trkpt lat="46.0558340" lon="10.4876520">
	<ele>2535.80</ele>
	<time>2023-08-06T09:16:48.000Z</time>
</trkpt>
<trkpt lat="46.0558350" lon="10.4876520">
	<ele>2535.80</ele>
	<time>2023-08-06T09:16:49.000Z</time>
</trkpt>
<trkpt lat="46.0558360" lon="10.4876540">
	<ele>2535.80</ele>
	<time>2023-08-06T09:16:50.000Z</time>
</trkpt>
<trkpt lat="46.0558380" lon="10.4876560">
	<ele>2536.00</ele>
	<time>2023-08-06T09:16:51.000Z</time>
</trkpt>
<trkpt lat="46.0558400" lon="10.4876580">
	<ele>2535.80</ele>
	<time>2023-08-06T09:16:52.000Z</time>
</trkpt>
<trkpt lat="46.0558410" lon="10.4876580">
	<ele>2535.80</ele>
	<time>2023-08-06T09:16:53.000Z</time>
</trkpt>
<trkpt lat="46.0558410" lon="10.4876600">
	<ele>2535.80</ele>
	<time>2023-08-06T09:16:54.000Z</time>
</trkpt>
<trkpt lat="46.0558410" lon="10.4876600">
	<ele>2535.80</ele>
	<time>2023-08-06T09:16:55.000Z</time>
</trkpt>
<trkpt lat="46.0558410" lon="10.4876600">
	<ele>2535.80</ele>
	<time>2023-08-06T09:16:56.000Z</time>
</trkpt>
<trkpt lat="46.0558420" lon="10.4876610">
	<ele>2535.80</ele>
	<time>2023-08-06T09:16:57.000Z</time>
</trkpt>
<trkpt lat="46.0558430" lon="10.4876620">
	<ele>2535.80</ele>
	<time>2023-08-06T09:16:58.000Z</time>
</trkpt>
<trkpt lat="46.0558440" lon="10.4876650">
	<ele>2536.00</ele>
	<time>2023-08-06T09:16:59.000Z</time>
</trkpt>
<trkpt lat="46.0558470" lon="10.4876680">
	<ele>2536.00</ele>
	<time>2023-08-06T09:17:00.000Z</time>
</trkpt>
<trkpt lat="46.0558480" lon="10.4876720">
	<ele>2536.20</ele>
	<time>2023-08-06T09:17:01.000Z</time>
</trkpt>
<trkpt lat="46.0558490" lon="10.4876740">
	<ele>2536.40</ele>
	<time>2023-08-06T09:17:02.000Z</time>
</trkpt>
<trkpt lat="46.0558490" lon="10.4876760">
	<ele>2536.40</ele>
	<time>2023-08-06T09:17:03.000Z</time>
</trkpt>
<trkpt lat="46.0558490" lon="10.4876780">
	<ele>2536.40</ele>
	<time>2023-08-06T09:17:04.000Z</time>
</trkpt>
<trkpt lat="46.0558490" lon="10.4876790">
	<ele>2536.60</ele>
	<time>2023-08-06T09:17:05.000Z</time>
</trkpt>
<trkpt lat="46.0558500" lon="10.4876790">
	<ele>2536.60</ele>
	<time>2023-08-06T09:17:06.000Z</time>
</trkpt>
<trkpt lat="46.0558530" lon="10.4876800">
	<ele>2536.80</ele>
	<time>2023-08-06T09:17:07.000Z</time>
</trkpt>
<trkpt lat="46.0558530" lon="10.4876810">
	<ele>2537.00</ele>
	<time>2023-08-06T09:17:08.000Z</time>
</trkpt>
<trkpt lat="46.0558530" lon="10.4876830">
	<ele>2537.00</ele>
	<time>2023-08-06T09:17:09.000Z</time>
</trkpt>
<trkpt lat="46.0558540" lon="10.4876830">
	<ele>2537.20</ele>
	<time>2023-08-06T09:17:10.000Z</time>
</trkpt>
<trkpt lat="46.0558540" lon="10.4876870">
	<ele>2537.40</ele>
	<time>2023-08-06T09:17:11.000Z</time>
</trkpt>
<trkpt lat="46.0558540" lon="10.4876910">
	<ele>2537.60</ele>
	<time>2023-08-06T09:17:12.000Z</time>
</trkpt>
<trkpt lat="46.0558540" lon="10.4876940">
	<ele>2537.80</ele>
	<time>2023-08-06T09:17:13.000Z</time>
</trkpt>
<trkpt lat="46.0558550" lon="10.4876980">
	<ele>2538.00</ele>
	<time>2023-08-06T09:17:14.000Z</time>
</trkpt>
<trkpt lat="46.0558550" lon="10.4877000">
	<ele>2538.20</ele>
	<time>2023-08-06T09:17:15.000Z</time>
</trkpt>
<trkpt lat="46.0558580" lon="10.4877000">
	<ele>2538.40</ele>
	<time>2023-08-06T09:17:16.000Z</time>
</trkpt>
<trkpt lat="46.0558640" lon="10.4877010">
	<ele>2538.80</ele>
	<time>2023-08-06T09:17:17.000Z</time>
</trkpt>
<trkpt lat="46.0558700" lon="10.4877020">
	<ele>2538.80</ele>
	<time>2023-08-06T09:17:18.000Z</time>
</trkpt>
<trkpt lat="46.0558730" lon="10.4877030">
	<ele>2539.00</ele>
	<time>2023-08-06T09:17:19.000Z</time>
</trkpt>
<trkpt lat="46.0558760" lon="10.4877030">
	<ele>2539.00</ele>
	<time>2023-08-06T09:17:20.000Z</time>
</trkpt>
<trkpt lat="46.0558760" lon="10.4877030">
	<ele>2539.20</ele>
	<time>2023-08-06T09:17:21.000Z</time>
</trkpt>
<trkpt lat="46.0558760" lon="10.4877030">
	<ele>2539.40</ele>
	<time>2023-08-06T09:17:22.000Z</time>
</trkpt>
<trkpt lat="46.0558760" lon="10.4877030">
	<ele>2539.40</ele>
	<time>2023-08-06T09:17:23.000Z</time>
</trkpt>
<trkpt lat="46.0558780" lon="10.4877030">
	<ele>2539.80</ele>
	<time>2023-08-06T09:17:24.000Z</time>
</trkpt>
<trkpt lat="46.0558830" lon="10.4877050">
	<ele>2540.00</ele>
	<time>2023-08-06T09:17:25.000Z</time>
</trkpt>
<trkpt lat="46.0558880" lon="10.4877070">
	<ele>2540.20</ele>
	<time>2023-08-06T09:17:26.000Z</time>
</trkpt>
<trkpt lat="46.0558950" lon="10.4877120">
	<ele>2540.20</ele>
	<time>2023-08-06T09:17:27.000Z</time>
</trkpt>
<trkpt lat="46.0559010" lon="10.4877170">
	<ele>2540.40</ele>
	<time>2023-08-06T09:17:28.000Z</time>
</trkpt>
<trkpt lat="46.0559050" lon="10.4877230">
	<ele>2540.60</ele>
	<time>2023-08-06T09:17:29.000Z</time>
</trkpt>
<trkpt lat="46.0559080" lon="10.4877280">
	<ele>2540.80</ele>
	<time>2023-08-06T09:17:30.000Z</time>
</trkpt>
<trkpt lat="46.0559110" lon="10.4877330">
	<ele>2540.80</ele>
	<time>2023-08-06T09:17:31.000Z</time>
</trkpt>
<trkpt lat="46.0559140" lon="10.4877360">
	<ele>2541.00</ele>
	<time>2023-08-06T09:17:32.000Z</time>
</trkpt>
<trkpt lat="46.0559170" lon="10.4877390">
	<ele>2541.00</ele>
	<time>2023-08-06T09:17:33.000Z</time>
</trkpt>
<trkpt lat="46.0559180" lon="10.4877450">
	<ele>2541.20</ele>
	<time>2023-08-06T09:17:34.000Z</time>
</trkpt>
<trkpt lat="46.0559200" lon="10.4877490">
	<ele>2541.40</ele>
	<time>2023-08-06T09:17:35.000Z</time>
</trkpt>
<trkpt lat="46.0559210" lon="10.4877540">
	<ele>2541.60</ele>
	<time>2023-08-06T09:17:36.000Z</time>
</trkpt>
<trkpt lat="46.0559220" lon="10.4877560">
	<ele>2541.60</ele>
	<time>2023-08-06T09:17:37.000Z</time>
</trkpt>
<trkpt lat="46.0559220" lon="10.4877580">
	<ele>2541.60</ele>
	<time>2023-08-06T09:17:38.000Z</time>
</trkpt>
<trkpt lat="46.0559230" lon="10.4877650">
	<ele>2541.60</ele>
	<time>2023-08-06T09:17:39.000Z</time>
</trkpt>
<trkpt lat="46.0559230" lon="10.4877670">
	<ele>2541.60</ele>
	<time>2023-08-06T09:17:40.000Z</time>
</trkpt>
<trkpt lat="46.0559230" lon="10.4877690">
	<ele>2541.40</ele>
	<time>2023-08-06T09:17:41.000Z</time>
</trkpt>
<trkpt lat="46.0559260" lon="10.4877690">
	<ele>2541.40</ele>
	<time>2023-08-06T09:17:42.000Z</time>
</trkpt>
<trkpt lat="46.0559290" lon="10.4877710">
	<ele>2541.20</ele>
	<time>2023-08-06T09:17:43.000Z</time>
</trkpt>
<trkpt lat="46.0559300" lon="10.4877720">
	<ele>2541.20</ele>
	<time>2023-08-06T09:17:44.000Z</time>
</trkpt>
<trkpt lat="46.0559300" lon="10.4877720">
	<ele>2541.20</ele>
	<time>2023-08-06T09:17:45.000Z</time>
</trkpt>
<trkpt lat="46.0559300" lon="10.4877720">
	<ele>2541.60</ele>
	<time>2023-08-06T09:17:46.000Z</time>
</trkpt>
<trkpt lat="46.0559300" lon="10.4877720">
	<ele>2541.80</ele>
	<time>2023-08-06T09:17:47.000Z</time>
</trkpt>
<trkpt lat="46.0559300" lon="10.4877720">
	<ele>2542.00</ele>
	<time>2023-08-06T09:17:48.000Z</time>
</trkpt>
<trkpt lat="46.0559300" lon="10.4877720">
	<ele>2542.00</ele>
	<time>2023-08-06T09:17:49.000Z</time>
</trkpt>
<trkpt lat="46.0559300" lon="10.4877720">
	<ele>2542.20</ele>
	<time>2023-08-06T09:17:50.000Z</time>
</trkpt>
<trkpt lat="46.0559300" lon="10.4877720">
	<ele>2542.20</ele>
	<time>2023-08-06T09:17:51.000Z</time>
</trkpt>
<trkpt lat="46.0559300" lon="10.4877720">
	<ele>2542.20</ele>
	<time>2023-08-06T09:17:52.000Z</time>
</trkpt>
<trkpt lat="46.0559300" lon="10.4877720">
	<ele>2542.40</ele>
	<time>2023-08-06T09:17:53.000Z</time>
</trkpt>
<trkpt lat="46.0559300" lon="10.4877720">
	<ele>2542.20</ele>
	<time>2023-08-06T09:17:54.000Z</time>
</trkpt>
<trkpt lat="46.0559300" lon="10.4877720">
	<ele>2542.20</ele>
	<time>2023-08-06T09:17:55.000Z</time>
</trkpt>
<trkpt lat="46.0559300" lon="10.4877720">
	<ele>2542.20</ele>
	<time>2023-08-06T09:17:56.000Z</time>
</trkpt>
<trkpt lat="46.0559300" lon="10.4877720">
	<ele>2542.20</ele>
	<time>2023-08-06T09:17:57.000Z</time>
</trkpt>
<trkpt lat="46.0559300" lon="10.4877720">
	<ele>2542.20</ele>
	<time>2023-08-06T09:17:58.000Z</time>
</trkpt>
<trkpt lat="46.0559290" lon="10.4877720">
	<ele>2541.80</ele>
	<time>2023-08-06T09:17:59.000Z</time>
</trkpt>
<trkpt lat="46.0559290" lon="10.4877720">
	<ele>2541.80</ele>
	<time>2023-08-06T09:18:00.000Z</time>
</trkpt>
<trkpt lat="46.0559290" lon="10.4877720">
	<ele>2541.80</ele>
	<time>2023-08-06T09:18:01.000Z</time>
</trkpt>
<trkpt lat="46.0559290" lon="10.4877720">
	<ele>2541.60</ele>
	<time>2023-08-06T09:18:02.000Z</time>
</trkpt>
<trkpt lat="46.0559280" lon="10.4877720">
	<ele>2541.60</ele>
	<time>2023-08-06T09:18:03.000Z</time>
</trkpt>
<trkpt lat="46.0559280" lon="10.4877730">
	<ele>2541.60</ele>
	<time>2023-08-06T09:18:04.000Z</time>
</trkpt>
<trkpt lat="46.0559280" lon="10.4877730">
	<ele>2541.80</ele>
	<time>2023-08-06T09:18:05.000Z</time>
</trkpt>
<trkpt lat="46.0559280" lon="10.4877730">
	<ele>2541.80</ele>
	<time>2023-08-06T09:18:06.000Z</time>
</trkpt>
<trkpt lat="46.0559280" lon="10.4877720">
	<ele>2541.80</ele>
	<time>2023-08-06T09:18:07.000Z</time>
</trkpt>
<trkpt lat="46.0559280" lon="10.4877700">
	<ele>2541.80</ele>
	<time>2023-08-06T09:18:08.000Z</time>
</trkpt>
<trkpt lat="46.0559280" lon="10.4877700">
	<ele>2542.00</ele>
	<time>2023-08-06T09:18:09.000Z</time>
</trkpt>
<trkpt lat="46.0559280" lon="10.4877700">
	<ele>2542.00</ele>
	<time>2023-08-06T09:18:10.000Z</time>
</trkpt>
<trkpt lat="46.0559280" lon="10.4877700">
	<ele>2542.00</ele>
	<time>2023-08-06T09:18:11.000Z</time>
</trkpt>
<trkpt lat="46.0559280" lon="10.4877700">
	<ele>2542.00</ele>
	<time>2023-08-06T09:18:12.000Z</time>
</trkpt>
<trkpt lat="46.0559280" lon="10.4877700">
	<ele>2542.20</ele>
	<time>2023-08-06T09:18:13.000Z</time>
</trkpt>
<trkpt lat="46.0559280" lon="10.4877700">
	<ele>2542.20</ele>
	<time>2023-08-06T09:18:14.000Z</time>
</trkpt>
<trkpt lat="46.0559280" lon="10.4877700">
	<ele>2542.20</ele>
	<time>2023-08-06T09:18:15.000Z</time>
</trkpt>
<trkpt lat="46.0559280" lon="10.4877700">
	<ele>2542.20</ele>
	<time>2023-08-06T09:18:16.000Z</time>
</trkpt>
<trkpt lat="46.0559280" lon="10.4877700">
	<ele>2542.00</ele>
	<time>2023-08-06T09:18:17.000Z</time>
</trkpt>
<trkpt lat="46.0559280" lon="10.4877700">
	<ele>2542.20</ele>
	<time>2023-08-06T09:18:18.000Z</time>
</trkpt>
<trkpt lat="46.0559280" lon="10.4877700">
	<ele>2542.20</ele>
	<time>2023-08-06T09:18:19.000Z</time>
</trkpt>
<trkpt lat="46.0559270" lon="10.4877690">
	<ele>2542.00</ele>
	<time>2023-08-06T09:18:20.000Z</time>
</trkpt>
<trkpt lat="46.0559270" lon="10.4877690">
	<ele>2542.00</ele>
	<time>2023-08-06T09:18:21.000Z</time>
</trkpt>
<trkpt lat="46.0559270" lon="10.4877690">
	<ele>2542.00</ele>
	<time>2023-08-06T09:18:22.000Z</time>
</trkpt>
<trkpt lat="46.0559270" lon="10.4877690">
	<ele>2541.80</ele>
	<time>2023-08-06T09:18:23.000Z</time>
</trkpt>
<trkpt lat="46.0559260" lon="10.4877680">
	<ele>2542.00</ele>
	<time>2023-08-06T09:18:24.000Z</time>
</trkpt>
<trkpt lat="46.0559260" lon="10.4877680">
	<ele>2542.00</ele>
	<time>2023-08-06T09:18:25.000Z</time>
</trkpt>
<trkpt lat="46.0559260" lon="10.4877680">
	<ele>2542.00</ele>
	<time>2023-08-06T09:18:26.000Z</time>
</trkpt>
<trkpt lat="46.0559260" lon="10.4877680">
	<ele>2542.20</ele>
	<time>2023-08-06T09:18:27.000Z</time>
</trkpt>
<trkpt lat="46.0559260" lon="10.4877680">
	<ele>2542.20</ele>
	<time>2023-08-06T09:18:28.000Z</time>
</trkpt>
<trkpt lat="46.0559250" lon="10.4877680">
	<ele>2542.20</ele>
	<time>2023-08-06T09:18:29.000Z</time>
</trkpt>
<trkpt lat="46.0559250" lon="10.4877680">
	<ele>2542.20</ele>
	<time>2023-08-06T09:18:30.000Z</time>
</trkpt>
<trkpt lat="46.0559250" lon="10.4877680">
	<ele>2542.20</ele>
	<time>2023-08-06T09:18:31.000Z</time>
</trkpt>
<trkpt lat="46.0559250" lon="10.4877680">
	<ele>2542.20</ele>
	<time>2023-08-06T09:18:32.000Z</time>
</trkpt>
<trkpt lat="46.0559250" lon="10.4877680">
	<ele>2542.00</ele>
	<time>2023-08-06T09:18:33.000Z</time>
</trkpt>
<trkpt lat="46.0559250" lon="10.4877680">
	<ele>2542.00</ele>
	<time>2023-08-06T09:18:34.000Z</time>
</trkpt>
<trkpt lat="46.0559240" lon="10.4877680">
	<ele>2542.00</ele>
	<time>2023-08-06T09:18:35.000Z</time>
</trkpt>
<trkpt lat="46.0559240" lon="10.4877680">
	<ele>2542.00</ele>
	<time>2023-08-06T09:18:36.000Z</time>
</trkpt>
<trkpt lat="46.0559230" lon="10.4877680">
	<ele>2542.00</ele>
	<time>2023-08-06T09:18:37.000Z</time>
</trkpt>
<trkpt lat="46.0559210" lon="10.4877680">
	<ele>2541.80</ele>
	<time>2023-08-06T09:18:38.000Z</time>
</trkpt>
<trkpt lat="46.0559200" lon="10.4877680">
	<ele>2541.80</ele>
	<time>2023-08-06T09:18:39.000Z</time>
</trkpt>
<trkpt lat="46.0559180" lon="10.4877680">
	<ele>2541.80</ele>
	<time>2023-08-06T09:18:40.000Z</time>
</trkpt>
<trkpt lat="46.0559180" lon="10.4877690">
	<ele>2541.80</ele>
	<time>2023-08-06T09:18:41.000Z</time>
</trkpt>
<trkpt lat="46.0559170" lon="10.4877690">
	<ele>2541.60</ele>
	<time>2023-08-06T09:18:42.000Z</time>
</trkpt>
<trkpt lat="46.0559160" lon="10.4877690">
	<ele>2541.60</ele>
	<time>2023-08-06T09:18:43.000Z</time>
</trkpt>
<trkpt lat="46.0559150" lon="10.4877690">
	<ele>2541.60</ele>
	<time>2023-08-06T09:18:44.000Z</time>
</trkpt>
<trkpt lat="46.0559140" lon="10.4877690">
	<ele>2541.60</ele>
	<time>2023-08-06T09:18:45.000Z</time>
</trkpt>
<trkpt lat="46.0559130" lon="10.4877690">
	<ele>2541.40</ele>
	<time>2023-08-06T09:18:46.000Z</time>
</trkpt>
<trkpt lat="46.0559130" lon="10.4877690">
	<ele>2541.40</ele>
	<time>2023-08-06T09:18:47.000Z</time>
</trkpt>
<trkpt lat="46.0559120" lon="10.4877690">
	<ele>2541.40</ele>
	<time>2023-08-06T09:18:48.000Z</time>
</trkpt>
<trkpt lat="46.0559110" lon="10.4877690">
	<ele>2541.40</ele>
	<time>2023-08-06T09:18:49.000Z</time>
</trkpt>
<trkpt lat="46.0559110" lon="10.4877690">
	<ele>2541.20</ele>
	<time>2023-08-06T09:18:50.000Z</time>
</trkpt>
<trkpt lat="46.0559100" lon="10.4877690">
	<ele>2541.20</ele>
	<time>2023-08-06T09:18:51.000Z</time>
</trkpt>
<trkpt lat="46.0559100" lon="10.4877690">
	<ele>2541.20</ele>
	<time>2023-08-06T09:18:52.000Z</time>
</trkpt>
<trkpt lat="46.0559100" lon="10.4877690">
	<ele>2541.20</ele>
	<time>2023-08-06T09:18:53.000Z</time>
</trkpt>
<trkpt lat="46.0559090" lon="10.4877690">
	<ele>2541.20</ele>
	<time>2023-08-06T09:18:54.000Z</time>
</trkpt>
<trkpt lat="46.0559090" lon="10.4877690">
	<ele>2541.20</ele>
	<time>2023-08-06T09:18:55.000Z</time>
</trkpt>
<trkpt lat="46.0559080" lon="10.4877690">
	<ele>2541.20</ele>
	<time>2023-08-06T09:18:56.000Z</time>
</trkpt>
<trkpt lat="46.0559070" lon="10.4877690">
	<ele>2541.20</ele>
	<time>2023-08-06T09:18:57.000Z</time>
</trkpt>
<trkpt lat="46.0559050" lon="10.4877690">
	<ele>2541.20</ele>
	<time>2023-08-06T09:18:58.000Z</time>
</trkpt>
<trkpt lat="46.0559040" lon="10.4877690">
	<ele>2541.20</ele>
	<time>2023-08-06T09:18:59.000Z</time>
</trkpt>
<trkpt lat="46.0559040" lon="10.4877690">
	<ele>2541.20</ele>
	<time>2023-08-06T09:19:00.000Z</time>
</trkpt>
<trkpt lat="46.0559030" lon="10.4877690">
	<ele>2541.20</ele>
	<time>2023-08-06T09:19:01.000Z</time>
</trkpt>
<trkpt lat="46.0559030" lon="10.4877690">
	<ele>2541.20</ele>
	<time>2023-08-06T09:19:02.000Z</time>
</trkpt>
<trkpt lat="46.0559030" lon="10.4877690">
	<ele>2541.40</ele>
	<time>2023-08-06T09:19:03.000Z</time>
</trkpt>
<trkpt lat="46.0559020" lon="10.4877690">
	<ele>2541.20</ele>
	<time>2023-08-06T09:19:04.000Z</time>
</trkpt>
<trkpt lat="46.0559010" lon="10.4877690">
	<ele>2541.20</ele>
	<time>2023-08-06T09:19:05.000Z</time>
</trkpt>
<trkpt lat="46.0559010" lon="10.4877690">
	<ele>2541.00</ele>
	<time>2023-08-06T09:19:06.000Z</time>
</trkpt>
<trkpt lat="46.0559000" lon="10.4877690">
	<ele>2541.00</ele>
	<time>2023-08-06T09:19:07.000Z</time>
</trkpt>
<trkpt lat="46.0558990" lon="10.4877690">
	<ele>2541.00</ele>
	<time>2023-08-06T09:19:08.000Z</time>
</trkpt>
<trkpt lat="46.0558980" lon="10.4877690">
	<ele>2541.00</ele>
	<time>2023-08-06T09:19:09.000Z</time>
</trkpt>
<trkpt lat="46.0558970" lon="10.4877690">
	<ele>2541.00</ele>
	<time>2023-08-06T09:19:10.000Z</time>
</trkpt>
<trkpt lat="46.0558960" lon="10.4877690">
	<ele>2541.00</ele>
	<time>2023-08-06T09:19:11.000Z</time>
</trkpt>
<trkpt lat="46.0558960" lon="10.4877680">
	<ele>2541.00</ele>
	<time>2023-08-06T09:19:12.000Z</time>
</trkpt>
<trkpt lat="46.0558960" lon="10.4877680">
	<ele>2541.00</ele>
	<time>2023-08-06T09:19:13.000Z</time>
</trkpt>
<trkpt lat="46.0558960" lon="10.4877680">
	<ele>2541.20</ele>
	<time>2023-08-06T09:19:14.000Z</time>
</trkpt>
<trkpt lat="46.0558960" lon="10.4877670">
	<ele>2541.20</ele>
	<time>2023-08-06T09:19:15.000Z</time>
</trkpt>
<trkpt lat="46.0558960" lon="10.4877670">
	<ele>2541.00</ele>
	<time>2023-08-06T09:19:16.000Z</time>
</trkpt>
<trkpt lat="46.0558960" lon="10.4877660">
	<ele>2541.00</ele>
	<time>2023-08-06T09:19:17.000Z</time>
</trkpt>
<trkpt lat="46.0558960" lon="10.4877660">
	<ele>2541.00</ele>
	<time>2023-08-06T09:19:18.000Z</time>
</trkpt>
<trkpt lat="46.0558960" lon="10.4877650">
	<ele>2541.00</ele>
	<time>2023-08-06T09:19:19.000Z</time>
</trkpt>
<trkpt lat="46.0558960" lon="10.4877650">
	<ele>2541.20</ele>
	<time>2023-08-06T09:19:20.000Z</time>
</trkpt>
<trkpt lat="46.0558960" lon="10.4877650">
	<ele>2541.20</ele>
	<time>2023-08-06T09:19:21.000Z</time>
</trkpt>
<trkpt lat="46.0558960" lon="10.4877650">
	<ele>2541.20</ele>
	<time>2023-08-06T09:19:22.000Z</time>
</trkpt>
<trkpt lat="46.0558960" lon="10.4877650">
	<ele>2541.20</ele>
	<time>2023-08-06T09:19:23.000Z</time>
</trkpt>
<trkpt lat="46.0558960" lon="10.4877640">
	<ele>2541.20</ele>
	<time>2023-08-06T09:19:24.000Z</time>
</trkpt>
<trkpt lat="46.0558960" lon="10.4877640">
	<ele>2541.20</ele>
	<time>2023-08-06T09:19:25.000Z</time>
</trkpt>
<trkpt lat="46.0558960" lon="10.4877640">
	<ele>2541.20</ele>
	<time>2023-08-06T09:19:26.000Z</time>
</trkpt>
<trkpt lat="46.0558960" lon="10.4877640">
	<ele>2541.20</ele>
	<time>2023-08-06T09:19:27.000Z</time>
</trkpt>
<trkpt lat="46.0558970" lon="10.4877640">
	<ele>2541.20</ele>
	<time>2023-08-06T09:19:28.000Z</time>
</trkpt>
<trkpt lat="46.0558970" lon="10.4877630">
	<ele>2541.00</ele>
	<time>2023-08-06T09:19:29.000Z</time>
</trkpt>
<trkpt lat="46.0558980" lon="10.4877630">
	<ele>2541.00</ele>
	<time>2023-08-06T09:19:30.000Z</time>
</trkpt>
<trkpt lat="46.0558980" lon="10.4877630">
	<ele>2541.00</ele>
	<time>2023-08-06T09:19:31.000Z</time>
</trkpt>
<trkpt lat="46.0558980" lon="10.4877620">
	<ele>2541.00</ele>
	<time>2023-08-06T09:19:32.000Z</time>
</trkpt>
<trkpt lat="46.0558980" lon="10.4877620">
	<ele>2540.80</ele>
	<time>2023-08-06T09:19:33.000Z</time>
</trkpt>
<trkpt lat="46.0558980" lon="10.4877620">
	<ele>2540.60</ele>
	<time>2023-08-06T09:19:34.000Z</time>
</trkpt>
<trkpt lat="46.0558990" lon="10.4877620">
	<ele>2540.40</ele>
	<time>2023-08-06T09:19:35.000Z</time>
</trkpt>
<trkpt lat="46.0558990" lon="10.4877620">
	<ele>2540.40</ele>
	<time>2023-08-06T09:19:36.000Z</time>
</trkpt>
<trkpt lat="46.0558990" lon="10.4877620">
	<ele>2540.40</ele>
	<time>2023-08-06T09:19:37.000Z</time>
</trkpt>
<trkpt lat="46.0558990" lon="10.4877620">
	<ele>2540.60</ele>
	<time>2023-08-06T09:19:38.000Z</time>
</trkpt>
<trkpt lat="46.0558990" lon="10.4877620">
	<ele>2540.60</ele>
	<time>2023-08-06T09:19:39.000Z</time>
</trkpt>
<trkpt lat="46.0558990" lon="10.4877620">
	<ele>2540.60</ele>
	<time>2023-08-06T09:19:40.000Z</time>
</trkpt>
<trkpt lat="46.0558990" lon="10.4877620">
	<ele>2540.60</ele>
	<time>2023-08-06T09:19:41.000Z</time>
</trkpt>
<trkpt lat="46.0558990" lon="10.4877620">
	<ele>2540.60</ele>
	<time>2023-08-06T09:19:42.000Z</time>
</trkpt>
<trkpt lat="46.0559000" lon="10.4877620">
	<ele>2540.60</ele>
	<time>2023-08-06T09:19:43.000Z</time>
</trkpt>
<trkpt lat="46.0559000" lon="10.4877620">
	<ele>2540.60</ele>
	<time>2023-08-06T09:19:44.000Z</time>
</trkpt>
<trkpt lat="46.0559000" lon="10.4877620">
	<ele>2540.40</ele>
	<time>2023-08-06T09:19:45.000Z</time>
</trkpt>
<trkpt lat="46.0559000" lon="10.4877620">
	<ele>2540.40</ele>
	<time>2023-08-06T09:19:46.000Z</time>
</trkpt>
<trkpt lat="46.0559010" lon="10.4877620">
	<ele>2540.60</ele>
	<time>2023-08-06T09:19:47.000Z</time>
</trkpt>
<trkpt lat="46.0559010" lon="10.4877620">
	<ele>2540.60</ele>
	<time>2023-08-06T09:19:48.000Z</time>
</trkpt>
<trkpt lat="46.0559010" lon="10.4877620">
	<ele>2540.80</ele>
	<time>2023-08-06T09:19:49.000Z</time>
</trkpt>
<trkpt lat="46.0559010" lon="10.4877620">
	<ele>2541.00</ele>
	<time>2023-08-06T09:19:50.000Z</time>
</trkpt>
<trkpt lat="46.0559010" lon="10.4877620">
	<ele>2541.00</ele>
	<time>2023-08-06T09:19:51.000Z</time>
</trkpt>
<trkpt lat="46.0559010" lon="10.4877620">
	<ele>2541.00</ele>
	<time>2023-08-06T09:19:52.000Z</time>
</trkpt>
<trkpt lat="46.0559010" lon="10.4877630">
	<ele>2541.00</ele>
	<time>2023-08-06T09:19:53.000Z</time>
</trkpt>
<trkpt lat="46.0559020" lon="10.4877630">
	<ele>2541.00</ele>
	<time>2023-08-06T09:19:54.000Z</time>
</trkpt>
<trkpt lat="46.0559020" lon="10.4877630">
	<ele>2541.00</ele>
	<time>2023-08-06T09:19:55.000Z</time>
</trkpt>
<trkpt lat="46.0559020" lon="10.4877630">
	<ele>2541.00</ele>
	<time>2023-08-06T09:19:56.000Z</time>
</trkpt>
<trkpt lat="46.0559020" lon="10.4877630">
	<ele>2541.00</ele>
	<time>2023-08-06T09:19:57.000Z</time>
</trkpt>
<trkpt lat="46.0559020" lon="10.4877630">
	<ele>2541.00</ele>
	<time>2023-08-06T09:19:58.000Z</time>
</trkpt>
<trkpt lat="46.0559020" lon="10.4877630">
	<ele>2541.00</ele>
	<time>2023-08-06T09:19:59.000Z</time>
</trkpt>
<trkpt lat="46.0559020" lon="10.4877630">
	<ele>2541.00</ele>
	<time>2023-08-06T09:20:00.000Z</time>
</trkpt>
<trkpt lat="46.0559010" lon="10.4877630">
	<ele>2541.00</ele>
	<time>2023-08-06T09:20:01.000Z</time>
</trkpt>
<trkpt lat="46.0559010" lon="10.4877630">
	<ele>2541.00</ele>
	<time>2023-08-06T09:20:02.000Z</time>
</trkpt>
<trkpt lat="46.0559010" lon="10.4877630">
	<ele>2541.00</ele>
	<time>2023-08-06T09:20:03.000Z</time>
</trkpt>
<trkpt lat="46.0559010" lon="10.4877630">
	<ele>2541.00</ele>
	<time>2023-08-06T09:20:04.000Z</time>
</trkpt>
<trkpt lat="46.0559000" lon="10.4877630">
	<ele>2541.00</ele>
	<time>2023-08-06T09:20:05.000Z</time>
</trkpt>
<trkpt lat="46.0559000" lon="10.4877630">
	<ele>2541.00</ele>
	<time>2023-08-06T09:20:06.000Z</time>
</trkpt>
<trkpt lat="46.0559000" lon="10.4877630">
	<ele>2541.00</ele>
	<time>2023-08-06T09:20:07.000Z</time>
</trkpt>
<trkpt lat="46.0559000" lon="10.4877630">
	<ele>2541.00</ele>
	<time>2023-08-06T09:20:08.000Z</time>
</trkpt>
<trkpt lat="46.0558990" lon="10.4877630">
	<ele>2541.00</ele>
	<time>2023-08-06T09:20:09.000Z</time>
</trkpt>
<trkpt lat="46.0558990" lon="10.4877630">
	<ele>2541.00</ele>
	<time>2023-08-06T09:20:10.000Z</time>
</trkpt>
<trkpt lat="46.0558990" lon="10.4877630">
	<ele>2541.00</ele>
	<time>2023-08-06T09:20:11.000Z</time>
</trkpt>
<trkpt lat="46.0558980" lon="10.4877630">
	<ele>2541.00</ele>
	<time>2023-08-06T09:20:12.000Z</time>
</trkpt>
<trkpt lat="46.0558980" lon="10.4877630">
	<ele>2541.20</ele>
	<time>2023-08-06T09:20:13.000Z</time>
</trkpt>
<trkpt lat="46.0558970" lon="10.4877630">
	<ele>2541.20</ele>
	<time>2023-08-06T09:20:14.000Z</time>
</trkpt>
<trkpt lat="46.0558960" lon="10.4877620">
	<ele>2541.20</ele>
	<time>2023-08-06T09:20:15.000Z</time>
</trkpt>
<trkpt lat="46.0558950" lon="10.4877620">
	<ele>2541.20</ele>
	<time>2023-08-06T09:20:16.000Z</time>
</trkpt>
<trkpt lat="46.0558940" lon="10.4877610">
	<ele>2541.40</ele>
	<time>2023-08-06T09:20:17.000Z</time>
</trkpt>
<trkpt lat="46.0558930" lon="10.4877600">
	<ele>2541.40</ele>
	<time>2023-08-06T09:20:18.000Z</time>
</trkpt>
<trkpt lat="46.0558930" lon="10.4877600">
	<ele>2541.40</ele>
	<time>2023-08-06T09:20:19.000Z</time>
</trkpt>
<trkpt lat="46.0558920" lon="10.4877590">
	<ele>2541.20</ele>
	<time>2023-08-06T09:20:20.000Z</time>
</trkpt>
<trkpt lat="46.0558920" lon="10.4877590">
	<ele>2540.80</ele>
	<time>2023-08-06T09:20:21.000Z</time>
</trkpt>
<trkpt lat="46.0558920" lon="10.4877590">
	<ele>2540.60</ele>
	<time>2023-08-06T09:20:22.000Z</time>
</trkpt>
<trkpt lat="46.0558910" lon="10.4877590">
	<ele>2540.40</ele>
	<time>2023-08-06T09:20:23.000Z</time>
</trkpt>
<trkpt lat="46.0558900" lon="10.4877590">
	<ele>2540.20</ele>
	<time>2023-08-06T09:20:24.000Z</time>
</trkpt>
<trkpt lat="46.0558900" lon="10.4877590">
	<ele>2540.00</ele>
	<time>2023-08-06T09:20:25.000Z</time>
</trkpt>
<trkpt lat="46.0558890" lon="10.4877590">
	<ele>2540.20</ele>
	<time>2023-08-06T09:20:26.000Z</time>
</trkpt>
<trkpt lat="46.0558890" lon="10.4877590">
	<ele>2540.40</ele>
	<time>2023-08-06T09:20:27.000Z</time>
</trkpt>
<trkpt lat="46.0558890" lon="10.4877590">
	<ele>2540.60</ele>
	<time>2023-08-06T09:20:28.000Z</time>
</trkpt>
<trkpt lat="46.0558880" lon="10.4877590">
	<ele>2540.60</ele>
	<time>2023-08-06T09:20:29.000Z</time>
</trkpt>
<trkpt lat="46.0558880" lon="10.4877590">
	<ele>2540.60</ele>
	<time>2023-08-06T09:20:30.000Z</time>
</trkpt>
<trkpt lat="46.0558880" lon="10.4877590">
	<ele>2540.60</ele>
	<time>2023-08-06T09:20:31.000Z</time>
</trkpt>
<trkpt lat="46.0558880" lon="10.4877590">
	<ele>2540.40</ele>
	<time>2023-08-06T09:20:32.000Z</time>
</trkpt>
<trkpt lat="46.0558880" lon="10.4877590">
	<ele>2540.20</ele>
	<time>2023-08-06T09:20:33.000Z</time>
</trkpt>
<trkpt lat="46.0558880" lon="10.4877590">
	<ele>2540.00</ele>
	<time>2023-08-06T09:20:34.000Z</time>
</trkpt>
<trkpt lat="46.0558880" lon="10.4877590">
	<ele>2539.80</ele>
	<time>2023-08-06T09:20:35.000Z</time>
</trkpt>
<trkpt lat="46.0558880" lon="10.4877590">
	<ele>2539.80</ele>
	<time>2023-08-06T09:20:36.000Z</time>
</trkpt>
<trkpt lat="46.0558880" lon="10.4877590">
	<ele>2540.00</ele>
	<time>2023-08-06T09:20:37.000Z</time>
</trkpt>
<trkpt lat="46.0558880" lon="10.4877590">
	<ele>2540.00</ele>
	<time>2023-08-06T09:20:38.000Z</time>
</trkpt>
<trkpt lat="46.0558880" lon="10.4877590">
	<ele>2540.20</ele>
	<time>2023-08-06T09:20:39.000Z</time>
</trkpt>
<trkpt lat="46.0558880" lon="10.4877590">
	<ele>2540.40</ele>
	<time>2023-08-06T09:20:40.000Z</time>
</trkpt>
<trkpt lat="46.0558880" lon="10.4877590">
	<ele>2540.60</ele>
	<time>2023-08-06T09:20:41.000Z</time>
</trkpt>
<trkpt lat="46.0558890" lon="10.4877590">
	<ele>2541.00</ele>
	<time>2023-08-06T09:20:42.000Z</time>
</trkpt>
<trkpt lat="46.0558890" lon="10.4877590">
	<ele>2541.40</ele>
	<time>2023-08-06T09:20:43.000Z</time>
</trkpt>
<trkpt lat="46.0558890" lon="10.4877590">
	<ele>2541.80</ele>
	<time>2023-08-06T09:20:44.000Z</time>
</trkpt>
<trkpt lat="46.0558900" lon="10.4877590">
	<ele>2542.20</ele>
	<time>2023-08-06T09:20:45.000Z</time>
</trkpt>
<trkpt lat="46.0558910" lon="10.4877590">
	<ele>2542.40</ele>
	<time>2023-08-06T09:20:46.000Z</time>
</trkpt>
<trkpt lat="46.0558910" lon="10.4877590">
	<ele>2542.60</ele>
	<time>2023-08-06T09:20:47.000Z</time>
</trkpt>
<trkpt lat="46.0558920" lon="10.4877580">
	<ele>2542.80</ele>
	<time>2023-08-06T09:20:48.000Z</time>
</trkpt>
<trkpt lat="46.0558940" lon="10.4877560">
	<ele>2542.80</ele>
	<time>2023-08-06T09:20:49.000Z</time>
</trkpt>
<trkpt lat="46.0558940" lon="10.4877530">
	<ele>2542.80</ele>
	<time>2023-08-06T09:20:50.000Z</time>
</trkpt>
<trkpt lat="46.0558950" lon="10.4877500">
	<ele>2543.20</ele>
	<time>2023-08-06T09:20:51.000Z</time>
</trkpt>
<trkpt lat="46.0558960" lon="10.4877450">
	<ele>2543.60</ele>
	<time>2023-08-06T09:20:52.000Z</time>
</trkpt>
<trkpt lat="46.0558970" lon="10.4877410">
	<ele>2543.60</ele>
	<time>2023-08-06T09:20:53.000Z</time>
</trkpt>
<trkpt lat="46.0558980" lon="10.4877360">
	<ele>2543.80</ele>
	<time>2023-08-06T09:20:54.000Z</time>
</trkpt>
<trkpt lat="46.0558980" lon="10.4877300">
	<ele>2543.80</ele>
	<time>2023-08-06T09:20:55.000Z</time>
</trkpt>
<trkpt lat="46.0558990" lon="10.4877250">
	<ele>2544.00</ele>
	<time>2023-08-06T09:20:56.000Z</time>
</trkpt>
<trkpt lat="46.0559000" lon="10.4877210">
	<ele>2544.00</ele>
	<time>2023-08-06T09:20:57.000Z</time>
</trkpt>
<trkpt lat="46.0559010" lon="10.4877170">
	<ele>2544.00</ele>
	<time>2023-08-06T09:20:58.000Z</time>
</trkpt>
<trkpt lat="46.0559030" lon="10.4877130">
	<ele>2544.00</ele>
	<time>2023-08-06T09:20:59.000Z</time>
</trkpt>
<trkpt lat="46.0559060" lon="10.4877100">
	<ele>2544.20</ele>
	<time>2023-08-06T09:21:00.000Z</time>
</trkpt>
<trkpt lat="46.0559080" lon="10.4877070">
	<ele>2544.40</ele>
	<time>2023-08-06T09:21:01.000Z</time>
</trkpt>
<trkpt lat="46.0559100" lon="10.4877040">
	<ele>2544.60</ele>
	<time>2023-08-06T09:21:02.000Z</time>
</trkpt>
<trkpt lat="46.0559130" lon="10.4877000">
	<ele>2545.00</ele>
	<time>2023-08-06T09:21:03.000Z</time>
</trkpt>
<trkpt lat="46.0559150" lon="10.4876970">
	<ele>2545.40</ele>
	<time>2023-08-06T09:21:04.000Z</time>
</trkpt>
<trkpt lat="46.0559180" lon="10.4876940">
	<ele>2545.60</ele>
	<time>2023-08-06T09:21:05.000Z</time>
</trkpt>
<trkpt lat="46.0559210" lon="10.4876910">
	<ele>2545.60</ele>
	<time>2023-08-06T09:21:06.000Z</time>
</trkpt>
<trkpt lat="46.0559240" lon="10.4876880">
	<ele>2545.80</ele>
	<time>2023-08-06T09:21:07.000Z</time>
</trkpt>
<trkpt lat="46.0559270" lon="10.4876850">
	<ele>2545.80</ele>
	<time>2023-08-06T09:21:08.000Z</time>
</trkpt>
<trkpt lat="46.0559310" lon="10.4876810">
	<ele>2545.80</ele>
	<time>2023-08-06T09:21:09.000Z</time>
</trkpt>
<trkpt lat="46.0559340" lon="10.4876780">
	<ele>2545.80</ele>
	<time>2023-08-06T09:21:10.000Z</time>
</trkpt>
<trkpt lat="46.0559380" lon="10.4876740">
	<ele>2546.00</ele>
	<time>2023-08-06T09:21:11.000Z</time>
</trkpt>
<trkpt lat="46.0559410" lon="10.4876710">
	<ele>2546.20</ele>
	<time>2023-08-06T09:21:12.000Z</time>
</trkpt>
<trkpt lat="46.0559430" lon="10.4876670">
	<ele>2546.40</ele>
	<time>2023-08-06T09:21:13.000Z</time>
</trkpt>
<trkpt lat="46.0559460" lon="10.4876640">
	<ele>2546.60</ele>
	<time>2023-08-06T09:21:14.000Z</time>
</trkpt>
<trkpt lat="46.0559480" lon="10.4876610">
	<ele>2546.80</ele>
	<time>2023-08-06T09:21:15.000Z</time>
</trkpt>
<trkpt lat="46.0559510" lon="10.4876580">
	<ele>2546.80</ele>
	<time>2023-08-06T09:21:16.000Z</time>
</trkpt>
<trkpt lat="46.0559530" lon="10.4876560">
	<ele>2547.00</ele>
	<time>2023-08-06T09:21:17.000Z</time>
</trkpt>
<trkpt lat="46.0559560" lon="10.4876540">
	<ele>2547.00</ele>
	<time>2023-08-06T09:21:18.000Z</time>
</trkpt>
<trkpt lat="46.0559580" lon="10.4876520">
	<ele>2547.20</ele>
	<time>2023-08-06T09:21:19.000Z</time>
</trkpt>
<trkpt lat="46.0559600" lon="10.4876500">
	<ele>2547.20</ele>
	<time>2023-08-06T09:21:20.000Z</time>
</trkpt>
<trkpt lat="46.0559620" lon="10.4876480">
	<ele>2547.40</ele>
	<time>2023-08-06T09:21:21.000Z</time>
</trkpt>
<trkpt lat="46.0559640" lon="10.4876470">
	<ele>2547.40</ele>
	<time>2023-08-06T09:21:22.000Z</time>
</trkpt>
<trkpt lat="46.0559650" lon="10.4876450">
	<ele>2547.40</ele>
	<time>2023-08-06T09:21:23.000Z</time>
</trkpt>
<trkpt lat="46.0559660" lon="10.4876440">
	<ele>2547.40</ele>
	<time>2023-08-06T09:21:24.000Z</time>
</trkpt>
<trkpt lat="46.0559670" lon="10.4876430">
	<ele>2547.40</ele>
	<time>2023-08-06T09:21:25.000Z</time>
</trkpt>
<trkpt lat="46.0559680" lon="10.4876420">
	<ele>2547.60</ele>
	<time>2023-08-06T09:21:26.000Z</time>
</trkpt>
<trkpt lat="46.0559690" lon="10.4876420">
	<ele>2547.80</ele>
	<time>2023-08-06T09:21:27.000Z</time>
</trkpt>
<trkpt lat="46.0559690" lon="10.4876420">
	<ele>2548.40</ele>
	<time>2023-08-06T09:21:28.000Z</time>
</trkpt>
<trkpt lat="46.0559690" lon="10.4876410">
	<ele>2548.80</ele>
	<time>2023-08-06T09:21:29.000Z</time>
</trkpt>
<trkpt lat="46.0559690" lon="10.4876410">
	<ele>2549.00</ele>
	<time>2023-08-06T09:21:30.000Z</time>
</trkpt>
<trkpt lat="46.0559690" lon="10.4876410">
	<ele>2549.20</ele>
	<time>2023-08-06T09:21:31.000Z</time>
</trkpt>
<trkpt lat="46.0559700" lon="10.4876410">
	<ele>2549.20</ele>
	<time>2023-08-06T09:21:32.000Z</time>
</trkpt>
<trkpt lat="46.0559700" lon="10.4876400">
	<ele>2549.20</ele>
	<time>2023-08-06T09:21:33.000Z</time>
</trkpt>
<trkpt lat="46.0559700" lon="10.4876400">
	<ele>2549.20</ele>
	<time>2023-08-06T09:21:34.000Z</time>
</trkpt>
<trkpt lat="46.0559700" lon="10.4876400">
	<ele>2549.20</ele>
	<time>2023-08-06T09:21:35.000Z</time>
</trkpt>
<trkpt lat="46.0559700" lon="10.4876400">
	<ele>2549.60</ele>
	<time>2023-08-06T09:21:36.000Z</time>
</trkpt>
<trkpt lat="46.0559700" lon="10.4876390">
	<ele>2550.20</ele>
	<time>2023-08-06T09:21:37.000Z</time>
</trkpt>
<trkpt lat="46.0559700" lon="10.4876390">
	<ele>2550.40</ele>
	<time>2023-08-06T09:21:38.000Z</time>
</trkpt>
<trkpt lat="46.0559700" lon="10.4876390">
	<ele>2550.60</ele>
	<time>2023-08-06T09:21:39.000Z</time>
</trkpt>
<trkpt lat="46.0559710" lon="10.4876390">
	<ele>2550.80</ele>
	<time>2023-08-06T09:21:40.000Z</time>
</trkpt>
<trkpt lat="46.0559710" lon="10.4876380">
	<ele>2551.00</ele>
	<time>2023-08-06T09:21:41.000Z</time>
</trkpt>
<trkpt lat="46.0559710" lon="10.4876380">
	<ele>2551.20</ele>
	<time>2023-08-06T09:21:42.000Z</time>
</trkpt>
<trkpt lat="46.0559710" lon="10.4876380">
	<ele>2551.20</ele>
	<time>2023-08-06T09:21:43.000Z</time>
</trkpt>
<trkpt lat="46.0559710" lon="10.4876370">
	<ele>2551.40</ele>
	<time>2023-08-06T09:21:44.000Z</time>
</trkpt>
<trkpt lat="46.0559710" lon="10.4876370">
	<ele>2551.40</ele>
	<time>2023-08-06T09:21:45.000Z</time>
</trkpt>
<trkpt lat="46.0559710" lon="10.4876370">
	<ele>2551.40</ele>
	<time>2023-08-06T09:21:46.000Z</time>
</trkpt>
<trkpt lat="46.0559710" lon="10.4876370">
	<ele>2551.40</ele>
	<time>2023-08-06T09:21:47.000Z</time>
</trkpt>
<trkpt lat="46.0559720" lon="10.4876360">
	<ele>2551.40</ele>
	<time>2023-08-06T09:21:48.000Z</time>
</trkpt>
<trkpt lat="46.0559720" lon="10.4876360">
	<ele>2551.60</ele>
	<time>2023-08-06T09:21:49.000Z</time>
</trkpt>
<trkpt lat="46.0559720" lon="10.4876360">
	<ele>2551.80</ele>
	<time>2023-08-06T09:21:50.000Z</time>
</trkpt>
<trkpt lat="46.0559720" lon="10.4876350">
	<ele>2551.80</ele>
	<time>2023-08-06T09:21:51.000Z</time>
</trkpt>
<trkpt lat="46.0559720" lon="10.4876350">
	<ele>2551.80</ele>
	<time>2023-08-06T09:21:52.000Z</time>
</trkpt>
<trkpt lat="46.0559720" lon="10.4876340">
	<ele>2551.60</ele>
	<time>2023-08-06T09:21:53.000Z</time>
</trkpt>
<trkpt lat="46.0559720" lon="10.4876340">
	<ele>2551.80</ele>
	<time>2023-08-06T09:21:54.000Z</time>
</trkpt>
<trkpt lat="46.0559720" lon="10.4876340">
	<ele>2551.80</ele>
	<time>2023-08-06T09:21:55.000Z</time>
</trkpt>
<trkpt lat="46.0559720" lon="10.4876330">
	<ele>2551.80</ele>
	<time>2023-08-06T09:21:56.000Z</time>
</trkpt>
<trkpt lat="46.0559730" lon="10.4876330">
	<ele>2551.60</ele>
	<time>2023-08-06T09:21:57.000Z</time>
</trkpt>
<trkpt lat="46.0559730" lon="10.4876330">
	<ele>2551.80</ele>
	<time>2023-08-06T09:21:58.000Z</time>
</trkpt>
<trkpt lat="46.0559730" lon="10.4876320">
	<ele>2552.00</ele>
	<time>2023-08-06T09:21:59.000Z</time>
</trkpt>
<trkpt lat="46.0559730" lon="10.4876320">
	<ele>2552.20</ele>
	<time>2023-08-06T09:22:00.000Z</time>
</trkpt>
<trkpt lat="46.0559730" lon="10.4876320">
	<ele>2552.40</ele>
	<time>2023-08-06T09:22:01.000Z</time>
</trkpt>
<trkpt lat="46.0559730" lon="10.4876310">
	<ele>2553.00</ele>
	<time>2023-08-06T09:22:02.000Z</time>
</trkpt>
<trkpt lat="46.0559730" lon="10.4876310">
	<ele>2553.20</ele>
	<time>2023-08-06T09:22:03.000Z</time>
</trkpt>
<trkpt lat="46.0559730" lon="10.4876310">
	<ele>2553.40</ele>
	<time>2023-08-06T09:22:04.000Z</time>
</trkpt>
<trkpt lat="46.0559740" lon="10.4876300">
	<ele>2553.40</ele>
	<time>2023-08-06T09:22:05.000Z</time>
</trkpt>
<trkpt lat="46.0559740" lon="10.4876300">
	<ele>2553.60</ele>
	<time>2023-08-06T09:22:06.000Z</time>
</trkpt>
<trkpt lat="46.0559740" lon="10.4876300">
	<ele>2553.60</ele>
	<time>2023-08-06T09:22:07.000Z</time>
</trkpt>
<trkpt lat="46.0559740" lon="10.4876290">
	<ele>2553.60</ele>
	<time>2023-08-06T09:22:08.000Z</time>
</trkpt>
<trkpt lat="46.0559740" lon="10.4876290">
	<ele>2553.60</ele>
	<time>2023-08-06T09:22:09.000Z</time>
</trkpt>
<trkpt lat="46.0559740" lon="10.4876280">
	<ele>2553.60</ele>
	<time>2023-08-06T09:22:10.000Z</time>
</trkpt>
<trkpt lat="46.0559750" lon="10.4876280">
	<ele>2553.80</ele>
	<time>2023-08-06T09:22:11.000Z</time>
</trkpt>
<trkpt lat="46.0559860" lon="10.4876050">
	<ele>2553.80</ele>
	<time>2023-08-06T09:22:12.000Z</time>
</trkpt>
<trkpt lat="46.0560030" lon="10.4875790">
	<ele>2554.00</ele>
	<time>2023-08-06T09:22:13.000Z</time>
</trkpt>
<trkpt lat="46.0560220" lon="10.4875590">
	<ele>2554.00</ele>
	<time>2023-08-06T09:22:14.000Z</time>
</trkpt>
<trkpt lat="46.0560390" lon="10.4875400">
	<ele>2554.00</ele>
	<time>2023-08-06T09:22:15.000Z</time>
</trkpt>
<trkpt lat="46.0560540" lon="10.4875220">
	<ele>2554.00</ele>
	<time>2023-08-06T09:22:16.000Z</time>
</trkpt>
<trkpt lat="46.0560710" lon="10.4875020">
	<ele>2554.00</ele>
	<time>2023-08-06T09:22:17.000Z</time>
</trkpt>
<trkpt lat="46.0560890" lon="10.4874820">
	<ele>2554.00</ele>
	<time>2023-08-06T09:22:18.000Z</time>
</trkpt>
<trkpt lat="46.0561040" lon="10.4874610">
	<ele>2554.20</ele>
	<time>2023-08-06T09:22:19.000Z</time>
</trkpt>
<trkpt lat="46.0561220" lon="10.4874400">
	<ele>2554.20</ele>
	<time>2023-08-06T09:22:20.000Z</time>
</trkpt>
<trkpt lat="46.0561410" lon="10.4874200">
	<ele>2554.20</ele>
	<time>2023-08-06T09:22:21.000Z</time>
</trkpt>
<trkpt lat="46.0561460" lon="10.4874240">
	<ele>2554.40</ele>
	<time>2023-08-06T09:22:22.000Z</time>
</trkpt>
<trkpt lat="46.0561530" lon="10.4874280">
	<ele>2554.40</ele>
	<time>2023-08-06T09:22:23.000Z</time>
</trkpt>
<trkpt lat="46.0561600" lon="10.4874310">
	<ele>2554.60</ele>
	<time>2023-08-06T09:22:24.000Z</time>
</trkpt>
<trkpt lat="46.0561650" lon="10.4874360">
	<ele>2554.60</ele>
	<time>2023-08-06T09:22:25.000Z</time>
</trkpt>
<trkpt lat="46.0561700" lon="10.4874410">
	<ele>2554.60</ele>
	<time>2023-08-06T09:22:26.000Z</time>
</trkpt>
<trkpt lat="46.0561720" lon="10.4874490">
	<ele>2554.80</ele>
	<time>2023-08-06T09:22:27.000Z</time>
</trkpt>
<trkpt lat="46.0561750" lon="10.4874540">
	<ele>2554.80</ele>
	<time>2023-08-06T09:22:28.000Z</time>
</trkpt>
<trkpt lat="46.0561770" lon="10.4874580">
	<ele>2554.80</ele>
	<time>2023-08-06T09:22:29.000Z</time>
</trkpt>
<trkpt lat="46.0561820" lon="10.4874650">
	<ele>2554.80</ele>
	<time>2023-08-06T09:22:30.000Z</time>
</trkpt>
<trkpt lat="46.0561840" lon="10.4874670">
	<ele>2554.60</ele>
	<time>2023-08-06T09:22:31.000Z</time>
</trkpt>
<trkpt lat="46.0561840" lon="10.4874660">
	<ele>2554.60</ele>
	<time>2023-08-06T09:22:32.000Z</time>
</trkpt>
<trkpt lat="46.0561860" lon="10.4874670">
	<ele>2554.60</ele>
	<time>2023-08-06T09:22:33.000Z</time>
</trkpt>
<trkpt lat="46.0561870" lon="10.4874670">
	<ele>2554.60</ele>
	<time>2023-08-06T09:22:34.000Z</time>
</trkpt>
<trkpt lat="46.0561870" lon="10.4874690">
	<ele>2554.60</ele>
	<time>2023-08-06T09:22:35.000Z</time>
</trkpt>
<trkpt lat="46.0561880" lon="10.4874690">
	<ele>2554.60</ele>
	<time>2023-08-06T09:22:36.000Z</time>
</trkpt>
<trkpt lat="46.0561880" lon="10.4874690">
	<ele>2554.60</ele>
	<time>2023-08-06T09:22:37.000Z</time>
</trkpt>
<trkpt lat="46.0561880" lon="10.4874680">
	<ele>2554.80</ele>
	<time>2023-08-06T09:22:38.000Z</time>
</trkpt>
<trkpt lat="46.0561890" lon="10.4874650">
	<ele>2554.80</ele>
	<time>2023-08-06T09:22:39.000Z</time>
</trkpt>
<trkpt lat="46.0561890" lon="10.4874640">
	<ele>2555.00</ele>
	<time>2023-08-06T09:22:40.000Z</time>
</trkpt>
<trkpt lat="46.0561890" lon="10.4874640">
	<ele>2555.00</ele>
	<time>2023-08-06T09:22:41.000Z</time>
</trkpt>
<trkpt lat="46.0561890" lon="10.4874640">
	<ele>2555.00</ele>
	<time>2023-08-06T09:22:42.000Z</time>
</trkpt>
<trkpt lat="46.0561890" lon="10.4874640">
	<ele>2555.20</ele>
	<time>2023-08-06T09:22:43.000Z</time>
</trkpt>
<trkpt lat="46.0561890" lon="10.4874640">
	<ele>2555.20</ele>
	<time>2023-08-06T09:22:44.000Z</time>
</trkpt>
<trkpt lat="46.0561890" lon="10.4874640">
	<ele>2555.20</ele>
	<time>2023-08-06T09:22:45.000Z</time>
</trkpt>
<trkpt lat="46.0561890" lon="10.4874640">
	<ele>2555.20</ele>
	<time>2023-08-06T09:22:46.000Z</time>
</trkpt>
<trkpt lat="46.0561890" lon="10.4874640">
	<ele>2555.00</ele>
	<time>2023-08-06T09:22:47.000Z</time>
</trkpt>
<trkpt lat="46.0561890" lon="10.4874640">
	<ele>2555.00</ele>
	<time>2023-08-06T09:22:48.000Z</time>
</trkpt>
<trkpt lat="46.0561890" lon="10.4874640">
	<ele>2554.80</ele>
	<time>2023-08-06T09:22:49.000Z</time>
</trkpt>
<trkpt lat="46.0561890" lon="10.4874640">
	<ele>2554.40</ele>
	<time>2023-08-06T09:22:50.000Z</time>
</trkpt>
<trkpt lat="46.0561890" lon="10.4874640">
	<ele>2554.40</ele>
	<time>2023-08-06T09:22:51.000Z</time>
</trkpt>
<trkpt lat="46.0561890" lon="10.4874640">
	<ele>2554.20</ele>
	<time>2023-08-06T09:22:52.000Z</time>
</trkpt>
<trkpt lat="46.0561890" lon="10.4874640">
	<ele>2554.00</ele>
	<time>2023-08-06T09:22:53.000Z</time>
</trkpt>
<trkpt lat="46.0561890" lon="10.4874650">
	<ele>2554.00</ele>
	<time>2023-08-06T09:22:54.000Z</time>
</trkpt>
<trkpt lat="46.0561890" lon="10.4874670">
	<ele>2554.00</ele>
	<time>2023-08-06T09:22:55.000Z</time>
</trkpt>
<trkpt lat="46.0561890" lon="10.4874670">
	<ele>2554.00</ele>
	<time>2023-08-06T09:22:56.000Z</time>
</trkpt>
<trkpt lat="46.0561890" lon="10.4874670">
	<ele>2554.00</ele>
	<time>2023-08-06T09:22:57.000Z</time>
</trkpt>
<trkpt lat="46.0561890" lon="10.4874680">
	<ele>2553.80</ele>
	<time>2023-08-06T09:22:58.000Z</time>
</trkpt>
<trkpt lat="46.0561900" lon="10.4874680">
	<ele>2553.80</ele>
	<time>2023-08-06T09:22:59.000Z</time>
</trkpt>
<trkpt lat="46.0561900" lon="10.4874690">
	<ele>2553.80</ele>
	<time>2023-08-06T09:23:00.000Z</time>
</trkpt>
<trkpt lat="46.0561980" lon="10.4874710">
	<ele>2553.80</ele>
	<time>2023-08-06T09:23:01.000Z</time>
</trkpt>
<trkpt lat="46.0562120" lon="10.4874710">
	<ele>2553.80</ele>
	<time>2023-08-06T09:23:02.000Z</time>
</trkpt>
<trkpt lat="46.0562220" lon="10.4874730">
	<ele>2553.80</ele>
	<time>2023-08-06T09:23:03.000Z</time>
</trkpt>
<trkpt lat="46.0562330" lon="10.4874740">
	<ele>2553.80</ele>
	<time>2023-08-06T09:23:04.000Z</time>
</trkpt>
<trkpt lat="46.0562440" lon="10.4874730">
	<ele>2554.00</ele>
	<time>2023-08-06T09:23:05.000Z</time>
</trkpt>
<trkpt lat="46.0562540" lon="10.4874720">
	<ele>2554.00</ele>
	<time>2023-08-06T09:23:06.000Z</time>
</trkpt>
<trkpt lat="46.0562630" lon="10.4874710">
	<ele>2554.40</ele>
	<time>2023-08-06T09:23:07.000Z</time>
</trkpt>
<trkpt lat="46.0562720" lon="10.4874740">
	<ele>2554.60</ele>
	<time>2023-08-06T09:23:08.000Z</time>
</trkpt>
<trkpt lat="46.0562800" lon="10.4874750">
	<ele>2554.80</ele>
	<time>2023-08-06T09:23:09.000Z</time>
</trkpt>
<trkpt lat="46.0562900" lon="10.4874720">
	<ele>2555.00</ele>
	<time>2023-08-06T09:23:10.000Z</time>
</trkpt>
<trkpt lat="46.0562960" lon="10.4874690">
	<ele>2555.00</ele>
	<time>2023-08-06T09:23:11.000Z</time>
</trkpt>
<trkpt lat="46.0563030" lon="10.4874680">
	<ele>2555.20</ele>
	<time>2023-08-06T09:23:12.000Z</time>
</trkpt>
<trkpt lat="46.0563080" lon="10.4874680">
	<ele>2555.20</ele>
	<time>2023-08-06T09:23:13.000Z</time>
</trkpt>
<trkpt lat="46.0563120" lon="10.4874680">
	<ele>2555.00</ele>
	<time>2023-08-06T09:23:14.000Z</time>
</trkpt>
<trkpt lat="46.0563150" lon="10.4874690">
	<ele>2555.00</ele>
	<time>2023-08-06T09:23:15.000Z</time>
</trkpt>
<trkpt lat="46.0563180" lon="10.4874710">
	<ele>2555.00</ele>
	<time>2023-08-06T09:23:16.000Z</time>
</trkpt>
<trkpt lat="46.0563210" lon="10.4874730">
	<ele>2555.00</ele>
	<time>2023-08-06T09:23:17.000Z</time>
</trkpt>
<trkpt lat="46.0563250" lon="10.4874740">
	<ele>2555.20</ele>
	<time>2023-08-06T09:23:18.000Z</time>
</trkpt>
<trkpt lat="46.0563300" lon="10.4874720">
	<ele>2555.40</ele>
	<time>2023-08-06T09:23:19.000Z</time>
</trkpt>
<trkpt lat="46.0563390" lon="10.4874720">
	<ele>2555.60</ele>
	<time>2023-08-06T09:23:20.000Z</time>
</trkpt>
<trkpt lat="46.0563480" lon="10.4874750">
	<ele>2555.60</ele>
	<time>2023-08-06T09:23:21.000Z</time>
</trkpt>
<trkpt lat="46.0563550" lon="10.4874740">
	<ele>2555.80</ele>
	<time>2023-08-06T09:23:22.000Z</time>
</trkpt>
<trkpt lat="46.0563620" lon="10.4874710">
	<ele>2555.80</ele>
	<time>2023-08-06T09:23:23.000Z</time>
</trkpt>
<trkpt lat="46.0563690" lon="10.4874710">
	<ele>2556.00</ele>
	<time>2023-08-06T09:23:24.000Z</time>
</trkpt>
<trkpt lat="46.0563740" lon="10.4874690">
	<ele>2556.00</ele>
	<time>2023-08-06T09:23:25.000Z</time>
</trkpt>
<trkpt lat="46.0563800" lon="10.4874660">
	<ele>2556.00</ele>
	<time>2023-08-06T09:23:26.000Z</time>
</trkpt>
<trkpt lat="46.0563840" lon="10.4874620">
	<ele>2556.00</ele>
	<time>2023-08-06T09:23:27.000Z</time>
</trkpt>
<trkpt lat="46.0563870" lon="10.4874550">
	<ele>2556.00</ele>
	<time>2023-08-06T09:23:28.000Z</time>
</trkpt>
<trkpt lat="46.0563920" lon="10.4874440">
	<ele>2555.80</ele>
	<time>2023-08-06T09:23:29.000Z</time>
</trkpt>
<trkpt lat="46.0563970" lon="10.4874370">
	<ele>2555.80</ele>
	<time>2023-08-06T09:23:30.000Z</time>
</trkpt>
<trkpt lat="46.0564020" lon="10.4874330">
	<ele>2555.60</ele>
	<time>2023-08-06T09:23:31.000Z</time>
</trkpt>
<trkpt lat="46.0564060" lon="10.4874300">
	<ele>2555.60</ele>
	<time>2023-08-06T09:23:32.000Z</time>
</trkpt>
<trkpt lat="46.0564090" lon="10.4874210">
	<ele>2555.60</ele>
	<time>2023-08-06T09:23:33.000Z</time>
</trkpt>
<trkpt lat="46.0564140" lon="10.4874140">
	<ele>2555.40</ele>
	<time>2023-08-06T09:23:34.000Z</time>
</trkpt>
<trkpt lat="46.0564160" lon="10.4874060">
	<ele>2555.00</ele>
	<time>2023-08-06T09:23:35.000Z</time>
</trkpt>
<trkpt lat="46.0564230" lon="10.4874060">
	<ele>2555.00</ele>
	<time>2023-08-06T09:23:36.000Z</time>
</trkpt>
<trkpt lat="46.0564300" lon="10.4874000">
	<ele>2555.00</ele>
	<time>2023-08-06T09:23:37.000Z</time>
</trkpt>
<trkpt lat="46.0564370" lon="10.4873900">
	<ele>2555.00</ele>
	<time>2023-08-06T09:23:38.000Z</time>
</trkpt>
<trkpt lat="46.0564450" lon="10.4873860">
	<ele>2555.00</ele>
	<time>2023-08-06T09:23:39.000Z</time>
</trkpt>
<trkpt lat="46.0564520" lon="10.4873820">
	<ele>2555.00</ele>
	<time>2023-08-06T09:23:40.000Z</time>
</trkpt>
<trkpt lat="46.0564590" lon="10.4873790">
	<ele>2555.00</ele>
	<time>2023-08-06T09:23:41.000Z</time>
</trkpt>
<trkpt lat="46.0564660" lon="10.4873720">
	<ele>2555.00</ele>
	<time>2023-08-06T09:23:42.000Z</time>
</trkpt>
<trkpt lat="46.0564700" lon="10.4873680">
	<ele>2555.00</ele>
	<time>2023-08-06T09:23:43.000Z</time>
</trkpt>
<trkpt lat="46.0564740" lon="10.4873650">
	<ele>2555.00</ele>
	<time>2023-08-06T09:23:44.000Z</time>
</trkpt>
<trkpt lat="46.0564740" lon="10.4873630">
	<ele>2555.00</ele>
	<time>2023-08-06T09:23:45.000Z</time>
</trkpt>
<trkpt lat="46.0564740" lon="10.4873610">
	<ele>2555.00</ele>
	<time>2023-08-06T09:23:46.000Z</time>
</trkpt>
<trkpt lat="46.0564740" lon="10.4873580">
	<ele>2555.00</ele>
	<time>2023-08-06T09:23:47.000Z</time>
</trkpt>
<trkpt lat="46.0564730" lon="10.4873560">
	<ele>2555.00</ele>
	<time>2023-08-06T09:23:48.000Z</time>
</trkpt>
<trkpt lat="46.0564720" lon="10.4873550">
	<ele>2555.00</ele>
	<time>2023-08-06T09:23:49.000Z</time>
</trkpt>
<trkpt lat="46.0564730" lon="10.4873580">
	<ele>2555.00</ele>
	<time>2023-08-06T09:23:50.000Z</time>
</trkpt>
<trkpt lat="46.0564730" lon="10.4873550">
	<ele>2555.00</ele>
	<time>2023-08-06T09:23:51.000Z</time>
</trkpt>
<trkpt lat="46.0564730" lon="10.4873550">
	<ele>2555.00</ele>
	<time>2023-08-06T09:23:52.000Z</time>
</trkpt>
<trkpt lat="46.0564710" lon="10.4873550">
	<ele>2555.00</ele>
	<time>2023-08-06T09:23:53.000Z</time>
</trkpt>
<trkpt lat="46.0564720" lon="10.4873560">
	<ele>2555.00</ele>
	<time>2023-08-06T09:23:54.000Z</time>
</trkpt>
<trkpt lat="46.0564720" lon="10.4873560">
	<ele>2555.00</ele>
	<time>2023-08-06T09:23:55.000Z</time>
</trkpt>
<trkpt lat="46.0564720" lon="10.4873560">
	<ele>2555.00</ele>
	<time>2023-08-06T09:23:56.000Z</time>
</trkpt>
<trkpt lat="46.0564720" lon="10.4873560">
	<ele>2555.00</ele>
	<time>2023-08-06T09:23:57.000Z</time>
</trkpt>
<trkpt lat="46.0564720" lon="10.4873560">
	<ele>2555.00</ele>
	<time>2023-08-06T09:23:58.000Z</time>
</trkpt>
<trkpt lat="46.0564720" lon="10.4873560">
	<ele>2555.00</ele>
	<time>2023-08-06T09:23:59.000Z</time>
</trkpt>
<trkpt lat="46.0564720" lon="10.4873560">
	<ele>2555.00</ele>
	<time>2023-08-06T09:24:00.000Z</time>
</trkpt>
<trkpt lat="46.0564720" lon="10.4873560">
	<ele>2555.00</ele>
	<time>2023-08-06T09:24:01.000Z</time>
</trkpt>
<trkpt lat="46.0564760" lon="10.4873520">
	<ele>2555.00</ele>
	<time>2023-08-06T09:24:02.000Z</time>
</trkpt>
<trkpt lat="46.0564850" lon="10.4873490">
	<ele>2555.00</ele>
	<time>2023-08-06T09:24:03.000Z</time>
</trkpt>
<trkpt lat="46.0564960" lon="10.4873470">
	<ele>2555.00</ele>
	<time>2023-08-06T09:24:04.000Z</time>
</trkpt>
<trkpt lat="46.0565070" lon="10.4873450">
	<ele>2555.00</ele>
	<time>2023-08-06T09:24:05.000Z</time>
</trkpt>
<trkpt lat="46.0565210" lon="10.4873410">
	<ele>2555.00</ele>
	<time>2023-08-06T09:24:06.000Z</time>
</trkpt>
<trkpt lat="46.0565320" lon="10.4873380">
	<ele>2555.00</ele>
	<time>2023-08-06T09:24:07.000Z</time>
</trkpt>
<trkpt lat="46.0565470" lon="10.4873370">
	<ele>2555.00</ele>
	<time>2023-08-06T09:24:08.000Z</time>
</trkpt>
<trkpt lat="46.0565600" lon="10.4873360">
	<ele>2555.00</ele>
	<time>2023-08-06T09:24:09.000Z</time>
</trkpt>
<trkpt lat="46.0565710" lon="10.4873360">
	<ele>2555.00</ele>
	<time>2023-08-06T09:24:10.000Z</time>
</trkpt>
<trkpt lat="46.0565810" lon="10.4873340">
	<ele>2555.00</ele>
	<time>2023-08-06T09:24:11.000Z</time>
</trkpt>
<trkpt lat="46.0565910" lon="10.4873370">
	<ele>2555.00</ele>
	<time>2023-08-06T09:24:12.000Z</time>
</trkpt>
<trkpt lat="46.0566010" lon="10.4873400">
	<ele>2554.20</ele>
	<time>2023-08-06T09:24:13.000Z</time>
</trkpt>
<trkpt lat="46.0566120" lon="10.4873440">
	<ele>2553.80</ele>
	<time>2023-08-06T09:24:14.000Z</time>
</trkpt>
<trkpt lat="46.0566180" lon="10.4873480">
	<ele>2553.60</ele>
	<time>2023-08-06T09:24:15.000Z</time>
</trkpt>
<trkpt lat="46.0566210" lon="10.4873510">
	<ele>2553.40</ele>
	<time>2023-08-06T09:24:16.000Z</time>
</trkpt>
<trkpt lat="46.0566300" lon="10.4873540">
	<ele>2553.40</ele>
	<time>2023-08-06T09:24:17.000Z</time>
</trkpt>
<trkpt lat="46.0566370" lon="10.4873550">
	<ele>2553.40</ele>
	<time>2023-08-06T09:24:18.000Z</time>
</trkpt>
<trkpt lat="46.0566450" lon="10.4873560">
	<ele>2553.40</ele>
	<time>2023-08-06T09:24:19.000Z</time>
</trkpt>
<trkpt lat="46.0566540" lon="10.4873580">
	<ele>2553.40</ele>
	<time>2023-08-06T09:24:20.000Z</time>
</trkpt>
<trkpt lat="46.0566620" lon="10.4873630">
	<ele>2553.40</ele>
	<time>2023-08-06T09:24:21.000Z</time>
</trkpt>
<trkpt lat="46.0566650" lon="10.4873680">
	<ele>2553.60</ele>
	<time>2023-08-06T09:24:22.000Z</time>
</trkpt>
<trkpt lat="46.0566710" lon="10.4873730">
	<ele>2553.60</ele>
	<time>2023-08-06T09:24:23.000Z</time>
</trkpt>
<trkpt lat="46.0566800" lon="10.4873740">
	<ele>2553.80</ele>
	<time>2023-08-06T09:24:24.000Z</time>
</trkpt>
<trkpt lat="46.0566870" lon="10.4873720">
	<ele>2553.80</ele>
	<time>2023-08-06T09:24:25.000Z</time>
</trkpt>
<trkpt lat="46.0566950" lon="10.4873690">
	<ele>2554.00</ele>
	<time>2023-08-06T09:24:26.000Z</time>
</trkpt>
<trkpt lat="46.0567010" lon="10.4873680">
	<ele>2554.20</ele>
	<time>2023-08-06T09:24:27.000Z</time>
</trkpt>
<trkpt lat="46.0567050" lon="10.4873700">
	<ele>2554.20</ele>
	<time>2023-08-06T09:24:28.000Z</time>
</trkpt>
<trkpt lat="46.0567080" lon="10.4873670">
	<ele>2554.20</ele>
	<time>2023-08-06T09:24:29.000Z</time>
</trkpt>
<trkpt lat="46.0567130" lon="10.4873640">
	<ele>2554.20</ele>
	<time>2023-08-06T09:24:30.000Z</time>
</trkpt>
<trkpt lat="46.0567170" lon="10.4873620">
	<ele>2554.20</ele>
	<time>2023-08-06T09:24:31.000Z</time>
</trkpt>
<trkpt lat="46.0567180" lon="10.4873580">
	<ele>2554.20</ele>
	<time>2023-08-06T09:24:32.000Z</time>
</trkpt>
<trkpt lat="46.0567210" lon="10.4873600">
	<ele>2554.20</ele>
	<time>2023-08-06T09:24:33.000Z</time>
</trkpt>
<trkpt lat="46.0567280" lon="10.4873630">
	<ele>2554.40</ele>
	<time>2023-08-06T09:24:34.000Z</time>
</trkpt>
<trkpt lat="46.0567320" lon="10.4873650">
	<ele>2554.40</ele>
	<time>2023-08-06T09:24:35.000Z</time>
</trkpt>
<trkpt lat="46.0567380" lon="10.4873670">
	<ele>2554.60</ele>
	<time>2023-08-06T09:24:36.000Z</time>
</trkpt>
<trkpt lat="46.0567400" lon="10.4873680">
	<ele>2554.80</ele>
	<time>2023-08-06T09:24:37.000Z</time>
</trkpt>
<trkpt lat="46.0567460" lon="10.4873670">
	<ele>2554.80</ele>
	<time>2023-08-06T09:24:38.000Z</time>
</trkpt>
<trkpt lat="46.0567560" lon="10.4873650">
	<ele>2554.80</ele>
	<time>2023-08-06T09:24:39.000Z</time>
</trkpt>
<trkpt lat="46.0567670" lon="10.4873680">
	<ele>2555.00</ele>
	<time>2023-08-06T09:24:40.000Z</time>
</trkpt>
<trkpt lat="46.0567730" lon="10.4873680">
	<ele>2555.00</ele>
	<time>2023-08-06T09:24:41.000Z</time>
</trkpt>
<trkpt lat="46.0567770" lon="10.4873690">
	<ele>2555.20</ele>
	<time>2023-08-06T09:24:42.000Z</time>
</trkpt>
<trkpt lat="46.0567830" lon="10.4873720">
	<ele>2555.20</ele>
	<time>2023-08-06T09:24:43.000Z</time>
</trkpt>
<trkpt lat="46.0567900" lon="10.4873720">
	<ele>2555.40</ele>
	<time>2023-08-06T09:24:44.000Z</time>
</trkpt>
<trkpt lat="46.0567980" lon="10.4873730">
	<ele>2555.40</ele>
	<time>2023-08-06T09:24:45.000Z</time>
</trkpt>
<trkpt lat="46.0568010" lon="10.4873750">
	<ele>2555.60</ele>
	<time>2023-08-06T09:24:46.000Z</time>
</trkpt>
<trkpt lat="46.0568060" lon="10.4873760">
	<ele>2555.80</ele>
	<time>2023-08-06T09:24:47.000Z</time>
</trkpt>
<trkpt lat="46.0568120" lon="10.4873790">
	<ele>2556.00</ele>
	<time>2023-08-06T09:24:48.000Z</time>
</trkpt>
<trkpt lat="46.0568170" lon="10.4873800">
	<ele>2556.00</ele>
	<time>2023-08-06T09:24:49.000Z</time>
</trkpt>
<trkpt lat="46.0568220" lon="10.4873850">
	<ele>2556.00</ele>
	<time>2023-08-06T09:24:50.000Z</time>
</trkpt>
<trkpt lat="46.0568300" lon="10.4873910">
	<ele>2556.20</ele>
	<time>2023-08-06T09:24:51.000Z</time>
</trkpt>
<trkpt lat="46.0568350" lon="10.4873950">
	<ele>2556.40</ele>
	<time>2023-08-06T09:24:52.000Z</time>
</trkpt>
<trkpt lat="46.0568450" lon="10.4873950">
	<ele>2556.40</ele>
	<time>2023-08-06T09:24:53.000Z</time>
</trkpt>
<trkpt lat="46.0568520" lon="10.4873930">
	<ele>2556.40</ele>
	<time>2023-08-06T09:24:54.000Z</time>
</trkpt>
<trkpt lat="46.0568610" lon="10.4873940">
	<ele>2556.40</ele>
	<time>2023-08-06T09:24:55.000Z</time>
</trkpt>
<trkpt lat="46.0568680" lon="10.4873900">
	<ele>2556.40</ele>
	<time>2023-08-06T09:24:56.000Z</time>
</trkpt>
<trkpt lat="46.0568740" lon="10.4873840">
	<ele>2556.40</ele>
	<time>2023-08-06T09:24:57.000Z</time>
</trkpt>
<trkpt lat="46.0568790" lon="10.4873790">
	<ele>2556.40</ele>
	<time>2023-08-06T09:24:58.000Z</time>
</trkpt>
<trkpt lat="46.0568850" lon="10.4873730">
	<ele>2556.40</ele>
	<time>2023-08-06T09:24:59.000Z</time>
</trkpt>
<trkpt lat="46.0568890" lon="10.4873620">
	<ele>2556.40</ele>
	<time>2023-08-06T09:25:00.000Z</time>
</trkpt>
<trkpt lat="46.0568930" lon="10.4873510">
	<ele>2556.40</ele>
	<time>2023-08-06T09:25:01.000Z</time>
</trkpt>
<trkpt lat="46.0568970" lon="10.4873430">
	<ele>2556.40</ele>
	<time>2023-08-06T09:25:02.000Z</time>
</trkpt>
<trkpt lat="46.0569040" lon="10.4873400">
	<ele>2556.40</ele>
	<time>2023-08-06T09:25:03.000Z</time>
</trkpt>
<trkpt lat="46.0569100" lon="10.4873380">
	<ele>2556.60</ele>
	<time>2023-08-06T09:25:04.000Z</time>
</trkpt>
<trkpt lat="46.0569120" lon="10.4873340">
	<ele>2556.60</ele>
	<time>2023-08-06T09:25:05.000Z</time>
</trkpt>
<trkpt lat="46.0569190" lon="10.4873270">
	<ele>2556.80</ele>
	<time>2023-08-06T09:25:06.000Z</time>
</trkpt>
<trkpt lat="46.0569250" lon="10.4873170">
	<ele>2556.80</ele>
	<time>2023-08-06T09:25:07.000Z</time>
</trkpt>
<trkpt lat="46.0569360" lon="10.4873100">
	<ele>2556.80</ele>
	<time>2023-08-06T09:25:08.000Z</time>
</trkpt>
<trkpt lat="46.0569430" lon="10.4873050">
	<ele>2557.00</ele>
	<time>2023-08-06T09:25:09.000Z</time>
</trkpt>
<trkpt lat="46.0569480" lon="10.4873010">
	<ele>2557.00</ele>
	<time>2023-08-06T09:25:10.000Z</time>
</trkpt>
<trkpt lat="46.0569510" lon="10.4872950">
	<ele>2557.00</ele>
	<time>2023-08-06T09:25:11.000Z</time>
</trkpt>
<trkpt lat="46.0569550" lon="10.4872850">
	<ele>2557.00</ele>
	<time>2023-08-06T09:25:12.000Z</time>
</trkpt>
<trkpt lat="46.0569610" lon="10.4872740">
	<ele>2557.00</ele>
	<time>2023-08-06T09:25:13.000Z</time>
</trkpt>
<trkpt lat="46.0569650" lon="10.4872700">
	<ele>2557.00</ele>
	<time>2023-08-06T09:25:14.000Z</time>
</trkpt>
<trkpt lat="46.0569700" lon="10.4872670">
	<ele>2557.00</ele>
	<time>2023-08-06T09:25:15.000Z</time>
</trkpt>
<trkpt lat="46.0569750" lon="10.4872640">
	<ele>2557.00</ele>
	<time>2023-08-06T09:25:16.000Z</time>
</trkpt>
<trkpt lat="46.0569790" lon="10.4872570">
	<ele>2557.00</ele>
	<time>2023-08-06T09:25:17.000Z</time>
</trkpt>
<trkpt lat="46.0569870" lon="10.4872500">
	<ele>2556.80</ele>
	<time>2023-08-06T09:25:18.000Z</time>
</trkpt>
<trkpt lat="46.0569940" lon="10.4872450">
	<ele>2556.80</ele>
	<time>2023-08-06T09:25:19.000Z</time>
</trkpt>
<trkpt lat="46.0570000" lon="10.4872400">
	<ele>2556.80</ele>
	<time>2023-08-06T09:25:20.000Z</time>
</trkpt>
<trkpt lat="46.0570080" lon="10.4872320">
	<ele>2556.80</ele>
	<time>2023-08-06T09:25:21.000Z</time>
</trkpt>
<trkpt lat="46.0570140" lon="10.4872260">
	<ele>2556.80</ele>
	<time>2023-08-06T09:25:22.000Z</time>
</trkpt>
<trkpt lat="46.0570200" lon="10.4872200">
	<ele>2556.80</ele>
	<time>2023-08-06T09:25:23.000Z</time>
</trkpt>
<trkpt lat="46.0570260" lon="10.4872150">
	<ele>2556.80</ele>
	<time>2023-08-06T09:25:24.000Z</time>
</trkpt>
<trkpt lat="46.0570320" lon="10.4872110">
	<ele>2556.80</ele>
	<time>2023-08-06T09:25:25.000Z</time>
</trkpt>
<trkpt lat="46.0570360" lon="10.4872060">
	<ele>2556.80</ele>
	<time>2023-08-06T09:25:26.000Z</time>
</trkpt>
<trkpt lat="46.0570430" lon="10.4872090">
	<ele>2556.60</ele>
	<time>2023-08-06T09:25:27.000Z</time>
</trkpt>
<trkpt lat="46.0570490" lon="10.4872120">
	<ele>2556.40</ele>
	<time>2023-08-06T09:25:28.000Z</time>
</trkpt>
<trkpt lat="46.0570550" lon="10.4872180">
	<ele>2556.40</ele>
	<time>2023-08-06T09:25:29.000Z</time>
</trkpt>
<trkpt lat="46.0570620" lon="10.4872220">
	<ele>2556.20</ele>
	<time>2023-08-06T09:25:30.000Z</time>
</trkpt>
<trkpt lat="46.0570680" lon="10.4872230">
	<ele>2556.20</ele>
	<time>2023-08-06T09:25:31.000Z</time>
</trkpt>
<trkpt lat="46.0570740" lon="10.4872280">
	<ele>2556.20</ele>
	<time>2023-08-06T09:25:32.000Z</time>
</trkpt>
<trkpt lat="46.0570850" lon="10.4872350">
	<ele>2556.20</ele>
	<time>2023-08-06T09:25:33.000Z</time>
</trkpt>
<trkpt lat="46.0570950" lon="10.4872390">
	<ele>2556.00</ele>
	<time>2023-08-06T09:25:34.000Z</time>
</trkpt>
<trkpt lat="46.0571010" lon="10.4872370">
	<ele>2556.00</ele>
	<time>2023-08-06T09:25:35.000Z</time>
</trkpt>
<trkpt lat="46.0571080" lon="10.4872380">
	<ele>2555.80</ele>
	<time>2023-08-06T09:25:36.000Z</time>
</trkpt>
<trkpt lat="46.0571180" lon="10.4872420">
	<ele>2555.80</ele>
	<time>2023-08-06T09:25:37.000Z</time>
</trkpt>
<trkpt lat="46.0571280" lon="10.4872420">
	<ele>2555.60</ele>
	<time>2023-08-06T09:25:38.000Z</time>
</trkpt>
<trkpt lat="46.0571380" lon="10.4872390">
	<ele>2555.60</ele>
	<time>2023-08-06T09:25:39.000Z</time>
</trkpt>
<trkpt lat="46.0571480" lon="10.4872390">
	<ele>2555.60</ele>
	<time>2023-08-06T09:25:40.000Z</time>
</trkpt>
<trkpt lat="46.0571560" lon="10.4872440">
	<ele>2555.20</ele>
	<time>2023-08-06T09:25:41.000Z</time>
</trkpt>
<trkpt lat="46.0571590" lon="10.4872420">
	<ele>2555.00</ele>
	<time>2023-08-06T09:25:42.000Z</time>
</trkpt>
<trkpt lat="46.0571620" lon="10.4872370">
	<ele>2555.00</ele>
	<time>2023-08-06T09:25:43.000Z</time>
</trkpt>
<trkpt lat="46.0571670" lon="10.4872330">
	<ele>2554.80</ele>
	<time>2023-08-06T09:25:44.000Z</time>
</trkpt>
<trkpt lat="46.0571720" lon="10.4872290">
	<ele>2554.80</ele>
	<time>2023-08-06T09:25:45.000Z</time>
</trkpt>
<trkpt lat="46.0571760" lon="10.4872270">
	<ele>2554.80</ele>
	<time>2023-08-06T09:25:46.000Z</time>
</trkpt>
<trkpt lat="46.0571800" lon="10.4872280">
	<ele>2554.60</ele>
	<time>2023-08-06T09:25:47.000Z</time>
</trkpt>
<trkpt lat="46.0571830" lon="10.4872270">
	<ele>2554.60</ele>
	<time>2023-08-06T09:25:48.000Z</time>
</trkpt>
<trkpt lat="46.0571870" lon="10.4872230">
	<ele>2554.20</ele>
	<time>2023-08-06T09:25:49.000Z</time>
</trkpt>
<trkpt lat="46.0571910" lon="10.4872210">
	<ele>2554.00</ele>
	<time>2023-08-06T09:25:50.000Z</time>
</trkpt>
<trkpt lat="46.0571980" lon="10.4872180">
	<ele>2553.80</ele>
	<time>2023-08-06T09:25:51.000Z</time>
</trkpt>
<trkpt lat="46.0572040" lon="10.4872150">
	<ele>2553.60</ele>
	<time>2023-08-06T09:25:52.000Z</time>
</trkpt>
<trkpt lat="46.0572080" lon="10.4872130">
	<ele>2553.40</ele>
	<time>2023-08-06T09:25:53.000Z</time>
</trkpt>
<trkpt lat="46.0572110" lon="10.4872110">
	<ele>2553.20</ele>
	<time>2023-08-06T09:25:54.000Z</time>
</trkpt>
<trkpt lat="46.0572140" lon="10.4872040">
	<ele>2553.20</ele>
	<time>2023-08-06T09:25:55.000Z</time>
</trkpt>
<trkpt lat="46.0572170" lon="10.4871990">
	<ele>2553.00</ele>
	<time>2023-08-06T09:25:56.000Z</time>
</trkpt>
<trkpt lat="46.0572210" lon="10.4871960">
	<ele>2553.00</ele>
	<time>2023-08-06T09:25:57.000Z</time>
</trkpt>
<trkpt lat="46.0572220" lon="10.4871890">
	<ele>2552.80</ele>
	<time>2023-08-06T09:25:58.000Z</time>
</trkpt>
<trkpt lat="46.0572270" lon="10.4871850">
	<ele>2552.80</ele>
	<time>2023-08-06T09:25:59.000Z</time>
</trkpt>
<trkpt lat="46.0572330" lon="10.4871820">
	<ele>2552.40</ele>
	<time>2023-08-06T09:26:00.000Z</time>
</trkpt>
<trkpt lat="46.0572420" lon="10.4871780">
	<ele>2552.40</ele>
	<time>2023-08-06T09:26:01.000Z</time>
</trkpt>
<trkpt lat="46.0572490" lon="10.4871780">
	<ele>2552.20</ele>
	<time>2023-08-06T09:26:02.000Z</time>
</trkpt>
<trkpt lat="46.0572550" lon="10.4871750">
	<ele>2552.00</ele>
	<time>2023-08-06T09:26:03.000Z</time>
</trkpt>
<trkpt lat="46.0572630" lon="10.4871730">
	<ele>2551.80</ele>
	<time>2023-08-06T09:26:04.000Z</time>
</trkpt>
<trkpt lat="46.0572680" lon="10.4871680">
	<ele>2551.60</ele>
	<time>2023-08-06T09:26:05.000Z</time>
</trkpt>
<trkpt lat="46.0572790" lon="10.4871670">
	<ele>2551.60</ele>
	<time>2023-08-06T09:26:06.000Z</time>
</trkpt>
<trkpt lat="46.0572840" lon="10.4871690">
	<ele>2551.40</ele>
	<time>2023-08-06T09:26:07.000Z</time>
</trkpt>
<trkpt lat="46.0572910" lon="10.4871670">
	<ele>2551.20</ele>
	<time>2023-08-06T09:26:08.000Z</time>
</trkpt>
<trkpt lat="46.0573000" lon="10.4871640">
	<ele>2551.20</ele>
	<time>2023-08-06T09:26:09.000Z</time>
</trkpt>
<trkpt lat="46.0573060" lon="10.4871620">
	<ele>2551.00</ele>
	<time>2023-08-06T09:26:10.000Z</time>
</trkpt>
<trkpt lat="46.0573130" lon="10.4871600">
	<ele>2551.00</ele>
	<time>2023-08-06T09:26:11.000Z</time>
</trkpt>
<trkpt lat="46.0573170" lon="10.4871620">
	<ele>2550.80</ele>
	<time>2023-08-06T09:26:12.000Z</time>
</trkpt>
<trkpt lat="46.0573190" lon="10.4871570">
	<ele>2550.40</ele>
	<time>2023-08-06T09:26:13.000Z</time>
</trkpt>
<trkpt lat="46.0573200" lon="10.4871560">
	<ele>2550.40</ele>
	<time>2023-08-06T09:26:14.000Z</time>
</trkpt>
<trkpt lat="46.0573210" lon="10.4871550">
	<ele>2550.20</ele>
	<time>2023-08-06T09:26:15.000Z</time>
</trkpt>
<trkpt lat="46.0573250" lon="10.4871500">
	<ele>2550.20</ele>
	<time>2023-08-06T09:26:16.000Z</time>
</trkpt>
<trkpt lat="46.0573290" lon="10.4871480">
	<ele>2550.20</ele>
	<time>2023-08-06T09:26:17.000Z</time>
</trkpt>
<trkpt lat="46.0573290" lon="10.4871450">
	<ele>2550.20</ele>
	<time>2023-08-06T09:26:18.000Z</time>
</trkpt>
<trkpt lat="46.0573290" lon="10.4871340">
	<ele>2550.40</ele>
	<time>2023-08-06T09:26:19.000Z</time>
</trkpt>
<trkpt lat="46.0573280" lon="10.4871240">
	<ele>2550.40</ele>
	<time>2023-08-06T09:26:20.000Z</time>
</trkpt>
<trkpt lat="46.0573290" lon="10.4871210">
	<ele>2550.40</ele>
	<time>2023-08-06T09:26:21.000Z</time>
</trkpt>
<trkpt lat="46.0573290" lon="10.4871190">
	<ele>2550.40</ele>
	<time>2023-08-06T09:26:22.000Z</time>
</trkpt>
<trkpt lat="46.0573290" lon="10.4871150">
	<ele>2550.40</ele>
	<time>2023-08-06T09:26:23.000Z</time>
</trkpt>
<trkpt lat="46.0573280" lon="10.4871120">
	<ele>2550.40</ele>
	<time>2023-08-06T09:26:24.000Z</time>
</trkpt>
<trkpt lat="46.0573280" lon="10.4871120">
	<ele>2550.40</ele>
	<time>2023-08-06T09:26:25.000Z</time>
</trkpt>
<trkpt lat="46.0573280" lon="10.4871100">
	<ele>2550.40</ele>
	<time>2023-08-06T09:26:26.000Z</time>
</trkpt>
<trkpt lat="46.0573280" lon="10.4871110">
	<ele>2550.40</ele>
	<time>2023-08-06T09:26:27.000Z</time>
</trkpt>
<trkpt lat="46.0573290" lon="10.4871230">
	<ele>2550.40</ele>
	<time>2023-08-06T09:26:28.000Z</time>
</trkpt>
<trkpt lat="46.0573320" lon="10.4871260">
	<ele>2550.20</ele>
	<time>2023-08-06T09:26:29.000Z</time>
</trkpt>
<trkpt lat="46.0573340" lon="10.4871260">
	<ele>2550.00</ele>
	<time>2023-08-06T09:26:30.000Z</time>
</trkpt>
<trkpt lat="46.0573390" lon="10.4871220">
	<ele>2550.00</ele>
	<time>2023-08-06T09:26:31.000Z</time>
</trkpt>
<trkpt lat="46.0573470" lon="10.4871200">
	<ele>2549.80</ele>
	<time>2023-08-06T09:26:32.000Z</time>
</trkpt>
<trkpt lat="46.0573520" lon="10.4871360">
	<ele>2549.80</ele>
	<time>2023-08-06T09:26:33.000Z</time>
</trkpt>
<trkpt lat="46.0573560" lon="10.4871330">
	<ele>2549.60</ele>
	<time>2023-08-06T09:26:34.000Z</time>
</trkpt>
<trkpt lat="46.0573580" lon="10.4871340">
	<ele>2549.40</ele>
	<time>2023-08-06T09:26:35.000Z</time>
</trkpt>
<trkpt lat="46.0573610" lon="10.4871310">
	<ele>2549.20</ele>
	<time>2023-08-06T09:26:36.000Z</time>
</trkpt>
<trkpt lat="46.0573650" lon="10.4871250">
	<ele>2549.00</ele>
	<time>2023-08-06T09:26:37.000Z</time>
</trkpt>
<trkpt lat="46.0573700" lon="10.4871240">
	<ele>2548.80</ele>
	<time>2023-08-06T09:26:38.000Z</time>
</trkpt>
<trkpt lat="46.0573740" lon="10.4871260">
	<ele>2548.60</ele>
	<time>2023-08-06T09:26:39.000Z</time>
</trkpt>
<trkpt lat="46.0573840" lon="10.4871290">
	<ele>2548.60</ele>
	<time>2023-08-06T09:26:40.000Z</time>
</trkpt>
<trkpt lat="46.0573970" lon="10.4871290">
	<ele>2548.60</ele>
	<time>2023-08-06T09:26:41.000Z</time>
</trkpt>
<trkpt lat="46.0574050" lon="10.4871160">
	<ele>2548.60</ele>
	<time>2023-08-06T09:26:42.000Z</time>
</trkpt>
<trkpt lat="46.0574080" lon="10.4871100">
	<ele>2548.60</ele>
	<time>2023-08-06T09:26:43.000Z</time>
</trkpt>
<trkpt lat="46.0574170" lon="10.4871050">
	<ele>2548.60</ele>
	<time>2023-08-06T09:26:44.000Z</time>
</trkpt>
<trkpt lat="46.0574270" lon="10.4871050">
	<ele>2548.60</ele>
	<time>2023-08-06T09:26:45.000Z</time>
</trkpt>
<trkpt lat="46.0574340" lon="10.4871010">
	<ele>2548.60</ele>
	<time>2023-08-06T09:26:46.000Z</time>
</trkpt>
<trkpt lat="46.0574400" lon="10.4871030">
	<ele>2548.40</ele>
	<time>2023-08-06T09:26:47.000Z</time>
</trkpt>
<trkpt lat="46.0574440" lon="10.4871000">
	<ele>2548.40</ele>
	<time>2023-08-06T09:26:48.000Z</time>
</trkpt>
<trkpt lat="46.0574480" lon="10.4870980">
	<ele>2548.20</ele>
	<time>2023-08-06T09:26:49.000Z</time>
</trkpt>
<trkpt lat="46.0574510" lon="10.4870960">
	<ele>2548.00</ele>
	<time>2023-08-06T09:26:50.000Z</time>
</trkpt>
<trkpt lat="46.0574540" lon="10.4870920">
	<ele>2548.00</ele>
	<time>2023-08-06T09:26:51.000Z</time>
</trkpt>
<trkpt lat="46.0574570" lon="10.4870880">
	<ele>2547.80</ele>
	<time>2023-08-06T09:26:52.000Z</time>
</trkpt>
<trkpt lat="46.0574600" lon="10.4870880">
	<ele>2547.80</ele>
	<time>2023-08-06T09:26:53.000Z</time>
</trkpt>
<trkpt lat="46.0574660" lon="10.4870860">
	<ele>2547.80</ele>
	<time>2023-08-06T09:26:54.000Z</time>
</trkpt>
<trkpt lat="46.0574730" lon="10.4870820">
	<ele>2547.80</ele>
	<time>2023-08-06T09:26:55.000Z</time>
</trkpt>
<trkpt lat="46.0574810" lon="10.4870800">
	<ele>2547.80</ele>
	<time>2023-08-06T09:26:56.000Z</time>
</trkpt>
<trkpt lat="46.0574870" lon="10.4870830">
	<ele>2547.80</ele>
	<time>2023-08-06T09:26:57.000Z</time>
</trkpt>
<trkpt lat="46.0574950" lon="10.4870860">
	<ele>2547.80</ele>
	<time>2023-08-06T09:26:58.000Z</time>
</trkpt>
<trkpt lat="46.0575020" lon="10.4870900">
	<ele>2547.60</ele>
	<time>2023-08-06T09:26:59.000Z</time>
</trkpt>
<trkpt lat="46.0575090" lon="10.4870920">
	<ele>2547.60</ele>
	<time>2023-08-06T09:27:00.000Z</time>
</trkpt>
<trkpt lat="46.0575150" lon="10.4870870">
	<ele>2547.20</ele>
	<time>2023-08-06T09:27:01.000Z</time>
</trkpt>
<trkpt lat="46.0575190" lon="10.4870870">
	<ele>2547.20</ele>
	<time>2023-08-06T09:27:02.000Z</time>
</trkpt>
<trkpt lat="46.0575240" lon="10.4870890">
	<ele>2547.00</ele>
	<time>2023-08-06T09:27:03.000Z</time>
</trkpt>
<trkpt lat="46.0575320" lon="10.4870900">
	<ele>2547.00</ele>
	<time>2023-08-06T09:27:04.000Z</time>
</trkpt>
<trkpt lat="46.0575410" lon="10.4870900">
	<ele>2547.00</ele>
	<time>2023-08-06T09:27:05.000Z</time>
</trkpt>
<trkpt lat="46.0575470" lon="10.4870900">
	<ele>2546.80</ele>
	<time>2023-08-06T09:27:06.000Z</time>
</trkpt>
<trkpt lat="46.0575540" lon="10.4870870">
	<ele>2546.60</ele>
	<time>2023-08-06T09:27:07.000Z</time>
</trkpt>
<trkpt lat="46.0575570" lon="10.4870830">
	<ele>2546.40</ele>
	<time>2023-08-06T09:27:08.000Z</time>
</trkpt>
<trkpt lat="46.0575590" lon="10.4870770">
	<ele>2546.40</ele>
	<time>2023-08-06T09:27:09.000Z</time>
</trkpt>
<trkpt lat="46.0575650" lon="10.4870730">
	<ele>2546.40</ele>
	<time>2023-08-06T09:27:10.000Z</time>
</trkpt>
<trkpt lat="46.0575680" lon="10.4870720">
	<ele>2546.40</ele>
	<time>2023-08-06T09:27:11.000Z</time>
</trkpt>
<trkpt lat="46.0575760" lon="10.4870700">
	<ele>2546.20</ele>
	<time>2023-08-06T09:27:12.000Z</time>
</trkpt>
<trkpt lat="46.0575850" lon="10.4870720">
	<ele>2546.20</ele>
	<time>2023-08-06T09:27:13.000Z</time>
</trkpt>
<trkpt lat="46.0575960" lon="10.4870750">
	<ele>2546.20</ele>
	<time>2023-08-06T09:27:14.000Z</time>
</trkpt>
<trkpt lat="46.0576070" lon="10.4870780">
	<ele>2546.00</ele>
	<time>2023-08-06T09:27:15.000Z</time>
</trkpt>
<trkpt lat="46.0576160" lon="10.4870780">
	<ele>2545.80</ele>
	<time>2023-08-06T09:27:16.000Z</time>
</trkpt>
<trkpt lat="46.0576260" lon="10.4870780">
	<ele>2545.40</ele>
	<time>2023-08-06T09:27:17.000Z</time>
</trkpt>
<trkpt lat="46.0576320" lon="10.4870810">
	<ele>2545.40</ele>
	<time>2023-08-06T09:27:18.000Z</time>
</trkpt>
<trkpt lat="46.0576380" lon="10.4870850">
	<ele>2545.20</ele>
	<time>2023-08-06T09:27:19.000Z</time>
</trkpt>
<trkpt lat="46.0576450" lon="10.4870900">
	<ele>2545.20</ele>
	<time>2023-08-06T09:27:20.000Z</time>
</trkpt>
<trkpt lat="46.0576490" lon="10.4870960">
	<ele>2545.40</ele>
	<time>2023-08-06T09:27:21.000Z</time>
</trkpt>
<trkpt lat="46.0576540" lon="10.4870990">
	<ele>2545.40</ele>
	<time>2023-08-06T09:27:22.000Z</time>
</trkpt>
<trkpt lat="46.0576570" lon="10.4871000">
	<ele>2545.40</ele>
	<time>2023-08-06T09:27:23.000Z</time>
</trkpt>
<trkpt lat="46.0576600" lon="10.4871000">
	<ele>2545.40</ele>
	<time>2023-08-06T09:27:24.000Z</time>
</trkpt>
<trkpt lat="46.0576650" lon="10.4870970">
	<ele>2545.40</ele>
	<time>2023-08-06T09:27:25.000Z</time>
</trkpt>
<trkpt lat="46.0576670" lon="10.4870990">
	<ele>2545.40</ele>
	<time>2023-08-06T09:27:26.000Z</time>
</trkpt>
<trkpt lat="46.0576700" lon="10.4871070">
	<ele>2545.40</ele>
	<time>2023-08-06T09:27:27.000Z</time>
</trkpt>
<trkpt lat="46.0576720" lon="10.4871120">
	<ele>2545.20</ele>
	<time>2023-08-06T09:27:28.000Z</time>
</trkpt>
<trkpt lat="46.0576730" lon="10.4871150">
	<ele>2545.00</ele>
	<time>2023-08-06T09:27:29.000Z</time>
</trkpt>
<trkpt lat="46.0576770" lon="10.4871180">
	<ele>2544.60</ele>
	<time>2023-08-06T09:27:30.000Z</time>
</trkpt>
<trkpt lat="46.0576780" lon="10.4871220">
	<ele>2544.40</ele>
	<time>2023-08-06T09:27:31.000Z</time>
</trkpt>
<trkpt lat="46.0576810" lon="10.4871240">
	<ele>2544.20</ele>
	<time>2023-08-06T09:27:32.000Z</time>
</trkpt>
<trkpt lat="46.0576860" lon="10.4871260">
	<ele>2544.00</ele>
	<time>2023-08-06T09:27:33.000Z</time>
</trkpt>
<trkpt lat="46.0576910" lon="10.4871360">
	<ele>2544.00</ele>
	<time>2023-08-06T09:27:34.000Z</time>
</trkpt>
<trkpt lat="46.0576930" lon="10.4871400">
	<ele>2543.80</ele>
	<time>2023-08-06T09:27:35.000Z</time>
</trkpt>
<trkpt lat="46.0576950" lon="10.4871450">
	<ele>2543.60</ele>
	<time>2023-08-06T09:27:36.000Z</time>
</trkpt>
<trkpt lat="46.0576960" lon="10.4871470">
	<ele>2543.40</ele>
	<time>2023-08-06T09:27:37.000Z</time>
</trkpt>
<trkpt lat="46.0576980" lon="10.4871520">
	<ele>2543.20</ele>
	<time>2023-08-06T09:27:38.000Z</time>
</trkpt>
<trkpt lat="46.0576990" lon="10.4871570">
	<ele>2543.00</ele>
	<time>2023-08-06T09:27:39.000Z</time>
</trkpt>
<trkpt lat="46.0577030" lon="10.4871580">
	<ele>2542.80</ele>
	<time>2023-08-06T09:27:40.000Z</time>
</trkpt>
<trkpt lat="46.0577050" lon="10.4871570">
	<ele>2542.60</ele>
	<time>2023-08-06T09:27:41.000Z</time>
</trkpt>
<trkpt lat="46.0577070" lon="10.4871590">
	<ele>2542.40</ele>
	<time>2023-08-06T09:27:42.000Z</time>
</trkpt>
<trkpt lat="46.0577090" lon="10.4871660">
	<ele>2542.20</ele>
	<time>2023-08-06T09:27:43.000Z</time>
</trkpt>
<trkpt lat="46.0577110" lon="10.4871700">
	<ele>2542.00</ele>
	<time>2023-08-06T09:27:44.000Z</time>
</trkpt>
<trkpt lat="46.0577120" lon="10.4871690">
	<ele>2542.00</ele>
	<time>2023-08-06T09:27:45.000Z</time>
</trkpt>
<trkpt lat="46.0577120" lon="10.4871680">
	<ele>2542.00</ele>
	<time>2023-08-06T09:27:46.000Z</time>
</trkpt>
<trkpt lat="46.0577100" lon="10.4871800">
	<ele>2542.00</ele>
	<time>2023-08-06T09:27:47.000Z</time>
</trkpt>
<trkpt lat="46.0577120" lon="10.4871810">
	<ele>2542.00</ele>
	<time>2023-08-06T09:27:48.000Z</time>
</trkpt>
<trkpt lat="46.0577150" lon="10.4871830">
	<ele>2541.80</ele>
	<time>2023-08-06T09:27:49.000Z</time>
</trkpt>
<trkpt lat="46.0577160" lon="10.4871800">
	<ele>2541.40</ele>
	<time>2023-08-06T09:27:50.000Z</time>
</trkpt>
<trkpt lat="46.0577150" lon="10.4871860">
	<ele>2541.20</ele>
	<time>2023-08-06T09:27:51.000Z</time>
</trkpt>
<trkpt lat="46.0577170" lon="10.4871860">
	<ele>2541.20</ele>
	<time>2023-08-06T09:27:52.000Z</time>
</trkpt>
<trkpt lat="46.0577190" lon="10.4871870">
	<ele>2541.00</ele>
	<time>2023-08-06T09:27:53.000Z</time>
</trkpt>
<trkpt lat="46.0577210" lon="10.4871880">
	<ele>2541.00</ele>
	<time>2023-08-06T09:27:54.000Z</time>
</trkpt>
<trkpt lat="46.0577260" lon="10.4871960">
	<ele>2540.80</ele>
	<time>2023-08-06T09:27:55.000Z</time>
</trkpt>
<trkpt lat="46.0577320" lon="10.4872060">
	<ele>2540.60</ele>
	<time>2023-08-06T09:27:56.000Z</time>
</trkpt>
<trkpt lat="46.0577380" lon="10.4872170">
	<ele>2540.40</ele>
	<time>2023-08-06T09:27:57.000Z</time>
</trkpt>
<trkpt lat="46.0577420" lon="10.4872210">
	<ele>2540.40</ele>
	<time>2023-08-06T09:27:58.000Z</time>
</trkpt>
<trkpt lat="46.0577490" lon="10.4872150">
	<ele>2540.20</ele>
	<time>2023-08-06T09:27:59.000Z</time>
</trkpt>
<trkpt lat="46.0577590" lon="10.4872130">
	<ele>2540.20</ele>
	<time>2023-08-06T09:28:00.000Z</time>
</trkpt>
<trkpt lat="46.0577660" lon="10.4872170">
	<ele>2540.00</ele>
	<time>2023-08-06T09:28:01.000Z</time>
</trkpt>
<trkpt lat="46.0577750" lon="10.4872180">
	<ele>2540.00</ele>
	<time>2023-08-06T09:28:02.000Z</time>
</trkpt>
<trkpt lat="46.0577830" lon="10.4872180">
	<ele>2540.00</ele>
	<time>2023-08-06T09:28:03.000Z</time>
</trkpt>
<trkpt lat="46.0577870" lon="10.4872160">
	<ele>2540.00</ele>
	<time>2023-08-06T09:28:04.000Z</time>
</trkpt>
<trkpt lat="46.0577920" lon="10.4872160">
	<ele>2540.00</ele>
	<time>2023-08-06T09:28:05.000Z</time>
</trkpt>
<trkpt lat="46.0577980" lon="10.4872130">
	<ele>2540.00</ele>
	<time>2023-08-06T09:28:06.000Z</time>
</trkpt>
<trkpt lat="46.0578090" lon="10.4872070">
	<ele>2540.20</ele>
	<time>2023-08-06T09:28:07.000Z</time>
</trkpt>
<trkpt lat="46.0578160" lon="10.4872000">
	<ele>2540.00</ele>
	<time>2023-08-06T09:28:08.000Z</time>
</trkpt>
<trkpt lat="46.0578220" lon="10.4871960">
	<ele>2540.20</ele>
	<time>2023-08-06T09:28:09.000Z</time>
</trkpt>
<trkpt lat="46.0578270" lon="10.4871980">
	<ele>2540.00</ele>
	<time>2023-08-06T09:28:10.000Z</time>
</trkpt>
<trkpt lat="46.0578330" lon="10.4871950">
	<ele>2540.00</ele>
	<time>2023-08-06T09:28:11.000Z</time>
</trkpt>
<trkpt lat="46.0578410" lon="10.4871910">
	<ele>2540.00</ele>
	<time>2023-08-06T09:28:12.000Z</time>
</trkpt>
<trkpt lat="46.0578490" lon="10.4871910">
	<ele>2539.80</ele>
	<time>2023-08-06T09:28:13.000Z</time>
</trkpt>
<trkpt lat="46.0578570" lon="10.4871890">
	<ele>2539.80</ele>
	<time>2023-08-06T09:28:14.000Z</time>
</trkpt>
<trkpt lat="46.0578600" lon="10.4871910">
	<ele>2539.60</ele>
	<time>2023-08-06T09:28:15.000Z</time>
</trkpt>
<trkpt lat="46.0578650" lon="10.4871930">
	<ele>2539.60</ele>
	<time>2023-08-06T09:28:16.000Z</time>
</trkpt>
<trkpt lat="46.0578700" lon="10.4871920">
	<ele>2539.40</ele>
	<time>2023-08-06T09:28:17.000Z</time>
</trkpt>
<trkpt lat="46.0578780" lon="10.4871870">
	<ele>2539.20</ele>
	<time>2023-08-06T09:28:18.000Z</time>
</trkpt>
<trkpt lat="46.0578880" lon="10.4871870">
	<ele>2539.00</ele>
	<time>2023-08-06T09:28:19.000Z</time>
</trkpt>
<trkpt lat="46.0578970" lon="10.4871900">
	<ele>2538.80</ele>
	<time>2023-08-06T09:28:20.000Z</time>
</trkpt>
<trkpt lat="46.0579040" lon="10.4871900">
	<ele>2538.60</ele>
	<time>2023-08-06T09:28:21.000Z</time>
</trkpt>
<trkpt lat="46.0579110" lon="10.4871920">
	<ele>2538.20</ele>
	<time>2023-08-06T09:28:22.000Z</time>
</trkpt>
<trkpt lat="46.0579190" lon="10.4871990">
	<ele>2538.00</ele>
	<time>2023-08-06T09:28:23.000Z</time>
</trkpt>
<trkpt lat="46.0579250" lon="10.4872060">
	<ele>2537.80</ele>
	<time>2023-08-06T09:28:24.000Z</time>
</trkpt>
<trkpt lat="46.0579310" lon="10.4872150">
	<ele>2537.80</ele>
	<time>2023-08-06T09:28:25.000Z</time>
</trkpt>
<trkpt lat="46.0579320" lon="10.4872180">
	<ele>2537.60</ele>
	<time>2023-08-06T09:28:26.000Z</time>
</trkpt>
<trkpt lat="46.0579340" lon="10.4872250">
	<ele>2537.40</ele>
	<time>2023-08-06T09:28:27.000Z</time>
</trkpt>
<trkpt lat="46.0579390" lon="10.4872350">
	<ele>2537.40</ele>
	<time>2023-08-06T09:28:28.000Z</time>
</trkpt>
<trkpt lat="46.0579460" lon="10.4872420">
	<ele>2537.20</ele>
	<time>2023-08-06T09:28:29.000Z</time>
</trkpt>
<trkpt lat="46.0579520" lon="10.4872510">
	<ele>2537.00</ele>
	<time>2023-08-06T09:28:30.000Z</time>
</trkpt>
<trkpt lat="46.0579570" lon="10.4872600">
	<ele>2537.00</ele>
	<time>2023-08-06T09:28:31.000Z</time>
</trkpt>
<trkpt lat="46.0579630" lon="10.4872680">
	<ele>2536.80</ele>
	<time>2023-08-06T09:28:32.000Z</time>
</trkpt>
<trkpt lat="46.0579690" lon="10.4872760">
	<ele>2536.80</ele>
	<time>2023-08-06T09:28:33.000Z</time>
</trkpt>
<trkpt lat="46.0579760" lon="10.4872830">
	<ele>2536.60</ele>
	<time>2023-08-06T09:28:34.000Z</time>
</trkpt>
<trkpt lat="46.0579800" lon="10.4872850">
	<ele>2536.60</ele>
	<time>2023-08-06T09:28:35.000Z</time>
</trkpt>
<trkpt lat="46.0579830" lon="10.4872860">
	<ele>2536.40</ele>
	<time>2023-08-06T09:28:36.000Z</time>
</trkpt>
<trkpt lat="46.0579850" lon="10.4872900">
	<ele>2536.40</ele>
	<time>2023-08-06T09:28:37.000Z</time>
</trkpt>
<trkpt lat="46.0579880" lon="10.4872940">
	<ele>2536.20</ele>
	<time>2023-08-06T09:28:38.000Z</time>
</trkpt>
<trkpt lat="46.0579940" lon="10.4873010">
	<ele>2536.20</ele>
	<time>2023-08-06T09:28:39.000Z</time>
</trkpt>
<trkpt lat="46.0580020" lon="10.4873020">
	<ele>2536.20</ele>
	<time>2023-08-06T09:28:40.000Z</time>
</trkpt>
<trkpt lat="46.0580110" lon="10.4873090">
	<ele>2536.20</ele>
	<time>2023-08-06T09:28:41.000Z</time>
</trkpt>
<trkpt lat="46.0580190" lon="10.4873140">
	<ele>2536.00</ele>
	<time>2023-08-06T09:28:42.000Z</time>
</trkpt>
<trkpt lat="46.0580260" lon="10.4873170">
	<ele>2536.00</ele>
	<time>2023-08-06T09:28:43.000Z</time>
</trkpt>
<trkpt lat="46.0580310" lon="10.4873170">
	<ele>2536.00</ele>
	<time>2023-08-06T09:28:44.000Z</time>
</trkpt>
<trkpt lat="46.0580360" lon="10.4873200">
	<ele>2536.00</ele>
	<time>2023-08-06T09:28:45.000Z</time>
</trkpt>
<trkpt lat="46.0580440" lon="10.4873290">
	<ele>2536.00</ele>
	<time>2023-08-06T09:28:46.000Z</time>
</trkpt>
<trkpt lat="46.0580500" lon="10.4873390">
	<ele>2535.80</ele>
	<time>2023-08-06T09:28:47.000Z</time>
</trkpt>
<trkpt lat="46.0580570" lon="10.4873460">
	<ele>2535.80</ele>
	<time>2023-08-06T09:28:48.000Z</time>
</trkpt>
<trkpt lat="46.0580640" lon="10.4873560">
	<ele>2535.60</ele>
	<time>2023-08-06T09:28:49.000Z</time>
</trkpt>
<trkpt lat="46.0580690" lon="10.4873610">
	<ele>2535.60</ele>
	<time>2023-08-06T09:28:50.000Z</time>
</trkpt>
<trkpt lat="46.0580720" lon="10.4873600">
	<ele>2535.40</ele>
	<time>2023-08-06T09:28:51.000Z</time>
</trkpt>
<trkpt lat="46.0580770" lon="10.4873600">
	<ele>2535.40</ele>
	<time>2023-08-06T09:28:52.000Z</time>
</trkpt>
<trkpt lat="46.0580830" lon="10.4873580">
	<ele>2535.40</ele>
	<time>2023-08-06T09:28:53.000Z</time>
</trkpt>
<trkpt lat="46.0580870" lon="10.4873560">
	<ele>2535.40</ele>
	<time>2023-08-06T09:28:54.000Z</time>
</trkpt>
<trkpt lat="46.0580930" lon="10.4873520">
	<ele>2535.40</ele>
	<time>2023-08-06T09:28:55.000Z</time>
</trkpt>
<trkpt lat="46.0580970" lon="10.4873510">
	<ele>2535.40</ele>
	<time>2023-08-06T09:28:56.000Z</time>
</trkpt>
<trkpt lat="46.0581000" lon="10.4873600">
	<ele>2535.60</ele>
	<time>2023-08-06T09:28:57.000Z</time>
</trkpt>
<trkpt lat="46.0581050" lon="10.4873710">
	<ele>2535.60</ele>
	<time>2023-08-06T09:28:58.000Z</time>
</trkpt>
<trkpt lat="46.0581090" lon="10.4873830">
	<ele>2535.60</ele>
	<time>2023-08-06T09:28:59.000Z</time>
</trkpt>
<trkpt lat="46.0581120" lon="10.4873890">
	<ele>2535.60</ele>
	<time>2023-08-06T09:29:00.000Z</time>
</trkpt>
<trkpt lat="46.0581150" lon="10.4873920">
	<ele>2535.60</ele>
	<time>2023-08-06T09:29:01.000Z</time>
</trkpt>
<trkpt lat="46.0581230" lon="10.4873940">
	<ele>2535.60</ele>
	<time>2023-08-06T09:29:02.000Z</time>
</trkpt>
<trkpt lat="46.0581310" lon="10.4873960">
	<ele>2535.80</ele>
	<time>2023-08-06T09:29:03.000Z</time>
</trkpt>
<trkpt lat="46.0581400" lon="10.4873990">
	<ele>2535.80</ele>
	<time>2023-08-06T09:29:04.000Z</time>
</trkpt>
<trkpt lat="46.0581480" lon="10.4874050">
	<ele>2535.80</ele>
	<time>2023-08-06T09:29:05.000Z</time>
</trkpt>
<trkpt lat="46.0581550" lon="10.4874080">
	<ele>2535.80</ele>
	<time>2023-08-06T09:29:06.000Z</time>
</trkpt>
<trkpt lat="46.0581620" lon="10.4874160">
	<ele>2536.00</ele>
	<time>2023-08-06T09:29:07.000Z</time>
</trkpt>
<trkpt lat="46.0581670" lon="10.4874250">
	<ele>2536.00</ele>
	<time>2023-08-06T09:29:08.000Z</time>
</trkpt>
<trkpt lat="46.0581730" lon="10.4874270">
	<ele>2536.20</ele>
	<time>2023-08-06T09:29:09.000Z</time>
</trkpt>
<trkpt lat="46.0581820" lon="10.4874330">
	<ele>2536.20</ele>
	<time>2023-08-06T09:29:10.000Z</time>
</trkpt>
<trkpt lat="46.0581910" lon="10.4874470">
	<ele>2536.20</ele>
	<time>2023-08-06T09:29:11.000Z</time>
</trkpt>
<trkpt lat="46.0581980" lon="10.4874540">
	<ele>2536.20</ele>
	<time>2023-08-06T09:29:12.000Z</time>
</trkpt>
<trkpt lat="46.0582010" lon="10.4874550">
	<ele>2536.40</ele>
	<time>2023-08-06T09:29:13.000Z</time>
</trkpt>
<trkpt lat="46.0582040" lon="10.4874580">
	<ele>2536.40</ele>
	<time>2023-08-06T09:29:14.000Z</time>
</trkpt>
<trkpt lat="46.0582120" lon="10.4874600">
	<ele>2536.40</ele>
	<time>2023-08-06T09:29:15.000Z</time>
</trkpt>
<trkpt lat="46.0582170" lon="10.4874680">
	<ele>2536.60</ele>
	<time>2023-08-06T09:29:16.000Z</time>
</trkpt>
<trkpt lat="46.0582180" lon="10.4874750">
	<ele>2536.40</ele>
	<time>2023-08-06T09:29:17.000Z</time>
</trkpt>
<trkpt lat="46.0582230" lon="10.4874800">
	<ele>2536.40</ele>
	<time>2023-08-06T09:29:18.000Z</time>
</trkpt>
<trkpt lat="46.0582250" lon="10.4874840">
	<ele>2536.40</ele>
	<time>2023-08-06T09:29:19.000Z</time>
</trkpt>
<trkpt lat="46.0582310" lon="10.4874880">
	<ele>2536.40</ele>
	<time>2023-08-06T09:29:20.000Z</time>
</trkpt>
<trkpt lat="46.0582360" lon="10.4874900">
	<ele>2536.20</ele>
	<time>2023-08-06T09:29:21.000Z</time>
</trkpt>
<trkpt lat="46.0582420" lon="10.4874890">
	<ele>2536.20</ele>
	<time>2023-08-06T09:29:22.000Z</time>
</trkpt>
<trkpt lat="46.0582480" lon="10.4874900">
	<ele>2536.20</ele>
	<time>2023-08-06T09:29:23.000Z</time>
</trkpt>
<trkpt lat="46.0582510" lon="10.4874910">
	<ele>2536.20</ele>
	<time>2023-08-06T09:29:24.000Z</time>
</trkpt>
<trkpt lat="46.0582530" lon="10.4874920">
	<ele>2536.20</ele>
	<time>2023-08-06T09:29:25.000Z</time>
</trkpt>
<trkpt lat="46.0582570" lon="10.4874930">
	<ele>2536.20</ele>
	<time>2023-08-06T09:29:26.000Z</time>
</trkpt>
<trkpt lat="46.0582600" lon="10.4874960">
	<ele>2536.20</ele>
	<time>2023-08-06T09:29:27.000Z</time>
</trkpt>
<trkpt lat="46.0582590" lon="10.4874950">
	<ele>2536.20</ele>
	<time>2023-08-06T09:29:28.000Z</time>
</trkpt>
<trkpt lat="46.0582600" lon="10.4874950">
	<ele>2536.20</ele>
	<time>2023-08-06T09:29:29.000Z</time>
</trkpt>
<trkpt lat="46.0582620" lon="10.4874920">
	<ele>2536.20</ele>
	<time>2023-08-06T09:29:30.000Z</time>
</trkpt>
<trkpt lat="46.0582650" lon="10.4874880">
	<ele>2536.00</ele>
	<time>2023-08-06T09:29:31.000Z</time>
</trkpt>
<trkpt lat="46.0582720" lon="10.4874870">
	<ele>2536.00</ele>
	<time>2023-08-06T09:29:32.000Z</time>
</trkpt>
<trkpt lat="46.0582800" lon="10.4874890">
	<ele>2536.00</ele>
	<time>2023-08-06T09:29:33.000Z</time>
</trkpt>
<trkpt lat="46.0582860" lon="10.4874910">
	<ele>2536.00</ele>
	<time>2023-08-06T09:29:34.000Z</time>
</trkpt>
<trkpt lat="46.0582920" lon="10.4874880">
	<ele>2536.00</ele>
	<time>2023-08-06T09:29:35.000Z</time>
</trkpt>
<trkpt lat="46.0582980" lon="10.4874890">
	<ele>2536.00</ele>
	<time>2023-08-06T09:29:36.000Z</time>
</trkpt>
<trkpt lat="46.0583050" lon="10.4874920">
	<ele>2536.00</ele>
	<time>2023-08-06T09:29:37.000Z</time>
</trkpt>
<trkpt lat="46.0583100" lon="10.4874960">
	<ele>2536.00</ele>
	<time>2023-08-06T09:29:38.000Z</time>
</trkpt>
<trkpt lat="46.0583190" lon="10.4874990">
	<ele>2536.00</ele>
	<time>2023-08-06T09:29:39.000Z</time>
</trkpt>
<trkpt lat="46.0583260" lon="10.4875060">
	<ele>2536.00</ele>
	<time>2023-08-06T09:29:40.000Z</time>
</trkpt>
<trkpt lat="46.0583340" lon="10.4875120">
	<ele>2536.20</ele>
	<time>2023-08-06T09:29:41.000Z</time>
</trkpt>
<trkpt lat="46.0583380" lon="10.4875160">
	<ele>2536.00</ele>
	<time>2023-08-06T09:29:42.000Z</time>
</trkpt>
<trkpt lat="46.0583380" lon="10.4875180">
	<ele>2536.00</ele>
	<time>2023-08-06T09:29:43.000Z</time>
</trkpt>
<trkpt lat="46.0583460" lon="10.4875190">
	<ele>2536.00</ele>
	<time>2023-08-06T09:29:44.000Z</time>
</trkpt>
<trkpt lat="46.0583570" lon="10.4875230">
	<ele>2536.00</ele>
	<time>2023-08-06T09:29:45.000Z</time>
</trkpt>
<trkpt lat="46.0583580" lon="10.4875260">
	<ele>2536.00</ele>
	<time>2023-08-06T09:29:46.000Z</time>
</trkpt>
<trkpt lat="46.0583580" lon="10.4875330">
	<ele>2536.00</ele>
	<time>2023-08-06T09:29:47.000Z</time>
</trkpt>
<trkpt lat="46.0583580" lon="10.4875400">
	<ele>2536.00</ele>
	<time>2023-08-06T09:29:48.000Z</time>
</trkpt>
<trkpt lat="46.0583620" lon="10.4875440">
	<ele>2536.00</ele>
	<time>2023-08-06T09:29:49.000Z</time>
</trkpt>
<trkpt lat="46.0583680" lon="10.4875510">
	<ele>2536.00</ele>
	<time>2023-08-06T09:29:50.000Z</time>
</trkpt>
<trkpt lat="46.0583700" lon="10.4875560">
	<ele>2536.00</ele>
	<time>2023-08-06T09:29:51.000Z</time>
</trkpt>
<trkpt lat="46.0583720" lon="10.4875620">
	<ele>2536.00</ele>
	<time>2023-08-06T09:29:52.000Z</time>
</trkpt>
<trkpt lat="46.0583740" lon="10.4875680">
	<ele>2536.00</ele>
	<time>2023-08-06T09:29:53.000Z</time>
</trkpt>
<trkpt lat="46.0583780" lon="10.4875740">
	<ele>2536.00</ele>
	<time>2023-08-06T09:29:54.000Z</time>
</trkpt>
<trkpt lat="46.0583820" lon="10.4875760">
	<ele>2536.00</ele>
	<time>2023-08-06T09:29:55.000Z</time>
</trkpt>
<trkpt lat="46.0583840" lon="10.4875860">
	<ele>2536.00</ele>
	<time>2023-08-06T09:29:56.000Z</time>
</trkpt>
<trkpt lat="46.0583870" lon="10.4875910">
	<ele>2536.00</ele>
	<time>2023-08-06T09:29:57.000Z</time>
</trkpt>
<trkpt lat="46.0583910" lon="10.4876050">
	<ele>2536.00</ele>
	<time>2023-08-06T09:29:58.000Z</time>
</trkpt>
<trkpt lat="46.0583950" lon="10.4876140">
	<ele>2536.00</ele>
	<time>2023-08-06T09:29:59.000Z</time>
</trkpt>
<trkpt lat="46.0583960" lon="10.4876200">
	<ele>2536.00</ele>
	<time>2023-08-06T09:30:00.000Z</time>
</trkpt>
<trkpt lat="46.0584010" lon="10.4876270">
	<ele>2536.00</ele>
	<time>2023-08-06T09:30:01.000Z</time>
</trkpt>
<trkpt lat="46.0584070" lon="10.4876350">
	<ele>2536.00</ele>
	<time>2023-08-06T09:30:02.000Z</time>
</trkpt>
<trkpt lat="46.0584140" lon="10.4876420">
	<ele>2536.00</ele>
	<time>2023-08-06T09:30:03.000Z</time>
</trkpt>
<trkpt lat="46.0584180" lon="10.4876480">
	<ele>2536.00</ele>
	<time>2023-08-06T09:30:04.000Z</time>
</trkpt>
<trkpt lat="46.0584180" lon="10.4876550">
	<ele>2536.00</ele>
	<time>2023-08-06T09:30:05.000Z</time>
</trkpt>
<trkpt lat="46.0584220" lon="10.4876580">
	<ele>2536.00</ele>
	<time>2023-08-06T09:30:06.000Z</time>
</trkpt>
<trkpt lat="46.0584280" lon="10.4876610">
	<ele>2536.00</ele>
	<time>2023-08-06T09:30:07.000Z</time>
</trkpt>
<trkpt lat="46.0584300" lon="10.4876640">
	<ele>2536.00</ele>
	<time>2023-08-06T09:30:08.000Z</time>
</trkpt>
<trkpt lat="46.0584330" lon="10.4876700">
	<ele>2536.00</ele>
	<time>2023-08-06T09:30:09.000Z</time>
</trkpt>
<trkpt lat="46.0584400" lon="10.4876780">
	<ele>2536.00</ele>
	<time>2023-08-06T09:30:10.000Z</time>
</trkpt>
<trkpt lat="46.0584470" lon="10.4876850">
	<ele>2536.00</ele>
	<time>2023-08-06T09:30:11.000Z</time>
</trkpt>
<trkpt lat="46.0584520" lon="10.4876920">
	<ele>2536.00</ele>
	<time>2023-08-06T09:30:12.000Z</time>
</trkpt>
<trkpt lat="46.0584590" lon="10.4877050">
	<ele>2536.00</ele>
	<time>2023-08-06T09:30:13.000Z</time>
</trkpt>
<trkpt lat="46.0584620" lon="10.4877160">
	<ele>2536.00</ele>
	<time>2023-08-06T09:30:14.000Z</time>
</trkpt>
<trkpt lat="46.0584630" lon="10.4877240">
	<ele>2536.00</ele>
	<time>2023-08-06T09:30:15.000Z</time>
</trkpt>
<trkpt lat="46.0584710" lon="10.4877320">
	<ele>2536.00</ele>
	<time>2023-08-06T09:30:16.000Z</time>
</trkpt>
<trkpt lat="46.0584750" lon="10.4877420">
	<ele>2536.00</ele>
	<time>2023-08-06T09:30:17.000Z</time>
</trkpt>
<trkpt lat="46.0584800" lon="10.4877500">
	<ele>2536.00</ele>
	<time>2023-08-06T09:30:18.000Z</time>
</trkpt>
<trkpt lat="46.0584830" lon="10.4877570">
	<ele>2536.00</ele>
	<time>2023-08-06T09:30:19.000Z</time>
</trkpt>
<trkpt lat="46.0584920" lon="10.4877670">
	<ele>2536.00</ele>
	<time>2023-08-06T09:30:20.000Z</time>
</trkpt>
<trkpt lat="46.0584960" lon="10.4877740">
	<ele>2536.00</ele>
	<time>2023-08-06T09:30:21.000Z</time>
</trkpt>
<trkpt lat="46.0585020" lon="10.4877840">
	<ele>2536.00</ele>
	<time>2023-08-06T09:30:22.000Z</time>
</trkpt>
<trkpt lat="46.0585100" lon="10.4877980">
	<ele>2536.00</ele>
	<time>2023-08-06T09:30:23.000Z</time>
</trkpt>
<trkpt lat="46.0585160" lon="10.4878050">
	<ele>2536.00</ele>
	<time>2023-08-06T09:30:24.000Z</time>
</trkpt>
<trkpt lat="46.0585190" lon="10.4878100">
	<ele>2536.00</ele>
	<time>2023-08-06T09:30:25.000Z</time>
</trkpt>
<trkpt lat="46.0585230" lon="10.4878190">
	<ele>2536.00</ele>
	<time>2023-08-06T09:30:26.000Z</time>
</trkpt>
<trkpt lat="46.0585270" lon="10.4878270">
	<ele>2536.00</ele>
	<time>2023-08-06T09:30:27.000Z</time>
</trkpt>
<trkpt lat="46.0585300" lon="10.4878360">
	<ele>2536.00</ele>
	<time>2023-08-06T09:30:28.000Z</time>
</trkpt>
<trkpt lat="46.0585330" lon="10.4878430">
	<ele>2536.00</ele>
	<time>2023-08-06T09:30:29.000Z</time>
</trkpt>
<trkpt lat="46.0585380" lon="10.4878550">
	<ele>2536.00</ele>
	<time>2023-08-06T09:30:30.000Z</time>
</trkpt>
<trkpt lat="46.0585390" lon="10.4878650">
	<ele>2536.00</ele>
	<time>2023-08-06T09:30:31.000Z</time>
</trkpt>
<trkpt lat="46.0585400" lon="10.4878740">
	<ele>2536.00</ele>
	<time>2023-08-06T09:30:32.000Z</time>
</trkpt>
<trkpt lat="46.0585440" lon="10.4878830">
	<ele>2536.00</ele>
	<time>2023-08-06T09:30:33.000Z</time>
</trkpt>
<trkpt lat="46.0585480" lon="10.4878920">
	<ele>2536.00</ele>
	<time>2023-08-06T09:30:34.000Z</time>
</trkpt>
<trkpt lat="46.0585510" lon="10.4878980">
	<ele>2536.00</ele>
	<time>2023-08-06T09:30:35.000Z</time>
</trkpt>
<trkpt lat="46.0585530" lon="10.4879040">
	<ele>2536.00</ele>
	<time>2023-08-06T09:30:36.000Z</time>
</trkpt>
<trkpt lat="46.0585560" lon="10.4879060">
	<ele>2536.00</ele>
	<time>2023-08-06T09:30:37.000Z</time>
</trkpt>
<trkpt lat="46.0585550" lon="10.4879130">
	<ele>2536.00</ele>
	<time>2023-08-06T09:30:38.000Z</time>
</trkpt>
<trkpt lat="46.0585540" lon="10.4879160">
	<ele>2536.00</ele>
	<time>2023-08-06T09:30:39.000Z</time>
</trkpt>
<trkpt lat="46.0585550" lon="10.4879180">
	<ele>2536.00</ele>
	<time>2023-08-06T09:30:40.000Z</time>
</trkpt>
<trkpt lat="46.0585550" lon="10.4879200">
	<ele>2536.00</ele>
	<time>2023-08-06T09:30:41.000Z</time>
</trkpt>
<trkpt lat="46.0585590" lon="10.4879260">
	<ele>2536.00</ele>
	<time>2023-08-06T09:30:42.000Z</time>
</trkpt>
<trkpt lat="46.0585620" lon="10.4879340">
	<ele>2532.80</ele>
	<time>2023-08-06T09:30:43.000Z</time>
</trkpt>
<trkpt lat="46.0585600" lon="10.4879380">
	<ele>2532.80</ele>
	<time>2023-08-06T09:30:44.000Z</time>
</trkpt>
<trkpt lat="46.0585590" lon="10.4879450">
	<ele>2532.80</ele>
	<time>2023-08-06T09:30:45.000Z</time>
</trkpt>
<trkpt lat="46.0585600" lon="10.4879530">
	<ele>2532.80</ele>
	<time>2023-08-06T09:30:46.000Z</time>
</trkpt>
<trkpt lat="46.0585610" lon="10.4879580">
	<ele>2532.80</ele>
	<time>2023-08-06T09:30:47.000Z</time>
</trkpt>
<trkpt lat="46.0585590" lon="10.4879620">
	<ele>2532.80</ele>
	<time>2023-08-06T09:30:48.000Z</time>
</trkpt>
<trkpt lat="46.0585580" lon="10.4879630">
	<ele>2532.80</ele>
	<time>2023-08-06T09:30:49.000Z</time>
</trkpt>
<trkpt lat="46.0585560" lon="10.4879640">
	<ele>2532.80</ele>
	<time>2023-08-06T09:30:50.000Z</time>
</trkpt>
<trkpt lat="46.0585500" lon="10.4879590">
	<ele>2532.80</ele>
	<time>2023-08-06T09:30:51.000Z</time>
</trkpt>
<trkpt lat="46.0585480" lon="10.4879560">
	<ele>2532.60</ele>
	<time>2023-08-06T09:30:52.000Z</time>
</trkpt>
<trkpt lat="46.0585460" lon="10.4879590">
	<ele>2532.40</ele>
	<time>2023-08-06T09:30:53.000Z</time>
</trkpt>
<trkpt lat="46.0585450" lon="10.4879670">
	<ele>2532.00</ele>
	<time>2023-08-06T09:30:54.000Z</time>
</trkpt>
<trkpt lat="46.0585400" lon="10.4879710">
	<ele>2531.60</ele>
	<time>2023-08-06T09:30:55.000Z</time>
</trkpt>
<trkpt lat="46.0585390" lon="10.4879750">
	<ele>2531.40</ele>
	<time>2023-08-06T09:30:56.000Z</time>
</trkpt>
<trkpt lat="46.0585370" lon="10.4879760">
	<ele>2531.20</ele>
	<time>2023-08-06T09:30:57.000Z</time>
</trkpt>
<trkpt lat="46.0585350" lon="10.4879800">
	<ele>2531.00</ele>
	<time>2023-08-06T09:30:58.000Z</time>
</trkpt>
<trkpt lat="46.0585340" lon="10.4879840">
	<ele>2530.80</ele>
	<time>2023-08-06T09:30:59.000Z</time>
</trkpt>
<trkpt lat="46.0585330" lon="10.4879880">
	<ele>2530.60</ele>
	<time>2023-08-06T09:31:00.000Z</time>
</trkpt>
<trkpt lat="46.0585330" lon="10.4879910">
	<ele>2530.40</ele>
	<time>2023-08-06T09:31:01.000Z</time>
</trkpt>
<trkpt lat="46.0585370" lon="10.4879920">
	<ele>2530.20</ele>
	<time>2023-08-06T09:31:02.000Z</time>
</trkpt>
<trkpt lat="46.0585410" lon="10.4879970">
	<ele>2530.00</ele>
	<time>2023-08-06T09:31:03.000Z</time>
</trkpt>
<trkpt lat="46.0585470" lon="10.4880010">
	<ele>2530.00</ele>
	<time>2023-08-06T09:31:04.000Z</time>
</trkpt>
<trkpt lat="46.0585490" lon="10.4880050">
	<ele>2529.80</ele>
	<time>2023-08-06T09:31:05.000Z</time>
</trkpt>
<trkpt lat="46.0585520" lon="10.4880110">
	<ele>2529.60</ele>
	<time>2023-08-06T09:31:06.000Z</time>
</trkpt>
<trkpt lat="46.0585560" lon="10.4880180">
	<ele>2529.60</ele>
	<time>2023-08-06T09:31:07.000Z</time>
</trkpt>
<trkpt lat="46.0585570" lon="10.4880220">
	<ele>2529.40</ele>
	<time>2023-08-06T09:31:08.000Z</time>
</trkpt>
<trkpt lat="46.0585570" lon="10.4880280">
	<ele>2529.20</ele>
	<time>2023-08-06T09:31:09.000Z</time>
</trkpt>
<trkpt lat="46.0585570" lon="10.4880350">
	<ele>2529.00</ele>
	<time>2023-08-06T09:31:10.000Z</time>
</trkpt>
<trkpt lat="46.0585570" lon="10.4880410">
	<ele>2529.00</ele>
	<time>2023-08-06T09:31:11.000Z</time>
</trkpt>
<trkpt lat="46.0585570" lon="10.4880460">
	<ele>2528.80</ele>
	<time>2023-08-06T09:31:12.000Z</time>
</trkpt>
<trkpt lat="46.0585580" lon="10.4880500">
	<ele>2528.60</ele>
	<time>2023-08-06T09:31:13.000Z</time>
</trkpt>
<trkpt lat="46.0585590" lon="10.4880560">
	<ele>2528.40</ele>
	<time>2023-08-06T09:31:14.000Z</time>
</trkpt>
<trkpt lat="46.0585600" lon="10.4880640">
	<ele>2528.40</ele>
	<time>2023-08-06T09:31:15.000Z</time>
</trkpt>
<trkpt lat="46.0585610" lon="10.4880700">
	<ele>2528.20</ele>
	<time>2023-08-06T09:31:16.000Z</time>
</trkpt>
<trkpt lat="46.0585620" lon="10.4880750">
	<ele>2528.20</ele>
	<time>2023-08-06T09:31:17.000Z</time>
</trkpt>
<trkpt lat="46.0585640" lon="10.4880820">
	<ele>2528.00</ele>
	<time>2023-08-06T09:31:18.000Z</time>
</trkpt>
<trkpt lat="46.0585670" lon="10.4880920">
	<ele>2528.00</ele>
	<time>2023-08-06T09:31:19.000Z</time>
</trkpt>
<trkpt lat="46.0585700" lon="10.4881010">
	<ele>2527.80</ele>
	<time>2023-08-06T09:31:20.000Z</time>
</trkpt>
<trkpt lat="46.0585770" lon="10.4881130">
	<ele>2527.80</ele>
	<time>2023-08-06T09:31:21.000Z</time>
</trkpt>
<trkpt lat="46.0585780" lon="10.4881200">
	<ele>2527.80</ele>
	<time>2023-08-06T09:31:22.000Z</time>
</trkpt>
<trkpt lat="46.0585820" lon="10.4881250">
	<ele>2527.60</ele>
	<time>2023-08-06T09:31:23.000Z</time>
</trkpt>
<trkpt lat="46.0585820" lon="10.4881280">
	<ele>2527.60</ele>
	<time>2023-08-06T09:31:24.000Z</time>
</trkpt>
<trkpt lat="46.0585810" lon="10.4881310">
	<ele>2527.40</ele>
	<time>2023-08-06T09:31:25.000Z</time>
</trkpt>
<trkpt lat="46.0585780" lon="10.4881300">
	<ele>2527.20</ele>
	<time>2023-08-06T09:31:26.000Z</time>
</trkpt>
<trkpt lat="46.0585780" lon="10.4881280">
	<ele>2527.40</ele>
	<time>2023-08-06T09:31:27.000Z</time>
</trkpt>
<trkpt lat="46.0585790" lon="10.4881280">
	<ele>2527.40</ele>
	<time>2023-08-06T09:31:28.000Z</time>
</trkpt>
<trkpt lat="46.0585800" lon="10.4881280">
	<ele>2527.60</ele>
	<time>2023-08-06T09:31:29.000Z</time>
</trkpt>
<trkpt lat="46.0585790" lon="10.4881300">
	<ele>2527.60</ele>
	<time>2023-08-06T09:31:30.000Z</time>
</trkpt>
<trkpt lat="46.0585780" lon="10.4881300">
	<ele>2528.00</ele>
	<time>2023-08-06T09:31:31.000Z</time>
</trkpt>
<trkpt lat="46.0585760" lon="10.4881280">
	<ele>2528.20</ele>
	<time>2023-08-06T09:31:32.000Z</time>
</trkpt>
<trkpt lat="46.0585760" lon="10.4881250">
	<ele>2528.20</ele>
	<time>2023-08-06T09:31:33.000Z</time>
</trkpt>
<trkpt lat="46.0585760" lon="10.4881240">
	<ele>2528.20</ele>
	<time>2023-08-06T09:31:34.000Z</time>
</trkpt>
<trkpt lat="46.0585750" lon="10.4881230">
	<ele>2528.20</ele>
	<time>2023-08-06T09:31:35.000Z</time>
</trkpt>
<trkpt lat="46.0585750" lon="10.4881220">
	<ele>2528.00</ele>
	<time>2023-08-06T09:31:36.000Z</time>
</trkpt>
<trkpt lat="46.0585750" lon="10.4881220">
	<ele>2528.00</ele>
	<time>2023-08-06T09:31:37.000Z</time>
</trkpt>
<trkpt lat="46.0585750" lon="10.4881220">
	<ele>2528.00</ele>
	<time>2023-08-06T09:31:38.000Z</time>
</trkpt>
<trkpt lat="46.0585750" lon="10.4881220">
	<ele>2528.00</ele>
	<time>2023-08-06T09:31:39.000Z</time>
</trkpt>
<trkpt lat="46.0585750" lon="10.4881220">
	<ele>2528.00</ele>
	<time>2023-08-06T09:31:40.000Z</time>
</trkpt>
<trkpt lat="46.0585750" lon="10.4881220">
	<ele>2528.00</ele>
	<time>2023-08-06T09:31:41.000Z</time>
</trkpt>
<trkpt lat="46.0585750" lon="10.4881220">
	<ele>2528.00</ele>
	<time>2023-08-06T09:31:42.000Z</time>
</trkpt>
<trkpt lat="46.0585750" lon="10.4881220">
	<ele>2528.00</ele>
	<time>2023-08-06T09:31:43.000Z</time>
</trkpt>
<trkpt lat="46.0585750" lon="10.4881220">
	<ele>2528.00</ele>
	<time>2023-08-06T09:31:44.000Z</time>
</trkpt>
<trkpt lat="46.0585750" lon="10.4881220">
	<ele>2528.00</ele>
	<time>2023-08-06T09:31:45.000Z</time>
</trkpt>
<trkpt lat="46.0585750" lon="10.4881220">
	<ele>2528.00</ele>
	<time>2023-08-06T09:31:46.000Z</time>
</trkpt>
<trkpt lat="46.0585750" lon="10.4881220">
	<ele>2527.80</ele>
	<time>2023-08-06T09:31:47.000Z</time>
</trkpt>
<trkpt lat="46.0585750" lon="10.4881220">
	<ele>2527.80</ele>
	<time>2023-08-06T09:31:48.000Z</time>
</trkpt>
<trkpt lat="46.0585750" lon="10.4881220">
	<ele>2527.60</ele>
	<time>2023-08-06T09:31:49.000Z</time>
</trkpt>
<trkpt lat="46.0585750" lon="10.4881220">
	<ele>2527.60</ele>
	<time>2023-08-06T09:31:50.000Z</time>
</trkpt>
<trkpt lat="46.0585750" lon="10.4881220">
	<ele>2527.40</ele>
	<time>2023-08-06T09:31:51.000Z</time>
</trkpt>
<trkpt lat="46.0585740" lon="10.4881220">
	<ele>2527.40</ele>
	<time>2023-08-06T09:31:52.000Z</time>
</trkpt>
<trkpt lat="46.0585730" lon="10.4881220">
	<ele>2527.40</ele>
	<time>2023-08-06T09:31:53.000Z</time>
</trkpt>
<trkpt lat="46.0585720" lon="10.4881220">
	<ele>2527.40</ele>
	<time>2023-08-06T09:31:54.000Z</time>
</trkpt>
<trkpt lat="46.0585720" lon="10.4881220">
	<ele>2527.40</ele>
	<time>2023-08-06T09:31:55.000Z</time>
</trkpt>
<trkpt lat="46.0585710" lon="10.4881220">
	<ele>2527.40</ele>
	<time>2023-08-06T09:31:56.000Z</time>
</trkpt>
<trkpt lat="46.0585690" lon="10.4881210">
	<ele>2527.40</ele>
	<time>2023-08-06T09:31:57.000Z</time>
</trkpt>
<trkpt lat="46.0585670" lon="10.4881210">
	<ele>2527.40</ele>
	<time>2023-08-06T09:31:58.000Z</time>
</trkpt>
<trkpt lat="46.0585660" lon="10.4881200">
	<ele>2527.20</ele>
	<time>2023-08-06T09:31:59.000Z</time>
</trkpt>
<trkpt lat="46.0585640" lon="10.4881200">
	<ele>2527.00</ele>
	<time>2023-08-06T09:32:00.000Z</time>
</trkpt>
<trkpt lat="46.0585640" lon="10.4881200">
	<ele>2526.80</ele>
	<time>2023-08-06T09:32:01.000Z</time>
</trkpt>
<trkpt lat="46.0585640" lon="10.4881200">
	<ele>2526.60</ele>
	<time>2023-08-06T09:32:02.000Z</time>
</trkpt>
<trkpt lat="46.0585640" lon="10.4881180">
	<ele>2526.60</ele>
	<time>2023-08-06T09:32:03.000Z</time>
</trkpt>
<trkpt lat="46.0585640" lon="10.4881180">
	<ele>2526.60</ele>
	<time>2023-08-06T09:32:04.000Z</time>
</trkpt>
<trkpt lat="46.0585640" lon="10.4881180">
	<ele>2526.40</ele>
	<time>2023-08-06T09:32:05.000Z</time>
</trkpt>
<trkpt lat="46.0585640" lon="10.4881170">
	<ele>2526.40</ele>
	<time>2023-08-06T09:32:06.000Z</time>
</trkpt>
<trkpt lat="46.0585640" lon="10.4881170">
	<ele>2526.20</ele>
	<time>2023-08-06T09:32:07.000Z</time>
</trkpt>
<trkpt lat="46.0585640" lon="10.4881170">
	<ele>2526.00</ele>
	<time>2023-08-06T09:32:08.000Z</time>
</trkpt>
<trkpt lat="46.0585640" lon="10.4881170">
	<ele>2525.80</ele>
	<time>2023-08-06T09:32:09.000Z</time>
</trkpt>
<trkpt lat="46.0585640" lon="10.4881170">
	<ele>2525.60</ele>
	<time>2023-08-06T09:32:10.000Z</time>
</trkpt>
<trkpt lat="46.0585640" lon="10.4881170">
	<ele>2525.40</ele>
	<time>2023-08-06T09:32:11.000Z</time>
</trkpt>
<trkpt lat="46.0585640" lon="10.4881170">
	<ele>2525.20</ele>
	<time>2023-08-06T09:32:12.000Z</time>
</trkpt>
<trkpt lat="46.0585640" lon="10.4881170">
	<ele>2525.00</ele>
	<time>2023-08-06T09:32:13.000Z</time>
</trkpt>
<trkpt lat="46.0585640" lon="10.4881170">
	<ele>2525.00</ele>
	<time>2023-08-06T09:32:14.000Z</time>
</trkpt>
<trkpt lat="46.0585680" lon="10.4881170">
	<ele>2524.80</ele>
	<time>2023-08-06T09:32:15.000Z</time>
</trkpt>
<trkpt lat="46.0585710" lon="10.4881170">
	<ele>2524.60</ele>
	<time>2023-08-06T09:32:16.000Z</time>
</trkpt>
<trkpt lat="46.0585750" lon="10.4881170">
	<ele>2524.60</ele>
	<time>2023-08-06T09:32:17.000Z</time>
</trkpt>
<trkpt lat="46.0585790" lon="10.4881180">
	<ele>2524.40</ele>
	<time>2023-08-06T09:32:18.000Z</time>
</trkpt>
<trkpt lat="46.0585830" lon="10.4881190">
	<ele>2524.40</ele>
	<time>2023-08-06T09:32:19.000Z</time>
</trkpt>
<trkpt lat="46.0585860" lon="10.4881200">
	<ele>2524.20</ele>
	<time>2023-08-06T09:32:20.000Z</time>
</trkpt>
<trkpt lat="46.0585920" lon="10.4881200">
	<ele>2523.80</ele>
	<time>2023-08-06T09:32:21.000Z</time>
</trkpt>
<trkpt lat="46.0585970" lon="10.4881200">
	<ele>2523.60</ele>
	<time>2023-08-06T09:32:22.000Z</time>
</trkpt>
<trkpt lat="46.0586010" lon="10.4881200">
	<ele>2523.40</ele>
	<time>2023-08-06T09:32:23.000Z</time>
</trkpt>
<trkpt lat="46.0586040" lon="10.4881200">
	<ele>2523.20</ele>
	<time>2023-08-06T09:32:24.000Z</time>
</trkpt>
<trkpt lat="46.0586090" lon="10.4881250">
	<ele>2523.00</ele>
	<time>2023-08-06T09:32:25.000Z</time>
</trkpt>
<trkpt lat="46.0586150" lon="10.4881340">
	<ele>2522.60</ele>
	<time>2023-08-06T09:32:26.000Z</time>
</trkpt>
<trkpt lat="46.0586190" lon="10.4881370">
	<ele>2522.40</ele>
	<time>2023-08-06T09:32:27.000Z</time>
</trkpt>
<trkpt lat="46.0586220" lon="10.4881380">
	<ele>2522.20</ele>
	<time>2023-08-06T09:32:28.000Z</time>
</trkpt>
<trkpt lat="46.0586260" lon="10.4881390">
	<ele>2522.00</ele>
	<time>2023-08-06T09:32:29.000Z</time>
</trkpt>
<trkpt lat="46.0586290" lon="10.4881400">
	<ele>2521.60</ele>
	<time>2023-08-06T09:32:30.000Z</time>
</trkpt>
<trkpt lat="46.0586320" lon="10.4881410">
	<ele>2521.40</ele>
	<time>2023-08-06T09:32:31.000Z</time>
</trkpt>
<trkpt lat="46.0586380" lon="10.4881430">
	<ele>2521.40</ele>
	<time>2023-08-06T09:32:32.000Z</time>
</trkpt>
<trkpt lat="46.0586450" lon="10.4881470">
	<ele>2521.20</ele>
	<time>2023-08-06T09:32:33.000Z</time>
</trkpt>
<trkpt lat="46.0586520" lon="10.4881480">
	<ele>2521.20</ele>
	<time>2023-08-06T09:32:34.000Z</time>
</trkpt>
<trkpt lat="46.0586590" lon="10.4881460">
	<ele>2520.80</ele>
	<time>2023-08-06T09:32:35.000Z</time>
</trkpt>
<trkpt lat="46.0586690" lon="10.4881480">
	<ele>2520.60</ele>
	<time>2023-08-06T09:32:36.000Z</time>
</trkpt>
<trkpt lat="46.0586760" lon="10.4881490">
	<ele>2520.20</ele>
	<time>2023-08-06T09:32:37.000Z</time>
</trkpt>
<trkpt lat="46.0586860" lon="10.4881540">
	<ele>2520.20</ele>
	<time>2023-08-06T09:32:38.000Z</time>
</trkpt>
<trkpt lat="46.0586960" lon="10.4881550">
	<ele>2520.00</ele>
	<time>2023-08-06T09:32:39.000Z</time>
</trkpt>
<trkpt lat="46.0587060" lon="10.4881550">
	<ele>2519.80</ele>
	<time>2023-08-06T09:32:40.000Z</time>
</trkpt>
<trkpt lat="46.0587150" lon="10.4881570">
	<ele>2519.80</ele>
	<time>2023-08-06T09:32:41.000Z</time>
</trkpt>
<trkpt lat="46.0587170" lon="10.4881620">
	<ele>2519.80</ele>
	<time>2023-08-06T09:32:42.000Z</time>
</trkpt>
<trkpt lat="46.0587200" lon="10.4881630">
	<ele>2519.40</ele>
	<time>2023-08-06T09:32:43.000Z</time>
</trkpt>
<trkpt lat="46.0587230" lon="10.4881650">
	<ele>2519.40</ele>
	<time>2023-08-06T09:32:44.000Z</time>
</trkpt>
<trkpt lat="46.0587270" lon="10.4881660">
	<ele>2519.20</ele>
	<time>2023-08-06T09:32:45.000Z</time>
</trkpt>
<trkpt lat="46.0587280" lon="10.4881710">
	<ele>2519.20</ele>
	<time>2023-08-06T09:32:46.000Z</time>
</trkpt>
<trkpt lat="46.0587300" lon="10.4881730">
	<ele>2519.20</ele>
	<time>2023-08-06T09:32:47.000Z</time>
</trkpt>
<trkpt lat="46.0587340" lon="10.4881700">
	<ele>2519.20</ele>
	<time>2023-08-06T09:32:48.000Z</time>
</trkpt>
<trkpt lat="46.0587380" lon="10.4881710">
	<ele>2518.60</ele>
	<time>2023-08-06T09:32:49.000Z</time>
</trkpt>
<trkpt lat="46.0587450" lon="10.4881740">
	<ele>2518.20</ele>
	<time>2023-08-06T09:32:50.000Z</time>
</trkpt>
<trkpt lat="46.0587480" lon="10.4881770">
	<ele>2518.00</ele>
	<time>2023-08-06T09:32:51.000Z</time>
</trkpt>
<trkpt lat="46.0587510" lon="10.4881810">
	<ele>2517.80</ele>
	<time>2023-08-06T09:32:52.000Z</time>
</trkpt>
<trkpt lat="46.0587550" lon="10.4881820">
	<ele>2517.60</ele>
	<time>2023-08-06T09:32:53.000Z</time>
</trkpt>
<trkpt lat="46.0587580" lon="10.4881820">
	<ele>2517.40</ele>
	<time>2023-08-06T09:32:54.000Z</time>
</trkpt>
<trkpt lat="46.0587610" lon="10.4881840">
	<ele>2517.40</ele>
	<time>2023-08-06T09:32:55.000Z</time>
</trkpt>
<trkpt lat="46.0587670" lon="10.4881800">
	<ele>2517.20</ele>
	<time>2023-08-06T09:32:56.000Z</time>
</trkpt>
<trkpt lat="46.0587710" lon="10.4881790">
	<ele>2517.20</ele>
	<time>2023-08-06T09:32:57.000Z</time>
</trkpt>
<trkpt lat="46.0587730" lon="10.4881830">
	<ele>2517.00</ele>
	<time>2023-08-06T09:32:58.000Z</time>
</trkpt>
<trkpt lat="46.0587790" lon="10.4881820">
	<ele>2516.80</ele>
	<time>2023-08-06T09:32:59.000Z</time>
</trkpt>
<trkpt lat="46.0587820" lon="10.4881810">
	<ele>2516.60</ele>
	<time>2023-08-06T09:33:00.000Z</time>
</trkpt>
<trkpt lat="46.0587860" lon="10.4881820">
	<ele>2516.40</ele>
	<time>2023-08-06T09:33:01.000Z</time>
</trkpt>
<trkpt lat="46.0587910" lon="10.4881850">
	<ele>2516.20</ele>
	<time>2023-08-06T09:33:02.000Z</time>
</trkpt>
<trkpt lat="46.0587950" lon="10.4881880">
	<ele>2516.00</ele>
	<time>2023-08-06T09:33:03.000Z</time>
</trkpt>
<trkpt lat="46.0587970" lon="10.4881920">
	<ele>2516.00</ele>
	<time>2023-08-06T09:33:04.000Z</time>
</trkpt>
<trkpt lat="46.0587960" lon="10.4881970">
	<ele>2516.00</ele>
	<time>2023-08-06T09:33:05.000Z</time>
</trkpt>
<trkpt lat="46.0587950" lon="10.4882000">
	<ele>2516.00</ele>
	<time>2023-08-06T09:33:06.000Z</time>
</trkpt>
<trkpt lat="46.0587930" lon="10.4882000">
	<ele>2516.00</ele>
	<time>2023-08-06T09:33:07.000Z</time>
</trkpt>
<trkpt lat="46.0587910" lon="10.4882030">
	<ele>2516.00</ele>
	<time>2023-08-06T09:33:08.000Z</time>
</trkpt>
<trkpt lat="46.0587890" lon="10.4882030">
	<ele>2515.80</ele>
	<time>2023-08-06T09:33:09.000Z</time>
</trkpt>
<trkpt lat="46.0587880" lon="10.4882030">
	<ele>2515.80</ele>
	<time>2023-08-06T09:33:10.000Z</time>
</trkpt>
<trkpt lat="46.0587890" lon="10.4882060">
	<ele>2515.80</ele>
	<time>2023-08-06T09:33:11.000Z</time>
</trkpt>
<trkpt lat="46.0587910" lon="10.4882080">
	<ele>2515.60</ele>
	<time>2023-08-06T09:33:12.000Z</time>
</trkpt>
<trkpt lat="46.0587910" lon="10.4882090">
	<ele>2515.40</ele>
	<time>2023-08-06T09:33:13.000Z</time>
</trkpt>
<trkpt lat="46.0587910" lon="10.4882080">
	<ele>2515.40</ele>
	<time>2023-08-06T09:33:14.000Z</time>
</trkpt>
<trkpt lat="46.0587900" lon="10.4882100">
	<ele>2515.40</ele>
	<time>2023-08-06T09:33:15.000Z</time>
</trkpt>
<trkpt lat="46.0587900" lon="10.4882130">
	<ele>2515.20</ele>
	<time>2023-08-06T09:33:16.000Z</time>
</trkpt>
<trkpt lat="46.0587900" lon="10.4882140">
	<ele>2515.20</ele>
	<time>2023-08-06T09:33:17.000Z</time>
</trkpt>
<trkpt lat="46.0587940" lon="10.4882100">
	<ele>2515.20</ele>
	<time>2023-08-06T09:33:18.000Z</time>
</trkpt>
<trkpt lat="46.0587970" lon="10.4882110">
	<ele>2514.80</ele>
	<time>2023-08-06T09:33:19.000Z</time>
</trkpt>
<trkpt lat="46.0588000" lon="10.4882130">
	<ele>2514.60</ele>
	<time>2023-08-06T09:33:20.000Z</time>
</trkpt>
<trkpt lat="46.0588030" lon="10.4882180">
	<ele>2514.20</ele>
	<time>2023-08-06T09:33:21.000Z</time>
</trkpt>
<trkpt lat="46.0588110" lon="10.4882200">
	<ele>2514.00</ele>
	<time>2023-08-06T09:33:22.000Z</time>
</trkpt>
<trkpt lat="46.0588220" lon="10.4882200">
	<ele>2513.80</ele>
	<time>2023-08-06T09:33:23.000Z</time>
</trkpt>
<trkpt lat="46.0588290" lon="10.4882220">
	<ele>2513.80</ele>
	<time>2023-08-06T09:33:24.000Z</time>
</trkpt>
<trkpt lat="46.0588380" lon="10.4882200">
	<ele>2513.80</ele>
	<time>2023-08-06T09:33:25.000Z</time>
</trkpt>
<trkpt lat="46.0588480" lon="10.4882170">
	<ele>2513.80</ele>
	<time>2023-08-06T09:33:26.000Z</time>
</trkpt>
<trkpt lat="46.0588570" lon="10.4882120">
	<ele>2513.80</ele>
	<time>2023-08-06T09:33:27.000Z</time>
</trkpt>
<trkpt lat="46.0588660" lon="10.4882140">
	<ele>2513.80</ele>
	<time>2023-08-06T09:33:28.000Z</time>
</trkpt>
<trkpt lat="46.0588750" lon="10.4882140">
	<ele>2514.00</ele>
	<time>2023-08-06T09:33:29.000Z</time>
</trkpt>
<trkpt lat="46.0588810" lon="10.4882150">
	<ele>2514.20</ele>
	<time>2023-08-06T09:33:30.000Z</time>
</trkpt>
<trkpt lat="46.0588860" lon="10.4882170">
	<ele>2514.40</ele>
	<time>2023-08-06T09:33:31.000Z</time>
</trkpt>
<trkpt lat="46.0588930" lon="10.4882200">
	<ele>2514.60</ele>
	<time>2023-08-06T09:33:32.000Z</time>
</trkpt>
<trkpt lat="46.0588990" lon="10.4882200">
	<ele>2514.80</ele>
	<time>2023-08-06T09:33:33.000Z</time>
</trkpt>
<trkpt lat="46.0589020" lon="10.4882210">
	<ele>2515.00</ele>
	<time>2023-08-06T09:33:34.000Z</time>
</trkpt>
<trkpt lat="46.0589050" lon="10.4882220">
	<ele>2515.00</ele>
	<time>2023-08-06T09:33:35.000Z</time>
</trkpt>
<trkpt lat="46.0589080" lon="10.4882220">
	<ele>2514.80</ele>
	<time>2023-08-06T09:33:36.000Z</time>
</trkpt>
<trkpt lat="46.0589080" lon="10.4882240">
	<ele>2514.80</ele>
	<time>2023-08-06T09:33:37.000Z</time>
</trkpt>
<trkpt lat="46.0589080" lon="10.4882270">
	<ele>2514.60</ele>
	<time>2023-08-06T09:33:38.000Z</time>
</trkpt>
<trkpt lat="46.0589120" lon="10.4882270">
	<ele>2514.20</ele>
	<time>2023-08-06T09:33:39.000Z</time>
</trkpt>
<trkpt lat="46.0589140" lon="10.4882300">
	<ele>2513.80</ele>
	<time>2023-08-06T09:33:40.000Z</time>
</trkpt>
<trkpt lat="46.0589180" lon="10.4882310">
	<ele>2513.60</ele>
	<time>2023-08-06T09:33:41.000Z</time>
</trkpt>
<trkpt lat="46.0589210" lon="10.4882330">
	<ele>2513.40</ele>
	<time>2023-08-06T09:33:42.000Z</time>
</trkpt>
<trkpt lat="46.0589240" lon="10.4882350">
	<ele>2513.20</ele>
	<time>2023-08-06T09:33:43.000Z</time>
</trkpt>
<trkpt lat="46.0589260" lon="10.4882370">
	<ele>2513.20</ele>
	<time>2023-08-06T09:33:44.000Z</time>
</trkpt>
<trkpt lat="46.0589290" lon="10.4882390">
	<ele>2513.20</ele>
	<time>2023-08-06T09:33:45.000Z</time>
</trkpt>
<trkpt lat="46.0589350" lon="10.4882380">
	<ele>2513.00</ele>
	<time>2023-08-06T09:33:46.000Z</time>
</trkpt>
<trkpt lat="46.0589410" lon="10.4882410">
	<ele>2512.60</ele>
	<time>2023-08-06T09:33:47.000Z</time>
</trkpt>
<trkpt lat="46.0589480" lon="10.4882390">
	<ele>2512.40</ele>
	<time>2023-08-06T09:33:48.000Z</time>
</trkpt>
<trkpt lat="46.0589520" lon="10.4882410">
	<ele>2512.20</ele>
	<time>2023-08-06T09:33:49.000Z</time>
</trkpt>
<trkpt lat="46.0589590" lon="10.4882460">
	<ele>2512.00</ele>
	<time>2023-08-06T09:33:50.000Z</time>
</trkpt>
<trkpt lat="46.0589660" lon="10.4882450">
	<ele>2511.80</ele>
	<time>2023-08-06T09:33:51.000Z</time>
</trkpt>
<trkpt lat="46.0589700" lon="10.4882350">
	<ele>2511.60</ele>
	<time>2023-08-06T09:33:52.000Z</time>
</trkpt>
<trkpt lat="46.0589760" lon="10.4882270">
	<ele>2511.60</ele>
	<time>2023-08-06T09:33:53.000Z</time>
</trkpt>
<trkpt lat="46.0589830" lon="10.4882210">
	<ele>2511.40</ele>
	<time>2023-08-06T09:33:54.000Z</time>
</trkpt>
<trkpt lat="46.0589910" lon="10.4882140">
	<ele>2511.40</ele>
	<time>2023-08-06T09:33:55.000Z</time>
</trkpt>
<trkpt lat="46.0590000" lon="10.4882110">
	<ele>2511.20</ele>
	<time>2023-08-06T09:33:56.000Z</time>
</trkpt>
<trkpt lat="46.0590090" lon="10.4882050">
	<ele>2511.20</ele>
	<time>2023-08-06T09:33:57.000Z</time>
</trkpt>
<trkpt lat="46.0590170" lon="10.4882030">
	<ele>2511.20</ele>
	<time>2023-08-06T09:33:58.000Z</time>
</trkpt>
<trkpt lat="46.0590220" lon="10.4882030">
	<ele>2511.00</ele>
	<time>2023-08-06T09:33:59.000Z</time>
</trkpt>
<trkpt lat="46.0590310" lon="10.4881990">
	<ele>2511.00</ele>
	<time>2023-08-06T09:34:00.000Z</time>
</trkpt>
<trkpt lat="46.0590400" lon="10.4881960">
	<ele>2511.00</ele>
	<time>2023-08-06T09:34:01.000Z</time>
</trkpt>
<trkpt lat="46.0590480" lon="10.4881930">
	<ele>2511.00</ele>
	<time>2023-08-06T09:34:02.000Z</time>
</trkpt>
<trkpt lat="46.0590560" lon="10.4881870">
	<ele>2511.20</ele>
	<time>2023-08-06T09:34:03.000Z</time>
</trkpt>
<trkpt lat="46.0590610" lon="10.4881800">
	<ele>2511.40</ele>
	<time>2023-08-06T09:34:04.000Z</time>
</trkpt>
<trkpt lat="46.0590640" lon="10.4881780">
	<ele>2511.40</ele>
	<time>2023-08-06T09:34:05.000Z</time>
</trkpt>
<trkpt lat="46.0590660" lon="10.4881730">
	<ele>2511.40</ele>
	<time>2023-08-06T09:34:06.000Z</time>
</trkpt>
<trkpt lat="46.0590730" lon="10.4881720">
	<ele>2511.40</ele>
	<time>2023-08-06T09:34:07.000Z</time>
</trkpt>
<trkpt lat="46.0590760" lon="10.4881720">
	<ele>2511.60</ele>
	<time>2023-08-06T09:34:08.000Z</time>
</trkpt>
<trkpt lat="46.0590780" lon="10.4881790">
	<ele>2511.60</ele>
	<time>2023-08-06T09:34:09.000Z</time>
</trkpt>
<trkpt lat="46.0590800" lon="10.4881820">
	<ele>2511.40</ele>
	<time>2023-08-06T09:34:10.000Z</time>
</trkpt>
<trkpt lat="46.0590820" lon="10.4881840">
	<ele>2511.40</ele>
	<time>2023-08-06T09:34:11.000Z</time>
</trkpt>
<trkpt lat="46.0590850" lon="10.4881940">
	<ele>2511.40</ele>
	<time>2023-08-06T09:34:12.000Z</time>
</trkpt>
<trkpt lat="46.0590890" lon="10.4882000">
	<ele>2511.40</ele>
	<time>2023-08-06T09:34:13.000Z</time>
</trkpt>
<trkpt lat="46.0590950" lon="10.4882010">
	<ele>2511.00</ele>
	<time>2023-08-06T09:34:14.000Z</time>
</trkpt>
<trkpt lat="46.0591000" lon="10.4881980">
	<ele>2510.80</ele>
	<time>2023-08-06T09:34:15.000Z</time>
</trkpt>
<trkpt lat="46.0591070" lon="10.4881980">
	<ele>2510.60</ele>
	<time>2023-08-06T09:34:16.000Z</time>
</trkpt>
<trkpt lat="46.0591160" lon="10.4881940">
	<ele>2510.40</ele>
	<time>2023-08-06T09:34:17.000Z</time>
</trkpt>
<trkpt lat="46.0591230" lon="10.4881910">
	<ele>2510.20</ele>
	<time>2023-08-06T09:34:18.000Z</time>
</trkpt>
<trkpt lat="46.0591310" lon="10.4881910">
	<ele>2510.20</ele>
	<time>2023-08-06T09:34:19.000Z</time>
</trkpt>
<trkpt lat="46.0591370" lon="10.4881960">
	<ele>2510.20</ele>
	<time>2023-08-06T09:34:20.000Z</time>
</trkpt>
<trkpt lat="46.0591420" lon="10.4882040">
	<ele>2510.20</ele>
	<time>2023-08-06T09:34:21.000Z</time>
</trkpt>
<trkpt lat="46.0591480" lon="10.4882090">
	<ele>2510.20</ele>
	<time>2023-08-06T09:34:22.000Z</time>
</trkpt>
<trkpt lat="46.0591580" lon="10.4882130">
	<ele>2510.00</ele>
	<time>2023-08-06T09:34:23.000Z</time>
</trkpt>
<trkpt lat="46.0591590" lon="10.4882200">
	<ele>2510.00</ele>
	<time>2023-08-06T09:34:24.000Z</time>
</trkpt>
<trkpt lat="46.0591650" lon="10.4882200">
	<ele>2510.00</ele>
	<time>2023-08-06T09:34:25.000Z</time>
</trkpt>
<trkpt lat="46.0591720" lon="10.4882220">
	<ele>2509.80</ele>
	<time>2023-08-06T09:34:26.000Z</time>
</trkpt>
<trkpt lat="46.0591760" lon="10.4882280">
	<ele>2509.80</ele>
	<time>2023-08-06T09:34:27.000Z</time>
</trkpt>
<trkpt lat="46.0591870" lon="10.4882340">
	<ele>2509.60</ele>
	<time>2023-08-06T09:34:28.000Z</time>
</trkpt>
<trkpt lat="46.0591970" lon="10.4882390">
	<ele>2509.40</ele>
	<time>2023-08-06T09:34:29.000Z</time>
</trkpt>
<trkpt lat="46.0592030" lon="10.4882400">
	<ele>2509.20</ele>
	<time>2023-08-06T09:34:30.000Z</time>
</trkpt>
<trkpt lat="46.0592080" lon="10.4882400">
	<ele>2509.00</ele>
	<time>2023-08-06T09:34:31.000Z</time>
</trkpt>
<trkpt lat="46.0592250" lon="10.4882450">
	<ele>2508.80</ele>
	<time>2023-08-06T09:34:32.000Z</time>
</trkpt>
<trkpt lat="46.0592390" lon="10.4882600">
	<ele>2508.60</ele>
	<time>2023-08-06T09:34:33.000Z</time>
</trkpt>
<trkpt lat="46.0592440" lon="10.4882690">
	<ele>2508.40</ele>
	<time>2023-08-06T09:34:34.000Z</time>
</trkpt>
<trkpt lat="46.0592520" lon="10.4882750">
	<ele>2508.40</ele>
	<time>2023-08-06T09:34:35.000Z</time>
</trkpt>
<trkpt lat="46.0592660" lon="10.4882790">
	<ele>2508.20</ele>
	<time>2023-08-06T09:34:36.000Z</time>
</trkpt>
<trkpt lat="46.0592740" lon="10.4882820">
	<ele>2508.20</ele>
	<time>2023-08-06T09:34:37.000Z</time>
</trkpt>
<trkpt lat="46.0592810" lon="10.4882850">
	<ele>2508.00</ele>
	<time>2023-08-06T09:34:38.000Z</time>
</trkpt>
<trkpt lat="46.0592900" lon="10.4882880">
	<ele>2508.00</ele>
	<time>2023-08-06T09:34:39.000Z</time>
</trkpt>
<trkpt lat="46.0592990" lon="10.4882870">
	<ele>2508.00</ele>
	<time>2023-08-06T09:34:40.000Z</time>
</trkpt>
<trkpt lat="46.0593060" lon="10.4882810">
	<ele>2508.00</ele>
	<time>2023-08-06T09:34:41.000Z</time>
</trkpt>
<trkpt lat="46.0593140" lon="10.4882750">
	<ele>2507.80</ele>
	<time>2023-08-06T09:34:42.000Z</time>
</trkpt>
<trkpt lat="46.0593210" lon="10.4882720">
	<ele>2507.80</ele>
	<time>2023-08-06T09:34:43.000Z</time>
</trkpt>
<trkpt lat="46.0593280" lon="10.4882700">
	<ele>2507.80</ele>
	<time>2023-08-06T09:34:44.000Z</time>
</trkpt>
<trkpt lat="46.0593340" lon="10.4882700">
	<ele>2507.80</ele>
	<time>2023-08-06T09:34:45.000Z</time>
</trkpt>
<trkpt lat="46.0593380" lon="10.4882710">
	<ele>2507.80</ele>
	<time>2023-08-06T09:34:46.000Z</time>
</trkpt>
<trkpt lat="46.0593400" lon="10.4882700">
	<ele>2507.80</ele>
	<time>2023-08-06T09:34:47.000Z</time>
</trkpt>
<trkpt lat="46.0593460" lon="10.4882690">
	<ele>2507.80</ele>
	<time>2023-08-06T09:34:48.000Z</time>
</trkpt>
<trkpt lat="46.0593520" lon="10.4882680">
	<ele>2507.80</ele>
	<time>2023-08-06T09:34:49.000Z</time>
</trkpt>
<trkpt lat="46.0593590" lon="10.4882740">
	<ele>2507.80</ele>
	<time>2023-08-06T09:34:50.000Z</time>
</trkpt>
<trkpt lat="46.0593700" lon="10.4882770">
	<ele>2507.60</ele>
	<time>2023-08-06T09:34:51.000Z</time>
</trkpt>
<trkpt lat="46.0593790" lon="10.4882830">
	<ele>2507.60</ele>
	<time>2023-08-06T09:34:52.000Z</time>
</trkpt>
<trkpt lat="46.0593860" lon="10.4882910">
	<ele>2507.40</ele>
	<time>2023-08-06T09:34:53.000Z</time>
</trkpt>
<trkpt lat="46.0593930" lon="10.4882980">
	<ele>2507.40</ele>
	<time>2023-08-06T09:34:54.000Z</time>
</trkpt>
<trkpt lat="46.0593990" lon="10.4883050">
	<ele>2507.20</ele>
	<time>2023-08-06T09:34:55.000Z</time>
</trkpt>
<trkpt lat="46.0594060" lon="10.4883090">
	<ele>2507.00</ele>
	<time>2023-08-06T09:34:56.000Z</time>
</trkpt>
<trkpt lat="46.0594120" lon="10.4883090">
	<ele>2506.60</ele>
	<time>2023-08-06T09:34:57.000Z</time>
</trkpt>
<trkpt lat="46.0594200" lon="10.4883100">
	<ele>2506.60</ele>
	<time>2023-08-06T09:34:58.000Z</time>
</trkpt>
<trkpt lat="46.0594280" lon="10.4883110">
	<ele>2506.40</ele>
	<time>2023-08-06T09:34:59.000Z</time>
</trkpt>
<trkpt lat="46.0594350" lon="10.4883150">
	<ele>2506.40</ele>
	<time>2023-08-06T09:35:00.000Z</time>
</trkpt>
<trkpt lat="46.0594420" lon="10.4883230">
	<ele>2506.40</ele>
	<time>2023-08-06T09:35:01.000Z</time>
</trkpt>
<trkpt lat="46.0594520" lon="10.4883360">
	<ele>2506.40</ele>
	<time>2023-08-06T09:35:02.000Z</time>
</trkpt>
<trkpt lat="46.0594580" lon="10.4883500">
	<ele>2506.40</ele>
	<time>2023-08-06T09:35:03.000Z</time>
</trkpt>
<trkpt lat="46.0594670" lon="10.4883640">
	<ele>2506.40</ele>
	<time>2023-08-06T09:35:04.000Z</time>
</trkpt>
<trkpt lat="46.0594760" lon="10.4883770">
	<ele>2506.20</ele>
	<time>2023-08-06T09:35:05.000Z</time>
</trkpt>
<trkpt lat="46.0594850" lon="10.4883860">
	<ele>2506.20</ele>
	<time>2023-08-06T09:35:06.000Z</time>
</trkpt>
<trkpt lat="46.0594920" lon="10.4883920">
	<ele>2506.20</ele>
	<time>2023-08-06T09:35:07.000Z</time>
</trkpt>
<trkpt lat="46.0595000" lon="10.4883960">
	<ele>2506.20</ele>
	<time>2023-08-06T09:35:08.000Z</time>
</trkpt>
<trkpt lat="46.0595050" lon="10.4883950">
	<ele>2506.40</ele>
	<time>2023-08-06T09:35:09.000Z</time>
</trkpt>
<trkpt lat="46.0595090" lon="10.4883930">
	<ele>2506.60</ele>
	<time>2023-08-06T09:35:10.000Z</time>
</trkpt>
<trkpt lat="46.0595150" lon="10.4883960">
	<ele>2506.80</ele>
	<time>2023-08-06T09:35:11.000Z</time>
</trkpt>
<trkpt lat="46.0595220" lon="10.4883970">
	<ele>2506.80</ele>
	<time>2023-08-06T09:35:12.000Z</time>
</trkpt>
<trkpt lat="46.0595280" lon="10.4884000">
	<ele>2506.80</ele>
	<time>2023-08-06T09:35:13.000Z</time>
</trkpt>
<trkpt lat="46.0595340" lon="10.4884040">
	<ele>2507.00</ele>
	<time>2023-08-06T09:35:14.000Z</time>
</trkpt>
<trkpt lat="46.0595420" lon="10.4884030">
	<ele>2507.00</ele>
	<time>2023-08-06T09:35:15.000Z</time>
</trkpt>
<trkpt lat="46.0595530" lon="10.4884050">
	<ele>2507.00</ele>
	<time>2023-08-06T09:35:16.000Z</time>
</trkpt>
<trkpt lat="46.0595610" lon="10.4884110">
	<ele>2507.20</ele>
	<time>2023-08-06T09:35:17.000Z</time>
</trkpt>
<trkpt lat="46.0595670" lon="10.4884170">
	<ele>2507.20</ele>
	<time>2023-08-06T09:35:18.000Z</time>
</trkpt>
<trkpt lat="46.0595730" lon="10.4884220">
	<ele>2507.20</ele>
	<time>2023-08-06T09:35:19.000Z</time>
</trkpt>
<trkpt lat="46.0595850" lon="10.4884250">
	<ele>2507.20</ele>
	<time>2023-08-06T09:35:20.000Z</time>
</trkpt>
<trkpt lat="46.0595900" lon="10.4884250">
	<ele>2507.20</ele>
	<time>2023-08-06T09:35:21.000Z</time>
</trkpt>
<trkpt lat="46.0595950" lon="10.4884270">
	<ele>2507.20</ele>
	<time>2023-08-06T09:35:22.000Z</time>
</trkpt>
<trkpt lat="46.0596000" lon="10.4884340">
	<ele>2507.40</ele>
	<time>2023-08-06T09:35:23.000Z</time>
</trkpt>
<trkpt lat="46.0596070" lon="10.4884420">
	<ele>2507.40</ele>
	<time>2023-08-06T09:35:24.000Z</time>
</trkpt>
<trkpt lat="46.0596090" lon="10.4884470">
	<ele>2507.40</ele>
	<time>2023-08-06T09:35:25.000Z</time>
</trkpt>
<trkpt lat="46.0596130" lon="10.4884510">
	<ele>2507.40</ele>
	<time>2023-08-06T09:35:26.000Z</time>
</trkpt>
<trkpt lat="46.0596160" lon="10.4884550">
	<ele>2507.40</ele>
	<time>2023-08-06T09:35:27.000Z</time>
</trkpt>
<trkpt lat="46.0596220" lon="10.4884580">
	<ele>2507.40</ele>
	<time>2023-08-06T09:35:28.000Z</time>
</trkpt>
<trkpt lat="46.0596270" lon="10.4884610">
	<ele>2507.40</ele>
	<time>2023-08-06T09:35:29.000Z</time>
</trkpt>
<trkpt lat="46.0596290" lon="10.4884640">
	<ele>2507.40</ele>
	<time>2023-08-06T09:35:30.000Z</time>
</trkpt>
<trkpt lat="46.0596320" lon="10.4884680">
	<ele>2507.40</ele>
	<time>2023-08-06T09:35:31.000Z</time>
</trkpt>
<trkpt lat="46.0596380" lon="10.4884720">
	<ele>2507.40</ele>
	<time>2023-08-06T09:35:32.000Z</time>
</trkpt>
<trkpt lat="46.0596400" lon="10.4884760">
	<ele>2507.40</ele>
	<time>2023-08-06T09:35:33.000Z</time>
</trkpt>
<trkpt lat="46.0596390" lon="10.4884780">
	<ele>2507.40</ele>
	<time>2023-08-06T09:35:34.000Z</time>
</trkpt>
<trkpt lat="46.0596410" lon="10.4884800">
	<ele>2507.40</ele>
	<time>2023-08-06T09:35:35.000Z</time>
</trkpt>
<trkpt lat="46.0596420" lon="10.4884840">
	<ele>2507.40</ele>
	<time>2023-08-06T09:35:36.000Z</time>
</trkpt>
<trkpt lat="46.0596420" lon="10.4884880">
	<ele>2507.20</ele>
	<time>2023-08-06T09:35:37.000Z</time>
</trkpt>
<trkpt lat="46.0596440" lon="10.4884950">
	<ele>2507.20</ele>
	<time>2023-08-06T09:35:38.000Z</time>
</trkpt>
<trkpt lat="46.0596460" lon="10.4884990">
	<ele>2507.20</ele>
	<time>2023-08-06T09:35:39.000Z</time>
</trkpt>
<trkpt lat="46.0596460" lon="10.4885050">
	<ele>2507.20</ele>
	<time>2023-08-06T09:35:40.000Z</time>
</trkpt>
<trkpt lat="46.0596470" lon="10.4885100">
	<ele>2507.00</ele>
	<time>2023-08-06T09:35:41.000Z</time>
</trkpt>
<trkpt lat="46.0596490" lon="10.4885150">
	<ele>2506.80</ele>
	<time>2023-08-06T09:35:42.000Z</time>
</trkpt>
<trkpt lat="46.0596500" lon="10.4885220">
	<ele>2506.80</ele>
	<time>2023-08-06T09:35:43.000Z</time>
</trkpt>
<trkpt lat="46.0596500" lon="10.4885260">
	<ele>2506.60</ele>
	<time>2023-08-06T09:35:44.000Z</time>
</trkpt>
<trkpt lat="46.0596500" lon="10.4885290">
	<ele>2506.20</ele>
	<time>2023-08-06T09:35:45.000Z</time>
</trkpt>
<trkpt lat="46.0596530" lon="10.4885340">
	<ele>2506.00</ele>
	<time>2023-08-06T09:35:46.000Z</time>
</trkpt>
<trkpt lat="46.0596570" lon="10.4885420">
	<ele>2506.00</ele>
	<time>2023-08-06T09:35:47.000Z</time>
</trkpt>
<trkpt lat="46.0596590" lon="10.4885490">
	<ele>2505.80</ele>
	<time>2023-08-06T09:35:48.000Z</time>
</trkpt>
<trkpt lat="46.0596620" lon="10.4885540">
	<ele>2505.80</ele>
	<time>2023-08-06T09:35:49.000Z</time>
</trkpt>
<trkpt lat="46.0596630" lon="10.4885630">
	<ele>2505.60</ele>
	<time>2023-08-06T09:35:50.000Z</time>
</trkpt>
<trkpt lat="46.0596660" lon="10.4885690">
	<ele>2505.40</ele>
	<time>2023-08-06T09:35:51.000Z</time>
</trkpt>
<trkpt lat="46.0596680" lon="10.4885760">
	<ele>2505.40</ele>
	<time>2023-08-06T09:35:52.000Z</time>
</trkpt>
<trkpt lat="46.0596730" lon="10.4885750">
	<ele>2505.20</ele>
	<time>2023-08-06T09:35:53.000Z</time>
</trkpt>
<trkpt lat="46.0596770" lon="10.4885750">
	<ele>2505.00</ele>
	<time>2023-08-06T09:35:54.000Z</time>
</trkpt>
<trkpt lat="46.0596790" lon="10.4885750">
	<ele>2504.80</ele>
	<time>2023-08-06T09:35:55.000Z</time>
</trkpt>
<trkpt lat="46.0596820" lon="10.4885750">
	<ele>2504.80</ele>
	<time>2023-08-06T09:35:56.000Z</time>
</trkpt>
<trkpt lat="46.0596870" lon="10.4885800">
	<ele>2504.80</ele>
	<time>2023-08-06T09:35:57.000Z</time>
</trkpt>
<trkpt lat="46.0596920" lon="10.4885840">
	<ele>2504.80</ele>
	<time>2023-08-06T09:35:58.000Z</time>
</trkpt>
<trkpt lat="46.0596970" lon="10.4885850">
	<ele>2504.60</ele>
	<time>2023-08-06T09:35:59.000Z</time>
</trkpt>
<trkpt lat="46.0597020" lon="10.4885770">
	<ele>2504.20</ele>
	<time>2023-08-06T09:36:00.000Z</time>
</trkpt>
<trkpt lat="46.0597050" lon="10.4885780">
	<ele>2504.00</ele>
	<time>2023-08-06T09:36:01.000Z</time>
</trkpt>
<trkpt lat="46.0597100" lon="10.4885810">
	<ele>2503.80</ele>
	<time>2023-08-06T09:36:02.000Z</time>
</trkpt>
<trkpt lat="46.0597160" lon="10.4885840">
	<ele>2503.80</ele>
	<time>2023-08-06T09:36:03.000Z</time>
</trkpt>
<trkpt lat="46.0597220" lon="10.4885830">
	<ele>2503.40</ele>
	<time>2023-08-06T09:36:04.000Z</time>
</trkpt>
<trkpt lat="46.0597240" lon="10.4885840">
	<ele>2503.20</ele>
	<time>2023-08-06T09:36:05.000Z</time>
</trkpt>
<trkpt lat="46.0597280" lon="10.4885900">
	<ele>2503.20</ele>
	<time>2023-08-06T09:36:06.000Z</time>
</trkpt>
<trkpt lat="46.0597320" lon="10.4885990">
	<ele>2503.00</ele>
	<time>2023-08-06T09:36:07.000Z</time>
</trkpt>
<trkpt lat="46.0597350" lon="10.4886040">
	<ele>2502.80</ele>
	<time>2023-08-06T09:36:08.000Z</time>
</trkpt>
<trkpt lat="46.0597370" lon="10.4886060">
	<ele>2502.60</ele>
	<time>2023-08-06T09:36:09.000Z</time>
</trkpt>
<trkpt lat="46.0597380" lon="10.4886120">
	<ele>2502.60</ele>
	<time>2023-08-06T09:36:10.000Z</time>
</trkpt>
<trkpt lat="46.0597420" lon="10.4886170">
	<ele>2502.40</ele>
	<time>2023-08-06T09:36:11.000Z</time>
</trkpt>
<trkpt lat="46.0597460" lon="10.4886210">
	<ele>2502.00</ele>
	<time>2023-08-06T09:36:12.000Z</time>
</trkpt>
<trkpt lat="46.0597490" lon="10.4886250">
	<ele>2501.80</ele>
	<time>2023-08-06T09:36:13.000Z</time>
</trkpt>
<trkpt lat="46.0597520" lon="10.4886260">
	<ele>2501.40</ele>
	<time>2023-08-06T09:36:14.000Z</time>
</trkpt>
<trkpt lat="46.0597560" lon="10.4886310">
	<ele>2501.40</ele>
	<time>2023-08-06T09:36:15.000Z</time>
</trkpt>
<trkpt lat="46.0597590" lon="10.4886350">
	<ele>2501.00</ele>
	<time>2023-08-06T09:36:16.000Z</time>
</trkpt>
<trkpt lat="46.0597640" lon="10.4886360">
	<ele>2500.80</ele>
	<time>2023-08-06T09:36:17.000Z</time>
</trkpt>
<trkpt lat="46.0597680" lon="10.4886430">
	<ele>2500.80</ele>
	<time>2023-08-06T09:36:18.000Z</time>
</trkpt>
<trkpt lat="46.0597700" lon="10.4886480">
	<ele>2500.60</ele>
	<time>2023-08-06T09:36:19.000Z</time>
</trkpt>
<trkpt lat="46.0597740" lon="10.4886500">
	<ele>2500.60</ele>
	<time>2023-08-06T09:36:20.000Z</time>
</trkpt>
<trkpt lat="46.0597780" lon="10.4886530">
	<ele>2500.40</ele>
	<time>2023-08-06T09:36:21.000Z</time>
</trkpt>
<trkpt lat="46.0597810" lon="10.4886580">
	<ele>2500.20</ele>
	<time>2023-08-06T09:36:22.000Z</time>
</trkpt>
<trkpt lat="46.0597820" lon="10.4886630">
	<ele>2500.00</ele>
	<time>2023-08-06T09:36:23.000Z</time>
</trkpt>
<trkpt lat="46.0597840" lon="10.4886600">
	<ele>2499.80</ele>
	<time>2023-08-06T09:36:24.000Z</time>
</trkpt>
<trkpt lat="46.0597860" lon="10.4886610">
	<ele>2499.80</ele>
	<time>2023-08-06T09:36:25.000Z</time>
</trkpt>
<trkpt lat="46.0597880" lon="10.4886640">
	<ele>2499.40</ele>
	<time>2023-08-06T09:36:26.000Z</time>
</trkpt>
<trkpt lat="46.0597910" lon="10.4886680">
	<ele>2499.20</ele>
	<time>2023-08-06T09:36:27.000Z</time>
</trkpt>
<trkpt lat="46.0597960" lon="10.4886710">
	<ele>2499.00</ele>
	<time>2023-08-06T09:36:28.000Z</time>
</trkpt>
<trkpt lat="46.0597970" lon="10.4886620">
	<ele>2498.60</ele>
	<time>2023-08-06T09:36:29.000Z</time>
</trkpt>
<trkpt lat="46.0598060" lon="10.4886510">
	<ele>2498.40</ele>
	<time>2023-08-06T09:36:30.000Z</time>
</trkpt>
<trkpt lat="46.0598070" lon="10.4886420">
	<ele>2498.20</ele>
	<time>2023-08-06T09:36:31.000Z</time>
</trkpt>
<trkpt lat="46.0598150" lon="10.4886390">
	<ele>2498.00</ele>
	<time>2023-08-06T09:36:32.000Z</time>
</trkpt>
<trkpt lat="46.0598210" lon="10.4886370">
	<ele>2497.80</ele>
	<time>2023-08-06T09:36:33.000Z</time>
</trkpt>
<trkpt lat="46.0598280" lon="10.4886330">
	<ele>2497.60</ele>
	<time>2023-08-06T09:36:34.000Z</time>
</trkpt>
<trkpt lat="46.0598380" lon="10.4886270">
	<ele>2497.40</ele>
	<time>2023-08-06T09:36:35.000Z</time>
</trkpt>
<trkpt lat="46.0598470" lon="10.4886250">
	<ele>2497.20</ele>
	<time>2023-08-06T09:36:36.000Z</time>
</trkpt>
<trkpt lat="46.0598510" lon="10.4886250">
	<ele>2497.00</ele>
	<time>2023-08-06T09:36:37.000Z</time>
</trkpt>
<trkpt lat="46.0598620" lon="10.4886290">
	<ele>2497.00</ele>
	<time>2023-08-06T09:36:38.000Z</time>
</trkpt>
<trkpt lat="46.0598720" lon="10.4886270">
	<ele>2496.80</ele>
	<time>2023-08-06T09:36:39.000Z</time>
</trkpt>
<trkpt lat="46.0598760" lon="10.4886250">
	<ele>2496.80</ele>
	<time>2023-08-06T09:36:40.000Z</time>
</trkpt>
<trkpt lat="46.0598820" lon="10.4886190">
	<ele>2496.80</ele>
	<time>2023-08-06T09:36:41.000Z</time>
</trkpt>
<trkpt lat="46.0598880" lon="10.4886150">
	<ele>2496.80</ele>
	<time>2023-08-06T09:36:42.000Z</time>
</trkpt>
<trkpt lat="46.0598920" lon="10.4886110">
	<ele>2496.80</ele>
	<time>2023-08-06T09:36:43.000Z</time>
</trkpt>
<trkpt lat="46.0598950" lon="10.4886120">
	<ele>2496.60</ele>
	<time>2023-08-06T09:36:44.000Z</time>
</trkpt>
<trkpt lat="46.0598990" lon="10.4886150">
	<ele>2496.40</ele>
	<time>2023-08-06T09:36:45.000Z</time>
</trkpt>
<trkpt lat="46.0599040" lon="10.4886120">
	<ele>2496.40</ele>
	<time>2023-08-06T09:36:46.000Z</time>
</trkpt>
<trkpt lat="46.0599120" lon="10.4886150">
	<ele>2495.80</ele>
	<time>2023-08-06T09:36:47.000Z</time>
</trkpt>
<trkpt lat="46.0599190" lon="10.4886130">
	<ele>2495.60</ele>
	<time>2023-08-06T09:36:48.000Z</time>
</trkpt>
<trkpt lat="46.0599230" lon="10.4886200">
	<ele>2495.40</ele>
	<time>2023-08-06T09:36:49.000Z</time>
</trkpt>
<trkpt lat="46.0599290" lon="10.4886230">
	<ele>2495.20</ele>
	<time>2023-08-06T09:36:50.000Z</time>
</trkpt>
<trkpt lat="46.0599340" lon="10.4886320">
	<ele>2495.00</ele>
	<time>2023-08-06T09:36:51.000Z</time>
</trkpt>
<trkpt lat="46.0599400" lon="10.4886370">
	<ele>2495.00</ele>
	<time>2023-08-06T09:36:52.000Z</time>
</trkpt>
<trkpt lat="46.0599490" lon="10.4886490">
	<ele>2495.00</ele>
	<time>2023-08-06T09:36:53.000Z</time>
</trkpt>
<trkpt lat="46.0599580" lon="10.4886590">
	<ele>2494.80</ele>
	<time>2023-08-06T09:36:54.000Z</time>
</trkpt>
<trkpt lat="46.0599660" lon="10.4886690">
	<ele>2494.80</ele>
	<time>2023-08-06T09:36:55.000Z</time>
</trkpt>
<trkpt lat="46.0599730" lon="10.4886760">
	<ele>2494.80</ele>
	<time>2023-08-06T09:36:56.000Z</time>
</trkpt>
<trkpt lat="46.0599830" lon="10.4886770">
	<ele>2494.60</ele>
	<time>2023-08-06T09:36:57.000Z</time>
</trkpt>
<trkpt lat="46.0599930" lon="10.4886790">
	<ele>2494.60</ele>
	<time>2023-08-06T09:36:58.000Z</time>
</trkpt>
<trkpt lat="46.0600030" lon="10.4886800">
	<ele>2494.60</ele>
	<time>2023-08-06T09:36:59.000Z</time>
</trkpt>
<trkpt lat="46.0600110" lon="10.4886790">
	<ele>2494.60</ele>
	<time>2023-08-06T09:37:00.000Z</time>
</trkpt>
<trkpt lat="46.0600200" lon="10.4886810">
	<ele>2494.60</ele>
	<time>2023-08-06T09:37:01.000Z</time>
</trkpt>
<trkpt lat="46.0600280" lon="10.4886780">
	<ele>2494.60</ele>
	<time>2023-08-06T09:37:02.000Z</time>
</trkpt>
<trkpt lat="46.0600370" lon="10.4886760">
	<ele>2494.60</ele>
	<time>2023-08-06T09:37:03.000Z</time>
</trkpt>
<trkpt lat="46.0600450" lon="10.4886750">
	<ele>2494.60</ele>
	<time>2023-08-06T09:37:04.000Z</time>
</trkpt>
<trkpt lat="46.0600500" lon="10.4886720">
	<ele>2494.60</ele>
	<time>2023-08-06T09:37:05.000Z</time>
</trkpt>
<trkpt lat="46.0600550" lon="10.4886710">
	<ele>2494.80</ele>
	<time>2023-08-06T09:37:06.000Z</time>
</trkpt>
<trkpt lat="46.0600630" lon="10.4886720">
	<ele>2495.00</ele>
	<time>2023-08-06T09:37:07.000Z</time>
</trkpt>
<trkpt lat="46.0600690" lon="10.4886760">
	<ele>2495.00</ele>
	<time>2023-08-06T09:37:08.000Z</time>
</trkpt>
<trkpt lat="46.0600760" lon="10.4886800">
	<ele>2495.00</ele>
	<time>2023-08-06T09:37:09.000Z</time>
</trkpt>
<trkpt lat="46.0600830" lon="10.4886860">
	<ele>2495.00</ele>
	<time>2023-08-06T09:37:10.000Z</time>
</trkpt>
<trkpt lat="46.0600870" lon="10.4886850">
	<ele>2495.40</ele>
	<time>2023-08-06T09:37:11.000Z</time>
</trkpt>
<trkpt lat="46.0600930" lon="10.4886920">
	<ele>2495.40</ele>
	<time>2023-08-06T09:37:12.000Z</time>
</trkpt>
<trkpt lat="46.0600980" lon="10.4886970">
	<ele>2495.60</ele>
	<time>2023-08-06T09:37:13.000Z</time>
</trkpt>
<trkpt lat="46.0601030" lon="10.4887040">
	<ele>2495.60</ele>
	<time>2023-08-06T09:37:14.000Z</time>
</trkpt>
<trkpt lat="46.0601100" lon="10.4887080">
	<ele>2495.80</ele>
	<time>2023-08-06T09:37:15.000Z</time>
</trkpt>
<trkpt lat="46.0601160" lon="10.4887090">
	<ele>2496.00</ele>
	<time>2023-08-06T09:37:16.000Z</time>
</trkpt>
<trkpt lat="46.0601200" lon="10.4887100">
	<ele>2496.20</ele>
	<time>2023-08-06T09:37:17.000Z</time>
</trkpt>
<trkpt lat="46.0601260" lon="10.4887100">
	<ele>2496.20</ele>
	<time>2023-08-06T09:37:18.000Z</time>
</trkpt>
<trkpt lat="46.0601300" lon="10.4887070">
	<ele>2496.20</ele>
	<time>2023-08-06T09:37:19.000Z</time>
</trkpt>
<trkpt lat="46.0601330" lon="10.4887060">
	<ele>2496.40</ele>
	<time>2023-08-06T09:37:20.000Z</time>
</trkpt>
<trkpt lat="46.0601350" lon="10.4887070">
	<ele>2496.80</ele>
	<time>2023-08-06T09:37:21.000Z</time>
</trkpt>
<trkpt lat="46.0601370" lon="10.4887120">
	<ele>2497.00</ele>
	<time>2023-08-06T09:37:22.000Z</time>
</trkpt>
<trkpt lat="46.0601400" lon="10.4887230">
	<ele>2497.20</ele>
	<time>2023-08-06T09:37:23.000Z</time>
</trkpt>
<trkpt lat="46.0601440" lon="10.4887250">
	<ele>2497.40</ele>
	<time>2023-08-06T09:37:24.000Z</time>
</trkpt>
<trkpt lat="46.0601480" lon="10.4887270">
	<ele>2497.40</ele>
	<time>2023-08-06T09:37:25.000Z</time>
</trkpt>
<trkpt lat="46.0601540" lon="10.4887290">
	<ele>2497.60</ele>
	<time>2023-08-06T09:37:26.000Z</time>
</trkpt>
<trkpt lat="46.0601600" lon="10.4887340">
	<ele>2498.00</ele>
	<time>2023-08-06T09:37:27.000Z</time>
</trkpt>
<trkpt lat="46.0601640" lon="10.4887340">
	<ele>2498.20</ele>
	<time>2023-08-06T09:37:28.000Z</time>
</trkpt>
<trkpt lat="46.0601660" lon="10.4887370">
	<ele>2498.40</ele>
	<time>2023-08-06T09:37:29.000Z</time>
</trkpt>
<trkpt lat="46.0601730" lon="10.4887400">
	<ele>2498.60</ele>
	<time>2023-08-06T09:37:30.000Z</time>
</trkpt>
<trkpt lat="46.0601770" lon="10.4887390">
	<ele>2498.60</ele>
	<time>2023-08-06T09:37:31.000Z</time>
</trkpt>
<trkpt lat="46.0601790" lon="10.4887400">
	<ele>2498.60</ele>
	<time>2023-08-06T09:37:32.000Z</time>
</trkpt>
<trkpt lat="46.0601840" lon="10.4887460">
	<ele>2498.80</ele>
	<time>2023-08-06T09:37:33.000Z</time>
</trkpt>
<trkpt lat="46.0601870" lon="10.4887480">
	<ele>2498.80</ele>
	<time>2023-08-06T09:37:34.000Z</time>
</trkpt>
<trkpt lat="46.0601900" lon="10.4887460">
	<ele>2499.20</ele>
	<time>2023-08-06T09:37:35.000Z</time>
</trkpt>
<trkpt lat="46.0601920" lon="10.4887430">
	<ele>2499.20</ele>
	<time>2023-08-06T09:37:36.000Z</time>
</trkpt>
<trkpt lat="46.0601940" lon="10.4887390">
	<ele>2499.40</ele>
	<time>2023-08-06T09:37:37.000Z</time>
</trkpt>
<trkpt lat="46.0601970" lon="10.4887370">
	<ele>2499.60</ele>
	<time>2023-08-06T09:37:38.000Z</time>
</trkpt>
<trkpt lat="46.0602000" lon="10.4887340">
	<ele>2499.60</ele>
	<time>2023-08-06T09:37:39.000Z</time>
</trkpt>
<trkpt lat="46.0602010" lon="10.4887350">
	<ele>2499.60</ele>
	<time>2023-08-06T09:37:40.000Z</time>
</trkpt>
<trkpt lat="46.0602020" lon="10.4887400">
	<ele>2499.80</ele>
	<time>2023-08-06T09:37:41.000Z</time>
</trkpt>
<trkpt lat="46.0602020" lon="10.4887400">
	<ele>2499.80</ele>
	<time>2023-08-06T09:37:42.000Z</time>
</trkpt>
<trkpt lat="46.0602050" lon="10.4887460">
	<ele>2500.00</ele>
	<time>2023-08-06T09:37:43.000Z</time>
</trkpt>
<trkpt lat="46.0602080" lon="10.4887470">
	<ele>2500.60</ele>
	<time>2023-08-06T09:37:44.000Z</time>
</trkpt>
<trkpt lat="46.0602110" lon="10.4887510">
	<ele>2500.80</ele>
	<time>2023-08-06T09:37:45.000Z</time>
</trkpt>
<trkpt lat="46.0602130" lon="10.4887550">
	<ele>2501.00</ele>
	<time>2023-08-06T09:37:46.000Z</time>
</trkpt>
<trkpt lat="46.0602180" lon="10.4887560">
	<ele>2501.20</ele>
	<time>2023-08-06T09:37:47.000Z</time>
</trkpt>
<trkpt lat="46.0602200" lon="10.4887580">
	<ele>2501.20</ele>
	<time>2023-08-06T09:37:48.000Z</time>
</trkpt>
<trkpt lat="46.0602240" lon="10.4887550">
	<ele>2501.40</ele>
	<time>2023-08-06T09:37:49.000Z</time>
</trkpt>
<trkpt lat="46.0602260" lon="10.4887540">
	<ele>2501.60</ele>
	<time>2023-08-06T09:37:50.000Z</time>
</trkpt>
<trkpt lat="46.0602280" lon="10.4887550">
	<ele>2501.80</ele>
	<time>2023-08-06T09:37:51.000Z</time>
</trkpt>
<trkpt lat="46.0602330" lon="10.4887580">
	<ele>2502.00</ele>
	<time>2023-08-06T09:37:52.000Z</time>
</trkpt>
<trkpt lat="46.0602360" lon="10.4887580">
	<ele>2502.20</ele>
	<time>2023-08-06T09:37:53.000Z</time>
</trkpt>
<trkpt lat="46.0602400" lon="10.4887580">
	<ele>2502.20</ele>
	<time>2023-08-06T09:37:54.000Z</time>
</trkpt>
<trkpt lat="46.0602440" lon="10.4887600">
	<ele>2502.20</ele>
	<time>2023-08-06T09:37:55.000Z</time>
</trkpt>
<trkpt lat="46.0602480" lon="10.4887630">
	<ele>2502.40</ele>
	<time>2023-08-06T09:37:56.000Z</time>
</trkpt>
<trkpt lat="46.0602510" lon="10.4887650">
	<ele>2502.40</ele>
	<time>2023-08-06T09:37:57.000Z</time>
</trkpt>
<trkpt lat="46.0602560" lon="10.4887730">
	<ele>2502.60</ele>
	<time>2023-08-06T09:37:58.000Z</time>
</trkpt>
<trkpt lat="46.0602590" lon="10.4887750">
	<ele>2503.00</ele>
	<time>2023-08-06T09:37:59.000Z</time>
</trkpt>
<trkpt lat="46.0602610" lon="10.4887760">
	<ele>2503.20</ele>
	<time>2023-08-06T09:38:00.000Z</time>
</trkpt>
<trkpt lat="46.0602650" lon="10.4887780">
	<ele>2503.40</ele>
	<time>2023-08-06T09:38:01.000Z</time>
</trkpt>
<trkpt lat="46.0602710" lon="10.4887780">
	<ele>2503.40</ele>
	<time>2023-08-06T09:38:02.000Z</time>
</trkpt>
<trkpt lat="46.0602750" lon="10.4887790">
	<ele>2503.60</ele>
	<time>2023-08-06T09:38:03.000Z</time>
</trkpt>
<trkpt lat="46.0602810" lon="10.4887810">
	<ele>2503.60</ele>
	<time>2023-08-06T09:38:04.000Z</time>
</trkpt>
<trkpt lat="46.0602870" lon="10.4887930">
	<ele>2503.80</ele>
	<time>2023-08-06T09:38:05.000Z</time>
</trkpt>
<trkpt lat="46.0602910" lon="10.4888010">
	<ele>2503.80</ele>
	<time>2023-08-06T09:38:06.000Z</time>
</trkpt>
<trkpt lat="46.0602930" lon="10.4888050">
	<ele>2503.80</ele>
	<time>2023-08-06T09:38:07.000Z</time>
</trkpt>
<trkpt lat="46.0602960" lon="10.4888060">
	<ele>2504.00</ele>
	<time>2023-08-06T09:38:08.000Z</time>
</trkpt>
<trkpt lat="46.0602970" lon="10.4888050">
	<ele>2504.00</ele>
	<time>2023-08-06T09:38:09.000Z</time>
</trkpt>
<trkpt lat="46.0603000" lon="10.4888030">
	<ele>2504.20</ele>
	<time>2023-08-06T09:38:10.000Z</time>
</trkpt>
<trkpt lat="46.0603010" lon="10.4888020">
	<ele>2504.40</ele>
	<time>2023-08-06T09:38:11.000Z</time>
</trkpt>
<trkpt lat="46.0603020" lon="10.4888020">
	<ele>2504.40</ele>
	<time>2023-08-06T09:38:12.000Z</time>
</trkpt>
<trkpt lat="46.0603060" lon="10.4887990">
	<ele>2504.60</ele>
	<time>2023-08-06T09:38:13.000Z</time>
</trkpt>
<trkpt lat="46.0603130" lon="10.4888010">
	<ele>2504.80</ele>
	<time>2023-08-06T09:38:14.000Z</time>
</trkpt>
<trkpt lat="46.0603170" lon="10.4888080">
	<ele>2505.00</ele>
	<time>2023-08-06T09:38:15.000Z</time>
</trkpt>
<trkpt lat="46.0603190" lon="10.4888110">
	<ele>2505.20</ele>
	<time>2023-08-06T09:38:16.000Z</time>
</trkpt>
<trkpt lat="46.0603200" lon="10.4888120">
	<ele>2505.40</ele>
	<time>2023-08-06T09:38:17.000Z</time>
</trkpt>
<trkpt lat="46.0603190" lon="10.4888110">
	<ele>2505.40</ele>
	<time>2023-08-06T09:38:18.000Z</time>
</trkpt>
<trkpt lat="46.0603200" lon="10.4888120">
	<ele>2505.60</ele>
	<time>2023-08-06T09:38:19.000Z</time>
</trkpt>
<trkpt lat="46.0603210" lon="10.4888100">
	<ele>2505.60</ele>
	<time>2023-08-06T09:38:20.000Z</time>
</trkpt>
<trkpt lat="46.0603240" lon="10.4888060">
	<ele>2505.80</ele>
	<time>2023-08-06T09:38:21.000Z</time>
</trkpt>
<trkpt lat="46.0603260" lon="10.4888050">
	<ele>2505.80</ele>
	<time>2023-08-06T09:38:22.000Z</time>
</trkpt>
<trkpt lat="46.0603240" lon="10.4888080">
	<ele>2505.80</ele>
	<time>2023-08-06T09:38:23.000Z</time>
</trkpt>
<trkpt lat="46.0603250" lon="10.4888130">
	<ele>2506.00</ele>
	<time>2023-08-06T09:38:24.000Z</time>
</trkpt>
<trkpt lat="46.0603300" lon="10.4888200">
	<ele>2506.00</ele>
	<time>2023-08-06T09:38:25.000Z</time>
</trkpt>
<trkpt lat="46.0603340" lon="10.4888260">
	<ele>2506.00</ele>
	<time>2023-08-06T09:38:26.000Z</time>
</trkpt>
<trkpt lat="46.0603370" lon="10.4888290">
	<ele>2506.40</ele>
	<time>2023-08-06T09:38:27.000Z</time>
</trkpt>
<trkpt lat="46.0603390" lon="10.4888310">
	<ele>2506.60</ele>
	<time>2023-08-06T09:38:28.000Z</time>
</trkpt>
<trkpt lat="46.0603410" lon="10.4888320">
	<ele>2506.60</ele>
	<time>2023-08-06T09:38:29.000Z</time>
</trkpt>
<trkpt lat="46.0603430" lon="10.4888280">
	<ele>2506.80</ele>
	<time>2023-08-06T09:38:30.000Z</time>
</trkpt>
<trkpt lat="46.0603470" lon="10.4888260">
	<ele>2507.00</ele>
	<time>2023-08-06T09:38:31.000Z</time>
</trkpt>
<trkpt lat="46.0603520" lon="10.4888240">
	<ele>2507.20</ele>
	<time>2023-08-06T09:38:32.000Z</time>
</trkpt>
<trkpt lat="46.0603540" lon="10.4888260">
	<ele>2507.40</ele>
	<time>2023-08-06T09:38:33.000Z</time>
</trkpt>
<trkpt lat="46.0603640" lon="10.4888280">
	<ele>2507.40</ele>
	<time>2023-08-06T09:38:34.000Z</time>
</trkpt>
<trkpt lat="46.0603700" lon="10.4888300">
	<ele>2507.60</ele>
	<time>2023-08-06T09:38:35.000Z</time>
</trkpt>
<trkpt lat="46.0603730" lon="10.4888310">
	<ele>2507.60</ele>
	<time>2023-08-06T09:38:36.000Z</time>
</trkpt>
<trkpt lat="46.0603760" lon="10.4888310">
	<ele>2507.80</ele>
	<time>2023-08-06T09:38:37.000Z</time>
</trkpt>
<trkpt lat="46.0603770" lon="10.4888320">
	<ele>2507.80</ele>
	<time>2023-08-06T09:38:38.000Z</time>
</trkpt>
<trkpt lat="46.0603770" lon="10.4888330">
	<ele>2508.00</ele>
	<time>2023-08-06T09:38:39.000Z</time>
</trkpt>
<trkpt lat="46.0603740" lon="10.4888330">
	<ele>2508.00</ele>
	<time>2023-08-06T09:38:40.000Z</time>
</trkpt>
<trkpt lat="46.0603730" lon="10.4888310">
	<ele>2508.00</ele>
	<time>2023-08-06T09:38:41.000Z</time>
</trkpt>
<trkpt lat="46.0603730" lon="10.4888280">
	<ele>2508.00</ele>
	<time>2023-08-06T09:38:42.000Z</time>
</trkpt>
<trkpt lat="46.0603750" lon="10.4888270">
	<ele>2508.00</ele>
	<time>2023-08-06T09:38:43.000Z</time>
</trkpt>
<trkpt lat="46.0603770" lon="10.4888280">
	<ele>2508.00</ele>
	<time>2023-08-06T09:38:44.000Z</time>
</trkpt>
<trkpt lat="46.0603770" lon="10.4888300">
	<ele>2508.00</ele>
	<time>2023-08-06T09:38:45.000Z</time>
</trkpt>
<trkpt lat="46.0603820" lon="10.4888340">
	<ele>2508.00</ele>
	<time>2023-08-06T09:38:46.000Z</time>
</trkpt>
<trkpt lat="46.0603860" lon="10.4888390">
	<ele>2508.00</ele>
	<time>2023-08-06T09:38:47.000Z</time>
</trkpt>
<trkpt lat="46.0603910" lon="10.4888420">
	<ele>2508.20</ele>
	<time>2023-08-06T09:38:48.000Z</time>
</trkpt>
<trkpt lat="46.0603980" lon="10.4888500">
	<ele>2508.20</ele>
	<time>2023-08-06T09:38:49.000Z</time>
</trkpt>
<trkpt lat="46.0604030" lon="10.4888590">
	<ele>2508.40</ele>
	<time>2023-08-06T09:38:50.000Z</time>
</trkpt>
<trkpt lat="46.0604080" lon="10.4888650">
	<ele>2508.60</ele>
	<time>2023-08-06T09:38:51.000Z</time>
</trkpt>
<trkpt lat="46.0604120" lon="10.4888680">
	<ele>2508.60</ele>
	<time>2023-08-06T09:38:52.000Z</time>
</trkpt>
<trkpt lat="46.0604140" lon="10.4888680">
	<ele>2508.80</ele>
	<time>2023-08-06T09:38:53.000Z</time>
</trkpt>
<trkpt lat="46.0604170" lon="10.4888670">
	<ele>2509.00</ele>
	<time>2023-08-06T09:38:54.000Z</time>
</trkpt>
<trkpt lat="46.0604230" lon="10.4888690">
	<ele>2509.20</ele>
	<time>2023-08-06T09:38:55.000Z</time>
</trkpt>
<trkpt lat="46.0604280" lon="10.4888710">
	<ele>2509.20</ele>
	<time>2023-08-06T09:38:56.000Z</time>
</trkpt>
<trkpt lat="46.0604310" lon="10.4888740">
	<ele>2509.40</ele>
	<time>2023-08-06T09:38:57.000Z</time>
</trkpt>
<trkpt lat="46.0604320" lon="10.4888770">
	<ele>2509.40</ele>
	<time>2023-08-06T09:38:58.000Z</time>
</trkpt>
<trkpt lat="46.0604380" lon="10.4888770">
	<ele>2509.60</ele>
	<time>2023-08-06T09:38:59.000Z</time>
</trkpt>
<trkpt lat="46.0604420" lon="10.4888790">
	<ele>2509.80</ele>
	<time>2023-08-06T09:39:00.000Z</time>
</trkpt>
<trkpt lat="46.0604450" lon="10.4888860">
	<ele>2510.00</ele>
	<time>2023-08-06T09:39:01.000Z</time>
</trkpt>
<trkpt lat="46.0604470" lon="10.4888910">
	<ele>2510.00</ele>
	<time>2023-08-06T09:39:02.000Z</time>
</trkpt>
<trkpt lat="46.0604480" lon="10.4888950">
	<ele>2510.20</ele>
	<time>2023-08-06T09:39:03.000Z</time>
</trkpt>
<trkpt lat="46.0604520" lon="10.4888930">
	<ele>2510.40</ele>
	<time>2023-08-06T09:39:04.000Z</time>
</trkpt>
<trkpt lat="46.0604570" lon="10.4888900">
	<ele>2510.60</ele>
	<time>2023-08-06T09:39:05.000Z</time>
</trkpt>
<trkpt lat="46.0604600" lon="10.4888890">
	<ele>2510.60</ele>
	<time>2023-08-06T09:39:06.000Z</time>
</trkpt>
<trkpt lat="46.0604620" lon="10.4888900">
	<ele>2510.80</ele>
	<time>2023-08-06T09:39:07.000Z</time>
</trkpt>
<trkpt lat="46.0604670" lon="10.4888960">
	<ele>2510.80</ele>
	<time>2023-08-06T09:39:08.000Z</time>
</trkpt>
<trkpt lat="46.0604720" lon="10.4889010">
	<ele>2510.80</ele>
	<time>2023-08-06T09:39:09.000Z</time>
</trkpt>
<trkpt lat="46.0604760" lon="10.4889020">
	<ele>2511.00</ele>
	<time>2023-08-06T09:39:10.000Z</time>
</trkpt>
<trkpt lat="46.0604800" lon="10.4889020">
	<ele>2511.00</ele>
	<time>2023-08-06T09:39:11.000Z</time>
</trkpt>
<trkpt lat="46.0604850" lon="10.4889000">
	<ele>2511.00</ele>
	<time>2023-08-06T09:39:12.000Z</time>
</trkpt>
<trkpt lat="46.0604880" lon="10.4889030">
	<ele>2511.00</ele>
	<time>2023-08-06T09:39:13.000Z</time>
</trkpt>
<trkpt lat="46.0604910" lon="10.4889050">
	<ele>2511.40</ele>
	<time>2023-08-06T09:39:14.000Z</time>
</trkpt>
<trkpt lat="46.0604940" lon="10.4889070">
	<ele>2511.80</ele>
	<time>2023-08-06T09:39:15.000Z</time>
</trkpt>
<trkpt lat="46.0604960" lon="10.4889100">
	<ele>2511.80</ele>
	<time>2023-08-06T09:39:16.000Z</time>
</trkpt>
<trkpt lat="46.0604980" lon="10.4889130">
	<ele>2512.00</ele>
	<time>2023-08-06T09:39:17.000Z</time>
</trkpt>
<trkpt lat="46.0605010" lon="10.4889170">
	<ele>2512.00</ele>
	<time>2023-08-06T09:39:18.000Z</time>
</trkpt>
<trkpt lat="46.0605070" lon="10.4889220">
	<ele>2512.20</ele>
	<time>2023-08-06T09:39:19.000Z</time>
</trkpt>
<trkpt lat="46.0605140" lon="10.4889280">
	<ele>2512.20</ele>
	<time>2023-08-06T09:39:20.000Z</time>
</trkpt>
<trkpt lat="46.0605180" lon="10.4889320">
	<ele>2512.20</ele>
	<time>2023-08-06T09:39:21.000Z</time>
</trkpt>
<trkpt lat="46.0605200" lon="10.4889340">
	<ele>2512.40</ele>
	<time>2023-08-06T09:39:22.000Z</time>
</trkpt>
<trkpt lat="46.0605230" lon="10.4889390">
	<ele>2512.60</ele>
	<time>2023-08-06T09:39:23.000Z</time>
</trkpt>
<trkpt lat="46.0605270" lon="10.4889400">
	<ele>2512.60</ele>
	<time>2023-08-06T09:39:24.000Z</time>
</trkpt>
<trkpt lat="46.0605290" lon="10.4889380">
	<ele>2512.60</ele>
	<time>2023-08-06T09:39:25.000Z</time>
</trkpt>
<trkpt lat="46.0605310" lon="10.4889370">
	<ele>2512.80</ele>
	<time>2023-08-06T09:39:26.000Z</time>
</trkpt>
<trkpt lat="46.0605370" lon="10.4889330">
	<ele>2512.80</ele>
	<time>2023-08-06T09:39:27.000Z</time>
</trkpt>
<trkpt lat="46.0605420" lon="10.4889350">
	<ele>2513.00</ele>
	<time>2023-08-06T09:39:28.000Z</time>
</trkpt>
<trkpt lat="46.0605460" lon="10.4889360">
	<ele>2513.00</ele>
	<time>2023-08-06T09:39:29.000Z</time>
</trkpt>
<trkpt lat="46.0605490" lon="10.4889370">
	<ele>2513.20</ele>
	<time>2023-08-06T09:39:30.000Z</time>
</trkpt>
<trkpt lat="46.0605530" lon="10.4889420">
	<ele>2513.20</ele>
	<time>2023-08-06T09:39:31.000Z</time>
</trkpt>
<trkpt lat="46.0605620" lon="10.4889510">
	<ele>2513.20</ele>
	<time>2023-08-06T09:39:32.000Z</time>
</trkpt>
<trkpt lat="46.0605660" lon="10.4889540">
	<ele>2513.40</ele>
	<time>2023-08-06T09:39:33.000Z</time>
</trkpt>
<trkpt lat="46.0605680" lon="10.4889550">
	<ele>2513.40</ele>
	<time>2023-08-06T09:39:34.000Z</time>
</trkpt>
<trkpt lat="46.0605720" lon="10.4889590">
	<ele>2513.60</ele>
	<time>2023-08-06T09:39:35.000Z</time>
</trkpt>
<trkpt lat="46.0605740" lon="10.4889660">
	<ele>2513.60</ele>
	<time>2023-08-06T09:39:36.000Z</time>
</trkpt>
<trkpt lat="46.0605750" lon="10.4889680">
	<ele>2513.60</ele>
	<time>2023-08-06T09:39:37.000Z</time>
</trkpt>
<trkpt lat="46.0605760" lon="10.4889640">
	<ele>2513.60</ele>
	<time>2023-08-06T09:39:38.000Z</time>
</trkpt>
<trkpt lat="46.0605800" lon="10.4889690">
	<ele>2513.40</ele>
	<time>2023-08-06T09:39:39.000Z</time>
</trkpt>
<trkpt lat="46.0605820" lon="10.4889690">
	<ele>2513.20</ele>
	<time>2023-08-06T09:39:40.000Z</time>
</trkpt>
<trkpt lat="46.0605820" lon="10.4889710">
	<ele>2513.20</ele>
	<time>2023-08-06T09:39:41.000Z</time>
</trkpt>
<trkpt lat="46.0605810" lon="10.4889780">
	<ele>2513.20</ele>
	<time>2023-08-06T09:39:42.000Z</time>
</trkpt>
<trkpt lat="46.0605810" lon="10.4889810">
	<ele>2513.20</ele>
	<time>2023-08-06T09:39:43.000Z</time>
</trkpt>
<trkpt lat="46.0605810" lon="10.4889790">
	<ele>2513.40</ele>
	<time>2023-08-06T09:39:44.000Z</time>
</trkpt>
<trkpt lat="46.0605800" lon="10.4889830">
	<ele>2513.40</ele>
	<time>2023-08-06T09:39:45.000Z</time>
</trkpt>
<trkpt lat="46.0605800" lon="10.4889820">
	<ele>2513.60</ele>
	<time>2023-08-06T09:39:46.000Z</time>
</trkpt>
<trkpt lat="46.0605800" lon="10.4889800">
	<ele>2513.60</ele>
	<time>2023-08-06T09:39:47.000Z</time>
</trkpt>
<trkpt lat="46.0605810" lon="10.4889800">
	<ele>2513.80</ele>
	<time>2023-08-06T09:39:48.000Z</time>
</trkpt>
<trkpt lat="46.0605810" lon="10.4889800">
	<ele>2513.80</ele>
	<time>2023-08-06T09:39:49.000Z</time>
</trkpt>
<trkpt lat="46.0605810" lon="10.4889800">
	<ele>2513.80</ele>
	<time>2023-08-06T09:39:50.000Z</time>
</trkpt>
<trkpt lat="46.0605810" lon="10.4889800">
	<ele>2513.80</ele>
	<time>2023-08-06T09:39:51.000Z</time>
</trkpt>
<trkpt lat="46.0605810" lon="10.4889800">
	<ele>2513.60</ele>
	<time>2023-08-06T09:39:52.000Z</time>
</trkpt>
<trkpt lat="46.0605810" lon="10.4889800">
	<ele>2513.60</ele>
	<time>2023-08-06T09:39:53.000Z</time>
</trkpt>
<trkpt lat="46.0605810" lon="10.4889800">
	<ele>2513.40</ele>
	<time>2023-08-06T09:39:54.000Z</time>
</trkpt>
<trkpt lat="46.0605810" lon="10.4889800">
	<ele>2513.40</ele>
	<time>2023-08-06T09:39:55.000Z</time>
</trkpt>
<trkpt lat="46.0605810" lon="10.4889800">
	<ele>2513.20</ele>
	<time>2023-08-06T09:39:56.000Z</time>
</trkpt>
<trkpt lat="46.0605810" lon="10.4889800">
	<ele>2513.00</ele>
	<time>2023-08-06T09:39:57.000Z</time>
</trkpt>
<trkpt lat="46.0605810" lon="10.4889800">
	<ele>2513.00</ele>
	<time>2023-08-06T09:39:58.000Z</time>
</trkpt>
<trkpt lat="46.0605810" lon="10.4889800">
	<ele>2513.00</ele>
	<time>2023-08-06T09:39:59.000Z</time>
</trkpt>
<trkpt lat="46.0605810" lon="10.4889800">
	<ele>2512.80</ele>
	<time>2023-08-06T09:40:00.000Z</time>
</trkpt>
<trkpt lat="46.0605810" lon="10.4889800">
	<ele>2512.80</ele>
	<time>2023-08-06T09:40:01.000Z</time>
</trkpt>
<trkpt lat="46.0605810" lon="10.4889800">
	<ele>2512.80</ele>
	<time>2023-08-06T09:40:02.000Z</time>
</trkpt>
<trkpt lat="46.0605810" lon="10.4889800">
	<ele>2512.80</ele>
	<time>2023-08-06T09:40:03.000Z</time>
</trkpt>
<trkpt lat="46.0605810" lon="10.4889790">
	<ele>2513.00</ele>
	<time>2023-08-06T09:40:04.000Z</time>
</trkpt>
<trkpt lat="46.0605810" lon="10.4889790">
	<ele>2513.00</ele>
	<time>2023-08-06T09:40:05.000Z</time>
</trkpt>
<trkpt lat="46.0605820" lon="10.4889780">
	<ele>2513.20</ele>
	<time>2023-08-06T09:40:06.000Z</time>
</trkpt>
<trkpt lat="46.0605820" lon="10.4889780">
	<ele>2513.20</ele>
	<time>2023-08-06T09:40:07.000Z</time>
</trkpt>
<trkpt lat="46.0605820" lon="10.4889760">
	<ele>2513.20</ele>
	<time>2023-08-06T09:40:08.000Z</time>
</trkpt>
<trkpt lat="46.0605830" lon="10.4889750">
	<ele>2513.20</ele>
	<time>2023-08-06T09:40:09.000Z</time>
</trkpt>
<trkpt lat="46.0605840" lon="10.4889750">
	<ele>2513.20</ele>
	<time>2023-08-06T09:40:10.000Z</time>
</trkpt>
<trkpt lat="46.0605850" lon="10.4889750">
	<ele>2513.20</ele>
	<time>2023-08-06T09:40:11.000Z</time>
</trkpt>
<trkpt lat="46.0605850" lon="10.4889740">
	<ele>2513.00</ele>
	<time>2023-08-06T09:40:12.000Z</time>
</trkpt>
<trkpt lat="46.0605850" lon="10.4889730">
	<ele>2513.00</ele>
	<time>2023-08-06T09:40:13.000Z</time>
</trkpt>
<trkpt lat="46.0605850" lon="10.4889730">
	<ele>2512.80</ele>
	<time>2023-08-06T09:40:14.000Z</time>
</trkpt>
<trkpt lat="46.0605850" lon="10.4889730">
	<ele>2512.80</ele>
	<time>2023-08-06T09:40:15.000Z</time>
</trkpt>
<trkpt lat="46.0605850" lon="10.4889730">
	<ele>2512.80</ele>
	<time>2023-08-06T09:40:16.000Z</time>
</trkpt>
<trkpt lat="46.0605850" lon="10.4889720">
	<ele>2512.80</ele>
	<time>2023-08-06T09:40:17.000Z</time>
</trkpt>
<trkpt lat="46.0605850" lon="10.4889720">
	<ele>2512.80</ele>
	<time>2023-08-06T09:40:18.000Z</time>
</trkpt>
<trkpt lat="46.0605850" lon="10.4889720">
	<ele>2512.80</ele>
	<time>2023-08-06T09:40:19.000Z</time>
</trkpt>
<trkpt lat="46.0605850" lon="10.4889710">
	<ele>2512.80</ele>
	<time>2023-08-06T09:40:20.000Z</time>
</trkpt>
<trkpt lat="46.0605850" lon="10.4889710">
	<ele>2512.80</ele>
	<time>2023-08-06T09:40:21.000Z</time>
</trkpt>
<trkpt lat="46.0605850" lon="10.4889700">
	<ele>2513.00</ele>
	<time>2023-08-06T09:40:22.000Z</time>
</trkpt>
<trkpt lat="46.0605850" lon="10.4889700">
	<ele>2512.80</ele>
	<time>2023-08-06T09:40:23.000Z</time>
</trkpt>
<trkpt lat="46.0605850" lon="10.4889690">
	<ele>2513.00</ele>
	<time>2023-08-06T09:40:24.000Z</time>
</trkpt>
<trkpt lat="46.0605850" lon="10.4889690">
	<ele>2513.00</ele>
	<time>2023-08-06T09:40:25.000Z</time>
</trkpt>
<trkpt lat="46.0605850" lon="10.4889690">
	<ele>2513.00</ele>
	<time>2023-08-06T09:40:26.000Z</time>
</trkpt>
<trkpt lat="46.0605850" lon="10.4889690">
	<ele>2512.80</ele>
	<time>2023-08-06T09:40:27.000Z</time>
</trkpt>
<trkpt lat="46.0605900" lon="10.4889710">
	<ele>2512.60</ele>
	<time>2023-08-06T09:40:28.000Z</time>
</trkpt>
<trkpt lat="46.0606040" lon="10.4889780">
	<ele>2512.60</ele>
	<time>2023-08-06T09:40:29.000Z</time>
</trkpt>
<trkpt lat="46.0606150" lon="10.4889850">
	<ele>2512.40</ele>
	<time>2023-08-06T09:40:30.000Z</time>
</trkpt>
<trkpt lat="46.0606290" lon="10.4889880">
	<ele>2512.40</ele>
	<time>2023-08-06T09:40:31.000Z</time>
</trkpt>
<trkpt lat="46.0606410" lon="10.4889960">
	<ele>2512.40</ele>
	<time>2023-08-06T09:40:32.000Z</time>
</trkpt>
<trkpt lat="46.0606560" lon="10.4890050">
	<ele>2512.40</ele>
	<time>2023-08-06T09:40:33.000Z</time>
</trkpt>
<trkpt lat="46.0606740" lon="10.4890180">
	<ele>2512.40</ele>
	<time>2023-08-06T09:40:34.000Z</time>
</trkpt>
<trkpt lat="46.0606850" lon="10.4890230">
	<ele>2512.20</ele>
	<time>2023-08-06T09:40:35.000Z</time>
</trkpt>
<trkpt lat="46.0606970" lon="10.4890280">
	<ele>2512.20</ele>
	<time>2023-08-06T09:40:36.000Z</time>
</trkpt>
<trkpt lat="46.0607100" lon="10.4890320">
	<ele>2512.00</ele>
	<time>2023-08-06T09:40:37.000Z</time>
</trkpt>
<trkpt lat="46.0607180" lon="10.4890380">
	<ele>2512.00</ele>
	<time>2023-08-06T09:40:38.000Z</time>
</trkpt>
<trkpt lat="46.0607230" lon="10.4890420">
	<ele>2512.00</ele>
	<time>2023-08-06T09:40:39.000Z</time>
</trkpt>
<trkpt lat="46.0607280" lon="10.4890530">
	<ele>2511.80</ele>
	<time>2023-08-06T09:40:40.000Z</time>
</trkpt>
<trkpt lat="46.0607340" lon="10.4890610">
	<ele>2511.80</ele>
	<time>2023-08-06T09:40:41.000Z</time>
</trkpt>
<trkpt lat="46.0607420" lon="10.4890610">
	<ele>2511.80</ele>
	<time>2023-08-06T09:40:42.000Z</time>
</trkpt>
<trkpt lat="46.0607490" lon="10.4890600">
	<ele>2511.80</ele>
	<time>2023-08-06T09:40:43.000Z</time>
</trkpt>
<trkpt lat="46.0607580" lon="10.4890590">
	<ele>2511.60</ele>
	<time>2023-08-06T09:40:44.000Z</time>
</trkpt>
<trkpt lat="46.0607680" lon="10.4890630">
	<ele>2511.60</ele>
	<time>2023-08-06T09:40:45.000Z</time>
</trkpt>
<trkpt lat="46.0607750" lon="10.4890650">
	<ele>2511.60</ele>
	<time>2023-08-06T09:40:46.000Z</time>
</trkpt>
<trkpt lat="46.0607850" lon="10.4890630">
	<ele>2511.40</ele>
	<time>2023-08-06T09:40:47.000Z</time>
</trkpt>
<trkpt lat="46.0607950" lon="10.4890600">
	<ele>2511.40</ele>
	<time>2023-08-06T09:40:48.000Z</time>
</trkpt>
<trkpt lat="46.0608050" lon="10.4890630">
	<ele>2511.60</ele>
	<time>2023-08-06T09:40:49.000Z</time>
</trkpt>
<trkpt lat="46.0608140" lon="10.4890650">
	<ele>2511.60</ele>
	<time>2023-08-06T09:40:50.000Z</time>
</trkpt>
<trkpt lat="46.0608200" lon="10.4890640">
	<ele>2511.60</ele>
	<time>2023-08-06T09:40:51.000Z</time>
</trkpt>
<trkpt lat="46.0608220" lon="10.4890600">
	<ele>2511.80</ele>
	<time>2023-08-06T09:40:52.000Z</time>
</trkpt>
<trkpt lat="46.0608280" lon="10.4890590">
	<ele>2512.00</ele>
	<time>2023-08-06T09:40:53.000Z</time>
</trkpt>
<trkpt lat="46.0608320" lon="10.4890580">
	<ele>2512.20</ele>
	<time>2023-08-06T09:40:54.000Z</time>
</trkpt>
<trkpt lat="46.0608370" lon="10.4890600">
	<ele>2512.40</ele>
	<time>2023-08-06T09:40:55.000Z</time>
</trkpt>
<trkpt lat="46.0608440" lon="10.4890630">
	<ele>2512.60</ele>
	<time>2023-08-06T09:40:56.000Z</time>
</trkpt>
<trkpt lat="46.0608480" lon="10.4890660">
	<ele>2512.60</ele>
	<time>2023-08-06T09:40:57.000Z</time>
</trkpt>
<trkpt lat="46.0608500" lon="10.4890700">
	<ele>2512.80</ele>
	<time>2023-08-06T09:40:58.000Z</time>
</trkpt>
<trkpt lat="46.0608550" lon="10.4890740">
	<ele>2513.00</ele>
	<time>2023-08-06T09:40:59.000Z</time>
</trkpt>
<trkpt lat="46.0608610" lon="10.4890760">
	<ele>2513.20</ele>
	<time>2023-08-06T09:41:00.000Z</time>
</trkpt>
<trkpt lat="46.0608690" lon="10.4890730">
	<ele>2513.40</ele>
	<time>2023-08-06T09:41:01.000Z</time>
</trkpt>
<trkpt lat="46.0608750" lon="10.4890690">
	<ele>2513.60</ele>
	<time>2023-08-06T09:41:02.000Z</time>
</trkpt>
<trkpt lat="46.0608820" lon="10.4890700">
	<ele>2513.60</ele>
	<time>2023-08-06T09:41:03.000Z</time>
</trkpt>
<trkpt lat="46.0608870" lon="10.4890710">
	<ele>2513.80</ele>
	<time>2023-08-06T09:41:04.000Z</time>
</trkpt>
<trkpt lat="46.0608960" lon="10.4890760">
	<ele>2514.00</ele>
	<time>2023-08-06T09:41:05.000Z</time>
</trkpt>
<trkpt lat="46.0609010" lon="10.4890830">
	<ele>2514.00</ele>
	<time>2023-08-06T09:41:06.000Z</time>
</trkpt>
<trkpt lat="46.0609060" lon="10.4890860">
	<ele>2514.00</ele>
	<time>2023-08-06T09:41:07.000Z</time>
</trkpt>
<trkpt lat="46.0609110" lon="10.4890860">
	<ele>2514.20</ele>
	<time>2023-08-06T09:41:08.000Z</time>
</trkpt>
<trkpt lat="46.0609170" lon="10.4890920">
	<ele>2514.40</ele>
	<time>2023-08-06T09:41:09.000Z</time>
</trkpt>
<trkpt lat="46.0609210" lon="10.4890950">
	<ele>2514.40</ele>
	<time>2023-08-06T09:41:10.000Z</time>
</trkpt>
<trkpt lat="46.0609240" lon="10.4890960">
	<ele>2514.60</ele>
	<time>2023-08-06T09:41:11.000Z</time>
</trkpt>
<trkpt lat="46.0609300" lon="10.4891030">
	<ele>2514.60</ele>
	<time>2023-08-06T09:41:12.000Z</time>
</trkpt>
<trkpt lat="46.0609350" lon="10.4891050">
	<ele>2514.80</ele>
	<time>2023-08-06T09:41:13.000Z</time>
</trkpt>
<trkpt lat="46.0609420" lon="10.4891060">
	<ele>2514.80</ele>
	<time>2023-08-06T09:41:14.000Z</time>
</trkpt>
<trkpt lat="46.0609480" lon="10.4891060">
	<ele>2515.00</ele>
	<time>2023-08-06T09:41:15.000Z</time>
</trkpt>
<trkpt lat="46.0609520" lon="10.4891110">
	<ele>2515.00</ele>
	<time>2023-08-06T09:41:16.000Z</time>
</trkpt>
<trkpt lat="46.0609600" lon="10.4891190">
	<ele>2515.00</ele>
	<time>2023-08-06T09:41:17.000Z</time>
</trkpt>
<trkpt lat="46.0609650" lon="10.4891250">
	<ele>2515.00</ele>
	<time>2023-08-06T09:41:18.000Z</time>
</trkpt>
<trkpt lat="46.0609710" lon="10.4891310">
	<ele>2515.20</ele>
	<time>2023-08-06T09:41:19.000Z</time>
</trkpt>
<trkpt lat="46.0609770" lon="10.4891360">
	<ele>2515.20</ele>
	<time>2023-08-06T09:41:20.000Z</time>
</trkpt>
<trkpt lat="46.0609820" lon="10.4891440">
	<ele>2515.20</ele>
	<time>2023-08-06T09:41:21.000Z</time>
</trkpt>
<trkpt lat="46.0609880" lon="10.4891500">
	<ele>2515.20</ele>
	<time>2023-08-06T09:41:22.000Z</time>
</trkpt>
<trkpt lat="46.0609940" lon="10.4891580">
	<ele>2515.20</ele>
	<time>2023-08-06T09:41:23.000Z</time>
</trkpt>
<trkpt lat="46.0609980" lon="10.4891610">
	<ele>2515.20</ele>
	<time>2023-08-06T09:41:24.000Z</time>
</trkpt>
<trkpt lat="46.0610000" lon="10.4891600">
	<ele>2515.20</ele>
	<time>2023-08-06T09:41:25.000Z</time>
</trkpt>
<trkpt lat="46.0610000" lon="10.4891610">
	<ele>2515.20</ele>
	<time>2023-08-06T09:41:26.000Z</time>
</trkpt>
<trkpt lat="46.0610000" lon="10.4891650">
	<ele>2515.40</ele>
	<time>2023-08-06T09:41:27.000Z</time>
</trkpt>
<trkpt lat="46.0609990" lon="10.4891670">
	<ele>2515.60</ele>
	<time>2023-08-06T09:41:28.000Z</time>
</trkpt>
<trkpt lat="46.0609990" lon="10.4891670">
	<ele>2515.60</ele>
	<time>2023-08-06T09:41:29.000Z</time>
</trkpt>
<trkpt lat="46.0610000" lon="10.4891670">
	<ele>2515.60</ele>
	<time>2023-08-06T09:41:30.000Z</time>
</trkpt>
<trkpt lat="46.0610020" lon="10.4891660">
	<ele>2515.80</ele>
	<time>2023-08-06T09:41:31.000Z</time>
</trkpt>
<trkpt lat="46.0609980" lon="10.4891610">
	<ele>2515.80</ele>
	<time>2023-08-06T09:41:32.000Z</time>
</trkpt>
<trkpt lat="46.0609950" lon="10.4891580">
	<ele>2515.60</ele>
	<time>2023-08-06T09:41:33.000Z</time>
</trkpt>
<trkpt lat="46.0609930" lon="10.4891560">
	<ele>2515.40</ele>
	<time>2023-08-06T09:41:34.000Z</time>
</trkpt>
<trkpt lat="46.0609930" lon="10.4891560">
	<ele>2515.20</ele>
	<time>2023-08-06T09:41:35.000Z</time>
</trkpt>
<trkpt lat="46.0609930" lon="10.4891560">
	<ele>2515.20</ele>
	<time>2023-08-06T09:41:36.000Z</time>
</trkpt>
<trkpt lat="46.0609930" lon="10.4891560">
	<ele>2515.20</ele>
	<time>2023-08-06T09:41:37.000Z</time>
</trkpt>
<trkpt lat="46.0609930" lon="10.4891560">
	<ele>2515.20</ele>
	<time>2023-08-06T09:41:38.000Z</time>
</trkpt>
<trkpt lat="46.0609930" lon="10.4891560">
	<ele>2515.00</ele>
	<time>2023-08-06T09:41:39.000Z</time>
</trkpt>
<trkpt lat="46.0609930" lon="10.4891560">
	<ele>2515.00</ele>
	<time>2023-08-06T09:41:40.000Z</time>
</trkpt>
<trkpt lat="46.0609930" lon="10.4891560">
	<ele>2514.80</ele>
	<time>2023-08-06T09:41:41.000Z</time>
</trkpt>
<trkpt lat="46.0609930" lon="10.4891560">
	<ele>2514.80</ele>
	<time>2023-08-06T09:41:42.000Z</time>
</trkpt>
<trkpt lat="46.0609930" lon="10.4891560">
	<ele>2514.80</ele>
	<time>2023-08-06T09:41:43.000Z</time>
</trkpt>
<trkpt lat="46.0609930" lon="10.4891560">
	<ele>2514.80</ele>
	<time>2023-08-06T09:41:44.000Z</time>
</trkpt>
<trkpt lat="46.0609930" lon="10.4891560">
	<ele>2514.80</ele>
	<time>2023-08-06T09:41:45.000Z</time>
</trkpt>
<trkpt lat="46.0609930" lon="10.4891560">
	<ele>2514.80</ele>
	<time>2023-08-06T09:41:46.000Z</time>
</trkpt>
<trkpt lat="46.0609950" lon="10.4891540">
	<ele>2514.80</ele>
	<time>2023-08-06T09:41:47.000Z</time>
</trkpt>
<trkpt lat="46.0610060" lon="10.4891550">
	<ele>2514.80</ele>
	<time>2023-08-06T09:41:48.000Z</time>
</trkpt>
<trkpt lat="46.0610140" lon="10.4891530">
	<ele>2514.80</ele>
	<time>2023-08-06T09:41:49.000Z</time>
</trkpt>
<trkpt lat="46.0610230" lon="10.4891580">
	<ele>2514.60</ele>
	<time>2023-08-06T09:41:50.000Z</time>
</trkpt>
<trkpt lat="46.0610370" lon="10.4891590">
	<ele>2514.40</ele>
	<time>2023-08-06T09:41:51.000Z</time>
</trkpt>
<trkpt lat="46.0610430" lon="10.4891610">
	<ele>2514.40</ele>
	<time>2023-08-06T09:41:52.000Z</time>
</trkpt>
<trkpt lat="46.0610470" lon="10.4891650">
	<ele>2514.40</ele>
	<time>2023-08-06T09:41:53.000Z</time>
</trkpt>
<trkpt lat="46.0610520" lon="10.4891670">
	<ele>2514.40</ele>
	<time>2023-08-06T09:41:54.000Z</time>
</trkpt>
<trkpt lat="46.0610550" lon="10.4891650">
	<ele>2514.20</ele>
	<time>2023-08-06T09:41:55.000Z</time>
</trkpt>
<trkpt lat="46.0610600" lon="10.4891650">
	<ele>2514.20</ele>
	<time>2023-08-06T09:41:56.000Z</time>
</trkpt>
<trkpt lat="46.0610670" lon="10.4891630">
	<ele>2514.00</ele>
	<time>2023-08-06T09:41:57.000Z</time>
</trkpt>
<trkpt lat="46.0610770" lon="10.4891670">
	<ele>2513.80</ele>
	<time>2023-08-06T09:41:58.000Z</time>
</trkpt>
<trkpt lat="46.0610900" lon="10.4891700">
	<ele>2513.80</ele>
	<time>2023-08-06T09:41:59.000Z</time>
</trkpt>
<trkpt lat="46.0610950" lon="10.4891700">
	<ele>2513.60</ele>
	<time>2023-08-06T09:42:00.000Z</time>
</trkpt>
<trkpt lat="46.0611010" lon="10.4891700">
	<ele>2513.60</ele>
	<time>2023-08-06T09:42:01.000Z</time>
</trkpt>
<trkpt lat="46.0611060" lon="10.4891680">
	<ele>2513.60</ele>
	<time>2023-08-06T09:42:02.000Z</time>
</trkpt>
<trkpt lat="46.0611130" lon="10.4891650">
	<ele>2513.40</ele>
	<time>2023-08-06T09:42:03.000Z</time>
</trkpt>
<trkpt lat="46.0611200" lon="10.4891630">
	<ele>2513.40</ele>
	<time>2023-08-06T09:42:04.000Z</time>
</trkpt>
<trkpt lat="46.0611240" lon="10.4891640">
	<ele>2513.20</ele>
	<time>2023-08-06T09:42:05.000Z</time>
</trkpt>
<trkpt lat="46.0611310" lon="10.4891670">
	<ele>2513.20</ele>
	<time>2023-08-06T09:42:06.000Z</time>
</trkpt>
<trkpt lat="46.0611370" lon="10.4891690">
	<ele>2513.00</ele>
	<time>2023-08-06T09:42:07.000Z</time>
</trkpt>
<trkpt lat="46.0611440" lon="10.4891690">
	<ele>2513.00</ele>
	<time>2023-08-06T09:42:08.000Z</time>
</trkpt>
<trkpt lat="46.0611540" lon="10.4891730">
	<ele>2512.80</ele>
	<time>2023-08-06T09:42:09.000Z</time>
</trkpt>
<trkpt lat="46.0611610" lon="10.4891770">
	<ele>2512.60</ele>
	<time>2023-08-06T09:42:10.000Z</time>
</trkpt>
<trkpt lat="46.0611670" lon="10.4891810">
	<ele>2512.40</ele>
	<time>2023-08-06T09:42:11.000Z</time>
</trkpt>
<trkpt lat="46.0611700" lon="10.4891850">
	<ele>2512.40</ele>
	<time>2023-08-06T09:42:12.000Z</time>
</trkpt>
<trkpt lat="46.0611710" lon="10.4891880">
	<ele>2512.20</ele>
	<time>2023-08-06T09:42:13.000Z</time>
</trkpt>
<trkpt lat="46.0611750" lon="10.4891900">
	<ele>2512.00</ele>
	<time>2023-08-06T09:42:14.000Z</time>
</trkpt>
<trkpt lat="46.0611800" lon="10.4891900">
	<ele>2512.00</ele>
	<time>2023-08-06T09:42:15.000Z</time>
</trkpt>
<trkpt lat="46.0611870" lon="10.4891890">
	<ele>2512.00</ele>
	<time>2023-08-06T09:42:16.000Z</time>
</trkpt>
<trkpt lat="46.0611920" lon="10.4891890">
	<ele>2511.80</ele>
	<time>2023-08-06T09:42:17.000Z</time>
</trkpt>
<trkpt lat="46.0611960" lon="10.4891870">
	<ele>2511.80</ele>
	<time>2023-08-06T09:42:18.000Z</time>
</trkpt>
<trkpt lat="46.0612010" lon="10.4891840">
	<ele>2511.40</ele>
	<time>2023-08-06T09:42:19.000Z</time>
</trkpt>
<trkpt lat="46.0612090" lon="10.4891850">
	<ele>2511.40</ele>
	<time>2023-08-06T09:42:20.000Z</time>
</trkpt>
<trkpt lat="46.0612170" lon="10.4891870">
	<ele>2511.40</ele>
	<time>2023-08-06T09:42:21.000Z</time>
</trkpt>
<trkpt lat="46.0612230" lon="10.4891930">
	<ele>2511.20</ele>
	<time>2023-08-06T09:42:22.000Z</time>
</trkpt>
<trkpt lat="46.0612260" lon="10.4891980">
	<ele>2511.20</ele>
	<time>2023-08-06T09:42:23.000Z</time>
</trkpt>
<trkpt lat="46.0612260" lon="10.4892020">
	<ele>2511.20</ele>
	<time>2023-08-06T09:42:24.000Z</time>
</trkpt>
<trkpt lat="46.0612250" lon="10.4892020">
	<ele>2511.20</ele>
	<time>2023-08-06T09:42:25.000Z</time>
</trkpt>
<trkpt lat="46.0612250" lon="10.4891990">
	<ele>2511.20</ele>
	<time>2023-08-06T09:42:26.000Z</time>
</trkpt>
<trkpt lat="46.0612250" lon="10.4891960">
	<ele>2511.20</ele>
	<time>2023-08-06T09:42:27.000Z</time>
</trkpt>
<trkpt lat="46.0612280" lon="10.4891940">
	<ele>2511.20</ele>
	<time>2023-08-06T09:42:28.000Z</time>
</trkpt>
<trkpt lat="46.0612330" lon="10.4891900">
	<ele>2511.20</ele>
	<time>2023-08-06T09:42:29.000Z</time>
</trkpt>
<trkpt lat="46.0612390" lon="10.4891880">
	<ele>2511.00</ele>
	<time>2023-08-06T09:42:30.000Z</time>
</trkpt>
<trkpt lat="46.0612440" lon="10.4891870">
	<ele>2511.00</ele>
	<time>2023-08-06T09:42:31.000Z</time>
</trkpt>
<trkpt lat="46.0612510" lon="10.4891840">
	<ele>2510.80</ele>
	<time>2023-08-06T09:42:32.000Z</time>
</trkpt>
<trkpt lat="46.0612580" lon="10.4891840">
	<ele>2510.60</ele>
	<time>2023-08-06T09:42:33.000Z</time>
</trkpt>
<trkpt lat="46.0612660" lon="10.4891850">
	<ele>2510.60</ele>
	<time>2023-08-06T09:42:34.000Z</time>
</trkpt>
<trkpt lat="46.0612730" lon="10.4891830">
	<ele>2510.60</ele>
	<time>2023-08-06T09:42:35.000Z</time>
</trkpt>
<trkpt lat="46.0612780" lon="10.4891810">
	<ele>2510.60</ele>
	<time>2023-08-06T09:42:36.000Z</time>
</trkpt>
<trkpt lat="46.0612850" lon="10.4891770">
	<ele>2510.60</ele>
	<time>2023-08-06T09:42:37.000Z</time>
</trkpt>
<trkpt lat="46.0612910" lon="10.4891780">
	<ele>2510.60</ele>
	<time>2023-08-06T09:42:38.000Z</time>
</trkpt>
<trkpt lat="46.0612990" lon="10.4891780">
	<ele>2510.80</ele>
	<time>2023-08-06T09:42:39.000Z</time>
</trkpt>
<trkpt lat="46.0613030" lon="10.4891760">
	<ele>2511.00</ele>
	<time>2023-08-06T09:42:40.000Z</time>
</trkpt>
<trkpt lat="46.0613050" lon="10.4891740">
	<ele>2511.40</ele>
	<time>2023-08-06T09:42:41.000Z</time>
</trkpt>
<trkpt lat="46.0613060" lon="10.4891730">
	<ele>2511.40</ele>
	<time>2023-08-06T09:42:42.000Z</time>
</trkpt>
<trkpt lat="46.0613060" lon="10.4891720">
	<ele>2511.60</ele>
	<time>2023-08-06T09:42:43.000Z</time>
</trkpt>
<trkpt lat="46.0613070" lon="10.4891720">
	<ele>2511.40</ele>
	<time>2023-08-06T09:42:44.000Z</time>
</trkpt>
<trkpt lat="46.0613060" lon="10.4891740">
	<ele>2511.20</ele>
	<time>2023-08-06T09:42:45.000Z</time>
</trkpt>
<trkpt lat="46.0613080" lon="10.4891750">
	<ele>2511.20</ele>
	<time>2023-08-06T09:42:46.000Z</time>
</trkpt>
<trkpt lat="46.0613130" lon="10.4891750">
	<ele>2511.00</ele>
	<time>2023-08-06T09:42:47.000Z</time>
</trkpt>
<trkpt lat="46.0613160" lon="10.4891760">
	<ele>2511.00</ele>
	<time>2023-08-06T09:42:48.000Z</time>
</trkpt>
<trkpt lat="46.0613170" lon="10.4891760">
	<ele>2511.00</ele>
	<time>2023-08-06T09:42:49.000Z</time>
</trkpt>
<trkpt lat="46.0613190" lon="10.4891750">
	<ele>2511.00</ele>
	<time>2023-08-06T09:42:50.000Z</time>
</trkpt>
<trkpt lat="46.0613190" lon="10.4891750">
	<ele>2511.00</ele>
	<time>2023-08-06T09:42:51.000Z</time>
</trkpt>
<trkpt lat="46.0613190" lon="10.4891750">
	<ele>2511.00</ele>
	<time>2023-08-06T09:42:52.000Z</time>
</trkpt>
<trkpt lat="46.0613190" lon="10.4891750">
	<ele>2511.00</ele>
	<time>2023-08-06T09:42:53.000Z</time>
</trkpt>
<trkpt lat="46.0613190" lon="10.4891750">
	<ele>2511.00</ele>
	<time>2023-08-06T09:42:54.000Z</time>
</trkpt>
<trkpt lat="46.0613190" lon="10.4891750">
	<ele>2511.00</ele>
	<time>2023-08-06T09:42:55.000Z</time>
</trkpt>
<trkpt lat="46.0613190" lon="10.4891750">
	<ele>2510.80</ele>
	<time>2023-08-06T09:42:56.000Z</time>
</trkpt>
<trkpt lat="46.0613190" lon="10.4891750">
	<ele>2510.80</ele>
	<time>2023-08-06T09:42:57.000Z</time>
</trkpt>
<trkpt lat="46.0613190" lon="10.4891750">
	<ele>2510.80</ele>
	<time>2023-08-06T09:42:58.000Z</time>
</trkpt>
<trkpt lat="46.0613190" lon="10.4891750">
	<ele>2510.40</ele>
	<time>2023-08-06T09:42:59.000Z</time>
</trkpt>
<trkpt lat="46.0613190" lon="10.4891750">
	<ele>2510.20</ele>
	<time>2023-08-06T09:43:00.000Z</time>
</trkpt>
<trkpt lat="46.0613190" lon="10.4891750">
	<ele>2510.20</ele>
	<time>2023-08-06T09:43:01.000Z</time>
</trkpt>
<trkpt lat="46.0613190" lon="10.4891750">
	<ele>2510.00</ele>
	<time>2023-08-06T09:43:02.000Z</time>
</trkpt>
<trkpt lat="46.0613190" lon="10.4891750">
	<ele>2510.00</ele>
	<time>2023-08-06T09:43:03.000Z</time>
</trkpt>
<trkpt lat="46.0613190" lon="10.4891750">
	<ele>2510.00</ele>
	<time>2023-08-06T09:43:04.000Z</time>
</trkpt>
<trkpt lat="46.0613190" lon="10.4891750">
	<ele>2510.00</ele>
	<time>2023-08-06T09:43:05.000Z</time>
</trkpt>
<trkpt lat="46.0613190" lon="10.4891750">
	<ele>2510.00</ele>
	<time>2023-08-06T09:43:06.000Z</time>
</trkpt>
<trkpt lat="46.0613200" lon="10.4891750">
	<ele>2510.00</ele>
	<time>2023-08-06T09:43:07.000Z</time>
</trkpt>
<trkpt lat="46.0613200" lon="10.4891750">
	<ele>2510.00</ele>
	<time>2023-08-06T09:43:08.000Z</time>
</trkpt>
<trkpt lat="46.0613200" lon="10.4891750">
	<ele>2510.00</ele>
	<time>2023-08-06T09:43:09.000Z</time>
</trkpt>
<trkpt lat="46.0613200" lon="10.4891750">
	<ele>2510.00</ele>
	<time>2023-08-06T09:43:10.000Z</time>
</trkpt>
<trkpt lat="46.0613210" lon="10.4891750">
	<ele>2510.00</ele>
	<time>2023-08-06T09:43:11.000Z</time>
</trkpt>
<trkpt lat="46.0613210" lon="10.4891750">
	<ele>2510.00</ele>
	<time>2023-08-06T09:43:12.000Z</time>
</trkpt>
<trkpt lat="46.0613240" lon="10.4891750">
	<ele>2509.80</ele>
	<time>2023-08-06T09:43:13.000Z</time>
</trkpt>
<trkpt lat="46.0613290" lon="10.4891750">
	<ele>2509.80</ele>
	<time>2023-08-06T09:43:14.000Z</time>
</trkpt>
<trkpt lat="46.0613330" lon="10.4891750">
	<ele>2509.80</ele>
	<time>2023-08-06T09:43:15.000Z</time>
</trkpt>
<trkpt lat="46.0613340" lon="10.4891750">
	<ele>2509.80</ele>
	<time>2023-08-06T09:43:16.000Z</time>
</trkpt>
<trkpt lat="46.0613340" lon="10.4891750">
	<ele>2509.80</ele>
	<time>2023-08-06T09:43:17.000Z</time>
</trkpt>
<trkpt lat="46.0613340" lon="10.4891760">
	<ele>2510.00</ele>
	<time>2023-08-06T09:43:18.000Z</time>
</trkpt>
<trkpt lat="46.0613340" lon="10.4891760">
	<ele>2510.20</ele>
	<time>2023-08-06T09:43:19.000Z</time>
</trkpt>
<trkpt lat="46.0613340" lon="10.4891760">
	<ele>2510.40</ele>
	<time>2023-08-06T09:43:20.000Z</time>
</trkpt>
<trkpt lat="46.0613340" lon="10.4891760">
	<ele>2510.60</ele>
	<time>2023-08-06T09:43:21.000Z</time>
</trkpt>
<trkpt lat="46.0613340" lon="10.4891760">
	<ele>2510.60</ele>
	<time>2023-08-06T09:43:22.000Z</time>
</trkpt>
<trkpt lat="46.0613340" lon="10.4891760">
	<ele>2510.60</ele>
	<time>2023-08-06T09:43:23.000Z</time>
</trkpt>
<trkpt lat="46.0613340" lon="10.4891760">
	<ele>2510.60</ele>
	<time>2023-08-06T09:43:24.000Z</time>
</trkpt>
<trkpt lat="46.0613340" lon="10.4891770">
	<ele>2510.60</ele>
	<time>2023-08-06T09:43:25.000Z</time>
</trkpt>
<trkpt lat="46.0613340" lon="10.4891770">
	<ele>2510.60</ele>
	<time>2023-08-06T09:43:26.000Z</time>
</trkpt>
<trkpt lat="46.0613350" lon="10.4891770">
	<ele>2510.60</ele>
	<time>2023-08-06T09:43:27.000Z</time>
</trkpt>
<trkpt lat="46.0613350" lon="10.4891780">
	<ele>2510.60</ele>
	<time>2023-08-06T09:43:28.000Z</time>
</trkpt>
<trkpt lat="46.0613350" lon="10.4891790">
	<ele>2510.60</ele>
	<time>2023-08-06T09:43:29.000Z</time>
</trkpt>
<trkpt lat="46.0613360" lon="10.4891790">
	<ele>2510.80</ele>
	<time>2023-08-06T09:43:30.000Z</time>
</trkpt>
<trkpt lat="46.0613360" lon="10.4891790">
	<ele>2510.80</ele>
	<time>2023-08-06T09:43:31.000Z</time>
</trkpt>
<trkpt lat="46.0613360" lon="10.4891790">
	<ele>2510.80</ele>
	<time>2023-08-06T09:43:32.000Z</time>
</trkpt>
<trkpt lat="46.0613360" lon="10.4891790">
	<ele>2510.80</ele>
	<time>2023-08-06T09:43:33.000Z</time>
</trkpt>
<trkpt lat="46.0613360" lon="10.4891790">
	<ele>2510.80</ele>
	<time>2023-08-06T09:43:34.000Z</time>
</trkpt>
<trkpt lat="46.0613360" lon="10.4891790">
	<ele>2510.60</ele>
	<time>2023-08-06T09:43:35.000Z</time>
</trkpt>
<trkpt lat="46.0613360" lon="10.4891790">
	<ele>2510.60</ele>
	<time>2023-08-06T09:43:36.000Z</time>
</trkpt>
<trkpt lat="46.0613360" lon="10.4891790">
	<ele>2510.60</ele>
	<time>2023-08-06T09:43:37.000Z</time>
</trkpt>
<trkpt lat="46.0613360" lon="10.4891790">
	<ele>2510.60</ele>
	<time>2023-08-06T09:43:38.000Z</time>
</trkpt>
<trkpt lat="46.0613360" lon="10.4891790">
	<ele>2510.60</ele>
	<time>2023-08-06T09:43:39.000Z</time>
</trkpt>
<trkpt lat="46.0613360" lon="10.4891790">
	<ele>2510.60</ele>
	<time>2023-08-06T09:43:40.000Z</time>
</trkpt>
<trkpt lat="46.0613350" lon="10.4891790">
	<ele>2510.60</ele>
	<time>2023-08-06T09:43:41.000Z</time>
</trkpt>
<trkpt lat="46.0613350" lon="10.4891790">
	<ele>2510.80</ele>
	<time>2023-08-06T09:43:42.000Z</time>
</trkpt>
<trkpt lat="46.0613350" lon="10.4891790">
	<ele>2510.60</ele>
	<time>2023-08-06T09:43:43.000Z</time>
</trkpt>
<trkpt lat="46.0613350" lon="10.4891790">
	<ele>2510.60</ele>
	<time>2023-08-06T09:43:44.000Z</time>
</trkpt>
<trkpt lat="46.0613350" lon="10.4891790">
	<ele>2510.80</ele>
	<time>2023-08-06T09:43:45.000Z</time>
</trkpt>
<trkpt lat="46.0613350" lon="10.4891790">
	<ele>2510.80</ele>
	<time>2023-08-06T09:43:46.000Z</time>
</trkpt>
<trkpt lat="46.0613350" lon="10.4891790">
	<ele>2510.80</ele>
	<time>2023-08-06T09:43:47.000Z</time>
</trkpt>
<trkpt lat="46.0613350" lon="10.4891790">
	<ele>2510.80</ele>
	<time>2023-08-06T09:43:48.000Z</time>
</trkpt>
<trkpt lat="46.0613350" lon="10.4891790">
	<ele>2511.00</ele>
	<time>2023-08-06T09:43:49.000Z</time>
</trkpt>
<trkpt lat="46.0613360" lon="10.4891780">
	<ele>2511.00</ele>
	<time>2023-08-06T09:43:50.000Z</time>
</trkpt>
<trkpt lat="46.0613360" lon="10.4891780">
	<ele>2511.20</ele>
	<time>2023-08-06T09:43:51.000Z</time>
</trkpt>
<trkpt lat="46.0613360" lon="10.4891780">
	<ele>2511.20</ele>
	<time>2023-08-06T09:43:52.000Z</time>
</trkpt>
<trkpt lat="46.0613360" lon="10.4891780">
	<ele>2511.20</ele>
	<time>2023-08-06T09:43:53.000Z</time>
</trkpt>
<trkpt lat="46.0613370" lon="10.4891780">
	<ele>2511.20</ele>
	<time>2023-08-06T09:43:54.000Z</time>
</trkpt>
<trkpt lat="46.0613370" lon="10.4891780">
	<ele>2511.20</ele>
	<time>2023-08-06T09:43:55.000Z</time>
</trkpt>
<trkpt lat="46.0613370" lon="10.4891780">
	<ele>2511.00</ele>
	<time>2023-08-06T09:43:56.000Z</time>
</trkpt>
<trkpt lat="46.0613370" lon="10.4891780">
	<ele>2511.00</ele>
	<time>2023-08-06T09:43:57.000Z</time>
</trkpt>
<trkpt lat="46.0613370" lon="10.4891780">
	<ele>2511.00</ele>
	<time>2023-08-06T09:43:58.000Z</time>
</trkpt>
<trkpt lat="46.0613370" lon="10.4891780">
	<ele>2511.00</ele>
	<time>2023-08-06T09:43:59.000Z</time>
</trkpt>
<trkpt lat="46.0613380" lon="10.4891780">
	<ele>2511.00</ele>
	<time>2023-08-06T09:44:00.000Z</time>
</trkpt>
<trkpt lat="46.0613380" lon="10.4891790">
	<ele>2511.00</ele>
	<time>2023-08-06T09:44:01.000Z</time>
</trkpt>
<trkpt lat="46.0613380" lon="10.4891790">
	<ele>2511.00</ele>
	<time>2023-08-06T09:44:02.000Z</time>
</trkpt>
<trkpt lat="46.0613390" lon="10.4891790">
	<ele>2511.20</ele>
	<time>2023-08-06T09:44:03.000Z</time>
</trkpt>
<trkpt lat="46.0613400" lon="10.4891790">
	<ele>2511.20</ele>
	<time>2023-08-06T09:44:04.000Z</time>
</trkpt>
<trkpt lat="46.0613400" lon="10.4891800">
	<ele>2511.20</ele>
	<time>2023-08-06T09:44:05.000Z</time>
</trkpt>
<trkpt lat="46.0613410" lon="10.4891840">
	<ele>2511.00</ele>
	<time>2023-08-06T09:44:06.000Z</time>
</trkpt>
<trkpt lat="46.0613410" lon="10.4891880">
	<ele>2511.00</ele>
	<time>2023-08-06T09:44:07.000Z</time>
</trkpt>
<trkpt lat="46.0613420" lon="10.4891930">
	<ele>2510.80</ele>
	<time>2023-08-06T09:44:08.000Z</time>
</trkpt>
<trkpt lat="46.0613420" lon="10.4891980">
	<ele>2510.80</ele>
	<time>2023-08-06T09:44:09.000Z</time>
</trkpt>
<trkpt lat="46.0613430" lon="10.4892010">
	<ele>2510.60</ele>
	<time>2023-08-06T09:44:10.000Z</time>
</trkpt>
<trkpt lat="46.0613440" lon="10.4892020">
	<ele>2510.40</ele>
	<time>2023-08-06T09:44:11.000Z</time>
</trkpt>
<trkpt lat="46.0613440" lon="10.4892020">
	<ele>2510.40</ele>
	<time>2023-08-06T09:44:12.000Z</time>
</trkpt>
<trkpt lat="46.0613440" lon="10.4892030">
	<ele>2510.20</ele>
	<time>2023-08-06T09:44:13.000Z</time>
</trkpt>
<trkpt lat="46.0613440" lon="10.4892030">
	<ele>2510.00</ele>
	<time>2023-08-06T09:44:14.000Z</time>
</trkpt>
<trkpt lat="46.0613440" lon="10.4892040">
	<ele>2510.00</ele>
	<time>2023-08-06T09:44:15.000Z</time>
</trkpt>
<trkpt lat="46.0613440" lon="10.4892040">
	<ele>2509.80</ele>
	<time>2023-08-06T09:44:16.000Z</time>
</trkpt>
<trkpt lat="46.0613440" lon="10.4892050">
	<ele>2509.80</ele>
	<time>2023-08-06T09:44:17.000Z</time>
</trkpt>
<trkpt lat="46.0613440" lon="10.4892060">
	<ele>2509.80</ele>
	<time>2023-08-06T09:44:18.000Z</time>
</trkpt>
<trkpt lat="46.0613440" lon="10.4892080">
	<ele>2509.80</ele>
	<time>2023-08-06T09:44:19.000Z</time>
</trkpt>
<trkpt lat="46.0613430" lon="10.4892110">
	<ele>2509.80</ele>
	<time>2023-08-06T09:44:20.000Z</time>
</trkpt>
<trkpt lat="46.0613420" lon="10.4892150">
	<ele>2509.80</ele>
	<time>2023-08-06T09:44:21.000Z</time>
</trkpt>
<trkpt lat="46.0613420" lon="10.4892160">
	<ele>2509.80</ele>
	<time>2023-08-06T09:44:22.000Z</time>
</trkpt>
<trkpt lat="46.0613410" lon="10.4892170">
	<ele>2509.80</ele>
	<time>2023-08-06T09:44:23.000Z</time>
</trkpt>
<trkpt lat="46.0613410" lon="10.4892180">
	<ele>2509.80</ele>
	<time>2023-08-06T09:44:24.000Z</time>
</trkpt>
<trkpt lat="46.0613410" lon="10.4892180">
	<ele>2509.80</ele>
	<time>2023-08-06T09:44:25.000Z</time>
</trkpt>
<trkpt lat="46.0613400" lon="10.4892180">
	<ele>2509.80</ele>
	<time>2023-08-06T09:44:26.000Z</time>
</trkpt>
<trkpt lat="46.0613400" lon="10.4892180">
	<ele>2510.00</ele>
	<time>2023-08-06T09:44:27.000Z</time>
</trkpt>
<trkpt lat="46.0613390" lon="10.4892180">
	<ele>2510.00</ele>
	<time>2023-08-06T09:44:28.000Z</time>
</trkpt>
<trkpt lat="46.0613370" lon="10.4892180">
	<ele>2510.00</ele>
	<time>2023-08-06T09:44:29.000Z</time>
</trkpt>
<trkpt lat="46.0613330" lon="10.4892180">
	<ele>2510.20</ele>
	<time>2023-08-06T09:44:30.000Z</time>
</trkpt>
<trkpt lat="46.0613310" lon="10.4892180">
	<ele>2510.40</ele>
	<time>2023-08-06T09:44:31.000Z</time>
</trkpt>
<trkpt lat="46.0613300" lon="10.4892180">
	<ele>2510.80</ele>
	<time>2023-08-06T09:44:32.000Z</time>
</trkpt>
<trkpt lat="46.0613290" lon="10.4892180">
	<ele>2510.80</ele>
	<time>2023-08-06T09:44:33.000Z</time>
</trkpt>
<trkpt lat="46.0613290" lon="10.4892180">
	<ele>2511.00</ele>
	<time>2023-08-06T09:44:34.000Z</time>
</trkpt>
<trkpt lat="46.0613280" lon="10.4892180">
	<ele>2511.00</ele>
	<time>2023-08-06T09:44:35.000Z</time>
</trkpt>
<trkpt lat="46.0613270" lon="10.4892180">
	<ele>2510.80</ele>
	<time>2023-08-06T09:44:36.000Z</time>
</trkpt>
<trkpt lat="46.0613270" lon="10.4892180">
	<ele>2510.80</ele>
	<time>2023-08-06T09:44:37.000Z</time>
</trkpt>
<trkpt lat="46.0613260" lon="10.4892180">
	<ele>2510.60</ele>
	<time>2023-08-06T09:44:38.000Z</time>
</trkpt>
<trkpt lat="46.0613250" lon="10.4892180">
	<ele>2510.60</ele>
	<time>2023-08-06T09:44:39.000Z</time>
</trkpt>
<trkpt lat="46.0613250" lon="10.4892170">
	<ele>2510.60</ele>
	<time>2023-08-06T09:44:40.000Z</time>
</trkpt>
<trkpt lat="46.0613240" lon="10.4892170">
	<ele>2510.60</ele>
	<time>2023-08-06T09:44:41.000Z</time>
</trkpt>
<trkpt lat="46.0613240" lon="10.4892170">
	<ele>2510.60</ele>
	<time>2023-08-06T09:44:42.000Z</time>
</trkpt>
<trkpt lat="46.0613230" lon="10.4892160">
	<ele>2510.40</ele>
	<time>2023-08-06T09:44:43.000Z</time>
</trkpt>
<trkpt lat="46.0613230" lon="10.4892160">
	<ele>2510.40</ele>
	<time>2023-08-06T09:44:44.000Z</time>
</trkpt>
<trkpt lat="46.0613230" lon="10.4892150">
	<ele>2510.40</ele>
	<time>2023-08-06T09:44:45.000Z</time>
</trkpt>
<trkpt lat="46.0613230" lon="10.4892150">
	<ele>2510.40</ele>
	<time>2023-08-06T09:44:46.000Z</time>
</trkpt>
<trkpt lat="46.0613230" lon="10.4892150">
	<ele>2510.40</ele>
	<time>2023-08-06T09:44:47.000Z</time>
</trkpt>
<trkpt lat="46.0613230" lon="10.4892150">
	<ele>2510.40</ele>
	<time>2023-08-06T09:44:48.000Z</time>
</trkpt>
<trkpt lat="46.0613230" lon="10.4892150">
	<ele>2510.40</ele>
	<time>2023-08-06T09:44:49.000Z</time>
</trkpt>
<trkpt lat="46.0613230" lon="10.4892150">
	<ele>2510.40</ele>
	<time>2023-08-06T09:44:50.000Z</time>
</trkpt>
<trkpt lat="46.0613230" lon="10.4892150">
	<ele>2510.40</ele>
	<time>2023-08-06T09:44:51.000Z</time>
</trkpt>
<trkpt lat="46.0613230" lon="10.4892150">
	<ele>2510.40</ele>
	<time>2023-08-06T09:44:52.000Z</time>
</trkpt>
<trkpt lat="46.0613230" lon="10.4892150">
	<ele>2510.40</ele>
	<time>2023-08-06T09:44:53.000Z</time>
</trkpt>
<trkpt lat="46.0613230" lon="10.4892150">
	<ele>2510.40</ele>
	<time>2023-08-06T09:44:54.000Z</time>
</trkpt>
<trkpt lat="46.0613230" lon="10.4892150">
	<ele>2510.40</ele>
	<time>2023-08-06T09:44:55.000Z</time>
</trkpt>
<trkpt lat="46.0613230" lon="10.4892150">
	<ele>2510.40</ele>
	<time>2023-08-06T09:44:56.000Z</time>
</trkpt>
<trkpt lat="46.0613230" lon="10.4892140">
	<ele>2510.40</ele>
	<time>2023-08-06T09:44:57.000Z</time>
</trkpt>
<trkpt lat="46.0613230" lon="10.4892140">
	<ele>2510.40</ele>
	<time>2023-08-06T09:44:58.000Z</time>
</trkpt>
<trkpt lat="46.0613220" lon="10.4892140">
	<ele>2510.40</ele>
	<time>2023-08-06T09:44:59.000Z</time>
</trkpt>
<trkpt lat="46.0613220" lon="10.4892140">
	<ele>2510.40</ele>
	<time>2023-08-06T09:45:00.000Z</time>
</trkpt>
<trkpt lat="46.0613220" lon="10.4892140">
	<ele>2510.40</ele>
	<time>2023-08-06T09:45:01.000Z</time>
</trkpt>
<trkpt lat="46.0613220" lon="10.4892140">
	<ele>2510.40</ele>
	<time>2023-08-06T09:45:02.000Z</time>
</trkpt>
<trkpt lat="46.0613220" lon="10.4892140">
	<ele>2510.40</ele>
	<time>2023-08-06T09:45:03.000Z</time>
</trkpt>
<trkpt lat="46.0613220" lon="10.4892130">
	<ele>2510.40</ele>
	<time>2023-08-06T09:45:04.000Z</time>
</trkpt>
<trkpt lat="46.0613210" lon="10.4892130">
	<ele>2510.40</ele>
	<time>2023-08-06T09:45:05.000Z</time>
</trkpt>
<trkpt lat="46.0613200" lon="10.4892120">
	<ele>2510.40</ele>
	<time>2023-08-06T09:45:06.000Z</time>
</trkpt>
<trkpt lat="46.0613200" lon="10.4892110">
	<ele>2510.40</ele>
	<time>2023-08-06T09:45:07.000Z</time>
</trkpt>
<trkpt lat="46.0613200" lon="10.4892090">
	<ele>2510.40</ele>
	<time>2023-08-06T09:45:08.000Z</time>
</trkpt>
<trkpt lat="46.0613190" lon="10.4892080">
	<ele>2510.40</ele>
	<time>2023-08-06T09:45:09.000Z</time>
</trkpt>
<trkpt lat="46.0613190" lon="10.4892070">
	<ele>2510.40</ele>
	<time>2023-08-06T09:45:10.000Z</time>
</trkpt>
<trkpt lat="46.0613190" lon="10.4892060">
	<ele>2510.40</ele>
	<time>2023-08-06T09:45:11.000Z</time>
</trkpt>
<trkpt lat="46.0613190" lon="10.4892050">
	<ele>2510.40</ele>
	<time>2023-08-06T09:45:12.000Z</time>
</trkpt>
<trkpt lat="46.0613180" lon="10.4892040">
	<ele>2510.40</ele>
	<time>2023-08-06T09:45:13.000Z</time>
</trkpt>
<trkpt lat="46.0613180" lon="10.4892040">
	<ele>2510.40</ele>
	<time>2023-08-06T09:45:14.000Z</time>
</trkpt>
<trkpt lat="46.0613180" lon="10.4892040">
	<ele>2510.40</ele>
	<time>2023-08-06T09:45:15.000Z</time>
</trkpt>
<trkpt lat="46.0613180" lon="10.4892030">
	<ele>2510.40</ele>
	<time>2023-08-06T09:45:16.000Z</time>
</trkpt>
<trkpt lat="46.0613180" lon="10.4892030">
	<ele>2510.40</ele>
	<time>2023-08-06T09:45:17.000Z</time>
</trkpt>
<trkpt lat="46.0613180" lon="10.4892020">
	<ele>2510.40</ele>
	<time>2023-08-06T09:45:18.000Z</time>
</trkpt>
<trkpt lat="46.0613180" lon="10.4892020">
	<ele>2510.40</ele>
	<time>2023-08-06T09:45:19.000Z</time>
</trkpt>
<trkpt lat="46.0613180" lon="10.4892010">
	<ele>2510.40</ele>
	<time>2023-08-06T09:45:20.000Z</time>
</trkpt>
<trkpt lat="46.0613180" lon="10.4892000">
	<ele>2510.40</ele>
	<time>2023-08-06T09:45:21.000Z</time>
</trkpt>
<trkpt lat="46.0613180" lon="10.4892000">
	<ele>2510.40</ele>
	<time>2023-08-06T09:45:22.000Z</time>
</trkpt>
<trkpt lat="46.0613180" lon="10.4891990">
	<ele>2510.40</ele>
	<time>2023-08-06T09:45:23.000Z</time>
</trkpt>
<trkpt lat="46.0613180" lon="10.4891990">
	<ele>2510.40</ele>
	<time>2023-08-06T09:45:24.000Z</time>
</trkpt>
<trkpt lat="46.0613190" lon="10.4891990">
	<ele>2510.40</ele>
	<time>2023-08-06T09:45:25.000Z</time>
</trkpt>
<trkpt lat="46.0613190" lon="10.4891980">
	<ele>2510.40</ele>
	<time>2023-08-06T09:45:26.000Z</time>
</trkpt>
<trkpt lat="46.0613190" lon="10.4891980">
	<ele>2510.40</ele>
	<time>2023-08-06T09:45:27.000Z</time>
</trkpt>
<trkpt lat="46.0613200" lon="10.4891980">
	<ele>2510.40</ele>
	<time>2023-08-06T09:45:28.000Z</time>
</trkpt>
<trkpt lat="46.0613210" lon="10.4891970">
	<ele>2510.40</ele>
	<time>2023-08-06T09:45:29.000Z</time>
</trkpt>
<trkpt lat="46.0613210" lon="10.4891970">
	<ele>2510.40</ele>
	<time>2023-08-06T09:45:30.000Z</time>
</trkpt>
<trkpt lat="46.0613220" lon="10.4891960">
	<ele>2510.40</ele>
	<time>2023-08-06T09:45:31.000Z</time>
</trkpt>
<trkpt lat="46.0613220" lon="10.4891960">
	<ele>2510.40</ele>
	<time>2023-08-06T09:45:32.000Z</time>
</trkpt>
<trkpt lat="46.0613220" lon="10.4891950">
	<ele>2510.40</ele>
	<time>2023-08-06T09:45:33.000Z</time>
</trkpt>
<trkpt lat="46.0613230" lon="10.4891950">
	<ele>2510.40</ele>
	<time>2023-08-06T09:45:34.000Z</time>
</trkpt>
<trkpt lat="46.0613230" lon="10.4891950">
	<ele>2510.40</ele>
	<time>2023-08-06T09:45:35.000Z</time>
</trkpt>
<trkpt lat="46.0613230" lon="10.4891940">
	<ele>2510.40</ele>
	<time>2023-08-06T09:45:36.000Z</time>
</trkpt>
<trkpt lat="46.0613240" lon="10.4891940">
	<ele>2510.40</ele>
	<time>2023-08-06T09:45:37.000Z</time>
</trkpt>
<trkpt lat="46.0613240" lon="10.4891940">
	<ele>2510.40</ele>
	<time>2023-08-06T09:45:38.000Z</time>
</trkpt>
<trkpt lat="46.0613240" lon="10.4891940">
	<ele>2510.40</ele>
	<time>2023-08-06T09:45:39.000Z</time>
</trkpt>
<trkpt lat="46.0613240" lon="10.4891930">
	<ele>2510.40</ele>
	<time>2023-08-06T09:45:40.000Z</time>
</trkpt>
<trkpt lat="46.0613240" lon="10.4891930">
	<ele>2510.40</ele>
	<time>2023-08-06T09:45:41.000Z</time>
</trkpt>
<trkpt lat="46.0613240" lon="10.4891930">
	<ele>2510.40</ele>
	<time>2023-08-06T09:45:42.000Z</time>
</trkpt>
<trkpt lat="46.0613240" lon="10.4891930">
	<ele>2510.40</ele>
	<time>2023-08-06T09:45:43.000Z</time>
</trkpt>
<trkpt lat="46.0613250" lon="10.4891920">
	<ele>2510.40</ele>
	<time>2023-08-06T09:45:44.000Z</time>
</trkpt>
<trkpt lat="46.0613250" lon="10.4891920">
	<ele>2510.40</ele>
	<time>2023-08-06T09:45:45.000Z</time>
</trkpt>
<trkpt lat="46.0613250" lon="10.4891920">
	<ele>2510.40</ele>
	<time>2023-08-06T09:45:46.000Z</time>
</trkpt>
<trkpt lat="46.0613250" lon="10.4891910">
	<ele>2510.40</ele>
	<time>2023-08-06T09:45:47.000Z</time>
</trkpt>
<trkpt lat="46.0613250" lon="10.4891910">
	<ele>2510.40</ele>
	<time>2023-08-06T09:45:48.000Z</time>
</trkpt>
<trkpt lat="46.0613250" lon="10.4891900">
	<ele>2510.40</ele>
	<time>2023-08-06T09:45:49.000Z</time>
</trkpt>
<trkpt lat="46.0613250" lon="10.4891900">
	<ele>2510.40</ele>
	<time>2023-08-06T09:45:50.000Z</time>
</trkpt>
<trkpt lat="46.0613250" lon="10.4891890">
	<ele>2510.40</ele>
	<time>2023-08-06T09:45:51.000Z</time>
</trkpt>
<trkpt lat="46.0613250" lon="10.4891890">
	<ele>2510.40</ele>
	<time>2023-08-06T09:45:52.000Z</time>
</trkpt>
<trkpt lat="46.0613250" lon="10.4891880">
	<ele>2510.40</ele>
	<time>2023-08-06T09:45:53.000Z</time>
</trkpt>
<trkpt lat="46.0613250" lon="10.4891880">
	<ele>2510.40</ele>
	<time>2023-08-06T09:45:54.000Z</time>
</trkpt>
<trkpt lat="46.0613250" lon="10.4891880">
	<ele>2510.40</ele>
	<time>2023-08-06T09:45:55.000Z</time>
</trkpt>
<trkpt lat="46.0613250" lon="10.4891870">
	<ele>2510.40</ele>
	<time>2023-08-06T09:45:56.000Z</time>
</trkpt>
<trkpt lat="46.0613250" lon="10.4891870">
	<ele>2510.40</ele>
	<time>2023-08-06T09:45:57.000Z</time>
</trkpt>
<trkpt lat="46.0613250" lon="10.4891870">
	<ele>2510.40</ele>
	<time>2023-08-06T09:45:58.000Z</time>
</trkpt>
<trkpt lat="46.0613250" lon="10.4891870">
	<ele>2510.40</ele>
	<time>2023-08-06T09:45:59.000Z</time>
</trkpt>
<trkpt lat="46.0613250" lon="10.4891860">
	<ele>2510.40</ele>
	<time>2023-08-06T09:46:00.000Z</time>
</trkpt>
<trkpt lat="46.0613250" lon="10.4891860">
	<ele>2510.40</ele>
	<time>2023-08-06T09:46:01.000Z</time>
</trkpt>
<trkpt lat="46.0613250" lon="10.4891860">
	<ele>2510.40</ele>
	<time>2023-08-06T09:46:02.000Z</time>
</trkpt>
<trkpt lat="46.0613250" lon="10.4891860">
	<ele>2510.40</ele>
	<time>2023-08-06T09:46:03.000Z</time>
</trkpt>
<trkpt lat="46.0613250" lon="10.4891860">
	<ele>2510.40</ele>
	<time>2023-08-06T09:46:04.000Z</time>
</trkpt>
<trkpt lat="46.0613250" lon="10.4891860">
	<ele>2510.40</ele>
	<time>2023-08-06T09:46:05.000Z</time>
</trkpt>
<trkpt lat="46.0613250" lon="10.4891860">
	<ele>2510.40</ele>
	<time>2023-08-06T09:46:06.000Z</time>
</trkpt>
<trkpt lat="46.0613250" lon="10.4891850">
	<ele>2510.40</ele>
	<time>2023-08-06T09:46:07.000Z</time>
</trkpt>
<trkpt lat="46.0613250" lon="10.4891850">
	<ele>2510.40</ele>
	<time>2023-08-06T09:46:08.000Z</time>
</trkpt>
<trkpt lat="46.0613250" lon="10.4891850">
	<ele>2510.40</ele>
	<time>2023-08-06T09:46:09.000Z</time>
</trkpt>
<trkpt lat="46.0613250" lon="10.4891850">
	<ele>2510.40</ele>
	<time>2023-08-06T09:46:10.000Z</time>
</trkpt>
<trkpt lat="46.0613250" lon="10.4891850">
	<ele>2510.40</ele>
	<time>2023-08-06T09:46:11.000Z</time>
</trkpt>
<trkpt lat="46.0613250" lon="10.4891850">
	<ele>2510.40</ele>
	<time>2023-08-06T09:46:12.000Z</time>
</trkpt>
<trkpt lat="46.0613260" lon="10.4891850">
	<ele>2510.40</ele>
	<time>2023-08-06T09:46:13.000Z</time>
</trkpt>
<trkpt lat="46.0613260" lon="10.4891860">
	<ele>2510.40</ele>
	<time>2023-08-06T09:46:14.000Z</time>
</trkpt>
<trkpt lat="46.0613260" lon="10.4891860">
	<ele>2510.40</ele>
	<time>2023-08-06T09:46:15.000Z</time>
</trkpt>
<trkpt lat="46.0613250" lon="10.4891860">
	<ele>2510.40</ele>
	<time>2023-08-06T09:46:16.000Z</time>
</trkpt>
<trkpt lat="46.0613260" lon="10.4891860">
	<ele>2510.40</ele>
	<time>2023-08-06T09:46:17.000Z</time>
</trkpt>
<trkpt lat="46.0613260" lon="10.4891860">
	<ele>2510.40</ele>
	<time>2023-08-06T09:46:18.000Z</time>
</trkpt>
<trkpt lat="46.0613260" lon="10.4891860">
	<ele>2510.40</ele>
	<time>2023-08-06T09:46:19.000Z</time>
</trkpt>
<trkpt lat="46.0613260" lon="10.4891860">
	<ele>2510.40</ele>
	<time>2023-08-06T09:46:20.000Z</time>
</trkpt>
<trkpt lat="46.0613260" lon="10.4891860">
	<ele>2510.40</ele>
	<time>2023-08-06T09:46:21.000Z</time>
</trkpt>
<trkpt lat="46.0613260" lon="10.4891860">
	<ele>2510.40</ele>
	<time>2023-08-06T09:46:22.000Z</time>
</trkpt>
<trkpt lat="46.0613260" lon="10.4891860">
	<ele>2510.40</ele>
	<time>2023-08-06T09:46:23.000Z</time>
</trkpt>
<trkpt lat="46.0613260" lon="10.4891860">
	<ele>2510.40</ele>
	<time>2023-08-06T09:46:24.000Z</time>
</trkpt>
<trkpt lat="46.0613260" lon="10.4891860">
	<ele>2510.40</ele>
	<time>2023-08-06T09:46:25.000Z</time>
</trkpt>
<trkpt lat="46.0613260" lon="10.4891860">
	<ele>2510.40</ele>
	<time>2023-08-06T09:46:26.000Z</time>
</trkpt>
<trkpt lat="46.0613260" lon="10.4891860">
	<ele>2510.40</ele>
	<time>2023-08-06T09:46:27.000Z</time>
</trkpt>
<trkpt lat="46.0613250" lon="10.4891860">
	<ele>2510.40</ele>
	<time>2023-08-06T09:46:28.000Z</time>
</trkpt>
<trkpt lat="46.0613260" lon="10.4891860">
	<ele>2510.40</ele>
	<time>2023-08-06T09:46:29.000Z</time>
</trkpt>
<trkpt lat="46.0613260" lon="10.4891860">
	<ele>2510.40</ele>
	<time>2023-08-06T09:46:30.000Z</time>
</trkpt>
<trkpt lat="46.0613260" lon="10.4891860">
	<ele>2510.40</ele>
	<time>2023-08-06T09:46:31.000Z</time>
</trkpt>
<trkpt lat="46.0613260" lon="10.4891860">
	<ele>2510.40</ele>
	<time>2023-08-06T09:46:32.000Z</time>
</trkpt>
<trkpt lat="46.0613260" lon="10.4891860">
	<ele>2510.40</ele>
	<time>2023-08-06T09:46:33.000Z</time>
</trkpt>
<trkpt lat="46.0613260" lon="10.4891860">
	<ele>2510.40</ele>
	<time>2023-08-06T09:46:34.000Z</time>
</trkpt>
<trkpt lat="46.0613260" lon="10.4891860">
	<ele>2510.40</ele>
	<time>2023-08-06T09:46:35.000Z</time>
</trkpt>
<trkpt lat="46.0613260" lon="10.4891860">
	<ele>2510.40</ele>
	<time>2023-08-06T09:46:36.000Z</time>
</trkpt>
<trkpt lat="46.0613260" lon="10.4891860">
	<ele>2510.40</ele>
	<time>2023-08-06T09:46:37.000Z</time>
</trkpt>
<trkpt lat="46.0613260" lon="10.4891860">
	<ele>2510.40</ele>
	<time>2023-08-06T09:46:38.000Z</time>
</trkpt>
<trkpt lat="46.0613260" lon="10.4891860">
	<ele>2510.40</ele>
	<time>2023-08-06T09:46:39.000Z</time>
</trkpt>
<trkpt lat="46.0613260" lon="10.4891860">
	<ele>2510.40</ele>
	<time>2023-08-06T09:46:40.000Z</time>
</trkpt>
<trkpt lat="46.0613260" lon="10.4891860">
	<ele>2510.40</ele>
	<time>2023-08-06T09:46:41.000Z</time>
</trkpt>
<trkpt lat="46.0613260" lon="10.4891860">
	<ele>2510.40</ele>
	<time>2023-08-06T09:46:42.000Z</time>
</trkpt>
<trkpt lat="46.0613260" lon="10.4891860">
	<ele>2510.40</ele>
	<time>2023-08-06T09:46:43.000Z</time>
</trkpt>
<trkpt lat="46.0613260" lon="10.4891860">
	<ele>2510.40</ele>
	<time>2023-08-06T09:46:44.000Z</time>
</trkpt>
<trkpt lat="46.0613260" lon="10.4891860">
	<ele>2510.40</ele>
	<time>2023-08-06T09:46:45.000Z</time>
</trkpt>
<trkpt lat="46.0613260" lon="10.4891860">
	<ele>2510.40</ele>
	<time>2023-08-06T09:46:46.000Z</time>
</trkpt>
<trkpt lat="46.0613260" lon="10.4891860">
	<ele>2510.40</ele>
	<time>2023-08-06T09:46:47.000Z</time>
</trkpt>
<trkpt lat="46.0613260" lon="10.4891860">
	<ele>2510.40</ele>
	<time>2023-08-06T09:46:48.000Z</time>
</trkpt>
<trkpt lat="46.0613260" lon="10.4891860">
	<ele>2510.40</ele>
	<time>2023-08-06T09:46:49.000Z</time>
</trkpt>
<trkpt lat="46.0613270" lon="10.4891860">
	<ele>2510.40</ele>
	<time>2023-08-06T09:46:50.000Z</time>
</trkpt>
<trkpt lat="46.0613270" lon="10.4891860">
	<ele>2510.40</ele>
	<time>2023-08-06T09:46:51.000Z</time>
</trkpt>
<trkpt lat="46.0613270" lon="10.4891860">
	<ele>2510.40</ele>
	<time>2023-08-06T09:46:52.000Z</time>
</trkpt>
<trkpt lat="46.0613270" lon="10.4891860">
	<ele>2510.40</ele>
	<time>2023-08-06T09:46:53.000Z</time>
</trkpt>
<trkpt lat="46.0613270" lon="10.4891860">
	<ele>2510.40</ele>
	<time>2023-08-06T09:46:54.000Z</time>
</trkpt>
<trkpt lat="46.0613270" lon="10.4891860">
	<ele>2510.40</ele>
	<time>2023-08-06T09:46:55.000Z</time>
</trkpt>
<trkpt lat="46.0613270" lon="10.4891860">
	<ele>2510.40</ele>
	<time>2023-08-06T09:46:56.000Z</time>
</trkpt>
<trkpt lat="46.0613270" lon="10.4891860">
	<ele>2510.40</ele>
	<time>2023-08-06T09:46:57.000Z</time>
</trkpt>
<trkpt lat="46.0613270" lon="10.4891860">
	<ele>2510.40</ele>
	<time>2023-08-06T09:46:58.000Z</time>
</trkpt>
<trkpt lat="46.0613270" lon="10.4891860">
	<ele>2510.40</ele>
	<time>2023-08-06T09:46:59.000Z</time>
</trkpt>
<trkpt lat="46.0613270" lon="10.4891860">
	<ele>2510.40</ele>
	<time>2023-08-06T09:47:00.000Z</time>
</trkpt>
<trkpt lat="46.0613270" lon="10.4891860">
	<ele>2510.40</ele>
	<time>2023-08-06T09:47:01.000Z</time>
</trkpt>
<trkpt lat="46.0613270" lon="10.4891860">
	<ele>2510.40</ele>
	<time>2023-08-06T09:47:02.000Z</time>
</trkpt>
<trkpt lat="46.0613270" lon="10.4891860">
	<ele>2510.40</ele>
	<time>2023-08-06T09:47:03.000Z</time>
</trkpt>
<trkpt lat="46.0613270" lon="10.4891860">
	<ele>2510.40</ele>
	<time>2023-08-06T09:47:04.000Z</time>
</trkpt>
<trkpt lat="46.0613270" lon="10.4891860">
	<ele>2510.40</ele>
	<time>2023-08-06T09:47:05.000Z</time>
</trkpt>
<trkpt lat="46.0613270" lon="10.4891860">
	<ele>2510.40</ele>
	<time>2023-08-06T09:47:06.000Z</time>
</trkpt>
<trkpt lat="46.0613270" lon="10.4891860">
	<ele>2510.40</ele>
	<time>2023-08-06T09:47:07.000Z</time>
</trkpt>
<trkpt lat="46.0613270" lon="10.4891860">
	<ele>2510.40</ele>
	<time>2023-08-06T09:47:08.000Z</time>
</trkpt>
<trkpt lat="46.0613270" lon="10.4891860">
	<ele>2510.40</ele>
	<time>2023-08-06T09:47:09.000Z</time>
</trkpt>
<trkpt lat="46.0613280" lon="10.4891860">
	<ele>2510.40</ele>
	<time>2023-08-06T09:47:10.000Z</time>
</trkpt>
<trkpt lat="46.0613280" lon="10.4891860">
	<ele>2510.40</ele>
	<time>2023-08-06T09:47:11.000Z</time>
</trkpt>
<trkpt lat="46.0613280" lon="10.4891860">
	<ele>2510.40</ele>
	<time>2023-08-06T09:47:12.000Z</time>
</trkpt>
<trkpt lat="46.0613280" lon="10.4891860">
	<ele>2510.40</ele>
	<time>2023-08-06T09:47:13.000Z</time>
</trkpt>
<trkpt lat="46.0613280" lon="10.4891860">
	<ele>2510.40</ele>
	<time>2023-08-06T09:47:14.000Z</time>
</trkpt>
<trkpt lat="46.0613280" lon="10.4891860">
	<ele>2510.40</ele>
	<time>2023-08-06T09:47:15.000Z</time>
</trkpt>
<trkpt lat="46.0613280" lon="10.4891860">
	<ele>2510.40</ele>
	<time>2023-08-06T09:47:16.000Z</time>
</trkpt>
<trkpt lat="46.0613280" lon="10.4891860">
	<ele>2510.40</ele>
	<time>2023-08-06T09:47:17.000Z</time>
</trkpt>
<trkpt lat="46.0613280" lon="10.4891860">
	<ele>2510.40</ele>
	<time>2023-08-06T09:47:18.000Z</time>
</trkpt>
<trkpt lat="46.0613280" lon="10.4891860">
	<ele>2510.40</ele>
	<time>2023-08-06T09:47:19.000Z</time>
</trkpt>
<trkpt lat="46.0613280" lon="10.4891860">
	<ele>2510.40</ele>
	<time>2023-08-06T09:47:20.000Z</time>
</trkpt>
<trkpt lat="46.0613280" lon="10.4891860">
	<ele>2510.40</ele>
	<time>2023-08-06T09:47:21.000Z</time>
</trkpt>
<trkpt lat="46.0613280" lon="10.4891860">
	<ele>2510.40</ele>
	<time>2023-08-06T09:47:22.000Z</time>
</trkpt>
<trkpt lat="46.0613280" lon="10.4891860">
	<ele>2510.40</ele>
	<time>2023-08-06T09:47:23.000Z</time>
</trkpt>
<trkpt lat="46.0613280" lon="10.4891860">
	<ele>2510.40</ele>
	<time>2023-08-06T09:47:24.000Z</time>
</trkpt>
<trkpt lat="46.0613280" lon="10.4891860">
	<ele>2510.40</ele>
	<time>2023-08-06T09:47:25.000Z</time>
</trkpt>
<trkpt lat="46.0613280" lon="10.4891860">
	<ele>2510.40</ele>
	<time>2023-08-06T09:47:26.000Z</time>
</trkpt>
<trkpt lat="46.0613280" lon="10.4891860">
	<ele>2510.40</ele>
	<time>2023-08-06T09:47:27.000Z</time>
</trkpt>
<trkpt lat="46.0613280" lon="10.4891860">
	<ele>2510.40</ele>
	<time>2023-08-06T09:47:28.000Z</time>
</trkpt>
<trkpt lat="46.0613280" lon="10.4891860">
	<ele>2510.40</ele>
	<time>2023-08-06T09:47:29.000Z</time>
</trkpt>
<trkpt lat="46.0613280" lon="10.4891860">
	<ele>2510.40</ele>
	<time>2023-08-06T09:47:30.000Z</time>
</trkpt>
<trkpt lat="46.0613280" lon="10.4891860">
	<ele>2510.40</ele>
	<time>2023-08-06T09:47:31.000Z</time>
</trkpt>
<trkpt lat="46.0613290" lon="10.4891860">
	<ele>2510.40</ele>
	<time>2023-08-06T09:47:32.000Z</time>
</trkpt>
<trkpt lat="46.0613290" lon="10.4891860">
	<ele>2510.40</ele>
	<time>2023-08-06T09:47:33.000Z</time>
</trkpt>
<trkpt lat="46.0613290" lon="10.4891860">
	<ele>2510.40</ele>
	<time>2023-08-06T09:47:34.000Z</time>
</trkpt>
<trkpt lat="46.0613290" lon="10.4891860">
	<ele>2510.40</ele>
	<time>2023-08-06T09:47:35.000Z</time>
</trkpt>
<trkpt lat="46.0613290" lon="10.4891860">
	<ele>2510.40</ele>
	<time>2023-08-06T09:47:36.000Z</time>
</trkpt>
<trkpt lat="46.0613290" lon="10.4891860">
	<ele>2510.40</ele>
	<time>2023-08-06T09:47:37.000Z</time>
</trkpt>
<trkpt lat="46.0613290" lon="10.4891860">
	<ele>2510.40</ele>
	<time>2023-08-06T09:47:38.000Z</time>
</trkpt>
<trkpt lat="46.0613290" lon="10.4891860">
	<ele>2510.40</ele>
	<time>2023-08-06T09:47:39.000Z</time>
</trkpt>
<trkpt lat="46.0613290" lon="10.4891860">
	<ele>2510.40</ele>
	<time>2023-08-06T09:47:40.000Z</time>
</trkpt>
<trkpt lat="46.0613290" lon="10.4891860">
	<ele>2510.40</ele>
	<time>2023-08-06T09:47:41.000Z</time>
</trkpt>
<trkpt lat="46.0613290" lon="10.4891860">
	<ele>2510.40</ele>
	<time>2023-08-06T09:47:42.000Z</time>
</trkpt>
<trkpt lat="46.0613290" lon="10.4891860">
	<ele>2510.40</ele>
	<time>2023-08-06T09:47:43.000Z</time>
</trkpt>
<trkpt lat="46.0613290" lon="10.4891860">
	<ele>2510.40</ele>
	<time>2023-08-06T09:47:44.000Z</time>
</trkpt>
<trkpt lat="46.0613290" lon="10.4891860">
	<ele>2510.40</ele>
	<time>2023-08-06T09:47:45.000Z</time>
</trkpt>
<trkpt lat="46.0613290" lon="10.4891860">
	<ele>2510.40</ele>
	<time>2023-08-06T09:47:46.000Z</time>
</trkpt>
<trkpt lat="46.0613300" lon="10.4891870">
	<ele>2510.40</ele>
	<time>2023-08-06T09:47:47.000Z</time>
</trkpt>
<trkpt lat="46.0613300" lon="10.4891870">
	<ele>2510.40</ele>
	<time>2023-08-06T09:47:48.000Z</time>
</trkpt>
<trkpt lat="46.0613300" lon="10.4891870">
	<ele>2510.40</ele>
	<time>2023-08-06T09:47:49.000Z</time>
</trkpt>
<trkpt lat="46.0613300" lon="10.4891870">
	<ele>2510.40</ele>
	<time>2023-08-06T09:47:50.000Z</time>
</trkpt>
<trkpt lat="46.0613300" lon="10.4891870">
	<ele>2510.40</ele>
	<time>2023-08-06T09:47:51.000Z</time>
</trkpt>
<trkpt lat="46.0613300" lon="10.4891870">
	<ele>2510.40</ele>
	<time>2023-08-06T09:47:52.000Z</time>
</trkpt>
<trkpt lat="46.0613300" lon="10.4891870">
	<ele>2510.40</ele>
	<time>2023-08-06T09:47:53.000Z</time>
</trkpt>
<trkpt lat="46.0613300" lon="10.4891870">
	<ele>2510.40</ele>
	<time>2023-08-06T09:47:54.000Z</time>
</trkpt>
<trkpt lat="46.0613300" lon="10.4891870">
	<ele>2510.40</ele>
	<time>2023-08-06T09:47:55.000Z</time>
</trkpt>
<trkpt lat="46.0613300" lon="10.4891870">
	<ele>2510.40</ele>
	<time>2023-08-06T09:47:56.000Z</time>
</trkpt>
<trkpt lat="46.0613300" lon="10.4891870">
	<ele>2510.40</ele>
	<time>2023-08-06T09:47:57.000Z</time>
</trkpt>
<trkpt lat="46.0613300" lon="10.4891870">
	<ele>2510.40</ele>
	<time>2023-08-06T09:47:58.000Z</time>
</trkpt>
<trkpt lat="46.0613300" lon="10.4891870">
	<ele>2510.40</ele>
	<time>2023-08-06T09:47:59.000Z</time>
</trkpt>
<trkpt lat="46.0613310" lon="10.4891870">
	<ele>2510.40</ele>
	<time>2023-08-06T09:48:00.000Z</time>
</trkpt>
<trkpt lat="46.0613310" lon="10.4891870">
	<ele>2510.40</ele>
	<time>2023-08-06T09:48:01.000Z</time>
</trkpt>
<trkpt lat="46.0613310" lon="10.4891870">
	<ele>2510.40</ele>
	<time>2023-08-06T09:48:02.000Z</time>
</trkpt>
<trkpt lat="46.0613310" lon="10.4891870">
	<ele>2510.40</ele>
	<time>2023-08-06T09:48:03.000Z</time>
</trkpt>
<trkpt lat="46.0613310" lon="10.4891870">
	<ele>2510.40</ele>
	<time>2023-08-06T09:48:04.000Z</time>
</trkpt>
<trkpt lat="46.0613310" lon="10.4891870">
	<ele>2510.40</ele>
	<time>2023-08-06T09:48:05.000Z</time>
</trkpt>
<trkpt lat="46.0613310" lon="10.4891870">
	<ele>2510.40</ele>
	<time>2023-08-06T09:48:06.000Z</time>
</trkpt>
<trkpt lat="46.0613310" lon="10.4891880">
	<ele>2510.40</ele>
	<time>2023-08-06T09:48:07.000Z</time>
</trkpt>
<trkpt lat="46.0613350" lon="10.4891870">
	<ele>2510.40</ele>
	<time>2023-08-06T09:48:08.000Z</time>
</trkpt>
<trkpt lat="46.0613420" lon="10.4891780">
	<ele>2510.40</ele>
	<time>2023-08-06T09:48:09.000Z</time>
</trkpt>
<trkpt lat="46.0613500" lon="10.4891690">
	<ele>2510.40</ele>
	<time>2023-08-06T09:48:10.000Z</time>
</trkpt>
<trkpt lat="46.0613570" lon="10.4891620">
	<ele>2510.40</ele>
	<time>2023-08-06T09:48:11.000Z</time>
</trkpt>
<trkpt lat="46.0613640" lon="10.4891570">
	<ele>2510.40</ele>
	<time>2023-08-06T09:48:12.000Z</time>
</trkpt>
<trkpt lat="46.0613680" lon="10.4891550">
	<ele>2510.40</ele>
	<time>2023-08-06T09:48:13.000Z</time>
</trkpt>
<trkpt lat="46.0613720" lon="10.4891530">
	<ele>2510.40</ele>
	<time>2023-08-06T09:48:14.000Z</time>
</trkpt>
<trkpt lat="46.0613750" lon="10.4891520">
	<ele>2510.40</ele>
	<time>2023-08-06T09:48:15.000Z</time>
</trkpt>
<trkpt lat="46.0613790" lon="10.4891510">
	<ele>2510.40</ele>
	<time>2023-08-06T09:48:16.000Z</time>
</trkpt>
<trkpt lat="46.0613840" lon="10.4891520">
	<ele>2510.40</ele>
	<time>2023-08-06T09:48:17.000Z</time>
</trkpt>
<trkpt lat="46.0613850" lon="10.4891520">
	<ele>2510.40</ele>
	<time>2023-08-06T09:48:18.000Z</time>
</trkpt>
<trkpt lat="46.0613840" lon="10.4891510">
	<ele>2510.40</ele>
	<time>2023-08-06T09:48:19.000Z</time>
</trkpt>
<trkpt lat="46.0613840" lon="10.4891520">
	<ele>2510.40</ele>
	<time>2023-08-06T09:48:20.000Z</time>
</trkpt>
<trkpt lat="46.0613830" lon="10.4891530">
	<ele>2510.40</ele>
	<time>2023-08-06T09:48:21.000Z</time>
</trkpt>
<trkpt lat="46.0613830" lon="10.4891520">
	<ele>2510.40</ele>
	<time>2023-08-06T09:48:22.000Z</time>
</trkpt>
<trkpt lat="46.0613830" lon="10.4891520">
	<ele>2510.40</ele>
	<time>2023-08-06T09:48:23.000Z</time>
</trkpt>
<trkpt lat="46.0613830" lon="10.4891520">
	<ele>2510.40</ele>
	<time>2023-08-06T09:48:24.000Z</time>
</trkpt>
<trkpt lat="46.0613830" lon="10.4891520">
	<ele>2510.40</ele>
	<time>2023-08-06T09:48:25.000Z</time>
</trkpt>
<trkpt lat="46.0613830" lon="10.4891520">
	<ele>2510.40</ele>
	<time>2023-08-06T09:48:26.000Z</time>
</trkpt>
<trkpt lat="46.0613830" lon="10.4891520">
	<ele>2510.40</ele>
	<time>2023-08-06T09:48:27.000Z</time>
</trkpt>
<trkpt lat="46.0613830" lon="10.4891520">
	<ele>2510.40</ele>
	<time>2023-08-06T09:48:28.000Z</time>
</trkpt>
<trkpt lat="46.0613830" lon="10.4891520">
	<ele>2510.40</ele>
	<time>2023-08-06T09:48:29.000Z</time>
</trkpt>
<trkpt lat="46.0613830" lon="10.4891520">
	<ele>2510.40</ele>
	<time>2023-08-06T09:48:30.000Z</time>
</trkpt>
<trkpt lat="46.0613830" lon="10.4891520">
	<ele>2510.40</ele>
	<time>2023-08-06T09:48:31.000Z</time>
</trkpt>
<trkpt lat="46.0613830" lon="10.4891520">
	<ele>2510.40</ele>
	<time>2023-08-06T09:48:32.000Z</time>
</trkpt>
<trkpt lat="46.0613830" lon="10.4891520">
	<ele>2510.40</ele>
	<time>2023-08-06T09:48:33.000Z</time>
</trkpt>
<trkpt lat="46.0613830" lon="10.4891520">
	<ele>2510.40</ele>
	<time>2023-08-06T09:48:34.000Z</time>
</trkpt>
<trkpt lat="46.0613830" lon="10.4891520">
	<ele>2510.40</ele>
	<time>2023-08-06T09:48:35.000Z</time>
</trkpt>
<trkpt lat="46.0613830" lon="10.4891520">
	<ele>2510.40</ele>
	<time>2023-08-06T09:48:36.000Z</time>
</trkpt>
<trkpt lat="46.0613830" lon="10.4891520">
	<ele>2510.40</ele>
	<time>2023-08-06T09:48:37.000Z</time>
</trkpt>
<trkpt lat="46.0613830" lon="10.4891520">
	<ele>2510.40</ele>
	<time>2023-08-06T09:48:38.000Z</time>
</trkpt>
<trkpt lat="46.0613830" lon="10.4891520">
	<ele>2510.40</ele>
	<time>2023-08-06T09:48:39.000Z</time>
</trkpt>
<trkpt lat="46.0613830" lon="10.4891520">
	<ele>2510.40</ele>
	<time>2023-08-06T09:48:40.000Z</time>
</trkpt>
<trkpt lat="46.0613830" lon="10.4891520">
	<ele>2510.40</ele>
	<time>2023-08-06T09:48:41.000Z</time>
</trkpt>
<trkpt lat="46.0613830" lon="10.4891520">
	<ele>2510.40</ele>
	<time>2023-08-06T09:48:42.000Z</time>
</trkpt>
<trkpt lat="46.0613830" lon="10.4891520">
	<ele>2510.40</ele>
	<time>2023-08-06T09:48:43.000Z</time>
</trkpt>
<trkpt lat="46.0613830" lon="10.4891510">
	<ele>2510.40</ele>
	<time>2023-08-06T09:48:44.000Z</time>
</trkpt>
<trkpt lat="46.0613830" lon="10.4891510">
	<ele>2510.40</ele>
	<time>2023-08-06T09:48:45.000Z</time>
</trkpt>
<trkpt lat="46.0613830" lon="10.4891500">
	<ele>2510.40</ele>
	<time>2023-08-06T09:48:46.000Z</time>
</trkpt>
<trkpt lat="46.0613830" lon="10.4891500">
	<ele>2510.40</ele>
	<time>2023-08-06T09:48:47.000Z</time>
</trkpt>
<trkpt lat="46.0613780" lon="10.4891500">
	<ele>2510.40</ele>
	<time>2023-08-06T09:48:48.000Z</time>
</trkpt>
<trkpt lat="46.0613770" lon="10.4891480">
	<ele>2510.40</ele>
	<time>2023-08-06T09:48:49.000Z</time>
</trkpt>
<trkpt lat="46.0613770" lon="10.4891470">
	<ele>2510.40</ele>
	<time>2023-08-06T09:48:50.000Z</time>
</trkpt>
<trkpt lat="46.0613770" lon="10.4891470">
	<ele>2510.40</ele>
	<time>2023-08-06T09:48:51.000Z</time>
</trkpt>
<trkpt lat="46.0613760" lon="10.4891470">
	<ele>2510.40</ele>
	<time>2023-08-06T09:48:52.000Z</time>
</trkpt>
<trkpt lat="46.0613760" lon="10.4891470">
	<ele>2510.40</ele>
	<time>2023-08-06T09:48:53.000Z</time>
</trkpt>
<trkpt lat="46.0613750" lon="10.4891470">
	<ele>2510.40</ele>
	<time>2023-08-06T09:48:54.000Z</time>
</trkpt>
<trkpt lat="46.0613750" lon="10.4891470">
	<ele>2510.40</ele>
	<time>2023-08-06T09:48:55.000Z</time>
</trkpt>
<trkpt lat="46.0613750" lon="10.4891470">
	<ele>2510.40</ele>
	<time>2023-08-06T09:48:56.000Z</time>
</trkpt>
<trkpt lat="46.0613750" lon="10.4891470">
	<ele>2510.40</ele>
	<time>2023-08-06T09:48:57.000Z</time>
</trkpt>
<trkpt lat="46.0613750" lon="10.4891470">
	<ele>2510.40</ele>
	<time>2023-08-06T09:48:58.000Z</time>
</trkpt>
<trkpt lat="46.0613750" lon="10.4891480">
	<ele>2510.40</ele>
	<time>2023-08-06T09:48:59.000Z</time>
</trkpt>
<trkpt lat="46.0613750" lon="10.4891480">
	<ele>2510.40</ele>
	<time>2023-08-06T09:49:00.000Z</time>
</trkpt>
<trkpt lat="46.0613750" lon="10.4891480">
	<ele>2510.40</ele>
	<time>2023-08-06T09:49:01.000Z</time>
</trkpt>
<trkpt lat="46.0613750" lon="10.4891480">
	<ele>2510.40</ele>
	<time>2023-08-06T09:49:02.000Z</time>
</trkpt>
<trkpt lat="46.0613750" lon="10.4891480">
	<ele>2510.40</ele>
	<time>2023-08-06T09:49:03.000Z</time>
</trkpt>
<trkpt lat="46.0613750" lon="10.4891480">
	<ele>2510.40</ele>
	<time>2023-08-06T09:49:04.000Z</time>
</trkpt>
<trkpt lat="46.0613750" lon="10.4891480">
	<ele>2510.40</ele>
	<time>2023-08-06T09:49:05.000Z</time>
</trkpt>
<trkpt lat="46.0613750" lon="10.4891480">
	<ele>2510.40</ele>
	<time>2023-08-06T09:49:06.000Z</time>
</trkpt>
<trkpt lat="46.0613740" lon="10.4891480">
	<ele>2510.40</ele>
	<time>2023-08-06T09:49:07.000Z</time>
</trkpt>
<trkpt lat="46.0613740" lon="10.4891480">
	<ele>2510.40</ele>
	<time>2023-08-06T09:49:08.000Z</time>
</trkpt>
<trkpt lat="46.0613740" lon="10.4891480">
	<ele>2510.40</ele>
	<time>2023-08-06T09:49:09.000Z</time>
</trkpt>
<trkpt lat="46.0613730" lon="10.4891480">
	<ele>2510.40</ele>
	<time>2023-08-06T09:49:10.000Z</time>
</trkpt>
<trkpt lat="46.0613730" lon="10.4891480">
	<ele>2510.40</ele>
	<time>2023-08-06T09:49:11.000Z</time>
</trkpt>
<trkpt lat="46.0613730" lon="10.4891490">
	<ele>2510.40</ele>
	<time>2023-08-06T09:49:12.000Z</time>
</trkpt>
<trkpt lat="46.0613720" lon="10.4891490">
	<ele>2510.40</ele>
	<time>2023-08-06T09:49:13.000Z</time>
</trkpt>
<trkpt lat="46.0613710" lon="10.4891520">
	<ele>2510.40</ele>
	<time>2023-08-06T09:49:14.000Z</time>
</trkpt>
<trkpt lat="46.0613710" lon="10.4891540">
	<ele>2510.40</ele>
	<time>2023-08-06T09:49:15.000Z</time>
</trkpt>
<trkpt lat="46.0613710" lon="10.4891540">
	<ele>2510.40</ele>
	<time>2023-08-06T09:49:16.000Z</time>
</trkpt>
<trkpt lat="46.0613710" lon="10.4891540">
	<ele>2510.40</ele>
	<time>2023-08-06T09:49:17.000Z</time>
</trkpt>
<trkpt lat="46.0613710" lon="10.4891540">
	<ele>2510.40</ele>
	<time>2023-08-06T09:49:18.000Z</time>
</trkpt>
<trkpt lat="46.0613710" lon="10.4891540">
	<ele>2510.40</ele>
	<time>2023-08-06T09:49:19.000Z</time>
</trkpt>
<trkpt lat="46.0613710" lon="10.4891540">
	<ele>2510.40</ele>
	<time>2023-08-06T09:49:20.000Z</time>
</trkpt>
<trkpt lat="46.0613710" lon="10.4891540">
	<ele>2510.40</ele>
	<time>2023-08-06T09:49:21.000Z</time>
</trkpt>
<trkpt lat="46.0613700" lon="10.4891540">
	<ele>2510.40</ele>
	<time>2023-08-06T09:49:22.000Z</time>
</trkpt>
<trkpt lat="46.0613700" lon="10.4891540">
	<ele>2510.40</ele>
	<time>2023-08-06T09:49:23.000Z</time>
</trkpt>
<trkpt lat="46.0613700" lon="10.4891540">
	<ele>2510.40</ele>
	<time>2023-08-06T09:49:24.000Z</time>
</trkpt>
<trkpt lat="46.0613700" lon="10.4891540">
	<ele>2510.40</ele>
	<time>2023-08-06T09:49:25.000Z</time>
</trkpt>
<trkpt lat="46.0613690" lon="10.4891540">
	<ele>2510.40</ele>
	<time>2023-08-06T09:49:26.000Z</time>
</trkpt>
<trkpt lat="46.0613690" lon="10.4891550">
	<ele>2510.40</ele>
	<time>2023-08-06T09:49:27.000Z</time>
</trkpt>
<trkpt lat="46.0613690" lon="10.4891550">
	<ele>2510.40</ele>
	<time>2023-08-06T09:49:28.000Z</time>
</trkpt>
<trkpt lat="46.0613680" lon="10.4891550">
	<ele>2510.40</ele>
	<time>2023-08-06T09:49:29.000Z</time>
</trkpt>
<trkpt lat="46.0613680" lon="10.4891550">
	<ele>2510.40</ele>
	<time>2023-08-06T09:49:30.000Z</time>
</trkpt>
<trkpt lat="46.0613670" lon="10.4891550">
	<ele>2510.40</ele>
	<time>2023-08-06T09:49:31.000Z</time>
</trkpt>
<trkpt lat="46.0613670" lon="10.4891550">
	<ele>2510.40</ele>
	<time>2023-08-06T09:49:32.000Z</time>
</trkpt>
<trkpt lat="46.0613660" lon="10.4891550">
	<ele>2510.40</ele>
	<time>2023-08-06T09:49:33.000Z</time>
</trkpt>
<trkpt lat="46.0613650" lon="10.4891550">
	<ele>2510.40</ele>
	<time>2023-08-06T09:49:34.000Z</time>
</trkpt>
<trkpt lat="46.0613650" lon="10.4891550">
	<ele>2510.40</ele>
	<time>2023-08-06T09:49:35.000Z</time>
</trkpt>
<trkpt lat="46.0613640" lon="10.4891550">
	<ele>2510.40</ele>
	<time>2023-08-06T09:49:36.000Z</time>
</trkpt>
<trkpt lat="46.0613640" lon="10.4891550">
	<ele>2510.40</ele>
	<time>2023-08-06T09:49:37.000Z</time>
</trkpt>
<trkpt lat="46.0613640" lon="10.4891550">
	<ele>2510.40</ele>
	<time>2023-08-06T09:49:38.000Z</time>
</trkpt>
<trkpt lat="46.0613640" lon="10.4891550">
	<ele>2510.40</ele>
	<time>2023-08-06T09:49:39.000Z</time>
</trkpt>
<trkpt lat="46.0613640" lon="10.4891550">
	<ele>2510.40</ele>
	<time>2023-08-06T09:49:40.000Z</time>
</trkpt>
<trkpt lat="46.0613640" lon="10.4891550">
	<ele>2510.40</ele>
	<time>2023-08-06T09:49:41.000Z</time>
</trkpt>
<trkpt lat="46.0613640" lon="10.4891550">
	<ele>2510.40</ele>
	<time>2023-08-06T09:49:42.000Z</time>
</trkpt>
<trkpt lat="46.0613640" lon="10.4891550">
	<ele>2510.40</ele>
	<time>2023-08-06T09:49:43.000Z</time>
</trkpt>
<trkpt lat="46.0613640" lon="10.4891560">
	<ele>2510.40</ele>
	<time>2023-08-06T09:49:44.000Z</time>
</trkpt>
<trkpt lat="46.0613640" lon="10.4891560">
	<ele>2510.40</ele>
	<time>2023-08-06T09:49:45.000Z</time>
</trkpt>
<trkpt lat="46.0613640" lon="10.4891560">
	<ele>2510.40</ele>
	<time>2023-08-06T09:49:46.000Z</time>
</trkpt>
<trkpt lat="46.0613640" lon="10.4891560">
	<ele>2510.40</ele>
	<time>2023-08-06T09:49:47.000Z</time>
</trkpt>
<trkpt lat="46.0613630" lon="10.4891560">
	<ele>2510.40</ele>
	<time>2023-08-06T09:49:48.000Z</time>
</trkpt>
<trkpt lat="46.0613630" lon="10.4891560">
	<ele>2510.40</ele>
	<time>2023-08-06T09:49:49.000Z</time>
</trkpt>
<trkpt lat="46.0613630" lon="10.4891560">
	<ele>2510.40</ele>
	<time>2023-08-06T09:49:50.000Z</time>
</trkpt>
<trkpt lat="46.0613630" lon="10.4891560">
	<ele>2510.40</ele>
	<time>2023-08-06T09:49:51.000Z</time>
</trkpt>
<trkpt lat="46.0613620" lon="10.4891560">
	<ele>2510.40</ele>
	<time>2023-08-06T09:49:52.000Z</time>
</trkpt>
<trkpt lat="46.0613600" lon="10.4891560">
	<ele>2510.40</ele>
	<time>2023-08-06T09:49:53.000Z</time>
</trkpt>
<trkpt lat="46.0613580" lon="10.4891560">
	<ele>2510.40</ele>
	<time>2023-08-06T09:49:54.000Z</time>
</trkpt>
<trkpt lat="46.0613570" lon="10.4891560">
	<ele>2510.40</ele>
	<time>2023-08-06T09:49:55.000Z</time>
</trkpt>
<trkpt lat="46.0613570" lon="10.4891560">
	<ele>2510.40</ele>
	<time>2023-08-06T09:49:56.000Z</time>
</trkpt>
<trkpt lat="46.0613560" lon="10.4891560">
	<ele>2510.40</ele>
	<time>2023-08-06T09:49:57.000Z</time>
</trkpt>
<trkpt lat="46.0613560" lon="10.4891560">
	<ele>2510.40</ele>
	<time>2023-08-06T09:49:58.000Z</time>
</trkpt>
<trkpt lat="46.0613560" lon="10.4891570">
	<ele>2510.40</ele>
	<time>2023-08-06T09:49:59.000Z</time>
</trkpt>
<trkpt lat="46.0613560" lon="10.4891570">
	<ele>2510.40</ele>
	<time>2023-08-06T09:50:00.000Z</time>
</trkpt>
<trkpt lat="46.0613560" lon="10.4891570">
	<ele>2510.40</ele>
	<time>2023-08-06T09:50:01.000Z</time>
</trkpt>
<trkpt lat="46.0613550" lon="10.4891570">
	<ele>2510.40</ele>
	<time>2023-08-06T09:50:02.000Z</time>
</trkpt>
<trkpt lat="46.0613550" lon="10.4891570">
	<ele>2510.40</ele>
	<time>2023-08-06T09:50:03.000Z</time>
</trkpt>
<trkpt lat="46.0613550" lon="10.4891570">
	<ele>2510.40</ele>
	<time>2023-08-06T09:50:04.000Z</time>
</trkpt>
<trkpt lat="46.0613550" lon="10.4891570">
	<ele>2510.40</ele>
	<time>2023-08-06T09:50:05.000Z</time>
</trkpt>
<trkpt lat="46.0613550" lon="10.4891570">
	<ele>2510.40</ele>
	<time>2023-08-06T09:50:06.000Z</time>
</trkpt>
<trkpt lat="46.0613550" lon="10.4891570">
	<ele>2510.40</ele>
	<time>2023-08-06T09:50:07.000Z</time>
</trkpt>
<trkpt lat="46.0613550" lon="10.4891570">
	<ele>2510.40</ele>
	<time>2023-08-06T09:50:08.000Z</time>
</trkpt>
<trkpt lat="46.0613550" lon="10.4891560">
	<ele>2510.40</ele>
	<time>2023-08-06T09:50:09.000Z</time>
</trkpt>
<trkpt lat="46.0613550" lon="10.4891560">
	<ele>2510.40</ele>
	<time>2023-08-06T09:50:10.000Z</time>
</trkpt>
<trkpt lat="46.0613550" lon="10.4891560">
	<ele>2510.40</ele>
	<time>2023-08-06T09:50:11.000Z</time>
</trkpt>
<trkpt lat="46.0613550" lon="10.4891560">
	<ele>2510.40</ele>
	<time>2023-08-06T09:50:12.000Z</time>
</trkpt>
<trkpt lat="46.0613550" lon="10.4891560">
	<ele>2510.40</ele>
	<time>2023-08-06T09:50:13.000Z</time>
</trkpt>
<trkpt lat="46.0613550" lon="10.4891560">
	<ele>2510.40</ele>
	<time>2023-08-06T09:50:14.000Z</time>
</trkpt>
<trkpt lat="46.0613550" lon="10.4891560">
	<ele>2510.40</ele>
	<time>2023-08-06T09:50:15.000Z</time>
</trkpt>
<trkpt lat="46.0613550" lon="10.4891550">
	<ele>2510.40</ele>
	<time>2023-08-06T09:50:16.000Z</time>
</trkpt>
<trkpt lat="46.0613550" lon="10.4891550">
	<ele>2510.40</ele>
	<time>2023-08-06T09:50:17.000Z</time>
</trkpt>
<trkpt lat="46.0613550" lon="10.4891550">
	<ele>2510.40</ele>
	<time>2023-08-06T09:50:18.000Z</time>
</trkpt>
<trkpt lat="46.0613550" lon="10.4891550">
	<ele>2510.40</ele>
	<time>2023-08-06T09:50:19.000Z</time>
</trkpt>
<trkpt lat="46.0613560" lon="10.4891550">
	<ele>2510.40</ele>
	<time>2023-08-06T09:50:20.000Z</time>
</trkpt>
<trkpt lat="46.0613560" lon="10.4891550">
	<ele>2510.40</ele>
	<time>2023-08-06T09:50:21.000Z</time>
</trkpt>
<trkpt lat="46.0613560" lon="10.4891550">
	<ele>2510.40</ele>
	<time>2023-08-06T09:50:22.000Z</time>
</trkpt>
<trkpt lat="46.0613560" lon="10.4891550">
	<ele>2510.40</ele>
	<time>2023-08-06T09:50:23.000Z</time>
</trkpt>
<trkpt lat="46.0613570" lon="10.4891550">
	<ele>2510.40</ele>
	<time>2023-08-06T09:50:24.000Z</time>
</trkpt>
<trkpt lat="46.0613570" lon="10.4891550">
	<ele>2510.40</ele>
	<time>2023-08-06T09:50:25.000Z</time>
</trkpt>
<trkpt lat="46.0613570" lon="10.4891550">
	<ele>2510.40</ele>
	<time>2023-08-06T09:50:26.000Z</time>
</trkpt>
<trkpt lat="46.0613580" lon="10.4891550">
	<ele>2510.40</ele>
	<time>2023-08-06T09:50:27.000Z</time>
</trkpt>
<trkpt lat="46.0613580" lon="10.4891540">
	<ele>2510.40</ele>
	<time>2023-08-06T09:50:28.000Z</time>
</trkpt>
<trkpt lat="46.0613580" lon="10.4891540">
	<ele>2510.40</ele>
	<time>2023-08-06T09:50:29.000Z</time>
</trkpt>
<trkpt lat="46.0613590" lon="10.4891540">
	<ele>2510.40</ele>
	<time>2023-08-06T09:50:30.000Z</time>
</trkpt>
<trkpt lat="46.0613590" lon="10.4891530">
	<ele>2510.40</ele>
	<time>2023-08-06T09:50:31.000Z</time>
</trkpt>
<trkpt lat="46.0613600" lon="10.4891530">
	<ele>2510.40</ele>
	<time>2023-08-06T09:50:32.000Z</time>
</trkpt>
<trkpt lat="46.0613610" lon="10.4891520">
	<ele>2510.40</ele>
	<time>2023-08-06T09:50:33.000Z</time>
</trkpt>
<trkpt lat="46.0613620" lon="10.4891520">
	<ele>2510.40</ele>
	<time>2023-08-06T09:50:34.000Z</time>
</trkpt>
<trkpt lat="46.0613630" lon="10.4891510">
	<ele>2510.40</ele>
	<time>2023-08-06T09:50:35.000Z</time>
</trkpt>
<trkpt lat="46.0613640" lon="10.4891510">
	<ele>2510.40</ele>
	<time>2023-08-06T09:50:36.000Z</time>
</trkpt>
<trkpt lat="46.0613650" lon="10.4891510">
	<ele>2510.40</ele>
	<time>2023-08-06T09:50:37.000Z</time>
</trkpt>
<trkpt lat="46.0613670" lon="10.4891510">
	<ele>2510.40</ele>
	<time>2023-08-06T09:50:38.000Z</time>
</trkpt>
<trkpt lat="46.0613670" lon="10.4891510">
	<ele>2510.40</ele>
	<time>2023-08-06T09:50:39.000Z</time>
</trkpt>
<trkpt lat="46.0613680" lon="10.4891510">
	<ele>2510.40</ele>
	<time>2023-08-06T09:50:40.000Z</time>
</trkpt>
<trkpt lat="46.0613690" lon="10.4891510">
	<ele>2510.40</ele>
	<time>2023-08-06T09:50:41.000Z</time>
</trkpt>
<trkpt lat="46.0613690" lon="10.4891510">
	<ele>2510.40</ele>
	<time>2023-08-06T09:50:42.000Z</time>
</trkpt>
<trkpt lat="46.0613690" lon="10.4891510">
	<ele>2510.40</ele>
	<time>2023-08-06T09:50:43.000Z</time>
</trkpt>
<trkpt lat="46.0613690" lon="10.4891510">
	<ele>2510.40</ele>
	<time>2023-08-06T09:50:44.000Z</time>
</trkpt>
<trkpt lat="46.0613690" lon="10.4891510">
	<ele>2510.40</ele>
	<time>2023-08-06T09:50:45.000Z</time>
</trkpt>
<trkpt lat="46.0613690" lon="10.4891510">
	<ele>2510.40</ele>
	<time>2023-08-06T09:50:46.000Z</time>
</trkpt>
<trkpt lat="46.0613690" lon="10.4891510">
	<ele>2510.40</ele>
	<time>2023-08-06T09:50:47.000Z</time>
</trkpt>
<trkpt lat="46.0613690" lon="10.4891510">
	<ele>2510.40</ele>
	<time>2023-08-06T09:50:48.000Z</time>
</trkpt>
<trkpt lat="46.0613690" lon="10.4891510">
	<ele>2510.40</ele>
	<time>2023-08-06T09:50:49.000Z</time>
</trkpt>
<trkpt lat="46.0613690" lon="10.4891510">
	<ele>2510.40</ele>
	<time>2023-08-06T09:50:50.000Z</time>
</trkpt>
<trkpt lat="46.0613690" lon="10.4891520">
	<ele>2510.40</ele>
	<time>2023-08-06T09:50:51.000Z</time>
</trkpt>
<trkpt lat="46.0613690" lon="10.4891530">
	<ele>2510.40</ele>
	<time>2023-08-06T09:50:52.000Z</time>
</trkpt>
<trkpt lat="46.0613690" lon="10.4891530">
	<ele>2510.40</ele>
	<time>2023-08-06T09:50:53.000Z</time>
</trkpt>
<trkpt lat="46.0613690" lon="10.4891550">
	<ele>2510.40</ele>
	<time>2023-08-06T09:50:54.000Z</time>
</trkpt>
<trkpt lat="46.0613700" lon="10.4891580">
	<ele>2510.40</ele>
	<time>2023-08-06T09:50:55.000Z</time>
</trkpt>
<trkpt lat="46.0613700" lon="10.4891620">
	<ele>2510.40</ele>
	<time>2023-08-06T09:50:56.000Z</time>
</trkpt>
<trkpt lat="46.0613700" lon="10.4891690">
	<ele>2510.40</ele>
	<time>2023-08-06T09:50:57.000Z</time>
</trkpt>
<trkpt lat="46.0613700" lon="10.4891740">
	<ele>2510.40</ele>
	<time>2023-08-06T09:50:58.000Z</time>
</trkpt>
<trkpt lat="46.0613690" lon="10.4891810">
	<ele>2510.40</ele>
	<time>2023-08-06T09:50:59.000Z</time>
</trkpt>
<trkpt lat="46.0613690" lon="10.4891870">
	<ele>2510.40</ele>
	<time>2023-08-06T09:51:00.000Z</time>
</trkpt>
<trkpt lat="46.0613690" lon="10.4891920">
	<ele>2510.40</ele>
	<time>2023-08-06T09:51:01.000Z</time>
</trkpt>
<trkpt lat="46.0613690" lon="10.4891960">
	<ele>2510.40</ele>
	<time>2023-08-06T09:51:02.000Z</time>
</trkpt>
<trkpt lat="46.0613690" lon="10.4891990">
	<ele>2510.40</ele>
	<time>2023-08-06T09:51:03.000Z</time>
</trkpt>
<trkpt lat="46.0613690" lon="10.4892020">
	<ele>2510.40</ele>
	<time>2023-08-06T09:51:04.000Z</time>
</trkpt>
<trkpt lat="46.0613690" lon="10.4892040">
	<ele>2510.40</ele>
	<time>2023-08-06T09:51:05.000Z</time>
</trkpt>
<trkpt lat="46.0613690" lon="10.4892060">
	<ele>2510.40</ele>
	<time>2023-08-06T09:51:06.000Z</time>
</trkpt>
<trkpt lat="46.0613690" lon="10.4892070">
	<ele>2510.40</ele>
	<time>2023-08-06T09:51:07.000Z</time>
</trkpt>
<trkpt lat="46.0613690" lon="10.4892080">
	<ele>2510.40</ele>
	<time>2023-08-06T09:51:08.000Z</time>
</trkpt>
<trkpt lat="46.0613740" lon="10.4892100">
	<ele>2510.40</ele>
	<time>2023-08-06T09:51:09.000Z</time>
</trkpt>
<trkpt lat="46.0613890" lon="10.4892150">
	<ele>2510.40</ele>
	<time>2023-08-06T09:51:10.000Z</time>
</trkpt>
<trkpt lat="46.0614030" lon="10.4892230">
	<ele>2510.40</ele>
	<time>2023-08-06T09:51:11.000Z</time>
</trkpt>
<trkpt lat="46.0614160" lon="10.4892290">
	<ele>2510.40</ele>
	<time>2023-08-06T09:51:12.000Z</time>
</trkpt>
<trkpt lat="46.0614310" lon="10.4892320">
	<ele>2510.40</ele>
	<time>2023-08-06T09:51:13.000Z</time>
</trkpt>
<trkpt lat="46.0614440" lon="10.4892310">
	<ele>2510.40</ele>
	<time>2023-08-06T09:51:14.000Z</time>
</trkpt>
<trkpt lat="46.0614570" lon="10.4892280">
	<ele>2510.40</ele>
	<time>2023-08-06T09:51:15.000Z</time>
</trkpt>
<trkpt lat="46.0614700" lon="10.4892260">
	<ele>2510.40</ele>
	<time>2023-08-06T09:51:16.000Z</time>
</trkpt>
<trkpt lat="46.0614830" lon="10.4892250">
	<ele>2510.40</ele>
	<time>2023-08-06T09:51:17.000Z</time>
</trkpt>
<trkpt lat="46.0614990" lon="10.4892250">
	<ele>2510.40</ele>
	<time>2023-08-06T09:51:18.000Z</time>
</trkpt>
<trkpt lat="46.0615140" lon="10.4892240">
	<ele>2510.40</ele>
	<time>2023-08-06T09:51:19.000Z</time>
</trkpt>
<trkpt lat="46.0615220" lon="10.4892220">
	<ele>2510.40</ele>
	<time>2023-08-06T09:51:20.000Z</time>
</trkpt>
<trkpt lat="46.0615340" lon="10.4892230">
	<ele>2510.40</ele>
	<time>2023-08-06T09:51:21.000Z</time>
</trkpt>
<trkpt lat="46.0615460" lon="10.4892260">
	<ele>2510.40</ele>
	<time>2023-08-06T09:51:22.000Z</time>
</trkpt>
<trkpt lat="46.0615620" lon="10.4892220">
	<ele>2510.20</ele>
	<time>2023-08-06T09:51:23.000Z</time>
</trkpt>
<trkpt lat="46.0615770" lon="10.4892240">
	<ele>2509.80</ele>
	<time>2023-08-06T09:51:24.000Z</time>
</trkpt>
<trkpt lat="46.0615880" lon="10.4892280">
	<ele>2509.60</ele>
	<time>2023-08-06T09:51:25.000Z</time>
</trkpt>
<trkpt lat="46.0615940" lon="10.4892330">
	<ele>2509.40</ele>
	<time>2023-08-06T09:51:26.000Z</time>
</trkpt>
<trkpt lat="46.0615970" lon="10.4892400">
	<ele>2509.40</ele>
	<time>2023-08-06T09:51:27.000Z</time>
</trkpt>
<trkpt lat="46.0616020" lon="10.4892500">
	<ele>2509.40</ele>
	<time>2023-08-06T09:51:28.000Z</time>
</trkpt>
<trkpt lat="46.0616100" lon="10.4892570">
	<ele>2509.60</ele>
	<time>2023-08-06T09:51:29.000Z</time>
</trkpt>
<trkpt lat="46.0616170" lon="10.4892600">
	<ele>2509.60</ele>
	<time>2023-08-06T09:51:30.000Z</time>
</trkpt>
<trkpt lat="46.0616200" lon="10.4892580">
	<ele>2509.60</ele>
	<time>2023-08-06T09:51:31.000Z</time>
</trkpt>
<trkpt lat="46.0616260" lon="10.4892540">
	<ele>2509.80</ele>
	<time>2023-08-06T09:51:32.000Z</time>
</trkpt>
<trkpt lat="46.0616380" lon="10.4892480">
	<ele>2509.80</ele>
	<time>2023-08-06T09:51:33.000Z</time>
</trkpt>
<trkpt lat="46.0616490" lon="10.4892400">
	<ele>2509.80</ele>
	<time>2023-08-06T09:51:34.000Z</time>
</trkpt>
<trkpt lat="46.0616580" lon="10.4892340">
	<ele>2509.80</ele>
	<time>2023-08-06T09:51:35.000Z</time>
</trkpt>
<trkpt lat="46.0616640" lon="10.4892280">
	<ele>2510.00</ele>
	<time>2023-08-06T09:51:36.000Z</time>
</trkpt>
<trkpt lat="46.0616760" lon="10.4892230">
	<ele>2510.20</ele>
	<time>2023-08-06T09:51:37.000Z</time>
</trkpt>
<trkpt lat="46.0616840" lon="10.4892200">
	<ele>2510.20</ele>
	<time>2023-08-06T09:51:38.000Z</time>
</trkpt>
<trkpt lat="46.0616900" lon="10.4892170">
	<ele>2510.20</ele>
	<time>2023-08-06T09:51:39.000Z</time>
</trkpt>
<trkpt lat="46.0616950" lon="10.4892140">
	<ele>2510.20</ele>
	<time>2023-08-06T09:51:40.000Z</time>
</trkpt>
<trkpt lat="46.0617040" lon="10.4892140">
	<ele>2510.20</ele>
	<time>2023-08-06T09:51:41.000Z</time>
</trkpt>
<trkpt lat="46.0617150" lon="10.4892170">
	<ele>2510.20</ele>
	<time>2023-08-06T09:51:42.000Z</time>
</trkpt>
<trkpt lat="46.0617270" lon="10.4892210">
	<ele>2510.20</ele>
	<time>2023-08-06T09:51:43.000Z</time>
</trkpt>
<trkpt lat="46.0617360" lon="10.4892250">
	<ele>2510.20</ele>
	<time>2023-08-06T09:51:44.000Z</time>
</trkpt>
<trkpt lat="46.0617450" lon="10.4892270">
	<ele>2510.20</ele>
	<time>2023-08-06T09:51:45.000Z</time>
</trkpt>
<trkpt lat="46.0617520" lon="10.4892290">
	<ele>2510.00</ele>
	<time>2023-08-06T09:51:46.000Z</time>
</trkpt>
<trkpt lat="46.0617540" lon="10.4892310">
	<ele>2510.00</ele>
	<time>2023-08-06T09:51:47.000Z</time>
</trkpt>
<trkpt lat="46.0617540" lon="10.4892330">
	<ele>2510.00</ele>
	<time>2023-08-06T09:51:48.000Z</time>
</trkpt>
<trkpt lat="46.0617530" lon="10.4892350">
	<ele>2510.00</ele>
	<time>2023-08-06T09:51:49.000Z</time>
</trkpt>
<trkpt lat="46.0617530" lon="10.4892370">
	<ele>2510.00</ele>
	<time>2023-08-06T09:51:50.000Z</time>
</trkpt>
<trkpt lat="46.0617530" lon="10.4892370">
	<ele>2510.00</ele>
	<time>2023-08-06T09:51:51.000Z</time>
</trkpt>
<trkpt lat="46.0617530" lon="10.4892300">
	<ele>2510.00</ele>
	<time>2023-08-06T09:51:52.000Z</time>
</trkpt>
<trkpt lat="46.0617510" lon="10.4892250">
	<ele>2510.00</ele>
	<time>2023-08-06T09:51:53.000Z</time>
</trkpt>
<trkpt lat="46.0617500" lon="10.4892220">
	<ele>2510.20</ele>
	<time>2023-08-06T09:51:54.000Z</time>
</trkpt>
<trkpt lat="46.0617490" lon="10.4892210">
	<ele>2510.20</ele>
	<time>2023-08-06T09:51:55.000Z</time>
</trkpt>
<trkpt lat="46.0617490" lon="10.4892230">
	<ele>2510.40</ele>
	<time>2023-08-06T09:51:56.000Z</time>
</trkpt>
<trkpt lat="46.0617510" lon="10.4892240">
	<ele>2510.40</ele>
	<time>2023-08-06T09:51:57.000Z</time>
</trkpt>
<trkpt lat="46.0617500" lon="10.4892200">
	<ele>2510.60</ele>
	<time>2023-08-06T09:51:58.000Z</time>
</trkpt>
<trkpt lat="46.0617480" lon="10.4892150">
	<ele>2510.80</ele>
	<time>2023-08-06T09:51:59.000Z</time>
</trkpt>
<trkpt lat="46.0617460" lon="10.4892130">
	<ele>2510.80</ele>
	<time>2023-08-06T09:52:00.000Z</time>
</trkpt>
<trkpt lat="46.0617460" lon="10.4892140">
	<ele>2510.80</ele>
	<time>2023-08-06T09:52:01.000Z</time>
</trkpt>
<trkpt lat="46.0617450" lon="10.4892130">
	<ele>2510.80</ele>
	<time>2023-08-06T09:52:02.000Z</time>
</trkpt>
<trkpt lat="46.0617450" lon="10.4892130">
	<ele>2510.80</ele>
	<time>2023-08-06T09:52:03.000Z</time>
</trkpt>
<trkpt lat="46.0617450" lon="10.4892130">
	<ele>2510.80</ele>
	<time>2023-08-06T09:52:04.000Z</time>
</trkpt>
<trkpt lat="46.0617450" lon="10.4892130">
	<ele>2510.80</ele>
	<time>2023-08-06T09:52:05.000Z</time>
</trkpt>
<trkpt lat="46.0617450" lon="10.4892130">
	<ele>2510.80</ele>
	<time>2023-08-06T09:52:06.000Z</time>
</trkpt>
<trkpt lat="46.0617450" lon="10.4892130">
	<ele>2510.80</ele>
	<time>2023-08-06T09:52:07.000Z</time>
</trkpt>
<trkpt lat="46.0617450" lon="10.4892130">
	<ele>2510.80</ele>
	<time>2023-08-06T09:52:08.000Z</time>
</trkpt>
<trkpt lat="46.0617450" lon="10.4892130">
	<ele>2510.80</ele>
	<time>2023-08-06T09:52:09.000Z</time>
</trkpt>
<trkpt lat="46.0617450" lon="10.4892130">
	<ele>2510.80</ele>
	<time>2023-08-06T09:52:10.000Z</time>
</trkpt>
<trkpt lat="46.0617450" lon="10.4892130">
	<ele>2510.80</ele>
	<time>2023-08-06T09:52:11.000Z</time>
</trkpt>
<trkpt lat="46.0617450" lon="10.4892130">
	<ele>2510.80</ele>
	<time>2023-08-06T09:52:12.000Z</time>
</trkpt>
<trkpt lat="46.0617450" lon="10.4892130">
	<ele>2510.80</ele>
	<time>2023-08-06T09:52:13.000Z</time>
</trkpt>
<trkpt lat="46.0617450" lon="10.4892130">
	<ele>2510.80</ele>
	<time>2023-08-06T09:52:14.000Z</time>
</trkpt>
<trkpt lat="46.0617450" lon="10.4892130">
	<ele>2510.80</ele>
	<time>2023-08-06T09:52:15.000Z</time>
</trkpt>
<trkpt lat="46.0617450" lon="10.4892130">
	<ele>2510.80</ele>
	<time>2023-08-06T09:52:16.000Z</time>
</trkpt>
<trkpt lat="46.0617450" lon="10.4892130">
	<ele>2510.80</ele>
	<time>2023-08-06T09:52:17.000Z</time>
</trkpt>
<trkpt lat="46.0617450" lon="10.4892100">
	<ele>2510.80</ele>
	<time>2023-08-06T09:52:18.000Z</time>
</trkpt>
<trkpt lat="46.0617440" lon="10.4892080">
	<ele>2510.80</ele>
	<time>2023-08-06T09:52:19.000Z</time>
</trkpt>
<trkpt lat="46.0617440" lon="10.4892060">
	<ele>2510.80</ele>
	<time>2023-08-06T09:52:20.000Z</time>
</trkpt>
<trkpt lat="46.0617440" lon="10.4892050">
	<ele>2510.80</ele>
	<time>2023-08-06T09:52:21.000Z</time>
</trkpt>
<trkpt lat="46.0617440" lon="10.4892050">
	<ele>2510.80</ele>
	<time>2023-08-06T09:52:22.000Z</time>
</trkpt>
<trkpt lat="46.0617440" lon="10.4892050">
	<ele>2510.60</ele>
	<time>2023-08-06T09:52:23.000Z</time>
</trkpt>
<trkpt lat="46.0617440" lon="10.4892050">
	<ele>2510.60</ele>
	<time>2023-08-06T09:52:24.000Z</time>
</trkpt>
<trkpt lat="46.0617440" lon="10.4892050">
	<ele>2510.60</ele>
	<time>2023-08-06T09:52:25.000Z</time>
</trkpt>
<trkpt lat="46.0617440" lon="10.4892050">
	<ele>2510.60</ele>
	<time>2023-08-06T09:52:26.000Z</time>
</trkpt>
<trkpt lat="46.0617440" lon="10.4892030">
	<ele>2510.60</ele>
	<time>2023-08-06T09:52:27.000Z</time>
</trkpt>
<trkpt lat="46.0617440" lon="10.4892030">
	<ele>2510.60</ele>
	<time>2023-08-06T09:52:28.000Z</time>
</trkpt>
<trkpt lat="46.0617440" lon="10.4892030">
	<ele>2510.60</ele>
	<time>2023-08-06T09:52:29.000Z</time>
</trkpt>
<trkpt lat="46.0617440" lon="10.4892020">
	<ele>2510.60</ele>
	<time>2023-08-06T09:52:30.000Z</time>
</trkpt>
<trkpt lat="46.0617440" lon="10.4892020">
	<ele>2510.60</ele>
	<time>2023-08-06T09:52:31.000Z</time>
</trkpt>
<trkpt lat="46.0617500" lon="10.4892030">
	<ele>2510.60</ele>
	<time>2023-08-06T09:52:32.000Z</time>
</trkpt>
<trkpt lat="46.0617660" lon="10.4892040">
	<ele>2510.60</ele>
	<time>2023-08-06T09:52:33.000Z</time>
</trkpt>
<trkpt lat="46.0617840" lon="10.4892020">
	<ele>2510.60</ele>
	<time>2023-08-06T09:52:34.000Z</time>
</trkpt>
<trkpt lat="46.0618010" lon="10.4892020">
	<ele>2510.60</ele>
	<time>2023-08-06T09:52:35.000Z</time>
</trkpt>
<trkpt lat="46.0618200" lon="10.4892010">
	<ele>2511.00</ele>
	<time>2023-08-06T09:52:36.000Z</time>
</trkpt>
<trkpt lat="46.0618360" lon="10.4891990">
	<ele>2511.20</ele>
	<time>2023-08-06T09:52:37.000Z</time>
</trkpt>
<trkpt lat="46.0618530" lon="10.4891980">
	<ele>2511.20</ele>
	<time>2023-08-06T09:52:38.000Z</time>
</trkpt>
<trkpt lat="46.0618710" lon="10.4891950">
	<ele>2511.20</ele>
	<time>2023-08-06T09:52:39.000Z</time>
</trkpt>
<trkpt lat="46.0618840" lon="10.4891910">
	<ele>2511.20</ele>
	<time>2023-08-06T09:52:40.000Z</time>
</trkpt>
<trkpt lat="46.0618960" lon="10.4891850">
	<ele>2511.20</ele>
	<time>2023-08-06T09:52:41.000Z</time>
</trkpt>
<trkpt lat="46.0618980" lon="10.4891780">
	<ele>2511.20</ele>
	<time>2023-08-06T09:52:42.000Z</time>
</trkpt>
<trkpt lat="46.0619050" lon="10.4891740">
	<ele>2511.20</ele>
	<time>2023-08-06T09:52:43.000Z</time>
</trkpt>
<trkpt lat="46.0619110" lon="10.4891710">
	<ele>2511.20</ele>
	<time>2023-08-06T09:52:44.000Z</time>
</trkpt>
<trkpt lat="46.0619180" lon="10.4891680">
	<ele>2511.00</ele>
	<time>2023-08-06T09:52:45.000Z</time>
</trkpt>
<trkpt lat="46.0619210" lon="10.4891670">
	<ele>2511.20</ele>
	<time>2023-08-06T09:52:46.000Z</time>
</trkpt>
<trkpt lat="46.0619300" lon="10.4891650">
	<ele>2511.40</ele>
	<time>2023-08-06T09:52:47.000Z</time>
</trkpt>
<trkpt lat="46.0619390" lon="10.4891630">
	<ele>2511.60</ele>
	<time>2023-08-06T09:52:48.000Z</time>
</trkpt>
<trkpt lat="46.0619470" lon="10.4891610">
	<ele>2511.60</ele>
	<time>2023-08-06T09:52:49.000Z</time>
</trkpt>
<trkpt lat="46.0619560" lon="10.4891590">
	<ele>2511.60</ele>
	<time>2023-08-06T09:52:50.000Z</time>
</trkpt>
<trkpt lat="46.0619690" lon="10.4891590">
	<ele>2511.60</ele>
	<time>2023-08-06T09:52:51.000Z</time>
</trkpt>
<trkpt lat="46.0619790" lon="10.4891590">
	<ele>2511.60</ele>
	<time>2023-08-06T09:52:52.000Z</time>
</trkpt>
<trkpt lat="46.0619880" lon="10.4891590">
	<ele>2511.80</ele>
	<time>2023-08-06T09:52:53.000Z</time>
</trkpt>
<trkpt lat="46.0619940" lon="10.4891590">
	<ele>2511.80</ele>
	<time>2023-08-06T09:52:54.000Z</time>
</trkpt>
<trkpt lat="46.0620000" lon="10.4891530">
	<ele>2512.00</ele>
	<time>2023-08-06T09:52:55.000Z</time>
</trkpt>
<trkpt lat="46.0620070" lon="10.4891510">
	<ele>2512.20</ele>
	<time>2023-08-06T09:52:56.000Z</time>
</trkpt>
<trkpt lat="46.0620120" lon="10.4891510">
	<ele>2512.20</ele>
	<time>2023-08-06T09:52:57.000Z</time>
</trkpt>
<trkpt lat="46.0620180" lon="10.4891470">
	<ele>2512.40</ele>
	<time>2023-08-06T09:52:58.000Z</time>
</trkpt>
<trkpt lat="46.0620260" lon="10.4891440">
	<ele>2512.20</ele>
	<time>2023-08-06T09:52:59.000Z</time>
</trkpt>
<trkpt lat="46.0620320" lon="10.4891400">
	<ele>2512.20</ele>
	<time>2023-08-06T09:53:00.000Z</time>
</trkpt>
<trkpt lat="46.0620360" lon="10.4891350">
	<ele>2512.00</ele>
	<time>2023-08-06T09:53:01.000Z</time>
</trkpt>
<trkpt lat="46.0620470" lon="10.4891320">
	<ele>2512.00</ele>
	<time>2023-08-06T09:53:02.000Z</time>
</trkpt>
<trkpt lat="46.0620550" lon="10.4891290">
	<ele>2512.00</ele>
	<time>2023-08-06T09:53:03.000Z</time>
</trkpt>
<trkpt lat="46.0620650" lon="10.4891200">
	<ele>2512.00</ele>
	<time>2023-08-06T09:53:04.000Z</time>
</trkpt>
<trkpt lat="46.0620720" lon="10.4891120">
	<ele>2512.20</ele>
	<time>2023-08-06T09:53:05.000Z</time>
</trkpt>
<trkpt lat="46.0620790" lon="10.4891030">
	<ele>2512.20</ele>
	<time>2023-08-06T09:53:06.000Z</time>
</trkpt>
<trkpt lat="46.0620810" lon="10.4891010">
	<ele>2512.40</ele>
	<time>2023-08-06T09:53:07.000Z</time>
</trkpt>
<trkpt lat="46.0620850" lon="10.4890960">
	<ele>2512.60</ele>
	<time>2023-08-06T09:53:08.000Z</time>
</trkpt>
<trkpt lat="46.0620890" lon="10.4890950">
	<ele>2512.80</ele>
	<time>2023-08-06T09:53:09.000Z</time>
</trkpt>
<trkpt lat="46.0620910" lon="10.4890910">
	<ele>2513.00</ele>
	<time>2023-08-06T09:53:10.000Z</time>
</trkpt>
<trkpt lat="46.0620930" lon="10.4890890">
	<ele>2513.40</ele>
	<time>2023-08-06T09:53:11.000Z</time>
</trkpt>
<trkpt lat="46.0620930" lon="10.4890820">
	<ele>2513.60</ele>
	<time>2023-08-06T09:53:12.000Z</time>
</trkpt>
<trkpt lat="46.0620950" lon="10.4890770">
	<ele>2514.00</ele>
	<time>2023-08-06T09:53:13.000Z</time>
</trkpt>
<trkpt lat="46.0620970" lon="10.4890740">
	<ele>2514.20</ele>
	<time>2023-08-06T09:53:14.000Z</time>
</trkpt>
<trkpt lat="46.0620980" lon="10.4890690">
	<ele>2514.40</ele>
	<time>2023-08-06T09:53:15.000Z</time>
</trkpt>
<trkpt lat="46.0621010" lon="10.4890610">
	<ele>2514.60</ele>
	<time>2023-08-06T09:53:16.000Z</time>
</trkpt>
<trkpt lat="46.0621050" lon="10.4890560">
	<ele>2514.80</ele>
	<time>2023-08-06T09:53:17.000Z</time>
</trkpt>
<trkpt lat="46.0621070" lon="10.4890540">
	<ele>2515.00</ele>
	<time>2023-08-06T09:53:18.000Z</time>
</trkpt>
<trkpt lat="46.0621090" lon="10.4890490">
	<ele>2515.40</ele>
	<time>2023-08-06T09:53:19.000Z</time>
</trkpt>
<trkpt lat="46.0621110" lon="10.4890450">
	<ele>2515.60</ele>
	<time>2023-08-06T09:53:20.000Z</time>
</trkpt>
<trkpt lat="46.0621130" lon="10.4890400">
	<ele>2515.80</ele>
	<time>2023-08-06T09:53:21.000Z</time>
</trkpt>
<trkpt lat="46.0621130" lon="10.4890350">
	<ele>2516.00</ele>
	<time>2023-08-06T09:53:22.000Z</time>
</trkpt>
<trkpt lat="46.0621140" lon="10.4890300">
	<ele>2516.20</ele>
	<time>2023-08-06T09:53:23.000Z</time>
</trkpt>
<trkpt lat="46.0621150" lon="10.4890290">
	<ele>2516.20</ele>
	<time>2023-08-06T09:53:24.000Z</time>
</trkpt>
<trkpt lat="46.0621150" lon="10.4890330">
	<ele>2516.40</ele>
	<time>2023-08-06T09:53:25.000Z</time>
</trkpt>
<trkpt lat="46.0621150" lon="10.4890350">
	<ele>2516.40</ele>
	<time>2023-08-06T09:53:26.000Z</time>
</trkpt>
<trkpt lat="46.0621160" lon="10.4890320">
	<ele>2516.60</ele>
	<time>2023-08-06T09:53:27.000Z</time>
</trkpt>
<trkpt lat="46.0621160" lon="10.4890320">
	<ele>2516.60</ele>
	<time>2023-08-06T09:53:28.000Z</time>
</trkpt>
<trkpt lat="46.0621160" lon="10.4890320">
	<ele>2516.60</ele>
	<time>2023-08-06T09:53:29.000Z</time>
</trkpt>
<trkpt lat="46.0621160" lon="10.4890320">
	<ele>2516.60</ele>
	<time>2023-08-06T09:53:30.000Z</time>
</trkpt>
<trkpt lat="46.0621160" lon="10.4890320">
	<ele>2516.60</ele>
	<time>2023-08-06T09:53:31.000Z</time>
</trkpt>
<trkpt lat="46.0621160" lon="10.4890320">
	<ele>2516.60</ele>
	<time>2023-08-06T09:53:32.000Z</time>
</trkpt>
<trkpt lat="46.0621160" lon="10.4890320">
	<ele>2516.80</ele>
	<time>2023-08-06T09:53:33.000Z</time>
</trkpt>
<trkpt lat="46.0621160" lon="10.4890320">
	<ele>2517.00</ele>
	<time>2023-08-06T09:53:34.000Z</time>
</trkpt>
<trkpt lat="46.0621160" lon="10.4890320">
	<ele>2517.40</ele>
	<time>2023-08-06T09:53:35.000Z</time>
</trkpt>
<trkpt lat="46.0621160" lon="10.4890320">
	<ele>2517.60</ele>
	<time>2023-08-06T09:53:36.000Z</time>
</trkpt>
<trkpt lat="46.0621160" lon="10.4890320">
	<ele>2517.80</ele>
	<time>2023-08-06T09:53:37.000Z</time>
</trkpt>
<trkpt lat="46.0621160" lon="10.4890320">
	<ele>2517.80</ele>
	<time>2023-08-06T09:53:38.000Z</time>
</trkpt>
<trkpt lat="46.0621160" lon="10.4890320">
	<ele>2518.20</ele>
	<time>2023-08-06T09:53:39.000Z</time>
</trkpt>
<trkpt lat="46.0621160" lon="10.4890320">
	<ele>2518.20</ele>
	<time>2023-08-06T09:53:40.000Z</time>
</trkpt>
<trkpt lat="46.0621160" lon="10.4890310">
	<ele>2518.40</ele>
	<time>2023-08-06T09:53:41.000Z</time>
</trkpt>
<trkpt lat="46.0621160" lon="10.4890290">
	<ele>2518.40</ele>
	<time>2023-08-06T09:53:42.000Z</time>
</trkpt>
<trkpt lat="46.0621160" lon="10.4890290">
	<ele>2518.60</ele>
	<time>2023-08-06T09:53:43.000Z</time>
</trkpt>
<trkpt lat="46.0621160" lon="10.4890290">
	<ele>2518.60</ele>
	<time>2023-08-06T09:53:44.000Z</time>
</trkpt>
<trkpt lat="46.0621160" lon="10.4890280">
	<ele>2518.80</ele>
	<time>2023-08-06T09:53:45.000Z</time>
</trkpt>
<trkpt lat="46.0621160" lon="10.4890270">
	<ele>2518.80</ele>
	<time>2023-08-06T09:53:46.000Z</time>
</trkpt>
<trkpt lat="46.0621160" lon="10.4890260">
	<ele>2519.20</ele>
	<time>2023-08-06T09:53:47.000Z</time>
</trkpt>
<trkpt lat="46.0621160" lon="10.4890220">
	<ele>2519.40</ele>
	<time>2023-08-06T09:53:48.000Z</time>
</trkpt>
<trkpt lat="46.0621170" lon="10.4890170">
	<ele>2519.60</ele>
	<time>2023-08-06T09:53:49.000Z</time>
</trkpt>
<trkpt lat="46.0621170" lon="10.4890130">
	<ele>2519.80</ele>
	<time>2023-08-06T09:53:50.000Z</time>
</trkpt>
<trkpt lat="46.0621170" lon="10.4890090">
	<ele>2520.00</ele>
	<time>2023-08-06T09:53:51.000Z</time>
</trkpt>
<trkpt lat="46.0621180" lon="10.4890060">
	<ele>2520.20</ele>
	<time>2023-08-06T09:53:52.000Z</time>
</trkpt>
<trkpt lat="46.0621180" lon="10.4890030">
	<ele>2520.20</ele>
	<time>2023-08-06T09:53:53.000Z</time>
</trkpt>
<trkpt lat="46.0621180" lon="10.4889990">
	<ele>2520.40</ele>
	<time>2023-08-06T09:53:54.000Z</time>
</trkpt>
<trkpt lat="46.0621180" lon="10.4889990">
	<ele>2520.40</ele>
	<time>2023-08-06T09:53:55.000Z</time>
</trkpt>
<trkpt lat="46.0621200" lon="10.4889980">
	<ele>2520.20</ele>
	<time>2023-08-06T09:53:56.000Z</time>
</trkpt>
<trkpt lat="46.0621220" lon="10.4889950">
	<ele>2520.20</ele>
	<time>2023-08-06T09:53:57.000Z</time>
</trkpt>
<trkpt lat="46.0621260" lon="10.4889880">
	<ele>2520.20</ele>
	<time>2023-08-06T09:53:58.000Z</time>
</trkpt>
<trkpt lat="46.0621270" lon="10.4889800">
	<ele>2520.00</ele>
	<time>2023-08-06T09:53:59.000Z</time>
</trkpt>
<trkpt lat="46.0621290" lon="10.4889730">
	<ele>2520.00</ele>
	<time>2023-08-06T09:54:00.000Z</time>
</trkpt>
<trkpt lat="46.0621320" lon="10.4889700">
	<ele>2520.00</ele>
	<time>2023-08-06T09:54:01.000Z</time>
</trkpt>
<trkpt lat="46.0621340" lon="10.4889680">
	<ele>2520.20</ele>
	<time>2023-08-06T09:54:02.000Z</time>
</trkpt>
<trkpt lat="46.0621360" lon="10.4889650">
	<ele>2520.40</ele>
	<time>2023-08-06T09:54:03.000Z</time>
</trkpt>
<trkpt lat="46.0621400" lon="10.4889630">
	<ele>2520.40</ele>
	<time>2023-08-06T09:54:04.000Z</time>
</trkpt>
<trkpt lat="46.0621430" lon="10.4889610">
	<ele>2520.60</ele>
	<time>2023-08-06T09:54:05.000Z</time>
</trkpt>
<trkpt lat="46.0621450" lon="10.4889580">
	<ele>2521.00</ele>
	<time>2023-08-06T09:54:06.000Z</time>
</trkpt>
<trkpt lat="46.0621490" lon="10.4889550">
	<ele>2521.40</ele>
	<time>2023-08-06T09:54:07.000Z</time>
</trkpt>
<trkpt lat="46.0621510" lon="10.4889490">
	<ele>2521.60</ele>
	<time>2023-08-06T09:54:08.000Z</time>
</trkpt>
<trkpt lat="46.0621540" lon="10.4889430">
	<ele>2521.80</ele>
	<time>2023-08-06T09:54:09.000Z</time>
</trkpt>
<trkpt lat="46.0621570" lon="10.4889380">
	<ele>2522.00</ele>
	<time>2023-08-06T09:54:10.000Z</time>
</trkpt>
<trkpt lat="46.0621610" lon="10.4889290">
	<ele>2522.40</ele>
	<time>2023-08-06T09:54:11.000Z</time>
</trkpt>
<trkpt lat="46.0621650" lon="10.4889260">
	<ele>2522.60</ele>
	<time>2023-08-06T09:54:12.000Z</time>
</trkpt>
<trkpt lat="46.0621690" lon="10.4889230">
	<ele>2522.80</ele>
	<time>2023-08-06T09:54:13.000Z</time>
</trkpt>
<trkpt lat="46.0621720" lon="10.4889210">
	<ele>2522.80</ele>
	<time>2023-08-06T09:54:14.000Z</time>
</trkpt>
<trkpt lat="46.0621750" lon="10.4889190">
	<ele>2522.80</ele>
	<time>2023-08-06T09:54:15.000Z</time>
</trkpt>
<trkpt lat="46.0621770" lon="10.4889170">
	<ele>2522.80</ele>
	<time>2023-08-06T09:54:16.000Z</time>
</trkpt>
<trkpt lat="46.0621800" lon="10.4889150">
	<ele>2523.00</ele>
	<time>2023-08-06T09:54:17.000Z</time>
</trkpt>
<trkpt lat="46.0621850" lon="10.4889110">
	<ele>2523.00</ele>
	<time>2023-08-06T09:54:18.000Z</time>
</trkpt>
<trkpt lat="46.0621890" lon="10.4889090">
	<ele>2523.20</ele>
	<time>2023-08-06T09:54:19.000Z</time>
</trkpt>
<trkpt lat="46.0621920" lon="10.4889070">
	<ele>2523.20</ele>
	<time>2023-08-06T09:54:20.000Z</time>
</trkpt>
<trkpt lat="46.0621970" lon="10.4889030">
	<ele>2523.40</ele>
	<time>2023-08-06T09:54:21.000Z</time>
</trkpt>
<trkpt lat="46.0622000" lon="10.4889000">
	<ele>2523.40</ele>
	<time>2023-08-06T09:54:22.000Z</time>
</trkpt>
<trkpt lat="46.0622020" lon="10.4888990">
	<ele>2523.40</ele>
	<time>2023-08-06T09:54:23.000Z</time>
</trkpt>
<trkpt lat="46.0622060" lon="10.4888980">
	<ele>2523.40</ele>
	<time>2023-08-06T09:54:24.000Z</time>
</trkpt>
<trkpt lat="46.0622130" lon="10.4888960">
	<ele>2523.40</ele>
	<time>2023-08-06T09:54:25.000Z</time>
</trkpt>
<trkpt lat="46.0622200" lon="10.4888950">
	<ele>2523.40</ele>
	<time>2023-08-06T09:54:26.000Z</time>
</trkpt>
<trkpt lat="46.0622280" lon="10.4888940">
	<ele>2523.40</ele>
	<time>2023-08-06T09:54:27.000Z</time>
</trkpt>
<trkpt lat="46.0622340" lon="10.4888940">
	<ele>2523.20</ele>
	<time>2023-08-06T09:54:28.000Z</time>
</trkpt>
<trkpt lat="46.0622390" lon="10.4888920">
	<ele>2523.20</ele>
	<time>2023-08-06T09:54:29.000Z</time>
</trkpt>
<trkpt lat="46.0622460" lon="10.4888900">
	<ele>2523.20</ele>
	<time>2023-08-06T09:54:30.000Z</time>
</trkpt>
<trkpt lat="46.0622500" lon="10.4888880">
	<ele>2523.20</ele>
	<time>2023-08-06T09:54:31.000Z</time>
</trkpt>
<trkpt lat="46.0622520" lon="10.4888860">
	<ele>2523.20</ele>
	<time>2023-08-06T09:54:32.000Z</time>
</trkpt>
<trkpt lat="46.0622530" lon="10.4888850">
	<ele>2523.20</ele>
	<time>2023-08-06T09:54:33.000Z</time>
</trkpt>
<trkpt lat="46.0622540" lon="10.4888830">
	<ele>2523.20</ele>
	<time>2023-08-06T09:54:34.000Z</time>
</trkpt>
<trkpt lat="46.0622540" lon="10.4888820">
	<ele>2523.20</ele>
	<time>2023-08-06T09:54:35.000Z</time>
</trkpt>
<trkpt lat="46.0622540" lon="10.4888820">
	<ele>2523.20</ele>
	<time>2023-08-06T09:54:36.000Z</time>
</trkpt>
<trkpt lat="46.0622540" lon="10.4888820">
	<ele>2523.20</ele>
	<time>2023-08-06T09:54:37.000Z</time>
</trkpt>
<trkpt lat="46.0622550" lon="10.4888810">
	<ele>2523.20</ele>
	<time>2023-08-06T09:54:38.000Z</time>
</trkpt>
<trkpt lat="46.0622550" lon="10.4888810">
	<ele>2523.40</ele>
	<time>2023-08-06T09:54:39.000Z</time>
</trkpt>
<trkpt lat="46.0622550" lon="10.4888810">
	<ele>2523.40</ele>
	<time>2023-08-06T09:54:40.000Z</time>
</trkpt>
<trkpt lat="46.0622550" lon="10.4888790">
	<ele>2523.60</ele>
	<time>2023-08-06T09:54:41.000Z</time>
</trkpt>
<trkpt lat="46.0622550" lon="10.4888760">
	<ele>2523.60</ele>
	<time>2023-08-06T09:54:42.000Z</time>
</trkpt>
<trkpt lat="46.0622550" lon="10.4888740">
	<ele>2523.80</ele>
	<time>2023-08-06T09:54:43.000Z</time>
</trkpt>
<trkpt lat="46.0622550" lon="10.4888730">
	<ele>2523.80</ele>
	<time>2023-08-06T09:54:44.000Z</time>
</trkpt>
<trkpt lat="46.0622560" lon="10.4888720">
	<ele>2524.00</ele>
	<time>2023-08-06T09:54:45.000Z</time>
</trkpt>
<trkpt lat="46.0622560" lon="10.4888700">
	<ele>2524.00</ele>
	<time>2023-08-06T09:54:46.000Z</time>
</trkpt>
<trkpt lat="46.0622570" lon="10.4888680">
	<ele>2524.20</ele>
	<time>2023-08-06T09:54:47.000Z</time>
</trkpt>
<trkpt lat="46.0622660" lon="10.4888670">
	<ele>2524.20</ele>
	<time>2023-08-06T09:54:48.000Z</time>
</trkpt>
<trkpt lat="46.0622830" lon="10.4888670">
	<ele>2524.40</ele>
	<time>2023-08-06T09:54:49.000Z</time>
</trkpt>
<trkpt lat="46.0622980" lon="10.4888660">
	<ele>2524.60</ele>
	<time>2023-08-06T09:54:50.000Z</time>
</trkpt>
<trkpt lat="46.0623120" lon="10.4888670">
	<ele>2524.80</ele>
	<time>2023-08-06T09:54:51.000Z</time>
</trkpt>
<trkpt lat="46.0623240" lon="10.4888680">
	<ele>2525.00</ele>
	<time>2023-08-06T09:54:52.000Z</time>
</trkpt>
<trkpt lat="46.0623360" lon="10.4888660">
	<ele>2525.20</ele>
	<time>2023-08-06T09:54:53.000Z</time>
</trkpt>
<trkpt lat="46.0623490" lon="10.4888640">
	<ele>2525.20</ele>
	<time>2023-08-06T09:54:54.000Z</time>
</trkpt>
<trkpt lat="46.0623600" lon="10.4888620">
	<ele>2525.40</ele>
	<time>2023-08-06T09:54:55.000Z</time>
</trkpt>
<trkpt lat="46.0623710" lon="10.4888600">
	<ele>2525.40</ele>
	<time>2023-08-06T09:54:56.000Z</time>
</trkpt>
<trkpt lat="46.0623840" lon="10.4888580">
	<ele>2525.80</ele>
	<time>2023-08-06T09:54:57.000Z</time>
</trkpt>
<trkpt lat="46.0623890" lon="10.4888580">
	<ele>2526.00</ele>
	<time>2023-08-06T09:54:58.000Z</time>
</trkpt>
<trkpt lat="46.0623940" lon="10.4888540">
	<ele>2526.20</ele>
	<time>2023-08-06T09:54:59.000Z</time>
</trkpt>
<trkpt lat="46.0623990" lon="10.4888520">
	<ele>2526.60</ele>
	<time>2023-08-06T09:55:00.000Z</time>
</trkpt>
<trkpt lat="46.0624030" lon="10.4888500">
	<ele>2526.80</ele>
	<time>2023-08-06T09:55:01.000Z</time>
</trkpt>
<trkpt lat="46.0624080" lon="10.4888490">
	<ele>2527.20</ele>
	<time>2023-08-06T09:55:02.000Z</time>
</trkpt>
<trkpt lat="46.0624090" lon="10.4888490">
	<ele>2527.40</ele>
	<time>2023-08-06T09:55:03.000Z</time>
</trkpt>
<trkpt lat="46.0624100" lon="10.4888560">
	<ele>2527.60</ele>
	<time>2023-08-06T09:55:04.000Z</time>
</trkpt>
<trkpt lat="46.0624130" lon="10.4888570">
	<ele>2527.80</ele>
	<time>2023-08-06T09:55:05.000Z</time>
</trkpt>
<trkpt lat="46.0624170" lon="10.4888560">
	<ele>2528.00</ele>
	<time>2023-08-06T09:55:06.000Z</time>
</trkpt>
<trkpt lat="46.0624190" lon="10.4888540">
	<ele>2528.20</ele>
	<time>2023-08-06T09:55:07.000Z</time>
</trkpt>
<trkpt lat="46.0624210" lon="10.4888570">
	<ele>2528.40</ele>
	<time>2023-08-06T09:55:08.000Z</time>
</trkpt>
<trkpt lat="46.0624280" lon="10.4888620">
	<ele>2528.60</ele>
	<time>2023-08-06T09:55:09.000Z</time>
</trkpt>
<trkpt lat="46.0624360" lon="10.4888620">
	<ele>2528.60</ele>
	<time>2023-08-06T09:55:10.000Z</time>
</trkpt>
<trkpt lat="46.0624440" lon="10.4888620">
	<ele>2528.60</ele>
	<time>2023-08-06T09:55:11.000Z</time>
</trkpt>
<trkpt lat="46.0624490" lon="10.4888610">
	<ele>2528.80</ele>
	<time>2023-08-06T09:55:12.000Z</time>
</trkpt>
<trkpt lat="46.0624520" lon="10.4888640">
	<ele>2528.80</ele>
	<time>2023-08-06T09:55:13.000Z</time>
</trkpt>
<trkpt lat="46.0624560" lon="10.4888650">
	<ele>2528.80</ele>
	<time>2023-08-06T09:55:14.000Z</time>
</trkpt>
<trkpt lat="46.0624600" lon="10.4888680">
	<ele>2528.60</ele>
	<time>2023-08-06T09:55:15.000Z</time>
</trkpt>
<trkpt lat="46.0624650" lon="10.4888680">
	<ele>2528.60</ele>
	<time>2023-08-06T09:55:16.000Z</time>
</trkpt>
<trkpt lat="46.0624720" lon="10.4888730">
	<ele>2528.20</ele>
	<time>2023-08-06T09:55:17.000Z</time>
</trkpt>
<trkpt lat="46.0624800" lon="10.4888800">
	<ele>2527.80</ele>
	<time>2023-08-06T09:55:18.000Z</time>
</trkpt>
<trkpt lat="46.0624850" lon="10.4888820">
	<ele>2527.60</ele>
	<time>2023-08-06T09:55:19.000Z</time>
</trkpt>
<trkpt lat="46.0624880" lon="10.4888840">
	<ele>2527.40</ele>
	<time>2023-08-06T09:55:20.000Z</time>
</trkpt>
<trkpt lat="46.0624910" lon="10.4888860">
	<ele>2527.40</ele>
	<time>2023-08-06T09:55:21.000Z</time>
</trkpt>
<trkpt lat="46.0624930" lon="10.4888860">
	<ele>2527.40</ele>
	<time>2023-08-06T09:55:22.000Z</time>
</trkpt>
<trkpt lat="46.0624940" lon="10.4888870">
	<ele>2527.80</ele>
	<time>2023-08-06T09:55:23.000Z</time>
</trkpt>
<trkpt lat="46.0624960" lon="10.4888860">
	<ele>2528.00</ele>
	<time>2023-08-06T09:55:24.000Z</time>
</trkpt>
<trkpt lat="46.0624980" lon="10.4888850">
	<ele>2528.00</ele>
	<time>2023-08-06T09:55:25.000Z</time>
</trkpt>
<trkpt lat="46.0625020" lon="10.4888810">
	<ele>2528.20</ele>
	<time>2023-08-06T09:55:26.000Z</time>
</trkpt>
<trkpt lat="46.0625010" lon="10.4888870">
	<ele>2528.60</ele>
	<time>2023-08-06T09:55:27.000Z</time>
</trkpt>
<trkpt lat="46.0625030" lon="10.4888940">
	<ele>2529.00</ele>
	<time>2023-08-06T09:55:28.000Z</time>
</trkpt>
<trkpt lat="46.0625060" lon="10.4888960">
	<ele>2529.20</ele>
	<time>2023-08-06T09:55:29.000Z</time>
</trkpt>
<trkpt lat="46.0625100" lon="10.4888990">
	<ele>2529.40</ele>
	<time>2023-08-06T09:55:30.000Z</time>
</trkpt>
<trkpt lat="46.0625140" lon="10.4889010">
	<ele>2529.40</ele>
	<time>2023-08-06T09:55:31.000Z</time>
</trkpt>
<trkpt lat="46.0625190" lon="10.4889040">
	<ele>2529.60</ele>
	<time>2023-08-06T09:55:32.000Z</time>
</trkpt>
<trkpt lat="46.0625230" lon="10.4889040">
	<ele>2529.80</ele>
	<time>2023-08-06T09:55:33.000Z</time>
</trkpt>
<trkpt lat="46.0625260" lon="10.4889050">
	<ele>2529.80</ele>
	<time>2023-08-06T09:55:34.000Z</time>
</trkpt>
<trkpt lat="46.0625270" lon="10.4889050">
	<ele>2530.00</ele>
	<time>2023-08-06T09:55:35.000Z</time>
</trkpt>
<trkpt lat="46.0625300" lon="10.4889050">
	<ele>2530.00</ele>
	<time>2023-08-06T09:55:36.000Z</time>
</trkpt>
<trkpt lat="46.0625330" lon="10.4889030">
	<ele>2530.60</ele>
	<time>2023-08-06T09:55:37.000Z</time>
</trkpt>
<trkpt lat="46.0625360" lon="10.4889010">
	<ele>2530.80</ele>
	<time>2023-08-06T09:55:38.000Z</time>
</trkpt>
<trkpt lat="46.0625420" lon="10.4889010">
	<ele>2531.00</ele>
	<time>2023-08-06T09:55:39.000Z</time>
</trkpt>
<trkpt lat="46.0625450" lon="10.4888990">
	<ele>2531.20</ele>
	<time>2023-08-06T09:55:40.000Z</time>
</trkpt>
<trkpt lat="46.0625500" lon="10.4888990">
	<ele>2531.20</ele>
	<time>2023-08-06T09:55:41.000Z</time>
</trkpt>
<trkpt lat="46.0625530" lon="10.4888970">
	<ele>2531.40</ele>
	<time>2023-08-06T09:55:42.000Z</time>
</trkpt>
<trkpt lat="46.0625540" lon="10.4888950">
	<ele>2531.40</ele>
	<time>2023-08-06T09:55:43.000Z</time>
</trkpt>
<trkpt lat="46.0625590" lon="10.4888930">
	<ele>2531.40</ele>
	<time>2023-08-06T09:55:44.000Z</time>
</trkpt>
<trkpt lat="46.0625640" lon="10.4888980">
	<ele>2531.60</ele>
	<time>2023-08-06T09:55:45.000Z</time>
</trkpt>
<trkpt lat="46.0625670" lon="10.4889000">
	<ele>2531.80</ele>
	<time>2023-08-06T09:55:46.000Z</time>
</trkpt>
<trkpt lat="46.0625700" lon="10.4889050">
	<ele>2531.80</ele>
	<time>2023-08-06T09:55:47.000Z</time>
</trkpt>
<trkpt lat="46.0625740" lon="10.4889060">
	<ele>2531.80</ele>
	<time>2023-08-06T09:55:48.000Z</time>
</trkpt>
<trkpt lat="46.0625790" lon="10.4889020">
	<ele>2532.00</ele>
	<time>2023-08-06T09:55:49.000Z</time>
</trkpt>
<trkpt lat="46.0625830" lon="10.4889010">
	<ele>2532.00</ele>
	<time>2023-08-06T09:55:50.000Z</time>
</trkpt>
<trkpt lat="46.0625870" lon="10.4889020">
	<ele>2532.20</ele>
	<time>2023-08-06T09:55:51.000Z</time>
</trkpt>
<trkpt lat="46.0625930" lon="10.4889080">
	<ele>2532.40</ele>
	<time>2023-08-06T09:55:52.000Z</time>
</trkpt>
<trkpt lat="46.0625980" lon="10.4889100">
	<ele>2532.40</ele>
	<time>2023-08-06T09:55:53.000Z</time>
</trkpt>
<trkpt lat="46.0626020" lon="10.4889090">
	<ele>2532.40</ele>
	<time>2023-08-06T09:55:54.000Z</time>
</trkpt>
<trkpt lat="46.0626050" lon="10.4889070">
	<ele>2532.40</ele>
	<time>2023-08-06T09:55:55.000Z</time>
</trkpt>
<trkpt lat="46.0626090" lon="10.4889050">
	<ele>2532.20</ele>
	<time>2023-08-06T09:55:56.000Z</time>
</trkpt>
<trkpt lat="46.0626130" lon="10.4889020">
	<ele>2532.00</ele>
	<time>2023-08-06T09:55:57.000Z</time>
</trkpt>
<trkpt lat="46.0626180" lon="10.4889000">
	<ele>2531.80</ele>
	<time>2023-08-06T09:55:58.000Z</time>
</trkpt>
<trkpt lat="46.0626230" lon="10.4889030">
	<ele>2531.60</ele>
	<time>2023-08-06T09:55:59.000Z</time>
</trkpt>
<trkpt lat="46.0626270" lon="10.4889050">
	<ele>2531.40</ele>
	<time>2023-08-06T09:56:00.000Z</time>
</trkpt>
<trkpt lat="46.0626320" lon="10.4889070">
	<ele>2531.40</ele>
	<time>2023-08-06T09:56:01.000Z</time>
</trkpt>
<trkpt lat="46.0626420" lon="10.4889100">
	<ele>2531.20</ele>
	<time>2023-08-06T09:56:02.000Z</time>
</trkpt>
<trkpt lat="46.0626480" lon="10.4889170">
	<ele>2531.20</ele>
	<time>2023-08-06T09:56:03.000Z</time>
</trkpt>
<trkpt lat="46.0626510" lon="10.4889240">
	<ele>2531.20</ele>
	<time>2023-08-06T09:56:04.000Z</time>
</trkpt>
<trkpt lat="46.0626570" lon="10.4889360">
	<ele>2531.20</ele>
	<time>2023-08-06T09:56:05.000Z</time>
</trkpt>
<trkpt lat="46.0626600" lon="10.4889430">
	<ele>2531.20</ele>
	<time>2023-08-06T09:56:06.000Z</time>
</trkpt>
<trkpt lat="46.0626590" lon="10.4889470">
	<ele>2531.40</ele>
	<time>2023-08-06T09:56:07.000Z</time>
</trkpt>
<trkpt lat="46.0626580" lon="10.4889490">
	<ele>2531.40</ele>
	<time>2023-08-06T09:56:08.000Z</time>
</trkpt>
<trkpt lat="46.0626570" lon="10.4889480">
	<ele>2531.60</ele>
	<time>2023-08-06T09:56:09.000Z</time>
</trkpt>
<trkpt lat="46.0626580" lon="10.4889490">
	<ele>2531.60</ele>
	<time>2023-08-06T09:56:10.000Z</time>
</trkpt>
<trkpt lat="46.0626600" lon="10.4889500">
	<ele>2531.60</ele>
	<time>2023-08-06T09:56:11.000Z</time>
</trkpt>
<trkpt lat="46.0626640" lon="10.4889480">
	<ele>2531.60</ele>
	<time>2023-08-06T09:56:12.000Z</time>
</trkpt>
<trkpt lat="46.0626660" lon="10.4889510">
	<ele>2531.60</ele>
	<time>2023-08-06T09:56:13.000Z</time>
</trkpt>
<trkpt lat="46.0626700" lon="10.4889610">
	<ele>2531.80</ele>
	<time>2023-08-06T09:56:14.000Z</time>
</trkpt>
<trkpt lat="46.0626760" lon="10.4889730">
	<ele>2531.80</ele>
	<time>2023-08-06T09:56:15.000Z</time>
</trkpt>
<trkpt lat="46.0626800" lon="10.4889810">
	<ele>2531.60</ele>
	<time>2023-08-06T09:56:16.000Z</time>
</trkpt>
<trkpt lat="46.0626830" lon="10.4889890">
	<ele>2531.60</ele>
	<time>2023-08-06T09:56:17.000Z</time>
</trkpt>
<trkpt lat="46.0626870" lon="10.4889960">
	<ele>2531.60</ele>
	<time>2023-08-06T09:56:18.000Z</time>
</trkpt>
<trkpt lat="46.0626930" lon="10.4890000">
	<ele>2531.40</ele>
	<time>2023-08-06T09:56:19.000Z</time>
</trkpt>
<trkpt lat="46.0626940" lon="10.4890000">
	<ele>2531.20</ele>
	<time>2023-08-06T09:56:20.000Z</time>
</trkpt>
<trkpt lat="46.0626940" lon="10.4890000">
	<ele>2531.20</ele>
	<time>2023-08-06T09:56:21.000Z</time>
</trkpt>
<trkpt lat="46.0626940" lon="10.4890000">
	<ele>2531.00</ele>
	<time>2023-08-06T09:56:22.000Z</time>
</trkpt>
<trkpt lat="46.0626940" lon="10.4890000">
	<ele>2531.00</ele>
	<time>2023-08-06T09:56:23.000Z</time>
</trkpt>
<trkpt lat="46.0626940" lon="10.4890000">
	<ele>2531.00</ele>
	<time>2023-08-06T09:56:24.000Z</time>
</trkpt>
<trkpt lat="46.0626940" lon="10.4890000">
	<ele>2531.00</ele>
	<time>2023-08-06T09:56:25.000Z</time>
</trkpt>
<trkpt lat="46.0626940" lon="10.4890000">
	<ele>2531.40</ele>
	<time>2023-08-06T09:56:26.000Z</time>
</trkpt>
<trkpt lat="46.0626940" lon="10.4890000">
	<ele>2531.80</ele>
	<time>2023-08-06T09:56:27.000Z</time>
</trkpt>
<trkpt lat="46.0626940" lon="10.4890000">
	<ele>2532.00</ele>
	<time>2023-08-06T09:56:28.000Z</time>
</trkpt>
<trkpt lat="46.0626940" lon="10.4890000">
	<ele>2532.00</ele>
	<time>2023-08-06T09:56:29.000Z</time>
</trkpt>
<trkpt lat="46.0626940" lon="10.4890000">
	<ele>2532.00</ele>
	<time>2023-08-06T09:56:30.000Z</time>
</trkpt>
<trkpt lat="46.0626940" lon="10.4890000">
	<ele>2532.00</ele>
	<time>2023-08-06T09:56:31.000Z</time>
</trkpt>
<trkpt lat="46.0626940" lon="10.4890000">
	<ele>2532.00</ele>
	<time>2023-08-06T09:56:32.000Z</time>
</trkpt>
<trkpt lat="46.0626940" lon="10.4890000">
	<ele>2531.80</ele>
	<time>2023-08-06T09:56:33.000Z</time>
</trkpt>
<trkpt lat="46.0626940" lon="10.4890000">
	<ele>2531.60</ele>
	<time>2023-08-06T09:56:34.000Z</time>
</trkpt>
<trkpt lat="46.0626940" lon="10.4890000">
	<ele>2531.60</ele>
	<time>2023-08-06T09:56:35.000Z</time>
</trkpt>
<trkpt lat="46.0626940" lon="10.4890000">
	<ele>2531.60</ele>
	<time>2023-08-06T09:56:36.000Z</time>
</trkpt>
<trkpt lat="46.0626940" lon="10.4890000">
	<ele>2531.40</ele>
	<time>2023-08-06T09:56:37.000Z</time>
</trkpt>
<trkpt lat="46.0626950" lon="10.4890000">
	<ele>2531.40</ele>
	<time>2023-08-06T09:56:38.000Z</time>
</trkpt>
<trkpt lat="46.0626950" lon="10.4890000">
	<ele>2531.60</ele>
	<time>2023-08-06T09:56:39.000Z</time>
</trkpt>
<trkpt lat="46.0626950" lon="10.4890020">
	<ele>2531.60</ele>
	<time>2023-08-06T09:56:40.000Z</time>
</trkpt>
<trkpt lat="46.0626950" lon="10.4890030">
	<ele>2531.80</ele>
	<time>2023-08-06T09:56:41.000Z</time>
</trkpt>
<trkpt lat="46.0626960" lon="10.4890030">
	<ele>2531.80</ele>
	<time>2023-08-06T09:56:42.000Z</time>
</trkpt>
<trkpt lat="46.0626990" lon="10.4890070">
	<ele>2531.80</ele>
	<time>2023-08-06T09:56:43.000Z</time>
</trkpt>
<trkpt lat="46.0627090" lon="10.4890170">
	<ele>2531.80</ele>
	<time>2023-08-06T09:56:44.000Z</time>
</trkpt>
<trkpt lat="46.0627190" lon="10.4890250">
	<ele>2532.00</ele>
	<time>2023-08-06T09:56:45.000Z</time>
</trkpt>
<trkpt lat="46.0627300" lon="10.4890320">
	<ele>2532.00</ele>
	<time>2023-08-06T09:56:46.000Z</time>
</trkpt>
<trkpt lat="46.0627410" lon="10.4890380">
	<ele>2532.40</ele>
	<time>2023-08-06T09:56:47.000Z</time>
</trkpt>
<trkpt lat="46.0627510" lon="10.4890470">
	<ele>2532.60</ele>
	<time>2023-08-06T09:56:48.000Z</time>
</trkpt>
<trkpt lat="46.0627620" lon="10.4890540">
	<ele>2532.80</ele>
	<time>2023-08-06T09:56:49.000Z</time>
</trkpt>
<trkpt lat="46.0627730" lon="10.4890630">
	<ele>2533.00</ele>
	<time>2023-08-06T09:56:50.000Z</time>
</trkpt>
<trkpt lat="46.0627840" lon="10.4890690">
	<ele>2533.20</ele>
	<time>2023-08-06T09:56:51.000Z</time>
</trkpt>
<trkpt lat="46.0627890" lon="10.4890770">
	<ele>2533.40</ele>
	<time>2023-08-06T09:56:52.000Z</time>
</trkpt>
<trkpt lat="46.0627940" lon="10.4890800">
	<ele>2533.60</ele>
	<time>2023-08-06T09:56:53.000Z</time>
</trkpt>
<trkpt lat="46.0628010" lon="10.4890840">
	<ele>2533.60</ele>
	<time>2023-08-06T09:56:54.000Z</time>
</trkpt>
<trkpt lat="46.0628070" lon="10.4890870">
	<ele>2533.80</ele>
	<time>2023-08-06T09:56:55.000Z</time>
</trkpt>
<trkpt lat="46.0628100" lon="10.4890890">
	<ele>2533.80</ele>
	<time>2023-08-06T09:56:56.000Z</time>
</trkpt>
<trkpt lat="46.0628140" lon="10.4890890">
	<ele>2534.20</ele>
	<time>2023-08-06T09:56:57.000Z</time>
</trkpt>
<trkpt lat="46.0628200" lon="10.4890900">
	<ele>2534.20</ele>
	<time>2023-08-06T09:56:58.000Z</time>
</trkpt>
<trkpt lat="46.0628260" lon="10.4890870">
	<ele>2534.40</ele>
	<time>2023-08-06T09:56:59.000Z</time>
</trkpt>
<trkpt lat="46.0628320" lon="10.4890840">
	<ele>2534.40</ele>
	<time>2023-08-06T09:57:00.000Z</time>
</trkpt>
<trkpt lat="46.0628380" lon="10.4890800">
	<ele>2534.40</ele>
	<time>2023-08-06T09:57:01.000Z</time>
</trkpt>
<trkpt lat="46.0628410" lon="10.4890790">
	<ele>2534.40</ele>
	<time>2023-08-06T09:57:02.000Z</time>
</trkpt>
<trkpt lat="46.0628440" lon="10.4890770">
	<ele>2534.20</ele>
	<time>2023-08-06T09:57:03.000Z</time>
</trkpt>
<trkpt lat="46.0628510" lon="10.4890730">
	<ele>2534.00</ele>
	<time>2023-08-06T09:57:04.000Z</time>
</trkpt>
<trkpt lat="46.0628550" lon="10.4890670">
	<ele>2534.20</ele>
	<time>2023-08-06T09:57:05.000Z</time>
</trkpt>
<trkpt lat="46.0628610" lon="10.4890590">
	<ele>2534.40</ele>
	<time>2023-08-06T09:57:06.000Z</time>
</trkpt>
<trkpt lat="46.0628660" lon="10.4890520">
	<ele>2534.80</ele>
	<time>2023-08-06T09:57:07.000Z</time>
</trkpt>
<trkpt lat="46.0628760" lon="10.4890470">
	<ele>2534.80</ele>
	<time>2023-08-06T09:57:08.000Z</time>
</trkpt>
<trkpt lat="46.0628820" lon="10.4890470">
	<ele>2535.00</ele>
	<time>2023-08-06T09:57:09.000Z</time>
</trkpt>
<trkpt lat="46.0628870" lon="10.4890460">
	<ele>2535.00</ele>
	<time>2023-08-06T09:57:10.000Z</time>
</trkpt>
<trkpt lat="46.0628920" lon="10.4890430">
	<ele>2535.40</ele>
	<time>2023-08-06T09:57:11.000Z</time>
</trkpt>
<trkpt lat="46.0628960" lon="10.4890400">
	<ele>2535.40</ele>
	<time>2023-08-06T09:57:12.000Z</time>
</trkpt>
<trkpt lat="46.0628990" lon="10.4890400">
	<ele>2535.60</ele>
	<time>2023-08-06T09:57:13.000Z</time>
</trkpt>
<trkpt lat="46.0629010" lon="10.4890410">
	<ele>2536.00</ele>
	<time>2023-08-06T09:57:14.000Z</time>
</trkpt>
<trkpt lat="46.0629050" lon="10.4890410">
	<ele>2536.20</ele>
	<time>2023-08-06T09:57:15.000Z</time>
</trkpt>
<trkpt lat="46.0629100" lon="10.4890410">
	<ele>2536.40</ele>
	<time>2023-08-06T09:57:16.000Z</time>
</trkpt>
<trkpt lat="46.0629140" lon="10.4890410">
	<ele>2536.40</ele>
	<time>2023-08-06T09:57:17.000Z</time>
</trkpt>
<trkpt lat="46.0629160" lon="10.4890410">
	<ele>2536.40</ele>
	<time>2023-08-06T09:57:18.000Z</time>
</trkpt>
<trkpt lat="46.0629170" lon="10.4890400">
	<ele>2537.20</ele>
	<time>2023-08-06T09:57:19.000Z</time>
</trkpt>
<trkpt lat="46.0629190" lon="10.4890370">
	<ele>2537.60</ele>
	<time>2023-08-06T09:57:20.000Z</time>
</trkpt>
<trkpt lat="46.0629230" lon="10.4890360">
	<ele>2537.80</ele>
	<time>2023-08-06T09:57:21.000Z</time>
</trkpt>
<trkpt lat="46.0629260" lon="10.4890390">
	<ele>2538.00</ele>
	<time>2023-08-06T09:57:22.000Z</time>
</trkpt>
<trkpt lat="46.0629310" lon="10.4890420">
	<ele>2538.00</ele>
	<time>2023-08-06T09:57:23.000Z</time>
</trkpt>
<trkpt lat="46.0629330" lon="10.4890460">
	<ele>2538.00</ele>
	<time>2023-08-06T09:57:24.000Z</time>
</trkpt>
<trkpt lat="46.0629380" lon="10.4890480">
	<ele>2538.20</ele>
	<time>2023-08-06T09:57:25.000Z</time>
</trkpt>
<trkpt lat="46.0629420" lon="10.4890490">
	<ele>2538.20</ele>
	<time>2023-08-06T09:57:26.000Z</time>
</trkpt>
<trkpt lat="46.0629460" lon="10.4890490">
	<ele>2538.20</ele>
	<time>2023-08-06T09:57:27.000Z</time>
</trkpt>
<trkpt lat="46.0629500" lon="10.4890500">
	<ele>2538.20</ele>
	<time>2023-08-06T09:57:28.000Z</time>
</trkpt>
<trkpt lat="46.0629690" lon="10.4890660">
	<ele>2538.20</ele>
	<time>2023-08-06T09:57:29.000Z</time>
</trkpt>
<trkpt lat="46.0629750" lon="10.4890710">
	<ele>2538.20</ele>
	<time>2023-08-06T09:57:30.000Z</time>
</trkpt>
<trkpt lat="46.0629810" lon="10.4890810">
	<ele>2538.40</ele>
	<time>2023-08-06T09:57:31.000Z</time>
</trkpt>
<trkpt lat="46.0629880" lon="10.4890810">
	<ele>2538.40</ele>
	<time>2023-08-06T09:57:32.000Z</time>
</trkpt>
<trkpt lat="46.0629920" lon="10.4890800">
	<ele>2538.40</ele>
	<time>2023-08-06T09:57:33.000Z</time>
</trkpt>
<trkpt lat="46.0629970" lon="10.4890830">
	<ele>2538.40</ele>
	<time>2023-08-06T09:57:34.000Z</time>
</trkpt>
<trkpt lat="46.0630030" lon="10.4890840">
	<ele>2538.20</ele>
	<time>2023-08-06T09:57:35.000Z</time>
</trkpt>
<trkpt lat="46.0630070" lon="10.4890860">
	<ele>2538.00</ele>
	<time>2023-08-06T09:57:36.000Z</time>
</trkpt>
<trkpt lat="46.0630160" lon="10.4890850">
	<ele>2538.00</ele>
	<time>2023-08-06T09:57:37.000Z</time>
</trkpt>
<trkpt lat="46.0630200" lon="10.4890890">
	<ele>2537.80</ele>
	<time>2023-08-06T09:57:38.000Z</time>
</trkpt>
<trkpt lat="46.0630230" lon="10.4890920">
	<ele>2538.00</ele>
	<time>2023-08-06T09:57:39.000Z</time>
</trkpt>
<trkpt lat="46.0630270" lon="10.4890950">
	<ele>2538.00</ele>
	<time>2023-08-06T09:57:40.000Z</time>
</trkpt>
<trkpt lat="46.0630280" lon="10.4891030">
	<ele>2538.20</ele>
	<time>2023-08-06T09:57:41.000Z</time>
</trkpt>
<trkpt lat="46.0630320" lon="10.4891070">
	<ele>2538.60</ele>
	<time>2023-08-06T09:57:42.000Z</time>
</trkpt>
<trkpt lat="46.0630390" lon="10.4891110">
	<ele>2538.80</ele>
	<time>2023-08-06T09:57:43.000Z</time>
</trkpt>
<trkpt lat="46.0630450" lon="10.4891180">
	<ele>2539.40</ele>
	<time>2023-08-06T09:57:44.000Z</time>
</trkpt>
<trkpt lat="46.0630490" lon="10.4891200">
	<ele>2539.60</ele>
	<time>2023-08-06T09:57:45.000Z</time>
</trkpt>
<trkpt lat="46.0630510" lon="10.4891240">
	<ele>2539.80</ele>
	<time>2023-08-06T09:57:46.000Z</time>
</trkpt>
<trkpt lat="46.0630520" lon="10.4891290">
	<ele>2539.80</ele>
	<time>2023-08-06T09:57:47.000Z</time>
</trkpt>
<trkpt lat="46.0630560" lon="10.4891340">
	<ele>2539.80</ele>
	<time>2023-08-06T09:57:48.000Z</time>
</trkpt>
<trkpt lat="46.0630630" lon="10.4891370">
	<ele>2539.60</ele>
	<time>2023-08-06T09:57:49.000Z</time>
</trkpt>
<trkpt lat="46.0630680" lon="10.4891410">
	<ele>2539.40</ele>
	<time>2023-08-06T09:57:50.000Z</time>
</trkpt>
<trkpt lat="46.0630700" lon="10.4891490">
	<ele>2539.20</ele>
	<time>2023-08-06T09:57:51.000Z</time>
</trkpt>
<trkpt lat="46.0630730" lon="10.4891560">
	<ele>2539.00</ele>
	<time>2023-08-06T09:57:52.000Z</time>
</trkpt>
<trkpt lat="46.0630750" lon="10.4891600">
	<ele>2539.00</ele>
	<time>2023-08-06T09:57:53.000Z</time>
</trkpt>
<trkpt lat="46.0630760" lon="10.4891630">
	<ele>2539.00</ele>
	<time>2023-08-06T09:57:54.000Z</time>
</trkpt>
<trkpt lat="46.0630770" lon="10.4891660">
	<ele>2539.00</ele>
	<time>2023-08-06T09:57:55.000Z</time>
</trkpt>
<trkpt lat="46.0630800" lon="10.4891670">
	<ele>2539.00</ele>
	<time>2023-08-06T09:57:56.000Z</time>
</trkpt>
<trkpt lat="46.0630860" lon="10.4891630">
	<ele>2539.20</ele>
	<time>2023-08-06T09:57:57.000Z</time>
</trkpt>
<trkpt lat="46.0630910" lon="10.4891630">
	<ele>2539.20</ele>
	<time>2023-08-06T09:57:58.000Z</time>
</trkpt>
<trkpt lat="46.0630980" lon="10.4891640">
	<ele>2539.00</ele>
	<time>2023-08-06T09:57:59.000Z</time>
</trkpt>
<trkpt lat="46.0631010" lon="10.4891690">
	<ele>2539.20</ele>
	<time>2023-08-06T09:58:00.000Z</time>
</trkpt>
<trkpt lat="46.0631050" lon="10.4891730">
	<ele>2539.20</ele>
	<time>2023-08-06T09:58:01.000Z</time>
</trkpt>
<trkpt lat="46.0631080" lon="10.4891770">
	<ele>2539.00</ele>
	<time>2023-08-06T09:58:02.000Z</time>
</trkpt>
<trkpt lat="46.0631120" lon="10.4891780">
	<ele>2539.00</ele>
	<time>2023-08-06T09:58:03.000Z</time>
</trkpt>
<trkpt lat="46.0631190" lon="10.4891780">
	<ele>2539.00</ele>
	<time>2023-08-06T09:58:04.000Z</time>
</trkpt>
<trkpt lat="46.0631220" lon="10.4891780">
	<ele>2539.00</ele>
	<time>2023-08-06T09:58:05.000Z</time>
</trkpt>
<trkpt lat="46.0631260" lon="10.4891770">
	<ele>2538.80</ele>
	<time>2023-08-06T09:58:06.000Z</time>
</trkpt>
<trkpt lat="46.0631300" lon="10.4891770">
	<ele>2538.80</ele>
	<time>2023-08-06T09:58:07.000Z</time>
</trkpt>
<trkpt lat="46.0631370" lon="10.4891780">
	<ele>2538.60</ele>
	<time>2023-08-06T09:58:08.000Z</time>
</trkpt>
<trkpt lat="46.0631390" lon="10.4891790">
	<ele>2538.40</ele>
	<time>2023-08-06T09:58:09.000Z</time>
</trkpt>
<trkpt lat="46.0631480" lon="10.4891800">
	<ele>2538.20</ele>
	<time>2023-08-06T09:58:10.000Z</time>
</trkpt>
<trkpt lat="46.0631570" lon="10.4891840">
	<ele>2538.20</ele>
	<time>2023-08-06T09:58:11.000Z</time>
</trkpt>
<trkpt lat="46.0631640" lon="10.4891860">
	<ele>2538.00</ele>
	<time>2023-08-06T09:58:12.000Z</time>
</trkpt>
<trkpt lat="46.0631680" lon="10.4891860">
	<ele>2538.00</ele>
	<time>2023-08-06T09:58:13.000Z</time>
</trkpt>
<trkpt lat="46.0631700" lon="10.4891860">
	<ele>2538.00</ele>
	<time>2023-08-06T09:58:14.000Z</time>
</trkpt>
<trkpt lat="46.0631730" lon="10.4891870">
	<ele>2538.00</ele>
	<time>2023-08-06T09:58:15.000Z</time>
</trkpt>
<trkpt lat="46.0631760" lon="10.4891890">
	<ele>2538.20</ele>
	<time>2023-08-06T09:58:16.000Z</time>
</trkpt>
<trkpt lat="46.0631800" lon="10.4891890">
	<ele>2538.20</ele>
	<time>2023-08-06T09:58:17.000Z</time>
</trkpt>
<trkpt lat="46.0631880" lon="10.4891820">
	<ele>2538.00</ele>
	<time>2023-08-06T09:58:18.000Z</time>
</trkpt>
<trkpt lat="46.0631950" lon="10.4891810">
	<ele>2537.80</ele>
	<time>2023-08-06T09:58:19.000Z</time>
</trkpt>
<trkpt lat="46.0632020" lon="10.4891830">
	<ele>2537.80</ele>
	<time>2023-08-06T09:58:20.000Z</time>
</trkpt>
<trkpt lat="46.0632090" lon="10.4891890">
	<ele>2537.60</ele>
	<time>2023-08-06T09:58:21.000Z</time>
</trkpt>
<trkpt lat="46.0632150" lon="10.4891980">
	<ele>2537.40</ele>
	<time>2023-08-06T09:58:22.000Z</time>
</trkpt>
<trkpt lat="46.0632190" lon="10.4892060">
	<ele>2537.40</ele>
	<time>2023-08-06T09:58:23.000Z</time>
</trkpt>
<trkpt lat="46.0632200" lon="10.4892160">
	<ele>2537.40</ele>
	<time>2023-08-06T09:58:24.000Z</time>
</trkpt>
<trkpt lat="46.0632270" lon="10.4892240">
	<ele>2537.20</ele>
	<time>2023-08-06T09:58:25.000Z</time>
</trkpt>
<trkpt lat="46.0632320" lon="10.4892290">
	<ele>2537.20</ele>
	<time>2023-08-06T09:58:26.000Z</time>
</trkpt>
<trkpt lat="46.0632370" lon="10.4892350">
	<ele>2537.00</ele>
	<time>2023-08-06T09:58:27.000Z</time>
</trkpt>
<trkpt lat="46.0632440" lon="10.4892390">
	<ele>2537.00</ele>
	<time>2023-08-06T09:58:28.000Z</time>
</trkpt>
<trkpt lat="46.0632500" lon="10.4892450">
	<ele>2537.00</ele>
	<time>2023-08-06T09:58:29.000Z</time>
</trkpt>
<trkpt lat="46.0632550" lon="10.4892520">
	<ele>2537.00</ele>
	<time>2023-08-06T09:58:30.000Z</time>
</trkpt>
<trkpt lat="46.0632590" lon="10.4892600">
	<ele>2537.20</ele>
	<time>2023-08-06T09:58:31.000Z</time>
</trkpt>
<trkpt lat="46.0632630" lon="10.4892640">
	<ele>2537.40</ele>
	<time>2023-08-06T09:58:32.000Z</time>
</trkpt>
<trkpt lat="46.0632680" lon="10.4892640">
	<ele>2537.40</ele>
	<time>2023-08-06T09:58:33.000Z</time>
</trkpt>
<trkpt lat="46.0632760" lon="10.4892650">
	<ele>2537.60</ele>
	<time>2023-08-06T09:58:34.000Z</time>
</trkpt>
<trkpt lat="46.0632810" lon="10.4892680">
	<ele>2537.60</ele>
	<time>2023-08-06T09:58:35.000Z</time>
</trkpt>
<trkpt lat="46.0632870" lon="10.4892640">
	<ele>2537.80</ele>
	<time>2023-08-06T09:58:36.000Z</time>
</trkpt>
<trkpt lat="46.0632910" lon="10.4892620">
	<ele>2537.80</ele>
	<time>2023-08-06T09:58:37.000Z</time>
</trkpt>
<trkpt lat="46.0632950" lon="10.4892600">
	<ele>2538.00</ele>
	<time>2023-08-06T09:58:38.000Z</time>
</trkpt>
<trkpt lat="46.0632990" lon="10.4892600">
	<ele>2538.40</ele>
	<time>2023-08-06T09:58:39.000Z</time>
</trkpt>
<trkpt lat="46.0633070" lon="10.4892610">
	<ele>2538.60</ele>
	<time>2023-08-06T09:58:40.000Z</time>
</trkpt>
<trkpt lat="46.0633100" lon="10.4892540">
	<ele>2538.60</ele>
	<time>2023-08-06T09:58:41.000Z</time>
</trkpt>
<trkpt lat="46.0633130" lon="10.4892510">
	<ele>2538.80</ele>
	<time>2023-08-06T09:58:42.000Z</time>
</trkpt>
<trkpt lat="46.0633140" lon="10.4892530">
	<ele>2539.00</ele>
	<time>2023-08-06T09:58:43.000Z</time>
</trkpt>
<trkpt lat="46.0633170" lon="10.4892500">
	<ele>2539.00</ele>
	<time>2023-08-06T09:58:44.000Z</time>
</trkpt>
<trkpt lat="46.0633220" lon="10.4892480">
	<ele>2539.20</ele>
	<time>2023-08-06T09:58:45.000Z</time>
</trkpt>
<trkpt lat="46.0633250" lon="10.4892480">
	<ele>2539.20</ele>
	<time>2023-08-06T09:58:46.000Z</time>
</trkpt>
<trkpt lat="46.0633290" lon="10.4892450">
	<ele>2539.60</ele>
	<time>2023-08-06T09:58:47.000Z</time>
</trkpt>
<trkpt lat="46.0633340" lon="10.4892380">
	<ele>2539.80</ele>
	<time>2023-08-06T09:58:48.000Z</time>
</trkpt>
<trkpt lat="46.0633370" lon="10.4892340">
	<ele>2540.00</ele>
	<time>2023-08-06T09:58:49.000Z</time>
</trkpt>
<trkpt lat="46.0633390" lon="10.4892250">
	<ele>2540.20</ele>
	<time>2023-08-06T09:58:50.000Z</time>
</trkpt>
<trkpt lat="46.0633390" lon="10.4892180">
	<ele>2540.20</ele>
	<time>2023-08-06T09:58:51.000Z</time>
</trkpt>
<trkpt lat="46.0633410" lon="10.4892150">
	<ele>2540.40</ele>
	<time>2023-08-06T09:58:52.000Z</time>
</trkpt>
<trkpt lat="46.0633430" lon="10.4892080">
	<ele>2540.60</ele>
	<time>2023-08-06T09:58:53.000Z</time>
</trkpt>
<trkpt lat="46.0633450" lon="10.4892060">
	<ele>2540.80</ele>
	<time>2023-08-06T09:58:54.000Z</time>
</trkpt>
<trkpt lat="46.0633470" lon="10.4892020">
	<ele>2541.00</ele>
	<time>2023-08-06T09:58:55.000Z</time>
</trkpt>
<trkpt lat="46.0633490" lon="10.4891950">
	<ele>2541.20</ele>
	<time>2023-08-06T09:58:56.000Z</time>
</trkpt>
<trkpt lat="46.0633490" lon="10.4891850">
	<ele>2541.60</ele>
	<time>2023-08-06T09:58:57.000Z</time>
</trkpt>
<trkpt lat="46.0633510" lon="10.4891820">
	<ele>2541.80</ele>
	<time>2023-08-06T09:58:58.000Z</time>
</trkpt>
<trkpt lat="46.0633530" lon="10.4891790">
	<ele>2542.00</ele>
	<time>2023-08-06T09:58:59.000Z</time>
</trkpt>
<trkpt lat="46.0633550" lon="10.4891730">
	<ele>2542.20</ele>
	<time>2023-08-06T09:59:00.000Z</time>
</trkpt>
<trkpt lat="46.0633580" lon="10.4891660">
	<ele>2542.40</ele>
	<time>2023-08-06T09:59:01.000Z</time>
</trkpt>
<trkpt lat="46.0633610" lon="10.4891620">
	<ele>2542.60</ele>
	<time>2023-08-06T09:59:02.000Z</time>
</trkpt>
<trkpt lat="46.0633650" lon="10.4891620">
	<ele>2542.60</ele>
	<time>2023-08-06T09:59:03.000Z</time>
</trkpt>
<trkpt lat="46.0633710" lon="10.4891650">
	<ele>2542.80</ele>
	<time>2023-08-06T09:59:04.000Z</time>
</trkpt>
<trkpt lat="46.0633760" lon="10.4891670">
	<ele>2542.80</ele>
	<time>2023-08-06T09:59:05.000Z</time>
</trkpt>
<trkpt lat="46.0633790" lon="10.4891630">
	<ele>2542.80</ele>
	<time>2023-08-06T09:59:06.000Z</time>
</trkpt>
<trkpt lat="46.0633800" lon="10.4891610">
	<ele>2543.00</ele>
	<time>2023-08-06T09:59:07.000Z</time>
</trkpt>
<trkpt lat="46.0633860" lon="10.4891610">
	<ele>2543.20</ele>
	<time>2023-08-06T09:59:08.000Z</time>
</trkpt>
<trkpt lat="46.0633880" lon="10.4891620">
	<ele>2543.40</ele>
	<time>2023-08-06T09:59:09.000Z</time>
</trkpt>
<trkpt lat="46.0633940" lon="10.4891560">
	<ele>2543.40</ele>
	<time>2023-08-06T09:59:10.000Z</time>
</trkpt>
<trkpt lat="46.0633970" lon="10.4891480">
	<ele>2543.80</ele>
	<time>2023-08-06T09:59:11.000Z</time>
</trkpt>
<trkpt lat="46.0634010" lon="10.4891440">
	<ele>2544.00</ele>
	<time>2023-08-06T09:59:12.000Z</time>
</trkpt>
<trkpt lat="46.0634040" lon="10.4891460">
	<ele>2544.20</ele>
	<time>2023-08-06T09:59:13.000Z</time>
</trkpt>
<trkpt lat="46.0634090" lon="10.4891490">
	<ele>2544.40</ele>
	<time>2023-08-06T09:59:14.000Z</time>
</trkpt>
<trkpt lat="46.0634110" lon="10.4891570">
	<ele>2544.40</ele>
	<time>2023-08-06T09:59:15.000Z</time>
</trkpt>
<trkpt lat="46.0634130" lon="10.4891600">
	<ele>2544.60</ele>
	<time>2023-08-06T09:59:16.000Z</time>
</trkpt>
<trkpt lat="46.0634180" lon="10.4891640">
	<ele>2544.60</ele>
	<time>2023-08-06T09:59:17.000Z</time>
</trkpt>
<trkpt lat="46.0634210" lon="10.4891660">
	<ele>2544.60</ele>
	<time>2023-08-06T09:59:18.000Z</time>
</trkpt>
<trkpt lat="46.0634210" lon="10.4891650">
	<ele>2544.80</ele>
	<time>2023-08-06T09:59:19.000Z</time>
</trkpt>
<trkpt lat="46.0634210" lon="10.4891670">
	<ele>2544.80</ele>
	<time>2023-08-06T09:59:20.000Z</time>
</trkpt>
<trkpt lat="46.0634200" lon="10.4891700">
	<ele>2545.60</ele>
	<time>2023-08-06T09:59:21.000Z</time>
</trkpt>
<trkpt lat="46.0634190" lon="10.4891710">
	<ele>2546.40</ele>
	<time>2023-08-06T09:59:22.000Z</time>
</trkpt>
<trkpt lat="46.0634190" lon="10.4891710">
	<ele>2547.00</ele>
	<time>2023-08-06T09:59:23.000Z</time>
</trkpt>
<trkpt lat="46.0634190" lon="10.4891710">
	<ele>2547.40</ele>
	<time>2023-08-06T09:59:24.000Z</time>
</trkpt>
<trkpt lat="46.0634190" lon="10.4891710">
	<ele>2547.80</ele>
	<time>2023-08-06T09:59:25.000Z</time>
</trkpt>
<trkpt lat="46.0634190" lon="10.4891710">
	<ele>2548.00</ele>
	<time>2023-08-06T09:59:26.000Z</time>
</trkpt>
<trkpt lat="46.0634190" lon="10.4891710">
	<ele>2548.00</ele>
	<time>2023-08-06T09:59:27.000Z</time>
</trkpt>
<trkpt lat="46.0634190" lon="10.4891710">
	<ele>2548.00</ele>
	<time>2023-08-06T09:59:28.000Z</time>
</trkpt>
<trkpt lat="46.0634190" lon="10.4891710">
	<ele>2547.80</ele>
	<time>2023-08-06T09:59:29.000Z</time>
</trkpt>
<trkpt lat="46.0634190" lon="10.4891700">
	<ele>2546.80</ele>
	<time>2023-08-06T09:59:30.000Z</time>
</trkpt>
<trkpt lat="46.0634190" lon="10.4891700">
	<ele>2546.40</ele>
	<time>2023-08-06T09:59:31.000Z</time>
</trkpt>
<trkpt lat="46.0634190" lon="10.4891690">
	<ele>2546.20</ele>
	<time>2023-08-06T09:59:32.000Z</time>
</trkpt>
<trkpt lat="46.0634190" lon="10.4891680">
	<ele>2546.00</ele>
	<time>2023-08-06T09:59:33.000Z</time>
</trkpt>
<trkpt lat="46.0634180" lon="10.4891680">
	<ele>2546.00</ele>
	<time>2023-08-06T09:59:34.000Z</time>
</trkpt>
<trkpt lat="46.0634180" lon="10.4891670">
	<ele>2546.00</ele>
	<time>2023-08-06T09:59:35.000Z</time>
</trkpt>
<trkpt lat="46.0634180" lon="10.4891670">
	<ele>2545.80</ele>
	<time>2023-08-06T09:59:36.000Z</time>
</trkpt>
<trkpt lat="46.0634180" lon="10.4891670">
	<ele>2546.00</ele>
	<time>2023-08-06T09:59:37.000Z</time>
</trkpt>
<trkpt lat="46.0634180" lon="10.4891670">
	<ele>2546.20</ele>
	<time>2023-08-06T09:59:38.000Z</time>
</trkpt>
<trkpt lat="46.0634180" lon="10.4891670">
	<ele>2546.20</ele>
	<time>2023-08-06T09:59:39.000Z</time>
</trkpt>
<trkpt lat="46.0634180" lon="10.4891670">
	<ele>2546.40</ele>
	<time>2023-08-06T09:59:40.000Z</time>
</trkpt>
<trkpt lat="46.0634180" lon="10.4891670">
	<ele>2546.40</ele>
	<time>2023-08-06T09:59:41.000Z</time>
</trkpt>
<trkpt lat="46.0634180" lon="10.4891670">
	<ele>2546.40</ele>
	<time>2023-08-06T09:59:42.000Z</time>
</trkpt>
<trkpt lat="46.0634180" lon="10.4891670">
	<ele>2546.40</ele>
	<time>2023-08-06T09:59:43.000Z</time>
</trkpt>
<trkpt lat="46.0634180" lon="10.4891680">
	<ele>2546.40</ele>
	<time>2023-08-06T09:59:44.000Z</time>
</trkpt>
<trkpt lat="46.0634190" lon="10.4891680">
	<ele>2546.00</ele>
	<time>2023-08-06T09:59:45.000Z</time>
</trkpt>
<trkpt lat="46.0634200" lon="10.4891690">
	<ele>2545.80</ele>
	<time>2023-08-06T09:59:46.000Z</time>
</trkpt>
<trkpt lat="46.0634200" lon="10.4891700">
	<ele>2545.60</ele>
	<time>2023-08-06T09:59:47.000Z</time>
</trkpt>
<trkpt lat="46.0634290" lon="10.4891750">
	<ele>2545.40</ele>
	<time>2023-08-06T09:59:48.000Z</time>
</trkpt>
<trkpt lat="46.0634450" lon="10.4891790">
	<ele>2545.20</ele>
	<time>2023-08-06T09:59:49.000Z</time>
</trkpt>
<trkpt lat="46.0634630" lon="10.4891840">
	<ele>2545.00</ele>
	<time>2023-08-06T09:59:50.000Z</time>
</trkpt>
<trkpt lat="46.0634800" lon="10.4891920">
	<ele>2544.80</ele>
	<time>2023-08-06T09:59:51.000Z</time>
</trkpt>
<trkpt lat="46.0634940" lon="10.4892030">
	<ele>2544.60</ele>
	<time>2023-08-06T09:59:52.000Z</time>
</trkpt>
<trkpt lat="46.0635090" lon="10.4892140">
	<ele>2544.60</ele>
	<time>2023-08-06T09:59:53.000Z</time>
</trkpt>
<trkpt lat="46.0635260" lon="10.4892220">
	<ele>2544.60</ele>
	<time>2023-08-06T09:59:54.000Z</time>
</trkpt>
<trkpt lat="46.0635390" lon="10.4892300">
	<ele>2544.60</ele>
	<time>2023-08-06T09:59:55.000Z</time>
</trkpt>
<trkpt lat="46.0635520" lon="10.4892380">
	<ele>2545.00</ele>
	<time>2023-08-06T09:59:56.000Z</time>
</trkpt>
<trkpt lat="46.0635660" lon="10.4892440">
	<ele>2545.20</ele>
	<time>2023-08-06T09:59:57.000Z</time>
</trkpt>
<trkpt lat="46.0635730" lon="10.4892440">
	<ele>2545.20</ele>
	<time>2023-08-06T09:59:58.000Z</time>
</trkpt>
<trkpt lat="46.0635830" lon="10.4892490">
	<ele>2545.40</ele>
	<time>2023-08-06T09:59:59.000Z</time>
</trkpt>
<trkpt lat="46.0635910" lon="10.4892560">
	<ele>2545.40</ele>
	<time>2023-08-06T10:00:00.000Z</time>
</trkpt>
<trkpt lat="46.0635950" lon="10.4892600">
	<ele>2545.80</ele>
	<time>2023-08-06T10:00:01.000Z</time>
</trkpt>
<trkpt lat="46.0636010" lon="10.4892720">
	<ele>2546.40</ele>
	<time>2023-08-06T10:00:02.000Z</time>
</trkpt>
<trkpt lat="46.0636080" lon="10.4892870">
	<ele>2546.80</ele>
	<time>2023-08-06T10:00:03.000Z</time>
</trkpt>
<trkpt lat="46.0636160" lon="10.4892970">
	<ele>2547.00</ele>
	<time>2023-08-06T10:00:04.000Z</time>
</trkpt>
<trkpt lat="46.0636220" lon="10.4892970">
	<ele>2547.20</ele>
	<time>2023-08-06T10:00:05.000Z</time>
</trkpt>
<trkpt lat="46.0636270" lon="10.4892960">
	<ele>2547.20</ele>
	<time>2023-08-06T10:00:06.000Z</time>
</trkpt>
<trkpt lat="46.0636310" lon="10.4892990">
	<ele>2547.40</ele>
	<time>2023-08-06T10:00:07.000Z</time>
</trkpt>
<trkpt lat="46.0636380" lon="10.4893030">
	<ele>2547.60</ele>
	<time>2023-08-06T10:00:08.000Z</time>
</trkpt>
<trkpt lat="46.0636450" lon="10.4893050">
	<ele>2547.80</ele>
	<time>2023-08-06T10:00:09.000Z</time>
</trkpt>
<trkpt lat="46.0636500" lon="10.4893090">
	<ele>2547.80</ele>
	<time>2023-08-06T10:00:10.000Z</time>
</trkpt>
<trkpt lat="46.0636590" lon="10.4893110">
	<ele>2548.00</ele>
	<time>2023-08-06T10:00:11.000Z</time>
</trkpt>
<trkpt lat="46.0636640" lon="10.4893090">
	<ele>2548.20</ele>
	<time>2023-08-06T10:00:12.000Z</time>
</trkpt>
<trkpt lat="46.0636700" lon="10.4893090">
	<ele>2548.20</ele>
	<time>2023-08-06T10:00:13.000Z</time>
</trkpt>
<trkpt lat="46.0636750" lon="10.4893050">
	<ele>2548.20</ele>
	<time>2023-08-06T10:00:14.000Z</time>
</trkpt>
<trkpt lat="46.0636790" lon="10.4893020">
	<ele>2548.40</ele>
	<time>2023-08-06T10:00:15.000Z</time>
</trkpt>
<trkpt lat="46.0636850" lon="10.4892980">
	<ele>2548.40</ele>
	<time>2023-08-06T10:00:16.000Z</time>
</trkpt>
<trkpt lat="46.0636890" lon="10.4892940">
	<ele>2548.60</ele>
	<time>2023-08-06T10:00:17.000Z</time>
</trkpt>
<trkpt lat="46.0636920" lon="10.4892890">
	<ele>2548.60</ele>
	<time>2023-08-06T10:00:18.000Z</time>
</trkpt>
<trkpt lat="46.0636940" lon="10.4892810">
	<ele>2548.80</ele>
	<time>2023-08-06T10:00:19.000Z</time>
</trkpt>
<trkpt lat="46.0636970" lon="10.4892780">
	<ele>2549.00</ele>
	<time>2023-08-06T10:00:20.000Z</time>
</trkpt>
<trkpt lat="46.0636980" lon="10.4892720">
	<ele>2549.20</ele>
	<time>2023-08-06T10:00:21.000Z</time>
</trkpt>
<trkpt lat="46.0637000" lon="10.4892690">
	<ele>2549.20</ele>
	<time>2023-08-06T10:00:22.000Z</time>
</trkpt>
<trkpt lat="46.0637020" lon="10.4892680">
	<ele>2549.40</ele>
	<time>2023-08-06T10:00:23.000Z</time>
</trkpt>
<trkpt lat="46.0637030" lon="10.4892670">
	<ele>2549.40</ele>
	<time>2023-08-06T10:00:24.000Z</time>
</trkpt>
<trkpt lat="46.0637040" lon="10.4892680">
	<ele>2549.40</ele>
	<time>2023-08-06T10:00:25.000Z</time>
</trkpt>
<trkpt lat="46.0637060" lon="10.4892710">
	<ele>2549.40</ele>
	<time>2023-08-06T10:00:26.000Z</time>
</trkpt>
<trkpt lat="46.0637070" lon="10.4892720">
	<ele>2549.40</ele>
	<time>2023-08-06T10:00:27.000Z</time>
</trkpt>
<trkpt lat="46.0637080" lon="10.4892710">
	<ele>2549.80</ele>
	<time>2023-08-06T10:00:28.000Z</time>
</trkpt>
<trkpt lat="46.0637100" lon="10.4892710">
	<ele>2550.20</ele>
	<time>2023-08-06T10:00:29.000Z</time>
</trkpt>
<trkpt lat="46.0637100" lon="10.4892710">
	<ele>2550.40</ele>
	<time>2023-08-06T10:00:30.000Z</time>
</trkpt>
<trkpt lat="46.0637100" lon="10.4892710">
	<ele>2550.60</ele>
	<time>2023-08-06T10:00:31.000Z</time>
</trkpt>
<trkpt lat="46.0637100" lon="10.4892710">
	<ele>2550.60</ele>
	<time>2023-08-06T10:00:32.000Z</time>
</trkpt>
<trkpt lat="46.0637100" lon="10.4892710">
	<ele>2550.40</ele>
	<time>2023-08-06T10:00:33.000Z</time>
</trkpt>
<trkpt lat="46.0637100" lon="10.4892710">
	<ele>2550.00</ele>
	<time>2023-08-06T10:00:34.000Z</time>
</trkpt>
<trkpt lat="46.0637100" lon="10.4892710">
	<ele>2549.80</ele>
	<time>2023-08-06T10:00:35.000Z</time>
</trkpt>
<trkpt lat="46.0637100" lon="10.4892710">
	<ele>2549.60</ele>
	<time>2023-08-06T10:00:36.000Z</time>
</trkpt>
<trkpt lat="46.0637100" lon="10.4892710">
	<ele>2549.40</ele>
	<time>2023-08-06T10:00:37.000Z</time>
</trkpt>
<trkpt lat="46.0637100" lon="10.4892710">
	<ele>2549.40</ele>
	<time>2023-08-06T10:00:38.000Z</time>
</trkpt>
<trkpt lat="46.0637100" lon="10.4892710">
	<ele>2549.40</ele>
	<time>2023-08-06T10:00:39.000Z</time>
</trkpt>
<trkpt lat="46.0637100" lon="10.4892710">
	<ele>2549.40</ele>
	<time>2023-08-06T10:00:40.000Z</time>
</trkpt>
<trkpt lat="46.0637100" lon="10.4892710">
	<ele>2549.60</ele>
	<time>2023-08-06T10:00:41.000Z</time>
</trkpt>
<trkpt lat="46.0637100" lon="10.4892710">
	<ele>2549.80</ele>
	<time>2023-08-06T10:00:42.000Z</time>
</trkpt>
<trkpt lat="46.0637100" lon="10.4892710">
	<ele>2550.00</ele>
	<time>2023-08-06T10:00:43.000Z</time>
</trkpt>
<trkpt lat="46.0637100" lon="10.4892710">
	<ele>2550.20</ele>
	<time>2023-08-06T10:00:44.000Z</time>
</trkpt>
<trkpt lat="46.0637100" lon="10.4892710">
	<ele>2550.20</ele>
	<time>2023-08-06T10:00:45.000Z</time>
</trkpt>
<trkpt lat="46.0637100" lon="10.4892710">
	<ele>2550.00</ele>
	<time>2023-08-06T10:00:46.000Z</time>
</trkpt>
<trkpt lat="46.0637100" lon="10.4892710">
	<ele>2550.00</ele>
	<time>2023-08-06T10:00:47.000Z</time>
</trkpt>
<trkpt lat="46.0637100" lon="10.4892710">
	<ele>2550.00</ele>
	<time>2023-08-06T10:00:48.000Z</time>
</trkpt>
<trkpt lat="46.0637100" lon="10.4892710">
	<ele>2550.00</ele>
	<time>2023-08-06T10:00:49.000Z</time>
</trkpt>
<trkpt lat="46.0637100" lon="10.4892710">
	<ele>2549.80</ele>
	<time>2023-08-06T10:00:50.000Z</time>
</trkpt>
<trkpt lat="46.0637100" lon="10.4892710">
	<ele>2549.80</ele>
	<time>2023-08-06T10:00:51.000Z</time>
</trkpt>
<trkpt lat="46.0637100" lon="10.4892710">
	<ele>2549.80</ele>
	<time>2023-08-06T10:00:52.000Z</time>
</trkpt>
<trkpt lat="46.0637100" lon="10.4892710">
	<ele>2549.80</ele>
	<time>2023-08-06T10:00:53.000Z</time>
</trkpt>
<trkpt lat="46.0637100" lon="10.4892710">
	<ele>2549.80</ele>
	<time>2023-08-06T10:00:54.000Z</time>
</trkpt>
<trkpt lat="46.0637100" lon="10.4892710">
	<ele>2550.20</ele>
	<time>2023-08-06T10:00:55.000Z</time>
</trkpt>
<trkpt lat="46.0637100" lon="10.4892710">
	<ele>2550.20</ele>
	<time>2023-08-06T10:00:56.000Z</time>
</trkpt>
<trkpt lat="46.0637100" lon="10.4892710">
	<ele>2550.40</ele>
	<time>2023-08-06T10:00:57.000Z</time>
</trkpt>
<trkpt lat="46.0637110" lon="10.4892710">
	<ele>2550.40</ele>
	<time>2023-08-06T10:00:58.000Z</time>
</trkpt>
<trkpt lat="46.0637110" lon="10.4892700">
	<ele>2550.40</ele>
	<time>2023-08-06T10:00:59.000Z</time>
</trkpt>
<trkpt lat="46.0637110" lon="10.4892660">
	<ele>2550.40</ele>
	<time>2023-08-06T10:01:00.000Z</time>
</trkpt>
<trkpt lat="46.0637120" lon="10.4892600">
	<ele>2550.20</ele>
	<time>2023-08-06T10:01:01.000Z</time>
</trkpt>
<trkpt lat="46.0637120" lon="10.4892540">
	<ele>2550.00</ele>
	<time>2023-08-06T10:01:02.000Z</time>
</trkpt>
<trkpt lat="46.0637130" lon="10.4892490">
	<ele>2549.80</ele>
	<time>2023-08-06T10:01:03.000Z</time>
</trkpt>
<trkpt lat="46.0637140" lon="10.4892480">
	<ele>2549.60</ele>
	<time>2023-08-06T10:01:04.000Z</time>
</trkpt>
<trkpt lat="46.0637140" lon="10.4892460">
	<ele>2549.40</ele>
	<time>2023-08-06T10:01:05.000Z</time>
</trkpt>
<trkpt lat="46.0637140" lon="10.4892440">
	<ele>2549.20</ele>
	<time>2023-08-06T10:01:06.000Z</time>
</trkpt>
<trkpt lat="46.0637140" lon="10.4892420">
	<ele>2549.20</ele>
	<time>2023-08-06T10:01:07.000Z</time>
</trkpt>
<trkpt lat="46.0637150" lon="10.4892350">
	<ele>2548.80</ele>
	<time>2023-08-06T10:01:08.000Z</time>
</trkpt>
<trkpt lat="46.0637150" lon="10.4892290">
	<ele>2548.00</ele>
	<time>2023-08-06T10:01:09.000Z</time>
</trkpt>
<trkpt lat="46.0637160" lon="10.4892200">
	<ele>2547.40</ele>
	<time>2023-08-06T10:01:10.000Z</time>
</trkpt>
<trkpt lat="46.0637180" lon="10.4892180">
	<ele>2547.20</ele>
	<time>2023-08-06T10:01:11.000Z</time>
</trkpt>
<trkpt lat="46.0637210" lon="10.4892160">
	<ele>2547.00</ele>
	<time>2023-08-06T10:01:12.000Z</time>
</trkpt>
<trkpt lat="46.0637260" lon="10.4892160">
	<ele>2546.80</ele>
	<time>2023-08-06T10:01:13.000Z</time>
</trkpt>
<trkpt lat="46.0637290" lon="10.4892160">
	<ele>2546.80</ele>
	<time>2023-08-06T10:01:14.000Z</time>
</trkpt>
<trkpt lat="46.0637320" lon="10.4892150">
	<ele>2546.60</ele>
	<time>2023-08-06T10:01:15.000Z</time>
</trkpt>
<trkpt lat="46.0637320" lon="10.4892140">
	<ele>2546.40</ele>
	<time>2023-08-06T10:01:16.000Z</time>
</trkpt>
<trkpt lat="46.0637340" lon="10.4892120">
	<ele>2546.40</ele>
	<time>2023-08-06T10:01:17.000Z</time>
</trkpt>
<trkpt lat="46.0637340" lon="10.4892110">
	<ele>2546.20</ele>
	<time>2023-08-06T10:01:18.000Z</time>
</trkpt>
<trkpt lat="46.0637350" lon="10.4892080">
	<ele>2546.00</ele>
	<time>2023-08-06T10:01:19.000Z</time>
</trkpt>
<trkpt lat="46.0637360" lon="10.4892070">
	<ele>2545.80</ele>
	<time>2023-08-06T10:01:20.000Z</time>
</trkpt>
<trkpt lat="46.0637370" lon="10.4892070">
	<ele>2545.60</ele>
	<time>2023-08-06T10:01:21.000Z</time>
</trkpt>
<trkpt lat="46.0637370" lon="10.4892070">
	<ele>2545.40</ele>
	<time>2023-08-06T10:01:22.000Z</time>
</trkpt>
<trkpt lat="46.0637400" lon="10.4892070">
	<ele>2545.20</ele>
	<time>2023-08-06T10:01:23.000Z</time>
</trkpt>
<trkpt lat="46.0637460" lon="10.4892070">
	<ele>2545.40</ele>
	<time>2023-08-06T10:01:24.000Z</time>
</trkpt>
<trkpt lat="46.0637510" lon="10.4892070">
	<ele>2545.40</ele>
	<time>2023-08-06T10:01:25.000Z</time>
</trkpt>
<trkpt lat="46.0637530" lon="10.4892070">
	<ele>2545.40</ele>
	<time>2023-08-06T10:01:26.000Z</time>
</trkpt>
<trkpt lat="46.0637550" lon="10.4892070">
	<ele>2545.40</ele>
	<time>2023-08-06T10:01:27.000Z</time>
</trkpt>
<trkpt lat="46.0637560" lon="10.4892070">
	<ele>2545.60</ele>
	<time>2023-08-06T10:01:28.000Z</time>
</trkpt>
<trkpt lat="46.0637580" lon="10.4892070">
	<ele>2545.20</ele>
	<time>2023-08-06T10:01:29.000Z</time>
</trkpt>
<trkpt lat="46.0637600" lon="10.4892070">
	<ele>2545.00</ele>
	<time>2023-08-06T10:01:30.000Z</time>
</trkpt>
<trkpt lat="46.0637610" lon="10.4892070">
	<ele>2544.60</ele>
	<time>2023-08-06T10:01:31.000Z</time>
</trkpt>
<trkpt lat="46.0637640" lon="10.4892070">
	<ele>2544.20</ele>
	<time>2023-08-06T10:01:32.000Z</time>
</trkpt>
<trkpt lat="46.0637660" lon="10.4892070">
	<ele>2544.00</ele>
	<time>2023-08-06T10:01:33.000Z</time>
</trkpt>
<trkpt lat="46.0637680" lon="10.4892080">
	<ele>2544.00</ele>
	<time>2023-08-06T10:01:34.000Z</time>
</trkpt>
<trkpt lat="46.0637710" lon="10.4892090">
	<ele>2544.00</ele>
	<time>2023-08-06T10:01:35.000Z</time>
</trkpt>
<trkpt lat="46.0637740" lon="10.4892130">
	<ele>2543.80</ele>
	<time>2023-08-06T10:01:36.000Z</time>
</trkpt>
<trkpt lat="46.0637780" lon="10.4892140">
	<ele>2543.60</ele>
	<time>2023-08-06T10:01:37.000Z</time>
</trkpt>
<trkpt lat="46.0637820" lon="10.4892150">
	<ele>2543.60</ele>
	<time>2023-08-06T10:01:38.000Z</time>
</trkpt>
<trkpt lat="46.0637840" lon="10.4892150">
	<ele>2543.20</ele>
	<time>2023-08-06T10:01:39.000Z</time>
</trkpt>
<trkpt lat="46.0637850" lon="10.4892150">
	<ele>2542.60</ele>
	<time>2023-08-06T10:01:40.000Z</time>
</trkpt>
<trkpt lat="46.0637880" lon="10.4892150">
	<ele>2542.00</ele>
	<time>2023-08-06T10:01:41.000Z</time>
</trkpt>
<trkpt lat="46.0637900" lon="10.4892150">
	<ele>2541.80</ele>
	<time>2023-08-06T10:01:42.000Z</time>
</trkpt>
<trkpt lat="46.0637950" lon="10.4892150">
	<ele>2541.60</ele>
	<time>2023-08-06T10:01:43.000Z</time>
</trkpt>
<trkpt lat="46.0637980" lon="10.4892150">
	<ele>2541.60</ele>
	<time>2023-08-06T10:01:44.000Z</time>
</trkpt>
<trkpt lat="46.0638010" lon="10.4892150">
	<ele>2541.60</ele>
	<time>2023-08-06T10:01:45.000Z</time>
</trkpt>
<trkpt lat="46.0638040" lon="10.4892150">
	<ele>2541.60</ele>
	<time>2023-08-06T10:01:46.000Z</time>
</trkpt>
<trkpt lat="46.0638060" lon="10.4892150">
	<ele>2541.60</ele>
	<time>2023-08-06T10:01:47.000Z</time>
</trkpt>
<trkpt lat="46.0638090" lon="10.4892150">
	<ele>2541.60</ele>
	<time>2023-08-06T10:01:48.000Z</time>
</trkpt>
<trkpt lat="46.0638110" lon="10.4892150">
	<ele>2541.60</ele>
	<time>2023-08-06T10:01:49.000Z</time>
</trkpt>
<trkpt lat="46.0638140" lon="10.4892150">
	<ele>2541.60</ele>
	<time>2023-08-06T10:01:50.000Z</time>
</trkpt>
<trkpt lat="46.0638150" lon="10.4892150">
	<ele>2541.60</ele>
	<time>2023-08-06T10:01:51.000Z</time>
</trkpt>
<trkpt lat="46.0638160" lon="10.4892140">
	<ele>2541.40</ele>
	<time>2023-08-06T10:01:52.000Z</time>
</trkpt>
<trkpt lat="46.0638190" lon="10.4892110">
	<ele>2541.40</ele>
	<time>2023-08-06T10:01:53.000Z</time>
</trkpt>
<trkpt lat="46.0638220" lon="10.4892080">
	<ele>2541.00</ele>
	<time>2023-08-06T10:01:54.000Z</time>
</trkpt>
<trkpt lat="46.0638230" lon="10.4892060">
	<ele>2540.60</ele>
	<time>2023-08-06T10:01:55.000Z</time>
</trkpt>
<trkpt lat="46.0638240" lon="10.4892030">
	<ele>2540.20</ele>
	<time>2023-08-06T10:01:56.000Z</time>
</trkpt>
<trkpt lat="46.0638240" lon="10.4892010">
	<ele>2539.60</ele>
	<time>2023-08-06T10:01:57.000Z</time>
</trkpt>
<trkpt lat="46.0638250" lon="10.4891990">
	<ele>2539.20</ele>
	<time>2023-08-06T10:01:58.000Z</time>
</trkpt>
<trkpt lat="46.0638250" lon="10.4891980">
	<ele>2538.80</ele>
	<time>2023-08-06T10:01:59.000Z</time>
</trkpt>
<trkpt lat="46.0638260" lon="10.4891960">
	<ele>2538.80</ele>
	<time>2023-08-06T10:02:00.000Z</time>
</trkpt>
<trkpt lat="46.0638260" lon="10.4891950">
	<ele>2538.60</ele>
	<time>2023-08-06T10:02:01.000Z</time>
</trkpt>
<trkpt lat="46.0638270" lon="10.4891940">
	<ele>2538.60</ele>
	<time>2023-08-06T10:02:02.000Z</time>
</trkpt>
<trkpt lat="46.0638270" lon="10.4891920">
	<ele>2538.20</ele>
	<time>2023-08-06T10:02:03.000Z</time>
</trkpt>
<trkpt lat="46.0638280" lon="10.4891910">
	<ele>2538.00</ele>
	<time>2023-08-06T10:02:04.000Z</time>
</trkpt>
<trkpt lat="46.0638290" lon="10.4891900">
	<ele>2537.80</ele>
	<time>2023-08-06T10:02:05.000Z</time>
</trkpt>
<trkpt lat="46.0638320" lon="10.4891900">
	<ele>2537.60</ele>
	<time>2023-08-06T10:02:06.000Z</time>
</trkpt>
<trkpt lat="46.0638340" lon="10.4891900">
	<ele>2537.60</ele>
	<time>2023-08-06T10:02:07.000Z</time>
</trkpt>
<trkpt lat="46.0638400" lon="10.4891890">
	<ele>2537.60</ele>
	<time>2023-08-06T10:02:08.000Z</time>
</trkpt>
<trkpt lat="46.0638520" lon="10.4891920">
	<ele>2537.60</ele>
	<time>2023-08-06T10:02:09.000Z</time>
</trkpt>
<trkpt lat="46.0638620" lon="10.4891930">
	<ele>2537.80</ele>
	<time>2023-08-06T10:02:10.000Z</time>
</trkpt>
<trkpt lat="46.0638710" lon="10.4891970">
	<ele>2538.00</ele>
	<time>2023-08-06T10:02:11.000Z</time>
</trkpt>
<trkpt lat="46.0638810" lon="10.4892010">
	<ele>2538.40</ele>
	<time>2023-08-06T10:02:12.000Z</time>
</trkpt>
<trkpt lat="46.0638910" lon="10.4892030">
	<ele>2538.80</ele>
	<time>2023-08-06T10:02:13.000Z</time>
</trkpt>
<trkpt lat="46.0639010" lon="10.4892090">
	<ele>2539.00</ele>
	<time>2023-08-06T10:02:14.000Z</time>
</trkpt>
<trkpt lat="46.0639100" lon="10.4892130">
	<ele>2539.20</ele>
	<time>2023-08-06T10:02:15.000Z</time>
</trkpt>
<trkpt lat="46.0639240" lon="10.4892150">
	<ele>2539.60</ele>
	<time>2023-08-06T10:02:16.000Z</time>
</trkpt>
<trkpt lat="46.0639330" lon="10.4892210">
	<ele>2540.00</ele>
	<time>2023-08-06T10:02:17.000Z</time>
</trkpt>
<trkpt lat="46.0639360" lon="10.4892300">
	<ele>2540.20</ele>
	<time>2023-08-06T10:02:18.000Z</time>
</trkpt>
<trkpt lat="46.0639460" lon="10.4892290">
	<ele>2540.40</ele>
	<time>2023-08-06T10:02:19.000Z</time>
</trkpt>
<trkpt lat="46.0639520" lon="10.4892300">
	<ele>2540.40</ele>
	<time>2023-08-06T10:02:20.000Z</time>
</trkpt>
<trkpt lat="46.0639580" lon="10.4892300">
	<ele>2540.60</ele>
	<time>2023-08-06T10:02:21.000Z</time>
</trkpt>
<trkpt lat="46.0639640" lon="10.4892320">
	<ele>2540.40</ele>
	<time>2023-08-06T10:02:22.000Z</time>
</trkpt>
<trkpt lat="46.0639700" lon="10.4892340">
	<ele>2540.20</ele>
	<time>2023-08-06T10:02:23.000Z</time>
</trkpt>
<trkpt lat="46.0639760" lon="10.4892370">
	<ele>2540.20</ele>
	<time>2023-08-06T10:02:24.000Z</time>
</trkpt>
<trkpt lat="46.0639830" lon="10.4892350">
	<ele>2540.20</ele>
	<time>2023-08-06T10:02:25.000Z</time>
</trkpt>
<trkpt lat="46.0639910" lon="10.4892300">
	<ele>2540.20</ele>
	<time>2023-08-06T10:02:26.000Z</time>
</trkpt>
<trkpt lat="46.0639980" lon="10.4892260">
	<ele>2540.20</ele>
	<time>2023-08-06T10:02:27.000Z</time>
</trkpt>
<trkpt lat="46.0640060" lon="10.4892200">
	<ele>2540.40</ele>
	<time>2023-08-06T10:02:28.000Z</time>
</trkpt>
<trkpt lat="46.0640110" lon="10.4892170">
	<ele>2540.60</ele>
	<time>2023-08-06T10:02:29.000Z</time>
</trkpt>
<trkpt lat="46.0640100" lon="10.4892200">
	<ele>2540.80</ele>
	<time>2023-08-06T10:02:30.000Z</time>
</trkpt>
<trkpt lat="46.0640100" lon="10.4892200">
	<ele>2540.80</ele>
	<time>2023-08-06T10:02:31.000Z</time>
</trkpt>
<trkpt lat="46.0640100" lon="10.4892190">
	<ele>2540.80</ele>
	<time>2023-08-06T10:02:32.000Z</time>
</trkpt>
<trkpt lat="46.0640090" lon="10.4892170">
	<ele>2541.00</ele>
	<time>2023-08-06T10:02:33.000Z</time>
</trkpt>
<trkpt lat="46.0640090" lon="10.4892160">
	<ele>2541.40</ele>
	<time>2023-08-06T10:02:34.000Z</time>
</trkpt>
<trkpt lat="46.0640100" lon="10.4892180">
	<ele>2541.80</ele>
	<time>2023-08-06T10:02:35.000Z</time>
</trkpt>
<trkpt lat="46.0640100" lon="10.4892200">
	<ele>2542.00</ele>
	<time>2023-08-06T10:02:36.000Z</time>
</trkpt>
<trkpt lat="46.0640100" lon="10.4892200">
	<ele>2542.00</ele>
	<time>2023-08-06T10:02:37.000Z</time>
</trkpt>
<trkpt lat="46.0640110" lon="10.4892190">
	<ele>2542.20</ele>
	<time>2023-08-06T10:02:38.000Z</time>
</trkpt>
<trkpt lat="46.0640110" lon="10.4892190">
	<ele>2542.20</ele>
	<time>2023-08-06T10:02:39.000Z</time>
</trkpt>
<trkpt lat="46.0640110" lon="10.4892190">
	<ele>2542.20</ele>
	<time>2023-08-06T10:02:40.000Z</time>
</trkpt>
<trkpt lat="46.0640110" lon="10.4892190">
	<ele>2542.20</ele>
	<time>2023-08-06T10:02:41.000Z</time>
</trkpt>
<trkpt lat="46.0640110" lon="10.4892190">
	<ele>2541.80</ele>
	<time>2023-08-06T10:02:42.000Z</time>
</trkpt>
<trkpt lat="46.0640110" lon="10.4892190">
	<ele>2541.60</ele>
	<time>2023-08-06T10:02:43.000Z</time>
</trkpt>
<trkpt lat="46.0640110" lon="10.4892190">
	<ele>2541.40</ele>
	<time>2023-08-06T10:02:44.000Z</time>
</trkpt>
<trkpt lat="46.0640110" lon="10.4892190">
	<ele>2541.40</ele>
	<time>2023-08-06T10:02:45.000Z</time>
</trkpt>
<trkpt lat="46.0640110" lon="10.4892190">
	<ele>2541.60</ele>
	<time>2023-08-06T10:02:46.000Z</time>
</trkpt>
<trkpt lat="46.0640110" lon="10.4892190">
	<ele>2541.60</ele>
	<time>2023-08-06T10:02:47.000Z</time>
</trkpt>
<trkpt lat="46.0640110" lon="10.4892190">
	<ele>2541.60</ele>
	<time>2023-08-06T10:02:48.000Z</time>
</trkpt>
<trkpt lat="46.0640110" lon="10.4892190">
	<ele>2541.80</ele>
	<time>2023-08-06T10:02:49.000Z</time>
</trkpt>
<trkpt lat="46.0640110" lon="10.4892190">
	<ele>2541.80</ele>
	<time>2023-08-06T10:02:50.000Z</time>
</trkpt>
<trkpt lat="46.0640110" lon="10.4892190">
	<ele>2541.60</ele>
	<time>2023-08-06T10:02:51.000Z</time>
</trkpt>
<trkpt lat="46.0640110" lon="10.4892190">
	<ele>2541.40</ele>
	<time>2023-08-06T10:02:52.000Z</time>
</trkpt>
<trkpt lat="46.0640110" lon="10.4892190">
	<ele>2541.40</ele>
	<time>2023-08-06T10:02:53.000Z</time>
</trkpt>
<trkpt lat="46.0640110" lon="10.4892190">
	<ele>2541.20</ele>
	<time>2023-08-06T10:02:54.000Z</time>
</trkpt>
<trkpt lat="46.0640110" lon="10.4892190">
	<ele>2541.20</ele>
	<time>2023-08-06T10:02:55.000Z</time>
</trkpt>
<trkpt lat="46.0640110" lon="10.4892190">
	<ele>2541.20</ele>
	<time>2023-08-06T10:02:56.000Z</time>
</trkpt>
<trkpt lat="46.0640110" lon="10.4892190">
	<ele>2541.20</ele>
	<time>2023-08-06T10:02:57.000Z</time>
</trkpt>
<trkpt lat="46.0640110" lon="10.4892190">
	<ele>2541.40</ele>
	<time>2023-08-06T10:02:58.000Z</time>
</trkpt>
<trkpt lat="46.0640110" lon="10.4892190">
	<ele>2541.40</ele>
	<time>2023-08-06T10:02:59.000Z</time>
</trkpt>
<trkpt lat="46.0640120" lon="10.4892190">
	<ele>2541.40</ele>
	<time>2023-08-06T10:03:00.000Z</time>
</trkpt>
<trkpt lat="46.0640120" lon="10.4892180">
	<ele>2541.60</ele>
	<time>2023-08-06T10:03:01.000Z</time>
</trkpt>
<trkpt lat="46.0640120" lon="10.4892170">
	<ele>2541.80</ele>
	<time>2023-08-06T10:03:02.000Z</time>
</trkpt>
<trkpt lat="46.0640130" lon="10.4892170">
	<ele>2542.00</ele>
	<time>2023-08-06T10:03:03.000Z</time>
</trkpt>
<trkpt lat="46.0640130" lon="10.4892170">
	<ele>2542.00</ele>
	<time>2023-08-06T10:03:04.000Z</time>
</trkpt>
<trkpt lat="46.0640150" lon="10.4892170">
	<ele>2542.20</ele>
	<time>2023-08-06T10:03:05.000Z</time>
</trkpt>
<trkpt lat="46.0640160" lon="10.4892160">
	<ele>2542.20</ele>
	<time>2023-08-06T10:03:06.000Z</time>
</trkpt>
<trkpt lat="46.0640160" lon="10.4892160">
	<ele>2542.20</ele>
	<time>2023-08-06T10:03:07.000Z</time>
</trkpt>
<trkpt lat="46.0640170" lon="10.4892160">
	<ele>2542.20</ele>
	<time>2023-08-06T10:03:08.000Z</time>
</trkpt>
<trkpt lat="46.0640180" lon="10.4892160">
	<ele>2542.20</ele>
	<time>2023-08-06T10:03:09.000Z</time>
</trkpt>
<trkpt lat="46.0640200" lon="10.4892160">
	<ele>2542.00</ele>
	<time>2023-08-06T10:03:10.000Z</time>
</trkpt>
<trkpt lat="46.0640220" lon="10.4892140">
	<ele>2541.80</ele>
	<time>2023-08-06T10:03:11.000Z</time>
</trkpt>
<trkpt lat="46.0640230" lon="10.4892120">
	<ele>2541.60</ele>
	<time>2023-08-06T10:03:12.000Z</time>
</trkpt>
<trkpt lat="46.0640250" lon="10.4892100">
	<ele>2541.60</ele>
	<time>2023-08-06T10:03:13.000Z</time>
</trkpt>
<trkpt lat="46.0640260" lon="10.4892070">
	<ele>2541.20</ele>
	<time>2023-08-06T10:03:14.000Z</time>
</trkpt>
<trkpt lat="46.0640270" lon="10.4892060">
	<ele>2540.80</ele>
	<time>2023-08-06T10:03:15.000Z</time>
</trkpt>
<trkpt lat="46.0640290" lon="10.4892030">
	<ele>2540.80</ele>
	<time>2023-08-06T10:03:16.000Z</time>
</trkpt>
<trkpt lat="46.0640330" lon="10.4892010">
	<ele>2540.60</ele>
	<time>2023-08-06T10:03:17.000Z</time>
</trkpt>
<trkpt lat="46.0640360" lon="10.4891970">
	<ele>2540.40</ele>
	<time>2023-08-06T10:03:18.000Z</time>
</trkpt>
<trkpt lat="46.0640370" lon="10.4891950">
	<ele>2540.20</ele>
	<time>2023-08-06T10:03:19.000Z</time>
</trkpt>
<trkpt lat="46.0640390" lon="10.4891950">
	<ele>2540.20</ele>
	<time>2023-08-06T10:03:20.000Z</time>
</trkpt>
<trkpt lat="46.0640420" lon="10.4891940">
	<ele>2540.00</ele>
	<time>2023-08-06T10:03:21.000Z</time>
</trkpt>
<trkpt lat="46.0640440" lon="10.4891940">
	<ele>2539.80</ele>
	<time>2023-08-06T10:03:22.000Z</time>
</trkpt>
<trkpt lat="46.0640460" lon="10.4891940">
	<ele>2539.60</ele>
	<time>2023-08-06T10:03:23.000Z</time>
</trkpt>
<trkpt lat="46.0640500" lon="10.4891930">
	<ele>2539.40</ele>
	<time>2023-08-06T10:03:24.000Z</time>
</trkpt>
<trkpt lat="46.0640550" lon="10.4891930">
	<ele>2539.20</ele>
	<time>2023-08-06T10:03:25.000Z</time>
</trkpt>
<trkpt lat="46.0640600" lon="10.4891900">
	<ele>2539.00</ele>
	<time>2023-08-06T10:03:26.000Z</time>
</trkpt>
<trkpt lat="46.0640620" lon="10.4891830">
	<ele>2538.80</ele>
	<time>2023-08-06T10:03:27.000Z</time>
</trkpt>
<trkpt lat="46.0640650" lon="10.4891790">
	<ele>2538.60</ele>
	<time>2023-08-06T10:03:28.000Z</time>
</trkpt>
<trkpt lat="46.0640680" lon="10.4891750">
	<ele>2538.40</ele>
	<time>2023-08-06T10:03:29.000Z</time>
</trkpt>
<trkpt lat="46.0640720" lon="10.4891720">
	<ele>2538.40</ele>
	<time>2023-08-06T10:03:30.000Z</time>
</trkpt>
<trkpt lat="46.0640750" lon="10.4891690">
	<ele>2538.40</ele>
	<time>2023-08-06T10:03:31.000Z</time>
</trkpt>
<trkpt lat="46.0640760" lon="10.4891670">
	<ele>2538.40</ele>
	<time>2023-08-06T10:03:32.000Z</time>
</trkpt>
<trkpt lat="46.0640770" lon="10.4891650">
	<ele>2538.40</ele>
	<time>2023-08-06T10:03:33.000Z</time>
</trkpt>
<trkpt lat="46.0640770" lon="10.4891610">
	<ele>2538.20</ele>
	<time>2023-08-06T10:03:34.000Z</time>
</trkpt>
<trkpt lat="46.0640790" lon="10.4891580">
	<ele>2538.20</ele>
	<time>2023-08-06T10:03:35.000Z</time>
</trkpt>
<trkpt lat="46.0640820" lon="10.4891570">
	<ele>2538.20</ele>
	<time>2023-08-06T10:03:36.000Z</time>
</trkpt>
<trkpt lat="46.0640850" lon="10.4891550">
	<ele>2538.00</ele>
	<time>2023-08-06T10:03:37.000Z</time>
</trkpt>
<trkpt lat="46.0640880" lon="10.4891520">
	<ele>2538.00</ele>
	<time>2023-08-06T10:03:38.000Z</time>
</trkpt>
<trkpt lat="46.0640900" lon="10.4891450">
	<ele>2537.60</ele>
	<time>2023-08-06T10:03:39.000Z</time>
</trkpt>
<trkpt lat="46.0640910" lon="10.4891410">
	<ele>2537.40</ele>
	<time>2023-08-06T10:03:40.000Z</time>
</trkpt>
<trkpt lat="46.0640940" lon="10.4891390">
	<ele>2537.20</ele>
	<time>2023-08-06T10:03:41.000Z</time>
</trkpt>
<trkpt lat="46.0640970" lon="10.4891380">
	<ele>2536.80</ele>
	<time>2023-08-06T10:03:42.000Z</time>
</trkpt>
<trkpt lat="46.0641020" lon="10.4891370">
	<ele>2536.80</ele>
	<time>2023-08-06T10:03:43.000Z</time>
</trkpt>
<trkpt lat="46.0641070" lon="10.4891370">
	<ele>2536.40</ele>
	<time>2023-08-06T10:03:44.000Z</time>
</trkpt>
<trkpt lat="46.0641110" lon="10.4891360">
	<ele>2536.00</ele>
	<time>2023-08-06T10:03:45.000Z</time>
</trkpt>
<trkpt lat="46.0641130" lon="10.4891360">
	<ele>2536.00</ele>
	<time>2023-08-06T10:03:46.000Z</time>
</trkpt>
<trkpt lat="46.0641140" lon="10.4891360">
	<ele>2535.80</ele>
	<time>2023-08-06T10:03:47.000Z</time>
</trkpt>
<trkpt lat="46.0641140" lon="10.4891360">
	<ele>2535.80</ele>
	<time>2023-08-06T10:03:48.000Z</time>
</trkpt>
<trkpt lat="46.0641160" lon="10.4891360">
	<ele>2535.60</ele>
	<time>2023-08-06T10:03:49.000Z</time>
</trkpt>
<trkpt lat="46.0641190" lon="10.4891360">
	<ele>2535.60</ele>
	<time>2023-08-06T10:03:50.000Z</time>
</trkpt>
<trkpt lat="46.0641200" lon="10.4891360">
	<ele>2535.40</ele>
	<time>2023-08-06T10:03:51.000Z</time>
</trkpt>
<trkpt lat="46.0641210" lon="10.4891360">
	<ele>2535.20</ele>
	<time>2023-08-06T10:03:52.000Z</time>
</trkpt>
<trkpt lat="46.0641220" lon="10.4891360">
	<ele>2535.00</ele>
	<time>2023-08-06T10:03:53.000Z</time>
</trkpt>
<trkpt lat="46.0641240" lon="10.4891360">
	<ele>2534.80</ele>
	<time>2023-08-06T10:03:54.000Z</time>
</trkpt>
<trkpt lat="46.0641250" lon="10.4891370">
	<ele>2534.80</ele>
	<time>2023-08-06T10:03:55.000Z</time>
</trkpt>
<trkpt lat="46.0641270" lon="10.4891370">
	<ele>2534.60</ele>
	<time>2023-08-06T10:03:56.000Z</time>
</trkpt>
<trkpt lat="46.0641310" lon="10.4891380">
	<ele>2534.60</ele>
	<time>2023-08-06T10:03:57.000Z</time>
</trkpt>
<trkpt lat="46.0641360" lon="10.4891390">
	<ele>2534.40</ele>
	<time>2023-08-06T10:03:58.000Z</time>
</trkpt>
<trkpt lat="46.0641410" lon="10.4891400">
	<ele>2534.40</ele>
	<time>2023-08-06T10:03:59.000Z</time>
</trkpt>
<trkpt lat="46.0641450" lon="10.4891420">
	<ele>2534.20</ele>
	<time>2023-08-06T10:04:00.000Z</time>
</trkpt>
<trkpt lat="46.0641500" lon="10.4891430">
	<ele>2534.20</ele>
	<time>2023-08-06T10:04:01.000Z</time>
</trkpt>
<trkpt lat="46.0641550" lon="10.4891460">
	<ele>2533.80</ele>
	<time>2023-08-06T10:04:02.000Z</time>
</trkpt>
<trkpt lat="46.0641580" lon="10.4891500">
	<ele>2533.60</ele>
	<time>2023-08-06T10:04:03.000Z</time>
</trkpt>
<trkpt lat="46.0641620" lon="10.4891540">
	<ele>2533.60</ele>
	<time>2023-08-06T10:04:04.000Z</time>
</trkpt>
<trkpt lat="46.0641660" lon="10.4891570">
	<ele>2533.40</ele>
	<time>2023-08-06T10:04:05.000Z</time>
</trkpt>
<trkpt lat="46.0641710" lon="10.4891600">
	<ele>2533.20</ele>
	<time>2023-08-06T10:04:06.000Z</time>
</trkpt>
<trkpt lat="46.0641770" lon="10.4891640">
	<ele>2533.00</ele>
	<time>2023-08-06T10:04:07.000Z</time>
</trkpt>
<trkpt lat="46.0641810" lon="10.4891670">
	<ele>2533.00</ele>
	<time>2023-08-06T10:04:08.000Z</time>
</trkpt>
<trkpt lat="46.0641840" lon="10.4891690">
	<ele>2532.80</ele>
	<time>2023-08-06T10:04:09.000Z</time>
</trkpt>
<trkpt lat="46.0641880" lon="10.4891700">
	<ele>2532.80</ele>
	<time>2023-08-06T10:04:10.000Z</time>
</trkpt>
<trkpt lat="46.0641930" lon="10.4891710">
	<ele>2532.60</ele>
	<time>2023-08-06T10:04:11.000Z</time>
</trkpt>
<trkpt lat="46.0641960" lon="10.4891720">
	<ele>2532.60</ele>
	<time>2023-08-06T10:04:12.000Z</time>
</trkpt>
<trkpt lat="46.0641980" lon="10.4891740">
	<ele>2532.40</ele>
	<time>2023-08-06T10:04:13.000Z</time>
</trkpt>
<trkpt lat="46.0642000" lon="10.4891760">
	<ele>2532.40</ele>
	<time>2023-08-06T10:04:14.000Z</time>
</trkpt>
<trkpt lat="46.0642020" lon="10.4891760">
	<ele>2532.20</ele>
	<time>2023-08-06T10:04:15.000Z</time>
</trkpt>
<trkpt lat="46.0642050" lon="10.4891770">
	<ele>2532.20</ele>
	<time>2023-08-06T10:04:16.000Z</time>
</trkpt>
<trkpt lat="46.0642070" lon="10.4891770">
	<ele>2532.00</ele>
	<time>2023-08-06T10:04:17.000Z</time>
</trkpt>
<trkpt lat="46.0642120" lon="10.4891770">
	<ele>2531.80</ele>
	<time>2023-08-06T10:04:18.000Z</time>
</trkpt>
<trkpt lat="46.0642150" lon="10.4891770">
	<ele>2531.40</ele>
	<time>2023-08-06T10:04:19.000Z</time>
</trkpt>
<trkpt lat="46.0642190" lon="10.4891770">
	<ele>2531.00</ele>
	<time>2023-08-06T10:04:20.000Z</time>
</trkpt>
<trkpt lat="46.0642220" lon="10.4891770">
	<ele>2530.60</ele>
	<time>2023-08-06T10:04:21.000Z</time>
</trkpt>
<trkpt lat="46.0642260" lon="10.4891770">
	<ele>2530.20</ele>
	<time>2023-08-06T10:04:22.000Z</time>
</trkpt>
<trkpt lat="46.0642310" lon="10.4891740">
	<ele>2530.00</ele>
	<time>2023-08-06T10:04:23.000Z</time>
</trkpt>
<trkpt lat="46.0642450" lon="10.4891720">
	<ele>2529.80</ele>
	<time>2023-08-06T10:04:24.000Z</time>
</trkpt>
<trkpt lat="46.0642600" lon="10.4891730">
	<ele>2529.40</ele>
	<time>2023-08-06T10:04:25.000Z</time>
</trkpt>
<trkpt lat="46.0642750" lon="10.4891710">
	<ele>2529.20</ele>
	<time>2023-08-06T10:04:26.000Z</time>
</trkpt>
<trkpt lat="46.0642880" lon="10.4891690">
	<ele>2529.00</ele>
	<time>2023-08-06T10:04:27.000Z</time>
</trkpt>
<trkpt lat="46.0642990" lon="10.4891660">
	<ele>2529.00</ele>
	<time>2023-08-06T10:04:28.000Z</time>
</trkpt>
<trkpt lat="46.0643080" lon="10.4891680">
	<ele>2528.60</ele>
	<time>2023-08-06T10:04:29.000Z</time>
</trkpt>
<trkpt lat="46.0643190" lon="10.4891780">
	<ele>2528.20</ele>
	<time>2023-08-06T10:04:30.000Z</time>
</trkpt>
<trkpt lat="46.0643290" lon="10.4891800">
	<ele>2528.00</ele>
	<time>2023-08-06T10:04:31.000Z</time>
</trkpt>
<trkpt lat="46.0643370" lon="10.4891780">
	<ele>2527.80</ele>
	<time>2023-08-06T10:04:32.000Z</time>
</trkpt>
<trkpt lat="46.0643400" lon="10.4891790">
	<ele>2527.80</ele>
	<time>2023-08-06T10:04:33.000Z</time>
</trkpt>
<trkpt lat="46.0643410" lon="10.4891800">
	<ele>2528.00</ele>
	<time>2023-08-06T10:04:34.000Z</time>
</trkpt>
<trkpt lat="46.0643430" lon="10.4891790">
	<ele>2528.20</ele>
	<time>2023-08-06T10:04:35.000Z</time>
</trkpt>
<trkpt lat="46.0643440" lon="10.4891780">
	<ele>2529.00</ele>
	<time>2023-08-06T10:04:36.000Z</time>
</trkpt>
<trkpt lat="46.0643460" lon="10.4891770">
	<ele>2529.40</ele>
	<time>2023-08-06T10:04:37.000Z</time>
</trkpt>
<trkpt lat="46.0643470" lon="10.4891770">
	<ele>2529.60</ele>
	<time>2023-08-06T10:04:38.000Z</time>
</trkpt>
<trkpt lat="46.0643460" lon="10.4891780">
	<ele>2529.80</ele>
	<time>2023-08-06T10:04:39.000Z</time>
</trkpt>
<trkpt lat="46.0643450" lon="10.4891780">
	<ele>2529.80</ele>
	<time>2023-08-06T10:04:40.000Z</time>
</trkpt>
<trkpt lat="46.0643450" lon="10.4891780">
	<ele>2530.00</ele>
	<time>2023-08-06T10:04:41.000Z</time>
</trkpt>
<trkpt lat="46.0643450" lon="10.4891780">
	<ele>2530.00</ele>
	<time>2023-08-06T10:04:42.000Z</time>
</trkpt>
<trkpt lat="46.0643450" lon="10.4891780">
	<ele>2530.00</ele>
	<time>2023-08-06T10:04:43.000Z</time>
</trkpt>
<trkpt lat="46.0643450" lon="10.4891780">
	<ele>2530.00</ele>
	<time>2023-08-06T10:04:44.000Z</time>
</trkpt>
<trkpt lat="46.0643450" lon="10.4891780">
	<ele>2529.00</ele>
	<time>2023-08-06T10:04:45.000Z</time>
</trkpt>
<trkpt lat="46.0643450" lon="10.4891780">
	<ele>2528.40</ele>
	<time>2023-08-06T10:04:46.000Z</time>
</trkpt>
<trkpt lat="46.0643450" lon="10.4891780">
	<ele>2528.20</ele>
	<time>2023-08-06T10:04:47.000Z</time>
</trkpt>
<trkpt lat="46.0643450" lon="10.4891780">
	<ele>2528.00</ele>
	<time>2023-08-06T10:04:48.000Z</time>
</trkpt>
<trkpt lat="46.0643450" lon="10.4891780">
	<ele>2528.00</ele>
	<time>2023-08-06T10:04:49.000Z</time>
</trkpt>
<trkpt lat="46.0643450" lon="10.4891780">
	<ele>2528.00</ele>
	<time>2023-08-06T10:04:50.000Z</time>
</trkpt>
<trkpt lat="46.0643450" lon="10.4891780">
	<ele>2528.00</ele>
	<time>2023-08-06T10:04:51.000Z</time>
</trkpt>
<trkpt lat="46.0643450" lon="10.4891780">
	<ele>2528.20</ele>
	<time>2023-08-06T10:04:52.000Z</time>
</trkpt>
<trkpt lat="46.0643450" lon="10.4891780">
	<ele>2528.40</ele>
	<time>2023-08-06T10:04:53.000Z</time>
</trkpt>
<trkpt lat="46.0643450" lon="10.4891780">
	<ele>2528.40</ele>
	<time>2023-08-06T10:04:54.000Z</time>
</trkpt>
<trkpt lat="46.0643450" lon="10.4891780">
	<ele>2528.40</ele>
	<time>2023-08-06T10:04:55.000Z</time>
</trkpt>
<trkpt lat="46.0643450" lon="10.4891780">
	<ele>2528.40</ele>
	<time>2023-08-06T10:04:56.000Z</time>
</trkpt>
<trkpt lat="46.0643450" lon="10.4891780">
	<ele>2528.00</ele>
	<time>2023-08-06T10:04:57.000Z</time>
</trkpt>
<trkpt lat="46.0643450" lon="10.4891780">
	<ele>2527.80</ele>
	<time>2023-08-06T10:04:58.000Z</time>
</trkpt>
<trkpt lat="46.0643450" lon="10.4891780">
	<ele>2527.60</ele>
	<time>2023-08-06T10:04:59.000Z</time>
</trkpt>
<trkpt lat="46.0643450" lon="10.4891780">
	<ele>2527.60</ele>
	<time>2023-08-06T10:05:00.000Z</time>
</trkpt>
<trkpt lat="46.0643450" lon="10.4891780">
	<ele>2527.40</ele>
	<time>2023-08-06T10:05:01.000Z</time>
</trkpt>
<trkpt lat="46.0643450" lon="10.4891780">
	<ele>2527.40</ele>
	<time>2023-08-06T10:05:02.000Z</time>
</trkpt>
<trkpt lat="46.0643460" lon="10.4891780">
	<ele>2527.20</ele>
	<time>2023-08-06T10:05:03.000Z</time>
</trkpt>
<trkpt lat="46.0643460" lon="10.4891780">
	<ele>2527.00</ele>
	<time>2023-08-06T10:05:04.000Z</time>
</trkpt>
<trkpt lat="46.0643470" lon="10.4891780">
	<ele>2526.80</ele>
	<time>2023-08-06T10:05:05.000Z</time>
</trkpt>
<trkpt lat="46.0643480" lon="10.4891780">
	<ele>2526.80</ele>
	<time>2023-08-06T10:05:06.000Z</time>
</trkpt>
<trkpt lat="46.0643500" lon="10.4891780">
	<ele>2526.40</ele>
	<time>2023-08-06T10:05:07.000Z</time>
</trkpt>
<trkpt lat="46.0643520" lon="10.4891790">
	<ele>2526.00</ele>
	<time>2023-08-06T10:05:08.000Z</time>
</trkpt>
<trkpt lat="46.0643540" lon="10.4891790">
	<ele>2525.80</ele>
	<time>2023-08-06T10:05:09.000Z</time>
</trkpt>
<trkpt lat="46.0643570" lon="10.4891790">
	<ele>2525.60</ele>
	<time>2023-08-06T10:05:10.000Z</time>
</trkpt>
<trkpt lat="46.0643590" lon="10.4891790">
	<ele>2525.60</ele>
	<time>2023-08-06T10:05:11.000Z</time>
</trkpt>
<trkpt lat="46.0643600" lon="10.4891790">
	<ele>2525.20</ele>
	<time>2023-08-06T10:05:12.000Z</time>
</trkpt>
<trkpt lat="46.0643660" lon="10.4891800">
	<ele>2525.00</ele>
	<time>2023-08-06T10:05:13.000Z</time>
</trkpt>
<trkpt lat="46.0643730" lon="10.4891800">
	<ele>2524.80</ele>
	<time>2023-08-06T10:05:14.000Z</time>
</trkpt>
<trkpt lat="46.0643790" lon="10.4891800">
	<ele>2524.60</ele>
	<time>2023-08-06T10:05:15.000Z</time>
</trkpt>
<trkpt lat="46.0643850" lon="10.4891820">
	<ele>2524.60</ele>
	<time>2023-08-06T10:05:16.000Z</time>
</trkpt>
<trkpt lat="46.0643880" lon="10.4891820">
	<ele>2524.40</ele>
	<time>2023-08-06T10:05:17.000Z</time>
</trkpt>
<trkpt lat="46.0643920" lon="10.4891820">
	<ele>2524.20</ele>
	<time>2023-08-06T10:05:18.000Z</time>
</trkpt>
<trkpt lat="46.0643980" lon="10.4891830">
	<ele>2524.00</ele>
	<time>2023-08-06T10:05:19.000Z</time>
</trkpt>
<trkpt lat="46.0644030" lon="10.4891830">
	<ele>2524.00</ele>
	<time>2023-08-06T10:05:20.000Z</time>
</trkpt>
<trkpt lat="46.0644070" lon="10.4891830">
	<ele>2523.80</ele>
	<time>2023-08-06T10:05:21.000Z</time>
</trkpt>
<trkpt lat="46.0644100" lon="10.4891840">
	<ele>2523.60</ele>
	<time>2023-08-06T10:05:22.000Z</time>
</trkpt>
<trkpt lat="46.0644140" lon="10.4891870">
	<ele>2523.40</ele>
	<time>2023-08-06T10:05:23.000Z</time>
</trkpt>
<trkpt lat="46.0644190" lon="10.4891910">
	<ele>2523.00</ele>
	<time>2023-08-06T10:05:24.000Z</time>
</trkpt>
<trkpt lat="46.0644220" lon="10.4891920">
	<ele>2522.80</ele>
	<time>2023-08-06T10:05:25.000Z</time>
</trkpt>
<trkpt lat="46.0644270" lon="10.4891930">
	<ele>2522.40</ele>
	<time>2023-08-06T10:05:26.000Z</time>
</trkpt>
<trkpt lat="46.0644330" lon="10.4891930">
	<ele>2522.40</ele>
	<time>2023-08-06T10:05:27.000Z</time>
</trkpt>
<trkpt lat="46.0644400" lon="10.4891930">
	<ele>2522.20</ele>
	<time>2023-08-06T10:05:28.000Z</time>
</trkpt>
<trkpt lat="46.0644450" lon="10.4891930">
	<ele>2522.20</ele>
	<time>2023-08-06T10:05:29.000Z</time>
</trkpt>
<trkpt lat="46.0644480" lon="10.4891930">
	<ele>2522.20</ele>
	<time>2023-08-06T10:05:30.000Z</time>
</trkpt>
<trkpt lat="46.0644540" lon="10.4891930">
	<ele>2522.00</ele>
	<time>2023-08-06T10:05:31.000Z</time>
</trkpt>
<trkpt lat="46.0644560" lon="10.4891930">
	<ele>2522.00</ele>
	<time>2023-08-06T10:05:32.000Z</time>
</trkpt>
<trkpt lat="46.0644590" lon="10.4891930">
	<ele>2521.80</ele>
	<time>2023-08-06T10:05:33.000Z</time>
</trkpt>
<trkpt lat="46.0644640" lon="10.4891930">
	<ele>2521.60</ele>
	<time>2023-08-06T10:05:34.000Z</time>
</trkpt>
<trkpt lat="46.0644690" lon="10.4891930">
	<ele>2521.60</ele>
	<time>2023-08-06T10:05:35.000Z</time>
</trkpt>
<trkpt lat="46.0644760" lon="10.4891930">
	<ele>2521.60</ele>
	<time>2023-08-06T10:05:36.000Z</time>
</trkpt>
<trkpt lat="46.0644830" lon="10.4891930">
	<ele>2521.60</ele>
	<time>2023-08-06T10:05:37.000Z</time>
</trkpt>
<trkpt lat="46.0644870" lon="10.4891940">
	<ele>2521.60</ele>
	<time>2023-08-06T10:05:38.000Z</time>
</trkpt>
<trkpt lat="46.0644890" lon="10.4891940">
	<ele>2521.60</ele>
	<time>2023-08-06T10:05:39.000Z</time>
</trkpt>
<trkpt lat="46.0644920" lon="10.4891940">
	<ele>2521.60</ele>
	<time>2023-08-06T10:05:40.000Z</time>
</trkpt>
<trkpt lat="46.0644950" lon="10.4891940">
	<ele>2521.80</ele>
	<time>2023-08-06T10:05:41.000Z</time>
</trkpt>
<trkpt lat="46.0644970" lon="10.4891930">
	<ele>2522.00</ele>
	<time>2023-08-06T10:05:42.000Z</time>
</trkpt>
<trkpt lat="46.0644990" lon="10.4891930">
	<ele>2522.00</ele>
	<time>2023-08-06T10:05:43.000Z</time>
</trkpt>
<trkpt lat="46.0645010" lon="10.4891930">
	<ele>2522.00</ele>
	<time>2023-08-06T10:05:44.000Z</time>
</trkpt>
<trkpt lat="46.0645030" lon="10.4891930">
	<ele>2522.00</ele>
	<time>2023-08-06T10:05:45.000Z</time>
</trkpt>
<trkpt lat="46.0645040" lon="10.4891930">
	<ele>2521.80</ele>
	<time>2023-08-06T10:05:46.000Z</time>
</trkpt>
<trkpt lat="46.0645060" lon="10.4891930">
	<ele>2521.20</ele>
	<time>2023-08-06T10:05:47.000Z</time>
</trkpt>
<trkpt lat="46.0645080" lon="10.4891920">
	<ele>2520.80</ele>
	<time>2023-08-06T10:05:48.000Z</time>
</trkpt>
<trkpt lat="46.0645090" lon="10.4891920">
	<ele>2520.40</ele>
	<time>2023-08-06T10:05:49.000Z</time>
</trkpt>
<trkpt lat="46.0645100" lon="10.4891920">
	<ele>2520.40</ele>
	<time>2023-08-06T10:05:50.000Z</time>
</trkpt>
<trkpt lat="46.0645120" lon="10.4891920">
	<ele>2520.00</ele>
	<time>2023-08-06T10:05:51.000Z</time>
</trkpt>
<trkpt lat="46.0645150" lon="10.4891910">
	<ele>2519.80</ele>
	<time>2023-08-06T10:05:52.000Z</time>
</trkpt>
<trkpt lat="46.0645200" lon="10.4891910">
	<ele>2519.60</ele>
	<time>2023-08-06T10:05:53.000Z</time>
</trkpt>
<trkpt lat="46.0645240" lon="10.4891910">
	<ele>2519.60</ele>
	<time>2023-08-06T10:05:54.000Z</time>
</trkpt>
<trkpt lat="46.0645290" lon="10.4891890">
	<ele>2519.60</ele>
	<time>2023-08-06T10:05:55.000Z</time>
</trkpt>
<trkpt lat="46.0645320" lon="10.4891850">
	<ele>2519.40</ele>
	<time>2023-08-06T10:05:56.000Z</time>
</trkpt>
<trkpt lat="46.0645350" lon="10.4891800">
	<ele>2519.00</ele>
	<time>2023-08-06T10:05:57.000Z</time>
</trkpt>
<trkpt lat="46.0645390" lon="10.4891720">
	<ele>2518.80</ele>
	<time>2023-08-06T10:05:58.000Z</time>
</trkpt>
<trkpt lat="46.0645450" lon="10.4891670">
	<ele>2518.60</ele>
	<time>2023-08-06T10:05:59.000Z</time>
</trkpt>
<trkpt lat="46.0645480" lon="10.4891660">
	<ele>2518.60</ele>
	<time>2023-08-06T10:06:00.000Z</time>
</trkpt>
<trkpt lat="46.0645510" lon="10.4891650">
	<ele>2518.60</ele>
	<time>2023-08-06T10:06:01.000Z</time>
</trkpt>
<trkpt lat="46.0645540" lon="10.4891650">
	<ele>2518.40</ele>
	<time>2023-08-06T10:06:02.000Z</time>
</trkpt>
<trkpt lat="46.0645580" lon="10.4891650">
	<ele>2518.40</ele>
	<time>2023-08-06T10:06:03.000Z</time>
</trkpt>
<trkpt lat="46.0645610" lon="10.4891650">
	<ele>2518.40</ele>
	<time>2023-08-06T10:06:04.000Z</time>
</trkpt>
<trkpt lat="46.0645650" lon="10.4891650">
	<ele>2518.00</ele>
	<time>2023-08-06T10:06:05.000Z</time>
</trkpt>
<trkpt lat="46.0645690" lon="10.4891650">
	<ele>2517.80</ele>
	<time>2023-08-06T10:06:06.000Z</time>
</trkpt>
<trkpt lat="46.0645700" lon="10.4891650">
	<ele>2517.80</ele>
	<time>2023-08-06T10:06:07.000Z</time>
</trkpt>
<trkpt lat="46.0645720" lon="10.4891650">
	<ele>2517.60</ele>
	<time>2023-08-06T10:06:08.000Z</time>
</trkpt>
<trkpt lat="46.0645740" lon="10.4891650">
	<ele>2517.40</ele>
	<time>2023-08-06T10:06:09.000Z</time>
</trkpt>
<trkpt lat="46.0645780" lon="10.4891640">
	<ele>2517.20</ele>
	<time>2023-08-06T10:06:10.000Z</time>
</trkpt>
<trkpt lat="46.0645810" lon="10.4891640">
	<ele>2517.00</ele>
	<time>2023-08-06T10:06:11.000Z</time>
</trkpt>
<trkpt lat="46.0645840" lon="10.4891630">
	<ele>2516.80</ele>
	<time>2023-08-06T10:06:12.000Z</time>
</trkpt>
<trkpt lat="46.0645860" lon="10.4891630">
	<ele>2516.80</ele>
	<time>2023-08-06T10:06:13.000Z</time>
</trkpt>
<trkpt lat="46.0645880" lon="10.4891630">
	<ele>2516.20</ele>
	<time>2023-08-06T10:06:14.000Z</time>
</trkpt>
<trkpt lat="46.0645910" lon="10.4891620">
	<ele>2516.00</ele>
	<time>2023-08-06T10:06:15.000Z</time>
</trkpt>
<trkpt lat="46.0645950" lon="10.4891620">
	<ele>2515.80</ele>
	<time>2023-08-06T10:06:16.000Z</time>
</trkpt>
<trkpt lat="46.0645990" lon="10.4891620">
	<ele>2515.60</ele>
	<time>2023-08-06T10:06:17.000Z</time>
</trkpt>
<trkpt lat="46.0646030" lon="10.4891620">
	<ele>2515.20</ele>
	<time>2023-08-06T10:06:18.000Z</time>
</trkpt>
<trkpt lat="46.0646070" lon="10.4891620">
	<ele>2515.00</ele>
	<time>2023-08-06T10:06:19.000Z</time>
</trkpt>
<trkpt lat="46.0646090" lon="10.4891620">
	<ele>2514.60</ele>
	<time>2023-08-06T10:06:20.000Z</time>
</trkpt>
<trkpt lat="46.0646120" lon="10.4891620">
	<ele>2514.40</ele>
	<time>2023-08-06T10:06:21.000Z</time>
</trkpt>
<trkpt lat="46.0646150" lon="10.4891620">
	<ele>2514.20</ele>
	<time>2023-08-06T10:06:22.000Z</time>
</trkpt>
<trkpt lat="46.0646170" lon="10.4891620">
	<ele>2514.20</ele>
	<time>2023-08-06T10:06:23.000Z</time>
</trkpt>
<trkpt lat="46.0646210" lon="10.4891620">
	<ele>2514.00</ele>
	<time>2023-08-06T10:06:24.000Z</time>
</trkpt>
<trkpt lat="46.0646240" lon="10.4891620">
	<ele>2513.80</ele>
	<time>2023-08-06T10:06:25.000Z</time>
</trkpt>
<trkpt lat="46.0646290" lon="10.4891620">
	<ele>2513.60</ele>
	<time>2023-08-06T10:06:26.000Z</time>
</trkpt>
<trkpt lat="46.0646330" lon="10.4891620">
	<ele>2513.20</ele>
	<time>2023-08-06T10:06:27.000Z</time>
</trkpt>
<trkpt lat="46.0646370" lon="10.4891620">
	<ele>2513.00</ele>
	<time>2023-08-06T10:06:28.000Z</time>
</trkpt>
<trkpt lat="46.0646410" lon="10.4891620">
	<ele>2513.00</ele>
	<time>2023-08-06T10:06:29.000Z</time>
</trkpt>
<trkpt lat="46.0646430" lon="10.4891620">
	<ele>2512.80</ele>
	<time>2023-08-06T10:06:30.000Z</time>
</trkpt>
<trkpt lat="46.0646460" lon="10.4891620">
	<ele>2512.60</ele>
	<time>2023-08-06T10:06:31.000Z</time>
</trkpt>
<trkpt lat="46.0646490" lon="10.4891620">
	<ele>2512.60</ele>
	<time>2023-08-06T10:06:32.000Z</time>
</trkpt>
<trkpt lat="46.0646520" lon="10.4891620">
	<ele>2512.20</ele>
	<time>2023-08-06T10:06:33.000Z</time>
</trkpt>
<trkpt lat="46.0646550" lon="10.4891620">
	<ele>2511.80</ele>
	<time>2023-08-06T10:06:34.000Z</time>
</trkpt>
<trkpt lat="46.0646580" lon="10.4891620">
	<ele>2511.80</ele>
	<time>2023-08-06T10:06:35.000Z</time>
</trkpt>
<trkpt lat="46.0646610" lon="10.4891620">
	<ele>2511.40</ele>
	<time>2023-08-06T10:06:36.000Z</time>
</trkpt>
<trkpt lat="46.0646640" lon="10.4891620">
	<ele>2511.20</ele>
	<time>2023-08-06T10:06:37.000Z</time>
</trkpt>
<trkpt lat="46.0646680" lon="10.4891620">
	<ele>2511.20</ele>
	<time>2023-08-06T10:06:38.000Z</time>
</trkpt>
<trkpt lat="46.0646710" lon="10.4891620">
	<ele>2511.00</ele>
	<time>2023-08-06T10:06:39.000Z</time>
</trkpt>
<trkpt lat="46.0646720" lon="10.4891620">
	<ele>2511.00</ele>
	<time>2023-08-06T10:06:40.000Z</time>
</trkpt>
<trkpt lat="46.0646740" lon="10.4891620">
	<ele>2511.00</ele>
	<time>2023-08-06T10:06:41.000Z</time>
</trkpt>
<trkpt lat="46.0646790" lon="10.4891630">
	<ele>2510.80</ele>
	<time>2023-08-06T10:06:42.000Z</time>
</trkpt>
<trkpt lat="46.0646860" lon="10.4891630">
	<ele>2510.80</ele>
	<time>2023-08-06T10:06:43.000Z</time>
</trkpt>
<trkpt lat="46.0646930" lon="10.4891650">
	<ele>2510.60</ele>
	<time>2023-08-06T10:06:44.000Z</time>
</trkpt>
<trkpt lat="46.0646990" lon="10.4891660">
	<ele>2510.40</ele>
	<time>2023-08-06T10:06:45.000Z</time>
</trkpt>
<trkpt lat="46.0647040" lon="10.4891670">
	<ele>2510.40</ele>
	<time>2023-08-06T10:06:46.000Z</time>
</trkpt>
<trkpt lat="46.0647080" lon="10.4891690">
	<ele>2510.40</ele>
	<time>2023-08-06T10:06:47.000Z</time>
</trkpt>
<trkpt lat="46.0647120" lon="10.4891700">
	<ele>2510.20</ele>
	<time>2023-08-06T10:06:48.000Z</time>
</trkpt>
<trkpt lat="46.0647150" lon="10.4891710">
	<ele>2509.80</ele>
	<time>2023-08-06T10:06:49.000Z</time>
</trkpt>
<trkpt lat="46.0647190" lon="10.4891720">
	<ele>2509.60</ele>
	<time>2023-08-06T10:06:50.000Z</time>
</trkpt>
<trkpt lat="46.0647220" lon="10.4891730">
	<ele>2509.20</ele>
	<time>2023-08-06T10:06:51.000Z</time>
</trkpt>
<trkpt lat="46.0647250" lon="10.4891750">
	<ele>2509.00</ele>
	<time>2023-08-06T10:06:52.000Z</time>
</trkpt>
<trkpt lat="46.0647270" lon="10.4891770">
	<ele>2509.20</ele>
	<time>2023-08-06T10:06:53.000Z</time>
</trkpt>
<trkpt lat="46.0647300" lon="10.4891810">
	<ele>2509.20</ele>
	<time>2023-08-06T10:06:54.000Z</time>
</trkpt>
<trkpt lat="46.0647320" lon="10.4891840">
	<ele>2509.60</ele>
	<time>2023-08-06T10:06:55.000Z</time>
</trkpt>
<trkpt lat="46.0647360" lon="10.4891870">
	<ele>2509.80</ele>
	<time>2023-08-06T10:06:56.000Z</time>
</trkpt>
<trkpt lat="46.0647400" lon="10.4891910">
	<ele>2510.00</ele>
	<time>2023-08-06T10:06:57.000Z</time>
</trkpt>
<trkpt lat="46.0647440" lon="10.4891960">
	<ele>2510.20</ele>
	<time>2023-08-06T10:06:58.000Z</time>
</trkpt>
<trkpt lat="46.0647470" lon="10.4892000">
	<ele>2510.20</ele>
	<time>2023-08-06T10:06:59.000Z</time>
</trkpt>
<trkpt lat="46.0647510" lon="10.4892040">
	<ele>2510.40</ele>
	<time>2023-08-06T10:07:00.000Z</time>
</trkpt>
<trkpt lat="46.0647550" lon="10.4892080">
	<ele>2510.40</ele>
	<time>2023-08-06T10:07:01.000Z</time>
</trkpt>
<trkpt lat="46.0647590" lon="10.4892120">
	<ele>2510.40</ele>
	<time>2023-08-06T10:07:02.000Z</time>
</trkpt>
<trkpt lat="46.0647630" lon="10.4892160">
	<ele>2510.20</ele>
	<time>2023-08-06T10:07:03.000Z</time>
</trkpt>
<trkpt lat="46.0647680" lon="10.4892190">
	<ele>2510.20</ele>
	<time>2023-08-06T10:07:04.000Z</time>
</trkpt>
<trkpt lat="46.0647720" lon="10.4892220">
	<ele>2510.00</ele>
	<time>2023-08-06T10:07:05.000Z</time>
</trkpt>
<trkpt lat="46.0647760" lon="10.4892240">
	<ele>2509.60</ele>
	<time>2023-08-06T10:07:06.000Z</time>
</trkpt>
<trkpt lat="46.0647790" lon="10.4892250">
	<ele>2509.20</ele>
	<time>2023-08-06T10:07:07.000Z</time>
</trkpt>
<trkpt lat="46.0647810" lon="10.4892270">
	<ele>2509.00</ele>
	<time>2023-08-06T10:07:08.000Z</time>
</trkpt>
<trkpt lat="46.0647830" lon="10.4892280">
	<ele>2509.00</ele>
	<time>2023-08-06T10:07:09.000Z</time>
</trkpt>
<trkpt lat="46.0647840" lon="10.4892280">
	<ele>2509.00</ele>
	<time>2023-08-06T10:07:10.000Z</time>
</trkpt>
<trkpt lat="46.0647850" lon="10.4892290">
	<ele>2509.00</ele>
	<time>2023-08-06T10:07:11.000Z</time>
</trkpt>
<trkpt lat="46.0647860" lon="10.4892290">
	<ele>2509.20</ele>
	<time>2023-08-06T10:07:12.000Z</time>
</trkpt>
<trkpt lat="46.0647870" lon="10.4892290">
	<ele>2509.20</ele>
	<time>2023-08-06T10:07:13.000Z</time>
</trkpt>
<trkpt lat="46.0647870" lon="10.4892300">
	<ele>2509.40</ele>
	<time>2023-08-06T10:07:14.000Z</time>
</trkpt>
<trkpt lat="46.0647880" lon="10.4892300">
	<ele>2509.40</ele>
	<time>2023-08-06T10:07:15.000Z</time>
</trkpt>
<trkpt lat="46.0647880" lon="10.4892310">
	<ele>2509.60</ele>
	<time>2023-08-06T10:07:16.000Z</time>
</trkpt>
<trkpt lat="46.0647890" lon="10.4892310">
	<ele>2509.60</ele>
	<time>2023-08-06T10:07:17.000Z</time>
</trkpt>
<trkpt lat="46.0647890" lon="10.4892320">
	<ele>2509.20</ele>
	<time>2023-08-06T10:07:18.000Z</time>
</trkpt>
<trkpt lat="46.0647900" lon="10.4892320">
	<ele>2508.80</ele>
	<time>2023-08-06T10:07:19.000Z</time>
</trkpt>
<trkpt lat="46.0647900" lon="10.4892320">
	<ele>2508.60</ele>
	<time>2023-08-06T10:07:20.000Z</time>
</trkpt>
<trkpt lat="46.0647930" lon="10.4892340">
	<ele>2508.40</ele>
	<time>2023-08-06T10:07:21.000Z</time>
</trkpt>
<trkpt lat="46.0648020" lon="10.4892390">
	<ele>2508.00</ele>
	<time>2023-08-06T10:07:22.000Z</time>
</trkpt>
<trkpt lat="46.0648110" lon="10.4892370">
	<ele>2507.80</ele>
	<time>2023-08-06T10:07:23.000Z</time>
</trkpt>
<trkpt lat="46.0648190" lon="10.4892380">
	<ele>2507.60</ele>
	<time>2023-08-06T10:07:24.000Z</time>
</trkpt>
<trkpt lat="46.0648300" lon="10.4892380">
	<ele>2507.40</ele>
	<time>2023-08-06T10:07:25.000Z</time>
</trkpt>
<trkpt lat="46.0648380" lon="10.4892360">
	<ele>2507.20</ele>
	<time>2023-08-06T10:07:26.000Z</time>
</trkpt>
<trkpt lat="46.0648470" lon="10.4892390">
	<ele>2507.00</ele>
	<time>2023-08-06T10:07:27.000Z</time>
</trkpt>
<trkpt lat="46.0648590" lon="10.4892390">
	<ele>2506.80</ele>
	<time>2023-08-06T10:07:28.000Z</time>
</trkpt>
<trkpt lat="46.0648670" lon="10.4892400">
	<ele>2506.60</ele>
	<time>2023-08-06T10:07:29.000Z</time>
</trkpt>
<trkpt lat="46.0648780" lon="10.4892380">
	<ele>2506.60</ele>
	<time>2023-08-06T10:07:30.000Z</time>
</trkpt>
<trkpt lat="46.0648860" lon="10.4892370">
	<ele>2506.40</ele>
	<time>2023-08-06T10:07:31.000Z</time>
</trkpt>
<trkpt lat="46.0648930" lon="10.4892420">
	<ele>2506.40</ele>
	<time>2023-08-06T10:07:32.000Z</time>
</trkpt>
<trkpt lat="46.0649030" lon="10.4892500">
	<ele>2506.40</ele>
	<time>2023-08-06T10:07:33.000Z</time>
</trkpt>
<trkpt lat="46.0649150" lon="10.4892550">
	<ele>2506.40</ele>
	<time>2023-08-06T10:07:34.000Z</time>
</trkpt>
<trkpt lat="46.0649190" lon="10.4892580">
	<ele>2506.40</ele>
	<time>2023-08-06T10:07:35.000Z</time>
</trkpt>
<trkpt lat="46.0649220" lon="10.4892510">
	<ele>2506.40</ele>
	<time>2023-08-06T10:07:36.000Z</time>
</trkpt>
<trkpt lat="46.0649280" lon="10.4892380">
	<ele>2506.00</ele>
	<time>2023-08-06T10:07:37.000Z</time>
</trkpt>
<trkpt lat="46.0649380" lon="10.4892350">
	<ele>2505.80</ele>
	<time>2023-08-06T10:07:38.000Z</time>
</trkpt>
<trkpt lat="46.0649470" lon="10.4892310">
	<ele>2505.60</ele>
	<time>2023-08-06T10:07:39.000Z</time>
</trkpt>
<trkpt lat="46.0649520" lon="10.4892320">
	<ele>2505.40</ele>
	<time>2023-08-06T10:07:40.000Z</time>
</trkpt>
<trkpt lat="46.0649560" lon="10.4892320">
	<ele>2505.40</ele>
	<time>2023-08-06T10:07:41.000Z</time>
</trkpt>
<trkpt lat="46.0649610" lon="10.4892250">
	<ele>2505.40</ele>
	<time>2023-08-06T10:07:42.000Z</time>
</trkpt>
<trkpt lat="46.0649680" lon="10.4892250">
	<ele>2505.40</ele>
	<time>2023-08-06T10:07:43.000Z</time>
</trkpt>
<trkpt lat="46.0649740" lon="10.4892180">
	<ele>2505.20</ele>
	<time>2023-08-06T10:07:44.000Z</time>
</trkpt>
<trkpt lat="46.0649810" lon="10.4892050">
	<ele>2505.20</ele>
	<time>2023-08-06T10:07:45.000Z</time>
</trkpt>
<trkpt lat="46.0649830" lon="10.4892010">
	<ele>2505.20</ele>
	<time>2023-08-06T10:07:46.000Z</time>
</trkpt>
<trkpt lat="46.0649840" lon="10.4892140">
	<ele>2505.20</ele>
	<time>2023-08-06T10:07:47.000Z</time>
</trkpt>
<trkpt lat="46.0649830" lon="10.4892180">
	<ele>2505.20</ele>
	<time>2023-08-06T10:07:48.000Z</time>
</trkpt>
<trkpt lat="46.0649810" lon="10.4892260">
	<ele>2505.20</ele>
	<time>2023-08-06T10:07:49.000Z</time>
</trkpt>
<trkpt lat="46.0649880" lon="10.4892290">
	<ele>2505.20</ele>
	<time>2023-08-06T10:07:50.000Z</time>
</trkpt>
<trkpt lat="46.0649890" lon="10.4892240">
	<ele>2505.20</ele>
	<time>2023-08-06T10:07:51.000Z</time>
</trkpt>
<trkpt lat="46.0649870" lon="10.4892170">
	<ele>2505.00</ele>
	<time>2023-08-06T10:07:52.000Z</time>
</trkpt>
<trkpt lat="46.0649870" lon="10.4892200">
	<ele>2505.00</ele>
	<time>2023-08-06T10:07:53.000Z</time>
</trkpt>
<trkpt lat="46.0649880" lon="10.4892210">
	<ele>2505.00</ele>
	<time>2023-08-06T10:07:54.000Z</time>
</trkpt>
<trkpt lat="46.0649880" lon="10.4892230">
	<ele>2505.00</ele>
	<time>2023-08-06T10:07:55.000Z</time>
</trkpt>
<trkpt lat="46.0649860" lon="10.4892320">
	<ele>2505.00</ele>
	<time>2023-08-06T10:07:56.000Z</time>
</trkpt>
<trkpt lat="46.0649860" lon="10.4892390">
	<ele>2505.20</ele>
	<time>2023-08-06T10:07:57.000Z</time>
</trkpt>
<trkpt lat="46.0649870" lon="10.4892390">
	<ele>2505.40</ele>
	<time>2023-08-06T10:07:58.000Z</time>
</trkpt>
<trkpt lat="46.0649880" lon="10.4892380">
	<ele>2505.40</ele>
	<time>2023-08-06T10:07:59.000Z</time>
</trkpt>
<trkpt lat="46.0649880" lon="10.4892370">
	<ele>2505.60</ele>
	<time>2023-08-06T10:08:00.000Z</time>
</trkpt>
<trkpt lat="46.0649880" lon="10.4892370">
	<ele>2505.60</ele>
	<time>2023-08-06T10:08:01.000Z</time>
</trkpt>
<trkpt lat="46.0649880" lon="10.4892370">
	<ele>2505.60</ele>
	<time>2023-08-06T10:08:02.000Z</time>
</trkpt>
<trkpt lat="46.0649880" lon="10.4892370">
	<ele>2505.60</ele>
	<time>2023-08-06T10:08:03.000Z</time>
</trkpt>
<trkpt lat="46.0649880" lon="10.4892370">
	<ele>2505.60</ele>
	<time>2023-08-06T10:08:04.000Z</time>
</trkpt>
<trkpt lat="46.0649880" lon="10.4892370">
	<ele>2505.60</ele>
	<time>2023-08-06T10:08:05.000Z</time>
</trkpt>
<trkpt lat="46.0649880" lon="10.4892370">
	<ele>2505.60</ele>
	<time>2023-08-06T10:08:06.000Z</time>
</trkpt>
<trkpt lat="46.0649880" lon="10.4892370">
	<ele>2505.60</ele>
	<time>2023-08-06T10:08:07.000Z</time>
</trkpt>
<trkpt lat="46.0649880" lon="10.4892370">
	<ele>2505.40</ele>
	<time>2023-08-06T10:08:08.000Z</time>
</trkpt>
<trkpt lat="46.0649880" lon="10.4892370">
	<ele>2505.40</ele>
	<time>2023-08-06T10:08:09.000Z</time>
</trkpt>
<trkpt lat="46.0649880" lon="10.4892370">
	<ele>2505.40</ele>
	<time>2023-08-06T10:08:10.000Z</time>
</trkpt>
<trkpt lat="46.0649880" lon="10.4892370">
	<ele>2505.20</ele>
	<time>2023-08-06T10:08:11.000Z</time>
</trkpt>
<trkpt lat="46.0649880" lon="10.4892350">
	<ele>2505.20</ele>
	<time>2023-08-06T10:08:12.000Z</time>
</trkpt>
<trkpt lat="46.0649880" lon="10.4892350">
	<ele>2505.00</ele>
	<time>2023-08-06T10:08:13.000Z</time>
</trkpt>
<trkpt lat="46.0649880" lon="10.4892340">
	<ele>2505.00</ele>
	<time>2023-08-06T10:08:14.000Z</time>
</trkpt>
<trkpt lat="46.0649880" lon="10.4892340">
	<ele>2505.00</ele>
	<time>2023-08-06T10:08:15.000Z</time>
</trkpt>
<trkpt lat="46.0649880" lon="10.4892340">
	<ele>2505.00</ele>
	<time>2023-08-06T10:08:16.000Z</time>
</trkpt>
<trkpt lat="46.0649880" lon="10.4892340">
	<ele>2505.20</ele>
	<time>2023-08-06T10:08:17.000Z</time>
</trkpt>
<trkpt lat="46.0649880" lon="10.4892340">
	<ele>2505.40</ele>
	<time>2023-08-06T10:08:18.000Z</time>
</trkpt>
<trkpt lat="46.0649880" lon="10.4892330">
	<ele>2505.40</ele>
	<time>2023-08-06T10:08:19.000Z</time>
</trkpt>
<trkpt lat="46.0649880" lon="10.4892290">
	<ele>2505.40</ele>
	<time>2023-08-06T10:08:20.000Z</time>
</trkpt>
<trkpt lat="46.0649910" lon="10.4892160">
	<ele>2504.80</ele>
	<time>2023-08-06T10:08:21.000Z</time>
</trkpt>
<trkpt lat="46.0649980" lon="10.4892070">
	<ele>2504.40</ele>
	<time>2023-08-06T10:08:22.000Z</time>
</trkpt>
<trkpt lat="46.0650050" lon="10.4891980">
	<ele>2504.40</ele>
	<time>2023-08-06T10:08:23.000Z</time>
</trkpt>
<trkpt lat="46.0650140" lon="10.4891930">
	<ele>2504.20</ele>
	<time>2023-08-06T10:08:24.000Z</time>
</trkpt>
<trkpt lat="46.0650210" lon="10.4891860">
	<ele>2504.40</ele>
	<time>2023-08-06T10:08:25.000Z</time>
</trkpt>
<trkpt lat="46.0650300" lon="10.4891790">
	<ele>2504.40</ele>
	<time>2023-08-06T10:08:26.000Z</time>
</trkpt>
<trkpt lat="46.0650390" lon="10.4891710">
	<ele>2504.40</ele>
	<time>2023-08-06T10:08:27.000Z</time>
</trkpt>
<trkpt lat="46.0650480" lon="10.4891750">
	<ele>2504.40</ele>
	<time>2023-08-06T10:08:28.000Z</time>
</trkpt>
<trkpt lat="46.0650580" lon="10.4891800">
	<ele>2504.60</ele>
	<time>2023-08-06T10:08:29.000Z</time>
</trkpt>
<trkpt lat="46.0650690" lon="10.4891740">
	<ele>2504.60</ele>
	<time>2023-08-06T10:08:30.000Z</time>
</trkpt>
<trkpt lat="46.0650750" lon="10.4891700">
	<ele>2504.60</ele>
	<time>2023-08-06T10:08:31.000Z</time>
</trkpt>
<trkpt lat="46.0650800" lon="10.4891670">
	<ele>2504.40</ele>
	<time>2023-08-06T10:08:32.000Z</time>
</trkpt>
<trkpt lat="46.0650860" lon="10.4891620">
	<ele>2504.20</ele>
	<time>2023-08-06T10:08:33.000Z</time>
</trkpt>
<trkpt lat="46.0650930" lon="10.4891610">
	<ele>2504.20</ele>
	<time>2023-08-06T10:08:34.000Z</time>
</trkpt>
<trkpt lat="46.0650980" lon="10.4891600">
	<ele>2504.20</ele>
	<time>2023-08-06T10:08:35.000Z</time>
</trkpt>
<trkpt lat="46.0651020" lon="10.4891600">
	<ele>2504.00</ele>
	<time>2023-08-06T10:08:36.000Z</time>
</trkpt>
<trkpt lat="46.0651050" lon="10.4891610">
	<ele>2504.00</ele>
	<time>2023-08-06T10:08:37.000Z</time>
</trkpt>
<trkpt lat="46.0651120" lon="10.4891640">
	<ele>2503.80</ele>
	<time>2023-08-06T10:08:38.000Z</time>
</trkpt>
<trkpt lat="46.0651210" lon="10.4891620">
	<ele>2503.40</ele>
	<time>2023-08-06T10:08:39.000Z</time>
</trkpt>
<trkpt lat="46.0651310" lon="10.4891600">
	<ele>2503.00</ele>
	<time>2023-08-06T10:08:40.000Z</time>
</trkpt>
<trkpt lat="46.0651380" lon="10.4891600">
	<ele>2503.00</ele>
	<time>2023-08-06T10:08:41.000Z</time>
</trkpt>
<trkpt lat="46.0651470" lon="10.4891630">
	<ele>2502.80</ele>
	<time>2023-08-06T10:08:42.000Z</time>
</trkpt>
<trkpt lat="46.0651540" lon="10.4891630">
	<ele>2502.80</ele>
	<time>2023-08-06T10:08:43.000Z</time>
</trkpt>
<trkpt lat="46.0651600" lon="10.4891660">
	<ele>2502.80</ele>
	<time>2023-08-06T10:08:44.000Z</time>
</trkpt>
<trkpt lat="46.0651630" lon="10.4891640">
	<ele>2503.20</ele>
	<time>2023-08-06T10:08:45.000Z</time>
</trkpt>
<trkpt lat="46.0651660" lon="10.4891590">
	<ele>2503.40</ele>
	<time>2023-08-06T10:08:46.000Z</time>
</trkpt>
<trkpt lat="46.0651730" lon="10.4891600">
	<ele>2503.80</ele>
	<time>2023-08-06T10:08:47.000Z</time>
</trkpt>
<trkpt lat="46.0651780" lon="10.4891600">
	<ele>2503.80</ele>
	<time>2023-08-06T10:08:48.000Z</time>
</trkpt>
<trkpt lat="46.0651870" lon="10.4891610">
	<ele>2504.00</ele>
	<time>2023-08-06T10:08:49.000Z</time>
</trkpt>
<trkpt lat="46.0651930" lon="10.4891580">
	<ele>2504.40</ele>
	<time>2023-08-06T10:08:50.000Z</time>
</trkpt>
<trkpt lat="46.0651970" lon="10.4891530">
	<ele>2504.80</ele>
	<time>2023-08-06T10:08:51.000Z</time>
</trkpt>
<trkpt lat="46.0651990" lon="10.4891460">
	<ele>2504.80</ele>
	<time>2023-08-06T10:08:52.000Z</time>
</trkpt>
<trkpt lat="46.0652010" lon="10.4891410">
	<ele>2505.00</ele>
	<time>2023-08-06T10:08:53.000Z</time>
</trkpt>
<trkpt lat="46.0652040" lon="10.4891360">
	<ele>2505.20</ele>
	<time>2023-08-06T10:08:54.000Z</time>
</trkpt>
<trkpt lat="46.0652120" lon="10.4891330">
	<ele>2505.40</ele>
	<time>2023-08-06T10:08:55.000Z</time>
</trkpt>
<trkpt lat="46.0652190" lon="10.4891360">
	<ele>2505.60</ele>
	<time>2023-08-06T10:08:56.000Z</time>
</trkpt>
<trkpt lat="46.0652220" lon="10.4891380">
	<ele>2506.00</ele>
	<time>2023-08-06T10:08:57.000Z</time>
</trkpt>
<trkpt lat="46.0652250" lon="10.4891500">
	<ele>2506.20</ele>
	<time>2023-08-06T10:08:58.000Z</time>
</trkpt>
<trkpt lat="46.0652250" lon="10.4891570">
	<ele>2506.40</ele>
	<time>2023-08-06T10:08:59.000Z</time>
</trkpt>
<trkpt lat="46.0652250" lon="10.4891610">
	<ele>2506.60</ele>
	<time>2023-08-06T10:09:00.000Z</time>
</trkpt>
<trkpt lat="46.0652280" lon="10.4891650">
	<ele>2506.80</ele>
	<time>2023-08-06T10:09:01.000Z</time>
</trkpt>
<trkpt lat="46.0652320" lon="10.4891680">
	<ele>2507.00</ele>
	<time>2023-08-06T10:09:02.000Z</time>
</trkpt>
<trkpt lat="46.0652340" lon="10.4891750">
	<ele>2507.00</ele>
	<time>2023-08-06T10:09:03.000Z</time>
</trkpt>
<trkpt lat="46.0652360" lon="10.4891790">
	<ele>2507.20</ele>
	<time>2023-08-06T10:09:04.000Z</time>
</trkpt>
<trkpt lat="46.0652370" lon="10.4891800">
	<ele>2507.40</ele>
	<time>2023-08-06T10:09:05.000Z</time>
</trkpt>
<trkpt lat="46.0652380" lon="10.4891800">
	<ele>2507.60</ele>
	<time>2023-08-06T10:09:06.000Z</time>
</trkpt>
<trkpt lat="46.0652380" lon="10.4891800">
	<ele>2507.60</ele>
	<time>2023-08-06T10:09:07.000Z</time>
</trkpt>
<trkpt lat="46.0652380" lon="10.4891800">
	<ele>2507.60</ele>
	<time>2023-08-06T10:09:08.000Z</time>
</trkpt>
<trkpt lat="46.0652380" lon="10.4891800">
	<ele>2507.60</ele>
	<time>2023-08-06T10:09:09.000Z</time>
</trkpt>
<trkpt lat="46.0652380" lon="10.4891800">
	<ele>2507.40</ele>
	<time>2023-08-06T10:09:10.000Z</time>
</trkpt>
<trkpt lat="46.0652380" lon="10.4891800">
	<ele>2507.40</ele>
	<time>2023-08-06T10:09:11.000Z</time>
</trkpt>
<trkpt lat="46.0652380" lon="10.4891800">
	<ele>2507.40</ele>
	<time>2023-08-06T10:09:12.000Z</time>
</trkpt>
<trkpt lat="46.0652380" lon="10.4891800">
	<ele>2507.20</ele>
	<time>2023-08-06T10:09:13.000Z</time>
</trkpt>
<trkpt lat="46.0652370" lon="10.4891800">
	<ele>2507.20</ele>
	<time>2023-08-06T10:09:14.000Z</time>
</trkpt>
<trkpt lat="46.0652370" lon="10.4891800">
	<ele>2507.20</ele>
	<time>2023-08-06T10:09:15.000Z</time>
</trkpt>
<trkpt lat="46.0652360" lon="10.4891800">
	<ele>2507.20</ele>
	<time>2023-08-06T10:09:16.000Z</time>
</trkpt>
<trkpt lat="46.0652340" lon="10.4891800">
	<ele>2507.20</ele>
	<time>2023-08-06T10:09:17.000Z</time>
</trkpt>
<trkpt lat="46.0652340" lon="10.4891800">
	<ele>2507.40</ele>
	<time>2023-08-06T10:09:18.000Z</time>
</trkpt>
<trkpt lat="46.0652340" lon="10.4891800">
	<ele>2507.40</ele>
	<time>2023-08-06T10:09:19.000Z</time>
</trkpt>
<trkpt lat="46.0652320" lon="10.4891800">
	<ele>2507.60</ele>
	<time>2023-08-06T10:09:20.000Z</time>
</trkpt>
<trkpt lat="46.0652310" lon="10.4891800">
	<ele>2507.80</ele>
	<time>2023-08-06T10:09:21.000Z</time>
</trkpt>
<trkpt lat="46.0652290" lon="10.4891800">
	<ele>2507.80</ele>
	<time>2023-08-06T10:09:22.000Z</time>
</trkpt>
<trkpt lat="46.0652280" lon="10.4891800">
	<ele>2508.00</ele>
	<time>2023-08-06T10:09:23.000Z</time>
</trkpt>
<trkpt lat="46.0652280" lon="10.4891800">
	<ele>2508.00</ele>
	<time>2023-08-06T10:09:24.000Z</time>
</trkpt>
<trkpt lat="46.0652280" lon="10.4891800">
	<ele>2508.00</ele>
	<time>2023-08-06T10:09:25.000Z</time>
</trkpt>
<trkpt lat="46.0652280" lon="10.4891800">
	<ele>2508.00</ele>
	<time>2023-08-06T10:09:26.000Z</time>
</trkpt>
<trkpt lat="46.0652270" lon="10.4891810">
	<ele>2507.80</ele>
	<time>2023-08-06T10:09:27.000Z</time>
</trkpt>
<trkpt lat="46.0652270" lon="10.4891810">
	<ele>2507.60</ele>
	<time>2023-08-06T10:09:28.000Z</time>
</trkpt>
<trkpt lat="46.0652270" lon="10.4891810">
	<ele>2507.60</ele>
	<time>2023-08-06T10:09:29.000Z</time>
</trkpt>
<trkpt lat="46.0652270" lon="10.4891820">
	<ele>2507.40</ele>
	<time>2023-08-06T10:09:30.000Z</time>
</trkpt>
<trkpt lat="46.0652270" lon="10.4891820">
	<ele>2507.40</ele>
	<time>2023-08-06T10:09:31.000Z</time>
</trkpt>
<trkpt lat="46.0652270" lon="10.4891880">
	<ele>2507.40</ele>
	<time>2023-08-06T10:09:32.000Z</time>
</trkpt>
<trkpt lat="46.0652270" lon="10.4891880">
	<ele>2507.40</ele>
	<time>2023-08-06T10:09:33.000Z</time>
</trkpt>
<trkpt lat="46.0652270" lon="10.4891880">
	<ele>2507.40</ele>
	<time>2023-08-06T10:09:34.000Z</time>
</trkpt>
<trkpt lat="46.0652270" lon="10.4891880">
	<ele>2507.20</ele>
	<time>2023-08-06T10:09:35.000Z</time>
</trkpt>
<trkpt lat="46.0652270" lon="10.4891880">
	<ele>2507.20</ele>
	<time>2023-08-06T10:09:36.000Z</time>
</trkpt>
<trkpt lat="46.0652270" lon="10.4891880">
	<ele>2507.20</ele>
	<time>2023-08-06T10:09:37.000Z</time>
</trkpt>
<trkpt lat="46.0652270" lon="10.4891890">
	<ele>2507.20</ele>
	<time>2023-08-06T10:09:38.000Z</time>
</trkpt>
<trkpt lat="46.0652270" lon="10.4891890">
	<ele>2507.20</ele>
	<time>2023-08-06T10:09:39.000Z</time>
</trkpt>
<trkpt lat="46.0652270" lon="10.4891900">
	<ele>2507.20</ele>
	<time>2023-08-06T10:09:40.000Z</time>
</trkpt>
<trkpt lat="46.0652270" lon="10.4891900">
	<ele>2507.20</ele>
	<time>2023-08-06T10:09:41.000Z</time>
</trkpt>
<trkpt lat="46.0652270" lon="10.4891900">
	<ele>2507.20</ele>
	<time>2023-08-06T10:09:42.000Z</time>
</trkpt>
<trkpt lat="46.0652280" lon="10.4891900">
	<ele>2507.20</ele>
	<time>2023-08-06T10:09:43.000Z</time>
</trkpt>
<trkpt lat="46.0652280" lon="10.4891910">
	<ele>2507.00</ele>
	<time>2023-08-06T10:09:44.000Z</time>
</trkpt>
<trkpt lat="46.0652280" lon="10.4891920">
	<ele>2506.80</ele>
	<time>2023-08-06T10:09:45.000Z</time>
</trkpt>
<trkpt lat="46.0652280" lon="10.4891930">
	<ele>2506.80</ele>
	<time>2023-08-06T10:09:46.000Z</time>
</trkpt>
<trkpt lat="46.0652280" lon="10.4891940">
	<ele>2506.60</ele>
	<time>2023-08-06T10:09:47.000Z</time>
</trkpt>
<trkpt lat="46.0652280" lon="10.4891940">
	<ele>2506.40</ele>
	<time>2023-08-06T10:09:48.000Z</time>
</trkpt>
<trkpt lat="46.0652310" lon="10.4892050">
	<ele>2506.20</ele>
	<time>2023-08-06T10:09:49.000Z</time>
</trkpt>
<trkpt lat="46.0652360" lon="10.4892300">
	<ele>2506.00</ele>
	<time>2023-08-06T10:09:50.000Z</time>
</trkpt>
<trkpt lat="46.0652440" lon="10.4892530">
	<ele>2506.00</ele>
	<time>2023-08-06T10:09:51.000Z</time>
</trkpt>
<trkpt lat="46.0652510" lon="10.4892750">
	<ele>2506.00</ele>
	<time>2023-08-06T10:09:52.000Z</time>
</trkpt>
<trkpt lat="46.0652590" lon="10.4892970">
	<ele>2505.80</ele>
	<time>2023-08-06T10:09:53.000Z</time>
</trkpt>
<trkpt lat="46.0652680" lon="10.4893210">
	<ele>2505.80</ele>
	<time>2023-08-06T10:09:54.000Z</time>
</trkpt>
<trkpt lat="46.0652760" lon="10.4893450">
	<ele>2505.80</ele>
	<time>2023-08-06T10:09:55.000Z</time>
</trkpt>
<trkpt lat="46.0652840" lon="10.4893660">
	<ele>2505.80</ele>
	<time>2023-08-06T10:09:56.000Z</time>
</trkpt>
<trkpt lat="46.0652940" lon="10.4893890">
	<ele>2505.80</ele>
	<time>2023-08-06T10:09:57.000Z</time>
</trkpt>
<trkpt lat="46.0653030" lon="10.4894050">
	<ele>2505.60</ele>
	<time>2023-08-06T10:09:58.000Z</time>
</trkpt>
<trkpt lat="46.0653050" lon="10.4894060">
	<ele>2505.60</ele>
	<time>2023-08-06T10:09:59.000Z</time>
</trkpt>
<trkpt lat="46.0653130" lon="10.4894060">
	<ele>2505.40</ele>
	<time>2023-08-06T10:10:00.000Z</time>
</trkpt>
<trkpt lat="46.0653190" lon="10.4894170">
	<ele>2505.20</ele>
	<time>2023-08-06T10:10:01.000Z</time>
</trkpt>
<trkpt lat="46.0653250" lon="10.4894310">
	<ele>2505.20</ele>
	<time>2023-08-06T10:10:02.000Z</time>
</trkpt>
<trkpt lat="46.0653350" lon="10.4894390">
	<ele>2505.00</ele>
	<time>2023-08-06T10:10:03.000Z</time>
</trkpt>
<trkpt lat="46.0653450" lon="10.4894460">
	<ele>2505.00</ele>
	<time>2023-08-06T10:10:04.000Z</time>
</trkpt>
<trkpt lat="46.0653550" lon="10.4894460">
	<ele>2505.40</ele>
	<time>2023-08-06T10:10:05.000Z</time>
</trkpt>
<trkpt lat="46.0653630" lon="10.4894470">
	<ele>2505.60</ele>
	<time>2023-08-06T10:10:06.000Z</time>
</trkpt>
<trkpt lat="46.0653670" lon="10.4894420">
	<ele>2505.80</ele>
	<time>2023-08-06T10:10:07.000Z</time>
</trkpt>
<trkpt lat="46.0653680" lon="10.4894420">
	<ele>2505.80</ele>
	<time>2023-08-06T10:10:08.000Z</time>
</trkpt>
<trkpt lat="46.0653720" lon="10.4894440">
	<ele>2506.20</ele>
	<time>2023-08-06T10:10:09.000Z</time>
</trkpt>
<trkpt lat="46.0653750" lon="10.4894440">
	<ele>2506.40</ele>
	<time>2023-08-06T10:10:10.000Z</time>
</trkpt>
<trkpt lat="46.0653810" lon="10.4894290">
	<ele>2506.60</ele>
	<time>2023-08-06T10:10:11.000Z</time>
</trkpt>
<trkpt lat="46.0653840" lon="10.4894250">
	<ele>2506.80</ele>
	<time>2023-08-06T10:10:12.000Z</time>
</trkpt>
<trkpt lat="46.0653880" lon="10.4894250">
	<ele>2507.00</ele>
	<time>2023-08-06T10:10:13.000Z</time>
</trkpt>
<trkpt lat="46.0653900" lon="10.4894290">
	<ele>2507.40</ele>
	<time>2023-08-06T10:10:14.000Z</time>
</trkpt>
<trkpt lat="46.0653910" lon="10.4894320">
	<ele>2507.60</ele>
	<time>2023-08-06T10:10:15.000Z</time>
</trkpt>
<trkpt lat="46.0653920" lon="10.4894510">
	<ele>2507.80</ele>
	<time>2023-08-06T10:10:16.000Z</time>
</trkpt>
<trkpt lat="46.0653970" lon="10.4894640">
	<ele>2507.80</ele>
	<time>2023-08-06T10:10:17.000Z</time>
</trkpt>
<trkpt lat="46.0654050" lon="10.4894750">
	<ele>2508.00</ele>
	<time>2023-08-06T10:10:18.000Z</time>
</trkpt>
<trkpt lat="46.0654110" lon="10.4894790">
	<ele>2508.20</ele>
	<time>2023-08-06T10:10:19.000Z</time>
</trkpt>
<trkpt lat="46.0654190" lon="10.4894840">
	<ele>2508.20</ele>
	<time>2023-08-06T10:10:20.000Z</time>
</trkpt>
<trkpt lat="46.0654240" lon="10.4894870">
	<ele>2508.20</ele>
	<time>2023-08-06T10:10:21.000Z</time>
</trkpt>
<trkpt lat="46.0654330" lon="10.4894950">
	<ele>2508.20</ele>
	<time>2023-08-06T10:10:22.000Z</time>
</trkpt>
<trkpt lat="46.0654400" lon="10.4894960">
	<ele>2508.40</ele>
	<time>2023-08-06T10:10:23.000Z</time>
</trkpt>
<trkpt lat="46.0654460" lon="10.4894960">
	<ele>2508.40</ele>
	<time>2023-08-06T10:10:24.000Z</time>
</trkpt>
<trkpt lat="46.0654490" lon="10.4894970">
	<ele>2508.60</ele>
	<time>2023-08-06T10:10:25.000Z</time>
</trkpt>
<trkpt lat="46.0654500" lon="10.4894890">
	<ele>2508.60</ele>
	<time>2023-08-06T10:10:26.000Z</time>
</trkpt>
<trkpt lat="46.0654540" lon="10.4894850">
	<ele>2509.00</ele>
	<time>2023-08-06T10:10:27.000Z</time>
</trkpt>
<trkpt lat="46.0654600" lon="10.4894830">
	<ele>2509.20</ele>
	<time>2023-08-06T10:10:28.000Z</time>
</trkpt>
<trkpt lat="46.0654670" lon="10.4894850">
	<ele>2509.60</ele>
	<time>2023-08-06T10:10:29.000Z</time>
</trkpt>
<trkpt lat="46.0654670" lon="10.4894910">
	<ele>2509.80</ele>
	<time>2023-08-06T10:10:30.000Z</time>
</trkpt>
<trkpt lat="46.0654690" lon="10.4894970">
	<ele>2509.80</ele>
	<time>2023-08-06T10:10:31.000Z</time>
</trkpt>
<trkpt lat="46.0654710" lon="10.4895020">
	<ele>2510.00</ele>
	<time>2023-08-06T10:10:32.000Z</time>
</trkpt>
<trkpt lat="46.0654750" lon="10.4895030">
	<ele>2510.00</ele>
	<time>2023-08-06T10:10:33.000Z</time>
</trkpt>
<trkpt lat="46.0654790" lon="10.4895050">
	<ele>2510.20</ele>
	<time>2023-08-06T10:10:34.000Z</time>
</trkpt>
<trkpt lat="46.0654820" lon="10.4895080">
	<ele>2510.20</ele>
	<time>2023-08-06T10:10:35.000Z</time>
</trkpt>
<trkpt lat="46.0654880" lon="10.4895100">
	<ele>2510.40</ele>
	<time>2023-08-06T10:10:36.000Z</time>
</trkpt>
<trkpt lat="46.0654930" lon="10.4895120">
	<ele>2510.40</ele>
	<time>2023-08-06T10:10:37.000Z</time>
</trkpt>
<trkpt lat="46.0654940" lon="10.4895170">
	<ele>2510.40</ele>
	<time>2023-08-06T10:10:38.000Z</time>
</trkpt>
<trkpt lat="46.0654960" lon="10.4895220">
	<ele>2510.60</ele>
	<time>2023-08-06T10:10:39.000Z</time>
</trkpt>
<trkpt lat="46.0654980" lon="10.4895340">
	<ele>2510.60</ele>
	<time>2023-08-06T10:10:40.000Z</time>
</trkpt>
<trkpt lat="46.0655000" lon="10.4895360">
	<ele>2510.80</ele>
	<time>2023-08-06T10:10:41.000Z</time>
</trkpt>
<trkpt lat="46.0655020" lon="10.4895370">
	<ele>2510.80</ele>
	<time>2023-08-06T10:10:42.000Z</time>
</trkpt>
<trkpt lat="46.0655040" lon="10.4895350">
	<ele>2511.00</ele>
	<time>2023-08-06T10:10:43.000Z</time>
</trkpt>
<trkpt lat="46.0655090" lon="10.4895300">
	<ele>2511.20</ele>
	<time>2023-08-06T10:10:44.000Z</time>
</trkpt>
<trkpt lat="46.0655130" lon="10.4895280">
	<ele>2511.40</ele>
	<time>2023-08-06T10:10:45.000Z</time>
</trkpt>
<trkpt lat="46.0655140" lon="10.4895300">
	<ele>2511.60</ele>
	<time>2023-08-06T10:10:46.000Z</time>
</trkpt>
<trkpt lat="46.0655170" lon="10.4895330">
	<ele>2512.00</ele>
	<time>2023-08-06T10:10:47.000Z</time>
</trkpt>
<trkpt lat="46.0655190" lon="10.4895350">
	<ele>2512.00</ele>
	<time>2023-08-06T10:10:48.000Z</time>
</trkpt>
<trkpt lat="46.0655220" lon="10.4895380">
	<ele>2512.40</ele>
	<time>2023-08-06T10:10:49.000Z</time>
</trkpt>
<trkpt lat="46.0655240" lon="10.4895420">
	<ele>2512.60</ele>
	<time>2023-08-06T10:10:50.000Z</time>
</trkpt>
<trkpt lat="46.0655250" lon="10.4895440">
	<ele>2512.80</ele>
	<time>2023-08-06T10:10:51.000Z</time>
</trkpt>
<trkpt lat="46.0655270" lon="10.4895460">
	<ele>2513.00</ele>
	<time>2023-08-06T10:10:52.000Z</time>
</trkpt>
<trkpt lat="46.0655330" lon="10.4895490">
	<ele>2513.20</ele>
	<time>2023-08-06T10:10:53.000Z</time>
</trkpt>
<trkpt lat="46.0655330" lon="10.4895510">
	<ele>2513.20</ele>
	<time>2023-08-06T10:10:54.000Z</time>
</trkpt>
<trkpt lat="46.0655320" lon="10.4895530">
	<ele>2513.40</ele>
	<time>2023-08-06T10:10:55.000Z</time>
</trkpt>
<trkpt lat="46.0655330" lon="10.4895550">
	<ele>2513.60</ele>
	<time>2023-08-06T10:10:56.000Z</time>
</trkpt>
<trkpt lat="46.0655350" lon="10.4895570">
	<ele>2513.80</ele>
	<time>2023-08-06T10:10:57.000Z</time>
</trkpt>
<trkpt lat="46.0655380" lon="10.4895620">
	<ele>2514.00</ele>
	<time>2023-08-06T10:10:58.000Z</time>
</trkpt>
<trkpt lat="46.0655400" lon="10.4895650">
	<ele>2514.20</ele>
	<time>2023-08-06T10:10:59.000Z</time>
</trkpt>
<trkpt lat="46.0655450" lon="10.4895710">
	<ele>2514.20</ele>
	<time>2023-08-06T10:11:00.000Z</time>
</trkpt>
<trkpt lat="46.0655450" lon="10.4895780">
	<ele>2514.40</ele>
	<time>2023-08-06T10:11:01.000Z</time>
</trkpt>
<trkpt lat="46.0655450" lon="10.4895830">
	<ele>2514.60</ele>
	<time>2023-08-06T10:11:02.000Z</time>
</trkpt>
<trkpt lat="46.0655420" lon="10.4895870">
	<ele>2514.80</ele>
	<time>2023-08-06T10:11:03.000Z</time>
</trkpt>
<trkpt lat="46.0655410" lon="10.4895910">
	<ele>2514.80</ele>
	<time>2023-08-06T10:11:04.000Z</time>
</trkpt>
<trkpt lat="46.0655410" lon="10.4895940">
	<ele>2515.00</ele>
	<time>2023-08-06T10:11:05.000Z</time>
</trkpt>
<trkpt lat="46.0655410" lon="10.4895940">
	<ele>2515.00</ele>
	<time>2023-08-06T10:11:06.000Z</time>
</trkpt>
<trkpt lat="46.0655430" lon="10.4895890">
	<ele>2515.00</ele>
	<time>2023-08-06T10:11:07.000Z</time>
</trkpt>
<trkpt lat="46.0655440" lon="10.4895860">
	<ele>2515.00</ele>
	<time>2023-08-06T10:11:08.000Z</time>
</trkpt>
<trkpt lat="46.0655440" lon="10.4895850">
	<ele>2515.20</ele>
	<time>2023-08-06T10:11:09.000Z</time>
</trkpt>
<trkpt lat="46.0655440" lon="10.4895850">
	<ele>2515.20</ele>
	<time>2023-08-06T10:11:10.000Z</time>
</trkpt>
<trkpt lat="46.0655440" lon="10.4895850">
	<ele>2515.20</ele>
	<time>2023-08-06T10:11:11.000Z</time>
</trkpt>
<trkpt lat="46.0655440" lon="10.4895850">
	<ele>2515.40</ele>
	<time>2023-08-06T10:11:12.000Z</time>
</trkpt>
<trkpt lat="46.0655440" lon="10.4895850">
	<ele>2515.60</ele>
	<time>2023-08-06T10:11:13.000Z</time>
</trkpt>
<trkpt lat="46.0655440" lon="10.4895850">
	<ele>2515.60</ele>
	<time>2023-08-06T10:11:14.000Z</time>
</trkpt>
<trkpt lat="46.0655440" lon="10.4895850">
	<ele>2515.60</ele>
	<time>2023-08-06T10:11:15.000Z</time>
</trkpt>
<trkpt lat="46.0655440" lon="10.4895850">
	<ele>2515.60</ele>
	<time>2023-08-06T10:11:16.000Z</time>
</trkpt>
<trkpt lat="46.0655440" lon="10.4895850">
	<ele>2515.60</ele>
	<time>2023-08-06T10:11:17.000Z</time>
</trkpt>
<trkpt lat="46.0655440" lon="10.4895850">
	<ele>2515.60</ele>
	<time>2023-08-06T10:11:18.000Z</time>
</trkpt>
<trkpt lat="46.0655440" lon="10.4895850">
	<ele>2515.60</ele>
	<time>2023-08-06T10:11:19.000Z</time>
</trkpt>
<trkpt lat="46.0655430" lon="10.4895850">
	<ele>2515.60</ele>
	<time>2023-08-06T10:11:20.000Z</time>
</trkpt>
<trkpt lat="46.0655430" lon="10.4895850">
	<ele>2515.60</ele>
	<time>2023-08-06T10:11:21.000Z</time>
</trkpt>
<trkpt lat="46.0655430" lon="10.4895850">
	<ele>2515.60</ele>
	<time>2023-08-06T10:11:22.000Z</time>
</trkpt>
<trkpt lat="46.0655430" lon="10.4895850">
	<ele>2515.80</ele>
	<time>2023-08-06T10:11:23.000Z</time>
</trkpt>
<trkpt lat="46.0655430" lon="10.4895850">
	<ele>2515.80</ele>
	<time>2023-08-06T10:11:24.000Z</time>
</trkpt>
<trkpt lat="46.0655430" lon="10.4895850">
	<ele>2515.60</ele>
	<time>2023-08-06T10:11:25.000Z</time>
</trkpt>
<trkpt lat="46.0655430" lon="10.4895860">
	<ele>2515.60</ele>
	<time>2023-08-06T10:11:26.000Z</time>
</trkpt>
<trkpt lat="46.0655430" lon="10.4895860">
	<ele>2515.40</ele>
	<time>2023-08-06T10:11:27.000Z</time>
</trkpt>
<trkpt lat="46.0655430" lon="10.4895870">
	<ele>2515.40</ele>
	<time>2023-08-06T10:11:28.000Z</time>
</trkpt>
<trkpt lat="46.0655420" lon="10.4895870">
	<ele>2515.40</ele>
	<time>2023-08-06T10:11:29.000Z</time>
</trkpt>
<trkpt lat="46.0655420" lon="10.4895870">
	<ele>2515.40</ele>
	<time>2023-08-06T10:11:30.000Z</time>
</trkpt>
<trkpt lat="46.0655420" lon="10.4895870">
	<ele>2515.40</ele>
	<time>2023-08-06T10:11:31.000Z</time>
</trkpt>
<trkpt lat="46.0655420" lon="10.4895870">
	<ele>2515.40</ele>
	<time>2023-08-06T10:11:32.000Z</time>
</trkpt>
<trkpt lat="46.0655420" lon="10.4895870">
	<ele>2515.40</ele>
	<time>2023-08-06T10:11:33.000Z</time>
</trkpt>
<trkpt lat="46.0655420" lon="10.4895870">
	<ele>2515.40</ele>
	<time>2023-08-06T10:11:34.000Z</time>
</trkpt>
<trkpt lat="46.0655420" lon="10.4895870">
	<ele>2515.40</ele>
	<time>2023-08-06T10:11:35.000Z</time>
</trkpt>
<trkpt lat="46.0655420" lon="10.4895870">
	<ele>2515.40</ele>
	<time>2023-08-06T10:11:36.000Z</time>
</trkpt>
<trkpt lat="46.0655400" lon="10.4895870">
	<ele>2515.40</ele>
	<time>2023-08-06T10:11:37.000Z</time>
</trkpt>
<trkpt lat="46.0655330" lon="10.4895880">
	<ele>2515.40</ele>
	<time>2023-08-06T10:11:38.000Z</time>
</trkpt>
<trkpt lat="46.0655280" lon="10.4895880">
	<ele>2515.40</ele>
	<time>2023-08-06T10:11:39.000Z</time>
</trkpt>
<trkpt lat="46.0655260" lon="10.4895880">
	<ele>2515.40</ele>
	<time>2023-08-06T10:11:40.000Z</time>
</trkpt>
<trkpt lat="46.0655260" lon="10.4895880">
	<ele>2515.40</ele>
	<time>2023-08-06T10:11:41.000Z</time>
</trkpt>
<trkpt lat="46.0655260" lon="10.4895880">
	<ele>2515.20</ele>
	<time>2023-08-06T10:11:42.000Z</time>
</trkpt>
<trkpt lat="46.0655260" lon="10.4895890">
	<ele>2515.20</ele>
	<time>2023-08-06T10:11:43.000Z</time>
</trkpt>
<trkpt lat="46.0655260" lon="10.4895890">
	<ele>2515.20</ele>
	<time>2023-08-06T10:11:44.000Z</time>
</trkpt>
<trkpt lat="46.0655260" lon="10.4895890">
	<ele>2515.20</ele>
	<time>2023-08-06T10:11:45.000Z</time>
</trkpt>
<trkpt lat="46.0655260" lon="10.4895890">
	<ele>2515.20</ele>
	<time>2023-08-06T10:11:46.000Z</time>
</trkpt>
<trkpt lat="46.0655260" lon="10.4895890">
	<ele>2515.40</ele>
	<time>2023-08-06T10:11:47.000Z</time>
</trkpt>
<trkpt lat="46.0655260" lon="10.4895890">
	<ele>2515.40</ele>
	<time>2023-08-06T10:11:48.000Z</time>
</trkpt>
<trkpt lat="46.0655260" lon="10.4895890">
	<ele>2515.20</ele>
	<time>2023-08-06T10:11:49.000Z</time>
</trkpt>
<trkpt lat="46.0655260" lon="10.4895890">
	<ele>2515.00</ele>
	<time>2023-08-06T10:11:50.000Z</time>
</trkpt>
<trkpt lat="46.0655260" lon="10.4895890">
	<ele>2515.00</ele>
	<time>2023-08-06T10:11:51.000Z</time>
</trkpt>
<trkpt lat="46.0655260" lon="10.4895890">
	<ele>2514.80</ele>
	<time>2023-08-06T10:11:52.000Z</time>
</trkpt>
<trkpt lat="46.0655250" lon="10.4895890">
	<ele>2514.80</ele>
	<time>2023-08-06T10:11:53.000Z</time>
</trkpt>
<trkpt lat="46.0655250" lon="10.4895890">
	<ele>2514.80</ele>
	<time>2023-08-06T10:11:54.000Z</time>
</trkpt>
<trkpt lat="46.0655250" lon="10.4895890">
	<ele>2514.80</ele>
	<time>2023-08-06T10:11:55.000Z</time>
</trkpt>
<trkpt lat="46.0655250" lon="10.4895890">
	<ele>2514.80</ele>
	<time>2023-08-06T10:11:56.000Z</time>
</trkpt>
<trkpt lat="46.0655260" lon="10.4895890">
	<ele>2514.80</ele>
	<time>2023-08-06T10:11:57.000Z</time>
</trkpt>
<trkpt lat="46.0655260" lon="10.4895890">
	<ele>2514.80</ele>
	<time>2023-08-06T10:11:58.000Z</time>
</trkpt>
<trkpt lat="46.0655270" lon="10.4895890">
	<ele>2514.60</ele>
	<time>2023-08-06T10:11:59.000Z</time>
</trkpt>
<trkpt lat="46.0655270" lon="10.4895890">
	<ele>2514.60</ele>
	<time>2023-08-06T10:12:00.000Z</time>
</trkpt>
<trkpt lat="46.0655270" lon="10.4895890">
	<ele>2514.60</ele>
	<time>2023-08-06T10:12:01.000Z</time>
</trkpt>
<trkpt lat="46.0655280" lon="10.4895890">
	<ele>2514.60</ele>
	<time>2023-08-06T10:12:02.000Z</time>
</trkpt>
<trkpt lat="46.0655290" lon="10.4895900">
	<ele>2514.60</ele>
	<time>2023-08-06T10:12:03.000Z</time>
</trkpt>
<trkpt lat="46.0655290" lon="10.4895900">
	<ele>2514.40</ele>
	<time>2023-08-06T10:12:04.000Z</time>
</trkpt>
<trkpt lat="46.0655290" lon="10.4895900">
	<ele>2514.40</ele>
	<time>2023-08-06T10:12:05.000Z</time>
</trkpt>
<trkpt lat="46.0655290" lon="10.4895900">
	<ele>2514.20</ele>
	<time>2023-08-06T10:12:06.000Z</time>
</trkpt>
<trkpt lat="46.0655320" lon="10.4895990">
	<ele>2514.00</ele>
	<time>2023-08-06T10:12:07.000Z</time>
</trkpt>
<trkpt lat="46.0655420" lon="10.4896160">
	<ele>2514.00</ele>
	<time>2023-08-06T10:12:08.000Z</time>
</trkpt>
<trkpt lat="46.0655520" lon="10.4896330">
	<ele>2514.00</ele>
	<time>2023-08-06T10:12:09.000Z</time>
</trkpt>
<trkpt lat="46.0655610" lon="10.4896470">
	<ele>2514.00</ele>
	<time>2023-08-06T10:12:10.000Z</time>
</trkpt>
<trkpt lat="46.0655690" lon="10.4896630">
	<ele>2514.00</ele>
	<time>2023-08-06T10:12:11.000Z</time>
</trkpt>
<trkpt lat="46.0655760" lon="10.4896780">
	<ele>2514.00</ele>
	<time>2023-08-06T10:12:12.000Z</time>
</trkpt>
<trkpt lat="46.0655830" lon="10.4896990">
	<ele>2514.00</ele>
	<time>2023-08-06T10:12:13.000Z</time>
</trkpt>
<trkpt lat="46.0655880" lon="10.4897190">
	<ele>2513.80</ele>
	<time>2023-08-06T10:12:14.000Z</time>
</trkpt>
<trkpt lat="46.0655940" lon="10.4897380">
	<ele>2513.80</ele>
	<time>2023-08-06T10:12:15.000Z</time>
</trkpt>
<trkpt lat="46.0655980" lon="10.4897590">
	<ele>2513.60</ele>
	<time>2023-08-06T10:12:16.000Z</time>
</trkpt>
<trkpt lat="46.0656050" lon="10.4897680">
	<ele>2513.60</ele>
	<time>2023-08-06T10:12:17.000Z</time>
</trkpt>
<trkpt lat="46.0656120" lon="10.4897740">
	<ele>2513.60</ele>
	<time>2023-08-06T10:12:18.000Z</time>
</trkpt>
<trkpt lat="46.0656180" lon="10.4897820">
	<ele>2513.60</ele>
	<time>2023-08-06T10:12:19.000Z</time>
</trkpt>
<trkpt lat="46.0656200" lon="10.4897880">
	<ele>2513.60</ele>
	<time>2023-08-06T10:12:20.000Z</time>
</trkpt>
<trkpt lat="46.0656220" lon="10.4897890">
	<ele>2513.60</ele>
	<time>2023-08-06T10:12:21.000Z</time>
</trkpt>
<trkpt lat="46.0656240" lon="10.4897910">
	<ele>2513.60</ele>
	<time>2023-08-06T10:12:22.000Z</time>
</trkpt>
<trkpt lat="46.0656240" lon="10.4897920">
	<ele>2513.40</ele>
	<time>2023-08-06T10:12:23.000Z</time>
</trkpt>
<trkpt lat="46.0656250" lon="10.4897920">
	<ele>2513.40</ele>
	<time>2023-08-06T10:12:24.000Z</time>
</trkpt>
<trkpt lat="46.0656270" lon="10.4897940">
	<ele>2513.40</ele>
	<time>2023-08-06T10:12:25.000Z</time>
</trkpt>
<trkpt lat="46.0656280" lon="10.4897970">
	<ele>2513.40</ele>
	<time>2023-08-06T10:12:26.000Z</time>
</trkpt>
<trkpt lat="46.0656290" lon="10.4898010">
	<ele>2513.40</ele>
	<time>2023-08-06T10:12:27.000Z</time>
</trkpt>
<trkpt lat="46.0656290" lon="10.4898040">
	<ele>2513.40</ele>
	<time>2023-08-06T10:12:28.000Z</time>
</trkpt>
<trkpt lat="46.0656290" lon="10.4898070">
	<ele>2513.40</ele>
	<time>2023-08-06T10:12:29.000Z</time>
</trkpt>
<trkpt lat="46.0656290" lon="10.4898090">
	<ele>2513.20</ele>
	<time>2023-08-06T10:12:30.000Z</time>
</trkpt>
<trkpt lat="46.0656290" lon="10.4898100">
	<ele>2513.20</ele>
	<time>2023-08-06T10:12:31.000Z</time>
</trkpt>
<trkpt lat="46.0656290" lon="10.4898100">
	<ele>2513.20</ele>
	<time>2023-08-06T10:12:32.000Z</time>
</trkpt>
<trkpt lat="46.0656290" lon="10.4898100">
	<ele>2513.20</ele>
	<time>2023-08-06T10:12:33.000Z</time>
</trkpt>
<trkpt lat="46.0656290" lon="10.4898100">
	<ele>2513.00</ele>
	<time>2023-08-06T10:12:34.000Z</time>
</trkpt>
<trkpt lat="46.0656290" lon="10.4898100">
	<ele>2513.00</ele>
	<time>2023-08-06T10:12:35.000Z</time>
</trkpt>
<trkpt lat="46.0656290" lon="10.4898100">
	<ele>2513.00</ele>
	<time>2023-08-06T10:12:36.000Z</time>
</trkpt>
<trkpt lat="46.0656290" lon="10.4898100">
	<ele>2513.00</ele>
	<time>2023-08-06T10:12:37.000Z</time>
</trkpt>
<trkpt lat="46.0656290" lon="10.4898100">
	<ele>2512.80</ele>
	<time>2023-08-06T10:12:38.000Z</time>
</trkpt>
<trkpt lat="46.0656290" lon="10.4898100">
	<ele>2512.60</ele>
	<time>2023-08-06T10:12:39.000Z</time>
</trkpt>
<trkpt lat="46.0656290" lon="10.4898100">
	<ele>2512.60</ele>
	<time>2023-08-06T10:12:40.000Z</time>
</trkpt>
<trkpt lat="46.0656290" lon="10.4898100">
	<ele>2512.60</ele>
	<time>2023-08-06T10:12:41.000Z</time>
</trkpt>
<trkpt lat="46.0656290" lon="10.4898100">
	<ele>2512.40</ele>
	<time>2023-08-06T10:12:42.000Z</time>
</trkpt>
<trkpt lat="46.0656290" lon="10.4898100">
	<ele>2512.40</ele>
	<time>2023-08-06T10:12:43.000Z</time>
</trkpt>
<trkpt lat="46.0656290" lon="10.4898090">
	<ele>2512.40</ele>
	<time>2023-08-06T10:12:44.000Z</time>
</trkpt>
<trkpt lat="46.0656290" lon="10.4898090">
	<ele>2512.40</ele>
	<time>2023-08-06T10:12:45.000Z</time>
</trkpt>
<trkpt lat="46.0656290" lon="10.4898080">
	<ele>2512.40</ele>
	<time>2023-08-06T10:12:46.000Z</time>
</trkpt>
<trkpt lat="46.0656290" lon="10.4898070">
	<ele>2512.40</ele>
	<time>2023-08-06T10:12:47.000Z</time>
</trkpt>
<trkpt lat="46.0656290" lon="10.4898070">
	<ele>2512.20</ele>
	<time>2023-08-06T10:12:48.000Z</time>
</trkpt>
<trkpt lat="46.0656290" lon="10.4898070">
	<ele>2512.00</ele>
	<time>2023-08-06T10:12:49.000Z</time>
</trkpt>
<trkpt lat="46.0656290" lon="10.4898070">
	<ele>2511.80</ele>
	<time>2023-08-06T10:12:50.000Z</time>
</trkpt>
<trkpt lat="46.0656290" lon="10.4898070">
	<ele>2511.60</ele>
	<time>2023-08-06T10:12:51.000Z</time>
</trkpt>
<trkpt lat="46.0656290" lon="10.4898050">
	<ele>2511.60</ele>
	<time>2023-08-06T10:12:52.000Z</time>
</trkpt>
<trkpt lat="46.0656290" lon="10.4898050">
	<ele>2511.40</ele>
	<time>2023-08-06T10:12:53.000Z</time>
</trkpt>
<trkpt lat="46.0656290" lon="10.4898050">
	<ele>2511.40</ele>
	<time>2023-08-06T10:12:54.000Z</time>
</trkpt>
<trkpt lat="46.0656290" lon="10.4898050">
	<ele>2511.20</ele>
	<time>2023-08-06T10:12:55.000Z</time>
</trkpt>
<trkpt lat="46.0656290" lon="10.4898050">
	<ele>2511.20</ele>
	<time>2023-08-06T10:12:56.000Z</time>
</trkpt>
<trkpt lat="46.0656290" lon="10.4898050">
	<ele>2511.20</ele>
	<time>2023-08-06T10:12:57.000Z</time>
</trkpt>
<trkpt lat="46.0656290" lon="10.4898050">
	<ele>2511.20</ele>
	<time>2023-08-06T10:12:58.000Z</time>
</trkpt>
<trkpt lat="46.0656290" lon="10.4898030">
	<ele>2511.20</ele>
	<time>2023-08-06T10:12:59.000Z</time>
</trkpt>
<trkpt lat="46.0656290" lon="10.4898030">
	<ele>2511.00</ele>
	<time>2023-08-06T10:13:00.000Z</time>
</trkpt>
<trkpt lat="46.0656290" lon="10.4898030">
	<ele>2511.00</ele>
	<time>2023-08-06T10:13:01.000Z</time>
</trkpt>
<trkpt lat="46.0656290" lon="10.4898030">
	<ele>2511.00</ele>
	<time>2023-08-06T10:13:02.000Z</time>
</trkpt>
<trkpt lat="46.0656290" lon="10.4898030">
	<ele>2511.00</ele>
	<time>2023-08-06T10:13:03.000Z</time>
</trkpt>
<trkpt lat="46.0656300" lon="10.4898030">
	<ele>2511.00</ele>
	<time>2023-08-06T10:13:04.000Z</time>
</trkpt>
<trkpt lat="46.0656300" lon="10.4898030">
	<ele>2510.80</ele>
	<time>2023-08-06T10:13:05.000Z</time>
</trkpt>
<trkpt lat="46.0656300" lon="10.4898030">
	<ele>2510.80</ele>
	<time>2023-08-06T10:13:06.000Z</time>
</trkpt>
<trkpt lat="46.0656300" lon="10.4898030">
	<ele>2510.80</ele>
	<time>2023-08-06T10:13:07.000Z</time>
</trkpt>
<trkpt lat="46.0656300" lon="10.4898030">
	<ele>2510.80</ele>
	<time>2023-08-06T10:13:08.000Z</time>
</trkpt>
<trkpt lat="46.0656300" lon="10.4898030">
	<ele>2510.80</ele>
	<time>2023-08-06T10:13:09.000Z</time>
</trkpt>
<trkpt lat="46.0656300" lon="10.4898030">
	<ele>2510.80</ele>
	<time>2023-08-06T10:13:10.000Z</time>
</trkpt>
<trkpt lat="46.0656310" lon="10.4898030">
	<ele>2510.80</ele>
	<time>2023-08-06T10:13:11.000Z</time>
</trkpt>
<trkpt lat="46.0656310" lon="10.4898030">
	<ele>2510.80</ele>
	<time>2023-08-06T10:13:12.000Z</time>
</trkpt>
<trkpt lat="46.0656350" lon="10.4898030">
	<ele>2510.60</ele>
	<time>2023-08-06T10:13:13.000Z</time>
</trkpt>
<trkpt lat="46.0656360" lon="10.4898030">
	<ele>2510.60</ele>
	<time>2023-08-06T10:13:14.000Z</time>
</trkpt>
<trkpt lat="46.0656390" lon="10.4898030">
	<ele>2510.60</ele>
	<time>2023-08-06T10:13:15.000Z</time>
</trkpt>
<trkpt lat="46.0656410" lon="10.4898040">
	<ele>2510.60</ele>
	<time>2023-08-06T10:13:16.000Z</time>
</trkpt>
<trkpt lat="46.0656430" lon="10.4898120">
	<ele>2510.60</ele>
	<time>2023-08-06T10:13:17.000Z</time>
</trkpt>
<trkpt lat="46.0656470" lon="10.4898190">
	<ele>2510.60</ele>
	<time>2023-08-06T10:13:18.000Z</time>
</trkpt>
<trkpt lat="46.0656530" lon="10.4898250">
	<ele>2510.60</ele>
	<time>2023-08-06T10:13:19.000Z</time>
</trkpt>
<trkpt lat="46.0656580" lon="10.4898290">
	<ele>2510.40</ele>
	<time>2023-08-06T10:13:20.000Z</time>
</trkpt>
<trkpt lat="46.0656640" lon="10.4898300">
	<ele>2510.40</ele>
	<time>2023-08-06T10:13:21.000Z</time>
</trkpt>
<trkpt lat="46.0656710" lon="10.4898340">
	<ele>2510.20</ele>
	<time>2023-08-06T10:13:22.000Z</time>
</trkpt>
<trkpt lat="46.0656750" lon="10.4898420">
	<ele>2510.20</ele>
	<time>2023-08-06T10:13:23.000Z</time>
</trkpt>
<trkpt lat="46.0656780" lon="10.4898500">
	<ele>2510.00</ele>
	<time>2023-08-06T10:13:24.000Z</time>
</trkpt>
<trkpt lat="46.0656810" lon="10.4898590">
	<ele>2510.00</ele>
	<time>2023-08-06T10:13:25.000Z</time>
</trkpt>
<trkpt lat="46.0656820" lon="10.4898650">
	<ele>2510.00</ele>
	<time>2023-08-06T10:13:26.000Z</time>
</trkpt>
<trkpt lat="46.0656840" lon="10.4898680">
	<ele>2510.00</ele>
	<time>2023-08-06T10:13:27.000Z</time>
</trkpt>
<trkpt lat="46.0656850" lon="10.4898710">
	<ele>2510.00</ele>
	<time>2023-08-06T10:13:28.000Z</time>
</trkpt>
<trkpt lat="46.0656850" lon="10.4898740">
	<ele>2510.00</ele>
	<time>2023-08-06T10:13:29.000Z</time>
</trkpt>
<trkpt lat="46.0656860" lon="10.4898770">
	<ele>2509.80</ele>
	<time>2023-08-06T10:13:30.000Z</time>
</trkpt>
<trkpt lat="46.0656870" lon="10.4898780">
	<ele>2510.00</ele>
	<time>2023-08-06T10:13:31.000Z</time>
</trkpt>
<trkpt lat="46.0656870" lon="10.4898810">
	<ele>2510.00</ele>
	<time>2023-08-06T10:13:32.000Z</time>
</trkpt>
<trkpt lat="46.0656870" lon="10.4898840">
	<ele>2510.00</ele>
	<time>2023-08-06T10:13:33.000Z</time>
</trkpt>
<trkpt lat="46.0656870" lon="10.4898870">
	<ele>2510.00</ele>
	<time>2023-08-06T10:13:34.000Z</time>
</trkpt>
<trkpt lat="46.0656880" lon="10.4898900">
	<ele>2510.20</ele>
	<time>2023-08-06T10:13:35.000Z</time>
</trkpt>
<trkpt lat="46.0656880" lon="10.4898930">
	<ele>2510.20</ele>
	<time>2023-08-06T10:13:36.000Z</time>
</trkpt>
<trkpt lat="46.0656880" lon="10.4898960">
	<ele>2510.20</ele>
	<time>2023-08-06T10:13:37.000Z</time>
</trkpt>
<trkpt lat="46.0656880" lon="10.4898990">
	<ele>2510.20</ele>
	<time>2023-08-06T10:13:38.000Z</time>
</trkpt>
<trkpt lat="46.0656880" lon="10.4899040">
	<ele>2510.20</ele>
	<time>2023-08-06T10:13:39.000Z</time>
</trkpt>
<trkpt lat="46.0656890" lon="10.4899080">
	<ele>2510.20</ele>
	<time>2023-08-06T10:13:40.000Z</time>
</trkpt>
<trkpt lat="46.0656890" lon="10.4899110">
	<ele>2510.20</ele>
	<time>2023-08-06T10:13:41.000Z</time>
</trkpt>
<trkpt lat="46.0656890" lon="10.4899160">
	<ele>2510.00</ele>
	<time>2023-08-06T10:13:42.000Z</time>
</trkpt>
<trkpt lat="46.0656910" lon="10.4899200">
	<ele>2509.80</ele>
	<time>2023-08-06T10:13:43.000Z</time>
</trkpt>
<trkpt lat="46.0656940" lon="10.4899250">
	<ele>2509.80</ele>
	<time>2023-08-06T10:13:44.000Z</time>
</trkpt>
<trkpt lat="46.0656960" lon="10.4899310">
	<ele>2509.80</ele>
	<time>2023-08-06T10:13:45.000Z</time>
</trkpt>
<trkpt lat="46.0656970" lon="10.4899360">
	<ele>2509.80</ele>
	<time>2023-08-06T10:13:46.000Z</time>
</trkpt>
<trkpt lat="46.0656970" lon="10.4899400">
	<ele>2509.80</ele>
	<time>2023-08-06T10:13:47.000Z</time>
</trkpt>
<trkpt lat="46.0656990" lon="10.4899440">
	<ele>2509.80</ele>
	<time>2023-08-06T10:13:48.000Z</time>
</trkpt>
<trkpt lat="46.0657020" lon="10.4899470">
	<ele>2509.80</ele>
	<time>2023-08-06T10:13:49.000Z</time>
</trkpt>
<trkpt lat="46.0657060" lon="10.4899510">
	<ele>2509.80</ele>
	<time>2023-08-06T10:13:50.000Z</time>
</trkpt>
<trkpt lat="46.0657080" lon="10.4899540">
	<ele>2509.60</ele>
	<time>2023-08-06T10:13:51.000Z</time>
</trkpt>
<trkpt lat="46.0657120" lon="10.4899570">
	<ele>2509.60</ele>
	<time>2023-08-06T10:13:52.000Z</time>
</trkpt>
<trkpt lat="46.0657160" lon="10.4899590">
	<ele>2509.60</ele>
	<time>2023-08-06T10:13:53.000Z</time>
</trkpt>
<trkpt lat="46.0657200" lon="10.4899620">
	<ele>2509.60</ele>
	<time>2023-08-06T10:13:54.000Z</time>
</trkpt>
<trkpt lat="46.0657230" lon="10.4899650">
	<ele>2509.60</ele>
	<time>2023-08-06T10:13:55.000Z</time>
</trkpt>
<trkpt lat="46.0657250" lon="10.4899670">
	<ele>2509.60</ele>
	<time>2023-08-06T10:13:56.000Z</time>
</trkpt>
<trkpt lat="46.0657250" lon="10.4899680">
	<ele>2509.60</ele>
	<time>2023-08-06T10:13:57.000Z</time>
</trkpt>
<trkpt lat="46.0657260" lon="10.4899690">
	<ele>2509.60</ele>
	<time>2023-08-06T10:13:58.000Z</time>
</trkpt>
<trkpt lat="46.0657260" lon="10.4899690">
	<ele>2509.60</ele>
	<time>2023-08-06T10:13:59.000Z</time>
</trkpt>
<trkpt lat="46.0657270" lon="10.4899690">
	<ele>2509.40</ele>
	<time>2023-08-06T10:14:00.000Z</time>
</trkpt>
<trkpt lat="46.0657270" lon="10.4899700">
	<ele>2509.40</ele>
	<time>2023-08-06T10:14:01.000Z</time>
</trkpt>
<trkpt lat="46.0657270" lon="10.4899700">
	<ele>2509.20</ele>
	<time>2023-08-06T10:14:02.000Z</time>
</trkpt>
<trkpt lat="46.0657270" lon="10.4899700">
	<ele>2509.20</ele>
	<time>2023-08-06T10:14:03.000Z</time>
</trkpt>
<trkpt lat="46.0657280" lon="10.4899710">
	<ele>2509.00</ele>
	<time>2023-08-06T10:14:04.000Z</time>
</trkpt>
<trkpt lat="46.0657290" lon="10.4899720">
	<ele>2509.00</ele>
	<time>2023-08-06T10:14:05.000Z</time>
</trkpt>
<trkpt lat="46.0657300" lon="10.4899720">
	<ele>2509.00</ele>
	<time>2023-08-06T10:14:06.000Z</time>
</trkpt>
<trkpt lat="46.0657300" lon="10.4899730">
	<ele>2509.00</ele>
	<time>2023-08-06T10:14:07.000Z</time>
</trkpt>
<trkpt lat="46.0657300" lon="10.4899740">
	<ele>2509.00</ele>
	<time>2023-08-06T10:14:08.000Z</time>
</trkpt>
<trkpt lat="46.0657310" lon="10.4899740">
	<ele>2509.00</ele>
	<time>2023-08-06T10:14:09.000Z</time>
</trkpt>
<trkpt lat="46.0657320" lon="10.4899750">
	<ele>2509.00</ele>
	<time>2023-08-06T10:14:10.000Z</time>
</trkpt>
<trkpt lat="46.0657330" lon="10.4899750">
	<ele>2509.00</ele>
	<time>2023-08-06T10:14:11.000Z</time>
</trkpt>
<trkpt lat="46.0657340" lon="10.4899750">
	<ele>2509.00</ele>
	<time>2023-08-06T10:14:12.000Z</time>
</trkpt>
<trkpt lat="46.0657360" lon="10.4899750">
	<ele>2509.00</ele>
	<time>2023-08-06T10:14:13.000Z</time>
</trkpt>
<trkpt lat="46.0657390" lon="10.4899770">
	<ele>2509.20</ele>
	<time>2023-08-06T10:14:14.000Z</time>
</trkpt>
<trkpt lat="46.0657400" lon="10.4899780">
	<ele>2509.40</ele>
	<time>2023-08-06T10:14:15.000Z</time>
</trkpt>
<trkpt lat="46.0657420" lon="10.4899800">
	<ele>2509.60</ele>
	<time>2023-08-06T10:14:16.000Z</time>
</trkpt>
<trkpt lat="46.0657440" lon="10.4899810">
	<ele>2509.60</ele>
	<time>2023-08-06T10:14:17.000Z</time>
</trkpt>
<trkpt lat="46.0657460" lon="10.4899820">
	<ele>2509.80</ele>
	<time>2023-08-06T10:14:18.000Z</time>
</trkpt>
<trkpt lat="46.0657490" lon="10.4899840">
	<ele>2509.80</ele>
	<time>2023-08-06T10:14:19.000Z</time>
</trkpt>
<trkpt lat="46.0657510" lon="10.4899860">
	<ele>2509.80</ele>
	<time>2023-08-06T10:14:20.000Z</time>
</trkpt>
<trkpt lat="46.0657530" lon="10.4899860">
	<ele>2509.60</ele>
	<time>2023-08-06T10:14:21.000Z</time>
</trkpt>
<trkpt lat="46.0657540" lon="10.4899870">
	<ele>2509.40</ele>
	<time>2023-08-06T10:14:22.000Z</time>
</trkpt>
<trkpt lat="46.0657550" lon="10.4899870">
	<ele>2509.20</ele>
	<time>2023-08-06T10:14:23.000Z</time>
</trkpt>
<trkpt lat="46.0657550" lon="10.4899870">
	<ele>2509.20</ele>
	<time>2023-08-06T10:14:24.000Z</time>
</trkpt>
<trkpt lat="46.0657560" lon="10.4899870">
	<ele>2509.00</ele>
	<time>2023-08-06T10:14:25.000Z</time>
</trkpt>
<trkpt lat="46.0657560" lon="10.4899870">
	<ele>2509.00</ele>
	<time>2023-08-06T10:14:26.000Z</time>
</trkpt>
<trkpt lat="46.0657560" lon="10.4899870">
	<ele>2509.00</ele>
	<time>2023-08-06T10:14:27.000Z</time>
</trkpt>
<trkpt lat="46.0657560" lon="10.4899870">
	<ele>2509.00</ele>
	<time>2023-08-06T10:14:28.000Z</time>
</trkpt>
<trkpt lat="46.0657560" lon="10.4899870">
	<ele>2509.00</ele>
	<time>2023-08-06T10:14:29.000Z</time>
</trkpt>
<trkpt lat="46.0657570" lon="10.4899870">
	<ele>2509.00</ele>
	<time>2023-08-06T10:14:30.000Z</time>
</trkpt>
<trkpt lat="46.0657570" lon="10.4899870">
	<ele>2509.00</ele>
	<time>2023-08-06T10:14:31.000Z</time>
</trkpt>
<trkpt lat="46.0657570" lon="10.4899870">
	<ele>2509.00</ele>
	<time>2023-08-06T10:14:32.000Z</time>
</trkpt>
<trkpt lat="46.0657570" lon="10.4899870">
	<ele>2509.00</ele>
	<time>2023-08-06T10:14:33.000Z</time>
</trkpt>
<trkpt lat="46.0657570" lon="10.4899870">
	<ele>2509.00</ele>
	<time>2023-08-06T10:14:34.000Z</time>
</trkpt>
<trkpt lat="46.0657570" lon="10.4899870">
	<ele>2508.80</ele>
	<time>2023-08-06T10:14:35.000Z</time>
</trkpt>
<trkpt lat="46.0657570" lon="10.4899870">
	<ele>2508.60</ele>
	<time>2023-08-06T10:14:36.000Z</time>
</trkpt>
<trkpt lat="46.0657570" lon="10.4899860">
	<ele>2508.40</ele>
	<time>2023-08-06T10:14:37.000Z</time>
</trkpt>
<trkpt lat="46.0657580" lon="10.4899860">
	<ele>2508.20</ele>
	<time>2023-08-06T10:14:38.000Z</time>
</trkpt>
<trkpt lat="46.0657580" lon="10.4899860">
	<ele>2508.00</ele>
	<time>2023-08-06T10:14:39.000Z</time>
</trkpt>
<trkpt lat="46.0657580" lon="10.4899860">
	<ele>2508.00</ele>
	<time>2023-08-06T10:14:40.000Z</time>
</trkpt>
<trkpt lat="46.0657580" lon="10.4899860">
	<ele>2507.80</ele>
	<time>2023-08-06T10:14:41.000Z</time>
</trkpt>
<trkpt lat="46.0657580" lon="10.4899860">
	<ele>2507.60</ele>
	<time>2023-08-06T10:14:42.000Z</time>
</trkpt>
<trkpt lat="46.0657620" lon="10.4899920">
	<ele>2507.60</ele>
	<time>2023-08-06T10:14:43.000Z</time>
</trkpt>
<trkpt lat="46.0657720" lon="10.4900040">
	<ele>2507.40</ele>
	<time>2023-08-06T10:14:44.000Z</time>
</trkpt>
<trkpt lat="46.0657810" lon="10.4900170">
	<ele>2507.40</ele>
	<time>2023-08-06T10:14:45.000Z</time>
</trkpt>
<trkpt lat="46.0657920" lon="10.4900290">
	<ele>2507.40</ele>
	<time>2023-08-06T10:14:46.000Z</time>
</trkpt>
<trkpt lat="46.0658020" lon="10.4900390">
	<ele>2507.40</ele>
	<time>2023-08-06T10:14:47.000Z</time>
</trkpt>
<trkpt lat="46.0658100" lon="10.4900510">
	<ele>2507.40</ele>
	<time>2023-08-06T10:14:48.000Z</time>
</trkpt>
<trkpt lat="46.0658180" lon="10.4900630">
	<ele>2507.80</ele>
	<time>2023-08-06T10:14:49.000Z</time>
</trkpt>
<trkpt lat="46.0658250" lon="10.4900750">
	<ele>2508.00</ele>
	<time>2023-08-06T10:14:50.000Z</time>
</trkpt>
<trkpt lat="46.0658270" lon="10.4900900">
	<ele>2508.00</ele>
	<time>2023-08-06T10:14:51.000Z</time>
</trkpt>
<trkpt lat="46.0658320" lon="10.4901030">
	<ele>2508.20</ele>
	<time>2023-08-06T10:14:52.000Z</time>
</trkpt>
<trkpt lat="46.0658350" lon="10.4901110">
	<ele>2508.40</ele>
	<time>2023-08-06T10:14:53.000Z</time>
</trkpt>
<trkpt lat="46.0658380" lon="10.4901210">
	<ele>2508.60</ele>
	<time>2023-08-06T10:14:54.000Z</time>
</trkpt>
<trkpt lat="46.0658400" lon="10.4901260">
	<ele>2508.80</ele>
	<time>2023-08-06T10:14:55.000Z</time>
</trkpt>
<trkpt lat="46.0658460" lon="10.4901290">
	<ele>2509.00</ele>
	<time>2023-08-06T10:14:56.000Z</time>
</trkpt>
<trkpt lat="46.0658510" lon="10.4901350">
	<ele>2509.00</ele>
	<time>2023-08-06T10:14:57.000Z</time>
</trkpt>
<trkpt lat="46.0658550" lon="10.4901430">
	<ele>2509.20</ele>
	<time>2023-08-06T10:14:58.000Z</time>
</trkpt>
<trkpt lat="46.0658560" lon="10.4901490">
	<ele>2509.40</ele>
	<time>2023-08-06T10:14:59.000Z</time>
</trkpt>
<trkpt lat="46.0658560" lon="10.4901500">
	<ele>2509.60</ele>
	<time>2023-08-06T10:15:00.000Z</time>
</trkpt>
<trkpt lat="46.0658590" lon="10.4901520">
	<ele>2509.80</ele>
	<time>2023-08-06T10:15:01.000Z</time>
</trkpt>
<trkpt lat="46.0658610" lon="10.4901540">
	<ele>2509.80</ele>
	<time>2023-08-06T10:15:02.000Z</time>
</trkpt>
<trkpt lat="46.0658630" lon="10.4901560">
	<ele>2509.80</ele>
	<time>2023-08-06T10:15:03.000Z</time>
</trkpt>
<trkpt lat="46.0658650" lon="10.4901580">
	<ele>2509.80</ele>
	<time>2023-08-06T10:15:04.000Z</time>
</trkpt>
<trkpt lat="46.0658660" lon="10.4901600">
	<ele>2509.80</ele>
	<time>2023-08-06T10:15:05.000Z</time>
</trkpt>
<trkpt lat="46.0658670" lon="10.4901620">
	<ele>2509.80</ele>
	<time>2023-08-06T10:15:06.000Z</time>
</trkpt>
<trkpt lat="46.0658690" lon="10.4901630">
	<ele>2509.80</ele>
	<time>2023-08-06T10:15:07.000Z</time>
</trkpt>
<trkpt lat="46.0658700" lon="10.4901630">
	<ele>2509.80</ele>
	<time>2023-08-06T10:15:08.000Z</time>
</trkpt>
<trkpt lat="46.0658710" lon="10.4901620">
	<ele>2509.80</ele>
	<time>2023-08-06T10:15:09.000Z</time>
</trkpt>
<trkpt lat="46.0658720" lon="10.4901600">
	<ele>2509.80</ele>
	<time>2023-08-06T10:15:10.000Z</time>
</trkpt>
<trkpt lat="46.0658730" lon="10.4901590">
	<ele>2509.80</ele>
	<time>2023-08-06T10:15:11.000Z</time>
</trkpt>
<trkpt lat="46.0658770" lon="10.4901670">
	<ele>2509.80</ele>
	<time>2023-08-06T10:15:12.000Z</time>
</trkpt>
<trkpt lat="46.0658850" lon="10.4901680">
	<ele>2509.80</ele>
	<time>2023-08-06T10:15:13.000Z</time>
</trkpt>
<trkpt lat="46.0658930" lon="10.4901680">
	<ele>2509.80</ele>
	<time>2023-08-06T10:15:14.000Z</time>
</trkpt>
<trkpt lat="46.0659000" lon="10.4901670">
	<ele>2509.80</ele>
	<time>2023-08-06T10:15:15.000Z</time>
</trkpt>
<trkpt lat="46.0659080" lon="10.4901640">
	<ele>2509.80</ele>
	<time>2023-08-06T10:15:16.000Z</time>
</trkpt>
<trkpt lat="46.0659160" lon="10.4901640">
	<ele>2509.80</ele>
	<time>2023-08-06T10:15:17.000Z</time>
</trkpt>
<trkpt lat="46.0659190" lon="10.4901670">
	<ele>2509.80</ele>
	<time>2023-08-06T10:15:18.000Z</time>
</trkpt>
<trkpt lat="46.0659220" lon="10.4901690">
	<ele>2509.80</ele>
	<time>2023-08-06T10:15:19.000Z</time>
</trkpt>
<trkpt lat="46.0659220" lon="10.4901640">
	<ele>2509.80</ele>
	<time>2023-08-06T10:15:20.000Z</time>
</trkpt>
<trkpt lat="46.0659230" lon="10.4901620">
	<ele>2509.80</ele>
	<time>2023-08-06T10:15:21.000Z</time>
</trkpt>
<trkpt lat="46.0659260" lon="10.4901670">
	<ele>2509.80</ele>
	<time>2023-08-06T10:15:22.000Z</time>
</trkpt>
<trkpt lat="46.0659310" lon="10.4901730">
	<ele>2509.80</ele>
	<time>2023-08-06T10:15:23.000Z</time>
</trkpt>
<trkpt lat="46.0659390" lon="10.4901780">
	<ele>2509.80</ele>
	<time>2023-08-06T10:15:24.000Z</time>
</trkpt>
<trkpt lat="46.0659460" lon="10.4901810">
	<ele>2509.80</ele>
	<time>2023-08-06T10:15:25.000Z</time>
</trkpt>
<trkpt lat="46.0659500" lon="10.4901850">
	<ele>2509.80</ele>
	<time>2023-08-06T10:15:26.000Z</time>
</trkpt>
<trkpt lat="46.0659540" lon="10.4901870">
	<ele>2509.80</ele>
	<time>2023-08-06T10:15:27.000Z</time>
</trkpt>
<trkpt lat="46.0659560" lon="10.4901890">
	<ele>2509.80</ele>
	<time>2023-08-06T10:15:28.000Z</time>
</trkpt>
<trkpt lat="46.0659570" lon="10.4901900">
	<ele>2509.80</ele>
	<time>2023-08-06T10:15:29.000Z</time>
</trkpt>
<trkpt lat="46.0659560" lon="10.4901910">
	<ele>2509.80</ele>
	<time>2023-08-06T10:15:30.000Z</time>
</trkpt>
<trkpt lat="46.0659560" lon="10.4901930">
	<ele>2509.80</ele>
	<time>2023-08-06T10:15:31.000Z</time>
</trkpt>
<trkpt lat="46.0659570" lon="10.4901960">
	<ele>2509.80</ele>
	<time>2023-08-06T10:15:32.000Z</time>
</trkpt>
<trkpt lat="46.0659580" lon="10.4902000">
	<ele>2509.80</ele>
	<time>2023-08-06T10:15:33.000Z</time>
</trkpt>
<trkpt lat="46.0659600" lon="10.4902040">
	<ele>2509.80</ele>
	<time>2023-08-06T10:15:34.000Z</time>
</trkpt>
<trkpt lat="46.0659630" lon="10.4902080">
	<ele>2509.80</ele>
	<time>2023-08-06T10:15:35.000Z</time>
</trkpt>
<trkpt lat="46.0659670" lon="10.4902110">
	<ele>2509.80</ele>
	<time>2023-08-06T10:15:36.000Z</time>
</trkpt>
<trkpt lat="46.0659680" lon="10.4902140">
	<ele>2509.80</ele>
	<time>2023-08-06T10:15:37.000Z</time>
</trkpt>
<trkpt lat="46.0659680" lon="10.4902180">
	<ele>2509.80</ele>
	<time>2023-08-06T10:15:38.000Z</time>
</trkpt>
<trkpt lat="46.0659680" lon="10.4902230">
	<ele>2509.80</ele>
	<time>2023-08-06T10:15:39.000Z</time>
</trkpt>
<trkpt lat="46.0659700" lon="10.4902270">
	<ele>2509.80</ele>
	<time>2023-08-06T10:15:40.000Z</time>
</trkpt>
<trkpt lat="46.0659700" lon="10.4902280">
	<ele>2509.80</ele>
	<time>2023-08-06T10:15:41.000Z</time>
</trkpt>
<trkpt lat="46.0659730" lon="10.4902300">
	<ele>2509.80</ele>
	<time>2023-08-06T10:15:42.000Z</time>
</trkpt>
<trkpt lat="46.0659740" lon="10.4902320">
	<ele>2509.80</ele>
	<time>2023-08-06T10:15:43.000Z</time>
</trkpt>
<trkpt lat="46.0659730" lon="10.4902280">
	<ele>2509.80</ele>
	<time>2023-08-06T10:15:44.000Z</time>
</trkpt>
<trkpt lat="46.0659730" lon="10.4902260">
	<ele>2509.80</ele>
	<time>2023-08-06T10:15:45.000Z</time>
</trkpt>
<trkpt lat="46.0659720" lon="10.4902270">
	<ele>2509.80</ele>
	<time>2023-08-06T10:15:46.000Z</time>
</trkpt>
<trkpt lat="46.0659720" lon="10.4902300">
	<ele>2509.80</ele>
	<time>2023-08-06T10:15:47.000Z</time>
</trkpt>
<trkpt lat="46.0659760" lon="10.4902290">
	<ele>2509.80</ele>
	<time>2023-08-06T10:15:48.000Z</time>
</trkpt>
<trkpt lat="46.0659780" lon="10.4902340">
	<ele>2509.80</ele>
	<time>2023-08-06T10:15:49.000Z</time>
</trkpt>
<trkpt lat="46.0659780" lon="10.4902410">
	<ele>2509.80</ele>
	<time>2023-08-06T10:15:50.000Z</time>
</trkpt>
<trkpt lat="46.0659760" lon="10.4902570">
	<ele>2509.80</ele>
	<time>2023-08-06T10:15:51.000Z</time>
</trkpt>
<trkpt lat="46.0659740" lon="10.4902640">
	<ele>2509.80</ele>
	<time>2023-08-06T10:15:52.000Z</time>
</trkpt>
<trkpt lat="46.0659760" lon="10.4902680">
	<ele>2509.80</ele>
	<time>2023-08-06T10:15:53.000Z</time>
</trkpt>
<trkpt lat="46.0659800" lon="10.4902730">
	<ele>2509.80</ele>
	<time>2023-08-06T10:15:54.000Z</time>
</trkpt>
<trkpt lat="46.0659810" lon="10.4902790">
	<ele>2509.80</ele>
	<time>2023-08-06T10:15:55.000Z</time>
</trkpt>
<trkpt lat="46.0659850" lon="10.4902830">
	<ele>2509.80</ele>
	<time>2023-08-06T10:15:56.000Z</time>
</trkpt>
<trkpt lat="46.0659870" lon="10.4902870">
	<ele>2509.80</ele>
	<time>2023-08-06T10:15:57.000Z</time>
</trkpt>
<trkpt lat="46.0659910" lon="10.4902900">
	<ele>2509.80</ele>
	<time>2023-08-06T10:15:58.000Z</time>
</trkpt>
<trkpt lat="46.0659970" lon="10.4902890">
	<ele>2509.80</ele>
	<time>2023-08-06T10:15:59.000Z</time>
</trkpt>
<trkpt lat="46.0660050" lon="10.4902820">
	<ele>2509.80</ele>
	<time>2023-08-06T10:16:00.000Z</time>
</trkpt>
<trkpt lat="46.0660080" lon="10.4902820">
	<ele>2509.80</ele>
	<time>2023-08-06T10:16:01.000Z</time>
</trkpt>
<trkpt lat="46.0660120" lon="10.4902840">
	<ele>2509.80</ele>
	<time>2023-08-06T10:16:02.000Z</time>
</trkpt>
<trkpt lat="46.0660150" lon="10.4902860">
	<ele>2509.80</ele>
	<time>2023-08-06T10:16:03.000Z</time>
</trkpt>
<trkpt lat="46.0660180" lon="10.4902850">
	<ele>2509.80</ele>
	<time>2023-08-06T10:16:04.000Z</time>
</trkpt>
<trkpt lat="46.0660200" lon="10.4902840">
	<ele>2509.80</ele>
	<time>2023-08-06T10:16:05.000Z</time>
</trkpt>
<trkpt lat="46.0660210" lon="10.4902810">
	<ele>2509.80</ele>
	<time>2023-08-06T10:16:06.000Z</time>
</trkpt>
<trkpt lat="46.0660230" lon="10.4902800">
	<ele>2509.80</ele>
	<time>2023-08-06T10:16:07.000Z</time>
</trkpt>
<trkpt lat="46.0660250" lon="10.4902790">
	<ele>2509.80</ele>
	<time>2023-08-06T10:16:08.000Z</time>
</trkpt>
<trkpt lat="46.0660280" lon="10.4902780">
	<ele>2509.80</ele>
	<time>2023-08-06T10:16:09.000Z</time>
</trkpt>
<trkpt lat="46.0660320" lon="10.4902770">
	<ele>2509.80</ele>
	<time>2023-08-06T10:16:10.000Z</time>
</trkpt>
<trkpt lat="46.0660390" lon="10.4902770">
	<ele>2509.80</ele>
	<time>2023-08-06T10:16:11.000Z</time>
</trkpt>
<trkpt lat="46.0660460" lon="10.4902800">
	<ele>2509.80</ele>
	<time>2023-08-06T10:16:12.000Z</time>
</trkpt>
<trkpt lat="46.0660510" lon="10.4902840">
	<ele>2509.80</ele>
	<time>2023-08-06T10:16:13.000Z</time>
</trkpt>
<trkpt lat="46.0660540" lon="10.4902840">
	<ele>2509.80</ele>
	<time>2023-08-06T10:16:14.000Z</time>
</trkpt>
<trkpt lat="46.0660560" lon="10.4902840">
	<ele>2509.80</ele>
	<time>2023-08-06T10:16:15.000Z</time>
</trkpt>
<trkpt lat="46.0660580" lon="10.4902830">
	<ele>2509.80</ele>
	<time>2023-08-06T10:16:16.000Z</time>
</trkpt>
<trkpt lat="46.0660600" lon="10.4902820">
	<ele>2509.80</ele>
	<time>2023-08-06T10:16:17.000Z</time>
</trkpt>
<trkpt lat="46.0660620" lon="10.4902800">
	<ele>2509.80</ele>
	<time>2023-08-06T10:16:18.000Z</time>
</trkpt>
<trkpt lat="46.0660670" lon="10.4902800">
	<ele>2509.80</ele>
	<time>2023-08-06T10:16:19.000Z</time>
</trkpt>
<trkpt lat="46.0660710" lon="10.4902780">
	<ele>2509.80</ele>
	<time>2023-08-06T10:16:20.000Z</time>
</trkpt>
<trkpt lat="46.0660750" lon="10.4902760">
	<ele>2509.80</ele>
	<time>2023-08-06T10:16:21.000Z</time>
</trkpt>
<trkpt lat="46.0660780" lon="10.4902730">
	<ele>2509.80</ele>
	<time>2023-08-06T10:16:22.000Z</time>
</trkpt>
<trkpt lat="46.0660800" lon="10.4902720">
	<ele>2509.80</ele>
	<time>2023-08-06T10:16:23.000Z</time>
</trkpt>
<trkpt lat="46.0660820" lon="10.4902710">
	<ele>2509.80</ele>
	<time>2023-08-06T10:16:24.000Z</time>
</trkpt>
<trkpt lat="46.0660840" lon="10.4902700">
	<ele>2509.80</ele>
	<time>2023-08-06T10:16:25.000Z</time>
</trkpt>
<trkpt lat="46.0660840" lon="10.4902680">
	<ele>2509.80</ele>
	<time>2023-08-06T10:16:26.000Z</time>
</trkpt>
<trkpt lat="46.0660850" lon="10.4902670">
	<ele>2509.80</ele>
	<time>2023-08-06T10:16:27.000Z</time>
</trkpt>
<trkpt lat="46.0660850" lon="10.4902670">
	<ele>2509.80</ele>
	<time>2023-08-06T10:16:28.000Z</time>
</trkpt>
<trkpt lat="46.0660850" lon="10.4902670">
	<ele>2509.80</ele>
	<time>2023-08-06T10:16:29.000Z</time>
</trkpt>
<trkpt lat="46.0660850" lon="10.4902670">
	<ele>2509.80</ele>
	<time>2023-08-06T10:16:30.000Z</time>
</trkpt>
<trkpt lat="46.0660850" lon="10.4902670">
	<ele>2509.80</ele>
	<time>2023-08-06T10:16:31.000Z</time>
</trkpt>
<trkpt lat="46.0660850" lon="10.4902670">
	<ele>2509.80</ele>
	<time>2023-08-06T10:16:32.000Z</time>
</trkpt>
<trkpt lat="46.0660850" lon="10.4902670">
	<ele>2509.80</ele>
	<time>2023-08-06T10:16:33.000Z</time>
</trkpt>
<trkpt lat="46.0660850" lon="10.4902670">
	<ele>2509.80</ele>
	<time>2023-08-06T10:16:34.000Z</time>
</trkpt>
<trkpt lat="46.0660850" lon="10.4902670">
	<ele>2509.80</ele>
	<time>2023-08-06T10:16:35.000Z</time>
</trkpt>
<trkpt lat="46.0660850" lon="10.4902670">
	<ele>2509.80</ele>
	<time>2023-08-06T10:16:36.000Z</time>
</trkpt>
<trkpt lat="46.0660850" lon="10.4902670">
	<ele>2509.80</ele>
	<time>2023-08-06T10:16:37.000Z</time>
</trkpt>
<trkpt lat="46.0660850" lon="10.4902670">
	<ele>2509.80</ele>
	<time>2023-08-06T10:16:38.000Z</time>
</trkpt>
<trkpt lat="46.0660850" lon="10.4902670">
	<ele>2509.80</ele>
	<time>2023-08-06T10:16:39.000Z</time>
</trkpt>
<trkpt lat="46.0660850" lon="10.4902670">
	<ele>2509.80</ele>
	<time>2023-08-06T10:16:40.000Z</time>
</trkpt>
<trkpt lat="46.0660850" lon="10.4902670">
	<ele>2509.80</ele>
	<time>2023-08-06T10:16:41.000Z</time>
</trkpt>
<trkpt lat="46.0660850" lon="10.4902670">
	<ele>2509.80</ele>
	<time>2023-08-06T10:16:42.000Z</time>
</trkpt>
<trkpt lat="46.0660880" lon="10.4902680">
	<ele>2509.80</ele>
	<time>2023-08-06T10:16:43.000Z</time>
</trkpt>
<trkpt lat="46.0660900" lon="10.4902700">
	<ele>2509.80</ele>
	<time>2023-08-06T10:16:44.000Z</time>
</trkpt>
<trkpt lat="46.0660920" lon="10.4902710">
	<ele>2509.80</ele>
	<time>2023-08-06T10:16:45.000Z</time>
</trkpt>
<trkpt lat="46.0660930" lon="10.4902720">
	<ele>2509.80</ele>
	<time>2023-08-06T10:16:46.000Z</time>
</trkpt>
<trkpt lat="46.0660940" lon="10.4902730">
	<ele>2509.80</ele>
	<time>2023-08-06T10:16:47.000Z</time>
</trkpt>
<trkpt lat="46.0660950" lon="10.4902730">
	<ele>2509.80</ele>
	<time>2023-08-06T10:16:48.000Z</time>
</trkpt>
<trkpt lat="46.0660990" lon="10.4902730">
	<ele>2509.80</ele>
	<time>2023-08-06T10:16:49.000Z</time>
</trkpt>
<trkpt lat="46.0661040" lon="10.4902730">
	<ele>2509.80</ele>
	<time>2023-08-06T10:16:50.000Z</time>
</trkpt>
<trkpt lat="46.0661090" lon="10.4902730">
	<ele>2509.80</ele>
	<time>2023-08-06T10:16:51.000Z</time>
</trkpt>
<trkpt lat="46.0661160" lon="10.4902760">
	<ele>2509.80</ele>
	<time>2023-08-06T10:16:52.000Z</time>
</trkpt>
<trkpt lat="46.0661190" lon="10.4902790">
	<ele>2509.80</ele>
	<time>2023-08-06T10:16:53.000Z</time>
</trkpt>
<trkpt lat="46.0661230" lon="10.4902820">
	<ele>2509.80</ele>
	<time>2023-08-06T10:16:54.000Z</time>
</trkpt>
<trkpt lat="46.0661260" lon="10.4902890">
	<ele>2509.80</ele>
	<time>2023-08-06T10:16:55.000Z</time>
</trkpt>
<trkpt lat="46.0661300" lon="10.4902960">
	<ele>2509.80</ele>
	<time>2023-08-06T10:16:56.000Z</time>
</trkpt>
<trkpt lat="46.0661330" lon="10.4903000">
	<ele>2509.80</ele>
	<time>2023-08-06T10:16:57.000Z</time>
</trkpt>
<trkpt lat="46.0661330" lon="10.4903010">
	<ele>2509.80</ele>
	<time>2023-08-06T10:16:58.000Z</time>
</trkpt>
<trkpt lat="46.0661340" lon="10.4903030">
	<ele>2509.80</ele>
	<time>2023-08-06T10:16:59.000Z</time>
</trkpt>
<trkpt lat="46.0661340" lon="10.4903040">
	<ele>2509.80</ele>
	<time>2023-08-06T10:17:00.000Z</time>
</trkpt>
<trkpt lat="46.0661350" lon="10.4903050">
	<ele>2509.80</ele>
	<time>2023-08-06T10:17:01.000Z</time>
</trkpt>
<trkpt lat="46.0661390" lon="10.4903050">
	<ele>2509.80</ele>
	<time>2023-08-06T10:17:02.000Z</time>
</trkpt>
<trkpt lat="46.0661430" lon="10.4903060">
	<ele>2509.80</ele>
	<time>2023-08-06T10:17:03.000Z</time>
</trkpt>
<trkpt lat="46.0661450" lon="10.4903060">
	<ele>2509.80</ele>
	<time>2023-08-06T10:17:04.000Z</time>
</trkpt>
<trkpt lat="46.0661470" lon="10.4903060">
	<ele>2509.80</ele>
	<time>2023-08-06T10:17:05.000Z</time>
</trkpt>
<trkpt lat="46.0661500" lon="10.4903060">
	<ele>2509.80</ele>
	<time>2023-08-06T10:17:06.000Z</time>
</trkpt>
<trkpt lat="46.0661520" lon="10.4903070">
	<ele>2509.80</ele>
	<time>2023-08-06T10:17:07.000Z</time>
</trkpt>
<trkpt lat="46.0661540" lon="10.4903070">
	<ele>2509.80</ele>
	<time>2023-08-06T10:17:08.000Z</time>
</trkpt>
<trkpt lat="46.0661590" lon="10.4903070">
	<ele>2509.80</ele>
	<time>2023-08-06T10:17:09.000Z</time>
</trkpt>
<trkpt lat="46.0661610" lon="10.4903070">
	<ele>2509.80</ele>
	<time>2023-08-06T10:17:10.000Z</time>
</trkpt>
<trkpt lat="46.0661620" lon="10.4903070">
	<ele>2509.80</ele>
	<time>2023-08-06T10:17:11.000Z</time>
</trkpt>
<trkpt lat="46.0661620" lon="10.4903070">
	<ele>2509.80</ele>
	<time>2023-08-06T10:17:12.000Z</time>
</trkpt>
<trkpt lat="46.0661640" lon="10.4903090">
	<ele>2509.80</ele>
	<time>2023-08-06T10:17:13.000Z</time>
</trkpt>
<trkpt lat="46.0661640" lon="10.4903090">
	<ele>2509.80</ele>
	<time>2023-08-06T10:17:14.000Z</time>
</trkpt>
<trkpt lat="46.0661650" lon="10.4903100">
	<ele>2509.80</ele>
	<time>2023-08-06T10:17:15.000Z</time>
</trkpt>
<trkpt lat="46.0661670" lon="10.4903100">
	<ele>2509.80</ele>
	<time>2023-08-06T10:17:16.000Z</time>
</trkpt>
<trkpt lat="46.0661680" lon="10.4903110">
	<ele>2509.80</ele>
	<time>2023-08-06T10:17:17.000Z</time>
</trkpt>
<trkpt lat="46.0661730" lon="10.4903110">
	<ele>2509.80</ele>
	<time>2023-08-06T10:17:18.000Z</time>
</trkpt>
<trkpt lat="46.0661740" lon="10.4903110">
	<ele>2509.80</ele>
	<time>2023-08-06T10:17:19.000Z</time>
</trkpt>
<trkpt lat="46.0661740" lon="10.4903110">
	<ele>2509.80</ele>
	<time>2023-08-06T10:17:20.000Z</time>
</trkpt>
<trkpt lat="46.0661750" lon="10.4903120">
	<ele>2509.80</ele>
	<time>2023-08-06T10:17:21.000Z</time>
</trkpt>
<trkpt lat="46.0661750" lon="10.4903150">
	<ele>2509.80</ele>
	<time>2023-08-06T10:17:22.000Z</time>
</trkpt>
<trkpt lat="46.0661760" lon="10.4903170">
	<ele>2509.80</ele>
	<time>2023-08-06T10:17:23.000Z</time>
</trkpt>
<trkpt lat="46.0661770" lon="10.4903180">
	<ele>2509.80</ele>
	<time>2023-08-06T10:17:24.000Z</time>
</trkpt>
<trkpt lat="46.0661770" lon="10.4903180">
	<ele>2509.80</ele>
	<time>2023-08-06T10:17:25.000Z</time>
</trkpt>
<trkpt lat="46.0661770" lon="10.4903180">
	<ele>2509.80</ele>
	<time>2023-08-06T10:17:26.000Z</time>
</trkpt>
<trkpt lat="46.0661770" lon="10.4903190">
	<ele>2509.80</ele>
	<time>2023-08-06T10:17:27.000Z</time>
</trkpt>
<trkpt lat="46.0661780" lon="10.4903200">
	<ele>2509.80</ele>
	<time>2023-08-06T10:17:28.000Z</time>
</trkpt>
<trkpt lat="46.0661780" lon="10.4903200">
	<ele>2509.80</ele>
	<time>2023-08-06T10:17:29.000Z</time>
</trkpt>
<trkpt lat="46.0661780" lon="10.4903230">
	<ele>2509.80</ele>
	<time>2023-08-06T10:17:30.000Z</time>
</trkpt>
<trkpt lat="46.0661780" lon="10.4903250">
	<ele>2509.80</ele>
	<time>2023-08-06T10:17:31.000Z</time>
</trkpt>
<trkpt lat="46.0661790" lon="10.4903290">
	<ele>2509.80</ele>
	<time>2023-08-06T10:17:32.000Z</time>
</trkpt>
<trkpt lat="46.0661790" lon="10.4903320">
	<ele>2509.80</ele>
	<time>2023-08-06T10:17:33.000Z</time>
</trkpt>
<trkpt lat="46.0661790" lon="10.4903340">
	<ele>2509.80</ele>
	<time>2023-08-06T10:17:34.000Z</time>
</trkpt>
<trkpt lat="46.0661790" lon="10.4903360">
	<ele>2509.80</ele>
	<time>2023-08-06T10:17:35.000Z</time>
</trkpt>
<trkpt lat="46.0661810" lon="10.4903400">
	<ele>2509.80</ele>
	<time>2023-08-06T10:17:36.000Z</time>
</trkpt>
<trkpt lat="46.0661830" lon="10.4903450">
	<ele>2509.80</ele>
	<time>2023-08-06T10:17:37.000Z</time>
</trkpt>
<trkpt lat="46.0661850" lon="10.4903470">
	<ele>2509.80</ele>
	<time>2023-08-06T10:17:38.000Z</time>
</trkpt>
<trkpt lat="46.0661850" lon="10.4903480">
	<ele>2509.80</ele>
	<time>2023-08-06T10:17:39.000Z</time>
</trkpt>
<trkpt lat="46.0661850" lon="10.4903480">
	<ele>2509.80</ele>
	<time>2023-08-06T10:17:40.000Z</time>
</trkpt>
<trkpt lat="46.0661860" lon="10.4903480">
	<ele>2509.80</ele>
	<time>2023-08-06T10:17:41.000Z</time>
</trkpt>
<trkpt lat="46.0661860" lon="10.4903490">
	<ele>2509.80</ele>
	<time>2023-08-06T10:17:42.000Z</time>
</trkpt>
<trkpt lat="46.0661860" lon="10.4903490">
	<ele>2509.80</ele>
	<time>2023-08-06T10:17:43.000Z</time>
</trkpt>
<trkpt lat="46.0661870" lon="10.4903490">
	<ele>2509.80</ele>
	<time>2023-08-06T10:17:44.000Z</time>
</trkpt>
<trkpt lat="46.0661870" lon="10.4903490">
	<ele>2509.80</ele>
	<time>2023-08-06T10:17:45.000Z</time>
</trkpt>
<trkpt lat="46.0661870" lon="10.4903490">
	<ele>2509.80</ele>
	<time>2023-08-06T10:17:46.000Z</time>
</trkpt>
<trkpt lat="46.0661890" lon="10.4903490">
	<ele>2509.80</ele>
	<time>2023-08-06T10:17:47.000Z</time>
</trkpt>
<trkpt lat="46.0661900" lon="10.4903490">
	<ele>2509.80</ele>
	<time>2023-08-06T10:17:48.000Z</time>
</trkpt>
<trkpt lat="46.0661910" lon="10.4903490">
	<ele>2509.80</ele>
	<time>2023-08-06T10:17:49.000Z</time>
</trkpt>
<trkpt lat="46.0661920" lon="10.4903490">
	<ele>2509.80</ele>
	<time>2023-08-06T10:17:50.000Z</time>
</trkpt>
<trkpt lat="46.0661920" lon="10.4903490">
	<ele>2509.80</ele>
	<time>2023-08-06T10:17:51.000Z</time>
</trkpt>
<trkpt lat="46.0661920" lon="10.4903490">
	<ele>2509.80</ele>
	<time>2023-08-06T10:17:52.000Z</time>
</trkpt>
<trkpt lat="46.0661920" lon="10.4903470">
	<ele>2509.80</ele>
	<time>2023-08-06T10:17:53.000Z</time>
</trkpt>
<trkpt lat="46.0661930" lon="10.4903430">
	<ele>2509.80</ele>
	<time>2023-08-06T10:17:54.000Z</time>
</trkpt>
<trkpt lat="46.0661930" lon="10.4903400">
	<ele>2509.80</ele>
	<time>2023-08-06T10:17:55.000Z</time>
</trkpt>
<trkpt lat="46.0661930" lon="10.4903380">
	<ele>2509.80</ele>
	<time>2023-08-06T10:17:56.000Z</time>
</trkpt>
<trkpt lat="46.0661930" lon="10.4903380">
	<ele>2509.80</ele>
	<time>2023-08-06T10:17:57.000Z</time>
</trkpt>
<trkpt lat="46.0661940" lon="10.4903370">
	<ele>2509.80</ele>
	<time>2023-08-06T10:17:58.000Z</time>
</trkpt>
<trkpt lat="46.0661940" lon="10.4903370">
	<ele>2509.80</ele>
	<time>2023-08-06T10:17:59.000Z</time>
</trkpt>
<trkpt lat="46.0661950" lon="10.4903370">
	<ele>2509.80</ele>
	<time>2023-08-06T10:18:00.000Z</time>
</trkpt>
<trkpt lat="46.0661950" lon="10.4903370">
	<ele>2509.80</ele>
	<time>2023-08-06T10:18:01.000Z</time>
</trkpt>
<trkpt lat="46.0661950" lon="10.4903370">
	<ele>2509.80</ele>
	<time>2023-08-06T10:18:02.000Z</time>
</trkpt>
<trkpt lat="46.0661950" lon="10.4903370">
	<ele>2509.80</ele>
	<time>2023-08-06T10:18:03.000Z</time>
</trkpt>
<trkpt lat="46.0661950" lon="10.4903370">
	<ele>2509.80</ele>
	<time>2023-08-06T10:18:04.000Z</time>
</trkpt>
<trkpt lat="46.0661950" lon="10.4903370">
	<ele>2509.80</ele>
	<time>2023-08-06T10:18:05.000Z</time>
</trkpt>
<trkpt lat="46.0661950" lon="10.4903370">
	<ele>2509.80</ele>
	<time>2023-08-06T10:18:06.000Z</time>
</trkpt>
<trkpt lat="46.0661950" lon="10.4903370">
	<ele>2509.80</ele>
	<time>2023-08-06T10:18:07.000Z</time>
</trkpt>
<trkpt lat="46.0661950" lon="10.4903370">
	<ele>2509.80</ele>
	<time>2023-08-06T10:18:08.000Z</time>
</trkpt>
<trkpt lat="46.0661940" lon="10.4903370">
	<ele>2509.80</ele>
	<time>2023-08-06T10:18:09.000Z</time>
</trkpt>
<trkpt lat="46.0661940" lon="10.4903370">
	<ele>2509.80</ele>
	<time>2023-08-06T10:18:10.000Z</time>
</trkpt>
<trkpt lat="46.0661940" lon="10.4903370">
	<ele>2509.80</ele>
	<time>2023-08-06T10:18:11.000Z</time>
</trkpt>
<trkpt lat="46.0661940" lon="10.4903370">
	<ele>2509.80</ele>
	<time>2023-08-06T10:18:12.000Z</time>
</trkpt>
<trkpt lat="46.0661940" lon="10.4903370">
	<ele>2509.80</ele>
	<time>2023-08-06T10:18:13.000Z</time>
</trkpt>
<trkpt lat="46.0661940" lon="10.4903370">
	<ele>2509.80</ele>
	<time>2023-08-06T10:18:14.000Z</time>
</trkpt>
<trkpt lat="46.0661940" lon="10.4903370">
	<ele>2509.80</ele>
	<time>2023-08-06T10:18:15.000Z</time>
</trkpt>
<trkpt lat="46.0661940" lon="10.4903380">
	<ele>2509.80</ele>
	<time>2023-08-06T10:18:16.000Z</time>
</trkpt>
<trkpt lat="46.0661940" lon="10.4903380">
	<ele>2509.80</ele>
	<time>2023-08-06T10:18:17.000Z</time>
</trkpt>
<trkpt lat="46.0661930" lon="10.4903380">
	<ele>2509.80</ele>
	<time>2023-08-06T10:18:18.000Z</time>
</trkpt>
<trkpt lat="46.0661910" lon="10.4903380">
	<ele>2509.80</ele>
	<time>2023-08-06T10:18:19.000Z</time>
</trkpt>
<trkpt lat="46.0661890" lon="10.4903390">
	<ele>2509.80</ele>
	<time>2023-08-06T10:18:20.000Z</time>
</trkpt>
<trkpt lat="46.0661880" lon="10.4903400">
	<ele>2509.80</ele>
	<time>2023-08-06T10:18:21.000Z</time>
</trkpt>
<trkpt lat="46.0661870" lon="10.4903410">
	<ele>2509.80</ele>
	<time>2023-08-06T10:18:22.000Z</time>
</trkpt>
<trkpt lat="46.0661860" lon="10.4903420">
	<ele>2509.80</ele>
	<time>2023-08-06T10:18:23.000Z</time>
</trkpt>
<trkpt lat="46.0661860" lon="10.4903440">
	<ele>2509.80</ele>
	<time>2023-08-06T10:18:24.000Z</time>
</trkpt>
<trkpt lat="46.0661860" lon="10.4903450">
	<ele>2509.80</ele>
	<time>2023-08-06T10:18:25.000Z</time>
</trkpt>
<trkpt lat="46.0661860" lon="10.4903450">
	<ele>2509.80</ele>
	<time>2023-08-06T10:18:26.000Z</time>
</trkpt>
<trkpt lat="46.0661850" lon="10.4903460">
	<ele>2509.80</ele>
	<time>2023-08-06T10:18:27.000Z</time>
</trkpt>
<trkpt lat="46.0661850" lon="10.4903460">
	<ele>2509.80</ele>
	<time>2023-08-06T10:18:28.000Z</time>
</trkpt>
<trkpt lat="46.0661850" lon="10.4903460">
	<ele>2509.80</ele>
	<time>2023-08-06T10:18:29.000Z</time>
</trkpt>
<trkpt lat="46.0661850" lon="10.4903460">
	<ele>2509.80</ele>
	<time>2023-08-06T10:18:30.000Z</time>
</trkpt>
<trkpt lat="46.0661850" lon="10.4903470">
	<ele>2509.80</ele>
	<time>2023-08-06T10:18:31.000Z</time>
</trkpt>
<trkpt lat="46.0661850" lon="10.4903470">
	<ele>2509.80</ele>
	<time>2023-08-06T10:18:32.000Z</time>
</trkpt>
<trkpt lat="46.0661850" lon="10.4903470">
	<ele>2509.80</ele>
	<time>2023-08-06T10:18:33.000Z</time>
</trkpt>
<trkpt lat="46.0661850" lon="10.4903470">
	<ele>2509.80</ele>
	<time>2023-08-06T10:18:34.000Z</time>
</trkpt>
<trkpt lat="46.0661850" lon="10.4903470">
	<ele>2509.80</ele>
	<time>2023-08-06T10:18:35.000Z</time>
</trkpt>
<trkpt lat="46.0661850" lon="10.4903470">
	<ele>2509.80</ele>
	<time>2023-08-06T10:18:36.000Z</time>
</trkpt>
<trkpt lat="46.0661870" lon="10.4903470">
	<ele>2509.80</ele>
	<time>2023-08-06T10:18:37.000Z</time>
</trkpt>
<trkpt lat="46.0661890" lon="10.4903470">
	<ele>2509.80</ele>
	<time>2023-08-06T10:18:38.000Z</time>
</trkpt>
<trkpt lat="46.0661920" lon="10.4903470">
	<ele>2509.80</ele>
	<time>2023-08-06T10:18:39.000Z</time>
</trkpt>
<trkpt lat="46.0661940" lon="10.4903470">
	<ele>2509.80</ele>
	<time>2023-08-06T10:18:40.000Z</time>
</trkpt>
<trkpt lat="46.0661960" lon="10.4903470">
	<ele>2509.80</ele>
	<time>2023-08-06T10:18:41.000Z</time>
</trkpt>
<trkpt lat="46.0661980" lon="10.4903470">
	<ele>2509.80</ele>
	<time>2023-08-06T10:18:42.000Z</time>
</trkpt>
<trkpt lat="46.0662030" lon="10.4903470">
	<ele>2509.80</ele>
	<time>2023-08-06T10:18:43.000Z</time>
</trkpt>
<trkpt lat="46.0662090" lon="10.4903470">
	<ele>2509.80</ele>
	<time>2023-08-06T10:18:44.000Z</time>
</trkpt>
<trkpt lat="46.0662140" lon="10.4903470">
	<ele>2509.80</ele>
	<time>2023-08-06T10:18:45.000Z</time>
</trkpt>
<trkpt lat="46.0662190" lon="10.4903450">
	<ele>2509.80</ele>
	<time>2023-08-06T10:18:46.000Z</time>
</trkpt>
<trkpt lat="46.0662230" lon="10.4903430">
	<ele>2509.80</ele>
	<time>2023-08-06T10:18:47.000Z</time>
</trkpt>
<trkpt lat="46.0662270" lon="10.4903390">
	<ele>2509.80</ele>
	<time>2023-08-06T10:18:48.000Z</time>
</trkpt>
<trkpt lat="46.0662310" lon="10.4903340">
	<ele>2509.80</ele>
	<time>2023-08-06T10:18:49.000Z</time>
</trkpt>
<trkpt lat="46.0662350" lon="10.4903300">
	<ele>2509.80</ele>
	<time>2023-08-06T10:18:50.000Z</time>
</trkpt>
<trkpt lat="46.0662390" lon="10.4903260">
	<ele>2509.80</ele>
	<time>2023-08-06T10:18:51.000Z</time>
</trkpt>
<trkpt lat="46.0662430" lon="10.4903220">
	<ele>2509.80</ele>
	<time>2023-08-06T10:18:52.000Z</time>
</trkpt>
<trkpt lat="46.0662480" lon="10.4903190">
	<ele>2509.80</ele>
	<time>2023-08-06T10:18:53.000Z</time>
</trkpt>
<trkpt lat="46.0662520" lon="10.4903160">
	<ele>2509.80</ele>
	<time>2023-08-06T10:18:54.000Z</time>
</trkpt>
<trkpt lat="46.0662550" lon="10.4903150">
	<ele>2509.80</ele>
	<time>2023-08-06T10:18:55.000Z</time>
</trkpt>
<trkpt lat="46.0662580" lon="10.4903130">
	<ele>2509.80</ele>
	<time>2023-08-06T10:18:56.000Z</time>
</trkpt>
<trkpt lat="46.0662610" lon="10.4903120">
	<ele>2509.80</ele>
	<time>2023-08-06T10:18:57.000Z</time>
</trkpt>
<trkpt lat="46.0662640" lon="10.4903110">
	<ele>2509.80</ele>
	<time>2023-08-06T10:18:58.000Z</time>
</trkpt>
<trkpt lat="46.0662670" lon="10.4903110">
	<ele>2509.80</ele>
	<time>2023-08-06T10:18:59.000Z</time>
</trkpt>
<trkpt lat="46.0662690" lon="10.4903100">
	<ele>2509.80</ele>
	<time>2023-08-06T10:19:00.000Z</time>
</trkpt>
<trkpt lat="46.0662710" lon="10.4903100">
	<ele>2509.80</ele>
	<time>2023-08-06T10:19:01.000Z</time>
</trkpt>
<trkpt lat="46.0662720" lon="10.4903100">
	<ele>2509.80</ele>
	<time>2023-08-06T10:19:02.000Z</time>
</trkpt>
<trkpt lat="46.0662730" lon="10.4903090">
	<ele>2509.80</ele>
	<time>2023-08-06T10:19:03.000Z</time>
</trkpt>
<trkpt lat="46.0662740" lon="10.4903080">
	<ele>2509.80</ele>
	<time>2023-08-06T10:19:04.000Z</time>
</trkpt>
<trkpt lat="46.0662750" lon="10.4903080">
	<ele>2509.80</ele>
	<time>2023-08-06T10:19:05.000Z</time>
</trkpt>
<trkpt lat="46.0662750" lon="10.4903070">
	<ele>2509.80</ele>
	<time>2023-08-06T10:19:06.000Z</time>
</trkpt>
<trkpt lat="46.0662760" lon="10.4903060">
	<ele>2513.80</ele>
	<time>2023-08-06T10:19:07.000Z</time>
</trkpt>
<trkpt lat="46.0662770" lon="10.4903060">
	<ele>2513.80</ele>
	<time>2023-08-06T10:19:08.000Z</time>
</trkpt>
<trkpt lat="46.0662770" lon="10.4903060">
	<ele>2513.80</ele>
	<time>2023-08-06T10:19:09.000Z</time>
</trkpt>
<trkpt lat="46.0662780" lon="10.4903050">
	<ele>2513.80</ele>
	<time>2023-08-06T10:19:10.000Z</time>
</trkpt>
<trkpt lat="46.0662790" lon="10.4903050">
	<ele>2513.80</ele>
	<time>2023-08-06T10:19:11.000Z</time>
</trkpt>
<trkpt lat="46.0662800" lon="10.4903040">
	<ele>2513.80</ele>
	<time>2023-08-06T10:19:12.000Z</time>
</trkpt>
<trkpt lat="46.0662800" lon="10.4903040">
	<ele>2513.80</ele>
	<time>2023-08-06T10:19:13.000Z</time>
</trkpt>
<trkpt lat="46.0662800" lon="10.4903040">
	<ele>2513.80</ele>
	<time>2023-08-06T10:19:14.000Z</time>
</trkpt>
<trkpt lat="46.0662810" lon="10.4903030">
	<ele>2513.80</ele>
	<time>2023-08-06T10:19:15.000Z</time>
</trkpt>
<trkpt lat="46.0662810" lon="10.4903030">
	<ele>2513.80</ele>
	<time>2023-08-06T10:19:16.000Z</time>
</trkpt>
<trkpt lat="46.0662810" lon="10.4903030">
	<ele>2513.60</ele>
	<time>2023-08-06T10:19:17.000Z</time>
</trkpt>
<trkpt lat="46.0662810" lon="10.4903030">
	<ele>2513.60</ele>
	<time>2023-08-06T10:19:18.000Z</time>
</trkpt>
<trkpt lat="46.0662820" lon="10.4903020">
	<ele>2513.60</ele>
	<time>2023-08-06T10:19:19.000Z</time>
</trkpt>
<trkpt lat="46.0662820" lon="10.4903020">
	<ele>2513.40</ele>
	<time>2023-08-06T10:19:20.000Z</time>
</trkpt>
<trkpt lat="46.0662820" lon="10.4903020">
	<ele>2513.40</ele>
	<time>2023-08-06T10:19:21.000Z</time>
</trkpt>
<trkpt lat="46.0662820" lon="10.4903020">
	<ele>2513.40</ele>
	<time>2023-08-06T10:19:22.000Z</time>
</trkpt>
<trkpt lat="46.0662820" lon="10.4903010">
	<ele>2513.40</ele>
	<time>2023-08-06T10:19:23.000Z</time>
</trkpt>
<trkpt lat="46.0662820" lon="10.4903010">
	<ele>2513.20</ele>
	<time>2023-08-06T10:19:24.000Z</time>
</trkpt>
<trkpt lat="46.0662820" lon="10.4903010">
	<ele>2513.20</ele>
	<time>2023-08-06T10:19:25.000Z</time>
</trkpt>
<trkpt lat="46.0662820" lon="10.4903010">
	<ele>2513.20</ele>
	<time>2023-08-06T10:19:26.000Z</time>
</trkpt>
<trkpt lat="46.0662830" lon="10.4903010">
	<ele>2513.00</ele>
	<time>2023-08-06T10:19:27.000Z</time>
</trkpt>
<trkpt lat="46.0662830" lon="10.4903010">
	<ele>2513.00</ele>
	<time>2023-08-06T10:19:28.000Z</time>
</trkpt>
<trkpt lat="46.0662830" lon="10.4903010">
	<ele>2512.80</ele>
	<time>2023-08-06T10:19:29.000Z</time>
</trkpt>
<trkpt lat="46.0662830" lon="10.4903010">
	<ele>2512.80</ele>
	<time>2023-08-06T10:19:30.000Z</time>
</trkpt>
<trkpt lat="46.0662830" lon="10.4903000">
	<ele>2512.60</ele>
	<time>2023-08-06T10:19:31.000Z</time>
</trkpt>
<trkpt lat="46.0662830" lon="10.4903000">
	<ele>2512.60</ele>
	<time>2023-08-06T10:19:32.000Z</time>
</trkpt>
<trkpt lat="46.0662840" lon="10.4903000">
	<ele>2512.60</ele>
	<time>2023-08-06T10:19:33.000Z</time>
</trkpt>
<trkpt lat="46.0662840" lon="10.4903000">
	<ele>2512.40</ele>
	<time>2023-08-06T10:19:34.000Z</time>
</trkpt>
<trkpt lat="46.0662850" lon="10.4903000">
	<ele>2512.40</ele>
	<time>2023-08-06T10:19:35.000Z</time>
</trkpt>
<trkpt lat="46.0662860" lon="10.4903000">
	<ele>2512.40</ele>
	<time>2023-08-06T10:19:36.000Z</time>
</trkpt>
<trkpt lat="46.0662860" lon="10.4903000">
	<ele>2512.40</ele>
	<time>2023-08-06T10:19:37.000Z</time>
</trkpt>
<trkpt lat="46.0662870" lon="10.4903000">
	<ele>2512.40</ele>
	<time>2023-08-06T10:19:38.000Z</time>
</trkpt>
<trkpt lat="46.0662870" lon="10.4903000">
	<ele>2512.60</ele>
	<time>2023-08-06T10:19:39.000Z</time>
</trkpt>
<trkpt lat="46.0662880" lon="10.4903000">
	<ele>2512.60</ele>
	<time>2023-08-06T10:19:40.000Z</time>
</trkpt>
<trkpt lat="46.0662880" lon="10.4903000">
	<ele>2512.60</ele>
	<time>2023-08-06T10:19:41.000Z</time>
</trkpt>
<trkpt lat="46.0662890" lon="10.4903000">
	<ele>2512.40</ele>
	<time>2023-08-06T10:19:42.000Z</time>
</trkpt>
<trkpt lat="46.0662890" lon="10.4903000">
	<ele>2512.40</ele>
	<time>2023-08-06T10:19:43.000Z</time>
</trkpt>
<trkpt lat="46.0662900" lon="10.4903000">
	<ele>2512.40</ele>
	<time>2023-08-06T10:19:44.000Z</time>
</trkpt>
<trkpt lat="46.0662900" lon="10.4903000">
	<ele>2512.40</ele>
	<time>2023-08-06T10:19:45.000Z</time>
</trkpt>
<trkpt lat="46.0662900" lon="10.4903000">
	<ele>2512.20</ele>
	<time>2023-08-06T10:19:46.000Z</time>
</trkpt>
<trkpt lat="46.0662900" lon="10.4903000">
	<ele>2512.20</ele>
	<time>2023-08-06T10:19:47.000Z</time>
</trkpt>
<trkpt lat="46.0662900" lon="10.4903000">
	<ele>2512.20</ele>
	<time>2023-08-06T10:19:48.000Z</time>
</trkpt>
<trkpt lat="46.0662900" lon="10.4903000">
	<ele>2512.00</ele>
	<time>2023-08-06T10:19:49.000Z</time>
</trkpt>
<trkpt lat="46.0662900" lon="10.4903000">
	<ele>2511.80</ele>
	<time>2023-08-06T10:19:50.000Z</time>
</trkpt>
<trkpt lat="46.0662900" lon="10.4903000">
	<ele>2511.60</ele>
	<time>2023-08-06T10:19:51.000Z</time>
</trkpt>
<trkpt lat="46.0662910" lon="10.4903020">
	<ele>2511.60</ele>
	<time>2023-08-06T10:19:52.000Z</time>
</trkpt>
<trkpt lat="46.0662940" lon="10.4903080">
	<ele>2511.60</ele>
	<time>2023-08-06T10:19:53.000Z</time>
</trkpt>
<trkpt lat="46.0662970" lon="10.4903080">
	<ele>2511.40</ele>
	<time>2023-08-06T10:19:54.000Z</time>
</trkpt>
<trkpt lat="46.0662990" lon="10.4903180">
	<ele>2511.40</ele>
	<time>2023-08-06T10:19:55.000Z</time>
</trkpt>
<trkpt lat="46.0663000" lon="10.4903290">
	<ele>2511.40</ele>
	<time>2023-08-06T10:19:56.000Z</time>
</trkpt>
<trkpt lat="46.0662990" lon="10.4903430">
	<ele>2511.40</ele>
	<time>2023-08-06T10:19:57.000Z</time>
</trkpt>
<trkpt lat="46.0663000" lon="10.4903550">
	<ele>2511.40</ele>
	<time>2023-08-06T10:19:58.000Z</time>
</trkpt>
<trkpt lat="46.0663110" lon="10.4903510">
	<ele>2511.40</ele>
	<time>2023-08-06T10:19:59.000Z</time>
</trkpt>
<trkpt lat="46.0663260" lon="10.4903450">
	<ele>2511.40</ele>
	<time>2023-08-06T10:20:00.000Z</time>
</trkpt>
<trkpt lat="46.0663200" lon="10.4903480">
	<ele>2511.40</ele>
	<time>2023-08-06T10:20:01.000Z</time>
</trkpt>
<trkpt lat="46.0663140" lon="10.4903460">
	<ele>2511.40</ele>
	<time>2023-08-06T10:20:02.000Z</time>
</trkpt>
<trkpt lat="46.0663160" lon="10.4903390">
	<ele>2511.40</ele>
	<time>2023-08-06T10:20:03.000Z</time>
</trkpt>
<trkpt lat="46.0663090" lon="10.4903440">
	<ele>2511.40</ele>
	<time>2023-08-06T10:20:04.000Z</time>
</trkpt>
<trkpt lat="46.0662770" lon="10.4903610">
	<ele>2511.40</ele>
	<time>2023-08-06T10:20:05.000Z</time>
</trkpt>
<trkpt lat="46.0662660" lon="10.4903810">
	<ele>2511.40</ele>
	<time>2023-08-06T10:20:06.000Z</time>
</trkpt>
<trkpt lat="46.0662650" lon="10.4904020">
	<ele>2511.40</ele>
	<time>2023-08-06T10:20:07.000Z</time>
</trkpt>
<trkpt lat="46.0662770" lon="10.4904130">
	<ele>2511.40</ele>
	<time>2023-08-06T10:20:08.000Z</time>
</trkpt>
<trkpt lat="46.0662950" lon="10.4904190">
	<ele>2511.40</ele>
	<time>2023-08-06T10:20:09.000Z</time>
</trkpt>
<trkpt lat="46.0663080" lon="10.4904070">
	<ele>2511.40</ele>
	<time>2023-08-06T10:20:10.000Z</time>
</trkpt>
<trkpt lat="46.0663240" lon="10.4903950">
	<ele>2511.40</ele>
	<time>2023-08-06T10:20:11.000Z</time>
</trkpt>
<trkpt lat="46.0663270" lon="10.4903980">
	<ele>2511.40</ele>
	<time>2023-08-06T10:20:12.000Z</time>
</trkpt>
<trkpt lat="46.0663250" lon="10.4904020">
	<ele>2511.40</ele>
	<time>2023-08-06T10:20:13.000Z</time>
</trkpt>
<trkpt lat="46.0663150" lon="10.4904060">
	<ele>2511.20</ele>
	<time>2023-08-06T10:20:14.000Z</time>
</trkpt>
<trkpt lat="46.0663090" lon="10.4904070">
	<ele>2511.20</ele>
	<time>2023-08-06T10:20:15.000Z</time>
</trkpt>
<trkpt lat="46.0663110" lon="10.4903990">
	<ele>2511.00</ele>
	<time>2023-08-06T10:20:16.000Z</time>
</trkpt>
<trkpt lat="46.0663160" lon="10.4903940">
	<ele>2510.60</ele>
	<time>2023-08-06T10:20:17.000Z</time>
</trkpt>
<trkpt lat="46.0663170" lon="10.4903900">
	<ele>2510.20</ele>
	<time>2023-08-06T10:20:18.000Z</time>
</trkpt>
<trkpt lat="46.0663100" lon="10.4903890">
	<ele>2509.80</ele>
	<time>2023-08-06T10:20:19.000Z</time>
</trkpt>
<trkpt lat="46.0663210" lon="10.4903920">
	<ele>2509.80</ele>
	<time>2023-08-06T10:20:20.000Z</time>
</trkpt>
<trkpt lat="46.0663260" lon="10.4903930">
	<ele>2509.80</ele>
	<time>2023-08-06T10:20:21.000Z</time>
</trkpt>
<trkpt lat="46.0663290" lon="10.4903940">
	<ele>2509.60</ele>
	<time>2023-08-06T10:20:22.000Z</time>
</trkpt>
<trkpt lat="46.0663220" lon="10.4903890">
	<ele>2509.80</ele>
	<time>2023-08-06T10:20:23.000Z</time>
</trkpt>
<trkpt lat="46.0663200" lon="10.4903870">
	<ele>2509.80</ele>
	<time>2023-08-06T10:20:24.000Z</time>
</trkpt>
<trkpt lat="46.0663200" lon="10.4903870">
	<ele>2510.00</ele>
	<time>2023-08-06T10:20:25.000Z</time>
</trkpt>
<trkpt lat="46.0663200" lon="10.4903870">
	<ele>2510.00</ele>
	<time>2023-08-06T10:20:26.000Z</time>
</trkpt>
<trkpt lat="46.0663200" lon="10.4903870">
	<ele>2510.00</ele>
	<time>2023-08-06T10:20:27.000Z</time>
</trkpt>
<trkpt lat="46.0663200" lon="10.4903870">
	<ele>2509.80</ele>
	<time>2023-08-06T10:20:28.000Z</time>
</trkpt>
<trkpt lat="46.0663200" lon="10.4903870">
	<ele>2509.80</ele>
	<time>2023-08-06T10:20:29.000Z</time>
</trkpt>
<trkpt lat="46.0663200" lon="10.4903870">
	<ele>2509.60</ele>
	<time>2023-08-06T10:20:30.000Z</time>
</trkpt>
<trkpt lat="46.0663200" lon="10.4903870">
	<ele>2509.40</ele>
	<time>2023-08-06T10:20:31.000Z</time>
</trkpt>
<trkpt lat="46.0663200" lon="10.4903870">
	<ele>2509.20</ele>
	<time>2023-08-06T10:20:32.000Z</time>
</trkpt>
<trkpt lat="46.0663200" lon="10.4903870">
	<ele>2508.80</ele>
	<time>2023-08-06T10:20:33.000Z</time>
</trkpt>
<trkpt lat="46.0663200" lon="10.4903890">
	<ele>2508.60</ele>
	<time>2023-08-06T10:20:34.000Z</time>
</trkpt>
<trkpt lat="46.0663200" lon="10.4903890">
	<ele>2508.40</ele>
	<time>2023-08-06T10:20:35.000Z</time>
</trkpt>
<trkpt lat="46.0663200" lon="10.4903890">
	<ele>2508.40</ele>
	<time>2023-08-06T10:20:36.000Z</time>
</trkpt>
<trkpt lat="46.0663200" lon="10.4903910">
	<ele>2508.40</ele>
	<time>2023-08-06T10:20:37.000Z</time>
</trkpt>
<trkpt lat="46.0663200" lon="10.4903920">
	<ele>2508.40</ele>
	<time>2023-08-06T10:20:38.000Z</time>
</trkpt>
<trkpt lat="46.0663210" lon="10.4903930">
	<ele>2508.40</ele>
	<time>2023-08-06T10:20:39.000Z</time>
</trkpt>
<trkpt lat="46.0663210" lon="10.4903930">
	<ele>2508.60</ele>
	<time>2023-08-06T10:20:40.000Z</time>
</trkpt>
<trkpt lat="46.0663220" lon="10.4903940">
	<ele>2508.60</ele>
	<time>2023-08-06T10:20:41.000Z</time>
</trkpt>
<trkpt lat="46.0663240" lon="10.4903940">
	<ele>2508.80</ele>
	<time>2023-08-06T10:20:42.000Z</time>
</trkpt>
<trkpt lat="46.0663250" lon="10.4903950">
	<ele>2508.80</ele>
	<time>2023-08-06T10:20:43.000Z</time>
</trkpt>
<trkpt lat="46.0663270" lon="10.4903960">
	<ele>2509.20</ele>
	<time>2023-08-06T10:20:44.000Z</time>
</trkpt>
<trkpt lat="46.0663280" lon="10.4903960">
	<ele>2509.60</ele>
	<time>2023-08-06T10:20:45.000Z</time>
</trkpt>
<trkpt lat="46.0663290" lon="10.4903970">
	<ele>2509.80</ele>
	<time>2023-08-06T10:20:46.000Z</time>
</trkpt>
<trkpt lat="46.0663300" lon="10.4903970">
	<ele>2510.00</ele>
	<time>2023-08-06T10:20:47.000Z</time>
</trkpt>
<trkpt lat="46.0663390" lon="10.4903980">
	<ele>2510.20</ele>
	<time>2023-08-06T10:20:48.000Z</time>
</trkpt>
<trkpt lat="46.0663400" lon="10.4904010">
	<ele>2510.20</ele>
	<time>2023-08-06T10:20:49.000Z</time>
</trkpt>
<trkpt lat="46.0663440" lon="10.4904060">
	<ele>2510.40</ele>
	<time>2023-08-06T10:20:50.000Z</time>
</trkpt>
<trkpt lat="46.0663510" lon="10.4904080">
	<ele>2510.40</ele>
	<time>2023-08-06T10:20:51.000Z</time>
</trkpt>
<trkpt lat="46.0663550" lon="10.4904090">
	<ele>2510.40</ele>
	<time>2023-08-06T10:20:52.000Z</time>
</trkpt>
<trkpt lat="46.0663580" lon="10.4904090">
	<ele>2510.40</ele>
	<time>2023-08-06T10:20:53.000Z</time>
</trkpt>
<trkpt lat="46.0663620" lon="10.4904090">
	<ele>2510.60</ele>
	<time>2023-08-06T10:20:54.000Z</time>
</trkpt>
<trkpt lat="46.0663630" lon="10.4904070">
	<ele>2510.60</ele>
	<time>2023-08-06T10:20:55.000Z</time>
</trkpt>
<trkpt lat="46.0663610" lon="10.4904030">
	<ele>2510.60</ele>
	<time>2023-08-06T10:20:56.000Z</time>
</trkpt>
<trkpt lat="46.0663620" lon="10.4904000">
	<ele>2510.80</ele>
	<time>2023-08-06T10:20:57.000Z</time>
</trkpt>
<trkpt lat="46.0663620" lon="10.4903930">
	<ele>2510.80</ele>
	<time>2023-08-06T10:20:58.000Z</time>
</trkpt>
<trkpt lat="46.0663650" lon="10.4903870">
	<ele>2510.60</ele>
	<time>2023-08-06T10:20:59.000Z</time>
</trkpt>
<trkpt lat="46.0663650" lon="10.4903790">
	<ele>2510.60</ele>
	<time>2023-08-06T10:21:00.000Z</time>
</trkpt>
<trkpt lat="46.0663660" lon="10.4903730">
	<ele>2510.60</ele>
	<time>2023-08-06T10:21:01.000Z</time>
</trkpt>
<trkpt lat="46.0663690" lon="10.4903630">
	<ele>2510.60</ele>
	<time>2023-08-06T10:21:02.000Z</time>
</trkpt>
<trkpt lat="46.0663720" lon="10.4903520">
	<ele>2510.60</ele>
	<time>2023-08-06T10:21:03.000Z</time>
</trkpt>
<trkpt lat="46.0663770" lon="10.4903530">
	<ele>2510.60</ele>
	<time>2023-08-06T10:21:04.000Z</time>
</trkpt>
<trkpt lat="46.0663760" lon="10.4903570">
	<ele>2510.60</ele>
	<time>2023-08-06T10:21:05.000Z</time>
</trkpt>
<trkpt lat="46.0663730" lon="10.4903620">
	<ele>2510.60</ele>
	<time>2023-08-06T10:21:06.000Z</time>
</trkpt>
<trkpt lat="46.0663740" lon="10.4903620">
	<ele>2510.60</ele>
	<time>2023-08-06T10:21:07.000Z</time>
</trkpt>
<trkpt lat="46.0663720" lon="10.4903620">
	<ele>2510.60</ele>
	<time>2023-08-06T10:21:08.000Z</time>
</trkpt>
<trkpt lat="46.0663710" lon="10.4903590">
	<ele>2510.60</ele>
	<time>2023-08-06T10:21:09.000Z</time>
</trkpt>
<trkpt lat="46.0663720" lon="10.4903580">
	<ele>2510.60</ele>
	<time>2023-08-06T10:21:10.000Z</time>
</trkpt>
<trkpt lat="46.0663760" lon="10.4903590">
	<ele>2510.60</ele>
	<time>2023-08-06T10:21:11.000Z</time>
</trkpt>
<trkpt lat="46.0663820" lon="10.4903620">
	<ele>2510.60</ele>
	<time>2023-08-06T10:21:12.000Z</time>
</trkpt>
<trkpt lat="46.0663860" lon="10.4903690">
	<ele>2510.80</ele>
	<time>2023-08-06T10:21:13.000Z</time>
</trkpt>
<trkpt lat="46.0663910" lon="10.4903770">
	<ele>2511.00</ele>
	<time>2023-08-06T10:21:14.000Z</time>
</trkpt>
<trkpt lat="46.0663960" lon="10.4903810">
	<ele>2511.00</ele>
	<time>2023-08-06T10:21:15.000Z</time>
</trkpt>
<trkpt lat="46.0664000" lon="10.4903830">
	<ele>2511.00</ele>
	<time>2023-08-06T10:21:16.000Z</time>
</trkpt>
<trkpt lat="46.0664040" lon="10.4903840">
	<ele>2511.20</ele>
	<time>2023-08-06T10:21:17.000Z</time>
</trkpt>
<trkpt lat="46.0664080" lon="10.4903820">
	<ele>2511.00</ele>
	<time>2023-08-06T10:21:18.000Z</time>
</trkpt>
<trkpt lat="46.0664140" lon="10.4903800">
	<ele>2511.00</ele>
	<time>2023-08-06T10:21:19.000Z</time>
</trkpt>
<trkpt lat="46.0664190" lon="10.4903830">
	<ele>2511.20</ele>
	<time>2023-08-06T10:21:20.000Z</time>
</trkpt>
<trkpt lat="46.0664280" lon="10.4903840">
	<ele>2511.20</ele>
	<time>2023-08-06T10:21:21.000Z</time>
</trkpt>
<trkpt lat="46.0664390" lon="10.4903890">
	<ele>2511.00</ele>
	<time>2023-08-06T10:21:22.000Z</time>
</trkpt>
<trkpt lat="46.0664490" lon="10.4903930">
	<ele>2511.00</ele>
	<time>2023-08-06T10:21:23.000Z</time>
</trkpt>
<trkpt lat="46.0664550" lon="10.4903910">
	<ele>2511.00</ele>
	<time>2023-08-06T10:21:24.000Z</time>
</trkpt>
<trkpt lat="46.0664650" lon="10.4903950">
	<ele>2511.00</ele>
	<time>2023-08-06T10:21:25.000Z</time>
</trkpt>
<trkpt lat="46.0664730" lon="10.4903980">
	<ele>2511.20</ele>
	<time>2023-08-06T10:21:26.000Z</time>
</trkpt>
<trkpt lat="46.0664810" lon="10.4904000">
	<ele>2511.00</ele>
	<time>2023-08-06T10:21:27.000Z</time>
</trkpt>
<trkpt lat="46.0664860" lon="10.4904020">
	<ele>2511.00</ele>
	<time>2023-08-06T10:21:28.000Z</time>
</trkpt>
<trkpt lat="46.0664960" lon="10.4904100">
	<ele>2511.00</ele>
	<time>2023-08-06T10:21:29.000Z</time>
</trkpt>
<trkpt lat="46.0665040" lon="10.4904160">
	<ele>2511.00</ele>
	<time>2023-08-06T10:21:30.000Z</time>
</trkpt>
<trkpt lat="46.0665140" lon="10.4904170">
	<ele>2511.00</ele>
	<time>2023-08-06T10:21:31.000Z</time>
</trkpt>
<trkpt lat="46.0665270" lon="10.4904170">
	<ele>2511.00</ele>
	<time>2023-08-06T10:21:32.000Z</time>
</trkpt>
<trkpt lat="46.0665360" lon="10.4904160">
	<ele>2511.00</ele>
	<time>2023-08-06T10:21:33.000Z</time>
</trkpt>
<trkpt lat="46.0665440" lon="10.4904160">
	<ele>2511.00</ele>
	<time>2023-08-06T10:21:34.000Z</time>
</trkpt>
<trkpt lat="46.0665530" lon="10.4904180">
	<ele>2511.20</ele>
	<time>2023-08-06T10:21:35.000Z</time>
</trkpt>
<trkpt lat="46.0665630" lon="10.4904200">
	<ele>2511.40</ele>
	<time>2023-08-06T10:21:36.000Z</time>
</trkpt>
<trkpt lat="46.0665700" lon="10.4904250">
	<ele>2511.40</ele>
	<time>2023-08-06T10:21:37.000Z</time>
</trkpt>
<trkpt lat="46.0665770" lon="10.4904270">
	<ele>2511.60</ele>
	<time>2023-08-06T10:21:38.000Z</time>
</trkpt>
<trkpt lat="46.0665830" lon="10.4904340">
	<ele>2511.80</ele>
	<time>2023-08-06T10:21:39.000Z</time>
</trkpt>
<trkpt lat="46.0665900" lon="10.4904360">
	<ele>2511.80</ele>
	<time>2023-08-06T10:21:40.000Z</time>
</trkpt>
<trkpt lat="46.0665970" lon="10.4904310">
	<ele>2512.00</ele>
	<time>2023-08-06T10:21:41.000Z</time>
</trkpt>
<trkpt lat="46.0666020" lon="10.4904310">
	<ele>2512.00</ele>
	<time>2023-08-06T10:21:42.000Z</time>
</trkpt>
<trkpt lat="46.0666050" lon="10.4904330">
	<ele>2512.20</ele>
	<time>2023-08-06T10:21:43.000Z</time>
</trkpt>
<trkpt lat="46.0666080" lon="10.4904300">
	<ele>2512.40</ele>
	<time>2023-08-06T10:21:44.000Z</time>
</trkpt>
<trkpt lat="46.0666100" lon="10.4904300">
	<ele>2512.60</ele>
	<time>2023-08-06T10:21:45.000Z</time>
</trkpt>
<trkpt lat="46.0666120" lon="10.4904330">
	<ele>2512.80</ele>
	<time>2023-08-06T10:21:46.000Z</time>
</trkpt>
<trkpt lat="46.0666210" lon="10.4904390">
	<ele>2513.00</ele>
	<time>2023-08-06T10:21:47.000Z</time>
</trkpt>
<trkpt lat="46.0666240" lon="10.4904440">
	<ele>2513.00</ele>
	<time>2023-08-06T10:21:48.000Z</time>
</trkpt>
<trkpt lat="46.0666250" lon="10.4904450">
	<ele>2513.20</ele>
	<time>2023-08-06T10:21:49.000Z</time>
</trkpt>
<trkpt lat="46.0666240" lon="10.4904460">
	<ele>2513.40</ele>
	<time>2023-08-06T10:21:50.000Z</time>
</trkpt>
<trkpt lat="46.0666250" lon="10.4904480">
	<ele>2513.40</ele>
	<time>2023-08-06T10:21:51.000Z</time>
</trkpt>
<trkpt lat="46.0666250" lon="10.4904470">
	<ele>2513.40</ele>
	<time>2023-08-06T10:21:52.000Z</time>
</trkpt>
<trkpt lat="46.0666250" lon="10.4904460">
	<ele>2513.40</ele>
	<time>2023-08-06T10:21:53.000Z</time>
</trkpt>
<trkpt lat="46.0666240" lon="10.4904450">
	<ele>2513.40</ele>
	<time>2023-08-06T10:21:54.000Z</time>
</trkpt>
<trkpt lat="46.0666230" lon="10.4904450">
	<ele>2513.40</ele>
	<time>2023-08-06T10:21:55.000Z</time>
</trkpt>
<trkpt lat="46.0666230" lon="10.4904450">
	<ele>2513.40</ele>
	<time>2023-08-06T10:21:56.000Z</time>
</trkpt>
<trkpt lat="46.0666230" lon="10.4904450">
	<ele>2513.20</ele>
	<time>2023-08-06T10:21:57.000Z</time>
</trkpt>
<trkpt lat="46.0666230" lon="10.4904450">
	<ele>2513.40</ele>
	<time>2023-08-06T10:21:58.000Z</time>
</trkpt>
<trkpt lat="46.0666230" lon="10.4904450">
	<ele>2513.40</ele>
	<time>2023-08-06T10:21:59.000Z</time>
</trkpt>
<trkpt lat="46.0666230" lon="10.4904450">
	<ele>2513.40</ele>
	<time>2023-08-06T10:22:00.000Z</time>
</trkpt>
<trkpt lat="46.0666230" lon="10.4904450">
	<ele>2513.40</ele>
	<time>2023-08-06T10:22:01.000Z</time>
</trkpt>
<trkpt lat="46.0666230" lon="10.4904450">
	<ele>2513.60</ele>
	<time>2023-08-06T10:22:02.000Z</time>
</trkpt>
<trkpt lat="46.0666230" lon="10.4904450">
	<ele>2513.60</ele>
	<time>2023-08-06T10:22:03.000Z</time>
</trkpt>
<trkpt lat="46.0666240" lon="10.4904450">
	<ele>2513.60</ele>
	<time>2023-08-06T10:22:04.000Z</time>
</trkpt>
<trkpt lat="46.0666240" lon="10.4904450">
	<ele>2513.80</ele>
	<time>2023-08-06T10:22:05.000Z</time>
</trkpt>
<trkpt lat="46.0666240" lon="10.4904450">
	<ele>2514.00</ele>
	<time>2023-08-06T10:22:06.000Z</time>
</trkpt>
<trkpt lat="46.0666250" lon="10.4904450">
	<ele>2514.00</ele>
	<time>2023-08-06T10:22:07.000Z</time>
</trkpt>
<trkpt lat="46.0666250" lon="10.4904450">
	<ele>2514.20</ele>
	<time>2023-08-06T10:22:08.000Z</time>
</trkpt>
<trkpt lat="46.0666250" lon="10.4904460">
	<ele>2514.20</ele>
	<time>2023-08-06T10:22:09.000Z</time>
</trkpt>
<trkpt lat="46.0666250" lon="10.4904460">
	<ele>2514.20</ele>
	<time>2023-08-06T10:22:10.000Z</time>
</trkpt>
<trkpt lat="46.0666270" lon="10.4904460">
	<ele>2514.20</ele>
	<time>2023-08-06T10:22:11.000Z</time>
</trkpt>
<trkpt lat="46.0666360" lon="10.4904470">
	<ele>2514.20</ele>
	<time>2023-08-06T10:22:12.000Z</time>
</trkpt>
<trkpt lat="46.0666400" lon="10.4904470">
	<ele>2514.20</ele>
	<time>2023-08-06T10:22:13.000Z</time>
</trkpt>
<trkpt lat="46.0666410" lon="10.4904480">
	<ele>2514.20</ele>
	<time>2023-08-06T10:22:14.000Z</time>
</trkpt>
<trkpt lat="46.0666410" lon="10.4904490">
	<ele>2514.40</ele>
	<time>2023-08-06T10:22:15.000Z</time>
</trkpt>
<trkpt lat="46.0666410" lon="10.4904500">
	<ele>2514.40</ele>
	<time>2023-08-06T10:22:16.000Z</time>
</trkpt>
<trkpt lat="46.0666420" lon="10.4904510">
	<ele>2514.40</ele>
	<time>2023-08-06T10:22:17.000Z</time>
</trkpt>
<trkpt lat="46.0666420" lon="10.4904520">
	<ele>2514.40</ele>
	<time>2023-08-06T10:22:18.000Z</time>
</trkpt>
<trkpt lat="46.0666420" lon="10.4904520">
	<ele>2514.40</ele>
	<time>2023-08-06T10:22:19.000Z</time>
</trkpt>
<trkpt lat="46.0666420" lon="10.4904520">
	<ele>2514.60</ele>
	<time>2023-08-06T10:22:20.000Z</time>
</trkpt>
<trkpt lat="46.0666420" lon="10.4904520">
	<ele>2514.60</ele>
	<time>2023-08-06T10:22:21.000Z</time>
</trkpt>
<trkpt lat="46.0666420" lon="10.4904520">
	<ele>2514.40</ele>
	<time>2023-08-06T10:22:22.000Z</time>
</trkpt>
<trkpt lat="46.0666420" lon="10.4904520">
	<ele>2514.40</ele>
	<time>2023-08-06T10:22:23.000Z</time>
</trkpt>
<trkpt lat="46.0666420" lon="10.4904520">
	<ele>2514.40</ele>
	<time>2023-08-06T10:22:24.000Z</time>
</trkpt>
<trkpt lat="46.0666420" lon="10.4904520">
	<ele>2514.40</ele>
	<time>2023-08-06T10:22:25.000Z</time>
</trkpt>
<trkpt lat="46.0666420" lon="10.4904520">
	<ele>2514.20</ele>
	<time>2023-08-06T10:22:26.000Z</time>
</trkpt>
<trkpt lat="46.0666420" lon="10.4904520">
	<ele>2514.00</ele>
	<time>2023-08-06T10:22:27.000Z</time>
</trkpt>
<trkpt lat="46.0666420" lon="10.4904520">
	<ele>2513.60</ele>
	<time>2023-08-06T10:22:28.000Z</time>
</trkpt>
<trkpt lat="46.0666420" lon="10.4904520">
	<ele>2513.40</ele>
	<time>2023-08-06T10:22:29.000Z</time>
</trkpt>
<trkpt lat="46.0666420" lon="10.4904520">
	<ele>2513.40</ele>
	<time>2023-08-06T10:22:30.000Z</time>
</trkpt>
<trkpt lat="46.0666410" lon="10.4904520">
	<ele>2513.20</ele>
	<time>2023-08-06T10:22:31.000Z</time>
</trkpt>
<trkpt lat="46.0666410" lon="10.4904520">
	<ele>2513.20</ele>
	<time>2023-08-06T10:22:32.000Z</time>
</trkpt>
<trkpt lat="46.0666410" lon="10.4904520">
	<ele>2513.20</ele>
	<time>2023-08-06T10:22:33.000Z</time>
</trkpt>
<trkpt lat="46.0666410" lon="10.4904520">
	<ele>2513.40</ele>
	<time>2023-08-06T10:22:34.000Z</time>
</trkpt>
<trkpt lat="46.0666410" lon="10.4904520">
	<ele>2513.60</ele>
	<time>2023-08-06T10:22:35.000Z</time>
</trkpt>
<trkpt lat="46.0666400" lon="10.4904520">
	<ele>2513.80</ele>
	<time>2023-08-06T10:22:36.000Z</time>
</trkpt>
<trkpt lat="46.0666400" lon="10.4904520">
	<ele>2513.80</ele>
	<time>2023-08-06T10:22:37.000Z</time>
</trkpt>
<trkpt lat="46.0666400" lon="10.4904520">
	<ele>2513.80</ele>
	<time>2023-08-06T10:22:38.000Z</time>
</trkpt>
<trkpt lat="46.0666400" lon="10.4904520">
	<ele>2514.00</ele>
	<time>2023-08-06T10:22:39.000Z</time>
</trkpt>
<trkpt lat="46.0666400" lon="10.4904530">
	<ele>2514.00</ele>
	<time>2023-08-06T10:22:40.000Z</time>
</trkpt>
<trkpt lat="46.0666400" lon="10.4904540">
	<ele>2514.00</ele>
	<time>2023-08-06T10:22:41.000Z</time>
</trkpt>
<trkpt lat="46.0666400" lon="10.4904540">
	<ele>2513.80</ele>
	<time>2023-08-06T10:22:42.000Z</time>
</trkpt>
<trkpt lat="46.0666400" lon="10.4904560">
	<ele>2513.80</ele>
	<time>2023-08-06T10:22:43.000Z</time>
</trkpt>
<trkpt lat="46.0666400" lon="10.4904560">
	<ele>2513.80</ele>
	<time>2023-08-06T10:22:44.000Z</time>
</trkpt>
<trkpt lat="46.0666400" lon="10.4904560">
	<ele>2513.80</ele>
	<time>2023-08-06T10:22:45.000Z</time>
</trkpt>
<trkpt lat="46.0666400" lon="10.4904580">
	<ele>2513.80</ele>
	<time>2023-08-06T10:22:46.000Z</time>
</trkpt>
<trkpt lat="46.0666400" lon="10.4904600">
	<ele>2513.60</ele>
	<time>2023-08-06T10:22:47.000Z</time>
</trkpt>
<trkpt lat="46.0666400" lon="10.4904610">
	<ele>2513.40</ele>
	<time>2023-08-06T10:22:48.000Z</time>
</trkpt>
<trkpt lat="46.0666400" lon="10.4904650">
	<ele>2513.20</ele>
	<time>2023-08-06T10:22:49.000Z</time>
</trkpt>
<trkpt lat="46.0666400" lon="10.4904700">
	<ele>2513.00</ele>
	<time>2023-08-06T10:22:50.000Z</time>
</trkpt>
<trkpt lat="46.0666400" lon="10.4904730">
	<ele>2513.00</ele>
	<time>2023-08-06T10:22:51.000Z</time>
</trkpt>
<trkpt lat="46.0666410" lon="10.4904760">
	<ele>2513.00</ele>
	<time>2023-08-06T10:22:52.000Z</time>
</trkpt>
<trkpt lat="46.0666420" lon="10.4904790">
	<ele>2512.80</ele>
	<time>2023-08-06T10:22:53.000Z</time>
</trkpt>
<trkpt lat="46.0666430" lon="10.4904820">
	<ele>2512.80</ele>
	<time>2023-08-06T10:22:54.000Z</time>
</trkpt>
<trkpt lat="46.0666450" lon="10.4904860">
	<ele>2512.80</ele>
	<time>2023-08-06T10:22:55.000Z</time>
</trkpt>
<trkpt lat="46.0666470" lon="10.4904890">
	<ele>2512.80</ele>
	<time>2023-08-06T10:22:56.000Z</time>
</trkpt>
<trkpt lat="46.0666500" lon="10.4904930">
	<ele>2512.80</ele>
	<time>2023-08-06T10:22:57.000Z</time>
</trkpt>
<trkpt lat="46.0666510" lon="10.4904970">
	<ele>2512.80</ele>
	<time>2023-08-06T10:22:58.000Z</time>
</trkpt>
<trkpt lat="46.0666530" lon="10.4904980">
	<ele>2512.60</ele>
	<time>2023-08-06T10:22:59.000Z</time>
</trkpt>
<trkpt lat="46.0666530" lon="10.4904980">
	<ele>2512.40</ele>
	<time>2023-08-06T10:23:00.000Z</time>
</trkpt>
<trkpt lat="46.0666540" lon="10.4904990">
	<ele>2512.20</ele>
	<time>2023-08-06T10:23:01.000Z</time>
</trkpt>
<trkpt lat="46.0666540" lon="10.4904990">
	<ele>2512.00</ele>
	<time>2023-08-06T10:23:02.000Z</time>
</trkpt>
<trkpt lat="46.0666550" lon="10.4904990">
	<ele>2512.00</ele>
	<time>2023-08-06T10:23:03.000Z</time>
</trkpt>
<trkpt lat="46.0666570" lon="10.4904990">
	<ele>2511.80</ele>
	<time>2023-08-06T10:23:04.000Z</time>
</trkpt>
<trkpt lat="46.0666600" lon="10.4904990">
	<ele>2511.60</ele>
	<time>2023-08-06T10:23:05.000Z</time>
</trkpt>
<trkpt lat="46.0666610" lon="10.4904990">
	<ele>2511.40</ele>
	<time>2023-08-06T10:23:06.000Z</time>
</trkpt>
<trkpt lat="46.0666630" lon="10.4904990">
	<ele>2511.40</ele>
	<time>2023-08-06T10:23:07.000Z</time>
</trkpt>
<trkpt lat="46.0666630" lon="10.4904990">
	<ele>2511.40</ele>
	<time>2023-08-06T10:23:08.000Z</time>
</trkpt>
<trkpt lat="46.0666640" lon="10.4904990">
	<ele>2511.40</ele>
	<time>2023-08-06T10:23:09.000Z</time>
</trkpt>
<trkpt lat="46.0666640" lon="10.4904990">
	<ele>2511.40</ele>
	<time>2023-08-06T10:23:10.000Z</time>
</trkpt>
<trkpt lat="46.0666640" lon="10.4905000">
	<ele>2511.40</ele>
	<time>2023-08-06T10:23:11.000Z</time>
</trkpt>
<trkpt lat="46.0666640" lon="10.4905020">
	<ele>2511.40</ele>
	<time>2023-08-06T10:23:12.000Z</time>
</trkpt>
<trkpt lat="46.0666650" lon="10.4905030">
	<ele>2511.80</ele>
	<time>2023-08-06T10:23:13.000Z</time>
</trkpt>
<trkpt lat="46.0666650" lon="10.4905030">
	<ele>2511.80</ele>
	<time>2023-08-06T10:23:14.000Z</time>
</trkpt>
<trkpt lat="46.0666650" lon="10.4905030">
	<ele>2512.00</ele>
	<time>2023-08-06T10:23:15.000Z</time>
</trkpt>
<trkpt lat="46.0666650" lon="10.4905030">
	<ele>2512.00</ele>
	<time>2023-08-06T10:23:16.000Z</time>
</trkpt>
<trkpt lat="46.0666660" lon="10.4905030">
	<ele>2512.00</ele>
	<time>2023-08-06T10:23:17.000Z</time>
</trkpt>
<trkpt lat="46.0666660" lon="10.4905030">
	<ele>2512.20</ele>
	<time>2023-08-06T10:23:18.000Z</time>
</trkpt>
<trkpt lat="46.0666660" lon="10.4905030">
	<ele>2512.00</ele>
	<time>2023-08-06T10:23:19.000Z</time>
</trkpt>
<trkpt lat="46.0666670" lon="10.4905030">
	<ele>2512.00</ele>
	<time>2023-08-06T10:23:20.000Z</time>
</trkpt>
<trkpt lat="46.0666680" lon="10.4905030">
	<ele>2512.00</ele>
	<time>2023-08-06T10:23:21.000Z</time>
</trkpt>
<trkpt lat="46.0666700" lon="10.4905030">
	<ele>2512.00</ele>
	<time>2023-08-06T10:23:22.000Z</time>
</trkpt>
<trkpt lat="46.0666720" lon="10.4905030">
	<ele>2512.00</ele>
	<time>2023-08-06T10:23:23.000Z</time>
</trkpt>
<trkpt lat="46.0666770" lon="10.4905030">
	<ele>2512.00</ele>
	<time>2023-08-06T10:23:24.000Z</time>
</trkpt>
<trkpt lat="46.0666820" lon="10.4905030">
	<ele>2511.80</ele>
	<time>2023-08-06T10:23:25.000Z</time>
</trkpt>
<trkpt lat="46.0666870" lon="10.4905060">
	<ele>2511.80</ele>
	<time>2023-08-06T10:23:26.000Z</time>
</trkpt>
<trkpt lat="46.0666910" lon="10.4905100">
	<ele>2512.00</ele>
	<time>2023-08-06T10:23:27.000Z</time>
</trkpt>
<trkpt lat="46.0666930" lon="10.4905110">
	<ele>2512.00</ele>
	<time>2023-08-06T10:23:28.000Z</time>
</trkpt>
<trkpt lat="46.0666940" lon="10.4905120">
	<ele>2512.00</ele>
	<time>2023-08-06T10:23:29.000Z</time>
</trkpt>
<trkpt lat="46.0666950" lon="10.4905130">
	<ele>2512.20</ele>
	<time>2023-08-06T10:23:30.000Z</time>
</trkpt>
<trkpt lat="46.0666950" lon="10.4905130">
	<ele>2512.60</ele>
	<time>2023-08-06T10:23:31.000Z</time>
</trkpt>
<trkpt lat="46.0666960" lon="10.4905130">
	<ele>2512.80</ele>
	<time>2023-08-06T10:23:32.000Z</time>
</trkpt>
<trkpt lat="46.0666970" lon="10.4905130">
	<ele>2513.00</ele>
	<time>2023-08-06T10:23:33.000Z</time>
</trkpt>
<trkpt lat="46.0666980" lon="10.4905130">
	<ele>2513.40</ele>
	<time>2023-08-06T10:23:34.000Z</time>
</trkpt>
<trkpt lat="46.0666980" lon="10.4905140">
	<ele>2513.60</ele>
	<time>2023-08-06T10:23:35.000Z</time>
</trkpt>
<trkpt lat="46.0666990" lon="10.4905140">
	<ele>2514.00</ele>
	<time>2023-08-06T10:23:36.000Z</time>
</trkpt>
<trkpt lat="46.0667010" lon="10.4905140">
	<ele>2514.00</ele>
	<time>2023-08-06T10:23:37.000Z</time>
</trkpt>
<trkpt lat="46.0667020" lon="10.4905140">
	<ele>2514.00</ele>
	<time>2023-08-06T10:23:38.000Z</time>
</trkpt>
<trkpt lat="46.0667020" lon="10.4905150">
	<ele>2514.20</ele>
	<time>2023-08-06T10:23:39.000Z</time>
</trkpt>
<trkpt lat="46.0667030" lon="10.4905150">
	<ele>2514.20</ele>
	<time>2023-08-06T10:23:40.000Z</time>
</trkpt>
<trkpt lat="46.0667030" lon="10.4905150">
	<ele>2514.20</ele>
	<time>2023-08-06T10:23:41.000Z</time>
</trkpt>
<trkpt lat="46.0667040" lon="10.4905160">
	<ele>2514.40</ele>
	<time>2023-08-06T10:23:42.000Z</time>
</trkpt>
<trkpt lat="46.0667050" lon="10.4905160">
	<ele>2514.40</ele>
	<time>2023-08-06T10:23:43.000Z</time>
</trkpt>
<trkpt lat="46.0667080" lon="10.4905170">
	<ele>2514.60</ele>
	<time>2023-08-06T10:23:44.000Z</time>
</trkpt>
<trkpt lat="46.0667130" lon="10.4905180">
	<ele>2514.60</ele>
	<time>2023-08-06T10:23:45.000Z</time>
</trkpt>
<trkpt lat="46.0667200" lon="10.4905180">
	<ele>2514.80</ele>
	<time>2023-08-06T10:23:46.000Z</time>
</trkpt>
<trkpt lat="46.0667260" lon="10.4905180">
	<ele>2514.80</ele>
	<time>2023-08-06T10:23:47.000Z</time>
</trkpt>
<trkpt lat="46.0667310" lon="10.4905180">
	<ele>2515.00</ele>
	<time>2023-08-06T10:23:48.000Z</time>
</trkpt>
<trkpt lat="46.0667370" lon="10.4905180">
	<ele>2515.00</ele>
	<time>2023-08-06T10:23:49.000Z</time>
</trkpt>
<trkpt lat="46.0667420" lon="10.4905180">
	<ele>2515.00</ele>
	<time>2023-08-06T10:23:50.000Z</time>
</trkpt>
<trkpt lat="46.0667450" lon="10.4905180">
	<ele>2515.00</ele>
	<time>2023-08-06T10:23:51.000Z</time>
</trkpt>
<trkpt lat="46.0667460" lon="10.4905180">
	<ele>2515.00</ele>
	<time>2023-08-06T10:23:52.000Z</time>
</trkpt>
<trkpt lat="46.0667480" lon="10.4905180">
	<ele>2514.80</ele>
	<time>2023-08-06T10:23:53.000Z</time>
</trkpt>
<trkpt lat="46.0667480" lon="10.4905190">
	<ele>2514.80</ele>
	<time>2023-08-06T10:23:54.000Z</time>
</trkpt>
<trkpt lat="46.0667490" lon="10.4905200">
	<ele>2514.80</ele>
	<time>2023-08-06T10:23:55.000Z</time>
</trkpt>
<trkpt lat="46.0667490" lon="10.4905210">
	<ele>2514.60</ele>
	<time>2023-08-06T10:23:56.000Z</time>
</trkpt>
<trkpt lat="46.0667500" lon="10.4905220">
	<ele>2514.60</ele>
	<time>2023-08-06T10:23:57.000Z</time>
</trkpt>
<trkpt lat="46.0667500" lon="10.4905230">
	<ele>2514.60</ele>
	<time>2023-08-06T10:23:58.000Z</time>
</trkpt>
<trkpt lat="46.0667500" lon="10.4905240">
	<ele>2514.40</ele>
	<time>2023-08-06T10:23:59.000Z</time>
</trkpt>
<trkpt lat="46.0667510" lon="10.4905250">
	<ele>2514.60</ele>
	<time>2023-08-06T10:24:00.000Z</time>
</trkpt>
<trkpt lat="46.0667510" lon="10.4905260">
	<ele>2514.60</ele>
	<time>2023-08-06T10:24:01.000Z</time>
</trkpt>
<trkpt lat="46.0667510" lon="10.4905270">
	<ele>2514.80</ele>
	<time>2023-08-06T10:24:02.000Z</time>
</trkpt>
<trkpt lat="46.0667510" lon="10.4905270">
	<ele>2514.80</ele>
	<time>2023-08-06T10:24:03.000Z</time>
</trkpt>
<trkpt lat="46.0667510" lon="10.4905280">
	<ele>2514.80</ele>
	<time>2023-08-06T10:24:04.000Z</time>
</trkpt>
<trkpt lat="46.0667520" lon="10.4905280">
	<ele>2514.80</ele>
	<time>2023-08-06T10:24:05.000Z</time>
</trkpt>
<trkpt lat="46.0667520" lon="10.4905280">
	<ele>2514.80</ele>
	<time>2023-08-06T10:24:06.000Z</time>
</trkpt>
<trkpt lat="46.0667520" lon="10.4905290">
	<ele>2514.60</ele>
	<time>2023-08-06T10:24:07.000Z</time>
</trkpt>
<trkpt lat="46.0667540" lon="10.4905290">
	<ele>2514.60</ele>
	<time>2023-08-06T10:24:08.000Z</time>
</trkpt>
<trkpt lat="46.0667540" lon="10.4905290">
	<ele>2514.60</ele>
	<time>2023-08-06T10:24:09.000Z</time>
</trkpt>
<trkpt lat="46.0667550" lon="10.4905300">
	<ele>2514.40</ele>
	<time>2023-08-06T10:24:10.000Z</time>
</trkpt>
<trkpt lat="46.0667550" lon="10.4905300">
	<ele>2514.40</ele>
	<time>2023-08-06T10:24:11.000Z</time>
</trkpt>
<trkpt lat="46.0667560" lon="10.4905300">
	<ele>2514.20</ele>
	<time>2023-08-06T10:24:12.000Z</time>
</trkpt>
<trkpt lat="46.0667560" lon="10.4905310">
	<ele>2514.20</ele>
	<time>2023-08-06T10:24:13.000Z</time>
</trkpt>
<trkpt lat="46.0667560" lon="10.4905310">
	<ele>2514.40</ele>
	<time>2023-08-06T10:24:14.000Z</time>
</trkpt>
<trkpt lat="46.0667560" lon="10.4905310">
	<ele>2514.40</ele>
	<time>2023-08-06T10:24:15.000Z</time>
</trkpt>
<trkpt lat="46.0667570" lon="10.4905320">
	<ele>2514.40</ele>
	<time>2023-08-06T10:24:16.000Z</time>
</trkpt>
<trkpt lat="46.0667570" lon="10.4905330">
	<ele>2514.40</ele>
	<time>2023-08-06T10:24:17.000Z</time>
</trkpt>
<trkpt lat="46.0667570" lon="10.4905340">
	<ele>2514.40</ele>
	<time>2023-08-06T10:24:18.000Z</time>
</trkpt>
<trkpt lat="46.0667580" lon="10.4905340">
	<ele>2514.40</ele>
	<time>2023-08-06T10:24:19.000Z</time>
</trkpt>
<trkpt lat="46.0667580" lon="10.4905350">
	<ele>2514.40</ele>
	<time>2023-08-06T10:24:20.000Z</time>
</trkpt>
<trkpt lat="46.0667590" lon="10.4905360">
	<ele>2514.40</ele>
	<time>2023-08-06T10:24:21.000Z</time>
</trkpt>
<trkpt lat="46.0667590" lon="10.4905360">
	<ele>2514.20</ele>
	<time>2023-08-06T10:24:22.000Z</time>
</trkpt>
<trkpt lat="46.0667590" lon="10.4905370">
	<ele>2514.20</ele>
	<time>2023-08-06T10:24:23.000Z</time>
</trkpt>
<trkpt lat="46.0667590" lon="10.4905370">
	<ele>2514.20</ele>
	<time>2023-08-06T10:24:24.000Z</time>
</trkpt>
<trkpt lat="46.0667600" lon="10.4905370">
	<ele>2514.20</ele>
	<time>2023-08-06T10:24:25.000Z</time>
</trkpt>
<trkpt lat="46.0667600" lon="10.4905370">
	<ele>2514.20</ele>
	<time>2023-08-06T10:24:26.000Z</time>
</trkpt>
<trkpt lat="46.0667600" lon="10.4905380">
	<ele>2514.40</ele>
	<time>2023-08-06T10:24:27.000Z</time>
</trkpt>
<trkpt lat="46.0667600" lon="10.4905380">
	<ele>2514.40</ele>
	<time>2023-08-06T10:24:28.000Z</time>
</trkpt>
<trkpt lat="46.0667600" lon="10.4905390">
	<ele>2514.40</ele>
	<time>2023-08-06T10:24:29.000Z</time>
</trkpt>
<trkpt lat="46.0667610" lon="10.4905390">
	<ele>2514.40</ele>
	<time>2023-08-06T10:24:30.000Z</time>
</trkpt>
<trkpt lat="46.0667630" lon="10.4905390">
	<ele>2514.40</ele>
	<time>2023-08-06T10:24:31.000Z</time>
</trkpt>
<trkpt lat="46.0667650" lon="10.4905390">
	<ele>2514.40</ele>
	<time>2023-08-06T10:24:32.000Z</time>
</trkpt>
<trkpt lat="46.0667660" lon="10.4905390">
	<ele>2514.40</ele>
	<time>2023-08-06T10:24:33.000Z</time>
</trkpt>
<trkpt lat="46.0667680" lon="10.4905390">
	<ele>2514.40</ele>
	<time>2023-08-06T10:24:34.000Z</time>
</trkpt>
<trkpt lat="46.0667690" lon="10.4905390">
	<ele>2514.40</ele>
	<time>2023-08-06T10:24:35.000Z</time>
</trkpt>
<trkpt lat="46.0667710" lon="10.4905390">
	<ele>2514.80</ele>
	<time>2023-08-06T10:24:36.000Z</time>
</trkpt>
<trkpt lat="46.0667720" lon="10.4905390">
	<ele>2515.00</ele>
	<time>2023-08-06T10:24:37.000Z</time>
</trkpt>
<trkpt lat="46.0667740" lon="10.4905390">
	<ele>2515.00</ele>
	<time>2023-08-06T10:24:38.000Z</time>
</trkpt>
<trkpt lat="46.0667760" lon="10.4905390">
	<ele>2515.00</ele>
	<time>2023-08-06T10:24:39.000Z</time>
</trkpt>
<trkpt lat="46.0667770" lon="10.4905390">
	<ele>2514.80</ele>
	<time>2023-08-06T10:24:40.000Z</time>
</trkpt>
<trkpt lat="46.0667780" lon="10.4905390">
	<ele>2514.60</ele>
	<time>2023-08-06T10:24:41.000Z</time>
</trkpt>
<trkpt lat="46.0667790" lon="10.4905380">
	<ele>2514.60</ele>
	<time>2023-08-06T10:24:42.000Z</time>
</trkpt>
<trkpt lat="46.0667790" lon="10.4905380">
	<ele>2514.60</ele>
	<time>2023-08-06T10:24:43.000Z</time>
</trkpt>
<trkpt lat="46.0667800" lon="10.4905380">
	<ele>2514.60</ele>
	<time>2023-08-06T10:24:44.000Z</time>
</trkpt>
<trkpt lat="46.0667800" lon="10.4905380">
	<ele>2514.60</ele>
	<time>2023-08-06T10:24:45.000Z</time>
</trkpt>
<trkpt lat="46.0667810" lon="10.4905380">
	<ele>2514.60</ele>
	<time>2023-08-06T10:24:46.000Z</time>
</trkpt>
<trkpt lat="46.0667810" lon="10.4905380">
	<ele>2514.60</ele>
	<time>2023-08-06T10:24:47.000Z</time>
</trkpt>
<trkpt lat="46.0667810" lon="10.4905370">
	<ele>2514.80</ele>
	<time>2023-08-06T10:24:48.000Z</time>
</trkpt>
<trkpt lat="46.0667810" lon="10.4905370">
	<ele>2514.80</ele>
	<time>2023-08-06T10:24:49.000Z</time>
</trkpt>
<trkpt lat="46.0667810" lon="10.4905370">
	<ele>2515.00</ele>
	<time>2023-08-06T10:24:50.000Z</time>
</trkpt>
<trkpt lat="46.0667820" lon="10.4905370">
	<ele>2515.00</ele>
	<time>2023-08-06T10:24:51.000Z</time>
</trkpt>
<trkpt lat="46.0667820" lon="10.4905370">
	<ele>2515.20</ele>
	<time>2023-08-06T10:24:52.000Z</time>
</trkpt>
<trkpt lat="46.0667820" lon="10.4905370">
	<ele>2515.20</ele>
	<time>2023-08-06T10:24:53.000Z</time>
</trkpt>
<trkpt lat="46.0667820" lon="10.4905370">
	<ele>2515.20</ele>
	<time>2023-08-06T10:24:54.000Z</time>
</trkpt>
<trkpt lat="46.0667810" lon="10.4905370">
	<ele>2515.40</ele>
	<time>2023-08-06T10:24:55.000Z</time>
</trkpt>
<trkpt lat="46.0667810" lon="10.4905360">
	<ele>2515.40</ele>
	<time>2023-08-06T10:24:56.000Z</time>
</trkpt>
<trkpt lat="46.0667810" lon="10.4905360">
	<ele>2515.20</ele>
	<time>2023-08-06T10:24:57.000Z</time>
</trkpt>
<trkpt lat="46.0667800" lon="10.4905350">
	<ele>2515.20</ele>
	<time>2023-08-06T10:24:58.000Z</time>
</trkpt>
<trkpt lat="46.0667800" lon="10.4905350">
	<ele>2515.20</ele>
	<time>2023-08-06T10:24:59.000Z</time>
</trkpt>
<trkpt lat="46.0667800" lon="10.4905350">
	<ele>2515.20</ele>
	<time>2023-08-06T10:25:00.000Z</time>
</trkpt>
<trkpt lat="46.0667800" lon="10.4905340">
	<ele>2515.20</ele>
	<time>2023-08-06T10:25:01.000Z</time>
</trkpt>
<trkpt lat="46.0667800" lon="10.4905340">
	<ele>2515.20</ele>
	<time>2023-08-06T10:25:02.000Z</time>
</trkpt>
<trkpt lat="46.0667800" lon="10.4905340">
	<ele>2515.20</ele>
	<time>2023-08-06T10:25:03.000Z</time>
</trkpt>
<trkpt lat="46.0667790" lon="10.4905330">
	<ele>2515.20</ele>
	<time>2023-08-06T10:25:04.000Z</time>
</trkpt>
<trkpt lat="46.0667790" lon="10.4905330">
	<ele>2515.20</ele>
	<time>2023-08-06T10:25:05.000Z</time>
</trkpt>
<trkpt lat="46.0667790" lon="10.4905330">
	<ele>2515.20</ele>
	<time>2023-08-06T10:25:06.000Z</time>
</trkpt>
<trkpt lat="46.0667790" lon="10.4905330">
	<ele>2515.20</ele>
	<time>2023-08-06T10:25:07.000Z</time>
</trkpt>
<trkpt lat="46.0667790" lon="10.4905330">
	<ele>2515.20</ele>
	<time>2023-08-06T10:25:08.000Z</time>
</trkpt>
<trkpt lat="46.0667790" lon="10.4905330">
	<ele>2515.00</ele>
	<time>2023-08-06T10:25:09.000Z</time>
</trkpt>
<trkpt lat="46.0667790" lon="10.4905330">
	<ele>2515.00</ele>
	<time>2023-08-06T10:25:10.000Z</time>
</trkpt>
<trkpt lat="46.0667790" lon="10.4905330">
	<ele>2514.80</ele>
	<time>2023-08-06T10:25:11.000Z</time>
</trkpt>
<trkpt lat="46.0667790" lon="10.4905320">
	<ele>2514.80</ele>
	<time>2023-08-06T10:25:12.000Z</time>
</trkpt>
<trkpt lat="46.0667790" lon="10.4905320">
	<ele>2514.80</ele>
	<time>2023-08-06T10:25:13.000Z</time>
</trkpt>
<trkpt lat="46.0667790" lon="10.4905320">
	<ele>2514.80</ele>
	<time>2023-08-06T10:25:14.000Z</time>
</trkpt>
<trkpt lat="46.0667790" lon="10.4905320">
	<ele>2514.80</ele>
	<time>2023-08-06T10:25:15.000Z</time>
</trkpt>
<trkpt lat="46.0667790" lon="10.4905320">
	<ele>2515.00</ele>
	<time>2023-08-06T10:25:16.000Z</time>
</trkpt>
<trkpt lat="46.0667790" lon="10.4905320">
	<ele>2515.00</ele>
	<time>2023-08-06T10:25:17.000Z</time>
</trkpt>
<trkpt lat="46.0667790" lon="10.4905320">
	<ele>2515.00</ele>
	<time>2023-08-06T10:25:18.000Z</time>
</trkpt>
<trkpt lat="46.0667790" lon="10.4905320">
	<ele>2515.00</ele>
	<time>2023-08-06T10:25:19.000Z</time>
</trkpt>
<trkpt lat="46.0667790" lon="10.4905320">
	<ele>2514.80</ele>
	<time>2023-08-06T10:25:20.000Z</time>
</trkpt>
<trkpt lat="46.0667790" lon="10.4905320">
	<ele>2514.80</ele>
	<time>2023-08-06T10:25:21.000Z</time>
</trkpt>
<trkpt lat="46.0667790" lon="10.4905320">
	<ele>2514.80</ele>
	<time>2023-08-06T10:25:22.000Z</time>
</trkpt>
<trkpt lat="46.0667790" lon="10.4905320">
	<ele>2514.80</ele>
	<time>2023-08-06T10:25:23.000Z</time>
</trkpt>
<trkpt lat="46.0667800" lon="10.4905320">
	<ele>2514.80</ele>
	<time>2023-08-06T10:25:24.000Z</time>
</trkpt>
<trkpt lat="46.0667800" lon="10.4905320">
	<ele>2514.80</ele>
	<time>2023-08-06T10:25:25.000Z</time>
</trkpt>
<trkpt lat="46.0667800" lon="10.4905320">
	<ele>2514.80</ele>
	<time>2023-08-06T10:25:26.000Z</time>
</trkpt>
<trkpt lat="46.0667800" lon="10.4905320">
	<ele>2515.00</ele>
	<time>2023-08-06T10:25:27.000Z</time>
</trkpt>
<trkpt lat="46.0667800" lon="10.4905320">
	<ele>2515.20</ele>
	<time>2023-08-06T10:25:28.000Z</time>
</trkpt>
<trkpt lat="46.0667800" lon="10.4905320">
	<ele>2515.20</ele>
	<time>2023-08-06T10:25:29.000Z</time>
</trkpt>
<trkpt lat="46.0667800" lon="10.4905320">
	<ele>2515.40</ele>
	<time>2023-08-06T10:25:30.000Z</time>
</trkpt>
<trkpt lat="46.0667800" lon="10.4905320">
	<ele>2515.40</ele>
	<time>2023-08-06T10:25:31.000Z</time>
</trkpt>
<trkpt lat="46.0667800" lon="10.4905320">
	<ele>2515.40</ele>
	<time>2023-08-06T10:25:32.000Z</time>
</trkpt>
<trkpt lat="46.0667800" lon="10.4905320">
	<ele>2515.40</ele>
	<time>2023-08-06T10:25:33.000Z</time>
</trkpt>
<trkpt lat="46.0667800" lon="10.4905320">
	<ele>2515.40</ele>
	<time>2023-08-06T10:25:34.000Z</time>
</trkpt>
<trkpt lat="46.0667800" lon="10.4905330">
	<ele>2515.20</ele>
	<time>2023-08-06T10:25:35.000Z</time>
</trkpt>
<trkpt lat="46.0667800" lon="10.4905330">
	<ele>2515.00</ele>
	<time>2023-08-06T10:25:36.000Z</time>
</trkpt>
<trkpt lat="46.0667800" lon="10.4905330">
	<ele>2515.00</ele>
	<time>2023-08-06T10:25:37.000Z</time>
</trkpt>
<trkpt lat="46.0667800" lon="10.4905330">
	<ele>2514.80</ele>
	<time>2023-08-06T10:25:38.000Z</time>
</trkpt>
<trkpt lat="46.0667800" lon="10.4905330">
	<ele>2514.80</ele>
	<time>2023-08-06T10:25:39.000Z</time>
</trkpt>
<trkpt lat="46.0667800" lon="10.4905330">
	<ele>2514.60</ele>
	<time>2023-08-06T10:25:40.000Z</time>
</trkpt>
<trkpt lat="46.0667800" lon="10.4905330">
	<ele>2514.20</ele>
	<time>2023-08-06T10:25:41.000Z</time>
</trkpt>
<trkpt lat="46.0667800" lon="10.4905330">
	<ele>2514.00</ele>
	<time>2023-08-06T10:25:42.000Z</time>
</trkpt>
<trkpt lat="46.0667800" lon="10.4905330">
	<ele>2513.80</ele>
	<time>2023-08-06T10:25:43.000Z</time>
</trkpt>
<trkpt lat="46.0667800" lon="10.4905330">
	<ele>2513.60</ele>
	<time>2023-08-06T10:25:44.000Z</time>
</trkpt>
<trkpt lat="46.0667800" lon="10.4905330">
	<ele>2513.60</ele>
	<time>2023-08-06T10:25:45.000Z</time>
</trkpt>
<trkpt lat="46.0667800" lon="10.4905340">
	<ele>2513.60</ele>
	<time>2023-08-06T10:25:46.000Z</time>
</trkpt>
<trkpt lat="46.0667810" lon="10.4905340">
	<ele>2513.40</ele>
	<time>2023-08-06T10:25:47.000Z</time>
</trkpt>
<trkpt lat="46.0667810" lon="10.4905340">
	<ele>2513.40</ele>
	<time>2023-08-06T10:25:48.000Z</time>
</trkpt>
<trkpt lat="46.0667810" lon="10.4905340">
	<ele>2513.40</ele>
	<time>2023-08-06T10:25:49.000Z</time>
</trkpt>
<trkpt lat="46.0667810" lon="10.4905340">
	<ele>2513.20</ele>
	<time>2023-08-06T10:25:50.000Z</time>
</trkpt>
<trkpt lat="46.0667810" lon="10.4905340">
	<ele>2513.00</ele>
	<time>2023-08-06T10:25:51.000Z</time>
</trkpt>
<trkpt lat="46.0667810" lon="10.4905350">
	<ele>2512.80</ele>
	<time>2023-08-06T10:25:52.000Z</time>
</trkpt>
<trkpt lat="46.0667810" lon="10.4905350">
	<ele>2512.80</ele>
	<time>2023-08-06T10:25:53.000Z</time>
</trkpt>
<trkpt lat="46.0667810" lon="10.4905350">
	<ele>2512.80</ele>
	<time>2023-08-06T10:25:54.000Z</time>
</trkpt>
<trkpt lat="46.0667810" lon="10.4905350">
	<ele>2513.20</ele>
	<time>2023-08-06T10:25:55.000Z</time>
</trkpt>
<trkpt lat="46.0667810" lon="10.4905350">
	<ele>2513.40</ele>
	<time>2023-08-06T10:25:56.000Z</time>
</trkpt>
<trkpt lat="46.0667810" lon="10.4905350">
	<ele>2513.40</ele>
	<time>2023-08-06T10:25:57.000Z</time>
</trkpt>
<trkpt lat="46.0667810" lon="10.4905350">
	<ele>2513.60</ele>
	<time>2023-08-06T10:25:58.000Z</time>
</trkpt>
<trkpt lat="46.0667820" lon="10.4905360">
	<ele>2513.60</ele>
	<time>2023-08-06T10:25:59.000Z</time>
</trkpt>
<trkpt lat="46.0667820" lon="10.4905360">
	<ele>2513.60</ele>
	<time>2023-08-06T10:26:00.000Z</time>
</trkpt>
<trkpt lat="46.0667820" lon="10.4905360">
	<ele>2513.80</ele>
	<time>2023-08-06T10:26:01.000Z</time>
</trkpt>
<trkpt lat="46.0667820" lon="10.4905360">
	<ele>2513.80</ele>
	<time>2023-08-06T10:26:02.000Z</time>
</trkpt>
<trkpt lat="46.0667820" lon="10.4905360">
	<ele>2513.80</ele>
	<time>2023-08-06T10:26:03.000Z</time>
</trkpt>
<trkpt lat="46.0667820" lon="10.4905360">
	<ele>2513.80</ele>
	<time>2023-08-06T10:26:04.000Z</time>
</trkpt>
<trkpt lat="46.0667820" lon="10.4905360">
	<ele>2513.80</ele>
	<time>2023-08-06T10:26:05.000Z</time>
</trkpt>
<trkpt lat="46.0667820" lon="10.4905360">
	<ele>2513.60</ele>
	<time>2023-08-06T10:26:06.000Z</time>
</trkpt>
<trkpt lat="46.0667820" lon="10.4905360">
	<ele>2513.20</ele>
	<time>2023-08-06T10:26:07.000Z</time>
</trkpt>
<trkpt lat="46.0667820" lon="10.4905360">
	<ele>2513.00</ele>
	<time>2023-08-06T10:26:08.000Z</time>
</trkpt>
<trkpt lat="46.0667820" lon="10.4905370">
	<ele>2513.00</ele>
	<time>2023-08-06T10:26:09.000Z</time>
</trkpt>
<trkpt lat="46.0667820" lon="10.4905370">
	<ele>2513.00</ele>
	<time>2023-08-06T10:26:10.000Z</time>
</trkpt>
<trkpt lat="46.0667830" lon="10.4905370">
	<ele>2513.00</ele>
	<time>2023-08-06T10:26:11.000Z</time>
</trkpt>
<trkpt lat="46.0667830" lon="10.4905370">
	<ele>2513.00</ele>
	<time>2023-08-06T10:26:12.000Z</time>
</trkpt>
<trkpt lat="46.0667830" lon="10.4905370">
	<ele>2513.00</ele>
	<time>2023-08-06T10:26:13.000Z</time>
</trkpt>
<trkpt lat="46.0667830" lon="10.4905370">
	<ele>2513.00</ele>
	<time>2023-08-06T10:26:14.000Z</time>
</trkpt>
<trkpt lat="46.0667830" lon="10.4905370">
	<ele>2513.00</ele>
	<time>2023-08-06T10:26:15.000Z</time>
</trkpt>
<trkpt lat="46.0667830" lon="10.4905370">
	<ele>2513.00</ele>
	<time>2023-08-06T10:26:16.000Z</time>
</trkpt>
<trkpt lat="46.0667830" lon="10.4905370">
	<ele>2513.00</ele>
	<time>2023-08-06T10:26:17.000Z</time>
</trkpt>
<trkpt lat="46.0667830" lon="10.4905370">
	<ele>2513.00</ele>
	<time>2023-08-06T10:26:18.000Z</time>
</trkpt>
<trkpt lat="46.0667830" lon="10.4905370">
	<ele>2513.00</ele>
	<time>2023-08-06T10:26:19.000Z</time>
</trkpt>
<trkpt lat="46.0667830" lon="10.4905370">
	<ele>2513.00</ele>
	<time>2023-08-06T10:26:20.000Z</time>
</trkpt>
<trkpt lat="46.0667830" lon="10.4905370">
	<ele>2512.80</ele>
	<time>2023-08-06T10:26:21.000Z</time>
</trkpt>
<trkpt lat="46.0667830" lon="10.4905370">
	<ele>2512.80</ele>
	<time>2023-08-06T10:26:22.000Z</time>
</trkpt>
<trkpt lat="46.0667830" lon="10.4905370">
	<ele>2512.80</ele>
	<time>2023-08-06T10:26:23.000Z</time>
</trkpt>
<trkpt lat="46.0667830" lon="10.4905370">
	<ele>2512.80</ele>
	<time>2023-08-06T10:26:24.000Z</time>
</trkpt>
<trkpt lat="46.0667830" lon="10.4905370">
	<ele>2513.00</ele>
	<time>2023-08-06T10:26:25.000Z</time>
</trkpt>
<trkpt lat="46.0667840" lon="10.4905370">
	<ele>2513.00</ele>
	<time>2023-08-06T10:26:26.000Z</time>
</trkpt>
<trkpt lat="46.0667840" lon="10.4905370">
	<ele>2513.00</ele>
	<time>2023-08-06T10:26:27.000Z</time>
</trkpt>
<trkpt lat="46.0667840" lon="10.4905380">
	<ele>2513.00</ele>
	<time>2023-08-06T10:26:28.000Z</time>
</trkpt>
<trkpt lat="46.0667840" lon="10.4905380">
	<ele>2512.80</ele>
	<time>2023-08-06T10:26:29.000Z</time>
</trkpt>
<trkpt lat="46.0667840" lon="10.4905380">
	<ele>2512.80</ele>
	<time>2023-08-06T10:26:30.000Z</time>
</trkpt>
<trkpt lat="46.0667840" lon="10.4905380">
	<ele>2512.80</ele>
	<time>2023-08-06T10:26:31.000Z</time>
</trkpt>
<trkpt lat="46.0667850" lon="10.4905380">
	<ele>2512.80</ele>
	<time>2023-08-06T10:26:32.000Z</time>
</trkpt>
<trkpt lat="46.0667850" lon="10.4905390">
	<ele>2512.80</ele>
	<time>2023-08-06T10:26:33.000Z</time>
</trkpt>
<trkpt lat="46.0667850" lon="10.4905390">
	<ele>2512.80</ele>
	<time>2023-08-06T10:26:34.000Z</time>
</trkpt>
<trkpt lat="46.0667850" lon="10.4905390">
	<ele>2512.80</ele>
	<time>2023-08-06T10:26:35.000Z</time>
</trkpt>
<trkpt lat="46.0667850" lon="10.4905390">
	<ele>2512.80</ele>
	<time>2023-08-06T10:26:36.000Z</time>
</trkpt>
<trkpt lat="46.0667850" lon="10.4905390">
	<ele>2513.00</ele>
	<time>2023-08-06T10:26:37.000Z</time>
</trkpt>
<trkpt lat="46.0667850" lon="10.4905390">
	<ele>2513.00</ele>
	<time>2023-08-06T10:26:38.000Z</time>
</trkpt>
<trkpt lat="46.0667850" lon="10.4905390">
	<ele>2513.00</ele>
	<time>2023-08-06T10:26:39.000Z</time>
</trkpt>
<trkpt lat="46.0667850" lon="10.4905390">
	<ele>2513.00</ele>
	<time>2023-08-06T10:26:40.000Z</time>
</trkpt>
<trkpt lat="46.0667850" lon="10.4905390">
	<ele>2513.00</ele>
	<time>2023-08-06T10:26:41.000Z</time>
</trkpt>
<trkpt lat="46.0667860" lon="10.4905390">
	<ele>2513.00</ele>
	<time>2023-08-06T10:26:42.000Z</time>
</trkpt>
<trkpt lat="46.0667860" lon="10.4905390">
	<ele>2513.00</ele>
	<time>2023-08-06T10:26:43.000Z</time>
</trkpt>
<trkpt lat="46.0667860" lon="10.4905390">
	<ele>2513.00</ele>
	<time>2023-08-06T10:26:44.000Z</time>
</trkpt>
<trkpt lat="46.0667860" lon="10.4905400">
	<ele>2513.00</ele>
	<time>2023-08-06T10:26:45.000Z</time>
</trkpt>
<trkpt lat="46.0667860" lon="10.4905400">
	<ele>2513.20</ele>
	<time>2023-08-06T10:26:46.000Z</time>
</trkpt>
<trkpt lat="46.0667860" lon="10.4905400">
	<ele>2513.20</ele>
	<time>2023-08-06T10:26:47.000Z</time>
</trkpt>
<trkpt lat="46.0667860" lon="10.4905400">
	<ele>2513.20</ele>
	<time>2023-08-06T10:26:48.000Z</time>
</trkpt>
<trkpt lat="46.0667860" lon="10.4905400">
	<ele>2513.20</ele>
	<time>2023-08-06T10:26:49.000Z</time>
</trkpt>
<trkpt lat="46.0667870" lon="10.4905400">
	<ele>2513.20</ele>
	<time>2023-08-06T10:26:50.000Z</time>
</trkpt>
<trkpt lat="46.0667870" lon="10.4905400">
	<ele>2513.20</ele>
	<time>2023-08-06T10:26:51.000Z</time>
</trkpt>
<trkpt lat="46.0667870" lon="10.4905400">
	<ele>2513.20</ele>
	<time>2023-08-06T10:26:52.000Z</time>
</trkpt>
<trkpt lat="46.0667870" lon="10.4905410">
	<ele>2513.20</ele>
	<time>2023-08-06T10:26:53.000Z</time>
</trkpt>
<trkpt lat="46.0667870" lon="10.4905410">
	<ele>2513.00</ele>
	<time>2023-08-06T10:26:54.000Z</time>
</trkpt>
<trkpt lat="46.0667870" lon="10.4905410">
	<ele>2513.00</ele>
	<time>2023-08-06T10:26:55.000Z</time>
</trkpt>
<trkpt lat="46.0667870" lon="10.4905410">
	<ele>2513.00</ele>
	<time>2023-08-06T10:26:56.000Z</time>
</trkpt>
<trkpt lat="46.0667870" lon="10.4905410">
	<ele>2513.00</ele>
	<time>2023-08-06T10:26:57.000Z</time>
</trkpt>
<trkpt lat="46.0667870" lon="10.4905410">
	<ele>2513.00</ele>
	<time>2023-08-06T10:26:58.000Z</time>
</trkpt>
<trkpt lat="46.0667870" lon="10.4905410">
	<ele>2513.00</ele>
	<time>2023-08-06T10:26:59.000Z</time>
</trkpt>
<trkpt lat="46.0667870" lon="10.4905410">
	<ele>2513.00</ele>
	<time>2023-08-06T10:27:00.000Z</time>
</trkpt>
<trkpt lat="46.0667870" lon="10.4905410">
	<ele>2513.00</ele>
	<time>2023-08-06T10:27:01.000Z</time>
</trkpt>
<trkpt lat="46.0667870" lon="10.4905410">
	<ele>2513.00</ele>
	<time>2023-08-06T10:27:02.000Z</time>
</trkpt>
<trkpt lat="46.0667870" lon="10.4905410">
	<ele>2513.00</ele>
	<time>2023-08-06T10:27:03.000Z</time>
</trkpt>
<trkpt lat="46.0667870" lon="10.4905420">
	<ele>2513.00</ele>
	<time>2023-08-06T10:27:04.000Z</time>
</trkpt>
<trkpt lat="46.0667880" lon="10.4905420">
	<ele>2513.00</ele>
	<time>2023-08-06T10:27:05.000Z</time>
</trkpt>
<trkpt lat="46.0667880" lon="10.4905420">
	<ele>2513.00</ele>
	<time>2023-08-06T10:27:06.000Z</time>
</trkpt>
<trkpt lat="46.0667880" lon="10.4905420">
	<ele>2512.80</ele>
	<time>2023-08-06T10:27:07.000Z</time>
</trkpt>
<trkpt lat="46.0667880" lon="10.4905420">
	<ele>2512.60</ele>
	<time>2023-08-06T10:27:08.000Z</time>
</trkpt>
<trkpt lat="46.0667880" lon="10.4905420">
	<ele>2512.20</ele>
	<time>2023-08-06T10:27:09.000Z</time>
</trkpt>
<trkpt lat="46.0667880" lon="10.4905420">
	<ele>2512.00</ele>
	<time>2023-08-06T10:27:10.000Z</time>
</trkpt>
<trkpt lat="46.0667880" lon="10.4905420">
	<ele>2512.00</ele>
	<time>2023-08-06T10:27:11.000Z</time>
</trkpt>
<trkpt lat="46.0667880" lon="10.4905420">
	<ele>2511.80</ele>
	<time>2023-08-06T10:27:12.000Z</time>
</trkpt>
<trkpt lat="46.0667880" lon="10.4905420">
	<ele>2511.60</ele>
	<time>2023-08-06T10:27:13.000Z</time>
</trkpt>
<trkpt lat="46.0667880" lon="10.4905420">
	<ele>2511.40</ele>
	<time>2023-08-06T10:27:14.000Z</time>
</trkpt>
<trkpt lat="46.0667880" lon="10.4905430">
	<ele>2511.20</ele>
	<time>2023-08-06T10:27:15.000Z</time>
</trkpt>
<trkpt lat="46.0667880" lon="10.4905430">
	<ele>2511.00</ele>
	<time>2023-08-06T10:27:16.000Z</time>
</trkpt>
<trkpt lat="46.0667880" lon="10.4905430">
	<ele>2510.80</ele>
	<time>2023-08-06T10:27:17.000Z</time>
</trkpt>
<trkpt lat="46.0667880" lon="10.4905430">
	<ele>2510.60</ele>
	<time>2023-08-06T10:27:18.000Z</time>
</trkpt>
<trkpt lat="46.0667890" lon="10.4905430">
	<ele>2510.40</ele>
	<time>2023-08-06T10:27:19.000Z</time>
</trkpt>
<trkpt lat="46.0667890" lon="10.4905430">
	<ele>2510.20</ele>
	<time>2023-08-06T10:27:20.000Z</time>
</trkpt>
<trkpt lat="46.0667890" lon="10.4905430">
	<ele>2510.00</ele>
	<time>2023-08-06T10:27:21.000Z</time>
</trkpt>
<trkpt lat="46.0667890" lon="10.4905440">
	<ele>2509.80</ele>
	<time>2023-08-06T10:27:22.000Z</time>
</trkpt>
<trkpt lat="46.0667890" lon="10.4905440">
	<ele>2509.60</ele>
	<time>2023-08-06T10:27:23.000Z</time>
</trkpt>
<trkpt lat="46.0667890" lon="10.4905440">
	<ele>2509.40</ele>
	<time>2023-08-06T10:27:24.000Z</time>
</trkpt>
<trkpt lat="46.0667890" lon="10.4905440">
	<ele>2509.20</ele>
	<time>2023-08-06T10:27:25.000Z</time>
</trkpt>
<trkpt lat="46.0667890" lon="10.4905440">
	<ele>2509.00</ele>
	<time>2023-08-06T10:27:26.000Z</time>
</trkpt>
<trkpt lat="46.0667890" lon="10.4905440">
	<ele>2508.80</ele>
	<time>2023-08-06T10:27:27.000Z</time>
</trkpt>
<trkpt lat="46.0667890" lon="10.4905450">
	<ele>2508.60</ele>
	<time>2023-08-06T10:27:28.000Z</time>
</trkpt>
<trkpt lat="46.0667890" lon="10.4905450">
	<ele>2508.40</ele>
	<time>2023-08-06T10:27:29.000Z</time>
</trkpt>
<trkpt lat="46.0667900" lon="10.4905450">
	<ele>2508.20</ele>
	<time>2023-08-06T10:27:30.000Z</time>
</trkpt>
<trkpt lat="46.0667900" lon="10.4905450">
	<ele>2508.20</ele>
	<time>2023-08-06T10:27:31.000Z</time>
</trkpt>
<trkpt lat="46.0667900" lon="10.4905450">
	<ele>2508.20</ele>
	<time>2023-08-06T10:27:32.000Z</time>
</trkpt>
<trkpt lat="46.0667900" lon="10.4905450">
	<ele>2508.20</ele>
	<time>2023-08-06T10:27:33.000Z</time>
</trkpt>
<trkpt lat="46.0667900" lon="10.4905460">
	<ele>2508.00</ele>
	<time>2023-08-06T10:27:34.000Z</time>
</trkpt>
<trkpt lat="46.0667900" lon="10.4905460">
	<ele>2507.80</ele>
	<time>2023-08-06T10:27:35.000Z</time>
</trkpt>
<trkpt lat="46.0667900" lon="10.4905460">
	<ele>2507.60</ele>
	<time>2023-08-06T10:27:36.000Z</time>
</trkpt>
<trkpt lat="46.0667900" lon="10.4905460">
	<ele>2507.40</ele>
	<time>2023-08-06T10:27:37.000Z</time>
</trkpt>
<trkpt lat="46.0667900" lon="10.4905460">
	<ele>2507.20</ele>
	<time>2023-08-06T10:27:38.000Z</time>
</trkpt>
<trkpt lat="46.0667910" lon="10.4905460">
	<ele>2507.20</ele>
	<time>2023-08-06T10:27:39.000Z</time>
</trkpt>
<trkpt lat="46.0667910" lon="10.4905470">
	<ele>2507.20</ele>
	<time>2023-08-06T10:27:40.000Z</time>
</trkpt>
<trkpt lat="46.0667910" lon="10.4905470">
	<ele>2507.00</ele>
	<time>2023-08-06T10:27:41.000Z</time>
</trkpt>
<trkpt lat="46.0667910" lon="10.4905470">
	<ele>2506.80</ele>
	<time>2023-08-06T10:27:42.000Z</time>
</trkpt>
<trkpt lat="46.0667910" lon="10.4905470">
	<ele>2506.60</ele>
	<time>2023-08-06T10:27:43.000Z</time>
</trkpt>
<trkpt lat="46.0667910" lon="10.4905480">
	<ele>2506.60</ele>
	<time>2023-08-06T10:27:44.000Z</time>
</trkpt>
<trkpt lat="46.0667910" lon="10.4905480">
	<ele>2506.40</ele>
	<time>2023-08-06T10:27:45.000Z</time>
</trkpt>
<trkpt lat="46.0667910" lon="10.4905480">
	<ele>2506.40</ele>
	<time>2023-08-06T10:27:46.000Z</time>
</trkpt>
<trkpt lat="46.0667910" lon="10.4905490">
	<ele>2506.20</ele>
	<time>2023-08-06T10:27:47.000Z</time>
</trkpt>
<trkpt lat="46.0667910" lon="10.4905490">
	<ele>2506.00</ele>
	<time>2023-08-06T10:27:48.000Z</time>
</trkpt>
<trkpt lat="46.0667910" lon="10.4905490">
	<ele>2505.80</ele>
	<time>2023-08-06T10:27:49.000Z</time>
</trkpt>
<trkpt lat="46.0667920" lon="10.4905490">
	<ele>2505.60</ele>
	<time>2023-08-06T10:27:50.000Z</time>
</trkpt>
<trkpt lat="46.0667920" lon="10.4905500">
	<ele>2505.40</ele>
	<time>2023-08-06T10:27:51.000Z</time>
</trkpt>
<trkpt lat="46.0667920" lon="10.4905500">
	<ele>2505.00</ele>
	<time>2023-08-06T10:27:52.000Z</time>
</trkpt>
<trkpt lat="46.0667920" lon="10.4905500">
	<ele>2504.80</ele>
	<time>2023-08-06T10:27:53.000Z</time>
</trkpt>
<trkpt lat="46.0667920" lon="10.4905500">
	<ele>2504.60</ele>
	<time>2023-08-06T10:27:54.000Z</time>
</trkpt>
<trkpt lat="46.0667920" lon="10.4905510">
	<ele>2504.40</ele>
	<time>2023-08-06T10:27:55.000Z</time>
</trkpt>
<trkpt lat="46.0667920" lon="10.4905510">
	<ele>2504.40</ele>
	<time>2023-08-06T10:27:56.000Z</time>
</trkpt>
<trkpt lat="46.0667920" lon="10.4905510">
	<ele>2504.20</ele>
	<time>2023-08-06T10:27:57.000Z</time>
</trkpt>
<trkpt lat="46.0667930" lon="10.4905520">
	<ele>2504.00</ele>
	<time>2023-08-06T10:27:58.000Z</time>
</trkpt>
<trkpt lat="46.0667930" lon="10.4905520">
	<ele>2504.00</ele>
	<time>2023-08-06T10:27:59.000Z</time>
</trkpt>
<trkpt lat="46.0667930" lon="10.4905520">
	<ele>2504.00</ele>
	<time>2023-08-06T10:28:00.000Z</time>
</trkpt>
<trkpt lat="46.0667930" lon="10.4905520">
	<ele>2503.60</ele>
	<time>2023-08-06T10:28:01.000Z</time>
</trkpt>
<trkpt lat="46.0667930" lon="10.4905530">
	<ele>2503.60</ele>
	<time>2023-08-06T10:28:02.000Z</time>
</trkpt>
<trkpt lat="46.0667930" lon="10.4905530">
	<ele>2503.40</ele>
	<time>2023-08-06T10:28:03.000Z</time>
</trkpt>
<trkpt lat="46.0667930" lon="10.4905530">
	<ele>2503.20</ele>
	<time>2023-08-06T10:28:04.000Z</time>
</trkpt>
<trkpt lat="46.0667930" lon="10.4905540">
	<ele>2503.00</ele>
	<time>2023-08-06T10:28:05.000Z</time>
</trkpt>
<trkpt lat="46.0667930" lon="10.4905540">
	<ele>2502.80</ele>
	<time>2023-08-06T10:28:06.000Z</time>
</trkpt>
<trkpt lat="46.0667940" lon="10.4905540">
	<ele>2502.60</ele>
	<time>2023-08-06T10:28:07.000Z</time>
</trkpt>
<trkpt lat="46.0667940" lon="10.4905550">
	<ele>2502.40</ele>
	<time>2023-08-06T10:28:08.000Z</time>
</trkpt>
<trkpt lat="46.0667940" lon="10.4905550">
	<ele>2502.00</ele>
	<time>2023-08-06T10:28:09.000Z</time>
</trkpt>
<trkpt lat="46.0667940" lon="10.4905550">
	<ele>2501.80</ele>
	<time>2023-08-06T10:28:10.000Z</time>
</trkpt>
<trkpt lat="46.0667940" lon="10.4905560">
	<ele>2501.60</ele>
	<time>2023-08-06T10:28:11.000Z</time>
</trkpt>
<trkpt lat="46.0667940" lon="10.4905560">
	<ele>2501.60</ele>
	<time>2023-08-06T10:28:12.000Z</time>
</trkpt>
<trkpt lat="46.0667940" lon="10.4905560">
	<ele>2501.40</ele>
	<time>2023-08-06T10:28:13.000Z</time>
</trkpt>
<trkpt lat="46.0667950" lon="10.4905570">
	<ele>2501.40</ele>
	<time>2023-08-06T10:28:14.000Z</time>
</trkpt>
<trkpt lat="46.0667950" lon="10.4905570">
	<ele>2501.40</ele>
	<time>2023-08-06T10:28:15.000Z</time>
</trkpt>
<trkpt lat="46.0667950" lon="10.4905570">
	<ele>2501.40</ele>
	<time>2023-08-06T10:28:16.000Z</time>
</trkpt>
<trkpt lat="46.0667950" lon="10.4905580">
	<ele>2501.00</ele>
	<time>2023-08-06T10:28:17.000Z</time>
</trkpt>
<trkpt lat="46.0667950" lon="10.4905580">
	<ele>2500.40</ele>
	<time>2023-08-06T10:28:18.000Z</time>
</trkpt>
<trkpt lat="46.0667960" lon="10.4905580">
	<ele>2500.20</ele>
	<time>2023-08-06T10:28:19.000Z</time>
</trkpt>
<trkpt lat="46.0667960" lon="10.4905590">
	<ele>2500.00</ele>
	<time>2023-08-06T10:28:20.000Z</time>
</trkpt>
<trkpt lat="46.0667960" lon="10.4905590">
	<ele>2499.60</ele>
	<time>2023-08-06T10:28:21.000Z</time>
</trkpt>
<trkpt lat="46.0667960" lon="10.4905590">
	<ele>2499.20</ele>
	<time>2023-08-06T10:28:22.000Z</time>
</trkpt>
<trkpt lat="46.0667970" lon="10.4905600">
	<ele>2499.00</ele>
	<time>2023-08-06T10:28:23.000Z</time>
</trkpt>
<trkpt lat="46.0667970" lon="10.4905600">
	<ele>2498.80</ele>
	<time>2023-08-06T10:28:24.000Z</time>
</trkpt>
<trkpt lat="46.0667970" lon="10.4905610">
	<ele>2498.80</ele>
	<time>2023-08-06T10:28:25.000Z</time>
</trkpt>
<trkpt lat="46.0667970" lon="10.4905610">
	<ele>2498.40</ele>
	<time>2023-08-06T10:28:26.000Z</time>
</trkpt>
<trkpt lat="46.0667970" lon="10.4905610">
	<ele>2498.20</ele>
	<time>2023-08-06T10:28:27.000Z</time>
</trkpt>
<trkpt lat="46.0667980" lon="10.4905620">
	<ele>2498.00</ele>
	<time>2023-08-06T10:28:28.000Z</time>
</trkpt>
<trkpt lat="46.0667980" lon="10.4905620">
	<ele>2497.80</ele>
	<time>2023-08-06T10:28:29.000Z</time>
</trkpt>
<trkpt lat="46.0667980" lon="10.4905630">
	<ele>2497.80</ele>
	<time>2023-08-06T10:28:30.000Z</time>
</trkpt>
<trkpt lat="46.0667980" lon="10.4905630">
	<ele>2497.80</ele>
	<time>2023-08-06T10:28:31.000Z</time>
</trkpt>
<trkpt lat="46.0667990" lon="10.4905630">
	<ele>2497.80</ele>
	<time>2023-08-06T10:28:32.000Z</time>
</trkpt>
<trkpt lat="46.0667990" lon="10.4905640">
	<ele>2497.60</ele>
	<time>2023-08-06T10:28:33.000Z</time>
</trkpt>
<trkpt lat="46.0667990" lon="10.4905640">
	<ele>2497.60</ele>
	<time>2023-08-06T10:28:34.000Z</time>
</trkpt>
<trkpt lat="46.0667990" lon="10.4905650">
	<ele>2497.40</ele>
	<time>2023-08-06T10:28:35.000Z</time>
</trkpt>
<trkpt lat="46.0667990" lon="10.4905650">
	<ele>2497.40</ele>
	<time>2023-08-06T10:28:36.000Z</time>
</trkpt>
<trkpt lat="46.0668000" lon="10.4905650">
	<ele>2497.20</ele>
	<time>2023-08-06T10:28:37.000Z</time>
</trkpt>
<trkpt lat="46.0668000" lon="10.4905660">
	<ele>2497.00</ele>
	<time>2023-08-06T10:28:38.000Z</time>
</trkpt>
<trkpt lat="46.0668000" lon="10.4905660">
	<ele>2496.80</ele>
	<time>2023-08-06T10:28:39.000Z</time>
</trkpt>
<trkpt lat="46.0668000" lon="10.4905670">
	<ele>2496.60</ele>
	<time>2023-08-06T10:28:40.000Z</time>
</trkpt>
<trkpt lat="46.0668010" lon="10.4905670">
	<ele>2496.60</ele>
	<time>2023-08-06T10:28:41.000Z</time>
</trkpt>
<trkpt lat="46.0668010" lon="10.4905670">
	<ele>2496.40</ele>
	<time>2023-08-06T10:28:42.000Z</time>
</trkpt>
<trkpt lat="46.0668010" lon="10.4905680">
	<ele>2496.40</ele>
	<time>2023-08-06T10:28:43.000Z</time>
</trkpt>
<trkpt lat="46.0668010" lon="10.4905680">
	<ele>2496.40</ele>
	<time>2023-08-06T10:28:44.000Z</time>
</trkpt>
<trkpt lat="46.0668010" lon="10.4905690">
	<ele>2496.40</ele>
	<time>2023-08-06T10:28:45.000Z</time>
</trkpt>
<trkpt lat="46.0668020" lon="10.4905690">
	<ele>2496.40</ele>
	<time>2023-08-06T10:28:46.000Z</time>
</trkpt>
<trkpt lat="46.0668020" lon="10.4905690">
	<ele>2496.60</ele>
	<time>2023-08-06T10:28:47.000Z</time>
</trkpt>
<trkpt lat="46.0668020" lon="10.4905700">
	<ele>2496.80</ele>
	<time>2023-08-06T10:28:48.000Z</time>
</trkpt>
<trkpt lat="46.0668030" lon="10.4905700">
	<ele>2497.00</ele>
	<time>2023-08-06T10:28:49.000Z</time>
</trkpt>
<trkpt lat="46.0668030" lon="10.4905710">
	<ele>2497.00</ele>
	<time>2023-08-06T10:28:50.000Z</time>
</trkpt>
<trkpt lat="46.0668030" lon="10.4905710">
	<ele>2497.00</ele>
	<time>2023-08-06T10:28:51.000Z</time>
</trkpt>
<trkpt lat="46.0668030" lon="10.4905710">
	<ele>2497.20</ele>
	<time>2023-08-06T10:28:52.000Z</time>
</trkpt>
<trkpt lat="46.0668040" lon="10.4905720">
	<ele>2497.20</ele>
	<time>2023-08-06T10:28:53.000Z</time>
</trkpt>
<trkpt lat="46.0668040" lon="10.4905720">
	<ele>2497.20</ele>
	<time>2023-08-06T10:28:54.000Z</time>
</trkpt>
<trkpt lat="46.0668040" lon="10.4905730">
	<ele>2496.80</ele>
	<time>2023-08-06T10:28:55.000Z</time>
</trkpt>
<trkpt lat="46.0668050" lon="10.4905730">
	<ele>2496.60</ele>
	<time>2023-08-06T10:28:56.000Z</time>
</trkpt>
<trkpt lat="46.0668050" lon="10.4905730">
	<ele>2496.40</ele>
	<time>2023-08-06T10:28:57.000Z</time>
</trkpt>
<trkpt lat="46.0668050" lon="10.4905740">
	<ele>2496.40</ele>
	<time>2023-08-06T10:28:58.000Z</time>
</trkpt>
<trkpt lat="46.0668330" lon="10.4906100">
	<ele>2496.40</ele>
	<time>2023-08-06T10:28:59.000Z</time>
</trkpt>
<trkpt lat="46.0668650" lon="10.4906480">
	<ele>2496.40</ele>
	<time>2023-08-06T10:29:00.000Z</time>
</trkpt>
<trkpt lat="46.0668970" lon="10.4906910">
	<ele>2496.40</ele>
	<time>2023-08-06T10:29:01.000Z</time>
</trkpt>
<trkpt lat="46.0669300" lon="10.4907350">
	<ele>2496.60</ele>
	<time>2023-08-06T10:29:02.000Z</time>
</trkpt>
<trkpt lat="46.0669600" lon="10.4907800">
	<ele>2496.60</ele>
	<time>2023-08-06T10:29:03.000Z</time>
</trkpt>
<trkpt lat="46.0669920" lon="10.4908270">
	<ele>2496.60</ele>
	<time>2023-08-06T10:29:04.000Z</time>
</trkpt>
<trkpt lat="46.0670240" lon="10.4908720">
	<ele>2496.40</ele>
	<time>2023-08-06T10:29:05.000Z</time>
</trkpt>
<trkpt lat="46.0670580" lon="10.4909150">
	<ele>2496.40</ele>
	<time>2023-08-06T10:29:06.000Z</time>
</trkpt>
<trkpt lat="46.0670910" lon="10.4909590">
	<ele>2496.20</ele>
	<time>2023-08-06T10:29:07.000Z</time>
</trkpt>
<trkpt lat="46.0671240" lon="10.4910010">
	<ele>2496.00</ele>
	<time>2023-08-06T10:29:08.000Z</time>
</trkpt>
<trkpt lat="46.0671300" lon="10.4910080">
	<ele>2495.80</ele>
	<time>2023-08-06T10:29:09.000Z</time>
</trkpt>
<trkpt lat="46.0671380" lon="10.4910120">
	<ele>2495.80</ele>
	<time>2023-08-06T10:29:10.000Z</time>
</trkpt>
<trkpt lat="46.0671490" lon="10.4910140">
	<ele>2495.60</ele>
	<time>2023-08-06T10:29:11.000Z</time>
</trkpt>
<trkpt lat="46.0671540" lon="10.4910150">
	<ele>2495.60</ele>
	<time>2023-08-06T10:29:12.000Z</time>
</trkpt>
<trkpt lat="46.0671580" lon="10.4910150">
	<ele>2495.40</ele>
	<time>2023-08-06T10:29:13.000Z</time>
</trkpt>
<trkpt lat="46.0671610" lon="10.4910200">
	<ele>2495.20</ele>
	<time>2023-08-06T10:29:14.000Z</time>
</trkpt>
<trkpt lat="46.0671640" lon="10.4910260">
	<ele>2495.20</ele>
	<time>2023-08-06T10:29:15.000Z</time>
</trkpt>
<trkpt lat="46.0671680" lon="10.4910320">
	<ele>2495.00</ele>
	<time>2023-08-06T10:29:16.000Z</time>
</trkpt>
<trkpt lat="46.0671680" lon="10.4910360">
	<ele>2494.80</ele>
	<time>2023-08-06T10:29:17.000Z</time>
</trkpt>
<trkpt lat="46.0671650" lon="10.4910400">
	<ele>2494.60</ele>
	<time>2023-08-06T10:29:18.000Z</time>
</trkpt>
<trkpt lat="46.0671610" lon="10.4910400">
	<ele>2494.40</ele>
	<time>2023-08-06T10:29:19.000Z</time>
</trkpt>
<trkpt lat="46.0671610" lon="10.4910400">
	<ele>2494.40</ele>
	<time>2023-08-06T10:29:20.000Z</time>
</trkpt>
<trkpt lat="46.0671640" lon="10.4910400">
	<ele>2494.20</ele>
	<time>2023-08-06T10:29:21.000Z</time>
</trkpt>
<trkpt lat="46.0671700" lon="10.4910430">
	<ele>2494.00</ele>
	<time>2023-08-06T10:29:22.000Z</time>
</trkpt>
<trkpt lat="46.0671750" lon="10.4910470">
	<ele>2493.80</ele>
	<time>2023-08-06T10:29:23.000Z</time>
</trkpt>
<trkpt lat="46.0671830" lon="10.4910510">
	<ele>2493.60</ele>
	<time>2023-08-06T10:29:24.000Z</time>
</trkpt>
<trkpt lat="46.0671900" lon="10.4910550">
	<ele>2493.60</ele>
	<time>2023-08-06T10:29:25.000Z</time>
</trkpt>
<trkpt lat="46.0671950" lon="10.4910630">
	<ele>2493.40</ele>
	<time>2023-08-06T10:29:26.000Z</time>
</trkpt>
<trkpt lat="46.0671970" lon="10.4910730">
	<ele>2493.40</ele>
	<time>2023-08-06T10:29:27.000Z</time>
</trkpt>
<trkpt lat="46.0671980" lon="10.4910850">
	<ele>2493.40</ele>
	<time>2023-08-06T10:29:28.000Z</time>
</trkpt>
<trkpt lat="46.0671970" lon="10.4910940">
	<ele>2493.40</ele>
	<time>2023-08-06T10:29:29.000Z</time>
</trkpt>
<trkpt lat="46.0671950" lon="10.4911010">
	<ele>2494.00</ele>
	<time>2023-08-06T10:29:30.000Z</time>
</trkpt>
<trkpt lat="46.0671940" lon="10.4911050">
	<ele>2494.20</ele>
	<time>2023-08-06T10:29:31.000Z</time>
</trkpt>
<trkpt lat="46.0671950" lon="10.4911050">
	<ele>2494.40</ele>
	<time>2023-08-06T10:29:32.000Z</time>
</trkpt>
<trkpt lat="46.0671960" lon="10.4911050">
	<ele>2494.80</ele>
	<time>2023-08-06T10:29:33.000Z</time>
</trkpt>
<trkpt lat="46.0672010" lon="10.4911050">
	<ele>2494.80</ele>
	<time>2023-08-06T10:29:34.000Z</time>
</trkpt>
<trkpt lat="46.0672030" lon="10.4911090">
	<ele>2495.00</ele>
	<time>2023-08-06T10:29:35.000Z</time>
</trkpt>
<trkpt lat="46.0672030" lon="10.4911140">
	<ele>2495.20</ele>
	<time>2023-08-06T10:29:36.000Z</time>
</trkpt>
<trkpt lat="46.0672030" lon="10.4911180">
	<ele>2495.40</ele>
	<time>2023-08-06T10:29:37.000Z</time>
</trkpt>
<trkpt lat="46.0672040" lon="10.4911200">
	<ele>2495.60</ele>
	<time>2023-08-06T10:29:38.000Z</time>
</trkpt>
<trkpt lat="46.0672060" lon="10.4911250">
	<ele>2495.60</ele>
	<time>2023-08-06T10:29:39.000Z</time>
</trkpt>
<trkpt lat="46.0672090" lon="10.4911270">
	<ele>2495.80</ele>
	<time>2023-08-06T10:29:40.000Z</time>
</trkpt>
<trkpt lat="46.0672130" lon="10.4911290">
	<ele>2496.00</ele>
	<time>2023-08-06T10:29:41.000Z</time>
</trkpt>
<trkpt lat="46.0672170" lon="10.4911320">
	<ele>2496.20</ele>
	<time>2023-08-06T10:29:42.000Z</time>
</trkpt>
<trkpt lat="46.0672240" lon="10.4911350">
	<ele>2496.80</ele>
	<time>2023-08-06T10:29:43.000Z</time>
</trkpt>
<trkpt lat="46.0672310" lon="10.4911370">
	<ele>2497.00</ele>
	<time>2023-08-06T10:29:44.000Z</time>
</trkpt>
<trkpt lat="46.0672320" lon="10.4911420">
	<ele>2497.40</ele>
	<time>2023-08-06T10:29:45.000Z</time>
</trkpt>
<trkpt lat="46.0672320" lon="10.4911500">
	<ele>2497.60</ele>
	<time>2023-08-06T10:29:46.000Z</time>
</trkpt>
<trkpt lat="46.0672310" lon="10.4911550">
	<ele>2498.00</ele>
	<time>2023-08-06T10:29:47.000Z</time>
</trkpt>
<trkpt lat="46.0672310" lon="10.4911580">
	<ele>2498.00</ele>
	<time>2023-08-06T10:29:48.000Z</time>
</trkpt>
<trkpt lat="46.0672330" lon="10.4911610">
	<ele>2498.20</ele>
	<time>2023-08-06T10:29:49.000Z</time>
</trkpt>
<trkpt lat="46.0672330" lon="10.4911690">
	<ele>2498.20</ele>
	<time>2023-08-06T10:29:50.000Z</time>
</trkpt>
<trkpt lat="46.0672320" lon="10.4911730">
	<ele>2498.20</ele>
	<time>2023-08-06T10:29:51.000Z</time>
</trkpt>
<trkpt lat="46.0672320" lon="10.4911740">
	<ele>2498.40</ele>
	<time>2023-08-06T10:29:52.000Z</time>
</trkpt>
<trkpt lat="46.0672330" lon="10.4911760">
	<ele>2498.40</ele>
	<time>2023-08-06T10:29:53.000Z</time>
</trkpt>
<trkpt lat="46.0672350" lon="10.4911820">
	<ele>2498.40</ele>
	<time>2023-08-06T10:29:54.000Z</time>
</trkpt>
<trkpt lat="46.0672370" lon="10.4911880">
	<ele>2498.60</ele>
	<time>2023-08-06T10:29:55.000Z</time>
</trkpt>
<trkpt lat="46.0672410" lon="10.4911910">
	<ele>2498.80</ele>
	<time>2023-08-06T10:29:56.000Z</time>
</trkpt>
<trkpt lat="46.0672480" lon="10.4911920">
	<ele>2498.80</ele>
	<time>2023-08-06T10:29:57.000Z</time>
</trkpt>
<trkpt lat="46.0672550" lon="10.4911920">
	<ele>2499.00</ele>
	<time>2023-08-06T10:29:58.000Z</time>
</trkpt>
<trkpt lat="46.0672590" lon="10.4911860">
	<ele>2499.20</ele>
	<time>2023-08-06T10:29:59.000Z</time>
</trkpt>
<trkpt lat="46.0672610" lon="10.4911860">
	<ele>2499.40</ele>
	<time>2023-08-06T10:30:00.000Z</time>
</trkpt>
<trkpt lat="46.0672650" lon="10.4911820">
	<ele>2499.40</ele>
	<time>2023-08-06T10:30:01.000Z</time>
</trkpt>
<trkpt lat="46.0672690" lon="10.4911820">
	<ele>2499.60</ele>
	<time>2023-08-06T10:30:02.000Z</time>
</trkpt>
<trkpt lat="46.0672750" lon="10.4911870">
	<ele>2499.60</ele>
	<time>2023-08-06T10:30:03.000Z</time>
</trkpt>
<trkpt lat="46.0672800" lon="10.4911880">
	<ele>2499.80</ele>
	<time>2023-08-06T10:30:04.000Z</time>
</trkpt>
<trkpt lat="46.0672840" lon="10.4911870">
	<ele>2500.20</ele>
	<time>2023-08-06T10:30:05.000Z</time>
</trkpt>
<trkpt lat="46.0672840" lon="10.4911830">
	<ele>2500.40</ele>
	<time>2023-08-06T10:30:06.000Z</time>
</trkpt>
<trkpt lat="46.0672860" lon="10.4911820">
	<ele>2500.60</ele>
	<time>2023-08-06T10:30:07.000Z</time>
</trkpt>
<trkpt lat="46.0672880" lon="10.4911820">
	<ele>2500.60</ele>
	<time>2023-08-06T10:30:08.000Z</time>
</trkpt>
<trkpt lat="46.0672900" lon="10.4911810">
	<ele>2500.80</ele>
	<time>2023-08-06T10:30:09.000Z</time>
</trkpt>
<trkpt lat="46.0672930" lon="10.4911800">
	<ele>2501.00</ele>
	<time>2023-08-06T10:30:10.000Z</time>
</trkpt>
<trkpt lat="46.0672970" lon="10.4911800">
	<ele>2501.00</ele>
	<time>2023-08-06T10:30:11.000Z</time>
</trkpt>
<trkpt lat="46.0672980" lon="10.4911790">
	<ele>2501.00</ele>
	<time>2023-08-06T10:30:12.000Z</time>
</trkpt>
<trkpt lat="46.0672930" lon="10.4911780">
	<ele>2501.00</ele>
	<time>2023-08-06T10:30:13.000Z</time>
</trkpt>
<trkpt lat="46.0672910" lon="10.4911780">
	<ele>2501.00</ele>
	<time>2023-08-06T10:30:14.000Z</time>
</trkpt>
<trkpt lat="46.0672900" lon="10.4911780">
	<ele>2501.00</ele>
	<time>2023-08-06T10:30:15.000Z</time>
</trkpt>
<trkpt lat="46.0672890" lon="10.4911780">
	<ele>2501.20</ele>
	<time>2023-08-06T10:30:16.000Z</time>
</trkpt>
<trkpt lat="46.0672880" lon="10.4911790">
	<ele>2501.00</ele>
	<time>2023-08-06T10:30:17.000Z</time>
</trkpt>
<trkpt lat="46.0672880" lon="10.4911790">
	<ele>2501.00</ele>
	<time>2023-08-06T10:30:18.000Z</time>
</trkpt>
<trkpt lat="46.0672880" lon="10.4911790">
	<ele>2501.00</ele>
	<time>2023-08-06T10:30:19.000Z</time>
</trkpt>
<trkpt lat="46.0672880" lon="10.4911790">
	<ele>2501.00</ele>
	<time>2023-08-06T10:30:20.000Z</time>
</trkpt>
<trkpt lat="46.0672880" lon="10.4911790">
	<ele>2501.00</ele>
	<time>2023-08-06T10:30:21.000Z</time>
</trkpt>
<trkpt lat="46.0672880" lon="10.4911790">
	<ele>2501.20</ele>
	<time>2023-08-06T10:30:22.000Z</time>
</trkpt>
<trkpt lat="46.0672880" lon="10.4911790">
	<ele>2501.20</ele>
	<time>2023-08-06T10:30:23.000Z</time>
</trkpt>
<trkpt lat="46.0672880" lon="10.4911790">
	<ele>2501.20</ele>
	<time>2023-08-06T10:30:24.000Z</time>
</trkpt>
<trkpt lat="46.0672880" lon="10.4911790">
	<ele>2501.00</ele>
	<time>2023-08-06T10:30:25.000Z</time>
</trkpt>
<trkpt lat="46.0672880" lon="10.4911790">
	<ele>2501.00</ele>
	<time>2023-08-06T10:30:26.000Z</time>
</trkpt>
<trkpt lat="46.0672880" lon="10.4911790">
	<ele>2501.00</ele>
	<time>2023-08-06T10:30:27.000Z</time>
</trkpt>
<trkpt lat="46.0672880" lon="10.4911790">
	<ele>2501.00</ele>
	<time>2023-08-06T10:30:28.000Z</time>
</trkpt>
<trkpt lat="46.0672880" lon="10.4911790">
	<ele>2501.00</ele>
	<time>2023-08-06T10:30:29.000Z</time>
</trkpt>
<trkpt lat="46.0672880" lon="10.4911790">
	<ele>2501.00</ele>
	<time>2023-08-06T10:30:30.000Z</time>
</trkpt>
<trkpt lat="46.0672880" lon="10.4911790">
	<ele>2501.00</ele>
	<time>2023-08-06T10:30:31.000Z</time>
</trkpt>
<trkpt lat="46.0672880" lon="10.4911790">
	<ele>2501.00</ele>
	<time>2023-08-06T10:30:32.000Z</time>
</trkpt>
<trkpt lat="46.0672880" lon="10.4911790">
	<ele>2501.00</ele>
	<time>2023-08-06T10:30:33.000Z</time>
</trkpt>
<trkpt lat="46.0672880" lon="10.4911790">
	<ele>2501.00</ele>
	<time>2023-08-06T10:30:34.000Z</time>
</trkpt>
<trkpt lat="46.0672880" lon="10.4911790">
	<ele>2501.00</ele>
	<time>2023-08-06T10:30:35.000Z</time>
</trkpt>
<trkpt lat="46.0672880" lon="10.4911790">
	<ele>2501.00</ele>
	<time>2023-08-06T10:30:36.000Z</time>
</trkpt>
<trkpt lat="46.0672870" lon="10.4911790">
	<ele>2501.20</ele>
	<time>2023-08-06T10:30:37.000Z</time>
</trkpt>
<trkpt lat="46.0672870" lon="10.4911780">
	<ele>2501.20</ele>
	<time>2023-08-06T10:30:38.000Z</time>
</trkpt>
<trkpt lat="46.0672870" lon="10.4911780">
	<ele>2501.20</ele>
	<time>2023-08-06T10:30:39.000Z</time>
</trkpt>
<trkpt lat="46.0672870" lon="10.4911780">
	<ele>2501.20</ele>
	<time>2023-08-06T10:30:40.000Z</time>
</trkpt>
<trkpt lat="46.0672870" lon="10.4911780">
	<ele>2501.20</ele>
	<time>2023-08-06T10:30:41.000Z</time>
</trkpt>
<trkpt lat="46.0672870" lon="10.4911770">
	<ele>2501.20</ele>
	<time>2023-08-06T10:30:42.000Z</time>
</trkpt>
<trkpt lat="46.0672870" lon="10.4911770">
	<ele>2501.20</ele>
	<time>2023-08-06T10:30:43.000Z</time>
</trkpt>
<trkpt lat="46.0672870" lon="10.4911770">
	<ele>2501.20</ele>
	<time>2023-08-06T10:30:44.000Z</time>
</trkpt>
<trkpt lat="46.0672870" lon="10.4911770">
	<ele>2501.20</ele>
	<time>2023-08-06T10:30:45.000Z</time>
</trkpt>
<trkpt lat="46.0672870" lon="10.4911770">
	<ele>2501.20</ele>
	<time>2023-08-06T10:30:46.000Z</time>
</trkpt>
<trkpt lat="46.0672870" lon="10.4911770">
	<ele>2501.00</ele>
	<time>2023-08-06T10:30:47.000Z</time>
</trkpt>
<trkpt lat="46.0672860" lon="10.4911760">
	<ele>2501.00</ele>
	<time>2023-08-06T10:30:48.000Z</time>
</trkpt>
<trkpt lat="46.0672860" lon="10.4911760">
	<ele>2501.00</ele>
	<time>2023-08-06T10:30:49.000Z</time>
</trkpt>
<trkpt lat="46.0672860" lon="10.4911760">
	<ele>2500.80</ele>
	<time>2023-08-06T10:30:50.000Z</time>
</trkpt>
<trkpt lat="46.0672860" lon="10.4911760">
	<ele>2500.80</ele>
	<time>2023-08-06T10:30:51.000Z</time>
</trkpt>
<trkpt lat="46.0672860" lon="10.4911760">
	<ele>2500.80</ele>
	<time>2023-08-06T10:30:52.000Z</time>
</trkpt>
<trkpt lat="46.0672860" lon="10.4911760">
	<ele>2500.80</ele>
	<time>2023-08-06T10:30:53.000Z</time>
</trkpt>
<trkpt lat="46.0672860" lon="10.4911760">
	<ele>2500.60</ele>
	<time>2023-08-06T10:30:54.000Z</time>
</trkpt>
<trkpt lat="46.0672860" lon="10.4911760">
	<ele>2500.60</ele>
	<time>2023-08-06T10:30:55.000Z</time>
</trkpt>
<trkpt lat="46.0672860" lon="10.4911760">
	<ele>2500.60</ele>
	<time>2023-08-06T10:30:56.000Z</time>
</trkpt>
<trkpt lat="46.0672860" lon="10.4911760">
	<ele>2500.80</ele>
	<time>2023-08-06T10:30:57.000Z</time>
</trkpt>
<trkpt lat="46.0672860" lon="10.4911760">
	<ele>2500.80</ele>
	<time>2023-08-06T10:30:58.000Z</time>
</trkpt>
<trkpt lat="46.0672860" lon="10.4911760">
	<ele>2500.80</ele>
	<time>2023-08-06T10:30:59.000Z</time>
</trkpt>
<trkpt lat="46.0672860" lon="10.4911760">
	<ele>2500.80</ele>
	<time>2023-08-06T10:31:00.000Z</time>
</trkpt>
<trkpt lat="46.0672860" lon="10.4911760">
	<ele>2500.80</ele>
	<time>2023-08-06T10:31:01.000Z</time>
</trkpt>
<trkpt lat="46.0672860" lon="10.4911760">
	<ele>2500.80</ele>
	<time>2023-08-06T10:31:02.000Z</time>
</trkpt>
<trkpt lat="46.0672860" lon="10.4911760">
	<ele>2500.80</ele>
	<time>2023-08-06T10:31:03.000Z</time>
</trkpt>
<trkpt lat="46.0672860" lon="10.4911760">
	<ele>2500.80</ele>
	<time>2023-08-06T10:31:04.000Z</time>
</trkpt>
<trkpt lat="46.0672860" lon="10.4911760">
	<ele>2500.80</ele>
	<time>2023-08-06T10:31:05.000Z</time>
</trkpt>
<trkpt lat="46.0672860" lon="10.4911760">
	<ele>2500.80</ele>
	<time>2023-08-06T10:31:06.000Z</time>
</trkpt>
<trkpt lat="46.0672870" lon="10.4911760">
	<ele>2500.80</ele>
	<time>2023-08-06T10:31:07.000Z</time>
</trkpt>
<trkpt lat="46.0672870" lon="10.4911770">
	<ele>2500.80</ele>
	<time>2023-08-06T10:31:08.000Z</time>
</trkpt>
<trkpt lat="46.0672870" lon="10.4911780">
	<ele>2500.80</ele>
	<time>2023-08-06T10:31:09.000Z</time>
</trkpt>
<trkpt lat="46.0672870" lon="10.4911820">
	<ele>2500.80</ele>
	<time>2023-08-06T10:31:10.000Z</time>
</trkpt>
<trkpt lat="46.0672870" lon="10.4911830">
	<ele>2500.80</ele>
	<time>2023-08-06T10:31:11.000Z</time>
</trkpt>
<trkpt lat="46.0672880" lon="10.4911840">
	<ele>2500.80</ele>
	<time>2023-08-06T10:31:12.000Z</time>
</trkpt>
<trkpt lat="46.0672880" lon="10.4911840">
	<ele>2500.80</ele>
	<time>2023-08-06T10:31:13.000Z</time>
</trkpt>
<trkpt lat="46.0672890" lon="10.4911840">
	<ele>2500.60</ele>
	<time>2023-08-06T10:31:14.000Z</time>
</trkpt>
<trkpt lat="46.0672890" lon="10.4911850">
	<ele>2500.40</ele>
	<time>2023-08-06T10:31:15.000Z</time>
</trkpt>
<trkpt lat="46.0672890" lon="10.4911850">
	<ele>2500.20</ele>
	<time>2023-08-06T10:31:16.000Z</time>
</trkpt>
<trkpt lat="46.0672890" lon="10.4911860">
	<ele>2500.00</ele>
	<time>2023-08-06T10:31:17.000Z</time>
</trkpt>
<trkpt lat="46.0672890" lon="10.4911860">
	<ele>2499.80</ele>
	<time>2023-08-06T10:31:18.000Z</time>
</trkpt>
<trkpt lat="46.0672890" lon="10.4911870">
	<ele>2499.40</ele>
	<time>2023-08-06T10:31:19.000Z</time>
</trkpt>
<trkpt lat="46.0672930" lon="10.4911920">
	<ele>2499.20</ele>
	<time>2023-08-06T10:31:20.000Z</time>
</trkpt>
<trkpt lat="46.0673050" lon="10.4912010">
	<ele>2499.00</ele>
	<time>2023-08-06T10:31:21.000Z</time>
</trkpt>
<trkpt lat="46.0673140" lon="10.4912050">
	<ele>2499.00</ele>
	<time>2023-08-06T10:31:22.000Z</time>
</trkpt>
<trkpt lat="46.0673250" lon="10.4912080">
	<ele>2499.00</ele>
	<time>2023-08-06T10:31:23.000Z</time>
</trkpt>
<trkpt lat="46.0673370" lon="10.4912140">
	<ele>2498.80</ele>
	<time>2023-08-06T10:31:24.000Z</time>
</trkpt>
<trkpt lat="46.0673520" lon="10.4912230">
	<ele>2498.80</ele>
	<time>2023-08-06T10:31:25.000Z</time>
</trkpt>
<trkpt lat="46.0673650" lon="10.4912320">
	<ele>2498.80</ele>
	<time>2023-08-06T10:31:26.000Z</time>
</trkpt>
<trkpt lat="46.0673770" lon="10.4912390">
	<ele>2498.80</ele>
	<time>2023-08-06T10:31:27.000Z</time>
</trkpt>
<trkpt lat="46.0673840" lon="10.4912470">
	<ele>2498.60</ele>
	<time>2023-08-06T10:31:28.000Z</time>
</trkpt>
<trkpt lat="46.0673920" lon="10.4912550">
	<ele>2498.40</ele>
	<time>2023-08-06T10:31:29.000Z</time>
</trkpt>
<trkpt lat="46.0673960" lon="10.4912580">
	<ele>2498.20</ele>
	<time>2023-08-06T10:31:30.000Z</time>
</trkpt>
<trkpt lat="46.0674010" lon="10.4912620">
	<ele>2498.00</ele>
	<time>2023-08-06T10:31:31.000Z</time>
</trkpt>
<trkpt lat="46.0674040" lon="10.4912680">
	<ele>2497.60</ele>
	<time>2023-08-06T10:31:32.000Z</time>
</trkpt>
<trkpt lat="46.0674100" lon="10.4912740">
	<ele>2497.20</ele>
	<time>2023-08-06T10:31:33.000Z</time>
</trkpt>
<trkpt lat="46.0674150" lon="10.4912850">
	<ele>2496.80</ele>
	<time>2023-08-06T10:31:34.000Z</time>
</trkpt>
<trkpt lat="46.0674230" lon="10.4912980">
	<ele>2496.60</ele>
	<time>2023-08-06T10:31:35.000Z</time>
</trkpt>
<trkpt lat="46.0674300" lon="10.4913050">
	<ele>2496.40</ele>
	<time>2023-08-06T10:31:36.000Z</time>
</trkpt>
<trkpt lat="46.0674380" lon="10.4913140">
	<ele>2496.20</ele>
	<time>2023-08-06T10:31:37.000Z</time>
</trkpt>
<trkpt lat="46.0674420" lon="10.4913240">
	<ele>2496.20</ele>
	<time>2023-08-06T10:31:38.000Z</time>
</trkpt>
<trkpt lat="46.0674470" lon="10.4913340">
	<ele>2496.00</ele>
	<time>2023-08-06T10:31:39.000Z</time>
</trkpt>
<trkpt lat="46.0674510" lon="10.4913440">
	<ele>2496.00</ele>
	<time>2023-08-06T10:31:40.000Z</time>
</trkpt>
<trkpt lat="46.0674520" lon="10.4913530">
	<ele>2495.80</ele>
	<time>2023-08-06T10:31:41.000Z</time>
</trkpt>
<trkpt lat="46.0674550" lon="10.4913610">
	<ele>2495.80</ele>
	<time>2023-08-06T10:31:42.000Z</time>
</trkpt>
<trkpt lat="46.0674600" lon="10.4913730">
	<ele>2495.60</ele>
	<time>2023-08-06T10:31:43.000Z</time>
</trkpt>
<trkpt lat="46.0674640" lon="10.4913800">
	<ele>2495.20</ele>
	<time>2023-08-06T10:31:44.000Z</time>
</trkpt>
<trkpt lat="46.0674640" lon="10.4913860">
	<ele>2495.00</ele>
	<time>2023-08-06T10:31:45.000Z</time>
</trkpt>
<trkpt lat="46.0674640" lon="10.4913930">
	<ele>2494.80</ele>
	<time>2023-08-06T10:31:46.000Z</time>
</trkpt>
<trkpt lat="46.0674660" lon="10.4913990">
	<ele>2494.80</ele>
	<time>2023-08-06T10:31:47.000Z</time>
</trkpt>
<trkpt lat="46.0674670" lon="10.4914040">
	<ele>2494.60</ele>
	<time>2023-08-06T10:31:48.000Z</time>
</trkpt>
<trkpt lat="46.0674680" lon="10.4914120">
	<ele>2494.60</ele>
	<time>2023-08-06T10:31:49.000Z</time>
</trkpt>
<trkpt lat="46.0674670" lon="10.4914210">
	<ele>2494.60</ele>
	<time>2023-08-06T10:31:50.000Z</time>
</trkpt>
<trkpt lat="46.0674700" lon="10.4914290">
	<ele>2494.40</ele>
	<time>2023-08-06T10:31:51.000Z</time>
</trkpt>
<trkpt lat="46.0674740" lon="10.4914390">
	<ele>2494.20</ele>
	<time>2023-08-06T10:31:52.000Z</time>
</trkpt>
<trkpt lat="46.0674780" lon="10.4914470">
	<ele>2494.00</ele>
	<time>2023-08-06T10:31:53.000Z</time>
</trkpt>
<trkpt lat="46.0674860" lon="10.4914550">
	<ele>2493.60</ele>
	<time>2023-08-06T10:31:54.000Z</time>
</trkpt>
<trkpt lat="46.0674970" lon="10.4914610">
	<ele>2493.40</ele>
	<time>2023-08-06T10:31:55.000Z</time>
</trkpt>
<trkpt lat="46.0675050" lon="10.4914700">
	<ele>2493.20</ele>
	<time>2023-08-06T10:31:56.000Z</time>
</trkpt>
<trkpt lat="46.0675120" lon="10.4914780">
	<ele>2493.00</ele>
	<time>2023-08-06T10:31:57.000Z</time>
</trkpt>
<trkpt lat="46.0675180" lon="10.4914850">
	<ele>2493.00</ele>
	<time>2023-08-06T10:31:58.000Z</time>
</trkpt>
<trkpt lat="46.0675220" lon="10.4914910">
	<ele>2492.80</ele>
	<time>2023-08-06T10:31:59.000Z</time>
</trkpt>
<trkpt lat="46.0675280" lon="10.4915000">
	<ele>2492.80</ele>
	<time>2023-08-06T10:32:00.000Z</time>
</trkpt>
<trkpt lat="46.0675320" lon="10.4915120">
	<ele>2492.80</ele>
	<time>2023-08-06T10:32:01.000Z</time>
</trkpt>
<trkpt lat="46.0675300" lon="10.4915230">
	<ele>2492.60</ele>
	<time>2023-08-06T10:32:02.000Z</time>
</trkpt>
<trkpt lat="46.0675310" lon="10.4915340">
	<ele>2492.60</ele>
	<time>2023-08-06T10:32:03.000Z</time>
</trkpt>
<trkpt lat="46.0675290" lon="10.4915460">
	<ele>2493.00</ele>
	<time>2023-08-06T10:32:04.000Z</time>
</trkpt>
<trkpt lat="46.0675260" lon="10.4915560">
	<ele>2493.20</ele>
	<time>2023-08-06T10:32:05.000Z</time>
</trkpt>
<trkpt lat="46.0675220" lon="10.4915620">
	<ele>2493.40</ele>
	<time>2023-08-06T10:32:06.000Z</time>
</trkpt>
<trkpt lat="46.0675250" lon="10.4915650">
	<ele>2493.60</ele>
	<time>2023-08-06T10:32:07.000Z</time>
</trkpt>
<trkpt lat="46.0675290" lon="10.4915720">
	<ele>2493.60</ele>
	<time>2023-08-06T10:32:08.000Z</time>
</trkpt>
<trkpt lat="46.0675310" lon="10.4915780">
	<ele>2493.80</ele>
	<time>2023-08-06T10:32:09.000Z</time>
</trkpt>
<trkpt lat="46.0675330" lon="10.4915850">
	<ele>2494.00</ele>
	<time>2023-08-06T10:32:10.000Z</time>
</trkpt>
<trkpt lat="46.0675360" lon="10.4915910">
	<ele>2494.20</ele>
	<time>2023-08-06T10:32:11.000Z</time>
</trkpt>
<trkpt lat="46.0675380" lon="10.4916010">
	<ele>2494.20</ele>
	<time>2023-08-06T10:32:12.000Z</time>
</trkpt>
<trkpt lat="46.0675370" lon="10.4916120">
	<ele>2494.20</ele>
	<time>2023-08-06T10:32:13.000Z</time>
</trkpt>
<trkpt lat="46.0675400" lon="10.4916210">
	<ele>2494.20</ele>
	<time>2023-08-06T10:32:14.000Z</time>
</trkpt>
<trkpt lat="46.0675380" lon="10.4916270">
	<ele>2494.20</ele>
	<time>2023-08-06T10:32:15.000Z</time>
</trkpt>
<trkpt lat="46.0675370" lon="10.4916310">
	<ele>2494.20</ele>
	<time>2023-08-06T10:32:16.000Z</time>
</trkpt>
<trkpt lat="46.0675450" lon="10.4916310">
	<ele>2494.20</ele>
	<time>2023-08-06T10:32:17.000Z</time>
</trkpt>
<trkpt lat="46.0675580" lon="10.4916310">
	<ele>2494.40</ele>
	<time>2023-08-06T10:32:18.000Z</time>
</trkpt>
<trkpt lat="46.0675670" lon="10.4916340">
	<ele>2494.40</ele>
	<time>2023-08-06T10:32:19.000Z</time>
</trkpt>
<trkpt lat="46.0675720" lon="10.4916390">
	<ele>2494.40</ele>
	<time>2023-08-06T10:32:20.000Z</time>
</trkpt>
<trkpt lat="46.0675790" lon="10.4916440">
	<ele>2494.40</ele>
	<time>2023-08-06T10:32:21.000Z</time>
</trkpt>
<trkpt lat="46.0675860" lon="10.4916490">
	<ele>2494.40</ele>
	<time>2023-08-06T10:32:22.000Z</time>
</trkpt>
<trkpt lat="46.0675930" lon="10.4916530">
	<ele>2494.60</ele>
	<time>2023-08-06T10:32:23.000Z</time>
</trkpt>
<trkpt lat="46.0675960" lon="10.4916560">
	<ele>2494.60</ele>
	<time>2023-08-06T10:32:24.000Z</time>
</trkpt>
<trkpt lat="46.0675950" lon="10.4916710">
	<ele>2494.60</ele>
	<time>2023-08-06T10:32:25.000Z</time>
</trkpt>
<trkpt lat="46.0675920" lon="10.4916870">
	<ele>2494.80</ele>
	<time>2023-08-06T10:32:26.000Z</time>
</trkpt>
<trkpt lat="46.0675910" lon="10.4916960">
	<ele>2494.80</ele>
	<time>2023-08-06T10:32:27.000Z</time>
</trkpt>
<trkpt lat="46.0675930" lon="10.4917020">
	<ele>2495.00</ele>
	<time>2023-08-06T10:32:28.000Z</time>
</trkpt>
<trkpt lat="46.0675950" lon="10.4917020">
	<ele>2495.20</ele>
	<time>2023-08-06T10:32:29.000Z</time>
</trkpt>
<trkpt lat="46.0675920" lon="10.4917140">
	<ele>2495.20</ele>
	<time>2023-08-06T10:32:30.000Z</time>
</trkpt>
<trkpt lat="46.0675920" lon="10.4917230">
	<ele>2495.40</ele>
	<time>2023-08-06T10:32:31.000Z</time>
</trkpt>
<trkpt lat="46.0675930" lon="10.4917350">
	<ele>2495.40</ele>
	<time>2023-08-06T10:32:32.000Z</time>
</trkpt>
<trkpt lat="46.0675950" lon="10.4917480">
	<ele>2495.60</ele>
	<time>2023-08-06T10:32:33.000Z</time>
</trkpt>
<trkpt lat="46.0675980" lon="10.4917550">
	<ele>2495.80</ele>
	<time>2023-08-06T10:32:34.000Z</time>
</trkpt>
<trkpt lat="46.0676000" lon="10.4917660">
	<ele>2496.00</ele>
	<time>2023-08-06T10:32:35.000Z</time>
</trkpt>
<trkpt lat="46.0676020" lon="10.4917790">
	<ele>2496.00</ele>
	<time>2023-08-06T10:32:36.000Z</time>
</trkpt>
<trkpt lat="46.0676050" lon="10.4917870">
	<ele>2496.00</ele>
	<time>2023-08-06T10:32:37.000Z</time>
</trkpt>
<trkpt lat="46.0676110" lon="10.4917940">
	<ele>2496.20</ele>
	<time>2023-08-06T10:32:38.000Z</time>
</trkpt>
<trkpt lat="46.0676130" lon="10.4917990">
	<ele>2496.20</ele>
	<time>2023-08-06T10:32:39.000Z</time>
</trkpt>
<trkpt lat="46.0676170" lon="10.4918020">
	<ele>2496.60</ele>
	<time>2023-08-06T10:32:40.000Z</time>
</trkpt>
<trkpt lat="46.0676180" lon="10.4918070">
	<ele>2496.80</ele>
	<time>2023-08-06T10:32:41.000Z</time>
</trkpt>
<trkpt lat="46.0676160" lon="10.4918160">
	<ele>2497.00</ele>
	<time>2023-08-06T10:32:42.000Z</time>
</trkpt>
<trkpt lat="46.0676170" lon="10.4918250">
	<ele>2497.20</ele>
	<time>2023-08-06T10:32:43.000Z</time>
</trkpt>
<trkpt lat="46.0676200" lon="10.4918320">
	<ele>2497.40</ele>
	<time>2023-08-06T10:32:44.000Z</time>
</trkpt>
<trkpt lat="46.0676200" lon="10.4918370">
	<ele>2497.60</ele>
	<time>2023-08-06T10:32:45.000Z</time>
</trkpt>
<trkpt lat="46.0676250" lon="10.4918430">
	<ele>2497.80</ele>
	<time>2023-08-06T10:32:46.000Z</time>
</trkpt>
<trkpt lat="46.0676280" lon="10.4918470">
	<ele>2498.00</ele>
	<time>2023-08-06T10:32:47.000Z</time>
</trkpt>
<trkpt lat="46.0676330" lon="10.4918500">
	<ele>2498.20</ele>
	<time>2023-08-06T10:32:48.000Z</time>
</trkpt>
<trkpt lat="46.0676340" lon="10.4918530">
	<ele>2498.40</ele>
	<time>2023-08-06T10:32:49.000Z</time>
</trkpt>
<trkpt lat="46.0676360" lon="10.4918590">
	<ele>2498.60</ele>
	<time>2023-08-06T10:32:50.000Z</time>
</trkpt>
<trkpt lat="46.0676390" lon="10.4918610">
	<ele>2498.80</ele>
	<time>2023-08-06T10:32:51.000Z</time>
</trkpt>
<trkpt lat="46.0676430" lon="10.4918650">
	<ele>2499.20</ele>
	<time>2023-08-06T10:32:52.000Z</time>
</trkpt>
<trkpt lat="46.0676410" lon="10.4918670">
	<ele>2499.40</ele>
	<time>2023-08-06T10:32:53.000Z</time>
</trkpt>
<trkpt lat="46.0676400" lon="10.4918740">
	<ele>2499.60</ele>
	<time>2023-08-06T10:32:54.000Z</time>
</trkpt>
<trkpt lat="46.0676440" lon="10.4918740">
	<ele>2499.80</ele>
	<time>2023-08-06T10:32:55.000Z</time>
</trkpt>
<trkpt lat="46.0676530" lon="10.4918800">
	<ele>2500.00</ele>
	<time>2023-08-06T10:32:56.000Z</time>
</trkpt>
<trkpt lat="46.0676540" lon="10.4918840">
	<ele>2500.20</ele>
	<time>2023-08-06T10:32:57.000Z</time>
</trkpt>
<trkpt lat="46.0676560" lon="10.4918890">
	<ele>2500.20</ele>
	<time>2023-08-06T10:32:58.000Z</time>
</trkpt>
<trkpt lat="46.0676590" lon="10.4918950">
	<ele>2500.20</ele>
	<time>2023-08-06T10:32:59.000Z</time>
</trkpt>
<trkpt lat="46.0676610" lon="10.4919000">
	<ele>2500.40</ele>
	<time>2023-08-06T10:33:00.000Z</time>
</trkpt>
<trkpt lat="46.0676650" lon="10.4919040">
	<ele>2500.40</ele>
	<time>2023-08-06T10:33:01.000Z</time>
</trkpt>
<trkpt lat="46.0676680" lon="10.4919100">
	<ele>2500.40</ele>
	<time>2023-08-06T10:33:02.000Z</time>
</trkpt>
<trkpt lat="46.0676720" lon="10.4919160">
	<ele>2500.60</ele>
	<time>2023-08-06T10:33:03.000Z</time>
</trkpt>
<trkpt lat="46.0676730" lon="10.4919210">
	<ele>2500.60</ele>
	<time>2023-08-06T10:33:04.000Z</time>
</trkpt>
<trkpt lat="46.0676740" lon="10.4919290">
	<ele>2500.60</ele>
	<time>2023-08-06T10:33:05.000Z</time>
</trkpt>
<trkpt lat="46.0676790" lon="10.4919370">
	<ele>2500.60</ele>
	<time>2023-08-06T10:33:06.000Z</time>
</trkpt>
<trkpt lat="46.0676870" lon="10.4919440">
	<ele>2500.60</ele>
	<time>2023-08-06T10:33:07.000Z</time>
</trkpt>
<trkpt lat="46.0676910" lon="10.4919500">
	<ele>2500.60</ele>
	<time>2023-08-06T10:33:08.000Z</time>
</trkpt>
<trkpt lat="46.0677000" lon="10.4919590">
	<ele>2500.60</ele>
	<time>2023-08-06T10:33:09.000Z</time>
</trkpt>
<trkpt lat="46.0677090" lon="10.4919620">
	<ele>2500.60</ele>
	<time>2023-08-06T10:33:10.000Z</time>
</trkpt>
<trkpt lat="46.0677170" lon="10.4919670">
	<ele>2500.40</ele>
	<time>2023-08-06T10:33:11.000Z</time>
</trkpt>
<trkpt lat="46.0677230" lon="10.4919750">
	<ele>2500.40</ele>
	<time>2023-08-06T10:33:12.000Z</time>
</trkpt>
<trkpt lat="46.0677290" lon="10.4919840">
	<ele>2500.20</ele>
	<time>2023-08-06T10:33:13.000Z</time>
</trkpt>
<trkpt lat="46.0677360" lon="10.4919940">
	<ele>2499.80</ele>
	<time>2023-08-06T10:33:14.000Z</time>
</trkpt>
<trkpt lat="46.0677420" lon="10.4920020">
	<ele>2499.60</ele>
	<time>2023-08-06T10:33:15.000Z</time>
</trkpt>
<trkpt lat="46.0677490" lon="10.4920110">
	<ele>2499.60</ele>
	<time>2023-08-06T10:33:16.000Z</time>
</trkpt>
<trkpt lat="46.0677500" lon="10.4920190">
	<ele>2499.60</ele>
	<time>2023-08-06T10:33:17.000Z</time>
</trkpt>
<trkpt lat="46.0677510" lon="10.4920270">
	<ele>2499.80</ele>
	<time>2023-08-06T10:33:18.000Z</time>
</trkpt>
<trkpt lat="46.0677550" lon="10.4920350">
	<ele>2500.00</ele>
	<time>2023-08-06T10:33:19.000Z</time>
</trkpt>
<trkpt lat="46.0677610" lon="10.4920410">
	<ele>2500.40</ele>
	<time>2023-08-06T10:33:20.000Z</time>
</trkpt>
<trkpt lat="46.0677670" lon="10.4920470">
	<ele>2500.60</ele>
	<time>2023-08-06T10:33:21.000Z</time>
</trkpt>
<trkpt lat="46.0677670" lon="10.4920600">
	<ele>2500.80</ele>
	<time>2023-08-06T10:33:22.000Z</time>
</trkpt>
<trkpt lat="46.0677650" lon="10.4920700">
	<ele>2500.80</ele>
	<time>2023-08-06T10:33:23.000Z</time>
</trkpt>
<trkpt lat="46.0677660" lon="10.4920760">
	<ele>2501.00</ele>
	<time>2023-08-06T10:33:24.000Z</time>
</trkpt>
<trkpt lat="46.0677630" lon="10.4920830">
	<ele>2501.20</ele>
	<time>2023-08-06T10:33:25.000Z</time>
</trkpt>
<trkpt lat="46.0677600" lon="10.4920910">
	<ele>2501.40</ele>
	<time>2023-08-06T10:33:26.000Z</time>
</trkpt>
<trkpt lat="46.0677590" lon="10.4920970">
	<ele>2501.60</ele>
	<time>2023-08-06T10:33:27.000Z</time>
</trkpt>
<trkpt lat="46.0677580" lon="10.4921040">
	<ele>2501.80</ele>
	<time>2023-08-06T10:33:28.000Z</time>
</trkpt>
<trkpt lat="46.0677620" lon="10.4921120">
	<ele>2502.20</ele>
	<time>2023-08-06T10:33:29.000Z</time>
</trkpt>
<trkpt lat="46.0677690" lon="10.4921200">
	<ele>2502.40</ele>
	<time>2023-08-06T10:33:30.000Z</time>
</trkpt>
<trkpt lat="46.0677710" lon="10.4921230">
	<ele>2502.60</ele>
	<time>2023-08-06T10:33:31.000Z</time>
</trkpt>
<trkpt lat="46.0677720" lon="10.4921260">
	<ele>2502.60</ele>
	<time>2023-08-06T10:33:32.000Z</time>
</trkpt>
<trkpt lat="46.0677750" lon="10.4921260">
	<ele>2502.60</ele>
	<time>2023-08-06T10:33:33.000Z</time>
</trkpt>
<trkpt lat="46.0677810" lon="10.4921260">
	<ele>2502.80</ele>
	<time>2023-08-06T10:33:34.000Z</time>
</trkpt>
<trkpt lat="46.0677870" lon="10.4921280">
	<ele>2503.00</ele>
	<time>2023-08-06T10:33:35.000Z</time>
</trkpt>
<trkpt lat="46.0677870" lon="10.4921340">
	<ele>2503.00</ele>
	<time>2023-08-06T10:33:36.000Z</time>
</trkpt>
<trkpt lat="46.0677870" lon="10.4921390">
	<ele>2503.20</ele>
	<time>2023-08-06T10:33:37.000Z</time>
</trkpt>
<trkpt lat="46.0677900" lon="10.4921450">
	<ele>2503.20</ele>
	<time>2023-08-06T10:33:38.000Z</time>
</trkpt>
<trkpt lat="46.0677930" lon="10.4921530">
	<ele>2503.40</ele>
	<time>2023-08-06T10:33:39.000Z</time>
</trkpt>
<trkpt lat="46.0677960" lon="10.4921610">
	<ele>2503.40</ele>
	<time>2023-08-06T10:33:40.000Z</time>
</trkpt>
<trkpt lat="46.0677990" lon="10.4921710">
	<ele>2503.40</ele>
	<time>2023-08-06T10:33:41.000Z</time>
</trkpt>
<trkpt lat="46.0678010" lon="10.4921780">
	<ele>2503.40</ele>
	<time>2023-08-06T10:33:42.000Z</time>
</trkpt>
<trkpt lat="46.0678020" lon="10.4921860">
	<ele>2503.60</ele>
	<time>2023-08-06T10:33:43.000Z</time>
</trkpt>
<trkpt lat="46.0678030" lon="10.4921920">
	<ele>2503.60</ele>
	<time>2023-08-06T10:33:44.000Z</time>
</trkpt>
<trkpt lat="46.0678040" lon="10.4921940">
	<ele>2503.60</ele>
	<time>2023-08-06T10:33:45.000Z</time>
</trkpt>
<trkpt lat="46.0678030" lon="10.4921950">
	<ele>2503.60</ele>
	<time>2023-08-06T10:33:46.000Z</time>
</trkpt>
<trkpt lat="46.0678080" lon="10.4921990">
	<ele>2503.60</ele>
	<time>2023-08-06T10:33:47.000Z</time>
</trkpt>
<trkpt lat="46.0678130" lon="10.4922030">
	<ele>2503.80</ele>
	<time>2023-08-06T10:33:48.000Z</time>
</trkpt>
<trkpt lat="46.0678150" lon="10.4922040">
	<ele>2504.00</ele>
	<time>2023-08-06T10:33:49.000Z</time>
</trkpt>
<trkpt lat="46.0678130" lon="10.4922050">
	<ele>2504.20</ele>
	<time>2023-08-06T10:33:50.000Z</time>
</trkpt>
<trkpt lat="46.0678110" lon="10.4922050">
	<ele>2504.40</ele>
	<time>2023-08-06T10:33:51.000Z</time>
</trkpt>
<trkpt lat="46.0678120" lon="10.4922040">
	<ele>2504.60</ele>
	<time>2023-08-06T10:33:52.000Z</time>
</trkpt>
<trkpt lat="46.0678120" lon="10.4922040">
	<ele>2504.60</ele>
	<time>2023-08-06T10:33:53.000Z</time>
</trkpt>
<trkpt lat="46.0678120" lon="10.4922040">
	<ele>2504.80</ele>
	<time>2023-08-06T10:33:54.000Z</time>
</trkpt>
<trkpt lat="46.0678120" lon="10.4922040">
	<ele>2504.80</ele>
	<time>2023-08-06T10:33:55.000Z</time>
</trkpt>
<trkpt lat="46.0678120" lon="10.4922040">
	<ele>2505.00</ele>
	<time>2023-08-06T10:33:56.000Z</time>
</trkpt>
<trkpt lat="46.0678120" lon="10.4922040">
	<ele>2505.00</ele>
	<time>2023-08-06T10:33:57.000Z</time>
</trkpt>
<trkpt lat="46.0678120" lon="10.4922040">
	<ele>2505.00</ele>
	<time>2023-08-06T10:33:58.000Z</time>
</trkpt>
<trkpt lat="46.0678120" lon="10.4922040">
	<ele>2505.00</ele>
	<time>2023-08-06T10:33:59.000Z</time>
</trkpt>
<trkpt lat="46.0678120" lon="10.4922040">
	<ele>2504.80</ele>
	<time>2023-08-06T10:34:00.000Z</time>
</trkpt>
<trkpt lat="46.0678120" lon="10.4922040">
	<ele>2504.80</ele>
	<time>2023-08-06T10:34:01.000Z</time>
</trkpt>
<trkpt lat="46.0678120" lon="10.4922040">
	<ele>2504.40</ele>
	<time>2023-08-06T10:34:02.000Z</time>
</trkpt>
<trkpt lat="46.0678120" lon="10.4922040">
	<ele>2504.20</ele>
	<time>2023-08-06T10:34:03.000Z</time>
</trkpt>
<trkpt lat="46.0678120" lon="10.4922040">
	<ele>2504.20</ele>
	<time>2023-08-06T10:34:04.000Z</time>
</trkpt>
<trkpt lat="46.0678120" lon="10.4922040">
	<ele>2504.00</ele>
	<time>2023-08-06T10:34:05.000Z</time>
</trkpt>
<trkpt lat="46.0678120" lon="10.4922040">
	<ele>2504.00</ele>
	<time>2023-08-06T10:34:06.000Z</time>
</trkpt>
<trkpt lat="46.0678120" lon="10.4922040">
	<ele>2504.00</ele>
	<time>2023-08-06T10:34:07.000Z</time>
</trkpt>
<trkpt lat="46.0678120" lon="10.4922030">
	<ele>2503.80</ele>
	<time>2023-08-06T10:34:08.000Z</time>
</trkpt>
<trkpt lat="46.0678120" lon="10.4922030">
	<ele>2503.80</ele>
	<time>2023-08-06T10:34:09.000Z</time>
</trkpt>
<trkpt lat="46.0678120" lon="10.4922030">
	<ele>2503.80</ele>
	<time>2023-08-06T10:34:10.000Z</time>
</trkpt>
<trkpt lat="46.0678120" lon="10.4922030">
	<ele>2503.80</ele>
	<time>2023-08-06T10:34:11.000Z</time>
</trkpt>
<trkpt lat="46.0678120" lon="10.4922080">
	<ele>2503.80</ele>
	<time>2023-08-06T10:34:12.000Z</time>
</trkpt>
<trkpt lat="46.0678230" lon="10.4922180">
	<ele>2503.80</ele>
	<time>2023-08-06T10:34:13.000Z</time>
</trkpt>
<trkpt lat="46.0678320" lon="10.4922260">
	<ele>2504.00</ele>
	<time>2023-08-06T10:34:14.000Z</time>
</trkpt>
<trkpt lat="46.0678410" lon="10.4922330">
	<ele>2504.00</ele>
	<time>2023-08-06T10:34:15.000Z</time>
</trkpt>
<trkpt lat="46.0678470" lon="10.4922470">
	<ele>2504.00</ele>
	<time>2023-08-06T10:34:16.000Z</time>
</trkpt>
<trkpt lat="46.0678540" lon="10.4922580">
	<ele>2504.00</ele>
	<time>2023-08-06T10:34:17.000Z</time>
</trkpt>
<trkpt lat="46.0678580" lon="10.4922740">
	<ele>2504.20</ele>
	<time>2023-08-06T10:34:18.000Z</time>
</trkpt>
<trkpt lat="46.0678620" lon="10.4922960">
	<ele>2504.40</ele>
	<time>2023-08-06T10:34:19.000Z</time>
</trkpt>
<trkpt lat="46.0678680" lon="10.4923130">
	<ele>2504.20</ele>
	<time>2023-08-06T10:34:20.000Z</time>
</trkpt>
<trkpt lat="46.0678710" lon="10.4923330">
	<ele>2504.20</ele>
	<time>2023-08-06T10:34:21.000Z</time>
</trkpt>
<trkpt lat="46.0678720" lon="10.4923440">
	<ele>2504.20</ele>
	<time>2023-08-06T10:34:22.000Z</time>
</trkpt>
<trkpt lat="46.0678740" lon="10.4923570">
	<ele>2504.20</ele>
	<time>2023-08-06T10:34:23.000Z</time>
</trkpt>
<trkpt lat="46.0678790" lon="10.4923710">
	<ele>2504.20</ele>
	<time>2023-08-06T10:34:24.000Z</time>
</trkpt>
<trkpt lat="46.0678820" lon="10.4923770">
	<ele>2504.40</ele>
	<time>2023-08-06T10:34:25.000Z</time>
</trkpt>
<trkpt lat="46.0678830" lon="10.4923820">
	<ele>2504.60</ele>
	<time>2023-08-06T10:34:26.000Z</time>
</trkpt>
<trkpt lat="46.0678890" lon="10.4923890">
	<ele>2504.80</ele>
	<time>2023-08-06T10:34:27.000Z</time>
</trkpt>
<trkpt lat="46.0678950" lon="10.4923950">
	<ele>2505.20</ele>
	<time>2023-08-06T10:34:28.000Z</time>
</trkpt>
<trkpt lat="46.0679030" lon="10.4924000">
	<ele>2505.40</ele>
	<time>2023-08-06T10:34:29.000Z</time>
</trkpt>
<trkpt lat="46.0679090" lon="10.4924050">
	<ele>2505.80</ele>
	<time>2023-08-06T10:34:30.000Z</time>
</trkpt>
<trkpt lat="46.0679190" lon="10.4924050">
	<ele>2506.00</ele>
	<time>2023-08-06T10:34:31.000Z</time>
</trkpt>
<trkpt lat="46.0679270" lon="10.4924120">
	<ele>2506.20</ele>
	<time>2023-08-06T10:34:32.000Z</time>
</trkpt>
<trkpt lat="46.0679360" lon="10.4924200">
	<ele>2506.20</ele>
	<time>2023-08-06T10:34:33.000Z</time>
</trkpt>
<trkpt lat="46.0679450" lon="10.4924270">
	<ele>2506.40</ele>
	<time>2023-08-06T10:34:34.000Z</time>
</trkpt>
<trkpt lat="46.0679520" lon="10.4924370">
	<ele>2506.60</ele>
	<time>2023-08-06T10:34:35.000Z</time>
</trkpt>
<trkpt lat="46.0679570" lon="10.4924460">
	<ele>2506.40</ele>
	<time>2023-08-06T10:34:36.000Z</time>
</trkpt>
<trkpt lat="46.0679620" lon="10.4924600">
	<ele>2506.40</ele>
	<time>2023-08-06T10:34:37.000Z</time>
</trkpt>
<trkpt lat="46.0679670" lon="10.4924720">
	<ele>2506.40</ele>
	<time>2023-08-06T10:34:38.000Z</time>
</trkpt>
<trkpt lat="46.0679760" lon="10.4924820">
	<ele>2506.40</ele>
	<time>2023-08-06T10:34:39.000Z</time>
</trkpt>
<trkpt lat="46.0679820" lon="10.4924880">
	<ele>2506.60</ele>
	<time>2023-08-06T10:34:40.000Z</time>
</trkpt>
<trkpt lat="46.0679870" lon="10.4924960">
	<ele>2506.60</ele>
	<time>2023-08-06T10:34:41.000Z</time>
</trkpt>
<trkpt lat="46.0679870" lon="10.4925070">
	<ele>2507.00</ele>
	<time>2023-08-06T10:34:42.000Z</time>
</trkpt>
<trkpt lat="46.0679880" lon="10.4925190">
	<ele>2507.20</ele>
	<time>2023-08-06T10:34:43.000Z</time>
</trkpt>
<trkpt lat="46.0679920" lon="10.4925330">
	<ele>2507.40</ele>
	<time>2023-08-06T10:34:44.000Z</time>
</trkpt>
<trkpt lat="46.0679960" lon="10.4925470">
	<ele>2507.60</ele>
	<time>2023-08-06T10:34:45.000Z</time>
</trkpt>
<trkpt lat="46.0680010" lon="10.4925610">
	<ele>2507.60</ele>
	<time>2023-08-06T10:34:46.000Z</time>
</trkpt>
<trkpt lat="46.0680070" lon="10.4925710">
	<ele>2507.40</ele>
	<time>2023-08-06T10:34:47.000Z</time>
</trkpt>
<trkpt lat="46.0680130" lon="10.4925810">
	<ele>2507.00</ele>
	<time>2023-08-06T10:34:48.000Z</time>
</trkpt>
<trkpt lat="46.0680210" lon="10.4925900">
	<ele>2506.60</ele>
	<time>2023-08-06T10:34:49.000Z</time>
</trkpt>
<trkpt lat="46.0680270" lon="10.4926000">
	<ele>2506.40</ele>
	<time>2023-08-06T10:34:50.000Z</time>
</trkpt>
<trkpt lat="46.0680310" lon="10.4926070">
	<ele>2506.20</ele>
	<time>2023-08-06T10:34:51.000Z</time>
</trkpt>
<trkpt lat="46.0680370" lon="10.4926170">
	<ele>2506.20</ele>
	<time>2023-08-06T10:34:52.000Z</time>
</trkpt>
<trkpt lat="46.0680420" lon="10.4926270">
	<ele>2506.20</ele>
	<time>2023-08-06T10:34:53.000Z</time>
</trkpt>
<trkpt lat="46.0680470" lon="10.4926330">
	<ele>2506.20</ele>
	<time>2023-08-06T10:34:54.000Z</time>
</trkpt>
<trkpt lat="46.0680540" lon="10.4926360">
	<ele>2506.20</ele>
	<time>2023-08-06T10:34:55.000Z</time>
</trkpt>
<trkpt lat="46.0680590" lon="10.4926400">
	<ele>2506.20</ele>
	<time>2023-08-06T10:34:56.000Z</time>
</trkpt>
<trkpt lat="46.0680620" lon="10.4926460">
	<ele>2506.00</ele>
	<time>2023-08-06T10:34:57.000Z</time>
</trkpt>
<trkpt lat="46.0680690" lon="10.4926540">
	<ele>2506.00</ele>
	<time>2023-08-06T10:34:58.000Z</time>
</trkpt>
<trkpt lat="46.0680780" lon="10.4926620">
	<ele>2506.00</ele>
	<time>2023-08-06T10:34:59.000Z</time>
</trkpt>
<trkpt lat="46.0680880" lon="10.4926690">
	<ele>2506.00</ele>
	<time>2023-08-06T10:35:00.000Z</time>
</trkpt>
<trkpt lat="46.0680990" lon="10.4926780">
	<ele>2506.00</ele>
	<time>2023-08-06T10:35:01.000Z</time>
</trkpt>
<trkpt lat="46.0681040" lon="10.4926880">
	<ele>2506.00</ele>
	<time>2023-08-06T10:35:02.000Z</time>
</trkpt>
<trkpt lat="46.0681150" lon="10.4926960">
	<ele>2506.40</ele>
	<time>2023-08-06T10:35:03.000Z</time>
</trkpt>
<trkpt lat="46.0681220" lon="10.4927020">
	<ele>2506.60</ele>
	<time>2023-08-06T10:35:04.000Z</time>
</trkpt>
<trkpt lat="46.0681300" lon="10.4927070">
	<ele>2506.60</ele>
	<time>2023-08-06T10:35:05.000Z</time>
</trkpt>
<trkpt lat="46.0681390" lon="10.4927110">
	<ele>2506.80</ele>
	<time>2023-08-06T10:35:06.000Z</time>
</trkpt>
<trkpt lat="46.0681470" lon="10.4927100">
	<ele>2507.00</ele>
	<time>2023-08-06T10:35:07.000Z</time>
</trkpt>
<trkpt lat="46.0681590" lon="10.4927170">
	<ele>2507.00</ele>
	<time>2023-08-06T10:35:08.000Z</time>
</trkpt>
<trkpt lat="46.0681650" lon="10.4927210">
	<ele>2507.00</ele>
	<time>2023-08-06T10:35:09.000Z</time>
</trkpt>
<trkpt lat="46.0681720" lon="10.4927310">
	<ele>2507.20</ele>
	<time>2023-08-06T10:35:10.000Z</time>
</trkpt>
<trkpt lat="46.0681780" lon="10.4927420">
	<ele>2507.20</ele>
	<time>2023-08-06T10:35:11.000Z</time>
</trkpt>
<trkpt lat="46.0681800" lon="10.4927540">
	<ele>2507.40</ele>
	<time>2023-08-06T10:35:12.000Z</time>
</trkpt>
<trkpt lat="46.0681880" lon="10.4927680">
	<ele>2507.40</ele>
	<time>2023-08-06T10:35:13.000Z</time>
</trkpt>
<trkpt lat="46.0681950" lon="10.4927750">
	<ele>2507.40</ele>
	<time>2023-08-06T10:35:14.000Z</time>
</trkpt>
<trkpt lat="46.0682010" lon="10.4927840">
	<ele>2507.20</ele>
	<time>2023-08-06T10:35:15.000Z</time>
</trkpt>
<trkpt lat="46.0682080" lon="10.4927970">
	<ele>2507.20</ele>
	<time>2023-08-06T10:35:16.000Z</time>
</trkpt>
<trkpt lat="46.0682130" lon="10.4928060">
	<ele>2507.20</ele>
	<time>2023-08-06T10:35:17.000Z</time>
</trkpt>
<trkpt lat="46.0682210" lon="10.4928140">
	<ele>2507.20</ele>
	<time>2023-08-06T10:35:18.000Z</time>
</trkpt>
<trkpt lat="46.0682280" lon="10.4928250">
	<ele>2507.40</ele>
	<time>2023-08-06T10:35:19.000Z</time>
</trkpt>
<trkpt lat="46.0682380" lon="10.4928350">
	<ele>2507.40</ele>
	<time>2023-08-06T10:35:20.000Z</time>
</trkpt>
<trkpt lat="46.0682500" lon="10.4928510">
	<ele>2507.40</ele>
	<time>2023-08-06T10:35:21.000Z</time>
</trkpt>
<trkpt lat="46.0682540" lon="10.4928600">
	<ele>2507.60</ele>
	<time>2023-08-06T10:35:22.000Z</time>
</trkpt>
<trkpt lat="46.0682610" lon="10.4928710">
	<ele>2507.60</ele>
	<time>2023-08-06T10:35:23.000Z</time>
</trkpt>
<trkpt lat="46.0682700" lon="10.4928800">
	<ele>2507.60</ele>
	<time>2023-08-06T10:35:24.000Z</time>
</trkpt>
<trkpt lat="46.0682770" lon="10.4928850">
	<ele>2508.00</ele>
	<time>2023-08-06T10:35:25.000Z</time>
</trkpt>
<trkpt lat="46.0682830" lon="10.4928920">
	<ele>2508.00</ele>
	<time>2023-08-06T10:35:26.000Z</time>
</trkpt>
<trkpt lat="46.0682900" lon="10.4928970">
	<ele>2508.20</ele>
	<time>2023-08-06T10:35:27.000Z</time>
</trkpt>
<trkpt lat="46.0682960" lon="10.4929030">
	<ele>2508.40</ele>
	<time>2023-08-06T10:35:28.000Z</time>
</trkpt>
<trkpt lat="46.0683040" lon="10.4929110">
	<ele>2508.60</ele>
	<time>2023-08-06T10:35:29.000Z</time>
</trkpt>
<trkpt lat="46.0683090" lon="10.4929210">
	<ele>2508.80</ele>
	<time>2023-08-06T10:35:30.000Z</time>
</trkpt>
<trkpt lat="46.0683140" lon="10.4929300">
	<ele>2509.00</ele>
	<time>2023-08-06T10:35:31.000Z</time>
</trkpt>
<trkpt lat="46.0683230" lon="10.4929430">
	<ele>2509.20</ele>
	<time>2023-08-06T10:35:32.000Z</time>
</trkpt>
<trkpt lat="46.0683320" lon="10.4929500">
	<ele>2509.20</ele>
	<time>2023-08-06T10:35:33.000Z</time>
</trkpt>
<trkpt lat="46.0683370" lon="10.4929560">
	<ele>2509.20</ele>
	<time>2023-08-06T10:35:34.000Z</time>
</trkpt>
<trkpt lat="46.0683420" lon="10.4929660">
	<ele>2509.20</ele>
	<time>2023-08-06T10:35:35.000Z</time>
</trkpt>
<trkpt lat="46.0683490" lon="10.4929710">
	<ele>2509.20</ele>
	<time>2023-08-06T10:35:36.000Z</time>
</trkpt>
<trkpt lat="46.0683560" lon="10.4929760">
	<ele>2509.00</ele>
	<time>2023-08-06T10:35:37.000Z</time>
</trkpt>
<trkpt lat="46.0683650" lon="10.4929780">
	<ele>2509.00</ele>
	<time>2023-08-06T10:35:38.000Z</time>
</trkpt>
<trkpt lat="46.0683720" lon="10.4929820">
	<ele>2509.00</ele>
	<time>2023-08-06T10:35:39.000Z</time>
</trkpt>
<trkpt lat="46.0683800" lon="10.4929860">
	<ele>2509.00</ele>
	<time>2023-08-06T10:35:40.000Z</time>
</trkpt>
<trkpt lat="46.0683850" lon="10.4929900">
	<ele>2508.80</ele>
	<time>2023-08-06T10:35:41.000Z</time>
</trkpt>
<trkpt lat="46.0683910" lon="10.4929940">
	<ele>2508.80</ele>
	<time>2023-08-06T10:35:42.000Z</time>
</trkpt>
<trkpt lat="46.0683950" lon="10.4929980">
	<ele>2508.80</ele>
	<time>2023-08-06T10:35:43.000Z</time>
</trkpt>
<trkpt lat="46.0683980" lon="10.4930030">
	<ele>2508.60</ele>
	<time>2023-08-06T10:35:44.000Z</time>
</trkpt>
<trkpt lat="46.0684010" lon="10.4930100">
	<ele>2508.40</ele>
	<time>2023-08-06T10:35:45.000Z</time>
</trkpt>
<trkpt lat="46.0684030" lon="10.4930170">
	<ele>2508.20</ele>
	<time>2023-08-06T10:35:46.000Z</time>
</trkpt>
<trkpt lat="46.0684080" lon="10.4930230">
	<ele>2508.00</ele>
	<time>2023-08-06T10:35:47.000Z</time>
</trkpt>
<trkpt lat="46.0684120" lon="10.4930300">
	<ele>2507.60</ele>
	<time>2023-08-06T10:35:48.000Z</time>
</trkpt>
<trkpt lat="46.0684170" lon="10.4930350">
	<ele>2507.40</ele>
	<time>2023-08-06T10:35:49.000Z</time>
</trkpt>
<trkpt lat="46.0684230" lon="10.4930380">
	<ele>2507.20</ele>
	<time>2023-08-06T10:35:50.000Z</time>
</trkpt>
<trkpt lat="46.0684320" lon="10.4930430">
	<ele>2507.00</ele>
	<time>2023-08-06T10:35:51.000Z</time>
</trkpt>
<trkpt lat="46.0684450" lon="10.4930460">
	<ele>2506.80</ele>
	<time>2023-08-06T10:35:52.000Z</time>
</trkpt>
<trkpt lat="46.0684560" lon="10.4930520">
	<ele>2506.80</ele>
	<time>2023-08-06T10:35:53.000Z</time>
</trkpt>
<trkpt lat="46.0684660" lon="10.4930640">
	<ele>2506.60</ele>
	<time>2023-08-06T10:35:54.000Z</time>
</trkpt>
<trkpt lat="46.0684720" lon="10.4930660">
	<ele>2506.60</ele>
	<time>2023-08-06T10:35:55.000Z</time>
</trkpt>
<trkpt lat="46.0684810" lon="10.4930650">
	<ele>2506.40</ele>
	<time>2023-08-06T10:35:56.000Z</time>
</trkpt>
<trkpt lat="46.0684890" lon="10.4930690">
	<ele>2506.40</ele>
	<time>2023-08-06T10:35:57.000Z</time>
</trkpt>
<trkpt lat="46.0684960" lon="10.4930720">
	<ele>2506.40</ele>
	<time>2023-08-06T10:35:58.000Z</time>
</trkpt>
<trkpt lat="46.0685010" lon="10.4930790">
	<ele>2506.20</ele>
	<time>2023-08-06T10:35:59.000Z</time>
</trkpt>
<trkpt lat="46.0685050" lon="10.4930910">
	<ele>2506.20</ele>
	<time>2023-08-06T10:36:00.000Z</time>
</trkpt>
<trkpt lat="46.0685100" lon="10.4931030">
	<ele>2506.20</ele>
	<time>2023-08-06T10:36:01.000Z</time>
</trkpt>
<trkpt lat="46.0685160" lon="10.4931170">
	<ele>2506.00</ele>
	<time>2023-08-06T10:36:02.000Z</time>
</trkpt>
<trkpt lat="46.0685220" lon="10.4931230">
	<ele>2506.00</ele>
	<time>2023-08-06T10:36:03.000Z</time>
</trkpt>
<trkpt lat="46.0685280" lon="10.4931260">
	<ele>2505.80</ele>
	<time>2023-08-06T10:36:04.000Z</time>
</trkpt>
<trkpt lat="46.0685360" lon="10.4931250">
	<ele>2505.60</ele>
	<time>2023-08-06T10:36:05.000Z</time>
</trkpt>
<trkpt lat="46.0685430" lon="10.4931240">
	<ele>2505.40</ele>
	<time>2023-08-06T10:36:06.000Z</time>
</trkpt>
<trkpt lat="46.0685480" lon="10.4931190">
	<ele>2505.40</ele>
	<time>2023-08-06T10:36:07.000Z</time>
</trkpt>
<trkpt lat="46.0685560" lon="10.4931190">
	<ele>2505.20</ele>
	<time>2023-08-06T10:36:08.000Z</time>
</trkpt>
<trkpt lat="46.0685630" lon="10.4931210">
	<ele>2505.00</ele>
	<time>2023-08-06T10:36:09.000Z</time>
</trkpt>
<trkpt lat="46.0685660" lon="10.4931210">
	<ele>2505.00</ele>
	<time>2023-08-06T10:36:10.000Z</time>
</trkpt>
<trkpt lat="46.0685690" lon="10.4931230">
	<ele>2504.80</ele>
	<time>2023-08-06T10:36:11.000Z</time>
</trkpt>
<trkpt lat="46.0685730" lon="10.4931230">
	<ele>2504.80</ele>
	<time>2023-08-06T10:36:12.000Z</time>
</trkpt>
<trkpt lat="46.0685770" lon="10.4931250">
	<ele>2504.60</ele>
	<time>2023-08-06T10:36:13.000Z</time>
</trkpt>
<trkpt lat="46.0685820" lon="10.4931250">
	<ele>2504.40</ele>
	<time>2023-08-06T10:36:14.000Z</time>
</trkpt>
<trkpt lat="46.0685860" lon="10.4931240">
	<ele>2504.40</ele>
	<time>2023-08-06T10:36:15.000Z</time>
</trkpt>
<trkpt lat="46.0685890" lon="10.4931270">
	<ele>2504.20</ele>
	<time>2023-08-06T10:36:16.000Z</time>
</trkpt>
<trkpt lat="46.0685900" lon="10.4931290">
	<ele>2504.00</ele>
	<time>2023-08-06T10:36:17.000Z</time>
</trkpt>
<trkpt lat="46.0685920" lon="10.4931300">
	<ele>2503.80</ele>
	<time>2023-08-06T10:36:18.000Z</time>
</trkpt>
<trkpt lat="46.0685950" lon="10.4931270">
	<ele>2503.60</ele>
	<time>2023-08-06T10:36:19.000Z</time>
</trkpt>
<trkpt lat="46.0685970" lon="10.4931250">
	<ele>2503.60</ele>
	<time>2023-08-06T10:36:20.000Z</time>
</trkpt>
<trkpt lat="46.0685990" lon="10.4931210">
	<ele>2503.00</ele>
	<time>2023-08-06T10:36:21.000Z</time>
</trkpt>
<trkpt lat="46.0686030" lon="10.4931160">
	<ele>2502.80</ele>
	<time>2023-08-06T10:36:22.000Z</time>
</trkpt>
<trkpt lat="46.0686100" lon="10.4931100">
	<ele>2502.60</ele>
	<time>2023-08-06T10:36:23.000Z</time>
</trkpt>
<trkpt lat="46.0686170" lon="10.4931030">
	<ele>2502.40</ele>
	<time>2023-08-06T10:36:24.000Z</time>
</trkpt>
<trkpt lat="46.0686250" lon="10.4930960">
	<ele>2502.40</ele>
	<time>2023-08-06T10:36:25.000Z</time>
</trkpt>
<trkpt lat="46.0686360" lon="10.4930900">
	<ele>2502.40</ele>
	<time>2023-08-06T10:36:26.000Z</time>
</trkpt>
<trkpt lat="46.0686480" lon="10.4930790">
	<ele>2502.40</ele>
	<time>2023-08-06T10:36:27.000Z</time>
</trkpt>
<trkpt lat="46.0686570" lon="10.4930720">
	<ele>2502.20</ele>
	<time>2023-08-06T10:36:28.000Z</time>
</trkpt>
<trkpt lat="46.0686660" lon="10.4930680">
	<ele>2502.40</ele>
	<time>2023-08-06T10:36:29.000Z</time>
</trkpt>
<trkpt lat="46.0686740" lon="10.4930660">
	<ele>2502.40</ele>
	<time>2023-08-06T10:36:30.000Z</time>
</trkpt>
<trkpt lat="46.0686830" lon="10.4930610">
	<ele>2502.60</ele>
	<time>2023-08-06T10:36:31.000Z</time>
</trkpt>
<trkpt lat="46.0686910" lon="10.4930570">
	<ele>2502.60</ele>
	<time>2023-08-06T10:36:32.000Z</time>
</trkpt>
<trkpt lat="46.0687040" lon="10.4930560">
	<ele>2502.40</ele>
	<time>2023-08-06T10:36:33.000Z</time>
</trkpt>
<trkpt lat="46.0687100" lon="10.4930580">
	<ele>2502.40</ele>
	<time>2023-08-06T10:36:34.000Z</time>
</trkpt>
<trkpt lat="46.0687200" lon="10.4930610">
	<ele>2502.40</ele>
	<time>2023-08-06T10:36:35.000Z</time>
</trkpt>
<trkpt lat="46.0687270" lon="10.4930540">
	<ele>2502.40</ele>
	<time>2023-08-06T10:36:36.000Z</time>
</trkpt>
<trkpt lat="46.0687350" lon="10.4930500">
	<ele>2502.40</ele>
	<time>2023-08-06T10:36:37.000Z</time>
</trkpt>
<trkpt lat="46.0687420" lon="10.4930490">
	<ele>2502.40</ele>
	<time>2023-08-06T10:36:38.000Z</time>
</trkpt>
<trkpt lat="46.0687510" lon="10.4930450">
	<ele>2502.40</ele>
	<time>2023-08-06T10:36:39.000Z</time>
</trkpt>
<trkpt lat="46.0687570" lon="10.4930380">
	<ele>2502.60</ele>
	<time>2023-08-06T10:36:40.000Z</time>
</trkpt>
<trkpt lat="46.0687610" lon="10.4930300">
	<ele>2502.80</ele>
	<time>2023-08-06T10:36:41.000Z</time>
</trkpt>
<trkpt lat="46.0687660" lon="10.4930180">
	<ele>2503.00</ele>
	<time>2023-08-06T10:36:42.000Z</time>
</trkpt>
<trkpt lat="46.0687690" lon="10.4930050">
	<ele>2503.20</ele>
	<time>2023-08-06T10:36:43.000Z</time>
</trkpt>
<trkpt lat="46.0687720" lon="10.4929950">
	<ele>2503.20</ele>
	<time>2023-08-06T10:36:44.000Z</time>
</trkpt>
<trkpt lat="46.0687760" lon="10.4929890">
	<ele>2503.20</ele>
	<time>2023-08-06T10:36:45.000Z</time>
</trkpt>
<trkpt lat="46.0687810" lon="10.4929830">
	<ele>2503.40</ele>
	<time>2023-08-06T10:36:46.000Z</time>
</trkpt>
<trkpt lat="46.0687870" lon="10.4929790">
	<ele>2503.40</ele>
	<time>2023-08-06T10:36:47.000Z</time>
</trkpt>
<trkpt lat="46.0687900" lon="10.4929780">
	<ele>2503.40</ele>
	<time>2023-08-06T10:36:48.000Z</time>
</trkpt>
<trkpt lat="46.0687940" lon="10.4929820">
	<ele>2503.20</ele>
	<time>2023-08-06T10:36:49.000Z</time>
</trkpt>
<trkpt lat="46.0687970" lon="10.4929820">
	<ele>2503.00</ele>
	<time>2023-08-06T10:36:50.000Z</time>
</trkpt>
<trkpt lat="46.0687990" lon="10.4929810">
	<ele>2502.80</ele>
	<time>2023-08-06T10:36:51.000Z</time>
</trkpt>
<trkpt lat="46.0687990" lon="10.4929770">
	<ele>2502.80</ele>
	<time>2023-08-06T10:36:52.000Z</time>
</trkpt>
<trkpt lat="46.0687980" lon="10.4929710">
	<ele>2502.80</ele>
	<time>2023-08-06T10:36:53.000Z</time>
</trkpt>
<trkpt lat="46.0687950" lon="10.4929650">
	<ele>2502.60</ele>
	<time>2023-08-06T10:36:54.000Z</time>
</trkpt>
<trkpt lat="46.0687900" lon="10.4929580">
	<ele>2502.40</ele>
	<time>2023-08-06T10:36:55.000Z</time>
</trkpt>
<trkpt lat="46.0687870" lon="10.4929520">
	<ele>2502.20</ele>
	<time>2023-08-06T10:36:56.000Z</time>
</trkpt>
<trkpt lat="46.0687850" lon="10.4929470">
	<ele>2501.80</ele>
	<time>2023-08-06T10:36:57.000Z</time>
</trkpt>
<trkpt lat="46.0687850" lon="10.4929450">
	<ele>2501.60</ele>
	<time>2023-08-06T10:36:58.000Z</time>
</trkpt>
<trkpt lat="46.0687860" lon="10.4929410">
	<ele>2501.40</ele>
	<time>2023-08-06T10:36:59.000Z</time>
</trkpt>
<trkpt lat="46.0687910" lon="10.4929410">
	<ele>2501.40</ele>
	<time>2023-08-06T10:37:00.000Z</time>
</trkpt>
<trkpt lat="46.0687960" lon="10.4929430">
	<ele>2501.20</ele>
	<time>2023-08-06T10:37:01.000Z</time>
</trkpt>
<trkpt lat="46.0688020" lon="10.4929470">
	<ele>2501.00</ele>
	<time>2023-08-06T10:37:02.000Z</time>
</trkpt>
<trkpt lat="46.0688060" lon="10.4929510">
	<ele>2501.00</ele>
	<time>2023-08-06T10:37:03.000Z</time>
</trkpt>
<trkpt lat="46.0688080" lon="10.4929510">
	<ele>2500.80</ele>
	<time>2023-08-06T10:37:04.000Z</time>
</trkpt>
<trkpt lat="46.0688090" lon="10.4929550">
	<ele>2500.60</ele>
	<time>2023-08-06T10:37:05.000Z</time>
</trkpt>
<trkpt lat="46.0688100" lon="10.4929590">
	<ele>2500.20</ele>
	<time>2023-08-06T10:37:06.000Z</time>
</trkpt>
<trkpt lat="46.0688150" lon="10.4929620">
	<ele>2500.00</ele>
	<time>2023-08-06T10:37:07.000Z</time>
</trkpt>
<trkpt lat="46.0688180" lon="10.4929650">
	<ele>2499.80</ele>
	<time>2023-08-06T10:37:08.000Z</time>
</trkpt>
<trkpt lat="46.0688220" lon="10.4929680">
	<ele>2499.60</ele>
	<time>2023-08-06T10:37:09.000Z</time>
</trkpt>
<trkpt lat="46.0688260" lon="10.4929700">
	<ele>2499.20</ele>
	<time>2023-08-06T10:37:10.000Z</time>
</trkpt>
<trkpt lat="46.0688300" lon="10.4929730">
	<ele>2499.00</ele>
	<time>2023-08-06T10:37:11.000Z</time>
</trkpt>
<trkpt lat="46.0688330" lon="10.4929750">
	<ele>2498.80</ele>
	<time>2023-08-06T10:37:12.000Z</time>
</trkpt>
<trkpt lat="46.0688370" lon="10.4929780">
	<ele>2498.40</ele>
	<time>2023-08-06T10:37:13.000Z</time>
</trkpt>
<trkpt lat="46.0688420" lon="10.4929780">
	<ele>2498.00</ele>
	<time>2023-08-06T10:37:14.000Z</time>
</trkpt>
<trkpt lat="46.0688500" lon="10.4929790">
	<ele>2497.80</ele>
	<time>2023-08-06T10:37:15.000Z</time>
</trkpt>
<trkpt lat="46.0688590" lon="10.4929770">
	<ele>2497.60</ele>
	<time>2023-08-06T10:37:16.000Z</time>
</trkpt>
<trkpt lat="46.0688660" lon="10.4929780">
	<ele>2497.60</ele>
	<time>2023-08-06T10:37:17.000Z</time>
</trkpt>
<trkpt lat="46.0688730" lon="10.4929770">
	<ele>2497.40</ele>
	<time>2023-08-06T10:37:18.000Z</time>
</trkpt>
<trkpt lat="46.0688790" lon="10.4929790">
	<ele>2497.20</ele>
	<time>2023-08-06T10:37:19.000Z</time>
</trkpt>
<trkpt lat="46.0688860" lon="10.4929830">
	<ele>2497.00</ele>
	<time>2023-08-06T10:37:20.000Z</time>
</trkpt>
<trkpt lat="46.0688910" lon="10.4929930">
	<ele>2497.00</ele>
	<time>2023-08-06T10:37:21.000Z</time>
</trkpt>
<trkpt lat="46.0688950" lon="10.4930000">
	<ele>2496.60</ele>
	<time>2023-08-06T10:37:22.000Z</time>
</trkpt>
<trkpt lat="46.0688980" lon="10.4930040">
	<ele>2496.60</ele>
	<time>2023-08-06T10:37:23.000Z</time>
</trkpt>
<trkpt lat="46.0689010" lon="10.4930050">
	<ele>2496.40</ele>
	<time>2023-08-06T10:37:24.000Z</time>
</trkpt>
<trkpt lat="46.0689050" lon="10.4930070">
	<ele>2496.20</ele>
	<time>2023-08-06T10:37:25.000Z</time>
</trkpt>
<trkpt lat="46.0689080" lon="10.4930090">
	<ele>2496.20</ele>
	<time>2023-08-06T10:37:26.000Z</time>
</trkpt>
<trkpt lat="46.0689100" lon="10.4930090">
	<ele>2496.20</ele>
	<time>2023-08-06T10:37:27.000Z</time>
</trkpt>
<trkpt lat="46.0689140" lon="10.4930110">
	<ele>2496.00</ele>
	<time>2023-08-06T10:37:28.000Z</time>
</trkpt>
<trkpt lat="46.0689190" lon="10.4930130">
	<ele>2495.80</ele>
	<time>2023-08-06T10:37:29.000Z</time>
</trkpt>
<trkpt lat="46.0689220" lon="10.4930170">
	<ele>2495.40</ele>
	<time>2023-08-06T10:37:30.000Z</time>
</trkpt>
<trkpt lat="46.0689250" lon="10.4930190">
	<ele>2495.20</ele>
	<time>2023-08-06T10:37:31.000Z</time>
</trkpt>
<trkpt lat="46.0689270" lon="10.4930190">
	<ele>2495.00</ele>
	<time>2023-08-06T10:37:32.000Z</time>
</trkpt>
<trkpt lat="46.0689310" lon="10.4930170">
	<ele>2494.80</ele>
	<time>2023-08-06T10:37:33.000Z</time>
</trkpt>
<trkpt lat="46.0689350" lon="10.4930200">
	<ele>2494.60</ele>
	<time>2023-08-06T10:37:34.000Z</time>
</trkpt>
<trkpt lat="46.0689380" lon="10.4930260">
	<ele>2494.20</ele>
	<time>2023-08-06T10:37:35.000Z</time>
</trkpt>
<trkpt lat="46.0689410" lon="10.4930290">
	<ele>2493.80</ele>
	<time>2023-08-06T10:37:36.000Z</time>
</trkpt>
<trkpt lat="46.0689460" lon="10.4930350">
	<ele>2493.40</ele>
	<time>2023-08-06T10:37:37.000Z</time>
</trkpt>
<trkpt lat="46.0689470" lon="10.4930400">
	<ele>2493.40</ele>
	<time>2023-08-06T10:37:38.000Z</time>
</trkpt>
<trkpt lat="46.0689470" lon="10.4930430">
	<ele>2493.20</ele>
	<time>2023-08-06T10:37:39.000Z</time>
</trkpt>
<trkpt lat="46.0689500" lon="10.4930460">
	<ele>2493.00</ele>
	<time>2023-08-06T10:37:40.000Z</time>
</trkpt>
<trkpt lat="46.0689540" lon="10.4930420">
	<ele>2493.00</ele>
	<time>2023-08-06T10:37:41.000Z</time>
</trkpt>
<trkpt lat="46.0689580" lon="10.4930370">
	<ele>2493.00</ele>
	<time>2023-08-06T10:37:42.000Z</time>
</trkpt>
<trkpt lat="46.0689670" lon="10.4930330">
	<ele>2492.60</ele>
	<time>2023-08-06T10:37:43.000Z</time>
</trkpt>
<trkpt lat="46.0689730" lon="10.4930310">
	<ele>2492.40</ele>
	<time>2023-08-06T10:37:44.000Z</time>
</trkpt>
<trkpt lat="46.0689770" lon="10.4930360">
	<ele>2492.40</ele>
	<time>2023-08-06T10:37:45.000Z</time>
</trkpt>
<trkpt lat="46.0689800" lon="10.4930380">
	<ele>2492.20</ele>
	<time>2023-08-06T10:37:46.000Z</time>
</trkpt>
<trkpt lat="46.0689840" lon="10.4930400">
	<ele>2491.80</ele>
	<time>2023-08-06T10:37:47.000Z</time>
</trkpt>
<trkpt lat="46.0689880" lon="10.4930380">
	<ele>2491.80</ele>
	<time>2023-08-06T10:37:48.000Z</time>
</trkpt>
<trkpt lat="46.0689920" lon="10.4930370">
	<ele>2491.40</ele>
	<time>2023-08-06T10:37:49.000Z</time>
</trkpt>
<trkpt lat="46.0690000" lon="10.4930360">
	<ele>2491.00</ele>
	<time>2023-08-06T10:37:50.000Z</time>
</trkpt>
<trkpt lat="46.0690070" lon="10.4930350">
	<ele>2490.80</ele>
	<time>2023-08-06T10:37:51.000Z</time>
</trkpt>
<trkpt lat="46.0690130" lon="10.4930330">
	<ele>2490.60</ele>
	<time>2023-08-06T10:37:52.000Z</time>
</trkpt>
<trkpt lat="46.0690190" lon="10.4930320">
	<ele>2490.40</ele>
	<time>2023-08-06T10:37:53.000Z</time>
</trkpt>
<trkpt lat="46.0690240" lon="10.4930270">
	<ele>2490.20</ele>
	<time>2023-08-06T10:37:54.000Z</time>
</trkpt>
<trkpt lat="46.0690290" lon="10.4930240">
	<ele>2490.20</ele>
	<time>2023-08-06T10:37:55.000Z</time>
</trkpt>
<trkpt lat="46.0690280" lon="10.4930270">
	<ele>2490.00</ele>
	<time>2023-08-06T10:37:56.000Z</time>
</trkpt>
<trkpt lat="46.0690290" lon="10.4930290">
	<ele>2489.60</ele>
	<time>2023-08-06T10:37:57.000Z</time>
</trkpt>
<trkpt lat="46.0690300" lon="10.4930300">
	<ele>2489.40</ele>
	<time>2023-08-06T10:37:58.000Z</time>
</trkpt>
<trkpt lat="46.0690320" lon="10.4930310">
	<ele>2489.20</ele>
	<time>2023-08-06T10:37:59.000Z</time>
</trkpt>
<trkpt lat="46.0690350" lon="10.4930330">
	<ele>2489.00</ele>
	<time>2023-08-06T10:38:00.000Z</time>
</trkpt>
<trkpt lat="46.0690400" lon="10.4930280">
	<ele>2488.80</ele>
	<time>2023-08-06T10:38:01.000Z</time>
</trkpt>
<trkpt lat="46.0690470" lon="10.4930260">
	<ele>2488.80</ele>
	<time>2023-08-06T10:38:02.000Z</time>
</trkpt>
<trkpt lat="46.0690520" lon="10.4930260">
	<ele>2488.60</ele>
	<time>2023-08-06T10:38:03.000Z</time>
</trkpt>
<trkpt lat="46.0690570" lon="10.4930280">
	<ele>2488.60</ele>
	<time>2023-08-06T10:38:04.000Z</time>
</trkpt>
<trkpt lat="46.0690630" lon="10.4930270">
	<ele>2488.20</ele>
	<time>2023-08-06T10:38:05.000Z</time>
</trkpt>
<trkpt lat="46.0690670" lon="10.4930290">
	<ele>2488.00</ele>
	<time>2023-08-06T10:38:06.000Z</time>
</trkpt>
<trkpt lat="46.0690710" lon="10.4930310">
	<ele>2487.80</ele>
	<time>2023-08-06T10:38:07.000Z</time>
</trkpt>
<trkpt lat="46.0690780" lon="10.4930330">
	<ele>2487.40</ele>
	<time>2023-08-06T10:38:08.000Z</time>
</trkpt>
<trkpt lat="46.0690810" lon="10.4930250">
	<ele>2487.20</ele>
	<time>2023-08-06T10:38:09.000Z</time>
</trkpt>
<trkpt lat="46.0690840" lon="10.4930220">
	<ele>2487.20</ele>
	<time>2023-08-06T10:38:10.000Z</time>
</trkpt>
<trkpt lat="46.0690890" lon="10.4930220">
	<ele>2486.80</ele>
	<time>2023-08-06T10:38:11.000Z</time>
</trkpt>
<trkpt lat="46.0690930" lon="10.4930210">
	<ele>2486.80</ele>
	<time>2023-08-06T10:38:12.000Z</time>
</trkpt>
<trkpt lat="46.0690960" lon="10.4930210">
	<ele>2486.60</ele>
	<time>2023-08-06T10:38:13.000Z</time>
</trkpt>
<trkpt lat="46.0690990" lon="10.4930210">
	<ele>2486.40</ele>
	<time>2023-08-06T10:38:14.000Z</time>
</trkpt>
<trkpt lat="46.0691060" lon="10.4930190">
	<ele>2486.00</ele>
	<time>2023-08-06T10:38:15.000Z</time>
</trkpt>
<trkpt lat="46.0691100" lon="10.4930160">
	<ele>2486.00</ele>
	<time>2023-08-06T10:38:16.000Z</time>
</trkpt>
<trkpt lat="46.0691130" lon="10.4930130">
	<ele>2485.80</ele>
	<time>2023-08-06T10:38:17.000Z</time>
</trkpt>
<trkpt lat="46.0691170" lon="10.4930090">
	<ele>2485.60</ele>
	<time>2023-08-06T10:38:18.000Z</time>
</trkpt>
<trkpt lat="46.0691190" lon="10.4930100">
	<ele>2485.40</ele>
	<time>2023-08-06T10:38:19.000Z</time>
</trkpt>
<trkpt lat="46.0691220" lon="10.4930090">
	<ele>2485.40</ele>
	<time>2023-08-06T10:38:20.000Z</time>
</trkpt>
<trkpt lat="46.0691250" lon="10.4930080">
	<ele>2485.20</ele>
	<time>2023-08-06T10:38:21.000Z</time>
</trkpt>
<trkpt lat="46.0691290" lon="10.4930080">
	<ele>2485.00</ele>
	<time>2023-08-06T10:38:22.000Z</time>
</trkpt>
<trkpt lat="46.0691330" lon="10.4930070">
	<ele>2484.80</ele>
	<time>2023-08-06T10:38:23.000Z</time>
</trkpt>
<trkpt lat="46.0691370" lon="10.4930060">
	<ele>2484.80</ele>
	<time>2023-08-06T10:38:24.000Z</time>
</trkpt>
<trkpt lat="46.0691420" lon="10.4930080">
	<ele>2484.60</ele>
	<time>2023-08-06T10:38:25.000Z</time>
</trkpt>
<trkpt lat="46.0691460" lon="10.4930070">
	<ele>2484.60</ele>
	<time>2023-08-06T10:38:26.000Z</time>
</trkpt>
<trkpt lat="46.0691500" lon="10.4930100">
	<ele>2484.60</ele>
	<time>2023-08-06T10:38:27.000Z</time>
</trkpt>
<trkpt lat="46.0691550" lon="10.4930140">
	<ele>2484.40</ele>
	<time>2023-08-06T10:38:28.000Z</time>
</trkpt>
<trkpt lat="46.0691570" lon="10.4930180">
	<ele>2484.20</ele>
	<time>2023-08-06T10:38:29.000Z</time>
</trkpt>
<trkpt lat="46.0691610" lon="10.4930240">
	<ele>2484.00</ele>
	<time>2023-08-06T10:38:30.000Z</time>
</trkpt>
<trkpt lat="46.0691640" lon="10.4930340">
	<ele>2483.80</ele>
	<time>2023-08-06T10:38:31.000Z</time>
</trkpt>
<trkpt lat="46.0691680" lon="10.4930380">
	<ele>2483.40</ele>
	<time>2023-08-06T10:38:32.000Z</time>
</trkpt>
<trkpt lat="46.0691710" lon="10.4930420">
	<ele>2483.20</ele>
	<time>2023-08-06T10:38:33.000Z</time>
</trkpt>
<trkpt lat="46.0691740" lon="10.4930430">
	<ele>2482.80</ele>
	<time>2023-08-06T10:38:34.000Z</time>
</trkpt>
<trkpt lat="46.0691760" lon="10.4930490">
	<ele>2482.60</ele>
	<time>2023-08-06T10:38:35.000Z</time>
</trkpt>
<trkpt lat="46.0691760" lon="10.4930560">
	<ele>2482.60</ele>
	<time>2023-08-06T10:38:36.000Z</time>
</trkpt>
<trkpt lat="46.0691770" lon="10.4930650">
	<ele>2482.40</ele>
	<time>2023-08-06T10:38:37.000Z</time>
</trkpt>
<trkpt lat="46.0691770" lon="10.4930680">
	<ele>2482.40</ele>
	<time>2023-08-06T10:38:38.000Z</time>
</trkpt>
<trkpt lat="46.0691780" lon="10.4930710">
	<ele>2482.20</ele>
	<time>2023-08-06T10:38:39.000Z</time>
</trkpt>
<trkpt lat="46.0691800" lon="10.4930710">
	<ele>2482.00</ele>
	<time>2023-08-06T10:38:40.000Z</time>
</trkpt>
<trkpt lat="46.0691820" lon="10.4930770">
	<ele>2481.80</ele>
	<time>2023-08-06T10:38:41.000Z</time>
</trkpt>
<trkpt lat="46.0691840" lon="10.4930850">
	<ele>2481.40</ele>
	<time>2023-08-06T10:38:42.000Z</time>
</trkpt>
<trkpt lat="46.0691880" lon="10.4930880">
	<ele>2481.20</ele>
	<time>2023-08-06T10:38:43.000Z</time>
</trkpt>
<trkpt lat="46.0691930" lon="10.4930970">
	<ele>2481.20</ele>
	<time>2023-08-06T10:38:44.000Z</time>
</trkpt>
<trkpt lat="46.0692010" lon="10.4930990">
	<ele>2481.20</ele>
	<time>2023-08-06T10:38:45.000Z</time>
</trkpt>
<trkpt lat="46.0692100" lon="10.4930970">
	<ele>2481.00</ele>
	<time>2023-08-06T10:38:46.000Z</time>
</trkpt>
<trkpt lat="46.0692200" lon="10.4930910">
	<ele>2480.80</ele>
	<time>2023-08-06T10:38:47.000Z</time>
</trkpt>
<trkpt lat="46.0692290" lon="10.4930880">
	<ele>2480.80</ele>
	<time>2023-08-06T10:38:48.000Z</time>
</trkpt>
<trkpt lat="46.0692360" lon="10.4930860">
	<ele>2480.40</ele>
	<time>2023-08-06T10:38:49.000Z</time>
</trkpt>
<trkpt lat="46.0692430" lon="10.4930870">
	<ele>2480.20</ele>
	<time>2023-08-06T10:38:50.000Z</time>
</trkpt>
<trkpt lat="46.0692490" lon="10.4930920">
	<ele>2480.00</ele>
	<time>2023-08-06T10:38:51.000Z</time>
</trkpt>
<trkpt lat="46.0692530" lon="10.4930930">
	<ele>2479.80</ele>
	<time>2023-08-06T10:38:52.000Z</time>
</trkpt>
<trkpt lat="46.0692570" lon="10.4930950">
	<ele>2479.80</ele>
	<time>2023-08-06T10:38:53.000Z</time>
</trkpt>
<trkpt lat="46.0692610" lon="10.4930970">
	<ele>2479.60</ele>
	<time>2023-08-06T10:38:54.000Z</time>
</trkpt>
<trkpt lat="46.0692640" lon="10.4930990">
	<ele>2479.40</ele>
	<time>2023-08-06T10:38:55.000Z</time>
</trkpt>
<trkpt lat="46.0692650" lon="10.4931010">
	<ele>2479.20</ele>
	<time>2023-08-06T10:38:56.000Z</time>
</trkpt>
<trkpt lat="46.0692640" lon="10.4930940">
	<ele>2479.00</ele>
	<time>2023-08-06T10:38:57.000Z</time>
</trkpt>
<trkpt lat="46.0692650" lon="10.4930910">
	<ele>2479.00</ele>
	<time>2023-08-06T10:38:58.000Z</time>
</trkpt>
<trkpt lat="46.0692740" lon="10.4930840">
	<ele>2478.80</ele>
	<time>2023-08-06T10:38:59.000Z</time>
</trkpt>
<trkpt lat="46.0692770" lon="10.4930750">
	<ele>2478.60</ele>
	<time>2023-08-06T10:39:00.000Z</time>
</trkpt>
<trkpt lat="46.0692850" lon="10.4930690">
	<ele>2478.40</ele>
	<time>2023-08-06T10:39:01.000Z</time>
</trkpt>
<trkpt lat="46.0692970" lon="10.4930720">
	<ele>2478.20</ele>
	<time>2023-08-06T10:39:02.000Z</time>
</trkpt>
<trkpt lat="46.0693050" lon="10.4930710">
	<ele>2478.00</ele>
	<time>2023-08-06T10:39:03.000Z</time>
</trkpt>
<trkpt lat="46.0693130" lon="10.4930690">
	<ele>2478.00</ele>
	<time>2023-08-06T10:39:04.000Z</time>
</trkpt>
<trkpt lat="46.0693220" lon="10.4930650">
	<ele>2477.80</ele>
	<time>2023-08-06T10:39:05.000Z</time>
</trkpt>
<trkpt lat="46.0693310" lon="10.4930580">
	<ele>2477.80</ele>
	<time>2023-08-06T10:39:06.000Z</time>
</trkpt>
<trkpt lat="46.0693380" lon="10.4930510">
	<ele>2477.60</ele>
	<time>2023-08-06T10:39:07.000Z</time>
</trkpt>
<trkpt lat="46.0693480" lon="10.4930490">
	<ele>2477.60</ele>
	<time>2023-08-06T10:39:08.000Z</time>
</trkpt>
<trkpt lat="46.0693580" lon="10.4930560">
	<ele>2477.60</ele>
	<time>2023-08-06T10:39:09.000Z</time>
</trkpt>
<trkpt lat="46.0693670" lon="10.4930580">
	<ele>2477.40</ele>
	<time>2023-08-06T10:39:10.000Z</time>
</trkpt>
<trkpt lat="46.0693740" lon="10.4930580">
	<ele>2477.00</ele>
	<time>2023-08-06T10:39:11.000Z</time>
</trkpt>
<trkpt lat="46.0693830" lon="10.4930600">
	<ele>2476.80</ele>
	<time>2023-08-06T10:39:12.000Z</time>
</trkpt>
<trkpt lat="46.0693920" lon="10.4930600">
	<ele>2476.80</ele>
	<time>2023-08-06T10:39:13.000Z</time>
</trkpt>
<trkpt lat="46.0693990" lon="10.4930600">
	<ele>2476.60</ele>
	<time>2023-08-06T10:39:14.000Z</time>
</trkpt>
<trkpt lat="46.0694060" lon="10.4930620">
	<ele>2476.60</ele>
	<time>2023-08-06T10:39:15.000Z</time>
</trkpt>
<trkpt lat="46.0694120" lon="10.4930610">
	<ele>2476.40</ele>
	<time>2023-08-06T10:39:16.000Z</time>
</trkpt>
<trkpt lat="46.0694200" lon="10.4930600">
	<ele>2476.40</ele>
	<time>2023-08-06T10:39:17.000Z</time>
</trkpt>
<trkpt lat="46.0694260" lon="10.4930580">
	<ele>2476.40</ele>
	<time>2023-08-06T10:39:18.000Z</time>
</trkpt>
<trkpt lat="46.0694310" lon="10.4930540">
	<ele>2476.20</ele>
	<time>2023-08-06T10:39:19.000Z</time>
</trkpt>
<trkpt lat="46.0694360" lon="10.4930490">
	<ele>2475.80</ele>
	<time>2023-08-06T10:39:20.000Z</time>
</trkpt>
<trkpt lat="46.0694390" lon="10.4930480">
	<ele>2475.80</ele>
	<time>2023-08-06T10:39:21.000Z</time>
</trkpt>
<trkpt lat="46.0694410" lon="10.4930500">
	<ele>2475.60</ele>
	<time>2023-08-06T10:39:22.000Z</time>
</trkpt>
<trkpt lat="46.0694420" lon="10.4930550">
	<ele>2475.40</ele>
	<time>2023-08-06T10:39:23.000Z</time>
</trkpt>
<trkpt lat="46.0694430" lon="10.4930570">
	<ele>2475.00</ele>
	<time>2023-08-06T10:39:24.000Z</time>
</trkpt>
<trkpt lat="46.0694430" lon="10.4930650">
	<ele>2475.00</ele>
	<time>2023-08-06T10:39:25.000Z</time>
</trkpt>
<trkpt lat="46.0694400" lon="10.4930670">
	<ele>2474.80</ele>
	<time>2023-08-06T10:39:26.000Z</time>
</trkpt>
<trkpt lat="46.0694390" lon="10.4930660">
	<ele>2474.80</ele>
	<time>2023-08-06T10:39:27.000Z</time>
</trkpt>
<trkpt lat="46.0694370" lon="10.4930670">
	<ele>2474.80</ele>
	<time>2023-08-06T10:39:28.000Z</time>
</trkpt>
<trkpt lat="46.0694380" lon="10.4930660">
	<ele>2474.80</ele>
	<time>2023-08-06T10:39:29.000Z</time>
</trkpt>
<trkpt lat="46.0694380" lon="10.4930650">
	<ele>2474.80</ele>
	<time>2023-08-06T10:39:30.000Z</time>
</trkpt>
<trkpt lat="46.0694380" lon="10.4930650">
	<ele>2474.80</ele>
	<time>2023-08-06T10:39:31.000Z</time>
</trkpt>
<trkpt lat="46.0694380" lon="10.4930650">
	<ele>2474.80</ele>
	<time>2023-08-06T10:39:32.000Z</time>
</trkpt>
<trkpt lat="46.0694380" lon="10.4930650">
	<ele>2475.00</ele>
	<time>2023-08-06T10:39:33.000Z</time>
</trkpt>
<trkpt lat="46.0694380" lon="10.4930650">
	<ele>2475.20</ele>
	<time>2023-08-06T10:39:34.000Z</time>
</trkpt>
<trkpt lat="46.0694380" lon="10.4930650">
	<ele>2475.40</ele>
	<time>2023-08-06T10:39:35.000Z</time>
</trkpt>
<trkpt lat="46.0694380" lon="10.4930650">
	<ele>2475.40</ele>
	<time>2023-08-06T10:39:36.000Z</time>
</trkpt>
<trkpt lat="46.0694380" lon="10.4930650">
	<ele>2475.60</ele>
	<time>2023-08-06T10:39:37.000Z</time>
</trkpt>
<trkpt lat="46.0694380" lon="10.4930650">
	<ele>2475.60</ele>
	<time>2023-08-06T10:39:38.000Z</time>
</trkpt>
<trkpt lat="46.0694380" lon="10.4930650">
	<ele>2475.40</ele>
	<time>2023-08-06T10:39:39.000Z</time>
</trkpt>
<trkpt lat="46.0694380" lon="10.4930650">
	<ele>2475.40</ele>
	<time>2023-08-06T10:39:40.000Z</time>
</trkpt>
<trkpt lat="46.0694380" lon="10.4930650">
	<ele>2475.20</ele>
	<time>2023-08-06T10:39:41.000Z</time>
</trkpt>
<trkpt lat="46.0694380" lon="10.4930650">
	<ele>2475.00</ele>
	<time>2023-08-06T10:39:42.000Z</time>
</trkpt>
<trkpt lat="46.0694380" lon="10.4930650">
	<ele>2474.60</ele>
	<time>2023-08-06T10:39:43.000Z</time>
</trkpt>
<trkpt lat="46.0694380" lon="10.4930650">
	<ele>2474.40</ele>
	<time>2023-08-06T10:39:44.000Z</time>
</trkpt>
<trkpt lat="46.0694370" lon="10.4930650">
	<ele>2474.40</ele>
	<time>2023-08-06T10:39:45.000Z</time>
</trkpt>
<trkpt lat="46.0694360" lon="10.4930660">
	<ele>2474.40</ele>
	<time>2023-08-06T10:39:46.000Z</time>
</trkpt>
<trkpt lat="46.0694350" lon="10.4930660">
	<ele>2474.20</ele>
	<time>2023-08-06T10:39:47.000Z</time>
</trkpt>
<trkpt lat="46.0694350" lon="10.4930660">
	<ele>2474.20</ele>
	<time>2023-08-06T10:39:48.000Z</time>
</trkpt>
<trkpt lat="46.0694350" lon="10.4930670">
	<ele>2474.20</ele>
	<time>2023-08-06T10:39:49.000Z</time>
</trkpt>
<trkpt lat="46.0694340" lon="10.4930670">
	<ele>2474.00</ele>
	<time>2023-08-06T10:39:50.000Z</time>
</trkpt>
<trkpt lat="46.0694330" lon="10.4930670">
	<ele>2473.80</ele>
	<time>2023-08-06T10:39:51.000Z</time>
</trkpt>
<trkpt lat="46.0694330" lon="10.4930670">
	<ele>2473.60</ele>
	<time>2023-08-06T10:39:52.000Z</time>
</trkpt>
<trkpt lat="46.0694330" lon="10.4930710">
	<ele>2473.60</ele>
	<time>2023-08-06T10:39:53.000Z</time>
</trkpt>
<trkpt lat="46.0694330" lon="10.4930710">
	<ele>2473.60</ele>
	<time>2023-08-06T10:39:54.000Z</time>
</trkpt>
<trkpt lat="46.0694330" lon="10.4930710">
	<ele>2473.40</ele>
	<time>2023-08-06T10:39:55.000Z</time>
</trkpt>
<trkpt lat="46.0694330" lon="10.4930710">
	<ele>2473.20</ele>
	<time>2023-08-06T10:39:56.000Z</time>
</trkpt>
<trkpt lat="46.0694330" lon="10.4930710">
	<ele>2473.00</ele>
	<time>2023-08-06T10:39:57.000Z</time>
</trkpt>
<trkpt lat="46.0694330" lon="10.4930710">
	<ele>2472.40</ele>
	<time>2023-08-06T10:39:58.000Z</time>
</trkpt>
<trkpt lat="46.0694330" lon="10.4930710">
	<ele>2472.00</ele>
	<time>2023-08-06T10:39:59.000Z</time>
</trkpt>
<trkpt lat="46.0694330" lon="10.4930710">
	<ele>2471.80</ele>
	<time>2023-08-06T10:40:00.000Z</time>
</trkpt>
<trkpt lat="46.0694330" lon="10.4930710">
	<ele>2471.40</ele>
	<time>2023-08-06T10:40:01.000Z</time>
</trkpt>
<trkpt lat="46.0694330" lon="10.4930710">
	<ele>2471.20</ele>
	<time>2023-08-06T10:40:02.000Z</time>
</trkpt>
<trkpt lat="46.0694340" lon="10.4930710">
	<ele>2471.00</ele>
	<time>2023-08-06T10:40:03.000Z</time>
</trkpt>
<trkpt lat="46.0694350" lon="10.4930710">
	<ele>2470.80</ele>
	<time>2023-08-06T10:40:04.000Z</time>
</trkpt>
<trkpt lat="46.0694350" lon="10.4930710">
	<ele>2470.60</ele>
	<time>2023-08-06T10:40:05.000Z</time>
</trkpt>
<trkpt lat="46.0694350" lon="10.4930710">
	<ele>2470.60</ele>
	<time>2023-08-06T10:40:06.000Z</time>
</trkpt>
<trkpt lat="46.0694390" lon="10.4930710">
	<ele>2470.60</ele>
	<time>2023-08-06T10:40:07.000Z</time>
</trkpt>
<trkpt lat="46.0694420" lon="10.4930700">
	<ele>2470.40</ele>
	<time>2023-08-06T10:40:08.000Z</time>
</trkpt>
<trkpt lat="46.0694450" lon="10.4930680">
	<ele>2470.40</ele>
	<time>2023-08-06T10:40:09.000Z</time>
</trkpt>
<trkpt lat="46.0694490" lon="10.4930660">
	<ele>2470.20</ele>
	<time>2023-08-06T10:40:10.000Z</time>
</trkpt>
<trkpt lat="46.0694530" lon="10.4930650">
	<ele>2469.80</ele>
	<time>2023-08-06T10:40:11.000Z</time>
</trkpt>
<trkpt lat="46.0694560" lon="10.4930650">
	<ele>2469.60</ele>
	<time>2023-08-06T10:40:12.000Z</time>
</trkpt>
<trkpt lat="46.0694570" lon="10.4930630">
	<ele>2469.40</ele>
	<time>2023-08-06T10:40:13.000Z</time>
</trkpt>
<trkpt lat="46.0694590" lon="10.4930610">
	<ele>2469.20</ele>
	<time>2023-08-06T10:40:14.000Z</time>
</trkpt>
<trkpt lat="46.0694600" lon="10.4930530">
	<ele>2468.80</ele>
	<time>2023-08-06T10:40:15.000Z</time>
</trkpt>
<trkpt lat="46.0694670" lon="10.4930460">
	<ele>2468.60</ele>
	<time>2023-08-06T10:40:16.000Z</time>
</trkpt>
<trkpt lat="46.0694780" lon="10.4930310">
	<ele>2468.60</ele>
	<time>2023-08-06T10:40:17.000Z</time>
</trkpt>
<trkpt lat="46.0694930" lon="10.4930160">
	<ele>2468.40</ele>
	<time>2023-08-06T10:40:18.000Z</time>
</trkpt>
<trkpt lat="46.0695060" lon="10.4929980">
	<ele>2468.40</ele>
	<time>2023-08-06T10:40:19.000Z</time>
</trkpt>
<trkpt lat="46.0695190" lon="10.4929800">
	<ele>2468.40</ele>
	<time>2023-08-06T10:40:20.000Z</time>
</trkpt>
<trkpt lat="46.0695340" lon="10.4929650">
	<ele>2468.60</ele>
	<time>2023-08-06T10:40:21.000Z</time>
</trkpt>
<trkpt lat="46.0695460" lon="10.4929520">
	<ele>2468.60</ele>
	<time>2023-08-06T10:40:22.000Z</time>
</trkpt>
<trkpt lat="46.0695610" lon="10.4929420">
	<ele>2468.80</ele>
	<time>2023-08-06T10:40:23.000Z</time>
</trkpt>
<trkpt lat="46.0695770" lon="10.4929320">
	<ele>2468.80</ele>
	<time>2023-08-06T10:40:24.000Z</time>
</trkpt>
<trkpt lat="46.0695910" lon="10.4929200">
	<ele>2469.00</ele>
	<time>2023-08-06T10:40:25.000Z</time>
</trkpt>
<trkpt lat="46.0695990" lon="10.4929150">
	<ele>2469.20</ele>
	<time>2023-08-06T10:40:26.000Z</time>
</trkpt>
<trkpt lat="46.0696040" lon="10.4929120">
	<ele>2469.40</ele>
	<time>2023-08-06T10:40:27.000Z</time>
</trkpt>
<trkpt lat="46.0696080" lon="10.4929090">
	<ele>2469.60</ele>
	<time>2023-08-06T10:40:28.000Z</time>
</trkpt>
<trkpt lat="46.0696150" lon="10.4929030">
	<ele>2469.80</ele>
	<time>2023-08-06T10:40:29.000Z</time>
</trkpt>
<trkpt lat="46.0696220" lon="10.4929000">
	<ele>2470.00</ele>
	<time>2023-08-06T10:40:30.000Z</time>
</trkpt>
<trkpt lat="46.0696290" lon="10.4928950">
	<ele>2470.20</ele>
	<time>2023-08-06T10:40:31.000Z</time>
</trkpt>
<trkpt lat="46.0696360" lon="10.4928910">
	<ele>2470.40</ele>
	<time>2023-08-06T10:40:32.000Z</time>
</trkpt>
<trkpt lat="46.0696450" lon="10.4928850">
	<ele>2470.60</ele>
	<time>2023-08-06T10:40:33.000Z</time>
</trkpt>
<trkpt lat="46.0696490" lon="10.4928790">
	<ele>2470.80</ele>
	<time>2023-08-06T10:40:34.000Z</time>
</trkpt>
<trkpt lat="46.0696520" lon="10.4928640">
	<ele>2471.20</ele>
	<time>2023-08-06T10:40:35.000Z</time>
</trkpt>
<trkpt lat="46.0696550" lon="10.4928570">
	<ele>2471.40</ele>
	<time>2023-08-06T10:40:36.000Z</time>
</trkpt>
<trkpt lat="46.0696590" lon="10.4928450">
	<ele>2471.60</ele>
	<time>2023-08-06T10:40:37.000Z</time>
</trkpt>
<trkpt lat="46.0696640" lon="10.4928380">
	<ele>2471.80</ele>
	<time>2023-08-06T10:40:38.000Z</time>
</trkpt>
<trkpt lat="46.0696700" lon="10.4928290">
	<ele>2471.80</ele>
	<time>2023-08-06T10:40:39.000Z</time>
</trkpt>
<trkpt lat="46.0696780" lon="10.4928250">
	<ele>2472.00</ele>
	<time>2023-08-06T10:40:40.000Z</time>
</trkpt>
<trkpt lat="46.0696860" lon="10.4928200">
	<ele>2472.00</ele>
	<time>2023-08-06T10:40:41.000Z</time>
</trkpt>
<trkpt lat="46.0696970" lon="10.4928180">
	<ele>2472.00</ele>
	<time>2023-08-06T10:40:42.000Z</time>
</trkpt>
<trkpt lat="46.0697070" lon="10.4928070">
	<ele>2472.00</ele>
	<time>2023-08-06T10:40:43.000Z</time>
</trkpt>
<trkpt lat="46.0697160" lon="10.4928030">
	<ele>2472.00</ele>
	<time>2023-08-06T10:40:44.000Z</time>
</trkpt>
<trkpt lat="46.0697210" lon="10.4927890">
	<ele>2472.00</ele>
	<time>2023-08-06T10:40:45.000Z</time>
</trkpt>
<trkpt lat="46.0697240" lon="10.4927720">
	<ele>2472.00</ele>
	<time>2023-08-06T10:40:46.000Z</time>
</trkpt>
<trkpt lat="46.0697410" lon="10.4927740">
	<ele>2472.00</ele>
	<time>2023-08-06T10:40:47.000Z</time>
</trkpt>
<trkpt lat="46.0697510" lon="10.4927840">
	<ele>2472.20</ele>
	<time>2023-08-06T10:40:48.000Z</time>
</trkpt>
<trkpt lat="46.0697590" lon="10.4927920">
	<ele>2472.00</ele>
	<time>2023-08-06T10:40:49.000Z</time>
</trkpt>
<trkpt lat="46.0697730" lon="10.4928030">
	<ele>2471.80</ele>
	<time>2023-08-06T10:40:50.000Z</time>
</trkpt>
<trkpt lat="46.0697860" lon="10.4928050">
	<ele>2471.60</ele>
	<time>2023-08-06T10:40:51.000Z</time>
</trkpt>
<trkpt lat="46.0697920" lon="10.4927980">
	<ele>2471.40</ele>
	<time>2023-08-06T10:40:52.000Z</time>
</trkpt>
<trkpt lat="46.0698090" lon="10.4927980">
	<ele>2471.20</ele>
	<time>2023-08-06T10:40:53.000Z</time>
</trkpt>
<trkpt lat="46.0698230" lon="10.4928000">
	<ele>2471.00</ele>
	<time>2023-08-06T10:40:54.000Z</time>
</trkpt>
<trkpt lat="46.0698290" lon="10.4927980">
	<ele>2471.00</ele>
	<time>2023-08-06T10:40:55.000Z</time>
</trkpt>
<trkpt lat="46.0698400" lon="10.4927960">
	<ele>2471.00</ele>
	<time>2023-08-06T10:40:56.000Z</time>
</trkpt>
<trkpt lat="46.0698500" lon="10.4927900">
	<ele>2471.00</ele>
	<time>2023-08-06T10:40:57.000Z</time>
</trkpt>
<trkpt lat="46.0698610" lon="10.4927850">
	<ele>2470.80</ele>
	<time>2023-08-06T10:40:58.000Z</time>
</trkpt>
<trkpt lat="46.0698700" lon="10.4927810">
	<ele>2470.80</ele>
	<time>2023-08-06T10:40:59.000Z</time>
</trkpt>
<trkpt lat="46.0698730" lon="10.4927770">
	<ele>2470.80</ele>
	<time>2023-08-06T10:41:00.000Z</time>
</trkpt>
<trkpt lat="46.0698780" lon="10.4927730">
	<ele>2470.80</ele>
	<time>2023-08-06T10:41:01.000Z</time>
</trkpt>
<trkpt lat="46.0698830" lon="10.4927740">
	<ele>2471.00</ele>
	<time>2023-08-06T10:41:02.000Z</time>
</trkpt>
<trkpt lat="46.0698890" lon="10.4927760">
	<ele>2470.80</ele>
	<time>2023-08-06T10:41:03.000Z</time>
</trkpt>
<trkpt lat="46.0698940" lon="10.4927830">
	<ele>2470.80</ele>
	<time>2023-08-06T10:41:04.000Z</time>
</trkpt>
<trkpt lat="46.0699010" lon="10.4927900">
	<ele>2470.60</ele>
	<time>2023-08-06T10:41:05.000Z</time>
</trkpt>
<trkpt lat="46.0699090" lon="10.4927980">
	<ele>2470.40</ele>
	<time>2023-08-06T10:41:06.000Z</time>
</trkpt>
<trkpt lat="46.0699170" lon="10.4928060">
	<ele>2470.40</ele>
	<time>2023-08-06T10:41:07.000Z</time>
</trkpt>
<trkpt lat="46.0699270" lon="10.4928170">
	<ele>2470.20</ele>
	<time>2023-08-06T10:41:08.000Z</time>
</trkpt>
<trkpt lat="46.0699380" lon="10.4928280">
	<ele>2470.20</ele>
	<time>2023-08-06T10:41:09.000Z</time>
</trkpt>
<trkpt lat="46.0699460" lon="10.4928330">
	<ele>2469.80</ele>
	<time>2023-08-06T10:41:10.000Z</time>
</trkpt>
<trkpt lat="46.0699570" lon="10.4928380">
	<ele>2469.80</ele>
	<time>2023-08-06T10:41:11.000Z</time>
</trkpt>
<trkpt lat="46.0699660" lon="10.4928380">
	<ele>2469.60</ele>
	<time>2023-08-06T10:41:12.000Z</time>
</trkpt>
<trkpt lat="46.0699730" lon="10.4928380">
	<ele>2469.60</ele>
	<time>2023-08-06T10:41:13.000Z</time>
</trkpt>
<trkpt lat="46.0699800" lon="10.4928410">
	<ele>2469.40</ele>
	<time>2023-08-06T10:41:14.000Z</time>
</trkpt>
<trkpt lat="46.0699870" lon="10.4928470">
	<ele>2469.40</ele>
	<time>2023-08-06T10:41:15.000Z</time>
</trkpt>
<trkpt lat="46.0699910" lon="10.4928530">
	<ele>2469.40</ele>
	<time>2023-08-06T10:41:16.000Z</time>
</trkpt>
<trkpt lat="46.0699940" lon="10.4928540">
	<ele>2469.40</ele>
	<time>2023-08-06T10:41:17.000Z</time>
</trkpt>
<trkpt lat="46.0699980" lon="10.4928510">
	<ele>2469.20</ele>
	<time>2023-08-06T10:41:18.000Z</time>
</trkpt>
<trkpt lat="46.0700020" lon="10.4928530">
	<ele>2469.20</ele>
	<time>2023-08-06T10:41:19.000Z</time>
</trkpt>
<trkpt lat="46.0700060" lon="10.4928500">
	<ele>2469.20</ele>
	<time>2023-08-06T10:41:20.000Z</time>
</trkpt>
<trkpt lat="46.0700120" lon="10.4928440">
	<ele>2469.00</ele>
	<time>2023-08-06T10:41:21.000Z</time>
</trkpt>
<trkpt lat="46.0700180" lon="10.4928440">
	<ele>2469.00</ele>
	<time>2023-08-06T10:41:22.000Z</time>
</trkpt>
<trkpt lat="46.0700280" lon="10.4928510">
	<ele>2468.60</ele>
	<time>2023-08-06T10:41:23.000Z</time>
</trkpt>
<trkpt lat="46.0700400" lon="10.4928560">
	<ele>2468.60</ele>
	<time>2023-08-06T10:41:24.000Z</time>
</trkpt>
<trkpt lat="46.0700540" lon="10.4928600">
	<ele>2468.40</ele>
	<time>2023-08-06T10:41:25.000Z</time>
</trkpt>
<trkpt lat="46.0700620" lon="10.4928620">
	<ele>2468.40</ele>
	<time>2023-08-06T10:41:26.000Z</time>
</trkpt>
<trkpt lat="46.0700670" lon="10.4928610">
	<ele>2468.40</ele>
	<time>2023-08-06T10:41:27.000Z</time>
</trkpt>
<trkpt lat="46.0700710" lon="10.4928600">
	<ele>2468.40</ele>
	<time>2023-08-06T10:41:28.000Z</time>
</trkpt>
<trkpt lat="46.0700770" lon="10.4928590">
	<ele>2468.60</ele>
	<time>2023-08-06T10:41:29.000Z</time>
</trkpt>
<trkpt lat="46.0700890" lon="10.4928460">
	<ele>2468.80</ele>
	<time>2023-08-06T10:41:30.000Z</time>
</trkpt>
<trkpt lat="46.0701060" lon="10.4928560">
	<ele>2469.00</ele>
	<time>2023-08-06T10:41:31.000Z</time>
</trkpt>
<trkpt lat="46.0701160" lon="10.4928550">
	<ele>2469.00</ele>
	<time>2023-08-06T10:41:32.000Z</time>
</trkpt>
<trkpt lat="46.0701210" lon="10.4928470">
	<ele>2469.20</ele>
	<time>2023-08-06T10:41:33.000Z</time>
</trkpt>
<trkpt lat="46.0701270" lon="10.4928440">
	<ele>2469.60</ele>
	<time>2023-08-06T10:41:34.000Z</time>
</trkpt>
<trkpt lat="46.0701280" lon="10.4928400">
	<ele>2469.80</ele>
	<time>2023-08-06T10:41:35.000Z</time>
</trkpt>
<trkpt lat="46.0701350" lon="10.4928400">
	<ele>2469.80</ele>
	<time>2023-08-06T10:41:36.000Z</time>
</trkpt>
<trkpt lat="46.0701420" lon="10.4928410">
	<ele>2470.00</ele>
	<time>2023-08-06T10:41:37.000Z</time>
</trkpt>
<trkpt lat="46.0701510" lon="10.4928430">
	<ele>2470.20</ele>
	<time>2023-08-06T10:41:38.000Z</time>
</trkpt>
<trkpt lat="46.0701570" lon="10.4928490">
	<ele>2470.40</ele>
	<time>2023-08-06T10:41:39.000Z</time>
</trkpt>
<trkpt lat="46.0701680" lon="10.4928530">
	<ele>2470.40</ele>
	<time>2023-08-06T10:41:40.000Z</time>
</trkpt>
<trkpt lat="46.0701770" lon="10.4928550">
	<ele>2470.40</ele>
	<time>2023-08-06T10:41:41.000Z</time>
</trkpt>
<trkpt lat="46.0701830" lon="10.4928630">
	<ele>2470.60</ele>
	<time>2023-08-06T10:41:42.000Z</time>
</trkpt>
<trkpt lat="46.0701910" lon="10.4928680">
	<ele>2470.80</ele>
	<time>2023-08-06T10:41:43.000Z</time>
</trkpt>
<trkpt lat="46.0701990" lon="10.4928760">
	<ele>2471.00</ele>
	<time>2023-08-06T10:41:44.000Z</time>
</trkpt>
<trkpt lat="46.0702070" lon="10.4928840">
	<ele>2471.20</ele>
	<time>2023-08-06T10:41:45.000Z</time>
</trkpt>
<trkpt lat="46.0702130" lon="10.4928830">
	<ele>2471.20</ele>
	<time>2023-08-06T10:41:46.000Z</time>
</trkpt>
<trkpt lat="46.0702200" lon="10.4928830">
	<ele>2471.40</ele>
	<time>2023-08-06T10:41:47.000Z</time>
</trkpt>
<trkpt lat="46.0702280" lon="10.4928830">
	<ele>2471.60</ele>
	<time>2023-08-06T10:41:48.000Z</time>
</trkpt>
<trkpt lat="46.0702370" lon="10.4928900">
	<ele>2471.60</ele>
	<time>2023-08-06T10:41:49.000Z</time>
</trkpt>
<trkpt lat="46.0702480" lon="10.4928930">
	<ele>2471.60</ele>
	<time>2023-08-06T10:41:50.000Z</time>
</trkpt>
<trkpt lat="46.0702570" lon="10.4928970">
	<ele>2471.80</ele>
	<time>2023-08-06T10:41:51.000Z</time>
</trkpt>
<trkpt lat="46.0702700" lon="10.4929040">
	<ele>2471.80</ele>
	<time>2023-08-06T10:41:52.000Z</time>
</trkpt>
<trkpt lat="46.0702800" lon="10.4929090">
	<ele>2471.60</ele>
	<time>2023-08-06T10:41:53.000Z</time>
</trkpt>
<trkpt lat="46.0702900" lon="10.4929170">
	<ele>2471.80</ele>
	<time>2023-08-06T10:41:54.000Z</time>
</trkpt>
<trkpt lat="46.0702990" lon="10.4929180">
	<ele>2471.80</ele>
	<time>2023-08-06T10:41:55.000Z</time>
</trkpt>
<trkpt lat="46.0703070" lon="10.4929220">
	<ele>2471.80</ele>
	<time>2023-08-06T10:41:56.000Z</time>
</trkpt>
<trkpt lat="46.0703140" lon="10.4929260">
	<ele>2471.80</ele>
	<time>2023-08-06T10:41:57.000Z</time>
</trkpt>
<trkpt lat="46.0703180" lon="10.4929280">
	<ele>2471.80</ele>
	<time>2023-08-06T10:41:58.000Z</time>
</trkpt>
<trkpt lat="46.0703240" lon="10.4929290">
	<ele>2471.80</ele>
	<time>2023-08-06T10:41:59.000Z</time>
</trkpt>
<trkpt lat="46.0703340" lon="10.4929340">
	<ele>2471.80</ele>
	<time>2023-08-06T10:42:00.000Z</time>
</trkpt>
<trkpt lat="46.0703420" lon="10.4929400">
	<ele>2472.00</ele>
	<time>2023-08-06T10:42:01.000Z</time>
</trkpt>
<trkpt lat="46.0703490" lon="10.4929460">
	<ele>2472.00</ele>
	<time>2023-08-06T10:42:02.000Z</time>
</trkpt>
<trkpt lat="46.0703540" lon="10.4929540">
	<ele>2472.00</ele>
	<time>2023-08-06T10:42:03.000Z</time>
</trkpt>
<trkpt lat="46.0703580" lon="10.4929630">
	<ele>2472.00</ele>
	<time>2023-08-06T10:42:04.000Z</time>
</trkpt>
<trkpt lat="46.0703640" lon="10.4929720">
	<ele>2472.00</ele>
	<time>2023-08-06T10:42:05.000Z</time>
</trkpt>
<trkpt lat="46.0703680" lon="10.4929820">
	<ele>2472.00</ele>
	<time>2023-08-06T10:42:06.000Z</time>
</trkpt>
<trkpt lat="46.0703720" lon="10.4929930">
	<ele>2472.00</ele>
	<time>2023-08-06T10:42:07.000Z</time>
</trkpt>
<trkpt lat="46.0703760" lon="10.4930020">
	<ele>2471.80</ele>
	<time>2023-08-06T10:42:08.000Z</time>
</trkpt>
<trkpt lat="46.0703810" lon="10.4930110">
	<ele>2471.80</ele>
	<time>2023-08-06T10:42:09.000Z</time>
</trkpt>
<trkpt lat="46.0703880" lon="10.4930180">
	<ele>2471.80</ele>
	<time>2023-08-06T10:42:10.000Z</time>
</trkpt>
<trkpt lat="46.0703920" lon="10.4930220">
	<ele>2471.80</ele>
	<time>2023-08-06T10:42:11.000Z</time>
</trkpt>
<trkpt lat="46.0703940" lon="10.4930230">
	<ele>2471.60</ele>
	<time>2023-08-06T10:42:12.000Z</time>
</trkpt>
<trkpt lat="46.0703960" lon="10.4930240">
	<ele>2471.60</ele>
	<time>2023-08-06T10:42:13.000Z</time>
</trkpt>
<trkpt lat="46.0703950" lon="10.4930250">
	<ele>2471.60</ele>
	<time>2023-08-06T10:42:14.000Z</time>
</trkpt>
<trkpt lat="46.0703910" lon="10.4930270">
	<ele>2471.40</ele>
	<time>2023-08-06T10:42:15.000Z</time>
</trkpt>
<trkpt lat="46.0703890" lon="10.4930290">
	<ele>2471.40</ele>
	<time>2023-08-06T10:42:16.000Z</time>
</trkpt>
<trkpt lat="46.0703880" lon="10.4930290">
	<ele>2471.40</ele>
	<time>2023-08-06T10:42:17.000Z</time>
</trkpt>
<trkpt lat="46.0703890" lon="10.4930270">
	<ele>2471.40</ele>
	<time>2023-08-06T10:42:18.000Z</time>
</trkpt>
<trkpt lat="46.0703890" lon="10.4930260">
	<ele>2471.40</ele>
	<time>2023-08-06T10:42:19.000Z</time>
</trkpt>
<trkpt lat="46.0703880" lon="10.4930280">
	<ele>2471.40</ele>
	<time>2023-08-06T10:42:20.000Z</time>
</trkpt>
<trkpt lat="46.0703890" lon="10.4930300">
	<ele>2471.40</ele>
	<time>2023-08-06T10:42:21.000Z</time>
</trkpt>
<trkpt lat="46.0703930" lon="10.4930380">
	<ele>2471.40</ele>
	<time>2023-08-06T10:42:22.000Z</time>
</trkpt>
<trkpt lat="46.0703970" lon="10.4930480">
	<ele>2471.40</ele>
	<time>2023-08-06T10:42:23.000Z</time>
</trkpt>
<trkpt lat="46.0704030" lon="10.4930570">
	<ele>2471.40</ele>
	<time>2023-08-06T10:42:24.000Z</time>
</trkpt>
<trkpt lat="46.0704100" lon="10.4930640">
	<ele>2471.40</ele>
	<time>2023-08-06T10:42:25.000Z</time>
</trkpt>
<trkpt lat="46.0704170" lon="10.4930670">
	<ele>2471.20</ele>
	<time>2023-08-06T10:42:26.000Z</time>
</trkpt>
<trkpt lat="46.0704200" lon="10.4930740">
	<ele>2471.20</ele>
	<time>2023-08-06T10:42:27.000Z</time>
</trkpt>
<trkpt lat="46.0704240" lon="10.4930830">
	<ele>2471.20</ele>
	<time>2023-08-06T10:42:28.000Z</time>
</trkpt>
<trkpt lat="46.0704290" lon="10.4930900">
	<ele>2471.40</ele>
	<time>2023-08-06T10:42:29.000Z</time>
</trkpt>
<trkpt lat="46.0704350" lon="10.4930940">
	<ele>2471.60</ele>
	<time>2023-08-06T10:42:30.000Z</time>
</trkpt>
<trkpt lat="46.0704440" lon="10.4930960">
	<ele>2471.80</ele>
	<time>2023-08-06T10:42:31.000Z</time>
</trkpt>
<trkpt lat="46.0704510" lon="10.4930980">
	<ele>2472.00</ele>
	<time>2023-08-06T10:42:32.000Z</time>
</trkpt>
<trkpt lat="46.0704590" lon="10.4931010">
	<ele>2472.00</ele>
	<time>2023-08-06T10:42:33.000Z</time>
</trkpt>
<trkpt lat="46.0704660" lon="10.4931050">
	<ele>2472.20</ele>
	<time>2023-08-06T10:42:34.000Z</time>
</trkpt>
<trkpt lat="46.0704750" lon="10.4931080">
	<ele>2472.40</ele>
	<time>2023-08-06T10:42:35.000Z</time>
</trkpt>
<trkpt lat="46.0704840" lon="10.4931100">
	<ele>2472.60</ele>
	<time>2023-08-06T10:42:36.000Z</time>
</trkpt>
<trkpt lat="46.0704910" lon="10.4931160">
	<ele>2472.60</ele>
	<time>2023-08-06T10:42:37.000Z</time>
</trkpt>
<trkpt lat="46.0704980" lon="10.4931210">
	<ele>2472.60</ele>
	<time>2023-08-06T10:42:38.000Z</time>
</trkpt>
<trkpt lat="46.0705040" lon="10.4931250">
	<ele>2472.80</ele>
	<time>2023-08-06T10:42:39.000Z</time>
</trkpt>
<trkpt lat="46.0705070" lon="10.4931360">
	<ele>2472.60</ele>
	<time>2023-08-06T10:42:40.000Z</time>
</trkpt>
<trkpt lat="46.0705060" lon="10.4931510">
	<ele>2472.60</ele>
	<time>2023-08-06T10:42:41.000Z</time>
</trkpt>
<trkpt lat="46.0705100" lon="10.4931600">
	<ele>2472.80</ele>
	<time>2023-08-06T10:42:42.000Z</time>
</trkpt>
<trkpt lat="46.0705110" lon="10.4931720">
	<ele>2472.80</ele>
	<time>2023-08-06T10:42:43.000Z</time>
</trkpt>
<trkpt lat="46.0705120" lon="10.4931890">
	<ele>2472.80</ele>
	<time>2023-08-06T10:42:44.000Z</time>
</trkpt>
<trkpt lat="46.0705120" lon="10.4932030">
	<ele>2472.80</ele>
	<time>2023-08-06T10:42:45.000Z</time>
</trkpt>
<trkpt lat="46.0705110" lon="10.4932140">
	<ele>2472.60</ele>
	<time>2023-08-06T10:42:46.000Z</time>
</trkpt>
<trkpt lat="46.0705110" lon="10.4932230">
	<ele>2472.40</ele>
	<time>2023-08-06T10:42:47.000Z</time>
</trkpt>
<trkpt lat="46.0705110" lon="10.4932300">
	<ele>2472.20</ele>
	<time>2023-08-06T10:42:48.000Z</time>
</trkpt>
<trkpt lat="46.0705170" lon="10.4932360">
	<ele>2472.00</ele>
	<time>2023-08-06T10:42:49.000Z</time>
</trkpt>
<trkpt lat="46.0705200" lon="10.4932400">
	<ele>2471.80</ele>
	<time>2023-08-06T10:42:50.000Z</time>
</trkpt>
<trkpt lat="46.0705240" lon="10.4932480">
	<ele>2471.80</ele>
	<time>2023-08-06T10:42:51.000Z</time>
</trkpt>
<trkpt lat="46.0705270" lon="10.4932500">
	<ele>2471.60</ele>
	<time>2023-08-06T10:42:52.000Z</time>
</trkpt>
<trkpt lat="46.0705320" lon="10.4932570">
	<ele>2471.20</ele>
	<time>2023-08-06T10:42:53.000Z</time>
</trkpt>
<trkpt lat="46.0705350" lon="10.4932600">
	<ele>2471.00</ele>
	<time>2023-08-06T10:42:54.000Z</time>
</trkpt>
<trkpt lat="46.0705360" lon="10.4932630">
	<ele>2470.80</ele>
	<time>2023-08-06T10:42:55.000Z</time>
</trkpt>
<trkpt lat="46.0705390" lon="10.4932670">
	<ele>2470.80</ele>
	<time>2023-08-06T10:42:56.000Z</time>
</trkpt>
<trkpt lat="46.0705400" lon="10.4932690">
	<ele>2470.60</ele>
	<time>2023-08-06T10:42:57.000Z</time>
</trkpt>
<trkpt lat="46.0705420" lon="10.4932720">
	<ele>2470.40</ele>
	<time>2023-08-06T10:42:58.000Z</time>
</trkpt>
<trkpt lat="46.0705460" lon="10.4932800">
	<ele>2470.00</ele>
	<time>2023-08-06T10:42:59.000Z</time>
</trkpt>
<trkpt lat="46.0705480" lon="10.4932880">
	<ele>2469.80</ele>
	<time>2023-08-06T10:43:00.000Z</time>
</trkpt>
<trkpt lat="46.0705520" lon="10.4932930">
	<ele>2469.80</ele>
	<time>2023-08-06T10:43:01.000Z</time>
</trkpt>
<trkpt lat="46.0705600" lon="10.4933000">
	<ele>2469.60</ele>
	<time>2023-08-06T10:43:02.000Z</time>
</trkpt>
<trkpt lat="46.0705660" lon="10.4933070">
	<ele>2469.60</ele>
	<time>2023-08-06T10:43:03.000Z</time>
</trkpt>
<trkpt lat="46.0705700" lon="10.4933100">
	<ele>2469.60</ele>
	<time>2023-08-06T10:43:04.000Z</time>
</trkpt>
<trkpt lat="46.0705720" lon="10.4933200">
	<ele>2469.60</ele>
	<time>2023-08-06T10:43:05.000Z</time>
</trkpt>
<trkpt lat="46.0705760" lon="10.4933280">
	<ele>2469.60</ele>
	<time>2023-08-06T10:43:06.000Z</time>
</trkpt>
<trkpt lat="46.0705840" lon="10.4933360">
	<ele>2469.60</ele>
	<time>2023-08-06T10:43:07.000Z</time>
</trkpt>
<trkpt lat="46.0705880" lon="10.4933410">
	<ele>2469.60</ele>
	<time>2023-08-06T10:43:08.000Z</time>
</trkpt>
<trkpt lat="46.0705950" lon="10.4933460">
	<ele>2469.60</ele>
	<time>2023-08-06T10:43:09.000Z</time>
</trkpt>
<trkpt lat="46.0706020" lon="10.4933530">
	<ele>2469.60</ele>
	<time>2023-08-06T10:43:10.000Z</time>
</trkpt>
<trkpt lat="46.0706030" lon="10.4933560">
	<ele>2469.60</ele>
	<time>2023-08-06T10:43:11.000Z</time>
</trkpt>
<trkpt lat="46.0706040" lon="10.4933570">
	<ele>2469.60</ele>
	<time>2023-08-06T10:43:12.000Z</time>
</trkpt>
<trkpt lat="46.0706080" lon="10.4933560">
	<ele>2469.80</ele>
	<time>2023-08-06T10:43:13.000Z</time>
</trkpt>
<trkpt lat="46.0706130" lon="10.4933510">
	<ele>2469.60</ele>
	<time>2023-08-06T10:43:14.000Z</time>
</trkpt>
<trkpt lat="46.0706140" lon="10.4933500">
	<ele>2469.60</ele>
	<time>2023-08-06T10:43:15.000Z</time>
</trkpt>
<trkpt lat="46.0706180" lon="10.4933440">
	<ele>2469.60</ele>
	<time>2023-08-06T10:43:16.000Z</time>
</trkpt>
<trkpt lat="46.0706220" lon="10.4933440">
	<ele>2469.40</ele>
	<time>2023-08-06T10:43:17.000Z</time>
</trkpt>
<trkpt lat="46.0706280" lon="10.4933330">
	<ele>2469.40</ele>
	<time>2023-08-06T10:43:18.000Z</time>
</trkpt>
<trkpt lat="46.0706360" lon="10.4933230">
	<ele>2469.20</ele>
	<time>2023-08-06T10:43:19.000Z</time>
</trkpt>
<trkpt lat="46.0706400" lon="10.4933130">
	<ele>2468.80</ele>
	<time>2023-08-06T10:43:20.000Z</time>
</trkpt>
<trkpt lat="46.0706530" lon="10.4932990">
	<ele>2468.60</ele>
	<time>2023-08-06T10:43:21.000Z</time>
</trkpt>
<trkpt lat="46.0706610" lon="10.4932940">
	<ele>2468.20</ele>
	<time>2023-08-06T10:43:22.000Z</time>
</trkpt>
<trkpt lat="46.0706660" lon="10.4932870">
	<ele>2468.00</ele>
	<time>2023-08-06T10:43:23.000Z</time>
</trkpt>
<trkpt lat="46.0706630" lon="10.4932930">
	<ele>2468.00</ele>
	<time>2023-08-06T10:43:24.000Z</time>
</trkpt>
<trkpt lat="46.0706660" lon="10.4932960">
	<ele>2467.80</ele>
	<time>2023-08-06T10:43:25.000Z</time>
</trkpt>
<trkpt lat="46.0706720" lon="10.4932980">
	<ele>2467.40</ele>
	<time>2023-08-06T10:43:26.000Z</time>
</trkpt>
<trkpt lat="46.0706800" lon="10.4932880">
	<ele>2467.20</ele>
	<time>2023-08-06T10:43:27.000Z</time>
</trkpt>
<trkpt lat="46.0706890" lon="10.4932770">
	<ele>2466.80</ele>
	<time>2023-08-06T10:43:28.000Z</time>
</trkpt>
<trkpt lat="46.0707020" lon="10.4932590">
	<ele>2466.80</ele>
	<time>2023-08-06T10:43:29.000Z</time>
</trkpt>
<trkpt lat="46.0707090" lon="10.4932490">
	<ele>2466.60</ele>
	<time>2023-08-06T10:43:30.000Z</time>
</trkpt>
<trkpt lat="46.0707120" lon="10.4932480">
	<ele>2466.40</ele>
	<time>2023-08-06T10:43:31.000Z</time>
</trkpt>
<trkpt lat="46.0707160" lon="10.4932490">
	<ele>2466.20</ele>
	<time>2023-08-06T10:43:32.000Z</time>
</trkpt>
<trkpt lat="46.0707210" lon="10.4932470">
	<ele>2466.20</ele>
	<time>2023-08-06T10:43:33.000Z</time>
</trkpt>
<trkpt lat="46.0707240" lon="10.4932440">
	<ele>2466.00</ele>
	<time>2023-08-06T10:43:34.000Z</time>
</trkpt>
<trkpt lat="46.0707270" lon="10.4932420">
	<ele>2465.40</ele>
	<time>2023-08-06T10:43:35.000Z</time>
</trkpt>
<trkpt lat="46.0707300" lon="10.4932430">
	<ele>2465.20</ele>
	<time>2023-08-06T10:43:36.000Z</time>
</trkpt>
<trkpt lat="46.0707370" lon="10.4932420">
	<ele>2465.00</ele>
	<time>2023-08-06T10:43:37.000Z</time>
</trkpt>
<trkpt lat="46.0707400" lon="10.4932420">
	<ele>2464.80</ele>
	<time>2023-08-06T10:43:38.000Z</time>
</trkpt>
<trkpt lat="46.0707430" lon="10.4932420">
	<ele>2464.60</ele>
	<time>2023-08-06T10:43:39.000Z</time>
</trkpt>
<trkpt lat="46.0707420" lon="10.4932410">
	<ele>2464.60</ele>
	<time>2023-08-06T10:43:40.000Z</time>
</trkpt>
<trkpt lat="46.0707450" lon="10.4932320">
	<ele>2464.40</ele>
	<time>2023-08-06T10:43:41.000Z</time>
</trkpt>
<trkpt lat="46.0707480" lon="10.4932300">
	<ele>2464.00</ele>
	<time>2023-08-06T10:43:42.000Z</time>
</trkpt>
<trkpt lat="46.0707490" lon="10.4932260">
	<ele>2464.00</ele>
	<time>2023-08-06T10:43:43.000Z</time>
</trkpt>
<trkpt lat="46.0707520" lon="10.4932220">
	<ele>2463.80</ele>
	<time>2023-08-06T10:43:44.000Z</time>
</trkpt>
<trkpt lat="46.0707550" lon="10.4932190">
	<ele>2463.80</ele>
	<time>2023-08-06T10:43:45.000Z</time>
</trkpt>
<trkpt lat="46.0707570" lon="10.4932140">
	<ele>2463.60</ele>
	<time>2023-08-06T10:43:46.000Z</time>
</trkpt>
<trkpt lat="46.0707590" lon="10.4932120">
	<ele>2463.40</ele>
	<time>2023-08-06T10:43:47.000Z</time>
</trkpt>
<trkpt lat="46.0707610" lon="10.4932090">
	<ele>2463.40</ele>
	<time>2023-08-06T10:43:48.000Z</time>
</trkpt>
<trkpt lat="46.0707610" lon="10.4932020">
	<ele>2463.20</ele>
	<time>2023-08-06T10:43:49.000Z</time>
</trkpt>
<trkpt lat="46.0707630" lon="10.4931960">
	<ele>2463.00</ele>
	<time>2023-08-06T10:43:50.000Z</time>
</trkpt>
<trkpt lat="46.0707650" lon="10.4932020">
	<ele>2462.80</ele>
	<time>2023-08-06T10:43:51.000Z</time>
</trkpt>
<trkpt lat="46.0707680" lon="10.4932060">
	<ele>2462.80</ele>
	<time>2023-08-06T10:43:52.000Z</time>
</trkpt>
<trkpt lat="46.0707740" lon="10.4932010">
	<ele>2462.60</ele>
	<time>2023-08-06T10:43:53.000Z</time>
</trkpt>
<trkpt lat="46.0707760" lon="10.4931980">
	<ele>2462.40</ele>
	<time>2023-08-06T10:43:54.000Z</time>
</trkpt>
<trkpt lat="46.0707780" lon="10.4931940">
	<ele>2462.20</ele>
	<time>2023-08-06T10:43:55.000Z</time>
</trkpt>
<trkpt lat="46.0707800" lon="10.4931900">
	<ele>2462.20</ele>
	<time>2023-08-06T10:43:56.000Z</time>
</trkpt>
<trkpt lat="46.0707810" lon="10.4931880">
	<ele>2462.00</ele>
	<time>2023-08-06T10:43:57.000Z</time>
</trkpt>
<trkpt lat="46.0707850" lon="10.4931860">
	<ele>2461.80</ele>
	<time>2023-08-06T10:43:58.000Z</time>
</trkpt>
<trkpt lat="46.0707840" lon="10.4931800">
	<ele>2461.80</ele>
	<time>2023-08-06T10:43:59.000Z</time>
</trkpt>
<trkpt lat="46.0707860" lon="10.4931730">
	<ele>2461.40</ele>
	<time>2023-08-06T10:44:00.000Z</time>
</trkpt>
<trkpt lat="46.0707870" lon="10.4931680">
	<ele>2461.40</ele>
	<time>2023-08-06T10:44:01.000Z</time>
</trkpt>
<trkpt lat="46.0707890" lon="10.4931620">
	<ele>2460.80</ele>
	<time>2023-08-06T10:44:02.000Z</time>
</trkpt>
<trkpt lat="46.0707900" lon="10.4931590">
	<ele>2460.40</ele>
	<time>2023-08-06T10:44:03.000Z</time>
</trkpt>
<trkpt lat="46.0707940" lon="10.4931550">
	<ele>2460.20</ele>
	<time>2023-08-06T10:44:04.000Z</time>
</trkpt>
<trkpt lat="46.0707960" lon="10.4931440">
	<ele>2460.20</ele>
	<time>2023-08-06T10:44:05.000Z</time>
</trkpt>
<trkpt lat="46.0707990" lon="10.4931380">
	<ele>2460.00</ele>
	<time>2023-08-06T10:44:06.000Z</time>
</trkpt>
<trkpt lat="46.0708040" lon="10.4931270">
	<ele>2459.80</ele>
	<time>2023-08-06T10:44:07.000Z</time>
</trkpt>
<trkpt lat="46.0708070" lon="10.4931210">
	<ele>2459.60</ele>
	<time>2023-08-06T10:44:08.000Z</time>
</trkpt>
<trkpt lat="46.0708110" lon="10.4931130">
	<ele>2459.40</ele>
	<time>2023-08-06T10:44:09.000Z</time>
</trkpt>
<trkpt lat="46.0708140" lon="10.4931080">
	<ele>2459.00</ele>
	<time>2023-08-06T10:44:10.000Z</time>
</trkpt>
<trkpt lat="46.0708180" lon="10.4931010">
	<ele>2458.80</ele>
	<time>2023-08-06T10:44:11.000Z</time>
</trkpt>
<trkpt lat="46.0708200" lon="10.4930970">
	<ele>2458.40</ele>
	<time>2023-08-06T10:44:12.000Z</time>
</trkpt>
<trkpt lat="46.0708250" lon="10.4930970">
	<ele>2458.20</ele>
	<time>2023-08-06T10:44:13.000Z</time>
</trkpt>
<trkpt lat="46.0708310" lon="10.4930960">
	<ele>2458.00</ele>
	<time>2023-08-06T10:44:14.000Z</time>
</trkpt>
<trkpt lat="46.0708360" lon="10.4930940">
	<ele>2457.80</ele>
	<time>2023-08-06T10:44:15.000Z</time>
</trkpt>
<trkpt lat="46.0708420" lon="10.4930950">
	<ele>2457.60</ele>
	<time>2023-08-06T10:44:16.000Z</time>
</trkpt>
<trkpt lat="46.0708460" lon="10.4930950">
	<ele>2457.40</ele>
	<time>2023-08-06T10:44:17.000Z</time>
</trkpt>
<trkpt lat="46.0708490" lon="10.4930930">
	<ele>2457.20</ele>
	<time>2023-08-06T10:44:18.000Z</time>
</trkpt>
<trkpt lat="46.0708530" lon="10.4930910">
	<ele>2456.80</ele>
	<time>2023-08-06T10:44:19.000Z</time>
</trkpt>
<trkpt lat="46.0708580" lon="10.4930860">
	<ele>2456.60</ele>
	<time>2023-08-06T10:44:20.000Z</time>
</trkpt>
<trkpt lat="46.0708610" lon="10.4930860">
	<ele>2456.40</ele>
	<time>2023-08-06T10:44:21.000Z</time>
</trkpt>
<trkpt lat="46.0708630" lon="10.4930860">
	<ele>2456.40</ele>
	<time>2023-08-06T10:44:22.000Z</time>
</trkpt>
<trkpt lat="46.0708630" lon="10.4930830">
	<ele>2456.20</ele>
	<time>2023-08-06T10:44:23.000Z</time>
</trkpt>
<trkpt lat="46.0708590" lon="10.4930770">
	<ele>2456.20</ele>
	<time>2023-08-06T10:44:24.000Z</time>
</trkpt>
<trkpt lat="46.0708530" lon="10.4930750">
	<ele>2456.20</ele>
	<time>2023-08-06T10:44:25.000Z</time>
</trkpt>
<trkpt lat="46.0708490" lon="10.4930700">
	<ele>2456.20</ele>
	<time>2023-08-06T10:44:26.000Z</time>
</trkpt>
<trkpt lat="46.0708470" lon="10.4930670">
	<ele>2456.20</ele>
	<time>2023-08-06T10:44:27.000Z</time>
</trkpt>
<trkpt lat="46.0708420" lon="10.4930620">
	<ele>2456.00</ele>
	<time>2023-08-06T10:44:28.000Z</time>
</trkpt>
<trkpt lat="46.0708390" lon="10.4930590">
	<ele>2455.80</ele>
	<time>2023-08-06T10:44:29.000Z</time>
</trkpt>
<trkpt lat="46.0708360" lon="10.4930530">
	<ele>2455.80</ele>
	<time>2023-08-06T10:44:30.000Z</time>
</trkpt>
<trkpt lat="46.0708340" lon="10.4930500">
	<ele>2455.40</ele>
	<time>2023-08-06T10:44:31.000Z</time>
</trkpt>
<trkpt lat="46.0708320" lon="10.4930480">
	<ele>2455.00</ele>
	<time>2023-08-06T10:44:32.000Z</time>
</trkpt>
<trkpt lat="46.0708340" lon="10.4930460">
	<ele>2454.40</ele>
	<time>2023-08-06T10:44:33.000Z</time>
</trkpt>
<trkpt lat="46.0708390" lon="10.4930470">
	<ele>2454.00</ele>
	<time>2023-08-06T10:44:34.000Z</time>
</trkpt>
<trkpt lat="46.0708430" lon="10.4930460">
	<ele>2453.60</ele>
	<time>2023-08-06T10:44:35.000Z</time>
</trkpt>
<trkpt lat="46.0708460" lon="10.4930410">
	<ele>2453.20</ele>
	<time>2023-08-06T10:44:36.000Z</time>
</trkpt>
<trkpt lat="46.0708490" lon="10.4930360">
	<ele>2453.00</ele>
	<time>2023-08-06T10:44:37.000Z</time>
</trkpt>
<trkpt lat="46.0708540" lon="10.4930330">
	<ele>2452.60</ele>
	<time>2023-08-06T10:44:38.000Z</time>
</trkpt>
<trkpt lat="46.0708580" lon="10.4930310">
	<ele>2452.40</ele>
	<time>2023-08-06T10:44:39.000Z</time>
</trkpt>
<trkpt lat="46.0708620" lon="10.4930280">
	<ele>2452.20</ele>
	<time>2023-08-06T10:44:40.000Z</time>
</trkpt>
<trkpt lat="46.0708650" lon="10.4930230">
	<ele>2452.20</ele>
	<time>2023-08-06T10:44:41.000Z</time>
</trkpt>
<trkpt lat="46.0708740" lon="10.4930190">
	<ele>2452.00</ele>
	<time>2023-08-06T10:44:42.000Z</time>
</trkpt>
<trkpt lat="46.0708820" lon="10.4930150">
	<ele>2452.00</ele>
	<time>2023-08-06T10:44:43.000Z</time>
</trkpt>
<trkpt lat="46.0708830" lon="10.4930100">
	<ele>2451.80</ele>
	<time>2023-08-06T10:44:44.000Z</time>
</trkpt>
<trkpt lat="46.0708860" lon="10.4930050">
	<ele>2451.60</ele>
	<time>2023-08-06T10:44:45.000Z</time>
</trkpt>
<trkpt lat="46.0708870" lon="10.4930010">
	<ele>2451.60</ele>
	<time>2023-08-06T10:44:46.000Z</time>
</trkpt>
<trkpt lat="46.0708870" lon="10.4930000">
	<ele>2451.60</ele>
	<time>2023-08-06T10:44:47.000Z</time>
</trkpt>
<trkpt lat="46.0708860" lon="10.4929940">
	<ele>2451.20</ele>
	<time>2023-08-06T10:44:48.000Z</time>
</trkpt>
<trkpt lat="46.0708870" lon="10.4929850">
	<ele>2451.00</ele>
	<time>2023-08-06T10:44:49.000Z</time>
</trkpt>
<trkpt lat="46.0708860" lon="10.4929730">
	<ele>2451.00</ele>
	<time>2023-08-06T10:44:50.000Z</time>
</trkpt>
<trkpt lat="46.0708850" lon="10.4929660">
	<ele>2450.60</ele>
	<time>2023-08-06T10:44:51.000Z</time>
</trkpt>
<trkpt lat="46.0708870" lon="10.4929660">
	<ele>2450.60</ele>
	<time>2023-08-06T10:44:52.000Z</time>
</trkpt>
<trkpt lat="46.0708940" lon="10.4929640">
	<ele>2450.20</ele>
	<time>2023-08-06T10:44:53.000Z</time>
</trkpt>
<trkpt lat="46.0708990" lon="10.4929610">
	<ele>2450.00</ele>
	<time>2023-08-06T10:44:54.000Z</time>
</trkpt>
<trkpt lat="46.0709030" lon="10.4929540">
	<ele>2449.60</ele>
	<time>2023-08-06T10:44:55.000Z</time>
</trkpt>
<trkpt lat="46.0709070" lon="10.4929580">
	<ele>2449.40</ele>
	<time>2023-08-06T10:44:56.000Z</time>
</trkpt>
<trkpt lat="46.0709130" lon="10.4929590">
	<ele>2449.40</ele>
	<time>2023-08-06T10:44:57.000Z</time>
</trkpt>
<trkpt lat="46.0709180" lon="10.4929500">
	<ele>2449.20</ele>
	<time>2023-08-06T10:44:58.000Z</time>
</trkpt>
<trkpt lat="46.0709220" lon="10.4929430">
	<ele>2449.00</ele>
	<time>2023-08-06T10:44:59.000Z</time>
</trkpt>
<trkpt lat="46.0709260" lon="10.4929350">
	<ele>2448.80</ele>
	<time>2023-08-06T10:45:00.000Z</time>
</trkpt>
<trkpt lat="46.0709280" lon="10.4929260">
	<ele>2448.60</ele>
	<time>2023-08-06T10:45:01.000Z</time>
</trkpt>
<trkpt lat="46.0709330" lon="10.4929160">
	<ele>2448.40</ele>
	<time>2023-08-06T10:45:02.000Z</time>
</trkpt>
<trkpt lat="46.0709380" lon="10.4929090">
	<ele>2448.40</ele>
	<time>2023-08-06T10:45:03.000Z</time>
</trkpt>
<trkpt lat="46.0709470" lon="10.4929090">
	<ele>2448.00</ele>
	<time>2023-08-06T10:45:04.000Z</time>
</trkpt>
<trkpt lat="46.0709500" lon="10.4929100">
	<ele>2447.80</ele>
	<time>2023-08-06T10:45:05.000Z</time>
</trkpt>
<trkpt lat="46.0709560" lon="10.4929060">
	<ele>2447.40</ele>
	<time>2023-08-06T10:45:06.000Z</time>
</trkpt>
<trkpt lat="46.0709620" lon="10.4929030">
	<ele>2447.20</ele>
	<time>2023-08-06T10:45:07.000Z</time>
</trkpt>
<trkpt lat="46.0709720" lon="10.4928970">
	<ele>2446.80</ele>
	<time>2023-08-06T10:45:08.000Z</time>
</trkpt>
<trkpt lat="46.0709780" lon="10.4928940">
	<ele>2446.60</ele>
	<time>2023-08-06T10:45:09.000Z</time>
</trkpt>
<trkpt lat="46.0709880" lon="10.4928810">
	<ele>2446.40</ele>
	<time>2023-08-06T10:45:10.000Z</time>
</trkpt>
<trkpt lat="46.0709930" lon="10.4928650">
	<ele>2446.40</ele>
	<time>2023-08-06T10:45:11.000Z</time>
</trkpt>
<trkpt lat="46.0709980" lon="10.4928590">
	<ele>2446.40</ele>
	<time>2023-08-06T10:45:12.000Z</time>
</trkpt>
<trkpt lat="46.0710020" lon="10.4928540">
	<ele>2446.60</ele>
	<time>2023-08-06T10:45:13.000Z</time>
</trkpt>
<trkpt lat="46.0710090" lon="10.4928470">
	<ele>2446.80</ele>
	<time>2023-08-06T10:45:14.000Z</time>
</trkpt>
<trkpt lat="46.0710120" lon="10.4928470">
	<ele>2447.00</ele>
	<time>2023-08-06T10:45:15.000Z</time>
</trkpt>
<trkpt lat="46.0710130" lon="10.4928460">
	<ele>2447.40</ele>
	<time>2023-08-06T10:45:16.000Z</time>
</trkpt>
<trkpt lat="46.0710140" lon="10.4928430">
	<ele>2447.60</ele>
	<time>2023-08-06T10:45:17.000Z</time>
</trkpt>
<trkpt lat="46.0710150" lon="10.4928400">
	<ele>2447.80</ele>
	<time>2023-08-06T10:45:18.000Z</time>
</trkpt>
<trkpt lat="46.0710190" lon="10.4928330">
	<ele>2447.80</ele>
	<time>2023-08-06T10:45:19.000Z</time>
</trkpt>
<trkpt lat="46.0710230" lon="10.4928220">
	<ele>2447.80</ele>
	<time>2023-08-06T10:45:20.000Z</time>
</trkpt>
<trkpt lat="46.0710270" lon="10.4928200">
	<ele>2447.80</ele>
	<time>2023-08-06T10:45:21.000Z</time>
</trkpt>
<trkpt lat="46.0710300" lon="10.4928190">
	<ele>2448.00</ele>
	<time>2023-08-06T10:45:22.000Z</time>
</trkpt>
<trkpt lat="46.0710310" lon="10.4928160">
	<ele>2448.00</ele>
	<time>2023-08-06T10:45:23.000Z</time>
</trkpt>
<trkpt lat="46.0710310" lon="10.4928160">
	<ele>2448.00</ele>
	<time>2023-08-06T10:45:24.000Z</time>
</trkpt>
<trkpt lat="46.0710320" lon="10.4928190">
	<ele>2448.00</ele>
	<time>2023-08-06T10:45:25.000Z</time>
</trkpt>
<trkpt lat="46.0710330" lon="10.4928190">
	<ele>2448.00</ele>
	<time>2023-08-06T10:45:26.000Z</time>
</trkpt>
<trkpt lat="46.0710330" lon="10.4928150">
	<ele>2448.00</ele>
	<time>2023-08-06T10:45:27.000Z</time>
</trkpt>
<trkpt lat="46.0710340" lon="10.4928140">
	<ele>2448.40</ele>
	<time>2023-08-06T10:45:28.000Z</time>
</trkpt>
<trkpt lat="46.0710340" lon="10.4928140">
	<ele>2448.40</ele>
	<time>2023-08-06T10:45:29.000Z</time>
</trkpt>
<trkpt lat="46.0710340" lon="10.4928140">
	<ele>2448.60</ele>
	<time>2023-08-06T10:45:30.000Z</time>
</trkpt>
<trkpt lat="46.0710340" lon="10.4928140">
	<ele>2448.60</ele>
	<time>2023-08-06T10:45:31.000Z</time>
</trkpt>
<trkpt lat="46.0710340" lon="10.4928140">
	<ele>2448.60</ele>
	<time>2023-08-06T10:45:32.000Z</time>
</trkpt>
<trkpt lat="46.0710340" lon="10.4928140">
	<ele>2448.40</ele>
	<time>2023-08-06T10:45:33.000Z</time>
</trkpt>
<trkpt lat="46.0710340" lon="10.4928140">
	<ele>2448.40</ele>
	<time>2023-08-06T10:45:34.000Z</time>
</trkpt>
<trkpt lat="46.0710340" lon="10.4928140">
	<ele>2448.40</ele>
	<time>2023-08-06T10:45:35.000Z</time>
</trkpt>
<trkpt lat="46.0710340" lon="10.4928140">
	<ele>2448.40</ele>
	<time>2023-08-06T10:45:36.000Z</time>
</trkpt>
<trkpt lat="46.0710340" lon="10.4928140">
	<ele>2448.40</ele>
	<time>2023-08-06T10:45:37.000Z</time>
</trkpt>
<trkpt lat="46.0710340" lon="10.4928140">
	<ele>2448.40</ele>
	<time>2023-08-06T10:45:38.000Z</time>
</trkpt>
<trkpt lat="46.0710340" lon="10.4928140">
	<ele>2448.40</ele>
	<time>2023-08-06T10:45:39.000Z</time>
</trkpt>
<trkpt lat="46.0710340" lon="10.4928140">
	<ele>2448.20</ele>
	<time>2023-08-06T10:45:40.000Z</time>
</trkpt>
<trkpt lat="46.0710340" lon="10.4928140">
	<ele>2448.20</ele>
	<time>2023-08-06T10:45:41.000Z</time>
</trkpt>
<trkpt lat="46.0710340" lon="10.4928140">
	<ele>2448.00</ele>
	<time>2023-08-06T10:45:42.000Z</time>
</trkpt>
<trkpt lat="46.0710340" lon="10.4928140">
	<ele>2448.00</ele>
	<time>2023-08-06T10:45:43.000Z</time>
</trkpt>
<trkpt lat="46.0710340" lon="10.4928140">
	<ele>2447.80</ele>
	<time>2023-08-06T10:45:44.000Z</time>
</trkpt>
<trkpt lat="46.0710340" lon="10.4928120">
	<ele>2447.80</ele>
	<time>2023-08-06T10:45:45.000Z</time>
</trkpt>
<trkpt lat="46.0710340" lon="10.4928120">
	<ele>2447.80</ele>
	<time>2023-08-06T10:45:46.000Z</time>
</trkpt>
<trkpt lat="46.0710340" lon="10.4928110">
	<ele>2447.80</ele>
	<time>2023-08-06T10:45:47.000Z</time>
</trkpt>
<trkpt lat="46.0710340" lon="10.4928110">
	<ele>2447.80</ele>
	<time>2023-08-06T10:45:48.000Z</time>
</trkpt>
<trkpt lat="46.0710340" lon="10.4928110">
	<ele>2447.80</ele>
	<time>2023-08-06T10:45:49.000Z</time>
</trkpt>
<trkpt lat="46.0710340" lon="10.4928110">
	<ele>2447.60</ele>
	<time>2023-08-06T10:45:50.000Z</time>
</trkpt>
<trkpt lat="46.0710350" lon="10.4928110">
	<ele>2447.60</ele>
	<time>2023-08-06T10:45:51.000Z</time>
</trkpt>
<trkpt lat="46.0710350" lon="10.4928110">
	<ele>2447.40</ele>
	<time>2023-08-06T10:45:52.000Z</time>
</trkpt>
<trkpt lat="46.0710360" lon="10.4928110">
	<ele>2447.20</ele>
	<time>2023-08-06T10:45:53.000Z</time>
</trkpt>
<trkpt lat="46.0710390" lon="10.4928110">
	<ele>2447.00</ele>
	<time>2023-08-06T10:45:54.000Z</time>
</trkpt>
<trkpt lat="46.0710420" lon="10.4928110">
	<ele>2446.80</ele>
	<time>2023-08-06T10:45:55.000Z</time>
</trkpt>
<trkpt lat="46.0710440" lon="10.4928110">
	<ele>2446.60</ele>
	<time>2023-08-06T10:45:56.000Z</time>
</trkpt>
<trkpt lat="46.0710460" lon="10.4928110">
	<ele>2446.20</ele>
	<time>2023-08-06T10:45:57.000Z</time>
</trkpt>
<trkpt lat="46.0710470" lon="10.4928110">
	<ele>2445.80</ele>
	<time>2023-08-06T10:45:58.000Z</time>
</trkpt>
<trkpt lat="46.0710490" lon="10.4928110">
	<ele>2445.60</ele>
	<time>2023-08-06T10:45:59.000Z</time>
</trkpt>
<trkpt lat="46.0710510" lon="10.4928110">
	<ele>2445.40</ele>
	<time>2023-08-06T10:46:00.000Z</time>
</trkpt>
<trkpt lat="46.0710530" lon="10.4928110">
	<ele>2445.20</ele>
	<time>2023-08-06T10:46:01.000Z</time>
</trkpt>
<trkpt lat="46.0710550" lon="10.4928110">
	<ele>2445.00</ele>
	<time>2023-08-06T10:46:02.000Z</time>
</trkpt>
<trkpt lat="46.0710560" lon="10.4928120">
	<ele>2445.00</ele>
	<time>2023-08-06T10:46:03.000Z</time>
</trkpt>
<trkpt lat="46.0710580" lon="10.4928130">
	<ele>2444.80</ele>
	<time>2023-08-06T10:46:04.000Z</time>
</trkpt>
<trkpt lat="46.0710610" lon="10.4928150">
	<ele>2444.80</ele>
	<time>2023-08-06T10:46:05.000Z</time>
</trkpt>
<trkpt lat="46.0710630" lon="10.4928160">
	<ele>2444.60</ele>
	<time>2023-08-06T10:46:06.000Z</time>
</trkpt>
<trkpt lat="46.0710640" lon="10.4928170">
	<ele>2444.40</ele>
	<time>2023-08-06T10:46:07.000Z</time>
</trkpt>
<trkpt lat="46.0710650" lon="10.4928170">
	<ele>2444.20</ele>
	<time>2023-08-06T10:46:08.000Z</time>
</trkpt>
<trkpt lat="46.0710660" lon="10.4928170">
	<ele>2444.00</ele>
	<time>2023-08-06T10:46:09.000Z</time>
</trkpt>
<trkpt lat="46.0710670" lon="10.4928180">
	<ele>2444.00</ele>
	<time>2023-08-06T10:46:10.000Z</time>
</trkpt>
<trkpt lat="46.0710680" lon="10.4928180">
	<ele>2443.60</ele>
	<time>2023-08-06T10:46:11.000Z</time>
</trkpt>
<trkpt lat="46.0710690" lon="10.4928180">
	<ele>2443.60</ele>
	<time>2023-08-06T10:46:12.000Z</time>
</trkpt>
<trkpt lat="46.0710690" lon="10.4928190">
	<ele>2443.40</ele>
	<time>2023-08-06T10:46:13.000Z</time>
</trkpt>
<trkpt lat="46.0710690" lon="10.4928190">
	<ele>2443.40</ele>
	<time>2023-08-06T10:46:14.000Z</time>
</trkpt>
<trkpt lat="46.0710710" lon="10.4928200">
	<ele>2443.60</ele>
	<time>2023-08-06T10:46:15.000Z</time>
</trkpt>
<trkpt lat="46.0710740" lon="10.4928200">
	<ele>2443.60</ele>
	<time>2023-08-06T10:46:16.000Z</time>
</trkpt>
<trkpt lat="46.0710800" lon="10.4928200">
	<ele>2443.60</ele>
	<time>2023-08-06T10:46:17.000Z</time>
</trkpt>
<trkpt lat="46.0710840" lon="10.4928210">
	<ele>2443.60</ele>
	<time>2023-08-06T10:46:18.000Z</time>
</trkpt>
<trkpt lat="46.0710890" lon="10.4928210">
	<ele>2443.60</ele>
	<time>2023-08-06T10:46:19.000Z</time>
</trkpt>
<trkpt lat="46.0710930" lon="10.4928210">
	<ele>2443.60</ele>
	<time>2023-08-06T10:46:20.000Z</time>
</trkpt>
<trkpt lat="46.0710970" lon="10.4928220">
	<ele>2443.40</ele>
	<time>2023-08-06T10:46:21.000Z</time>
</trkpt>
<trkpt lat="46.0711030" lon="10.4928250">
	<ele>2443.20</ele>
	<time>2023-08-06T10:46:22.000Z</time>
</trkpt>
<trkpt lat="46.0711130" lon="10.4928310">
	<ele>2443.20</ele>
	<time>2023-08-06T10:46:23.000Z</time>
</trkpt>
<trkpt lat="46.0711220" lon="10.4928360">
	<ele>2443.00</ele>
	<time>2023-08-06T10:46:24.000Z</time>
</trkpt>
<trkpt lat="46.0711290" lon="10.4928420">
	<ele>2443.00</ele>
	<time>2023-08-06T10:46:25.000Z</time>
</trkpt>
<trkpt lat="46.0711350" lon="10.4928450">
	<ele>2443.00</ele>
	<time>2023-08-06T10:46:26.000Z</time>
</trkpt>
<trkpt lat="46.0711410" lon="10.4928270">
	<ele>2443.00</ele>
	<time>2023-08-06T10:46:27.000Z</time>
</trkpt>
<trkpt lat="46.0711450" lon="10.4928250">
	<ele>2443.00</ele>
	<time>2023-08-06T10:46:28.000Z</time>
</trkpt>
<trkpt lat="46.0711430" lon="10.4928160">
	<ele>2443.40</ele>
	<time>2023-08-06T10:46:29.000Z</time>
</trkpt>
<trkpt lat="46.0711410" lon="10.4928130">
	<ele>2444.00</ele>
	<time>2023-08-06T10:46:30.000Z</time>
</trkpt>
<trkpt lat="46.0711480" lon="10.4928170">
	<ele>2444.40</ele>
	<time>2023-08-06T10:46:31.000Z</time>
</trkpt>
<trkpt lat="46.0711480" lon="10.4928170">
	<ele>2444.60</ele>
	<time>2023-08-06T10:46:32.000Z</time>
</trkpt>
<trkpt lat="46.0711480" lon="10.4928170">
	<ele>2444.80</ele>
	<time>2023-08-06T10:46:33.000Z</time>
</trkpt>
<trkpt lat="46.0711480" lon="10.4928170">
	<ele>2444.60</ele>
	<time>2023-08-06T10:46:34.000Z</time>
</trkpt>
<trkpt lat="46.0711480" lon="10.4928170">
	<ele>2444.60</ele>
	<time>2023-08-06T10:46:35.000Z</time>
</trkpt>
<trkpt lat="46.0711480" lon="10.4928170">
	<ele>2444.40</ele>
	<time>2023-08-06T10:46:36.000Z</time>
</trkpt>
<trkpt lat="46.0711480" lon="10.4928170">
	<ele>2444.40</ele>
	<time>2023-08-06T10:46:37.000Z</time>
</trkpt>
<trkpt lat="46.0711480" lon="10.4928170">
	<ele>2444.20</ele>
	<time>2023-08-06T10:46:38.000Z</time>
</trkpt>
<trkpt lat="46.0711480" lon="10.4928170">
	<ele>2444.20</ele>
	<time>2023-08-06T10:46:39.000Z</time>
</trkpt>
<trkpt lat="46.0711480" lon="10.4928170">
	<ele>2444.20</ele>
	<time>2023-08-06T10:46:40.000Z</time>
</trkpt>
<trkpt lat="46.0711480" lon="10.4928170">
	<ele>2444.20</ele>
	<time>2023-08-06T10:46:41.000Z</time>
</trkpt>
<trkpt lat="46.0711480" lon="10.4928170">
	<ele>2444.20</ele>
	<time>2023-08-06T10:46:42.000Z</time>
</trkpt>
<trkpt lat="46.0711480" lon="10.4928170">
	<ele>2444.20</ele>
	<time>2023-08-06T10:46:43.000Z</time>
</trkpt>
<trkpt lat="46.0711480" lon="10.4928170">
	<ele>2444.20</ele>
	<time>2023-08-06T10:46:44.000Z</time>
</trkpt>
<trkpt lat="46.0711480" lon="10.4928170">
	<ele>2444.20</ele>
	<time>2023-08-06T10:46:45.000Z</time>
</trkpt>
<trkpt lat="46.0711480" lon="10.4928170">
	<ele>2444.20</ele>
	<time>2023-08-06T10:46:46.000Z</time>
</trkpt>
<trkpt lat="46.0711470" lon="10.4928170">
	<ele>2444.20</ele>
	<time>2023-08-06T10:46:47.000Z</time>
</trkpt>
<trkpt lat="46.0711470" lon="10.4928190">
	<ele>2444.20</ele>
	<time>2023-08-06T10:46:48.000Z</time>
</trkpt>
<trkpt lat="46.0711470" lon="10.4928210">
	<ele>2444.20</ele>
	<time>2023-08-06T10:46:49.000Z</time>
</trkpt>
<trkpt lat="46.0711440" lon="10.4928210">
	<ele>2444.20</ele>
	<time>2023-08-06T10:46:50.000Z</time>
</trkpt>
<trkpt lat="46.0711430" lon="10.4928210">
	<ele>2444.20</ele>
	<time>2023-08-06T10:46:51.000Z</time>
</trkpt>
<trkpt lat="46.0711420" lon="10.4928210">
	<ele>2444.00</ele>
	<time>2023-08-06T10:46:52.000Z</time>
</trkpt>
<trkpt lat="46.0711410" lon="10.4928210">
	<ele>2444.00</ele>
	<time>2023-08-06T10:46:53.000Z</time>
</trkpt>
<trkpt lat="46.0711410" lon="10.4928200">
	<ele>2443.80</ele>
	<time>2023-08-06T10:46:54.000Z</time>
</trkpt>
<trkpt lat="46.0711420" lon="10.4928160">
	<ele>2443.80</ele>
	<time>2023-08-06T10:46:55.000Z</time>
</trkpt>
<trkpt lat="46.0711390" lon="10.4928200">
	<ele>2443.80</ele>
	<time>2023-08-06T10:46:56.000Z</time>
</trkpt>
<trkpt lat="46.0711460" lon="10.4928080">
	<ele>2443.80</ele>
	<time>2023-08-06T10:46:57.000Z</time>
</trkpt>
<trkpt lat="46.0711520" lon="10.4928010">
	<ele>2443.80</ele>
	<time>2023-08-06T10:46:58.000Z</time>
</trkpt>
<trkpt lat="46.0711520" lon="10.4927980">
	<ele>2443.80</ele>
	<time>2023-08-06T10:46:59.000Z</time>
</trkpt>
<trkpt lat="46.0711530" lon="10.4927960">
	<ele>2443.60</ele>
	<time>2023-08-06T10:47:00.000Z</time>
</trkpt>
<trkpt lat="46.0711520" lon="10.4927950">
	<ele>2443.60</ele>
	<time>2023-08-06T10:47:01.000Z</time>
</trkpt>
<trkpt lat="46.0711530" lon="10.4927950">
	<ele>2443.60</ele>
	<time>2023-08-06T10:47:02.000Z</time>
</trkpt>
<trkpt lat="46.0711480" lon="10.4927860">
	<ele>2443.60</ele>
	<time>2023-08-06T10:47:03.000Z</time>
</trkpt>
<trkpt lat="46.0711510" lon="10.4927880">
	<ele>2443.60</ele>
	<time>2023-08-06T10:47:04.000Z</time>
</trkpt>
<trkpt lat="46.0711480" lon="10.4927860">
	<ele>2443.60</ele>
	<time>2023-08-06T10:47:05.000Z</time>
</trkpt>
<trkpt lat="46.0711470" lon="10.4927850">
	<ele>2443.60</ele>
	<time>2023-08-06T10:47:06.000Z</time>
</trkpt>
<trkpt lat="46.0711470" lon="10.4927850">
	<ele>2443.60</ele>
	<time>2023-08-06T10:47:07.000Z</time>
</trkpt>
<trkpt lat="46.0711470" lon="10.4927850">
	<ele>2443.40</ele>
	<time>2023-08-06T10:47:08.000Z</time>
</trkpt>
<trkpt lat="46.0711470" lon="10.4927850">
	<ele>2443.40</ele>
	<time>2023-08-06T10:47:09.000Z</time>
</trkpt>
<trkpt lat="46.0711470" lon="10.4927850">
	<ele>2443.20</ele>
	<time>2023-08-06T10:47:10.000Z</time>
</trkpt>
<trkpt lat="46.0711470" lon="10.4927850">
	<ele>2443.20</ele>
	<time>2023-08-06T10:47:11.000Z</time>
</trkpt>
<trkpt lat="46.0711470" lon="10.4927850">
	<ele>2443.00</ele>
	<time>2023-08-06T10:47:12.000Z</time>
</trkpt>
<trkpt lat="46.0711470" lon="10.4927850">
	<ele>2442.80</ele>
	<time>2023-08-06T10:47:13.000Z</time>
</trkpt>
<trkpt lat="46.0711480" lon="10.4927850">
	<ele>2442.80</ele>
	<time>2023-08-06T10:47:14.000Z</time>
</trkpt>
<trkpt lat="46.0711480" lon="10.4927850">
	<ele>2442.80</ele>
	<time>2023-08-06T10:47:15.000Z</time>
</trkpt>
<trkpt lat="46.0711480" lon="10.4927850">
	<ele>2442.80</ele>
	<time>2023-08-06T10:47:16.000Z</time>
</trkpt>
<trkpt lat="46.0711490" lon="10.4927850">
	<ele>2442.60</ele>
	<time>2023-08-06T10:47:17.000Z</time>
</trkpt>
<trkpt lat="46.0711530" lon="10.4927870">
	<ele>2442.60</ele>
	<time>2023-08-06T10:47:18.000Z</time>
</trkpt>
<trkpt lat="46.0711550" lon="10.4927880">
	<ele>2442.60</ele>
	<time>2023-08-06T10:47:19.000Z</time>
</trkpt>
<trkpt lat="46.0711630" lon="10.4927800">
	<ele>2442.60</ele>
	<time>2023-08-06T10:47:20.000Z</time>
</trkpt>
<trkpt lat="46.0711660" lon="10.4927740">
	<ele>2442.60</ele>
	<time>2023-08-06T10:47:21.000Z</time>
</trkpt>
<trkpt lat="46.0711660" lon="10.4927760">
	<ele>2442.40</ele>
	<time>2023-08-06T10:47:22.000Z</time>
</trkpt>
<trkpt lat="46.0711710" lon="10.4927750">
	<ele>2442.20</ele>
	<time>2023-08-06T10:47:23.000Z</time>
</trkpt>
<trkpt lat="46.0711720" lon="10.4927740">
	<ele>2441.80</ele>
	<time>2023-08-06T10:47:24.000Z</time>
</trkpt>
<trkpt lat="46.0711750" lon="10.4927740">
	<ele>2441.60</ele>
	<time>2023-08-06T10:47:25.000Z</time>
</trkpt>
<trkpt lat="46.0711800" lon="10.4927760">
	<ele>2441.40</ele>
	<time>2023-08-06T10:47:26.000Z</time>
</trkpt>
<trkpt lat="46.0711840" lon="10.4927750">
	<ele>2441.40</ele>
	<time>2023-08-06T10:47:27.000Z</time>
</trkpt>
<trkpt lat="46.0711850" lon="10.4927720">
	<ele>2441.00</ele>
	<time>2023-08-06T10:47:28.000Z</time>
</trkpt>
<trkpt lat="46.0711860" lon="10.4927730">
	<ele>2440.40</ele>
	<time>2023-08-06T10:47:29.000Z</time>
</trkpt>
<trkpt lat="46.0711870" lon="10.4927750">
	<ele>2440.00</ele>
	<time>2023-08-06T10:47:30.000Z</time>
</trkpt>
<trkpt lat="46.0711900" lon="10.4927740">
	<ele>2439.80</ele>
	<time>2023-08-06T10:47:31.000Z</time>
</trkpt>
<trkpt lat="46.0711930" lon="10.4927690">
	<ele>2439.40</ele>
	<time>2023-08-06T10:47:32.000Z</time>
</trkpt>
<trkpt lat="46.0711980" lon="10.4927660">
	<ele>2439.20</ele>
	<time>2023-08-06T10:47:33.000Z</time>
</trkpt>
<trkpt lat="46.0712030" lon="10.4927580">
	<ele>2439.00</ele>
	<time>2023-08-06T10:47:34.000Z</time>
</trkpt>
<trkpt lat="46.0712090" lon="10.4927560">
	<ele>2439.00</ele>
	<time>2023-08-06T10:47:35.000Z</time>
</trkpt>
<trkpt lat="46.0712170" lon="10.4927570">
	<ele>2438.80</ele>
	<time>2023-08-06T10:47:36.000Z</time>
</trkpt>
<trkpt lat="46.0712250" lon="10.4927580">
	<ele>2438.80</ele>
	<time>2023-08-06T10:47:37.000Z</time>
</trkpt>
<trkpt lat="46.0712300" lon="10.4927570">
	<ele>2438.60</ele>
	<time>2023-08-06T10:47:38.000Z</time>
</trkpt>
<trkpt lat="46.0712350" lon="10.4927570">
	<ele>2438.20</ele>
	<time>2023-08-06T10:47:39.000Z</time>
</trkpt>
<trkpt lat="46.0712400" lon="10.4927560">
	<ele>2437.80</ele>
	<time>2023-08-06T10:47:40.000Z</time>
</trkpt>
<trkpt lat="46.0712450" lon="10.4927520">
	<ele>2437.60</ele>
	<time>2023-08-06T10:47:41.000Z</time>
</trkpt>
<trkpt lat="46.0712490" lon="10.4927510">
	<ele>2437.20</ele>
	<time>2023-08-06T10:47:42.000Z</time>
</trkpt>
<trkpt lat="46.0712550" lon="10.4927510">
	<ele>2437.00</ele>
	<time>2023-08-06T10:47:43.000Z</time>
</trkpt>
<trkpt lat="46.0712610" lon="10.4927480">
	<ele>2436.80</ele>
	<time>2023-08-06T10:47:44.000Z</time>
</trkpt>
<trkpt lat="46.0712660" lon="10.4927410">
	<ele>2436.80</ele>
	<time>2023-08-06T10:47:45.000Z</time>
</trkpt>
<trkpt lat="46.0712720" lon="10.4927360">
	<ele>2436.60</ele>
	<time>2023-08-06T10:47:46.000Z</time>
</trkpt>
<trkpt lat="46.0712790" lon="10.4927360">
	<ele>2436.40</ele>
	<time>2023-08-06T10:47:47.000Z</time>
</trkpt>
<trkpt lat="46.0712840" lon="10.4927330">
	<ele>2436.40</ele>
	<time>2023-08-06T10:47:48.000Z</time>
</trkpt>
<trkpt lat="46.0712870" lon="10.4927320">
	<ele>2436.20</ele>
	<time>2023-08-06T10:47:49.000Z</time>
</trkpt>
<trkpt lat="46.0712920" lon="10.4927320">
	<ele>2436.00</ele>
	<time>2023-08-06T10:47:50.000Z</time>
</trkpt>
<trkpt lat="46.0713030" lon="10.4927320">
	<ele>2436.00</ele>
	<time>2023-08-06T10:47:51.000Z</time>
</trkpt>
<trkpt lat="46.0713080" lon="10.4927290">
	<ele>2435.80</ele>
	<time>2023-08-06T10:47:52.000Z</time>
</trkpt>
<trkpt lat="46.0713150" lon="10.4927240">
	<ele>2435.80</ele>
	<time>2023-08-06T10:47:53.000Z</time>
</trkpt>
<trkpt lat="46.0713230" lon="10.4927180">
	<ele>2435.80</ele>
	<time>2023-08-06T10:47:54.000Z</time>
</trkpt>
<trkpt lat="46.0713310" lon="10.4927080">
	<ele>2435.80</ele>
	<time>2023-08-06T10:47:55.000Z</time>
</trkpt>
<trkpt lat="46.0713400" lon="10.4927030">
	<ele>2435.80</ele>
	<time>2023-08-06T10:47:56.000Z</time>
</trkpt>
<trkpt lat="46.0713460" lon="10.4927020">
	<ele>2435.60</ele>
	<time>2023-08-06T10:47:57.000Z</time>
</trkpt>
<trkpt lat="46.0713540" lon="10.4926900">
	<ele>2435.60</ele>
	<time>2023-08-06T10:47:58.000Z</time>
</trkpt>
<trkpt lat="46.0713610" lon="10.4926890">
	<ele>2435.60</ele>
	<time>2023-08-06T10:47:59.000Z</time>
</trkpt>
<trkpt lat="46.0713630" lon="10.4926860">
	<ele>2435.60</ele>
	<time>2023-08-06T10:48:00.000Z</time>
</trkpt>
<trkpt lat="46.0713700" lon="10.4926780">
	<ele>2435.80</ele>
	<time>2023-08-06T10:48:01.000Z</time>
</trkpt>
<trkpt lat="46.0713800" lon="10.4926750">
	<ele>2435.80</ele>
	<time>2023-08-06T10:48:02.000Z</time>
</trkpt>
<trkpt lat="46.0713840" lon="10.4926720">
	<ele>2435.80</ele>
	<time>2023-08-06T10:48:03.000Z</time>
</trkpt>
<trkpt lat="46.0713910" lon="10.4926720">
	<ele>2436.20</ele>
	<time>2023-08-06T10:48:04.000Z</time>
</trkpt>
<trkpt lat="46.0713980" lon="10.4926620">
	<ele>2436.60</ele>
	<time>2023-08-06T10:48:05.000Z</time>
</trkpt>
<trkpt lat="46.0714010" lon="10.4926620">
	<ele>2436.80</ele>
	<time>2023-08-06T10:48:06.000Z</time>
</trkpt>
<trkpt lat="46.0714060" lon="10.4926570">
	<ele>2437.00</ele>
	<time>2023-08-06T10:48:07.000Z</time>
</trkpt>
<trkpt lat="46.0714100" lon="10.4926520">
	<ele>2437.00</ele>
	<time>2023-08-06T10:48:08.000Z</time>
</trkpt>
<trkpt lat="46.0714140" lon="10.4926490">
	<ele>2437.40</ele>
	<time>2023-08-06T10:48:09.000Z</time>
</trkpt>
<trkpt lat="46.0714180" lon="10.4926450">
	<ele>2437.80</ele>
	<time>2023-08-06T10:48:10.000Z</time>
</trkpt>
<trkpt lat="46.0714250" lon="10.4926430">
	<ele>2438.00</ele>
	<time>2023-08-06T10:48:11.000Z</time>
</trkpt>
<trkpt lat="46.0714310" lon="10.4926390">
	<ele>2438.20</ele>
	<time>2023-08-06T10:48:12.000Z</time>
</trkpt>
<trkpt lat="46.0714370" lon="10.4926360">
	<ele>2438.20</ele>
	<time>2023-08-06T10:48:13.000Z</time>
</trkpt>
<trkpt lat="46.0714450" lon="10.4926360">
	<ele>2438.40</ele>
	<time>2023-08-06T10:48:14.000Z</time>
</trkpt>
<trkpt lat="46.0714520" lon="10.4926290">
	<ele>2438.60</ele>
	<time>2023-08-06T10:48:15.000Z</time>
</trkpt>
<trkpt lat="46.0714580" lon="10.4926220">
	<ele>2438.60</ele>
	<time>2023-08-06T10:48:16.000Z</time>
</trkpt>
<trkpt lat="46.0714670" lon="10.4926200">
	<ele>2438.60</ele>
	<time>2023-08-06T10:48:17.000Z</time>
</trkpt>
<trkpt lat="46.0714750" lon="10.4926210">
	<ele>2438.60</ele>
	<time>2023-08-06T10:48:18.000Z</time>
</trkpt>
<trkpt lat="46.0714860" lon="10.4926240">
	<ele>2438.60</ele>
	<time>2023-08-06T10:48:19.000Z</time>
</trkpt>
<trkpt lat="46.0714950" lon="10.4926200">
	<ele>2438.60</ele>
	<time>2023-08-06T10:48:20.000Z</time>
</trkpt>
<trkpt lat="46.0715070" lon="10.4926190">
	<ele>2438.60</ele>
	<time>2023-08-06T10:48:21.000Z</time>
</trkpt>
<trkpt lat="46.0715110" lon="10.4926130">
	<ele>2438.60</ele>
	<time>2023-08-06T10:48:22.000Z</time>
</trkpt>
<trkpt lat="46.0715170" lon="10.4926070">
	<ele>2438.60</ele>
	<time>2023-08-06T10:48:23.000Z</time>
</trkpt>
<trkpt lat="46.0715240" lon="10.4926010">
	<ele>2438.40</ele>
	<time>2023-08-06T10:48:24.000Z</time>
</trkpt>
<trkpt lat="46.0715320" lon="10.4925970">
	<ele>2438.40</ele>
	<time>2023-08-06T10:48:25.000Z</time>
</trkpt>
<trkpt lat="46.0715430" lon="10.4925910">
	<ele>2438.40</ele>
	<time>2023-08-06T10:48:26.000Z</time>
</trkpt>
<trkpt lat="46.0715540" lon="10.4925860">
	<ele>2438.20</ele>
	<time>2023-08-06T10:48:27.000Z</time>
</trkpt>
<trkpt lat="46.0715670" lon="10.4925840">
	<ele>2438.00</ele>
	<time>2023-08-06T10:48:28.000Z</time>
</trkpt>
<trkpt lat="46.0715780" lon="10.4925810">
	<ele>2437.80</ele>
	<time>2023-08-06T10:48:29.000Z</time>
</trkpt>
<trkpt lat="46.0715880" lon="10.4925740">
	<ele>2437.80</ele>
	<time>2023-08-06T10:48:30.000Z</time>
</trkpt>
<trkpt lat="46.0715990" lon="10.4925660">
	<ele>2437.60</ele>
	<time>2023-08-06T10:48:31.000Z</time>
</trkpt>
<trkpt lat="46.0716040" lon="10.4925600">
	<ele>2437.60</ele>
	<time>2023-08-06T10:48:32.000Z</time>
</trkpt>
<trkpt lat="46.0716140" lon="10.4925490">
	<ele>2437.80</ele>
	<time>2023-08-06T10:48:33.000Z</time>
</trkpt>
<trkpt lat="46.0716180" lon="10.4925390">
	<ele>2437.80</ele>
	<time>2023-08-06T10:48:34.000Z</time>
</trkpt>
<trkpt lat="46.0716280" lon="10.4925290">
	<ele>2437.80</ele>
	<time>2023-08-06T10:48:35.000Z</time>
</trkpt>
<trkpt lat="46.0716370" lon="10.4925230">
	<ele>2437.80</ele>
	<time>2023-08-06T10:48:36.000Z</time>
</trkpt>
<trkpt lat="46.0716460" lon="10.4925220">
	<ele>2437.80</ele>
	<time>2023-08-06T10:48:37.000Z</time>
</trkpt>
<trkpt lat="46.0716570" lon="10.4925240">
	<ele>2437.80</ele>
	<time>2023-08-06T10:48:38.000Z</time>
</trkpt>
<trkpt lat="46.0716680" lon="10.4925260">
	<ele>2437.80</ele>
	<time>2023-08-06T10:48:39.000Z</time>
</trkpt>
<trkpt lat="46.0716800" lon="10.4925350">
	<ele>2438.00</ele>
	<time>2023-08-06T10:48:40.000Z</time>
</trkpt>
<trkpt lat="46.0716820" lon="10.4925310">
	<ele>2438.20</ele>
	<time>2023-08-06T10:48:41.000Z</time>
</trkpt>
<trkpt lat="46.0716920" lon="10.4925360">
	<ele>2438.20</ele>
	<time>2023-08-06T10:48:42.000Z</time>
</trkpt>
<trkpt lat="46.0717020" lon="10.4925440">
	<ele>2438.40</ele>
	<time>2023-08-06T10:48:43.000Z</time>
</trkpt>
<trkpt lat="46.0717090" lon="10.4925430">
	<ele>2438.40</ele>
	<time>2023-08-06T10:48:44.000Z</time>
</trkpt>
<trkpt lat="46.0717160" lon="10.4925410">
	<ele>2438.40</ele>
	<time>2023-08-06T10:48:45.000Z</time>
</trkpt>
<trkpt lat="46.0717240" lon="10.4925390">
	<ele>2438.40</ele>
	<time>2023-08-06T10:48:46.000Z</time>
</trkpt>
<trkpt lat="46.0717360" lon="10.4925360">
	<ele>2438.20</ele>
	<time>2023-08-06T10:48:47.000Z</time>
</trkpt>
<trkpt lat="46.0717450" lon="10.4925340">
	<ele>2438.20</ele>
	<time>2023-08-06T10:48:48.000Z</time>
</trkpt>
<trkpt lat="46.0717510" lon="10.4925300">
	<ele>2438.20</ele>
	<time>2023-08-06T10:48:49.000Z</time>
</trkpt>
<trkpt lat="46.0717580" lon="10.4925290">
	<ele>2438.00</ele>
	<time>2023-08-06T10:48:50.000Z</time>
</trkpt>
<trkpt lat="46.0717630" lon="10.4925120">
	<ele>2438.00</ele>
	<time>2023-08-06T10:48:51.000Z</time>
</trkpt>
<trkpt lat="46.0717660" lon="10.4924840">
	<ele>2438.00</ele>
	<time>2023-08-06T10:48:52.000Z</time>
</trkpt>
<trkpt lat="46.0717760" lon="10.4924650">
	<ele>2437.80</ele>
	<time>2023-08-06T10:48:53.000Z</time>
</trkpt>
<trkpt lat="46.0717860" lon="10.4924550">
	<ele>2437.80</ele>
	<time>2023-08-06T10:48:54.000Z</time>
</trkpt>
<trkpt lat="46.0717980" lon="10.4924380">
	<ele>2437.80</ele>
	<time>2023-08-06T10:48:55.000Z</time>
</trkpt>
<trkpt lat="46.0718030" lon="10.4924160">
	<ele>2437.80</ele>
	<time>2023-08-06T10:48:56.000Z</time>
</trkpt>
<trkpt lat="46.0718060" lon="10.4924090">
	<ele>2437.80</ele>
	<time>2023-08-06T10:48:57.000Z</time>
</trkpt>
<trkpt lat="46.0718050" lon="10.4923930">
	<ele>2437.80</ele>
	<time>2023-08-06T10:48:58.000Z</time>
</trkpt>
<trkpt lat="46.0718060" lon="10.4923760">
	<ele>2437.80</ele>
	<time>2023-08-06T10:48:59.000Z</time>
</trkpt>
<trkpt lat="46.0718100" lon="10.4923720">
	<ele>2437.80</ele>
	<time>2023-08-06T10:49:00.000Z</time>
</trkpt>
<trkpt lat="46.0717850" lon="10.4922970">
	<ele>2437.80</ele>
	<time>2023-08-06T10:49:01.000Z</time>
</trkpt>
<trkpt lat="46.0717860" lon="10.4922980">
	<ele>2438.00</ele>
	<time>2023-08-06T10:49:02.000Z</time>
</trkpt>
<trkpt lat="46.0717850" lon="10.4922920">
	<ele>2438.00</ele>
	<time>2023-08-06T10:49:03.000Z</time>
</trkpt>
<trkpt lat="46.0717870" lon="10.4922910">
	<ele>2438.20</ele>
	<time>2023-08-06T10:49:04.000Z</time>
</trkpt>
<trkpt lat="46.0717910" lon="10.4922870">
	<ele>2438.20</ele>
	<time>2023-08-06T10:49:05.000Z</time>
</trkpt>
<trkpt lat="46.0717940" lon="10.4922810">
	<ele>2438.20</ele>
	<time>2023-08-06T10:49:06.000Z</time>
</trkpt>
<trkpt lat="46.0718000" lon="10.4922680">
	<ele>2438.00</ele>
	<time>2023-08-06T10:49:07.000Z</time>
</trkpt>
<trkpt lat="46.0718010" lon="10.4922590">
	<ele>2438.00</ele>
	<time>2023-08-06T10:49:08.000Z</time>
</trkpt>
<trkpt lat="46.0718060" lon="10.4922440">
	<ele>2437.80</ele>
	<time>2023-08-06T10:49:09.000Z</time>
</trkpt>
<trkpt lat="46.0718100" lon="10.4922300">
	<ele>2437.80</ele>
	<time>2023-08-06T10:49:10.000Z</time>
</trkpt>
<trkpt lat="46.0718140" lon="10.4922200">
	<ele>2437.60</ele>
	<time>2023-08-06T10:49:11.000Z</time>
</trkpt>
<trkpt lat="46.0718170" lon="10.4922060">
	<ele>2437.60</ele>
	<time>2023-08-06T10:49:12.000Z</time>
</trkpt>
<trkpt lat="46.0718180" lon="10.4922000">
	<ele>2437.60</ele>
	<time>2023-08-06T10:49:13.000Z</time>
</trkpt>
<trkpt lat="46.0718190" lon="10.4921870">
	<ele>2437.40</ele>
	<time>2023-08-06T10:49:14.000Z</time>
</trkpt>
<trkpt lat="46.0718220" lon="10.4921790">
	<ele>2437.40</ele>
	<time>2023-08-06T10:49:15.000Z</time>
</trkpt>
<trkpt lat="46.0718260" lon="10.4921720">
	<ele>2437.40</ele>
	<time>2023-08-06T10:49:16.000Z</time>
</trkpt>
<trkpt lat="46.0718290" lon="10.4921660">
	<ele>2437.40</ele>
	<time>2023-08-06T10:49:17.000Z</time>
</trkpt>
<trkpt lat="46.0718330" lon="10.4921560">
	<ele>2437.40</ele>
	<time>2023-08-06T10:49:18.000Z</time>
</trkpt>
<trkpt lat="46.0718380" lon="10.4921440">
	<ele>2437.20</ele>
	<time>2023-08-06T10:49:19.000Z</time>
</trkpt>
<trkpt lat="46.0718430" lon="10.4921370">
	<ele>2437.20</ele>
	<time>2023-08-06T10:49:20.000Z</time>
</trkpt>
<trkpt lat="46.0718510" lon="10.4921300">
	<ele>2437.20</ele>
	<time>2023-08-06T10:49:21.000Z</time>
</trkpt>
<trkpt lat="46.0718560" lon="10.4921270">
	<ele>2437.00</ele>
	<time>2023-08-06T10:49:22.000Z</time>
</trkpt>
<trkpt lat="46.0718610" lon="10.4921260">
	<ele>2436.80</ele>
	<time>2023-08-06T10:49:23.000Z</time>
</trkpt>
<trkpt lat="46.0718630" lon="10.4921240">
	<ele>2436.40</ele>
	<time>2023-08-06T10:49:24.000Z</time>
</trkpt>
<trkpt lat="46.0718660" lon="10.4921230">
	<ele>2436.20</ele>
	<time>2023-08-06T10:49:25.000Z</time>
</trkpt>
<trkpt lat="46.0718670" lon="10.4921180">
	<ele>2436.20</ele>
	<time>2023-08-06T10:49:26.000Z</time>
</trkpt>
<trkpt lat="46.0718720" lon="10.4921140">
	<ele>2436.00</ele>
	<time>2023-08-06T10:49:27.000Z</time>
</trkpt>
<trkpt lat="46.0718770" lon="10.4921130">
	<ele>2435.80</ele>
	<time>2023-08-06T10:49:28.000Z</time>
</trkpt>
<trkpt lat="46.0718830" lon="10.4921080">
	<ele>2435.40</ele>
	<time>2023-08-06T10:49:29.000Z</time>
</trkpt>
<trkpt lat="46.0718880" lon="10.4921010">
	<ele>2435.20</ele>
	<time>2023-08-06T10:49:30.000Z</time>
</trkpt>
<trkpt lat="46.0718930" lon="10.4920960">
	<ele>2434.80</ele>
	<time>2023-08-06T10:49:31.000Z</time>
</trkpt>
<trkpt lat="46.0718990" lon="10.4921000">
	<ele>2434.60</ele>
	<time>2023-08-06T10:49:32.000Z</time>
</trkpt>
<trkpt lat="46.0719140" lon="10.4921050">
	<ele>2434.60</ele>
	<time>2023-08-06T10:49:33.000Z</time>
</trkpt>
<trkpt lat="46.0719180" lon="10.4921070">
	<ele>2434.40</ele>
	<time>2023-08-06T10:49:34.000Z</time>
</trkpt>
<trkpt lat="46.0719210" lon="10.4921040">
	<ele>2434.20</ele>
	<time>2023-08-06T10:49:35.000Z</time>
</trkpt>
<trkpt lat="46.0719160" lon="10.4920930">
	<ele>2434.20</ele>
	<time>2023-08-06T10:49:36.000Z</time>
</trkpt>
<trkpt lat="46.0719180" lon="10.4920800">
	<ele>2434.20</ele>
	<time>2023-08-06T10:49:37.000Z</time>
</trkpt>
<trkpt lat="46.0719210" lon="10.4920760">
	<ele>2434.00</ele>
	<time>2023-08-06T10:49:38.000Z</time>
</trkpt>
<trkpt lat="46.0719260" lon="10.4920750">
	<ele>2433.80</ele>
	<time>2023-08-06T10:49:39.000Z</time>
</trkpt>
<trkpt lat="46.0719340" lon="10.4920810">
	<ele>2433.60</ele>
	<time>2023-08-06T10:49:40.000Z</time>
</trkpt>
<trkpt lat="46.0719400" lon="10.4920700">
	<ele>2433.60</ele>
	<time>2023-08-06T10:49:41.000Z</time>
</trkpt>
<trkpt lat="46.0719440" lon="10.4920650">
	<ele>2433.40</ele>
	<time>2023-08-06T10:49:42.000Z</time>
</trkpt>
<trkpt lat="46.0719480" lon="10.4920630">
	<ele>2433.00</ele>
	<time>2023-08-06T10:49:43.000Z</time>
</trkpt>
<trkpt lat="46.0719540" lon="10.4920600">
	<ele>2432.60</ele>
	<time>2023-08-06T10:49:44.000Z</time>
</trkpt>
<trkpt lat="46.0719620" lon="10.4920560">
	<ele>2432.40</ele>
	<time>2023-08-06T10:49:45.000Z</time>
</trkpt>
<trkpt lat="46.0719690" lon="10.4920490">
	<ele>2432.20</ele>
	<time>2023-08-06T10:49:46.000Z</time>
</trkpt>
<trkpt lat="46.0719710" lon="10.4920360">
	<ele>2432.20</ele>
	<time>2023-08-06T10:49:47.000Z</time>
</trkpt>
<trkpt lat="46.0719740" lon="10.4920320">
	<ele>2431.60</ele>
	<time>2023-08-06T10:49:48.000Z</time>
</trkpt>
<trkpt lat="46.0719760" lon="10.4920290">
	<ele>2431.40</ele>
	<time>2023-08-06T10:49:49.000Z</time>
</trkpt>
<trkpt lat="46.0719790" lon="10.4920200">
	<ele>2431.20</ele>
	<time>2023-08-06T10:49:50.000Z</time>
</trkpt>
<trkpt lat="46.0719840" lon="10.4920110">
	<ele>2431.00</ele>
	<time>2023-08-06T10:49:51.000Z</time>
</trkpt>
<trkpt lat="46.0719900" lon="10.4920020">
	<ele>2430.80</ele>
	<time>2023-08-06T10:49:52.000Z</time>
</trkpt>
<trkpt lat="46.0719930" lon="10.4919980">
	<ele>2430.60</ele>
	<time>2023-08-06T10:49:53.000Z</time>
</trkpt>
<trkpt lat="46.0719950" lon="10.4919930">
	<ele>2430.40</ele>
	<time>2023-08-06T10:49:54.000Z</time>
</trkpt>
<trkpt lat="46.0719960" lon="10.4919880">
	<ele>2430.20</ele>
	<time>2023-08-06T10:49:55.000Z</time>
</trkpt>
<trkpt lat="46.0719980" lon="10.4919830">
	<ele>2430.00</ele>
	<time>2023-08-06T10:49:56.000Z</time>
</trkpt>
<trkpt lat="46.0720000" lon="10.4919800">
	<ele>2429.80</ele>
	<time>2023-08-06T10:49:57.000Z</time>
</trkpt>
<trkpt lat="46.0720030" lon="10.4919770">
	<ele>2429.60</ele>
	<time>2023-08-06T10:49:58.000Z</time>
</trkpt>
<trkpt lat="46.0720040" lon="10.4919740">
	<ele>2429.40</ele>
	<time>2023-08-06T10:49:59.000Z</time>
</trkpt>
<trkpt lat="46.0720070" lon="10.4919730">
	<ele>2429.20</ele>
	<time>2023-08-06T10:50:00.000Z</time>
</trkpt>
<trkpt lat="46.0720080" lon="10.4919710">
	<ele>2429.20</ele>
	<time>2023-08-06T10:50:01.000Z</time>
</trkpt>
<trkpt lat="46.0720090" lon="10.4919700">
	<ele>2429.00</ele>
	<time>2023-08-06T10:50:02.000Z</time>
</trkpt>
<trkpt lat="46.0720110" lon="10.4919670">
	<ele>2428.80</ele>
	<time>2023-08-06T10:50:03.000Z</time>
</trkpt>
<trkpt lat="46.0720110" lon="10.4919630">
	<ele>2428.80</ele>
	<time>2023-08-06T10:50:04.000Z</time>
</trkpt>
<trkpt lat="46.0720090" lon="10.4919590">
	<ele>2428.40</ele>
	<time>2023-08-06T10:50:05.000Z</time>
</trkpt>
<trkpt lat="46.0720070" lon="10.4919540">
	<ele>2428.20</ele>
	<time>2023-08-06T10:50:06.000Z</time>
</trkpt>
<trkpt lat="46.0720020" lon="10.4919460">
	<ele>2428.00</ele>
	<time>2023-08-06T10:50:07.000Z</time>
</trkpt>
<trkpt lat="46.0720020" lon="10.4919360">
	<ele>2428.00</ele>
	<time>2023-08-06T10:50:08.000Z</time>
</trkpt>
<trkpt lat="46.0720000" lon="10.4919250">
	<ele>2427.40</ele>
	<time>2023-08-06T10:50:09.000Z</time>
</trkpt>
<trkpt lat="46.0719980" lon="10.4919120">
	<ele>2427.20</ele>
	<time>2023-08-06T10:50:10.000Z</time>
</trkpt>
<trkpt lat="46.0719970" lon="10.4919050">
	<ele>2427.00</ele>
	<time>2023-08-06T10:50:11.000Z</time>
</trkpt>
<trkpt lat="46.0719960" lon="10.4919040">
	<ele>2426.80</ele>
	<time>2023-08-06T10:50:12.000Z</time>
</trkpt>
<trkpt lat="46.0719950" lon="10.4918990">
	<ele>2426.60</ele>
	<time>2023-08-06T10:50:13.000Z</time>
</trkpt>
<trkpt lat="46.0719920" lon="10.4918920">
	<ele>2426.40</ele>
	<time>2023-08-06T10:50:14.000Z</time>
</trkpt>
<trkpt lat="46.0719910" lon="10.4918870">
	<ele>2426.40</ele>
	<time>2023-08-06T10:50:15.000Z</time>
</trkpt>
<trkpt lat="46.0719900" lon="10.4918820">
	<ele>2426.20</ele>
	<time>2023-08-06T10:50:16.000Z</time>
</trkpt>
<trkpt lat="46.0719930" lon="10.4918770">
	<ele>2426.00</ele>
	<time>2023-08-06T10:50:17.000Z</time>
</trkpt>
<trkpt lat="46.0719990" lon="10.4918740">
	<ele>2425.80</ele>
	<time>2023-08-06T10:50:18.000Z</time>
</trkpt>
<trkpt lat="46.0720030" lon="10.4918680">
	<ele>2425.60</ele>
	<time>2023-08-06T10:50:19.000Z</time>
</trkpt>
<trkpt lat="46.0720020" lon="10.4918650">
	<ele>2425.40</ele>
	<time>2023-08-06T10:50:20.000Z</time>
</trkpt>
<trkpt lat="46.0720020" lon="10.4918640">
	<ele>2425.20</ele>
	<time>2023-08-06T10:50:21.000Z</time>
</trkpt>
<trkpt lat="46.0720020" lon="10.4918640">
	<ele>2425.20</ele>
	<time>2023-08-06T10:50:22.000Z</time>
</trkpt>
<trkpt lat="46.0720030" lon="10.4918650">
	<ele>2425.20</ele>
	<time>2023-08-06T10:50:23.000Z</time>
</trkpt>
<trkpt lat="46.0720020" lon="10.4918680">
	<ele>2425.00</ele>
	<time>2023-08-06T10:50:24.000Z</time>
</trkpt>
<trkpt lat="46.0719990" lon="10.4918660">
	<ele>2425.20</ele>
	<time>2023-08-06T10:50:25.000Z</time>
</trkpt>
<trkpt lat="46.0719970" lon="10.4918670">
	<ele>2425.20</ele>
	<time>2023-08-06T10:50:26.000Z</time>
</trkpt>
<trkpt lat="46.0719960" lon="10.4918680">
	<ele>2425.40</ele>
	<time>2023-08-06T10:50:27.000Z</time>
</trkpt>
<trkpt lat="46.0719950" lon="10.4918680">
	<ele>2425.60</ele>
	<time>2023-08-06T10:50:28.000Z</time>
</trkpt>
<trkpt lat="46.0719950" lon="10.4918680">
	<ele>2425.60</ele>
	<time>2023-08-06T10:50:29.000Z</time>
</trkpt>
<trkpt lat="46.0719950" lon="10.4918680">
	<ele>2425.60</ele>
	<time>2023-08-06T10:50:30.000Z</time>
</trkpt>
<trkpt lat="46.0719950" lon="10.4918680">
	<ele>2425.80</ele>
	<time>2023-08-06T10:50:31.000Z</time>
</trkpt>
<trkpt lat="46.0719950" lon="10.4918680">
	<ele>2425.80</ele>
	<time>2023-08-06T10:50:32.000Z</time>
</trkpt>
<trkpt lat="46.0719950" lon="10.4918680">
	<ele>2425.80</ele>
	<time>2023-08-06T10:50:33.000Z</time>
</trkpt>
<trkpt lat="46.0719950" lon="10.4918680">
	<ele>2426.00</ele>
	<time>2023-08-06T10:50:34.000Z</time>
</trkpt>
<trkpt lat="46.0719950" lon="10.4918680">
	<ele>2426.00</ele>
	<time>2023-08-06T10:50:35.000Z</time>
</trkpt>
<trkpt lat="46.0719950" lon="10.4918680">
	<ele>2426.00</ele>
	<time>2023-08-06T10:50:36.000Z</time>
</trkpt>
<trkpt lat="46.0719950" lon="10.4918680">
	<ele>2425.60</ele>
	<time>2023-08-06T10:50:37.000Z</time>
</trkpt>
<trkpt lat="46.0719950" lon="10.4918680">
	<ele>2425.40</ele>
	<time>2023-08-06T10:50:38.000Z</time>
</trkpt>
<trkpt lat="46.0719950" lon="10.4918680">
	<ele>2425.20</ele>
	<time>2023-08-06T10:50:39.000Z</time>
</trkpt>
<trkpt lat="46.0719950" lon="10.4918680">
	<ele>2425.20</ele>
	<time>2023-08-06T10:50:40.000Z</time>
</trkpt>
<trkpt lat="46.0719950" lon="10.4918680">
	<ele>2425.00</ele>
	<time>2023-08-06T10:50:41.000Z</time>
</trkpt>
<trkpt lat="46.0719950" lon="10.4918680">
	<ele>2425.00</ele>
	<time>2023-08-06T10:50:42.000Z</time>
</trkpt>
<trkpt lat="46.0719950" lon="10.4918680">
	<ele>2424.80</ele>
	<time>2023-08-06T10:50:43.000Z</time>
</trkpt>
<trkpt lat="46.0719940" lon="10.4918680">
	<ele>2424.60</ele>
	<time>2023-08-06T10:50:44.000Z</time>
</trkpt>
<trkpt lat="46.0719930" lon="10.4918680">
	<ele>2424.60</ele>
	<time>2023-08-06T10:50:45.000Z</time>
</trkpt>
<trkpt lat="46.0719920" lon="10.4918680">
	<ele>2424.40</ele>
	<time>2023-08-06T10:50:46.000Z</time>
</trkpt>
<trkpt lat="46.0719910" lon="10.4918670">
	<ele>2424.40</ele>
	<time>2023-08-06T10:50:47.000Z</time>
</trkpt>
<trkpt lat="46.0719900" lon="10.4918660">
	<ele>2424.20</ele>
	<time>2023-08-06T10:50:48.000Z</time>
</trkpt>
<trkpt lat="46.0719900" lon="10.4918660">
	<ele>2424.00</ele>
	<time>2023-08-06T10:50:49.000Z</time>
</trkpt>
<trkpt lat="46.0719900" lon="10.4918660">
	<ele>2423.80</ele>
	<time>2023-08-06T10:50:50.000Z</time>
</trkpt>
<trkpt lat="46.0719900" lon="10.4918660">
	<ele>2423.80</ele>
	<time>2023-08-06T10:50:51.000Z</time>
</trkpt>
<trkpt lat="46.0719900" lon="10.4918660">
	<ele>2423.60</ele>
	<time>2023-08-06T10:50:52.000Z</time>
</trkpt>
<trkpt lat="46.0719900" lon="10.4918660">
	<ele>2423.20</ele>
	<time>2023-08-06T10:50:53.000Z</time>
</trkpt>
<trkpt lat="46.0719900" lon="10.4918650">
	<ele>2423.00</ele>
	<time>2023-08-06T10:50:54.000Z</time>
</trkpt>
<trkpt lat="46.0719900" lon="10.4918650">
	<ele>2422.80</ele>
	<time>2023-08-06T10:50:55.000Z</time>
</trkpt>
<trkpt lat="46.0719900" lon="10.4918640">
	<ele>2422.60</ele>
	<time>2023-08-06T10:50:56.000Z</time>
</trkpt>
<trkpt lat="46.0719900" lon="10.4918640">
	<ele>2422.40</ele>
	<time>2023-08-06T10:50:57.000Z</time>
</trkpt>
<trkpt lat="46.0719900" lon="10.4918640">
	<ele>2422.20</ele>
	<time>2023-08-06T10:50:58.000Z</time>
</trkpt>
<trkpt lat="46.0719900" lon="10.4918640">
	<ele>2422.00</ele>
	<time>2023-08-06T10:50:59.000Z</time>
</trkpt>
<trkpt lat="46.0719900" lon="10.4918640">
	<ele>2422.00</ele>
	<time>2023-08-06T10:51:00.000Z</time>
</trkpt>
<trkpt lat="46.0719900" lon="10.4918640">
	<ele>2421.80</ele>
	<time>2023-08-06T10:51:01.000Z</time>
</trkpt>
<trkpt lat="46.0719900" lon="10.4918640">
	<ele>2421.60</ele>
	<time>2023-08-06T10:51:02.000Z</time>
</trkpt>
<trkpt lat="46.0719900" lon="10.4918640">
	<ele>2421.40</ele>
	<time>2023-08-06T10:51:03.000Z</time>
</trkpt>
<trkpt lat="46.0719900" lon="10.4918640">
	<ele>2421.20</ele>
	<time>2023-08-06T10:51:04.000Z</time>
</trkpt>
<trkpt lat="46.0719940" lon="10.4918640">
	<ele>2421.20</ele>
	<time>2023-08-06T10:51:05.000Z</time>
</trkpt>
<trkpt lat="46.0720000" lon="10.4918640">
	<ele>2421.00</ele>
	<time>2023-08-06T10:51:06.000Z</time>
</trkpt>
<trkpt lat="46.0720050" lon="10.4918650">
	<ele>2421.00</ele>
	<time>2023-08-06T10:51:07.000Z</time>
</trkpt>
<trkpt lat="46.0720070" lon="10.4918650">
	<ele>2420.60</ele>
	<time>2023-08-06T10:51:08.000Z</time>
</trkpt>
<trkpt lat="46.0720100" lon="10.4918650">
	<ele>2420.40</ele>
	<time>2023-08-06T10:51:09.000Z</time>
</trkpt>
<trkpt lat="46.0720130" lon="10.4918670">
	<ele>2420.00</ele>
	<time>2023-08-06T10:51:10.000Z</time>
</trkpt>
<trkpt lat="46.0720160" lon="10.4918680">
	<ele>2419.80</ele>
	<time>2023-08-06T10:51:11.000Z</time>
</trkpt>
<trkpt lat="46.0720240" lon="10.4918740">
	<ele>2419.80</ele>
	<time>2023-08-06T10:51:12.000Z</time>
</trkpt>
<trkpt lat="46.0720370" lon="10.4918870">
	<ele>2419.40</ele>
	<time>2023-08-06T10:51:13.000Z</time>
</trkpt>
<trkpt lat="46.0720450" lon="10.4918970">
	<ele>2419.20</ele>
	<time>2023-08-06T10:51:14.000Z</time>
</trkpt>
<trkpt lat="46.0720560" lon="10.4919090">
	<ele>2419.20</ele>
	<time>2023-08-06T10:51:15.000Z</time>
</trkpt>
<trkpt lat="46.0720700" lon="10.4919170">
	<ele>2419.00</ele>
	<time>2023-08-06T10:51:16.000Z</time>
</trkpt>
<trkpt lat="46.0720880" lon="10.4919230">
	<ele>2418.80</ele>
	<time>2023-08-06T10:51:17.000Z</time>
</trkpt>
<trkpt lat="46.0721050" lon="10.4919310">
	<ele>2418.60</ele>
	<time>2023-08-06T10:51:18.000Z</time>
</trkpt>
<trkpt lat="46.0721190" lon="10.4919380">
	<ele>2418.40</ele>
	<time>2023-08-06T10:51:19.000Z</time>
</trkpt>
<trkpt lat="46.0721290" lon="10.4919480">
	<ele>2418.40</ele>
	<time>2023-08-06T10:51:20.000Z</time>
</trkpt>
<trkpt lat="46.0721390" lon="10.4919580">
	<ele>2418.20</ele>
	<time>2023-08-06T10:51:21.000Z</time>
</trkpt>
<trkpt lat="46.0721410" lon="10.4919620">
	<ele>2418.00</ele>
	<time>2023-08-06T10:51:22.000Z</time>
</trkpt>
<trkpt lat="46.0721450" lon="10.4919660">
	<ele>2417.80</ele>
	<time>2023-08-06T10:51:23.000Z</time>
</trkpt>
<trkpt lat="46.0721480" lon="10.4919700">
	<ele>2417.80</ele>
	<time>2023-08-06T10:51:24.000Z</time>
</trkpt>
<trkpt lat="46.0721520" lon="10.4919710">
	<ele>2417.60</ele>
	<time>2023-08-06T10:51:25.000Z</time>
</trkpt>
<trkpt lat="46.0721570" lon="10.4919700">
	<ele>2417.40</ele>
	<time>2023-08-06T10:51:26.000Z</time>
</trkpt>
<trkpt lat="46.0721620" lon="10.4919690">
	<ele>2417.20</ele>
	<time>2023-08-06T10:51:27.000Z</time>
</trkpt>
<trkpt lat="46.0721620" lon="10.4919730">
	<ele>2416.80</ele>
	<time>2023-08-06T10:51:28.000Z</time>
</trkpt>
<trkpt lat="46.0721650" lon="10.4919760">
	<ele>2416.60</ele>
	<time>2023-08-06T10:51:29.000Z</time>
</trkpt>
<trkpt lat="46.0721650" lon="10.4919780">
	<ele>2416.20</ele>
	<time>2023-08-06T10:51:30.000Z</time>
</trkpt>
<trkpt lat="46.0721660" lon="10.4919800">
	<ele>2416.00</ele>
	<time>2023-08-06T10:51:31.000Z</time>
</trkpt>
<trkpt lat="46.0721670" lon="10.4919840">
	<ele>2415.80</ele>
	<time>2023-08-06T10:51:32.000Z</time>
</trkpt>
<trkpt lat="46.0721670" lon="10.4919880">
	<ele>2415.60</ele>
	<time>2023-08-06T10:51:33.000Z</time>
</trkpt>
<trkpt lat="46.0721710" lon="10.4919800">
	<ele>2415.60</ele>
	<time>2023-08-06T10:51:34.000Z</time>
</trkpt>
<trkpt lat="46.0721770" lon="10.4919720">
	<ele>2415.40</ele>
	<time>2023-08-06T10:51:35.000Z</time>
</trkpt>
<trkpt lat="46.0721880" lon="10.4919700">
	<ele>2415.20</ele>
	<time>2023-08-06T10:51:36.000Z</time>
</trkpt>
<trkpt lat="46.0721980" lon="10.4919730">
	<ele>2415.20</ele>
	<time>2023-08-06T10:51:37.000Z</time>
</trkpt>
<trkpt lat="46.0721990" lon="10.4919810">
	<ele>2414.60</ele>
	<time>2023-08-06T10:51:38.000Z</time>
</trkpt>
<trkpt lat="46.0722010" lon="10.4919820">
	<ele>2414.40</ele>
	<time>2023-08-06T10:51:39.000Z</time>
</trkpt>
<trkpt lat="46.0722020" lon="10.4919850">
	<ele>2414.20</ele>
	<time>2023-08-06T10:51:40.000Z</time>
</trkpt>
<trkpt lat="46.0722060" lon="10.4919880">
	<ele>2414.00</ele>
	<time>2023-08-06T10:51:41.000Z</time>
</trkpt>
<trkpt lat="46.0722090" lon="10.4919890">
	<ele>2414.00</ele>
	<time>2023-08-06T10:51:42.000Z</time>
</trkpt>
<trkpt lat="46.0722120" lon="10.4919920">
	<ele>2413.60</ele>
	<time>2023-08-06T10:51:43.000Z</time>
</trkpt>
<trkpt lat="46.0722150" lon="10.4919930">
	<ele>2413.40</ele>
	<time>2023-08-06T10:51:44.000Z</time>
</trkpt>
<trkpt lat="46.0722200" lon="10.4919940">
	<ele>2413.20</ele>
	<time>2023-08-06T10:51:45.000Z</time>
</trkpt>
<trkpt lat="46.0722220" lon="10.4919980">
	<ele>2413.00</ele>
	<time>2023-08-06T10:51:46.000Z</time>
</trkpt>
<trkpt lat="46.0722240" lon="10.4919990">
	<ele>2412.80</ele>
	<time>2023-08-06T10:51:47.000Z</time>
</trkpt>
<trkpt lat="46.0722270" lon="10.4920000">
	<ele>2412.60</ele>
	<time>2023-08-06T10:51:48.000Z</time>
</trkpt>
<trkpt lat="46.0722300" lon="10.4920020">
	<ele>2412.60</ele>
	<time>2023-08-06T10:51:49.000Z</time>
</trkpt>
<trkpt lat="46.0722330" lon="10.4920020">
	<ele>2412.40</ele>
	<time>2023-08-06T10:51:50.000Z</time>
</trkpt>
<trkpt lat="46.0722340" lon="10.4920020">
	<ele>2412.40</ele>
	<time>2023-08-06T10:51:51.000Z</time>
</trkpt>
<trkpt lat="46.0722340" lon="10.4920010">
	<ele>2412.20</ele>
	<time>2023-08-06T10:51:52.000Z</time>
</trkpt>
<trkpt lat="46.0722340" lon="10.4920010">
	<ele>2412.20</ele>
	<time>2023-08-06T10:51:53.000Z</time>
</trkpt>
<trkpt lat="46.0722340" lon="10.4920010">
	<ele>2412.20</ele>
	<time>2023-08-06T10:51:54.000Z</time>
</trkpt>
<trkpt lat="46.0722340" lon="10.4920010">
	<ele>2412.20</ele>
	<time>2023-08-06T10:51:55.000Z</time>
</trkpt>
<trkpt lat="46.0722340" lon="10.4920010">
	<ele>2412.20</ele>
	<time>2023-08-06T10:51:56.000Z</time>
</trkpt>
<trkpt lat="46.0722340" lon="10.4920010">
	<ele>2412.20</ele>
	<time>2023-08-06T10:51:57.000Z</time>
</trkpt>
<trkpt lat="46.0722340" lon="10.4920010">
	<ele>2412.00</ele>
	<time>2023-08-06T10:51:58.000Z</time>
</trkpt>
<trkpt lat="46.0722340" lon="10.4920010">
	<ele>2411.80</ele>
	<time>2023-08-06T10:51:59.000Z</time>
</trkpt>
<trkpt lat="46.0722340" lon="10.4920010">
	<ele>2411.60</ele>
	<time>2023-08-06T10:52:00.000Z</time>
</trkpt>
<trkpt lat="46.0722340" lon="10.4920010">
	<ele>2411.40</ele>
	<time>2023-08-06T10:52:01.000Z</time>
</trkpt>
<trkpt lat="46.0722340" lon="10.4920010">
	<ele>2411.40</ele>
	<time>2023-08-06T10:52:02.000Z</time>
</trkpt>
<trkpt lat="46.0722340" lon="10.4920010">
	<ele>2410.80</ele>
	<time>2023-08-06T10:52:03.000Z</time>
</trkpt>
<trkpt lat="46.0722340" lon="10.4920010">
	<ele>2410.60</ele>
	<time>2023-08-06T10:52:04.000Z</time>
</trkpt>
<trkpt lat="46.0722340" lon="10.4920000">
	<ele>2410.20</ele>
	<time>2023-08-06T10:52:05.000Z</time>
</trkpt>
<trkpt lat="46.0722340" lon="10.4919990">
	<ele>2410.20</ele>
	<time>2023-08-06T10:52:06.000Z</time>
</trkpt>
<trkpt lat="46.0722340" lon="10.4919990">
	<ele>2410.00</ele>
	<time>2023-08-06T10:52:07.000Z</time>
</trkpt>
<trkpt lat="46.0722340" lon="10.4919990">
	<ele>2409.80</ele>
	<time>2023-08-06T10:52:08.000Z</time>
</trkpt>
<trkpt lat="46.0722350" lon="10.4919990">
	<ele>2409.60</ele>
	<time>2023-08-06T10:52:09.000Z</time>
</trkpt>
<trkpt lat="46.0722370" lon="10.4919990">
	<ele>2409.20</ele>
	<time>2023-08-06T10:52:10.000Z</time>
</trkpt>
<trkpt lat="46.0722400" lon="10.4919990">
	<ele>2409.00</ele>
	<time>2023-08-06T10:52:11.000Z</time>
</trkpt>
<trkpt lat="46.0722450" lon="10.4919990">
	<ele>2408.60</ele>
	<time>2023-08-06T10:52:12.000Z</time>
</trkpt>
<trkpt lat="46.0722490" lon="10.4919990">
	<ele>2408.40</ele>
	<time>2023-08-06T10:52:13.000Z</time>
</trkpt>
<trkpt lat="46.0722540" lon="10.4919990">
	<ele>2408.40</ele>
	<time>2023-08-06T10:52:14.000Z</time>
</trkpt>
<trkpt lat="46.0722580" lon="10.4919990">
	<ele>2408.00</ele>
	<time>2023-08-06T10:52:15.000Z</time>
</trkpt>
<trkpt lat="46.0722620" lon="10.4919990">
	<ele>2408.00</ele>
	<time>2023-08-06T10:52:16.000Z</time>
</trkpt>
<trkpt lat="46.0722670" lon="10.4920010">
	<ele>2407.80</ele>
	<time>2023-08-06T10:52:17.000Z</time>
</trkpt>
<trkpt lat="46.0722750" lon="10.4920060">
	<ele>2407.80</ele>
	<time>2023-08-06T10:52:18.000Z</time>
</trkpt>
<trkpt lat="46.0722840" lon="10.4920080">
	<ele>2407.60</ele>
	<time>2023-08-06T10:52:19.000Z</time>
</trkpt>
<trkpt lat="46.0722910" lon="10.4920130">
	<ele>2407.40</ele>
	<time>2023-08-06T10:52:20.000Z</time>
</trkpt>
<trkpt lat="46.0722990" lon="10.4920150">
	<ele>2407.20</ele>
	<time>2023-08-06T10:52:21.000Z</time>
</trkpt>
<trkpt lat="46.0723100" lon="10.4920190">
	<ele>2407.00</ele>
	<time>2023-08-06T10:52:22.000Z</time>
</trkpt>
<trkpt lat="46.0723260" lon="10.4920260">
	<ele>2406.80</ele>
	<time>2023-08-06T10:52:23.000Z</time>
</trkpt>
<trkpt lat="46.0723430" lon="10.4920370">
	<ele>2406.80</ele>
	<time>2023-08-06T10:52:24.000Z</time>
</trkpt>
<trkpt lat="46.0723580" lon="10.4920460">
	<ele>2406.40</ele>
	<time>2023-08-06T10:52:25.000Z</time>
</trkpt>
<trkpt lat="46.0723700" lon="10.4920550">
	<ele>2406.20</ele>
	<time>2023-08-06T10:52:26.000Z</time>
</trkpt>
<trkpt lat="46.0723770" lon="10.4920610">
	<ele>2406.20</ele>
	<time>2023-08-06T10:52:27.000Z</time>
</trkpt>
<trkpt lat="46.0723830" lon="10.4920640">
	<ele>2406.20</ele>
	<time>2023-08-06T10:52:28.000Z</time>
</trkpt>
<trkpt lat="46.0723910" lon="10.4920650">
	<ele>2406.00</ele>
	<time>2023-08-06T10:52:29.000Z</time>
</trkpt>
<trkpt lat="46.0723940" lon="10.4920640">
	<ele>2406.00</ele>
	<time>2023-08-06T10:52:30.000Z</time>
</trkpt>
<trkpt lat="46.0723940" lon="10.4920660">
	<ele>2406.00</ele>
	<time>2023-08-06T10:52:31.000Z</time>
</trkpt>
<trkpt lat="46.0723980" lon="10.4920650">
	<ele>2406.00</ele>
	<time>2023-08-06T10:52:32.000Z</time>
</trkpt>
<trkpt lat="46.0724010" lon="10.4920610">
	<ele>2405.60</ele>
	<time>2023-08-06T10:52:33.000Z</time>
</trkpt>
<trkpt lat="46.0724030" lon="10.4920590">
	<ele>2405.20</ele>
	<time>2023-08-06T10:52:34.000Z</time>
</trkpt>
<trkpt lat="46.0724060" lon="10.4920570">
	<ele>2405.00</ele>
	<time>2023-08-06T10:52:35.000Z</time>
</trkpt>
<trkpt lat="46.0724120" lon="10.4920530">
	<ele>2405.00</ele>
	<time>2023-08-06T10:52:36.000Z</time>
</trkpt>
<trkpt lat="46.0724220" lon="10.4920490">
	<ele>2404.80</ele>
	<time>2023-08-06T10:52:37.000Z</time>
</trkpt>
<trkpt lat="46.0724330" lon="10.4920470">
	<ele>2404.80</ele>
	<time>2023-08-06T10:52:38.000Z</time>
</trkpt>
<trkpt lat="46.0724410" lon="10.4920480">
	<ele>2404.20</ele>
	<time>2023-08-06T10:52:39.000Z</time>
</trkpt>
<trkpt lat="46.0724410" lon="10.4920480">
	<ele>2404.00</ele>
	<time>2023-08-06T10:52:40.000Z</time>
</trkpt>
<trkpt lat="46.0724440" lon="10.4920480">
	<ele>2403.80</ele>
	<time>2023-08-06T10:52:41.000Z</time>
</trkpt>
<trkpt lat="46.0724460" lon="10.4920510">
	<ele>2403.60</ele>
	<time>2023-08-06T10:52:42.000Z</time>
</trkpt>
<trkpt lat="46.0724480" lon="10.4920520">
	<ele>2403.40</ele>
	<time>2023-08-06T10:52:43.000Z</time>
</trkpt>
<trkpt lat="46.0724570" lon="10.4920530">
	<ele>2403.20</ele>
	<time>2023-08-06T10:52:44.000Z</time>
</trkpt>
<trkpt lat="46.0724650" lon="10.4920540">
	<ele>2403.00</ele>
	<time>2023-08-06T10:52:45.000Z</time>
</trkpt>
<trkpt lat="46.0724740" lon="10.4920560">
	<ele>2402.80</ele>
	<time>2023-08-06T10:52:46.000Z</time>
</trkpt>
<trkpt lat="46.0724790" lon="10.4920550">
	<ele>2402.60</ele>
	<time>2023-08-06T10:52:47.000Z</time>
</trkpt>
<trkpt lat="46.0724790" lon="10.4920550">
	<ele>2402.40</ele>
	<time>2023-08-06T10:52:48.000Z</time>
</trkpt>
<trkpt lat="46.0724770" lon="10.4920530">
	<ele>2402.20</ele>
	<time>2023-08-06T10:52:49.000Z</time>
</trkpt>
<trkpt lat="46.0724780" lon="10.4920500">
	<ele>2402.20</ele>
	<time>2023-08-06T10:52:50.000Z</time>
</trkpt>
<trkpt lat="46.0724810" lon="10.4920460">
	<ele>2402.00</ele>
	<time>2023-08-06T10:52:51.000Z</time>
</trkpt>
<trkpt lat="46.0724850" lon="10.4920400">
	<ele>2401.80</ele>
	<time>2023-08-06T10:52:52.000Z</time>
</trkpt>
<trkpt lat="46.0724880" lon="10.4920360">
	<ele>2401.80</ele>
	<time>2023-08-06T10:52:53.000Z</time>
</trkpt>
<trkpt lat="46.0724900" lon="10.4920350">
	<ele>2401.40</ele>
	<time>2023-08-06T10:52:54.000Z</time>
</trkpt>
<trkpt lat="46.0724940" lon="10.4920290">
	<ele>2401.00</ele>
	<time>2023-08-06T10:52:55.000Z</time>
</trkpt>
<trkpt lat="46.0724970" lon="10.4920270">
	<ele>2400.80</ele>
	<time>2023-08-06T10:52:56.000Z</time>
</trkpt>
<trkpt lat="46.0725040" lon="10.4920300">
	<ele>2400.60</ele>
	<time>2023-08-06T10:52:57.000Z</time>
</trkpt>
<trkpt lat="46.0725090" lon="10.4920350">
	<ele>2400.60</ele>
	<time>2023-08-06T10:52:58.000Z</time>
</trkpt>
<trkpt lat="46.0725130" lon="10.4920360">
	<ele>2400.40</ele>
	<time>2023-08-06T10:52:59.000Z</time>
</trkpt>
<trkpt lat="46.0725190" lon="10.4920360">
	<ele>2400.20</ele>
	<time>2023-08-06T10:53:00.000Z</time>
</trkpt>
<trkpt lat="46.0725240" lon="10.4920340">
	<ele>2400.00</ele>
	<time>2023-08-06T10:53:01.000Z</time>
</trkpt>
<trkpt lat="46.0725290" lon="10.4920360">
	<ele>2400.00</ele>
	<time>2023-08-06T10:53:02.000Z</time>
</trkpt>
<trkpt lat="46.0725330" lon="10.4920340">
	<ele>2399.80</ele>
	<time>2023-08-06T10:53:03.000Z</time>
</trkpt>
<trkpt lat="46.0725350" lon="10.4920340">
	<ele>2399.60</ele>
	<time>2023-08-06T10:53:04.000Z</time>
</trkpt>
<trkpt lat="46.0725360" lon="10.4920330">
	<ele>2399.60</ele>
	<time>2023-08-06T10:53:05.000Z</time>
</trkpt>
<trkpt lat="46.0725350" lon="10.4920300">
	<ele>2399.40</ele>
	<time>2023-08-06T10:53:06.000Z</time>
</trkpt>
<trkpt lat="46.0725340" lon="10.4920270">
	<ele>2399.20</ele>
	<time>2023-08-06T10:53:07.000Z</time>
</trkpt>
<trkpt lat="46.0725300" lon="10.4920210">
	<ele>2399.00</ele>
	<time>2023-08-06T10:53:08.000Z</time>
</trkpt>
<trkpt lat="46.0725290" lon="10.4920180">
	<ele>2399.00</ele>
	<time>2023-08-06T10:53:09.000Z</time>
</trkpt>
<trkpt lat="46.0725260" lon="10.4920140">
	<ele>2398.80</ele>
	<time>2023-08-06T10:53:10.000Z</time>
</trkpt>
<trkpt lat="46.0725210" lon="10.4920090">
	<ele>2398.80</ele>
	<time>2023-08-06T10:53:11.000Z</time>
</trkpt>
<trkpt lat="46.0725150" lon="10.4920070">
	<ele>2398.60</ele>
	<time>2023-08-06T10:53:12.000Z</time>
</trkpt>
<trkpt lat="46.0725100" lon="10.4920040">
	<ele>2398.20</ele>
	<time>2023-08-06T10:53:13.000Z</time>
</trkpt>
<trkpt lat="46.0725060" lon="10.4920010">
	<ele>2398.00</ele>
	<time>2023-08-06T10:53:14.000Z</time>
</trkpt>
<trkpt lat="46.0725010" lon="10.4919950">
	<ele>2397.80</ele>
	<time>2023-08-06T10:53:15.000Z</time>
</trkpt>
<trkpt lat="46.0725000" lon="10.4919870">
	<ele>2397.60</ele>
	<time>2023-08-06T10:53:16.000Z</time>
</trkpt>
<trkpt lat="46.0725020" lon="10.4919790">
	<ele>2397.40</ele>
	<time>2023-08-06T10:53:17.000Z</time>
</trkpt>
<trkpt lat="46.0725060" lon="10.4919770">
	<ele>2397.00</ele>
	<time>2023-08-06T10:53:18.000Z</time>
</trkpt>
<trkpt lat="46.0725100" lon="10.4919690">
	<ele>2396.80</ele>
	<time>2023-08-06T10:53:19.000Z</time>
</trkpt>
<trkpt lat="46.0725120" lon="10.4919640">
	<ele>2396.60</ele>
	<time>2023-08-06T10:53:20.000Z</time>
</trkpt>
<trkpt lat="46.0725140" lon="10.4919570">
	<ele>2396.40</ele>
	<time>2023-08-06T10:53:21.000Z</time>
</trkpt>
<trkpt lat="46.0725170" lon="10.4919530">
	<ele>2396.20</ele>
	<time>2023-08-06T10:53:22.000Z</time>
</trkpt>
<trkpt lat="46.0725190" lon="10.4919490">
	<ele>2396.00</ele>
	<time>2023-08-06T10:53:23.000Z</time>
</trkpt>
<trkpt lat="46.0725210" lon="10.4919410">
	<ele>2395.80</ele>
	<time>2023-08-06T10:53:24.000Z</time>
</trkpt>
<trkpt lat="46.0725240" lon="10.4919310">
	<ele>2395.80</ele>
	<time>2023-08-06T10:53:25.000Z</time>
</trkpt>
<trkpt lat="46.0725280" lon="10.4919210">
	<ele>2395.60</ele>
	<time>2023-08-06T10:53:26.000Z</time>
</trkpt>
<trkpt lat="46.0725300" lon="10.4919130">
	<ele>2395.40</ele>
	<time>2023-08-06T10:53:27.000Z</time>
</trkpt>
<trkpt lat="46.0725330" lon="10.4919050">
	<ele>2394.80</ele>
	<time>2023-08-06T10:53:28.000Z</time>
</trkpt>
<trkpt lat="46.0725360" lon="10.4919020">
	<ele>2394.40</ele>
	<time>2023-08-06T10:53:29.000Z</time>
</trkpt>
<trkpt lat="46.0725370" lon="10.4918980">
	<ele>2394.00</ele>
	<time>2023-08-06T10:53:30.000Z</time>
</trkpt>
<trkpt lat="46.0725390" lon="10.4918970">
	<ele>2393.80</ele>
	<time>2023-08-06T10:53:31.000Z</time>
</trkpt>
<trkpt lat="46.0725410" lon="10.4918950">
	<ele>2393.60</ele>
	<time>2023-08-06T10:53:32.000Z</time>
</trkpt>
<trkpt lat="46.0725440" lon="10.4918930">
	<ele>2393.20</ele>
	<time>2023-08-06T10:53:33.000Z</time>
</trkpt>
<trkpt lat="46.0725480" lon="10.4918900">
	<ele>2393.00</ele>
	<time>2023-08-06T10:53:34.000Z</time>
</trkpt>
<trkpt lat="46.0725510" lon="10.4918840">
	<ele>2392.80</ele>
	<time>2023-08-06T10:53:35.000Z</time>
</trkpt>
<trkpt lat="46.0725560" lon="10.4918840">
	<ele>2392.80</ele>
	<time>2023-08-06T10:53:36.000Z</time>
</trkpt>
<trkpt lat="46.0725610" lon="10.4918820">
	<ele>2392.40</ele>
	<time>2023-08-06T10:53:37.000Z</time>
</trkpt>
<trkpt lat="46.0725650" lon="10.4918830">
	<ele>2392.20</ele>
	<time>2023-08-06T10:53:38.000Z</time>
</trkpt>
<trkpt lat="46.0725720" lon="10.4918790">
	<ele>2392.20</ele>
	<time>2023-08-06T10:53:39.000Z</time>
</trkpt>
<trkpt lat="46.0725750" lon="10.4918710">
	<ele>2392.00</ele>
	<time>2023-08-06T10:53:40.000Z</time>
</trkpt>
<trkpt lat="46.0725780" lon="10.4918680">
	<ele>2391.80</ele>
	<time>2023-08-06T10:53:41.000Z</time>
</trkpt>
<trkpt lat="46.0725810" lon="10.4918690">
	<ele>2391.60</ele>
	<time>2023-08-06T10:53:42.000Z</time>
</trkpt>
<trkpt lat="46.0725830" lon="10.4918650">
	<ele>2391.40</ele>
	<time>2023-08-06T10:53:43.000Z</time>
</trkpt>
<trkpt lat="46.0725840" lon="10.4918630">
	<ele>2391.20</ele>
	<time>2023-08-06T10:53:44.000Z</time>
</trkpt>
<trkpt lat="46.0725850" lon="10.4918640">
	<ele>2391.00</ele>
	<time>2023-08-06T10:53:45.000Z</time>
</trkpt>
<trkpt lat="46.0725860" lon="10.4918640">
	<ele>2391.00</ele>
	<time>2023-08-06T10:53:46.000Z</time>
</trkpt>
<trkpt lat="46.0725860" lon="10.4918640">
	<ele>2390.80</ele>
	<time>2023-08-06T10:53:47.000Z</time>
</trkpt>
<trkpt lat="46.0725870" lon="10.4918640">
	<ele>2390.80</ele>
	<time>2023-08-06T10:53:48.000Z</time>
</trkpt>
<trkpt lat="46.0725870" lon="10.4918630">
	<ele>2390.80</ele>
	<time>2023-08-06T10:53:49.000Z</time>
</trkpt>
<trkpt lat="46.0725890" lon="10.4918570">
	<ele>2390.60</ele>
	<time>2023-08-06T10:53:50.000Z</time>
</trkpt>
<trkpt lat="46.0725970" lon="10.4918590">
	<ele>2390.60</ele>
	<time>2023-08-06T10:53:51.000Z</time>
</trkpt>
<trkpt lat="46.0726010" lon="10.4918650">
	<ele>2390.60</ele>
	<time>2023-08-06T10:53:52.000Z</time>
</trkpt>
<trkpt lat="46.0726020" lon="10.4918740">
	<ele>2390.40</ele>
	<time>2023-08-06T10:53:53.000Z</time>
</trkpt>
<trkpt lat="46.0726020" lon="10.4918760">
	<ele>2390.20</ele>
	<time>2023-08-06T10:53:54.000Z</time>
</trkpt>
<trkpt lat="46.0726010" lon="10.4918740">
	<ele>2390.20</ele>
	<time>2023-08-06T10:53:55.000Z</time>
</trkpt>
<trkpt lat="46.0725990" lon="10.4918730">
	<ele>2390.00</ele>
	<time>2023-08-06T10:53:56.000Z</time>
</trkpt>
<trkpt lat="46.0725970" lon="10.4918720">
	<ele>2389.80</ele>
	<time>2023-08-06T10:53:57.000Z</time>
</trkpt>
<trkpt lat="46.0725960" lon="10.4918700">
	<ele>2389.60</ele>
	<time>2023-08-06T10:53:58.000Z</time>
</trkpt>
<trkpt lat="46.0725950" lon="10.4918680">
	<ele>2389.20</ele>
	<time>2023-08-06T10:53:59.000Z</time>
</trkpt>
<trkpt lat="46.0725920" lon="10.4918660">
	<ele>2389.00</ele>
	<time>2023-08-06T10:54:00.000Z</time>
</trkpt>
<trkpt lat="46.0725900" lon="10.4918630">
	<ele>2388.80</ele>
	<time>2023-08-06T10:54:01.000Z</time>
</trkpt>
<trkpt lat="46.0725850" lon="10.4918590">
	<ele>2388.40</ele>
	<time>2023-08-06T10:54:02.000Z</time>
</trkpt>
<trkpt lat="46.0725790" lon="10.4918530">
	<ele>2388.40</ele>
	<time>2023-08-06T10:54:03.000Z</time>
</trkpt>
<trkpt lat="46.0725740" lon="10.4918460">
	<ele>2388.20</ele>
	<time>2023-08-06T10:54:04.000Z</time>
</trkpt>
<trkpt lat="46.0725720" lon="10.4918440">
	<ele>2388.00</ele>
	<time>2023-08-06T10:54:05.000Z</time>
</trkpt>
<trkpt lat="46.0725680" lon="10.4918420">
	<ele>2387.60</ele>
	<time>2023-08-06T10:54:06.000Z</time>
</trkpt>
<trkpt lat="46.0725660" lon="10.4918370">
	<ele>2387.20</ele>
	<time>2023-08-06T10:54:07.000Z</time>
</trkpt>
<trkpt lat="46.0725610" lon="10.4918320">
	<ele>2387.00</ele>
	<time>2023-08-06T10:54:08.000Z</time>
</trkpt>
<trkpt lat="46.0725570" lon="10.4918260">
	<ele>2386.60</ele>
	<time>2023-08-06T10:54:09.000Z</time>
</trkpt>
<trkpt lat="46.0725540" lon="10.4918200">
	<ele>2386.60</ele>
	<time>2023-08-06T10:54:10.000Z</time>
</trkpt>
<trkpt lat="46.0725510" lon="10.4918150">
	<ele>2386.40</ele>
	<time>2023-08-06T10:54:11.000Z</time>
</trkpt>
<trkpt lat="46.0725480" lon="10.4918120">
	<ele>2386.20</ele>
	<time>2023-08-06T10:54:12.000Z</time>
</trkpt>
<trkpt lat="46.0725430" lon="10.4918010">
	<ele>2386.00</ele>
	<time>2023-08-06T10:54:13.000Z</time>
</trkpt>
<trkpt lat="46.0725430" lon="10.4917870">
	<ele>2385.80</ele>
	<time>2023-08-06T10:54:14.000Z</time>
</trkpt>
<trkpt lat="46.0725440" lon="10.4917770">
	<ele>2385.60</ele>
	<time>2023-08-06T10:54:15.000Z</time>
</trkpt>
<trkpt lat="46.0725430" lon="10.4917680">
	<ele>2385.20</ele>
	<time>2023-08-06T10:54:16.000Z</time>
</trkpt>
<trkpt lat="46.0725450" lon="10.4917610">
	<ele>2384.80</ele>
	<time>2023-08-06T10:54:17.000Z</time>
</trkpt>
<trkpt lat="46.0725480" lon="10.4917560">
	<ele>2384.60</ele>
	<time>2023-08-06T10:54:18.000Z</time>
</trkpt>
<trkpt lat="46.0725420" lon="10.4917490">
	<ele>2384.40</ele>
	<time>2023-08-06T10:54:19.000Z</time>
</trkpt>
<trkpt lat="46.0725380" lon="10.4917440">
	<ele>2384.40</ele>
	<time>2023-08-06T10:54:20.000Z</time>
</trkpt>
<trkpt lat="46.0725370" lon="10.4917400">
	<ele>2384.20</ele>
	<time>2023-08-06T10:54:21.000Z</time>
</trkpt>
<trkpt lat="46.0725390" lon="10.4917370">
	<ele>2384.20</ele>
	<time>2023-08-06T10:54:22.000Z</time>
</trkpt>
<trkpt lat="46.0725420" lon="10.4917380">
	<ele>2384.00</ele>
	<time>2023-08-06T10:54:23.000Z</time>
</trkpt>
<trkpt lat="46.0725460" lon="10.4917370">
	<ele>2383.80</ele>
	<time>2023-08-06T10:54:24.000Z</time>
</trkpt>
<trkpt lat="46.0725510" lon="10.4917290">
	<ele>2383.60</ele>
	<time>2023-08-06T10:54:25.000Z</time>
</trkpt>
<trkpt lat="46.0725540" lon="10.4917240">
	<ele>2383.40</ele>
	<time>2023-08-06T10:54:26.000Z</time>
</trkpt>
<trkpt lat="46.0725590" lon="10.4917210">
	<ele>2383.20</ele>
	<time>2023-08-06T10:54:27.000Z</time>
</trkpt>
<trkpt lat="46.0725650" lon="10.4917170">
	<ele>2383.20</ele>
	<time>2023-08-06T10:54:28.000Z</time>
</trkpt>
<trkpt lat="46.0725700" lon="10.4917130">
	<ele>2382.80</ele>
	<time>2023-08-06T10:54:29.000Z</time>
</trkpt>
<trkpt lat="46.0725730" lon="10.4917060">
	<ele>2382.60</ele>
	<time>2023-08-06T10:54:30.000Z</time>
</trkpt>
<trkpt lat="46.0725740" lon="10.4916850">
	<ele>2382.40</ele>
	<time>2023-08-06T10:54:31.000Z</time>
</trkpt>
<trkpt lat="46.0725810" lon="10.4916690">
	<ele>2382.20</ele>
	<time>2023-08-06T10:54:32.000Z</time>
</trkpt>
<trkpt lat="46.0725840" lon="10.4916670">
	<ele>2382.00</ele>
	<time>2023-08-06T10:54:33.000Z</time>
</trkpt>
<trkpt lat="46.0725880" lon="10.4916660">
	<ele>2381.80</ele>
	<time>2023-08-06T10:54:34.000Z</time>
</trkpt>
<trkpt lat="46.0725920" lon="10.4916650">
	<ele>2381.60</ele>
	<time>2023-08-06T10:54:35.000Z</time>
</trkpt>
<trkpt lat="46.0725920" lon="10.4916650">
	<ele>2381.40</ele>
	<time>2023-08-06T10:54:36.000Z</time>
</trkpt>
<trkpt lat="46.0725920" lon="10.4916660">
	<ele>2381.40</ele>
	<time>2023-08-06T10:54:37.000Z</time>
</trkpt>
<trkpt lat="46.0725950" lon="10.4916680">
	<ele>2381.20</ele>
	<time>2023-08-06T10:54:38.000Z</time>
</trkpt>
<trkpt lat="46.0726030" lon="10.4916650">
	<ele>2381.00</ele>
	<time>2023-08-06T10:54:39.000Z</time>
</trkpt>
<trkpt lat="46.0726080" lon="10.4916650">
	<ele>2380.80</ele>
	<time>2023-08-06T10:54:40.000Z</time>
</trkpt>
<trkpt lat="46.0726070" lon="10.4916700">
	<ele>2380.80</ele>
	<time>2023-08-06T10:54:41.000Z</time>
</trkpt>
<trkpt lat="46.0726070" lon="10.4916690">
	<ele>2380.60</ele>
	<time>2023-08-06T10:54:42.000Z</time>
</trkpt>
<trkpt lat="46.0726000" lon="10.4916640">
	<ele>2380.60</ele>
	<time>2023-08-06T10:54:43.000Z</time>
</trkpt>
<trkpt lat="46.0725950" lon="10.4916600">
	<ele>2380.60</ele>
	<time>2023-08-06T10:54:44.000Z</time>
</trkpt>
<trkpt lat="46.0725910" lon="10.4916510">
	<ele>2380.40</ele>
	<time>2023-08-06T10:54:45.000Z</time>
</trkpt>
<trkpt lat="46.0725900" lon="10.4916430">
	<ele>2380.00</ele>
	<time>2023-08-06T10:54:46.000Z</time>
</trkpt>
<trkpt lat="46.0725910" lon="10.4916370">
	<ele>2379.80</ele>
	<time>2023-08-06T10:54:47.000Z</time>
</trkpt>
<trkpt lat="46.0725940" lon="10.4916300">
	<ele>2379.60</ele>
	<time>2023-08-06T10:54:48.000Z</time>
</trkpt>
<trkpt lat="46.0725980" lon="10.4916200">
	<ele>2379.40</ele>
	<time>2023-08-06T10:54:49.000Z</time>
</trkpt>
<trkpt lat="46.0726020" lon="10.4916110">
	<ele>2379.00</ele>
	<time>2023-08-06T10:54:50.000Z</time>
</trkpt>
<trkpt lat="46.0726080" lon="10.4916040">
	<ele>2378.60</ele>
	<time>2023-08-06T10:54:51.000Z</time>
</trkpt>
<trkpt lat="46.0726110" lon="10.4916010">
	<ele>2378.20</ele>
	<time>2023-08-06T10:54:52.000Z</time>
</trkpt>
<trkpt lat="46.0726140" lon="10.4916090">
	<ele>2378.00</ele>
	<time>2023-08-06T10:54:53.000Z</time>
</trkpt>
<trkpt lat="46.0726170" lon="10.4916060">
	<ele>2377.80</ele>
	<time>2023-08-06T10:54:54.000Z</time>
</trkpt>
<trkpt lat="46.0726190" lon="10.4916020">
	<ele>2377.60</ele>
	<time>2023-08-06T10:54:55.000Z</time>
</trkpt>
<trkpt lat="46.0726250" lon="10.4915990">
	<ele>2377.40</ele>
	<time>2023-08-06T10:54:56.000Z</time>
</trkpt>
<trkpt lat="46.0726280" lon="10.4915950">
	<ele>2377.20</ele>
	<time>2023-08-06T10:54:57.000Z</time>
</trkpt>
<trkpt lat="46.0726300" lon="10.4915910">
	<ele>2377.00</ele>
	<time>2023-08-06T10:54:58.000Z</time>
</trkpt>
<trkpt lat="46.0726310" lon="10.4915890">
	<ele>2376.80</ele>
	<time>2023-08-06T10:54:59.000Z</time>
</trkpt>
<trkpt lat="46.0726340" lon="10.4915880">
	<ele>2376.60</ele>
	<time>2023-08-06T10:55:00.000Z</time>
</trkpt>
<trkpt lat="46.0726350" lon="10.4915860">
	<ele>2376.40</ele>
	<time>2023-08-06T10:55:01.000Z</time>
</trkpt>
<trkpt lat="46.0726410" lon="10.4915810">
	<ele>2376.20</ele>
	<time>2023-08-06T10:55:02.000Z</time>
</trkpt>
<trkpt lat="46.0726440" lon="10.4915780">
	<ele>2376.20</ele>
	<time>2023-08-06T10:55:03.000Z</time>
</trkpt>
<trkpt lat="46.0726400" lon="10.4915750">
	<ele>2376.20</ele>
	<time>2023-08-06T10:55:04.000Z</time>
</trkpt>
<trkpt lat="46.0726360" lon="10.4915660">
	<ele>2376.00</ele>
	<time>2023-08-06T10:55:05.000Z</time>
</trkpt>
<trkpt lat="46.0726260" lon="10.4915640">
	<ele>2375.80</ele>
	<time>2023-08-06T10:55:06.000Z</time>
</trkpt>
<trkpt lat="46.0726290" lon="10.4915650">
	<ele>2375.40</ele>
	<time>2023-08-06T10:55:07.000Z</time>
</trkpt>
<trkpt lat="46.0726330" lon="10.4915660">
	<ele>2375.20</ele>
	<time>2023-08-06T10:55:08.000Z</time>
</trkpt>
<trkpt lat="46.0726360" lon="10.4915620">
	<ele>2375.00</ele>
	<time>2023-08-06T10:55:09.000Z</time>
</trkpt>
<trkpt lat="46.0726390" lon="10.4915590">
	<ele>2374.80</ele>
	<time>2023-08-06T10:55:10.000Z</time>
</trkpt>
<trkpt lat="46.0726400" lon="10.4915550">
	<ele>2374.60</ele>
	<time>2023-08-06T10:55:11.000Z</time>
</trkpt>
<trkpt lat="46.0726360" lon="10.4915530">
	<ele>2374.40</ele>
	<time>2023-08-06T10:55:12.000Z</time>
</trkpt>
<trkpt lat="46.0726360" lon="10.4915520">
	<ele>2374.40</ele>
	<time>2023-08-06T10:55:13.000Z</time>
</trkpt>
<trkpt lat="46.0726330" lon="10.4915470">
	<ele>2374.20</ele>
	<time>2023-08-06T10:55:14.000Z</time>
</trkpt>
<trkpt lat="46.0726300" lon="10.4915540">
	<ele>2373.80</ele>
	<time>2023-08-06T10:55:15.000Z</time>
</trkpt>
<trkpt lat="46.0726260" lon="10.4915560">
	<ele>2373.40</ele>
	<time>2023-08-06T10:55:16.000Z</time>
</trkpt>
<trkpt lat="46.0726180" lon="10.4915610">
	<ele>2373.20</ele>
	<time>2023-08-06T10:55:17.000Z</time>
</trkpt>
<trkpt lat="46.0726150" lon="10.4915600">
	<ele>2373.00</ele>
	<time>2023-08-06T10:55:18.000Z</time>
</trkpt>
<trkpt lat="46.0726160" lon="10.4915590">
	<ele>2372.60</ele>
	<time>2023-08-06T10:55:19.000Z</time>
</trkpt>
<trkpt lat="46.0726180" lon="10.4915550">
	<ele>2372.40</ele>
	<time>2023-08-06T10:55:20.000Z</time>
</trkpt>
<trkpt lat="46.0726190" lon="10.4915500">
	<ele>2372.20</ele>
	<time>2023-08-06T10:55:21.000Z</time>
</trkpt>
<trkpt lat="46.0726170" lon="10.4915470">
	<ele>2372.00</ele>
	<time>2023-08-06T10:55:22.000Z</time>
</trkpt>
<trkpt lat="46.0726220" lon="10.4915440">
	<ele>2371.80</ele>
	<time>2023-08-06T10:55:23.000Z</time>
</trkpt>
<trkpt lat="46.0726230" lon="10.4915430">
	<ele>2371.60</ele>
	<time>2023-08-06T10:55:24.000Z</time>
</trkpt>
<trkpt lat="46.0726230" lon="10.4915410">
	<ele>2371.40</ele>
	<time>2023-08-06T10:55:25.000Z</time>
</trkpt>
<trkpt lat="46.0726300" lon="10.4915400">
	<ele>2371.20</ele>
	<time>2023-08-06T10:55:26.000Z</time>
</trkpt>
<trkpt lat="46.0726300" lon="10.4915400">
	<ele>2371.20</ele>
	<time>2023-08-06T10:55:27.000Z</time>
</trkpt>
<trkpt lat="46.0726300" lon="10.4915400">
	<ele>2371.00</ele>
	<time>2023-08-06T10:55:28.000Z</time>
</trkpt>
<trkpt lat="46.0726300" lon="10.4915400">
	<ele>2371.00</ele>
	<time>2023-08-06T10:55:29.000Z</time>
</trkpt>
<trkpt lat="46.0726300" lon="10.4915400">
	<ele>2371.00</ele>
	<time>2023-08-06T10:55:30.000Z</time>
</trkpt>
<trkpt lat="46.0726300" lon="10.4915400">
	<ele>2370.80</ele>
	<time>2023-08-06T10:55:31.000Z</time>
</trkpt>
<trkpt lat="46.0726300" lon="10.4915400">
	<ele>2370.80</ele>
	<time>2023-08-06T10:55:32.000Z</time>
</trkpt>
<trkpt lat="46.0726300" lon="10.4915400">
	<ele>2370.40</ele>
	<time>2023-08-06T10:55:33.000Z</time>
</trkpt>
<trkpt lat="46.0726300" lon="10.4915400">
	<ele>2370.20</ele>
	<time>2023-08-06T10:55:34.000Z</time>
</trkpt>
<trkpt lat="46.0726300" lon="10.4915400">
	<ele>2369.80</ele>
	<time>2023-08-06T10:55:35.000Z</time>
</trkpt>
<trkpt lat="46.0726300" lon="10.4915400">
	<ele>2369.60</ele>
	<time>2023-08-06T10:55:36.000Z</time>
</trkpt>
<trkpt lat="46.0726300" lon="10.4915400">
	<ele>2369.40</ele>
	<time>2023-08-06T10:55:37.000Z</time>
</trkpt>
<trkpt lat="46.0726300" lon="10.4915400">
	<ele>2369.20</ele>
	<time>2023-08-06T10:55:38.000Z</time>
</trkpt>
<trkpt lat="46.0726300" lon="10.4915400">
	<ele>2369.00</ele>
	<time>2023-08-06T10:55:39.000Z</time>
</trkpt>
<trkpt lat="46.0726300" lon="10.4915400">
	<ele>2369.00</ele>
	<time>2023-08-06T10:55:40.000Z</time>
</trkpt>
<trkpt lat="46.0726300" lon="10.4915400">
	<ele>2368.60</ele>
	<time>2023-08-06T10:55:41.000Z</time>
</trkpt>
<trkpt lat="46.0726310" lon="10.4915380">
	<ele>2368.40</ele>
	<time>2023-08-06T10:55:42.000Z</time>
</trkpt>
<trkpt lat="46.0726360" lon="10.4915310">
	<ele>2368.20</ele>
	<time>2023-08-06T10:55:43.000Z</time>
</trkpt>
<trkpt lat="46.0726390" lon="10.4915250">
	<ele>2368.20</ele>
	<time>2023-08-06T10:55:44.000Z</time>
</trkpt>
<trkpt lat="46.0726410" lon="10.4915210">
	<ele>2368.20</ele>
	<time>2023-08-06T10:55:45.000Z</time>
</trkpt>
<trkpt lat="46.0726410" lon="10.4915170">
	<ele>2368.00</ele>
	<time>2023-08-06T10:55:46.000Z</time>
</trkpt>
<trkpt lat="46.0726390" lon="10.4915210">
	<ele>2368.00</ele>
	<time>2023-08-06T10:55:47.000Z</time>
</trkpt>
<trkpt lat="46.0726340" lon="10.4915200">
	<ele>2368.00</ele>
	<time>2023-08-06T10:55:48.000Z</time>
</trkpt>
<trkpt lat="46.0726280" lon="10.4915100">
	<ele>2367.80</ele>
	<time>2023-08-06T10:55:49.000Z</time>
</trkpt>
<trkpt lat="46.0726330" lon="10.4914980">
	<ele>2367.60</ele>
	<time>2023-08-06T10:55:50.000Z</time>
</trkpt>
<trkpt lat="46.0726430" lon="10.4914910">
	<ele>2367.20</ele>
	<time>2023-08-06T10:55:51.000Z</time>
</trkpt>
<trkpt lat="46.0726520" lon="10.4914890">
	<ele>2366.80</ele>
	<time>2023-08-06T10:55:52.000Z</time>
</trkpt>
<trkpt lat="46.0726580" lon="10.4914860">
	<ele>2366.40</ele>
	<time>2023-08-06T10:55:53.000Z</time>
</trkpt>
<trkpt lat="46.0726600" lon="10.4914860">
	<ele>2366.20</ele>
	<time>2023-08-06T10:55:54.000Z</time>
</trkpt>
<trkpt lat="46.0726630" lon="10.4914880">
	<ele>2366.00</ele>
	<time>2023-08-06T10:55:55.000Z</time>
</trkpt>
<trkpt lat="46.0726670" lon="10.4914860">
	<ele>2365.80</ele>
	<time>2023-08-06T10:55:56.000Z</time>
</trkpt>
<trkpt lat="46.0726690" lon="10.4914840">
	<ele>2365.80</ele>
	<time>2023-08-06T10:55:57.000Z</time>
</trkpt>
<trkpt lat="46.0726740" lon="10.4914800">
	<ele>2365.80</ele>
	<time>2023-08-06T10:55:58.000Z</time>
</trkpt>
<trkpt lat="46.0726750" lon="10.4914780">
	<ele>2365.40</ele>
	<time>2023-08-06T10:55:59.000Z</time>
</trkpt>
<trkpt lat="46.0726760" lon="10.4914760">
	<ele>2365.00</ele>
	<time>2023-08-06T10:56:00.000Z</time>
</trkpt>
<trkpt lat="46.0726790" lon="10.4914730">
	<ele>2364.80</ele>
	<time>2023-08-06T10:56:01.000Z</time>
</trkpt>
<trkpt lat="46.0726800" lon="10.4914660">
	<ele>2364.60</ele>
	<time>2023-08-06T10:56:02.000Z</time>
</trkpt>
<trkpt lat="46.0726740" lon="10.4914590">
	<ele>2364.40</ele>
	<time>2023-08-06T10:56:03.000Z</time>
</trkpt>
<trkpt lat="46.0726670" lon="10.4914510">
	<ele>2364.20</ele>
	<time>2023-08-06T10:56:04.000Z</time>
</trkpt>
<trkpt lat="46.0726610" lon="10.4914380">
	<ele>2364.00</ele>
	<time>2023-08-06T10:56:05.000Z</time>
</trkpt>
<trkpt lat="46.0726630" lon="10.4914340">
	<ele>2363.80</ele>
	<time>2023-08-06T10:56:06.000Z</time>
</trkpt>
<trkpt lat="46.0726660" lon="10.4914330">
	<ele>2363.60</ele>
	<time>2023-08-06T10:56:07.000Z</time>
</trkpt>
<trkpt lat="46.0726710" lon="10.4914360">
	<ele>2363.40</ele>
	<time>2023-08-06T10:56:08.000Z</time>
</trkpt>
<trkpt lat="46.0726770" lon="10.4914390">
	<ele>2363.20</ele>
	<time>2023-08-06T10:56:09.000Z</time>
</trkpt>
<trkpt lat="46.0726820" lon="10.4914430">
	<ele>2363.00</ele>
	<time>2023-08-06T10:56:10.000Z</time>
</trkpt>
<trkpt lat="46.0726850" lon="10.4914400">
	<ele>2362.60</ele>
	<time>2023-08-06T10:56:11.000Z</time>
</trkpt>
<trkpt lat="46.0726860" lon="10.4914380">
	<ele>2362.40</ele>
	<time>2023-08-06T10:56:12.000Z</time>
</trkpt>
<trkpt lat="46.0726850" lon="10.4914360">
	<ele>2362.20</ele>
	<time>2023-08-06T10:56:13.000Z</time>
</trkpt>
<trkpt lat="46.0726970" lon="10.4914380">
	<ele>2362.20</ele>
	<time>2023-08-06T10:56:14.000Z</time>
</trkpt>
<trkpt lat="46.0727090" lon="10.4914490">
	<ele>2362.00</ele>
	<time>2023-08-06T10:56:15.000Z</time>
</trkpt>
<trkpt lat="46.0727170" lon="10.4914590">
	<ele>2361.60</ele>
	<time>2023-08-06T10:56:16.000Z</time>
</trkpt>
<trkpt lat="46.0727270" lon="10.4914590">
	<ele>2361.40</ele>
	<time>2023-08-06T10:56:17.000Z</time>
</trkpt>
<trkpt lat="46.0727320" lon="10.4914590">
	<ele>2361.20</ele>
	<time>2023-08-06T10:56:18.000Z</time>
</trkpt>
<trkpt lat="46.0727390" lon="10.4914600">
	<ele>2361.20</ele>
	<time>2023-08-06T10:56:19.000Z</time>
</trkpt>
<trkpt lat="46.0727450" lon="10.4914580">
	<ele>2361.00</ele>
	<time>2023-08-06T10:56:20.000Z</time>
</trkpt>
<trkpt lat="46.0727510" lon="10.4914550">
	<ele>2360.80</ele>
	<time>2023-08-06T10:56:21.000Z</time>
</trkpt>
<trkpt lat="46.0727590" lon="10.4914540">
	<ele>2360.60</ele>
	<time>2023-08-06T10:56:22.000Z</time>
</trkpt>
<trkpt lat="46.0727630" lon="10.4914540">
	<ele>2360.40</ele>
	<time>2023-08-06T10:56:23.000Z</time>
</trkpt>
<trkpt lat="46.0727670" lon="10.4914510">
	<ele>2360.20</ele>
	<time>2023-08-06T10:56:24.000Z</time>
</trkpt>
<trkpt lat="46.0727730" lon="10.4914450">
	<ele>2360.00</ele>
	<time>2023-08-06T10:56:25.000Z</time>
</trkpt>
<trkpt lat="46.0727760" lon="10.4914380">
	<ele>2360.00</ele>
	<time>2023-08-06T10:56:26.000Z</time>
</trkpt>
<trkpt lat="46.0727770" lon="10.4914340">
	<ele>2359.80</ele>
	<time>2023-08-06T10:56:27.000Z</time>
</trkpt>
<trkpt lat="46.0727810" lon="10.4914280">
	<ele>2359.60</ele>
	<time>2023-08-06T10:56:28.000Z</time>
</trkpt>
<trkpt lat="46.0727820" lon="10.4914220">
	<ele>2359.60</ele>
	<time>2023-08-06T10:56:29.000Z</time>
</trkpt>
<trkpt lat="46.0727840" lon="10.4914160">
	<ele>2359.40</ele>
	<time>2023-08-06T10:56:30.000Z</time>
</trkpt>
<trkpt lat="46.0727870" lon="10.4914120">
	<ele>2359.40</ele>
	<time>2023-08-06T10:56:31.000Z</time>
</trkpt>
<trkpt lat="46.0727890" lon="10.4914080">
	<ele>2359.20</ele>
	<time>2023-08-06T10:56:32.000Z</time>
</trkpt>
<trkpt lat="46.0727950" lon="10.4914050">
	<ele>2359.00</ele>
	<time>2023-08-06T10:56:33.000Z</time>
</trkpt>
<trkpt lat="46.0727970" lon="10.4914040">
	<ele>2358.80</ele>
	<time>2023-08-06T10:56:34.000Z</time>
</trkpt>
<trkpt lat="46.0727990" lon="10.4914020">
	<ele>2358.40</ele>
	<time>2023-08-06T10:56:35.000Z</time>
</trkpt>
<trkpt lat="46.0727950" lon="10.4914020">
	<ele>2358.20</ele>
	<time>2023-08-06T10:56:36.000Z</time>
</trkpt>
<trkpt lat="46.0728000" lon="10.4914080">
	<ele>2358.00</ele>
	<time>2023-08-06T10:56:37.000Z</time>
</trkpt>
<trkpt lat="46.0727960" lon="10.4914040">
	<ele>2358.00</ele>
	<time>2023-08-06T10:56:38.000Z</time>
</trkpt>
<trkpt lat="46.0727960" lon="10.4914020">
	<ele>2358.00</ele>
	<time>2023-08-06T10:56:39.000Z</time>
</trkpt>
<trkpt lat="46.0727950" lon="10.4913990">
	<ele>2358.00</ele>
	<time>2023-08-06T10:56:40.000Z</time>
</trkpt>
<trkpt lat="46.0727970" lon="10.4913990">
	<ele>2358.00</ele>
	<time>2023-08-06T10:56:41.000Z</time>
</trkpt>
<trkpt lat="46.0727980" lon="10.4914010">
	<ele>2358.00</ele>
	<time>2023-08-06T10:56:42.000Z</time>
</trkpt>
<trkpt lat="46.0728000" lon="10.4914010">
	<ele>2358.00</ele>
	<time>2023-08-06T10:56:43.000Z</time>
</trkpt>
<trkpt lat="46.0728020" lon="10.4913990">
	<ele>2358.00</ele>
	<time>2023-08-06T10:56:44.000Z</time>
</trkpt>
<trkpt lat="46.0728030" lon="10.4913940">
	<ele>2358.20</ele>
	<time>2023-08-06T10:56:45.000Z</time>
</trkpt>
<trkpt lat="46.0728040" lon="10.4913940">
	<ele>2358.20</ele>
	<time>2023-08-06T10:56:46.000Z</time>
</trkpt>
<trkpt lat="46.0728040" lon="10.4913940">
	<ele>2358.40</ele>
	<time>2023-08-06T10:56:47.000Z</time>
</trkpt>
<trkpt lat="46.0728040" lon="10.4913940">
	<ele>2358.60</ele>
	<time>2023-08-06T10:56:48.000Z</time>
</trkpt>
<trkpt lat="46.0728040" lon="10.4913940">
	<ele>2358.60</ele>
	<time>2023-08-06T10:56:49.000Z</time>
</trkpt>
<trkpt lat="46.0728040" lon="10.4913940">
	<ele>2358.60</ele>
	<time>2023-08-06T10:56:50.000Z</time>
</trkpt>
<trkpt lat="46.0728040" lon="10.4913940">
	<ele>2358.60</ele>
	<time>2023-08-06T10:56:51.000Z</time>
</trkpt>
<trkpt lat="46.0728040" lon="10.4913940">
	<ele>2358.60</ele>
	<time>2023-08-06T10:56:52.000Z</time>
</trkpt>
<trkpt lat="46.0728040" lon="10.4913940">
	<ele>2358.60</ele>
	<time>2023-08-06T10:56:53.000Z</time>
</trkpt>
<trkpt lat="46.0728040" lon="10.4913940">
	<ele>2358.20</ele>
	<time>2023-08-06T10:56:54.000Z</time>
</trkpt>
<trkpt lat="46.0728040" lon="10.4913940">
	<ele>2358.00</ele>
	<time>2023-08-06T10:56:55.000Z</time>
</trkpt>
<trkpt lat="46.0728040" lon="10.4913940">
	<ele>2357.80</ele>
	<time>2023-08-06T10:56:56.000Z</time>
</trkpt>
<trkpt lat="46.0728040" lon="10.4913960">
	<ele>2357.80</ele>
	<time>2023-08-06T10:56:57.000Z</time>
</trkpt>
<trkpt lat="46.0728040" lon="10.4913980">
	<ele>2357.80</ele>
	<time>2023-08-06T10:56:58.000Z</time>
</trkpt>
<trkpt lat="46.0728040" lon="10.4913990">
	<ele>2357.80</ele>
	<time>2023-08-06T10:56:59.000Z</time>
</trkpt>
<trkpt lat="46.0728040" lon="10.4913990">
	<ele>2357.80</ele>
	<time>2023-08-06T10:57:00.000Z</time>
</trkpt>
<trkpt lat="46.0728040" lon="10.4913990">
	<ele>2358.00</ele>
	<time>2023-08-06T10:57:01.000Z</time>
</trkpt>
<trkpt lat="46.0728040" lon="10.4913990">
	<ele>2358.00</ele>
	<time>2023-08-06T10:57:02.000Z</time>
</trkpt>
<trkpt lat="46.0728040" lon="10.4913990">
	<ele>2358.00</ele>
	<time>2023-08-06T10:57:03.000Z</time>
</trkpt>
<trkpt lat="46.0728040" lon="10.4914010">
	<ele>2358.00</ele>
	<time>2023-08-06T10:57:04.000Z</time>
</trkpt>
<trkpt lat="46.0728040" lon="10.4914010">
	<ele>2358.00</ele>
	<time>2023-08-06T10:57:05.000Z</time>
</trkpt>
<trkpt lat="46.0728030" lon="10.4914020">
	<ele>2358.00</ele>
	<time>2023-08-06T10:57:06.000Z</time>
</trkpt>
<trkpt lat="46.0728030" lon="10.4914040">
	<ele>2357.80</ele>
	<time>2023-08-06T10:57:07.000Z</time>
</trkpt>
<trkpt lat="46.0728030" lon="10.4914090">
	<ele>2357.60</ele>
	<time>2023-08-06T10:57:08.000Z</time>
</trkpt>
<trkpt lat="46.0728030" lon="10.4914100">
	<ele>2357.40</ele>
	<time>2023-08-06T10:57:09.000Z</time>
</trkpt>
<trkpt lat="46.0728030" lon="10.4914110">
	<ele>2357.20</ele>
	<time>2023-08-06T10:57:10.000Z</time>
</trkpt>
<trkpt lat="46.0728030" lon="10.4914120">
	<ele>2357.20</ele>
	<time>2023-08-06T10:57:11.000Z</time>
</trkpt>
<trkpt lat="46.0728030" lon="10.4914120">
	<ele>2356.80</ele>
	<time>2023-08-06T10:57:12.000Z</time>
</trkpt>
<trkpt lat="46.0728030" lon="10.4914120">
	<ele>2356.60</ele>
	<time>2023-08-06T10:57:13.000Z</time>
</trkpt>
<trkpt lat="46.0728030" lon="10.4914120">
	<ele>2356.60</ele>
	<time>2023-08-06T10:57:14.000Z</time>
</trkpt>
<trkpt lat="46.0728030" lon="10.4914120">
	<ele>2356.40</ele>
	<time>2023-08-06T10:57:15.000Z</time>
</trkpt>
<trkpt lat="46.0728030" lon="10.4914120">
	<ele>2356.40</ele>
	<time>2023-08-06T10:57:16.000Z</time>
</trkpt>
<trkpt lat="46.0728030" lon="10.4914120">
	<ele>2356.00</ele>
	<time>2023-08-06T10:57:17.000Z</time>
</trkpt>
<trkpt lat="46.0728030" lon="10.4914120">
	<ele>2355.80</ele>
	<time>2023-08-06T10:57:18.000Z</time>
</trkpt>
<trkpt lat="46.0728030" lon="10.4914120">
	<ele>2355.80</ele>
	<time>2023-08-06T10:57:19.000Z</time>
</trkpt>
<trkpt lat="46.0728030" lon="10.4914120">
	<ele>2355.60</ele>
	<time>2023-08-06T10:57:20.000Z</time>
</trkpt>
<trkpt lat="46.0728030" lon="10.4914120">
	<ele>2355.20</ele>
	<time>2023-08-06T10:57:21.000Z</time>
</trkpt>
<trkpt lat="46.0728030" lon="10.4914120">
	<ele>2354.80</ele>
	<time>2023-08-06T10:57:22.000Z</time>
</trkpt>
<trkpt lat="46.0728030" lon="10.4914120">
	<ele>2354.80</ele>
	<time>2023-08-06T10:57:23.000Z</time>
</trkpt>
<trkpt lat="46.0728030" lon="10.4914120">
	<ele>2354.60</ele>
	<time>2023-08-06T10:57:24.000Z</time>
</trkpt>
<trkpt lat="46.0728070" lon="10.4914090">
	<ele>2354.20</ele>
	<time>2023-08-06T10:57:25.000Z</time>
</trkpt>
<trkpt lat="46.0728160" lon="10.4914050">
	<ele>2354.00</ele>
	<time>2023-08-06T10:57:26.000Z</time>
</trkpt>
<trkpt lat="46.0728250" lon="10.4913990">
	<ele>2353.60</ele>
	<time>2023-08-06T10:57:27.000Z</time>
</trkpt>
<trkpt lat="46.0728350" lon="10.4913960">
	<ele>2353.40</ele>
	<time>2023-08-06T10:57:28.000Z</time>
</trkpt>
<trkpt lat="46.0728440" lon="10.4913920">
	<ele>2353.40</ele>
	<time>2023-08-06T10:57:29.000Z</time>
</trkpt>
<trkpt lat="46.0728500" lon="10.4913870">
	<ele>2353.40</ele>
	<time>2023-08-06T10:57:30.000Z</time>
</trkpt>
<trkpt lat="46.0728540" lon="10.4913780">
	<ele>2353.20</ele>
	<time>2023-08-06T10:57:31.000Z</time>
</trkpt>
<trkpt lat="46.0728610" lon="10.4913730">
	<ele>2353.00</ele>
	<time>2023-08-06T10:57:32.000Z</time>
</trkpt>
<trkpt lat="46.0728690" lon="10.4913700">
	<ele>2353.00</ele>
	<time>2023-08-06T10:57:33.000Z</time>
</trkpt>
<trkpt lat="46.0728790" lon="10.4913630">
	<ele>2352.80</ele>
	<time>2023-08-06T10:57:34.000Z</time>
</trkpt>
<trkpt lat="46.0728870" lon="10.4913570">
	<ele>2352.60</ele>
	<time>2023-08-06T10:57:35.000Z</time>
</trkpt>
<trkpt lat="46.0728930" lon="10.4913500">
	<ele>2352.40</ele>
	<time>2023-08-06T10:57:36.000Z</time>
</trkpt>
<trkpt lat="46.0729010" lon="10.4913440">
	<ele>2352.40</ele>
	<time>2023-08-06T10:57:37.000Z</time>
</trkpt>
<trkpt lat="46.0729110" lon="10.4913430">
	<ele>2352.20</ele>
	<time>2023-08-06T10:57:38.000Z</time>
</trkpt>
<trkpt lat="46.0729210" lon="10.4913410">
	<ele>2352.20</ele>
	<time>2023-08-06T10:57:39.000Z</time>
</trkpt>
<trkpt lat="46.0729260" lon="10.4913410">
	<ele>2352.20</ele>
	<time>2023-08-06T10:57:40.000Z</time>
</trkpt>
<trkpt lat="46.0729350" lon="10.4913360">
	<ele>2352.20</ele>
	<time>2023-08-06T10:57:41.000Z</time>
</trkpt>
<trkpt lat="46.0729410" lon="10.4913300">
	<ele>2352.20</ele>
	<time>2023-08-06T10:57:42.000Z</time>
</trkpt>
<trkpt lat="46.0729490" lon="10.4913240">
	<ele>2352.20</ele>
	<time>2023-08-06T10:57:43.000Z</time>
</trkpt>
<trkpt lat="46.0729550" lon="10.4913200">
	<ele>2352.20</ele>
	<time>2023-08-06T10:57:44.000Z</time>
</trkpt>
<trkpt lat="46.0729590" lon="10.4913180">
	<ele>2352.40</ele>
	<time>2023-08-06T10:57:45.000Z</time>
</trkpt>
<trkpt lat="46.0729600" lon="10.4913170">
	<ele>2352.40</ele>
	<time>2023-08-06T10:57:46.000Z</time>
</trkpt>
<trkpt lat="46.0729590" lon="10.4913210">
	<ele>2352.40</ele>
	<time>2023-08-06T10:57:47.000Z</time>
</trkpt>
<trkpt lat="46.0729600" lon="10.4913250">
	<ele>2352.40</ele>
	<time>2023-08-06T10:57:48.000Z</time>
</trkpt>
<trkpt lat="46.0729620" lon="10.4913270">
	<ele>2352.40</ele>
	<time>2023-08-06T10:57:49.000Z</time>
</trkpt>
<trkpt lat="46.0729590" lon="10.4913280">
	<ele>2352.40</ele>
	<time>2023-08-06T10:57:50.000Z</time>
</trkpt>
<trkpt lat="46.0729580" lon="10.4913280">
	<ele>2352.40</ele>
	<time>2023-08-06T10:57:51.000Z</time>
</trkpt>
<trkpt lat="46.0729550" lon="10.4913270">
	<ele>2352.40</ele>
	<time>2023-08-06T10:57:52.000Z</time>
</trkpt>
<trkpt lat="46.0729530" lon="10.4913290">
	<ele>2352.40</ele>
	<time>2023-08-06T10:57:53.000Z</time>
</trkpt>
<trkpt lat="46.0729530" lon="10.4913280">
	<ele>2352.40</ele>
	<time>2023-08-06T10:57:54.000Z</time>
</trkpt>
<trkpt lat="46.0729530" lon="10.4913280">
	<ele>2352.40</ele>
	<time>2023-08-06T10:57:55.000Z</time>
</trkpt>
<trkpt lat="46.0729530" lon="10.4913280">
	<ele>2352.40</ele>
	<time>2023-08-06T10:57:56.000Z</time>
</trkpt>
<trkpt lat="46.0729530" lon="10.4913280">
	<ele>2352.20</ele>
	<time>2023-08-06T10:57:57.000Z</time>
</trkpt>
<trkpt lat="46.0729530" lon="10.4913280">
	<ele>2352.20</ele>
	<time>2023-08-06T10:57:58.000Z</time>
</trkpt>
<trkpt lat="46.0729530" lon="10.4913280">
	<ele>2352.00</ele>
	<time>2023-08-06T10:57:59.000Z</time>
</trkpt>
<trkpt lat="46.0729530" lon="10.4913280">
	<ele>2352.00</ele>
	<time>2023-08-06T10:58:00.000Z</time>
</trkpt>
<trkpt lat="46.0729530" lon="10.4913280">
	<ele>2352.00</ele>
	<time>2023-08-06T10:58:01.000Z</time>
</trkpt>
<trkpt lat="46.0729530" lon="10.4913280">
	<ele>2352.00</ele>
	<time>2023-08-06T10:58:02.000Z</time>
</trkpt>
<trkpt lat="46.0729540" lon="10.4913280">
	<ele>2352.20</ele>
	<time>2023-08-06T10:58:03.000Z</time>
</trkpt>
<trkpt lat="46.0729550" lon="10.4913280">
	<ele>2352.20</ele>
	<time>2023-08-06T10:58:04.000Z</time>
</trkpt>
<trkpt lat="46.0729570" lon="10.4913280">
	<ele>2352.20</ele>
	<time>2023-08-06T10:58:05.000Z</time>
</trkpt>
<trkpt lat="46.0729580" lon="10.4913280">
	<ele>2352.20</ele>
	<time>2023-08-06T10:58:06.000Z</time>
</trkpt>
<trkpt lat="46.0729590" lon="10.4913280">
	<ele>2352.20</ele>
	<time>2023-08-06T10:58:07.000Z</time>
</trkpt>
<trkpt lat="46.0729590" lon="10.4913280">
	<ele>2352.20</ele>
	<time>2023-08-06T10:58:08.000Z</time>
</trkpt>
<trkpt lat="46.0729590" lon="10.4913280">
	<ele>2352.20</ele>
	<time>2023-08-06T10:58:09.000Z</time>
</trkpt>
<trkpt lat="46.0729600" lon="10.4913280">
	<ele>2352.20</ele>
	<time>2023-08-06T10:58:10.000Z</time>
</trkpt>
<trkpt lat="46.0729600" lon="10.4913280">
	<ele>2352.20</ele>
	<time>2023-08-06T10:58:11.000Z</time>
</trkpt>
<trkpt lat="46.0729600" lon="10.4913280">
	<ele>2352.20</ele>
	<time>2023-08-06T10:58:12.000Z</time>
</trkpt>
<trkpt lat="46.0729600" lon="10.4913290">
	<ele>2352.20</ele>
	<time>2023-08-06T10:58:13.000Z</time>
</trkpt>
<trkpt lat="46.0729600" lon="10.4913300">
	<ele>2352.20</ele>
	<time>2023-08-06T10:58:14.000Z</time>
</trkpt>
<trkpt lat="46.0729600" lon="10.4913300">
	<ele>2352.40</ele>
	<time>2023-08-06T10:58:15.000Z</time>
</trkpt>
<trkpt lat="46.0729600" lon="10.4913300">
	<ele>2352.20</ele>
	<time>2023-08-06T10:58:16.000Z</time>
</trkpt>
<trkpt lat="46.0729600" lon="10.4913300">
	<ele>2352.20</ele>
	<time>2023-08-06T10:58:17.000Z</time>
</trkpt>
<trkpt lat="46.0729600" lon="10.4913300">
	<ele>2352.20</ele>
	<time>2023-08-06T10:58:18.000Z</time>
</trkpt>
<trkpt lat="46.0729600" lon="10.4913300">
	<ele>2352.20</ele>
	<time>2023-08-06T10:58:19.000Z</time>
</trkpt>
<trkpt lat="46.0729600" lon="10.4913300">
	<ele>2352.20</ele>
	<time>2023-08-06T10:58:20.000Z</time>
</trkpt>
<trkpt lat="46.0729600" lon="10.4913300">
	<ele>2352.20</ele>
	<time>2023-08-06T10:58:21.000Z</time>
</trkpt>
<trkpt lat="46.0729600" lon="10.4913300">
	<ele>2352.20</ele>
	<time>2023-08-06T10:58:22.000Z</time>
</trkpt>
<trkpt lat="46.0729600" lon="10.4913300">
	<ele>2352.00</ele>
	<time>2023-08-06T10:58:23.000Z</time>
</trkpt>
<trkpt lat="46.0729600" lon="10.4913300">
	<ele>2352.00</ele>
	<time>2023-08-06T10:58:24.000Z</time>
</trkpt>
<trkpt lat="46.0729600" lon="10.4913300">
	<ele>2352.20</ele>
	<time>2023-08-06T10:58:25.000Z</time>
</trkpt>
<trkpt lat="46.0729600" lon="10.4913300">
	<ele>2352.20</ele>
	<time>2023-08-06T10:58:26.000Z</time>
</trkpt>
<trkpt lat="46.0729600" lon="10.4913300">
	<ele>2352.00</ele>
	<time>2023-08-06T10:58:27.000Z</time>
</trkpt>
<trkpt lat="46.0729600" lon="10.4913300">
	<ele>2352.00</ele>
	<time>2023-08-06T10:58:28.000Z</time>
</trkpt>
<trkpt lat="46.0729600" lon="10.4913290">
	<ele>2351.80</ele>
	<time>2023-08-06T10:58:29.000Z</time>
</trkpt>
<trkpt lat="46.0729580" lon="10.4913280">
	<ele>2351.80</ele>
	<time>2023-08-06T10:58:30.000Z</time>
</trkpt>
<trkpt lat="46.0729570" lon="10.4913270">
	<ele>2351.80</ele>
	<time>2023-08-06T10:58:31.000Z</time>
</trkpt>
<trkpt lat="46.0729560" lon="10.4913270">
	<ele>2351.80</ele>
	<time>2023-08-06T10:58:32.000Z</time>
</trkpt>
<trkpt lat="46.0729560" lon="10.4913270">
	<ele>2351.80</ele>
	<time>2023-08-06T10:58:33.000Z</time>
</trkpt>
<trkpt lat="46.0729560" lon="10.4913270">
	<ele>2351.80</ele>
	<time>2023-08-06T10:58:34.000Z</time>
</trkpt>
<trkpt lat="46.0729550" lon="10.4913270">
	<ele>2351.60</ele>
	<time>2023-08-06T10:58:35.000Z</time>
</trkpt>
<trkpt lat="46.0729550" lon="10.4913270">
	<ele>2351.60</ele>
	<time>2023-08-06T10:58:36.000Z</time>
</trkpt>
<trkpt lat="46.0729540" lon="10.4913270">
	<ele>2351.60</ele>
	<time>2023-08-06T10:58:37.000Z</time>
</trkpt>
<trkpt lat="46.0729530" lon="10.4913270">
	<ele>2351.60</ele>
	<time>2023-08-06T10:58:38.000Z</time>
</trkpt>
<trkpt lat="46.0729530" lon="10.4913270">
	<ele>2351.60</ele>
	<time>2023-08-06T10:58:39.000Z</time>
</trkpt>
<trkpt lat="46.0729530" lon="10.4913270">
	<ele>2351.40</ele>
	<time>2023-08-06T10:58:40.000Z</time>
</trkpt>
<trkpt lat="46.0729550" lon="10.4913270">
	<ele>2351.40</ele>
	<time>2023-08-06T10:58:41.000Z</time>
</trkpt>
<trkpt lat="46.0729570" lon="10.4913250">
	<ele>2351.20</ele>
	<time>2023-08-06T10:58:42.000Z</time>
</trkpt>
<trkpt lat="46.0729620" lon="10.4913230">
	<ele>2351.00</ele>
	<time>2023-08-06T10:58:43.000Z</time>
</trkpt>
<trkpt lat="46.0729680" lon="10.4913210">
	<ele>2350.80</ele>
	<time>2023-08-06T10:58:44.000Z</time>
</trkpt>
<trkpt lat="46.0729740" lon="10.4913210">
	<ele>2350.80</ele>
	<time>2023-08-06T10:58:45.000Z</time>
</trkpt>
<trkpt lat="46.0729840" lon="10.4913180">
	<ele>2350.80</ele>
	<time>2023-08-06T10:58:46.000Z</time>
</trkpt>
<trkpt lat="46.0729890" lon="10.4913170">
	<ele>2350.60</ele>
	<time>2023-08-06T10:58:47.000Z</time>
</trkpt>
<trkpt lat="46.0729930" lon="10.4913220">
	<ele>2350.40</ele>
	<time>2023-08-06T10:58:48.000Z</time>
</trkpt>
<trkpt lat="46.0729970" lon="10.4913240">
	<ele>2350.40</ele>
	<time>2023-08-06T10:58:49.000Z</time>
</trkpt>
<trkpt lat="46.0730020" lon="10.4913230">
	<ele>2350.40</ele>
	<time>2023-08-06T10:58:50.000Z</time>
</trkpt>
<trkpt lat="46.0730030" lon="10.4913240">
	<ele>2350.40</ele>
	<time>2023-08-06T10:58:51.000Z</time>
</trkpt>
<trkpt lat="46.0730030" lon="10.4913250">
	<ele>2350.40</ele>
	<time>2023-08-06T10:58:52.000Z</time>
</trkpt>
<trkpt lat="46.0730020" lon="10.4913270">
	<ele>2350.40</ele>
	<time>2023-08-06T10:58:53.000Z</time>
</trkpt>
<trkpt lat="46.0730020" lon="10.4913290">
	<ele>2350.40</ele>
	<time>2023-08-06T10:58:54.000Z</time>
</trkpt>
<trkpt lat="46.0730100" lon="10.4913300">
	<ele>2350.40</ele>
	<time>2023-08-06T10:58:55.000Z</time>
</trkpt>
<trkpt lat="46.0730160" lon="10.4913320">
	<ele>2350.20</ele>
	<time>2023-08-06T10:58:56.000Z</time>
</trkpt>
<trkpt lat="46.0730200" lon="10.4913350">
	<ele>2350.20</ele>
	<time>2023-08-06T10:58:57.000Z</time>
</trkpt>
<trkpt lat="46.0730260" lon="10.4913350">
	<ele>2350.00</ele>
	<time>2023-08-06T10:58:58.000Z</time>
</trkpt>
<trkpt lat="46.0730280" lon="10.4913350">
	<ele>2350.00</ele>
	<time>2023-08-06T10:58:59.000Z</time>
</trkpt>
<trkpt lat="46.0730300" lon="10.4913360">
	<ele>2350.00</ele>
	<time>2023-08-06T10:59:00.000Z</time>
</trkpt>
<trkpt lat="46.0730320" lon="10.4913360">
	<ele>2350.00</ele>
	<time>2023-08-06T10:59:01.000Z</time>
</trkpt>
<trkpt lat="46.0730320" lon="10.4913370">
	<ele>2350.00</ele>
	<time>2023-08-06T10:59:02.000Z</time>
</trkpt>
<trkpt lat="46.0730310" lon="10.4913390">
	<ele>2350.00</ele>
	<time>2023-08-06T10:59:03.000Z</time>
</trkpt>
<trkpt lat="46.0730270" lon="10.4913390">
	<ele>2349.80</ele>
	<time>2023-08-06T10:59:04.000Z</time>
</trkpt>
<trkpt lat="46.0730260" lon="10.4913390">
	<ele>2349.60</ele>
	<time>2023-08-06T10:59:05.000Z</time>
</trkpt>
<trkpt lat="46.0730240" lon="10.4913380">
	<ele>2349.60</ele>
	<time>2023-08-06T10:59:06.000Z</time>
</trkpt>
<trkpt lat="46.0730340" lon="10.4913350">
	<ele>2349.40</ele>
	<time>2023-08-06T10:59:07.000Z</time>
</trkpt>
<trkpt lat="46.0730400" lon="10.4913330">
	<ele>2349.40</ele>
	<time>2023-08-06T10:59:08.000Z</time>
</trkpt>
<trkpt lat="46.0730350" lon="10.4913350">
	<ele>2349.40</ele>
	<time>2023-08-06T10:59:09.000Z</time>
</trkpt>
<trkpt lat="46.0730310" lon="10.4913360">
	<ele>2349.40</ele>
	<time>2023-08-06T10:59:10.000Z</time>
</trkpt>
<trkpt lat="46.0730350" lon="10.4913360">
	<ele>2349.20</ele>
	<time>2023-08-06T10:59:11.000Z</time>
</trkpt>
<trkpt lat="46.0730380" lon="10.4913360">
	<ele>2349.20</ele>
	<time>2023-08-06T10:59:12.000Z</time>
</trkpt>
<trkpt lat="46.0730410" lon="10.4913390">
	<ele>2349.20</ele>
	<time>2023-08-06T10:59:13.000Z</time>
</trkpt>
<trkpt lat="46.0730430" lon="10.4913390">
	<ele>2349.20</ele>
	<time>2023-08-06T10:59:14.000Z</time>
</trkpt>
<trkpt lat="46.0730440" lon="10.4913380">
	<ele>2349.20</ele>
	<time>2023-08-06T10:59:15.000Z</time>
</trkpt>
<trkpt lat="46.0730430" lon="10.4913380">
	<ele>2349.20</ele>
	<time>2023-08-06T10:59:16.000Z</time>
</trkpt>
<trkpt lat="46.0730420" lon="10.4913380">
	<ele>2349.20</ele>
	<time>2023-08-06T10:59:17.000Z</time>
</trkpt>
<trkpt lat="46.0730420" lon="10.4913400">
	<ele>2349.00</ele>
	<time>2023-08-06T10:59:18.000Z</time>
</trkpt>
<trkpt lat="46.0730400" lon="10.4913420">
	<ele>2348.80</ele>
	<time>2023-08-06T10:59:19.000Z</time>
</trkpt>
<trkpt lat="46.0730380" lon="10.4913430">
	<ele>2348.80</ele>
	<time>2023-08-06T10:59:20.000Z</time>
</trkpt>
<trkpt lat="46.0730400" lon="10.4913420">
	<ele>2348.80</ele>
	<time>2023-08-06T10:59:21.000Z</time>
</trkpt>
<trkpt lat="46.0730440" lon="10.4913430">
	<ele>2348.60</ele>
	<time>2023-08-06T10:59:22.000Z</time>
</trkpt>
<trkpt lat="46.0730450" lon="10.4913430">
	<ele>2348.60</ele>
	<time>2023-08-06T10:59:23.000Z</time>
</trkpt>
<trkpt lat="46.0730460" lon="10.4913440">
	<ele>2348.40</ele>
	<time>2023-08-06T10:59:24.000Z</time>
</trkpt>
<trkpt lat="46.0730410" lon="10.4913470">
	<ele>2348.40</ele>
	<time>2023-08-06T10:59:25.000Z</time>
</trkpt>
<trkpt lat="46.0730370" lon="10.4913480">
	<ele>2348.40</ele>
	<time>2023-08-06T10:59:26.000Z</time>
</trkpt>
<trkpt lat="46.0730340" lon="10.4913510">
	<ele>2348.00</ele>
	<time>2023-08-06T10:59:27.000Z</time>
</trkpt>
<trkpt lat="46.0730280" lon="10.4913520">
	<ele>2347.80</ele>
	<time>2023-08-06T10:59:28.000Z</time>
</trkpt>
<trkpt lat="46.0730260" lon="10.4913560">
	<ele>2347.60</ele>
	<time>2023-08-06T10:59:29.000Z</time>
</trkpt>
<trkpt lat="46.0730200" lon="10.4913550">
	<ele>2347.60</ele>
	<time>2023-08-06T10:59:30.000Z</time>
</trkpt>
<trkpt lat="46.0730160" lon="10.4913580">
	<ele>2347.60</ele>
	<time>2023-08-06T10:59:31.000Z</time>
</trkpt>
<trkpt lat="46.0730170" lon="10.4913630">
	<ele>2347.60</ele>
	<time>2023-08-06T10:59:32.000Z</time>
</trkpt>
<trkpt lat="46.0730180" lon="10.4913690">
	<ele>2347.60</ele>
	<time>2023-08-06T10:59:33.000Z</time>
</trkpt>
<trkpt lat="46.0730130" lon="10.4913740">
	<ele>2347.60</ele>
	<time>2023-08-06T10:59:34.000Z</time>
</trkpt>
<trkpt lat="46.0730210" lon="10.4913750">
	<ele>2347.60</ele>
	<time>2023-08-06T10:59:35.000Z</time>
</trkpt>
<trkpt lat="46.0730290" lon="10.4913790">
	<ele>2347.60</ele>
	<time>2023-08-06T10:59:36.000Z</time>
</trkpt>
<trkpt lat="46.0730340" lon="10.4913840">
	<ele>2347.60</ele>
	<time>2023-08-06T10:59:37.000Z</time>
</trkpt>
<trkpt lat="46.0730350" lon="10.4913870">
	<ele>2347.60</ele>
	<time>2023-08-06T10:59:38.000Z</time>
</trkpt>
<trkpt lat="46.0730350" lon="10.4913900">
	<ele>2347.40</ele>
	<time>2023-08-06T10:59:39.000Z</time>
</trkpt>
<trkpt lat="46.0730360" lon="10.4913900">
	<ele>2347.20</ele>
	<time>2023-08-06T10:59:40.000Z</time>
</trkpt>
<trkpt lat="46.0730330" lon="10.4913920">
	<ele>2347.20</ele>
	<time>2023-08-06T10:59:41.000Z</time>
</trkpt>
<trkpt lat="46.0730270" lon="10.4913910">
	<ele>2347.20</ele>
	<time>2023-08-06T10:59:42.000Z</time>
</trkpt>
<trkpt lat="46.0730260" lon="10.4913900">
	<ele>2347.00</ele>
	<time>2023-08-06T10:59:43.000Z</time>
</trkpt>
<trkpt lat="46.0730260" lon="10.4913900">
	<ele>2347.00</ele>
	<time>2023-08-06T10:59:44.000Z</time>
</trkpt>
<trkpt lat="46.0730260" lon="10.4913900">
	<ele>2347.00</ele>
	<time>2023-08-06T10:59:45.000Z</time>
</trkpt>
<trkpt lat="46.0730260" lon="10.4913900">
	<ele>2347.00</ele>
	<time>2023-08-06T10:59:46.000Z</time>
</trkpt>
<trkpt lat="46.0730260" lon="10.4913900">
	<ele>2346.80</ele>
	<time>2023-08-06T10:59:47.000Z</time>
</trkpt>
<trkpt lat="46.0730260" lon="10.4913900">
	<ele>2346.80</ele>
	<time>2023-08-06T10:59:48.000Z</time>
</trkpt>
<trkpt lat="46.0730260" lon="10.4913900">
	<ele>2346.60</ele>
	<time>2023-08-06T10:59:49.000Z</time>
</trkpt>
<trkpt lat="46.0730260" lon="10.4913900">
	<ele>2346.60</ele>
	<time>2023-08-06T10:59:50.000Z</time>
</trkpt>
<trkpt lat="46.0730260" lon="10.4913900">
	<ele>2346.40</ele>
	<time>2023-08-06T10:59:51.000Z</time>
</trkpt>
<trkpt lat="46.0730260" lon="10.4913900">
	<ele>2346.40</ele>
	<time>2023-08-06T10:59:52.000Z</time>
</trkpt>
<trkpt lat="46.0730260" lon="10.4913900">
	<ele>2346.40</ele>
	<time>2023-08-06T10:59:53.000Z</time>
</trkpt>
<trkpt lat="46.0730260" lon="10.4913900">
	<ele>2346.20</ele>
	<time>2023-08-06T10:59:54.000Z</time>
</trkpt>
<trkpt lat="46.0730260" lon="10.4913900">
	<ele>2346.00</ele>
	<time>2023-08-06T10:59:55.000Z</time>
</trkpt>
<trkpt lat="46.0730260" lon="10.4913900">
	<ele>2346.00</ele>
	<time>2023-08-06T10:59:56.000Z</time>
</trkpt>
<trkpt lat="46.0730260" lon="10.4913910">
	<ele>2345.80</ele>
	<time>2023-08-06T10:59:57.000Z</time>
</trkpt>
<trkpt lat="46.0730210" lon="10.4913920">
	<ele>2345.80</ele>
	<time>2023-08-06T10:59:58.000Z</time>
</trkpt>
<trkpt lat="46.0730190" lon="10.4913930">
	<ele>2345.80</ele>
	<time>2023-08-06T10:59:59.000Z</time>
</trkpt>
<trkpt lat="46.0730190" lon="10.4913960">
	<ele>2345.60</ele>
	<time>2023-08-06T11:00:00.000Z</time>
</trkpt>
<trkpt lat="46.0730180" lon="10.4913980">
	<ele>2345.40</ele>
	<time>2023-08-06T11:00:01.000Z</time>
</trkpt>
<trkpt lat="46.0730180" lon="10.4913990">
	<ele>2345.20</ele>
	<time>2023-08-06T11:00:02.000Z</time>
</trkpt>
<trkpt lat="46.0730180" lon="10.4913990">
	<ele>2345.20</ele>
	<time>2023-08-06T11:00:03.000Z</time>
</trkpt>
<trkpt lat="46.0730130" lon="10.4913990">
	<ele>2345.20</ele>
	<time>2023-08-06T11:00:04.000Z</time>
</trkpt>
<trkpt lat="46.0730120" lon="10.4914010">
	<ele>2345.20</ele>
	<time>2023-08-06T11:00:05.000Z</time>
</trkpt>
<trkpt lat="46.0730120" lon="10.4914020">
	<ele>2345.20</ele>
	<time>2023-08-06T11:00:06.000Z</time>
</trkpt>
<trkpt lat="46.0730110" lon="10.4914020">
	<ele>2345.00</ele>
	<time>2023-08-06T11:00:07.000Z</time>
</trkpt>
<trkpt lat="46.0730110" lon="10.4914020">
	<ele>2345.00</ele>
	<time>2023-08-06T11:00:08.000Z</time>
</trkpt>
<trkpt lat="46.0730160" lon="10.4914010">
	<ele>2345.00</ele>
	<time>2023-08-06T11:00:09.000Z</time>
</trkpt>
<trkpt lat="46.0730180" lon="10.4914000">
	<ele>2345.00</ele>
	<time>2023-08-06T11:00:10.000Z</time>
</trkpt>
<trkpt lat="46.0730180" lon="10.4913990">
	<ele>2344.80</ele>
	<time>2023-08-06T11:00:11.000Z</time>
</trkpt>
<trkpt lat="46.0730180" lon="10.4913990">
	<ele>2344.80</ele>
	<time>2023-08-06T11:00:12.000Z</time>
</trkpt>
<trkpt lat="46.0730180" lon="10.4913990">
	<ele>2344.80</ele>
	<time>2023-08-06T11:00:13.000Z</time>
</trkpt>
<trkpt lat="46.0730180" lon="10.4913990">
	<ele>2344.80</ele>
	<time>2023-08-06T11:00:14.000Z</time>
</trkpt>
<trkpt lat="46.0730180" lon="10.4913990">
	<ele>2344.80</ele>
	<time>2023-08-06T11:00:15.000Z</time>
</trkpt>
<trkpt lat="46.0730180" lon="10.4913990">
	<ele>2344.80</ele>
	<time>2023-08-06T11:00:16.000Z</time>
</trkpt>
<trkpt lat="46.0730180" lon="10.4913990">
	<ele>2344.80</ele>
	<time>2023-08-06T11:00:17.000Z</time>
</trkpt>
<trkpt lat="46.0730180" lon="10.4913990">
	<ele>2344.80</ele>
	<time>2023-08-06T11:00:18.000Z</time>
</trkpt>
<trkpt lat="46.0730180" lon="10.4913990">
	<ele>2344.80</ele>
	<time>2023-08-06T11:00:19.000Z</time>
</trkpt>
<trkpt lat="46.0730180" lon="10.4913990">
	<ele>2344.60</ele>
	<time>2023-08-06T11:00:20.000Z</time>
</trkpt>
<trkpt lat="46.0730180" lon="10.4913990">
	<ele>2344.40</ele>
	<time>2023-08-06T11:00:21.000Z</time>
</trkpt>
<trkpt lat="46.0730180" lon="10.4913990">
	<ele>2344.20</ele>
	<time>2023-08-06T11:00:22.000Z</time>
</trkpt>
<trkpt lat="46.0730180" lon="10.4913990">
	<ele>2344.20</ele>
	<time>2023-08-06T11:00:23.000Z</time>
</trkpt>
<trkpt lat="46.0730180" lon="10.4913990">
	<ele>2344.00</ele>
	<time>2023-08-06T11:00:24.000Z</time>
</trkpt>
<trkpt lat="46.0730180" lon="10.4913990">
	<ele>2344.00</ele>
	<time>2023-08-06T11:00:25.000Z</time>
</trkpt>
<trkpt lat="46.0730180" lon="10.4913980">
	<ele>2343.80</ele>
	<time>2023-08-06T11:00:26.000Z</time>
</trkpt>
<trkpt lat="46.0730180" lon="10.4913960">
	<ele>2343.80</ele>
	<time>2023-08-06T11:00:27.000Z</time>
</trkpt>
<trkpt lat="46.0730200" lon="10.4913950">
	<ele>2343.80</ele>
	<time>2023-08-06T11:00:28.000Z</time>
</trkpt>
<trkpt lat="46.0730200" lon="10.4913950">
	<ele>2343.60</ele>
	<time>2023-08-06T11:00:29.000Z</time>
</trkpt>
<trkpt lat="46.0730210" lon="10.4913950">
	<ele>2343.60</ele>
	<time>2023-08-06T11:00:30.000Z</time>
</trkpt>
<trkpt lat="46.0730210" lon="10.4913940">
	<ele>2343.60</ele>
	<time>2023-08-06T11:00:31.000Z</time>
</trkpt>
<trkpt lat="46.0730210" lon="10.4913930">
	<ele>2343.40</ele>
	<time>2023-08-06T11:00:32.000Z</time>
</trkpt>
<trkpt lat="46.0730230" lon="10.4913880">
	<ele>2343.40</ele>
	<time>2023-08-06T11:00:33.000Z</time>
</trkpt>
<trkpt lat="46.0730240" lon="10.4913860">
	<ele>2343.40</ele>
	<time>2023-08-06T11:00:34.000Z</time>
</trkpt>
<trkpt lat="46.0730240" lon="10.4913850">
	<ele>2343.20</ele>
	<time>2023-08-06T11:00:35.000Z</time>
</trkpt>
<trkpt lat="46.0730260" lon="10.4913850">
	<ele>2343.20</ele>
	<time>2023-08-06T11:00:36.000Z</time>
</trkpt>
<trkpt lat="46.0730260" lon="10.4913850">
	<ele>2343.20</ele>
	<time>2023-08-06T11:00:37.000Z</time>
</trkpt>
<trkpt lat="46.0730270" lon="10.4913840">
	<ele>2343.20</ele>
	<time>2023-08-06T11:00:38.000Z</time>
</trkpt>
<trkpt lat="46.0730270" lon="10.4913840">
	<ele>2343.00</ele>
	<time>2023-08-06T11:00:39.000Z</time>
</trkpt>
<trkpt lat="46.0730270" lon="10.4913840">
	<ele>2343.00</ele>
	<time>2023-08-06T11:00:40.000Z</time>
</trkpt>
<trkpt lat="46.0730280" lon="10.4913840">
	<ele>2343.00</ele>
	<time>2023-08-06T11:00:41.000Z</time>
</trkpt>
<trkpt lat="46.0730280" lon="10.4913840">
	<ele>2343.00</ele>
	<time>2023-08-06T11:00:42.000Z</time>
</trkpt>
<trkpt lat="46.0730290" lon="10.4913840">
	<ele>2342.80</ele>
	<time>2023-08-06T11:00:43.000Z</time>
</trkpt>
<trkpt lat="46.0730290" lon="10.4913840">
	<ele>2342.80</ele>
	<time>2023-08-06T11:00:44.000Z</time>
</trkpt>
<trkpt lat="46.0730290" lon="10.4913840">
	<ele>2342.80</ele>
	<time>2023-08-06T11:00:45.000Z</time>
</trkpt>
<trkpt lat="46.0730290" lon="10.4913840">
	<ele>2342.80</ele>
	<time>2023-08-06T11:00:46.000Z</time>
</trkpt>
<trkpt lat="46.0730290" lon="10.4913840">
	<ele>2342.80</ele>
	<time>2023-08-06T11:00:47.000Z</time>
</trkpt>
<trkpt lat="46.0730290" lon="10.4913840">
	<ele>2342.80</ele>
	<time>2023-08-06T11:00:48.000Z</time>
</trkpt>
<trkpt lat="46.0730300" lon="10.4913840">
	<ele>2342.60</ele>
	<time>2023-08-06T11:00:49.000Z</time>
</trkpt>
<trkpt lat="46.0730300" lon="10.4913840">
	<ele>2342.40</ele>
	<time>2023-08-06T11:00:50.000Z</time>
</trkpt>
<trkpt lat="46.0730300" lon="10.4913850">
	<ele>2342.40</ele>
	<time>2023-08-06T11:00:51.000Z</time>
</trkpt>
<trkpt lat="46.0730300" lon="10.4913850">
	<ele>2342.20</ele>
	<time>2023-08-06T11:00:52.000Z</time>
</trkpt>
<trkpt lat="46.0730310" lon="10.4913850">
	<ele>2342.00</ele>
	<time>2023-08-06T11:00:53.000Z</time>
</trkpt>
<trkpt lat="46.0730310" lon="10.4913850">
	<ele>2342.00</ele>
	<time>2023-08-06T11:00:54.000Z</time>
</trkpt>
<trkpt lat="46.0730310" lon="10.4913850">
	<ele>2342.00</ele>
	<time>2023-08-06T11:00:55.000Z</time>
</trkpt>
<trkpt lat="46.0730310" lon="10.4913850">
	<ele>2341.80</ele>
	<time>2023-08-06T11:00:56.000Z</time>
</trkpt>
<trkpt lat="46.0730310" lon="10.4913850">
	<ele>2341.80</ele>
	<time>2023-08-06T11:00:57.000Z</time>
</trkpt>
<trkpt lat="46.0730310" lon="10.4913850">
	<ele>2341.80</ele>
	<time>2023-08-06T11:00:58.000Z</time>
</trkpt>
<trkpt lat="46.0730310" lon="10.4913860">
	<ele>2341.80</ele>
	<time>2023-08-06T11:00:59.000Z</time>
</trkpt>
<trkpt lat="46.0730300" lon="10.4913860">
	<ele>2341.60</ele>
	<time>2023-08-06T11:01:00.000Z</time>
</trkpt>
<trkpt lat="46.0730300" lon="10.4913860">
	<ele>2341.60</ele>
	<time>2023-08-06T11:01:01.000Z</time>
</trkpt>
<trkpt lat="46.0730300" lon="10.4913860">
	<ele>2341.60</ele>
	<time>2023-08-06T11:01:02.000Z</time>
</trkpt>
<trkpt lat="46.0730300" lon="10.4913860">
	<ele>2341.60</ele>
	<time>2023-08-06T11:01:03.000Z</time>
</trkpt>
<trkpt lat="46.0730300" lon="10.4913870">
	<ele>2341.60</ele>
	<time>2023-08-06T11:01:04.000Z</time>
</trkpt>
<trkpt lat="46.0730290" lon="10.4913880">
	<ele>2341.60</ele>
	<time>2023-08-06T11:01:05.000Z</time>
</trkpt>
<trkpt lat="46.0730280" lon="10.4913880">
	<ele>2341.60</ele>
	<time>2023-08-06T11:01:06.000Z</time>
</trkpt>
<trkpt lat="46.0730280" lon="10.4913880">
	<ele>2341.60</ele>
	<time>2023-08-06T11:01:07.000Z</time>
</trkpt>
<trkpt lat="46.0730280" lon="10.4913880">
	<ele>2341.60</ele>
	<time>2023-08-06T11:01:08.000Z</time>
</trkpt>
<trkpt lat="46.0730280" lon="10.4913880">
	<ele>2341.20</ele>
	<time>2023-08-06T11:01:09.000Z</time>
</trkpt>
<trkpt lat="46.0730240" lon="10.4913890">
	<ele>2341.20</ele>
	<time>2023-08-06T11:01:10.000Z</time>
</trkpt>
<trkpt lat="46.0730220" lon="10.4913890">
	<ele>2341.00</ele>
	<time>2023-08-06T11:01:11.000Z</time>
</trkpt>
<trkpt lat="46.0730210" lon="10.4913900">
	<ele>2341.00</ele>
	<time>2023-08-06T11:01:12.000Z</time>
</trkpt>
<trkpt lat="46.0730200" lon="10.4913930">
	<ele>2341.00</ele>
	<time>2023-08-06T11:01:13.000Z</time>
</trkpt>
<trkpt lat="46.0730200" lon="10.4913960">
	<ele>2341.00</ele>
	<time>2023-08-06T11:01:14.000Z</time>
</trkpt>
<trkpt lat="46.0730190" lon="10.4913990">
	<ele>2341.00</ele>
	<time>2023-08-06T11:01:15.000Z</time>
</trkpt>
<trkpt lat="46.0730150" lon="10.4914050">
	<ele>2341.00</ele>
	<time>2023-08-06T11:01:16.000Z</time>
</trkpt>
<trkpt lat="46.0730120" lon="10.4914110">
	<ele>2341.00</ele>
	<time>2023-08-06T11:01:17.000Z</time>
</trkpt>
<trkpt lat="46.0730140" lon="10.4914150">
	<ele>2341.00</ele>
	<time>2023-08-06T11:01:18.000Z</time>
</trkpt>
<trkpt lat="46.0730130" lon="10.4914200">
	<ele>2340.80</ele>
	<time>2023-08-06T11:01:19.000Z</time>
</trkpt>
<trkpt lat="46.0730150" lon="10.4914250">
	<ele>2340.80</ele>
	<time>2023-08-06T11:01:20.000Z</time>
</trkpt>
<trkpt lat="46.0730140" lon="10.4914270">
	<ele>2340.80</ele>
	<time>2023-08-06T11:01:21.000Z</time>
</trkpt>
<trkpt lat="46.0730140" lon="10.4914270">
	<ele>2340.40</ele>
	<time>2023-08-06T11:01:22.000Z</time>
</trkpt>
<trkpt lat="46.0730140" lon="10.4914270">
	<ele>2340.20</ele>
	<time>2023-08-06T11:01:23.000Z</time>
</trkpt>
<trkpt lat="46.0730140" lon="10.4914270">
	<ele>2340.00</ele>
	<time>2023-08-06T11:01:24.000Z</time>
</trkpt>
<trkpt lat="46.0730130" lon="10.4914280">
	<ele>2340.00</ele>
	<time>2023-08-06T11:01:25.000Z</time>
</trkpt>
<trkpt lat="46.0730110" lon="10.4914320">
	<ele>2340.00</ele>
	<time>2023-08-06T11:01:26.000Z</time>
</trkpt>
<trkpt lat="46.0730060" lon="10.4914360">
	<ele>2339.80</ele>
	<time>2023-08-06T11:01:27.000Z</time>
</trkpt>
<trkpt lat="46.0730080" lon="10.4914410">
	<ele>2339.80</ele>
	<time>2023-08-06T11:01:28.000Z</time>
</trkpt>
<trkpt lat="46.0730070" lon="10.4914450">
	<ele>2339.60</ele>
	<time>2023-08-06T11:01:29.000Z</time>
</trkpt>
<trkpt lat="46.0730070" lon="10.4914490">
	<ele>2339.60</ele>
	<time>2023-08-06T11:01:30.000Z</time>
</trkpt>
<trkpt lat="46.0730020" lon="10.4914530">
	<ele>2339.40</ele>
	<time>2023-08-06T11:01:31.000Z</time>
</trkpt>
<trkpt lat="46.0729980" lon="10.4914530">
	<ele>2339.40</ele>
	<time>2023-08-06T11:01:32.000Z</time>
</trkpt>
<trkpt lat="46.0729930" lon="10.4914570">
	<ele>2339.40</ele>
	<time>2023-08-06T11:01:33.000Z</time>
</trkpt>
<trkpt lat="46.0729880" lon="10.4914590">
	<ele>2339.40</ele>
	<time>2023-08-06T11:01:34.000Z</time>
</trkpt>
<trkpt lat="46.0729840" lon="10.4914590">
	<ele>2339.40</ele>
	<time>2023-08-06T11:01:35.000Z</time>
</trkpt>
<trkpt lat="46.0729800" lon="10.4914620">
	<ele>2339.40</ele>
	<time>2023-08-06T11:01:36.000Z</time>
</trkpt>
<trkpt lat="46.0729760" lon="10.4914640">
	<ele>2339.60</ele>
	<time>2023-08-06T11:01:37.000Z</time>
</trkpt>
<trkpt lat="46.0729740" lon="10.4914660">
	<ele>2339.60</ele>
	<time>2023-08-06T11:01:38.000Z</time>
</trkpt>
<trkpt lat="46.0729730" lon="10.4914680">
	<ele>2339.40</ele>
	<time>2023-08-06T11:01:39.000Z</time>
</trkpt>
<trkpt lat="46.0729700" lon="10.4914690">
	<ele>2339.40</ele>
	<time>2023-08-06T11:01:40.000Z</time>
</trkpt>
<trkpt lat="46.0729700" lon="10.4914690">
	<ele>2339.40</ele>
	<time>2023-08-06T11:01:41.000Z</time>
</trkpt>
<trkpt lat="46.0729710" lon="10.4914670">
	<ele>2339.40</ele>
	<time>2023-08-06T11:01:42.000Z</time>
</trkpt>
<trkpt lat="46.0729710" lon="10.4914660">
	<ele>2339.40</ele>
	<time>2023-08-06T11:01:43.000Z</time>
</trkpt>
<trkpt lat="46.0729710" lon="10.4914660">
	<ele>2339.40</ele>
	<time>2023-08-06T11:01:44.000Z</time>
</trkpt>
<trkpt lat="46.0729710" lon="10.4914660">
	<ele>2339.40</ele>
	<time>2023-08-06T11:01:45.000Z</time>
</trkpt>
<trkpt lat="46.0729710" lon="10.4914660">
	<ele>2339.40</ele>
	<time>2023-08-06T11:01:46.000Z</time>
</trkpt>
<trkpt lat="46.0729710" lon="10.4914660">
	<ele>2339.40</ele>
	<time>2023-08-06T11:01:47.000Z</time>
</trkpt>
<trkpt lat="46.0729710" lon="10.4914660">
	<ele>2339.20</ele>
	<time>2023-08-06T11:01:48.000Z</time>
</trkpt>
<trkpt lat="46.0729710" lon="10.4914660">
	<ele>2339.20</ele>
	<time>2023-08-06T11:01:49.000Z</time>
</trkpt>
<trkpt lat="46.0729710" lon="10.4914660">
	<ele>2339.20</ele>
	<time>2023-08-06T11:01:50.000Z</time>
</trkpt>
<trkpt lat="46.0729710" lon="10.4914660">
	<ele>2339.20</ele>
	<time>2023-08-06T11:01:51.000Z</time>
</trkpt>
<trkpt lat="46.0729710" lon="10.4914660">
	<ele>2339.20</ele>
	<time>2023-08-06T11:01:52.000Z</time>
</trkpt>
<trkpt lat="46.0729710" lon="10.4914660">
	<ele>2339.40</ele>
	<time>2023-08-06T11:01:53.000Z</time>
</trkpt>
<trkpt lat="46.0729710" lon="10.4914660">
	<ele>2339.40</ele>
	<time>2023-08-06T11:01:54.000Z</time>
</trkpt>
<trkpt lat="46.0729710" lon="10.4914660">
	<ele>2339.40</ele>
	<time>2023-08-06T11:01:55.000Z</time>
</trkpt>
<trkpt lat="46.0729720" lon="10.4914660">
	<ele>2339.40</ele>
	<time>2023-08-06T11:01:56.000Z</time>
</trkpt>
<trkpt lat="46.0729730" lon="10.4914660">
	<ele>2339.40</ele>
	<time>2023-08-06T11:01:57.000Z</time>
</trkpt>
<trkpt lat="46.0729740" lon="10.4914660">
	<ele>2339.40</ele>
	<time>2023-08-06T11:01:58.000Z</time>
</trkpt>
<trkpt lat="46.0729750" lon="10.4914660">
	<ele>2339.60</ele>
	<time>2023-08-06T11:01:59.000Z</time>
</trkpt>
<trkpt lat="46.0729760" lon="10.4914650">
	<ele>2339.60</ele>
	<time>2023-08-06T11:02:00.000Z</time>
</trkpt>
<trkpt lat="46.0729770" lon="10.4914620">
	<ele>2339.60</ele>
	<time>2023-08-06T11:02:01.000Z</time>
</trkpt>
<trkpt lat="46.0729790" lon="10.4914620">
	<ele>2339.60</ele>
	<time>2023-08-06T11:02:02.000Z</time>
</trkpt>
<trkpt lat="46.0729800" lon="10.4914620">
	<ele>2339.60</ele>
	<time>2023-08-06T11:02:03.000Z</time>
</trkpt>
<trkpt lat="46.0729800" lon="10.4914610">
	<ele>2339.60</ele>
	<time>2023-08-06T11:02:04.000Z</time>
</trkpt>
<trkpt lat="46.0729810" lon="10.4914600">
	<ele>2339.60</ele>
	<time>2023-08-06T11:02:05.000Z</time>
</trkpt>
<trkpt lat="46.0729810" lon="10.4914600">
	<ele>2339.60</ele>
	<time>2023-08-06T11:02:06.000Z</time>
</trkpt>
<trkpt lat="46.0729810" lon="10.4914600">
	<ele>2339.60</ele>
	<time>2023-08-06T11:02:07.000Z</time>
</trkpt>
<trkpt lat="46.0729810" lon="10.4914600">
	<ele>2339.60</ele>
	<time>2023-08-06T11:02:08.000Z</time>
</trkpt>
<trkpt lat="46.0729810" lon="10.4914600">
	<ele>2339.60</ele>
	<time>2023-08-06T11:02:09.000Z</time>
</trkpt>
<trkpt lat="46.0729810" lon="10.4914600">
	<ele>2339.60</ele>
	<time>2023-08-06T11:02:10.000Z</time>
</trkpt>
<trkpt lat="46.0729810" lon="10.4914600">
	<ele>2339.60</ele>
	<time>2023-08-06T11:02:11.000Z</time>
</trkpt>
<trkpt lat="46.0729810" lon="10.4914600">
	<ele>2339.60</ele>
	<time>2023-08-06T11:02:12.000Z</time>
</trkpt>
<trkpt lat="46.0729810" lon="10.4914590">
	<ele>2339.60</ele>
	<time>2023-08-06T11:02:13.000Z</time>
</trkpt>
<trkpt lat="46.0729810" lon="10.4914590">
	<ele>2339.60</ele>
	<time>2023-08-06T11:02:14.000Z</time>
</trkpt>
<trkpt lat="46.0729810" lon="10.4914590">
	<ele>2339.60</ele>
	<time>2023-08-06T11:02:15.000Z</time>
</trkpt>
<trkpt lat="46.0729810" lon="10.4914590">
	<ele>2339.60</ele>
	<time>2023-08-06T11:02:16.000Z</time>
</trkpt>
<trkpt lat="46.0729810" lon="10.4914580">
	<ele>2339.40</ele>
	<time>2023-08-06T11:02:17.000Z</time>
</trkpt>
<trkpt lat="46.0729810" lon="10.4914580">
	<ele>2339.40</ele>
	<time>2023-08-06T11:02:18.000Z</time>
</trkpt>
<trkpt lat="46.0729810" lon="10.4914580">
	<ele>2339.40</ele>
	<time>2023-08-06T11:02:19.000Z</time>
</trkpt>
<trkpt lat="46.0729800" lon="10.4914580">
	<ele>2339.40</ele>
	<time>2023-08-06T11:02:20.000Z</time>
</trkpt>
<trkpt lat="46.0729800" lon="10.4914590">
	<ele>2339.40</ele>
	<time>2023-08-06T11:02:21.000Z</time>
</trkpt>
<trkpt lat="46.0729790" lon="10.4914590">
	<ele>2339.40</ele>
	<time>2023-08-06T11:02:22.000Z</time>
</trkpt>
<trkpt lat="46.0729780" lon="10.4914590">
	<ele>2339.40</ele>
	<time>2023-08-06T11:02:23.000Z</time>
</trkpt>
<trkpt lat="46.0729780" lon="10.4914580">
	<ele>2339.40</ele>
	<time>2023-08-06T11:02:24.000Z</time>
</trkpt>
<trkpt lat="46.0729780" lon="10.4914570">
	<ele>2339.40</ele>
	<time>2023-08-06T11:02:25.000Z</time>
</trkpt>
<trkpt lat="46.0729770" lon="10.4914570">
	<ele>2339.60</ele>
	<time>2023-08-06T11:02:26.000Z</time>
</trkpt>
<trkpt lat="46.0729760" lon="10.4914570">
	<ele>2339.60</ele>
	<time>2023-08-06T11:02:27.000Z</time>
</trkpt>
<trkpt lat="46.0729760" lon="10.4914570">
	<ele>2339.80</ele>
	<time>2023-08-06T11:02:28.000Z</time>
</trkpt>
<trkpt lat="46.0729750" lon="10.4914570">
	<ele>2339.80</ele>
	<time>2023-08-06T11:02:29.000Z</time>
</trkpt>
<trkpt lat="46.0729740" lon="10.4914560">
	<ele>2340.00</ele>
	<time>2023-08-06T11:02:30.000Z</time>
</trkpt>
<trkpt lat="46.0729720" lon="10.4914550">
	<ele>2340.00</ele>
	<time>2023-08-06T11:02:31.000Z</time>
</trkpt>
<trkpt lat="46.0729710" lon="10.4914550">
	<ele>2340.00</ele>
	<time>2023-08-06T11:02:32.000Z</time>
</trkpt>
<trkpt lat="46.0729680" lon="10.4914550">
	<ele>2340.00</ele>
	<time>2023-08-06T11:02:33.000Z</time>
</trkpt>
<trkpt lat="46.0729670" lon="10.4914550">
	<ele>2340.00</ele>
	<time>2023-08-06T11:02:34.000Z</time>
</trkpt>
<trkpt lat="46.0729650" lon="10.4914550">
	<ele>2339.80</ele>
	<time>2023-08-06T11:02:35.000Z</time>
</trkpt>
<trkpt lat="46.0729640" lon="10.4914550">
	<ele>2339.80</ele>
	<time>2023-08-06T11:02:36.000Z</time>
</trkpt>
<trkpt lat="46.0729640" lon="10.4914550">
	<ele>2339.80</ele>
	<time>2023-08-06T11:02:37.000Z</time>
</trkpt>
<trkpt lat="46.0729640" lon="10.4914550">
	<ele>2339.80</ele>
	<time>2023-08-06T11:02:38.000Z</time>
</trkpt>
<trkpt lat="46.0729620" lon="10.4914550">
	<ele>2339.80</ele>
	<time>2023-08-06T11:02:39.000Z</time>
</trkpt>
<trkpt lat="46.0729620" lon="10.4914560">
	<ele>2339.60</ele>
	<time>2023-08-06T11:02:40.000Z</time>
</trkpt>
<trkpt lat="46.0729620" lon="10.4914560">
	<ele>2339.80</ele>
	<time>2023-08-06T11:02:41.000Z</time>
</trkpt>
<trkpt lat="46.0729610" lon="10.4914560">
	<ele>2340.00</ele>
	<time>2023-08-06T11:02:42.000Z</time>
</trkpt>
<trkpt lat="46.0729610" lon="10.4914570">
	<ele>2340.00</ele>
	<time>2023-08-06T11:02:43.000Z</time>
</trkpt>
<trkpt lat="46.0729610" lon="10.4914570">
	<ele>2340.20</ele>
	<time>2023-08-06T11:02:44.000Z</time>
</trkpt>
<trkpt lat="46.0729610" lon="10.4914570">
	<ele>2340.40</ele>
	<time>2023-08-06T11:02:45.000Z</time>
</trkpt>
<trkpt lat="46.0729610" lon="10.4914570">
	<ele>2340.40</ele>
	<time>2023-08-06T11:02:46.000Z</time>
</trkpt>
<trkpt lat="46.0729610" lon="10.4914570">
	<ele>2340.40</ele>
	<time>2023-08-06T11:02:47.000Z</time>
</trkpt>
<trkpt lat="46.0729610" lon="10.4914570">
	<ele>2340.40</ele>
	<time>2023-08-06T11:02:48.000Z</time>
</trkpt>
<trkpt lat="46.0729610" lon="10.4914570">
	<ele>2340.40</ele>
	<time>2023-08-06T11:02:49.000Z</time>
</trkpt>
<trkpt lat="46.0729620" lon="10.4914570">
	<ele>2340.40</ele>
	<time>2023-08-06T11:02:50.000Z</time>
</trkpt>
<trkpt lat="46.0729630" lon="10.4914570">
	<ele>2340.40</ele>
	<time>2023-08-06T11:02:51.000Z</time>
</trkpt>
<trkpt lat="46.0729640" lon="10.4914570">
	<ele>2340.60</ele>
	<time>2023-08-06T11:02:52.000Z</time>
</trkpt>
<trkpt lat="46.0729640" lon="10.4914560">
	<ele>2340.60</ele>
	<time>2023-08-06T11:02:53.000Z</time>
</trkpt>
<trkpt lat="46.0729650" lon="10.4914560">
	<ele>2340.60</ele>
	<time>2023-08-06T11:02:54.000Z</time>
</trkpt>
<trkpt lat="46.0729670" lon="10.4914560">
	<ele>2340.60</ele>
	<time>2023-08-06T11:02:55.000Z</time>
</trkpt>
<trkpt lat="46.0729700" lon="10.4914560">
	<ele>2340.60</ele>
	<time>2023-08-06T11:02:56.000Z</time>
</trkpt>
<trkpt lat="46.0729710" lon="10.4914560">
	<ele>2340.60</ele>
	<time>2023-08-06T11:02:57.000Z</time>
</trkpt>
<trkpt lat="46.0729720" lon="10.4914560">
	<ele>2340.60</ele>
	<time>2023-08-06T11:02:58.000Z</time>
</trkpt>
<trkpt lat="46.0729720" lon="10.4914560">
	<ele>2340.60</ele>
	<time>2023-08-06T11:02:59.000Z</time>
</trkpt>
<trkpt lat="46.0729720" lon="10.4914560">
	<ele>2340.60</ele>
	<time>2023-08-06T11:03:00.000Z</time>
</trkpt>
<trkpt lat="46.0729720" lon="10.4914560">
	<ele>2340.60</ele>
	<time>2023-08-06T11:03:01.000Z</time>
</trkpt>
<trkpt lat="46.0729760" lon="10.4914560">
	<ele>2340.60</ele>
	<time>2023-08-06T11:03:02.000Z</time>
</trkpt>
<trkpt lat="46.0729780" lon="10.4914550">
	<ele>2340.60</ele>
	<time>2023-08-06T11:03:03.000Z</time>
</trkpt>
<trkpt lat="46.0729790" lon="10.4914550">
	<ele>2340.60</ele>
	<time>2023-08-06T11:03:04.000Z</time>
</trkpt>
<trkpt lat="46.0729810" lon="10.4914540">
	<ele>2340.60</ele>
	<time>2023-08-06T11:03:05.000Z</time>
</trkpt>
<trkpt lat="46.0729830" lon="10.4914530">
	<ele>2340.40</ele>
	<time>2023-08-06T11:03:06.000Z</time>
</trkpt>
<trkpt lat="46.0729850" lon="10.4914490">
	<ele>2340.40</ele>
	<time>2023-08-06T11:03:07.000Z</time>
</trkpt>
<trkpt lat="46.0729890" lon="10.4914480">
	<ele>2340.40</ele>
	<time>2023-08-06T11:03:08.000Z</time>
</trkpt>
<trkpt lat="46.0729910" lon="10.4914470">
	<ele>2340.40</ele>
	<time>2023-08-06T11:03:09.000Z</time>
</trkpt>
<trkpt lat="46.0729920" lon="10.4914460">
	<ele>2340.20</ele>
	<time>2023-08-06T11:03:10.000Z</time>
</trkpt>
<trkpt lat="46.0729930" lon="10.4914460">
	<ele>2340.20</ele>
	<time>2023-08-06T11:03:11.000Z</time>
</trkpt>
<trkpt lat="46.0729930" lon="10.4914460">
	<ele>2340.40</ele>
	<time>2023-08-06T11:03:12.000Z</time>
</trkpt>
<trkpt lat="46.0729940" lon="10.4914460">
	<ele>2340.40</ele>
	<time>2023-08-06T11:03:13.000Z</time>
</trkpt>
<trkpt lat="46.0729940" lon="10.4914460">
	<ele>2340.40</ele>
	<time>2023-08-06T11:03:14.000Z</time>
</trkpt>
<trkpt lat="46.0729950" lon="10.4914450">
	<ele>2340.40</ele>
	<time>2023-08-06T11:03:15.000Z</time>
</trkpt>
<trkpt lat="46.0729950" lon="10.4914450">
	<ele>2340.60</ele>
	<time>2023-08-06T11:03:16.000Z</time>
</trkpt>
<trkpt lat="46.0729970" lon="10.4914450">
	<ele>2340.60</ele>
	<time>2023-08-06T11:03:17.000Z</time>
</trkpt>
<trkpt lat="46.0729980" lon="10.4914440">
	<ele>2340.80</ele>
	<time>2023-08-06T11:03:18.000Z</time>
</trkpt>
<trkpt lat="46.0729980" lon="10.4914440">
	<ele>2340.80</ele>
	<time>2023-08-06T11:03:19.000Z</time>
</trkpt>
<trkpt lat="46.0729990" lon="10.4914440">
	<ele>2340.80</ele>
	<time>2023-08-06T11:03:20.000Z</time>
</trkpt>
<trkpt lat="46.0729990" lon="10.4914440">
	<ele>2341.00</ele>
	<time>2023-08-06T11:03:21.000Z</time>
</trkpt>
<trkpt lat="46.0729990" lon="10.4914430">
	<ele>2341.00</ele>
	<time>2023-08-06T11:03:22.000Z</time>
</trkpt>
<trkpt lat="46.0730000" lon="10.4914430">
	<ele>2341.00</ele>
	<time>2023-08-06T11:03:23.000Z</time>
</trkpt>
<trkpt lat="46.0730000" lon="10.4914430">
	<ele>2341.00</ele>
	<time>2023-08-06T11:03:24.000Z</time>
</trkpt>
<trkpt lat="46.0730000" lon="10.4914430">
	<ele>2341.00</ele>
	<time>2023-08-06T11:03:25.000Z</time>
</trkpt>
<trkpt lat="46.0730000" lon="10.4914430">
	<ele>2341.00</ele>
	<time>2023-08-06T11:03:26.000Z</time>
</trkpt>
<trkpt lat="46.0730000" lon="10.4914430">
	<ele>2341.00</ele>
	<time>2023-08-06T11:03:27.000Z</time>
</trkpt>
<trkpt lat="46.0729990" lon="10.4914430">
	<ele>2341.00</ele>
	<time>2023-08-06T11:03:28.000Z</time>
</trkpt>
<trkpt lat="46.0729990" lon="10.4914430">
	<ele>2340.60</ele>
	<time>2023-08-06T11:03:29.000Z</time>
</trkpt>
<trkpt lat="46.0729990" lon="10.4914430">
	<ele>2340.40</ele>
	<time>2023-08-06T11:03:30.000Z</time>
</trkpt>
<trkpt lat="46.0729990" lon="10.4914430">
	<ele>2340.20</ele>
	<time>2023-08-06T11:03:31.000Z</time>
</trkpt>
<trkpt lat="46.0729990" lon="10.4914430">
	<ele>2340.00</ele>
	<time>2023-08-06T11:03:32.000Z</time>
</trkpt>
<trkpt lat="46.0729990" lon="10.4914420">
	<ele>2340.00</ele>
	<time>2023-08-06T11:03:33.000Z</time>
</trkpt>
<trkpt lat="46.0729990" lon="10.4914420">
	<ele>2339.80</ele>
	<time>2023-08-06T11:03:34.000Z</time>
</trkpt>
<trkpt lat="46.0729990" lon="10.4914420">
	<ele>2339.80</ele>
	<time>2023-08-06T11:03:35.000Z</time>
</trkpt>
<trkpt lat="46.0729990" lon="10.4914420">
	<ele>2340.00</ele>
	<time>2023-08-06T11:03:36.000Z</time>
</trkpt>
<trkpt lat="46.0729990" lon="10.4914420">
	<ele>2340.00</ele>
	<time>2023-08-06T11:03:37.000Z</time>
</trkpt>
<trkpt lat="46.0730000" lon="10.4914420">
	<ele>2339.80</ele>
	<time>2023-08-06T11:03:38.000Z</time>
</trkpt>
<trkpt lat="46.0730000" lon="10.4914410">
	<ele>2339.80</ele>
	<time>2023-08-06T11:03:39.000Z</time>
</trkpt>
<trkpt lat="46.0730000" lon="10.4914410">
	<ele>2339.80</ele>
	<time>2023-08-06T11:03:40.000Z</time>
</trkpt>
<trkpt lat="46.0730000" lon="10.4914410">
	<ele>2339.80</ele>
	<time>2023-08-06T11:03:41.000Z</time>
</trkpt>
<trkpt lat="46.0730000" lon="10.4914410">
	<ele>2339.80</ele>
	<time>2023-08-06T11:03:42.000Z</time>
</trkpt>
<trkpt lat="46.0730000" lon="10.4914390">
	<ele>2339.60</ele>
	<time>2023-08-06T11:03:43.000Z</time>
</trkpt>
<trkpt lat="46.0730000" lon="10.4914380">
	<ele>2339.60</ele>
	<time>2023-08-06T11:03:44.000Z</time>
</trkpt>
<trkpt lat="46.0730000" lon="10.4914380">
	<ele>2339.60</ele>
	<time>2023-08-06T11:03:45.000Z</time>
</trkpt>
<trkpt lat="46.0730000" lon="10.4914360">
	<ele>2339.60</ele>
	<time>2023-08-06T11:03:46.000Z</time>
</trkpt>
<trkpt lat="46.0729990" lon="10.4914350">
	<ele>2339.60</ele>
	<time>2023-08-06T11:03:47.000Z</time>
</trkpt>
<trkpt lat="46.0729990" lon="10.4914340">
	<ele>2339.60</ele>
	<time>2023-08-06T11:03:48.000Z</time>
</trkpt>
<trkpt lat="46.0729990" lon="10.4914330">
	<ele>2339.60</ele>
	<time>2023-08-06T11:03:49.000Z</time>
</trkpt>
<trkpt lat="46.0729990" lon="10.4914330">
	<ele>2339.60</ele>
	<time>2023-08-06T11:03:50.000Z</time>
</trkpt>
<trkpt lat="46.0729990" lon="10.4914330">
	<ele>2339.60</ele>
	<time>2023-08-06T11:03:51.000Z</time>
</trkpt>
<trkpt lat="46.0729990" lon="10.4914320">
	<ele>2339.80</ele>
	<time>2023-08-06T11:03:52.000Z</time>
</trkpt>
<trkpt lat="46.0729990" lon="10.4914320">
	<ele>2339.80</ele>
	<time>2023-08-06T11:03:53.000Z</time>
</trkpt>
<trkpt lat="46.0729990" lon="10.4914320">
	<ele>2340.00</ele>
	<time>2023-08-06T11:03:54.000Z</time>
</trkpt>
<trkpt lat="46.0729990" lon="10.4914320">
	<ele>2340.00</ele>
	<time>2023-08-06T11:03:55.000Z</time>
</trkpt>
<trkpt lat="46.0729990" lon="10.4914320">
	<ele>2340.20</ele>
	<time>2023-08-06T11:03:56.000Z</time>
</trkpt>
<trkpt lat="46.0729990" lon="10.4914320">
	<ele>2340.20</ele>
	<time>2023-08-06T11:03:57.000Z</time>
</trkpt>
<trkpt lat="46.0729990" lon="10.4914320">
	<ele>2340.20</ele>
	<time>2023-08-06T11:03:58.000Z</time>
</trkpt>
<trkpt lat="46.0730000" lon="10.4914320">
	<ele>2340.20</ele>
	<time>2023-08-06T11:03:59.000Z</time>
</trkpt>
<trkpt lat="46.0730000" lon="10.4914320">
	<ele>2340.20</ele>
	<time>2023-08-06T11:04:00.000Z</time>
</trkpt>
<trkpt lat="46.0730000" lon="10.4914320">
	<ele>2340.20</ele>
	<time>2023-08-06T11:04:01.000Z</time>
</trkpt>
<trkpt lat="46.0730000" lon="10.4914310">
	<ele>2340.20</ele>
	<time>2023-08-06T11:04:02.000Z</time>
</trkpt>
<trkpt lat="46.0730000" lon="10.4914310">
	<ele>2340.40</ele>
	<time>2023-08-06T11:04:03.000Z</time>
</trkpt>
<trkpt lat="46.0730000" lon="10.4914310">
	<ele>2340.40</ele>
	<time>2023-08-06T11:04:04.000Z</time>
</trkpt>
<trkpt lat="46.0730000" lon="10.4914310">
	<ele>2340.40</ele>
	<time>2023-08-06T11:04:05.000Z</time>
</trkpt>
<trkpt lat="46.0730000" lon="10.4914310">
	<ele>2340.40</ele>
	<time>2023-08-06T11:04:06.000Z</time>
</trkpt>
<trkpt lat="46.0730040" lon="10.4914290">
	<ele>2340.40</ele>
	<time>2023-08-06T11:04:07.000Z</time>
</trkpt>
<trkpt lat="46.0730140" lon="10.4914270">
	<ele>2340.20</ele>
	<time>2023-08-06T11:04:08.000Z</time>
</trkpt>
<trkpt lat="46.0730220" lon="10.4914260">
	<ele>2340.00</ele>
	<time>2023-08-06T11:04:09.000Z</time>
</trkpt>
<trkpt lat="46.0730270" lon="10.4914240">
	<ele>2339.80</ele>
	<time>2023-08-06T11:04:10.000Z</time>
</trkpt>
<trkpt lat="46.0730330" lon="10.4914200">
	<ele>2339.80</ele>
	<time>2023-08-06T11:04:11.000Z</time>
</trkpt>
<trkpt lat="46.0730400" lon="10.4914160">
	<ele>2339.80</ele>
	<time>2023-08-06T11:04:12.000Z</time>
</trkpt>
<trkpt lat="46.0730460" lon="10.4914130">
	<ele>2339.60</ele>
	<time>2023-08-06T11:04:13.000Z</time>
</trkpt>
<trkpt lat="46.0730540" lon="10.4914090">
	<ele>2339.40</ele>
	<time>2023-08-06T11:04:14.000Z</time>
</trkpt>
<trkpt lat="46.0730640" lon="10.4914080">
	<ele>2339.40</ele>
	<time>2023-08-06T11:04:15.000Z</time>
</trkpt>
<trkpt lat="46.0730790" lon="10.4914070">
	<ele>2339.20</ele>
	<time>2023-08-06T11:04:16.000Z</time>
</trkpt>
<trkpt lat="46.0730830" lon="10.4914070">
	<ele>2338.80</ele>
	<time>2023-08-06T11:04:17.000Z</time>
</trkpt>
<trkpt lat="46.0730890" lon="10.4914060">
	<ele>2338.60</ele>
	<time>2023-08-06T11:04:18.000Z</time>
</trkpt>
<trkpt lat="46.0730910" lon="10.4914080">
	<ele>2338.40</ele>
	<time>2023-08-06T11:04:19.000Z</time>
</trkpt>
<trkpt lat="46.0730920" lon="10.4914090">
	<ele>2338.40</ele>
	<time>2023-08-06T11:04:20.000Z</time>
</trkpt>
<trkpt lat="46.0730940" lon="10.4914110">
	<ele>2338.40</ele>
	<time>2023-08-06T11:04:21.000Z</time>
</trkpt>
<trkpt lat="46.0730950" lon="10.4914110">
	<ele>2338.40</ele>
	<time>2023-08-06T11:04:22.000Z</time>
</trkpt>
<trkpt lat="46.0730980" lon="10.4914090">
	<ele>2338.20</ele>
	<time>2023-08-06T11:04:23.000Z</time>
</trkpt>
<trkpt lat="46.0731040" lon="10.4914090">
	<ele>2337.80</ele>
	<time>2023-08-06T11:04:24.000Z</time>
</trkpt>
<trkpt lat="46.0731080" lon="10.4914080">
	<ele>2337.60</ele>
	<time>2023-08-06T11:04:25.000Z</time>
</trkpt>
<trkpt lat="46.0731150" lon="10.4914060">
	<ele>2337.40</ele>
	<time>2023-08-06T11:04:26.000Z</time>
</trkpt>
<trkpt lat="46.0731180" lon="10.4914060">
	<ele>2337.20</ele>
	<time>2023-08-06T11:04:27.000Z</time>
</trkpt>
<trkpt lat="46.0731190" lon="10.4914070">
	<ele>2337.20</ele>
	<time>2023-08-06T11:04:28.000Z</time>
</trkpt>
<trkpt lat="46.0731190" lon="10.4914080">
	<ele>2337.20</ele>
	<time>2023-08-06T11:04:29.000Z</time>
</trkpt>
<trkpt lat="46.0731190" lon="10.4914070">
	<ele>2337.00</ele>
	<time>2023-08-06T11:04:30.000Z</time>
</trkpt>
<trkpt lat="46.0731200" lon="10.4914050">
	<ele>2336.80</ele>
	<time>2023-08-06T11:04:31.000Z</time>
</trkpt>
<trkpt lat="46.0731240" lon="10.4914040">
	<ele>2336.80</ele>
	<time>2023-08-06T11:04:32.000Z</time>
</trkpt>
<trkpt lat="46.0731240" lon="10.4914040">
	<ele>2336.40</ele>
	<time>2023-08-06T11:04:33.000Z</time>
</trkpt>
<trkpt lat="46.0731220" lon="10.4914040">
	<ele>2336.00</ele>
	<time>2023-08-06T11:04:34.000Z</time>
</trkpt>
<trkpt lat="46.0731220" lon="10.4914010">
	<ele>2336.00</ele>
	<time>2023-08-06T11:04:35.000Z</time>
</trkpt>
<trkpt lat="46.0731230" lon="10.4913990">
	<ele>2335.80</ele>
	<time>2023-08-06T11:04:36.000Z</time>
</trkpt>
<trkpt lat="46.0731240" lon="10.4913980">
	<ele>2335.80</ele>
	<time>2023-08-06T11:04:37.000Z</time>
</trkpt>
<trkpt lat="46.0731250" lon="10.4913950">
	<ele>2335.60</ele>
	<time>2023-08-06T11:04:38.000Z</time>
</trkpt>
<trkpt lat="46.0731270" lon="10.4913880">
	<ele>2335.40</ele>
	<time>2023-08-06T11:04:39.000Z</time>
</trkpt>
<trkpt lat="46.0731290" lon="10.4913830">
	<ele>2335.20</ele>
	<time>2023-08-06T11:04:40.000Z</time>
</trkpt>
<trkpt lat="46.0731280" lon="10.4913790">
	<ele>2335.00</ele>
	<time>2023-08-06T11:04:41.000Z</time>
</trkpt>
<trkpt lat="46.0731310" lon="10.4913740">
	<ele>2334.60</ele>
	<time>2023-08-06T11:04:42.000Z</time>
</trkpt>
<trkpt lat="46.0731340" lon="10.4913680">
	<ele>2334.40</ele>
	<time>2023-08-06T11:04:43.000Z</time>
</trkpt>
<trkpt lat="46.0731350" lon="10.4913620">
	<ele>2334.20</ele>
	<time>2023-08-06T11:04:44.000Z</time>
</trkpt>
<trkpt lat="46.0731340" lon="10.4913560">
	<ele>2334.00</ele>
	<time>2023-08-06T11:04:45.000Z</time>
</trkpt>
<trkpt lat="46.0731280" lon="10.4913510">
	<ele>2334.00</ele>
	<time>2023-08-06T11:04:46.000Z</time>
</trkpt>
<trkpt lat="46.0731280" lon="10.4913470">
	<ele>2333.80</ele>
	<time>2023-08-06T11:04:47.000Z</time>
</trkpt>
<trkpt lat="46.0731300" lon="10.4913470">
	<ele>2333.60</ele>
	<time>2023-08-06T11:04:48.000Z</time>
</trkpt>
<trkpt lat="46.0731300" lon="10.4913500">
	<ele>2333.40</ele>
	<time>2023-08-06T11:04:49.000Z</time>
</trkpt>
<trkpt lat="46.0731350" lon="10.4913590">
	<ele>2333.20</ele>
	<time>2023-08-06T11:04:50.000Z</time>
</trkpt>
<trkpt lat="46.0731370" lon="10.4913650">
	<ele>2332.80</ele>
	<time>2023-08-06T11:04:51.000Z</time>
</trkpt>
<trkpt lat="46.0731440" lon="10.4913750">
	<ele>2332.60</ele>
	<time>2023-08-06T11:04:52.000Z</time>
</trkpt>
<trkpt lat="46.0731460" lon="10.4913800">
	<ele>2332.40</ele>
	<time>2023-08-06T11:04:53.000Z</time>
</trkpt>
<trkpt lat="46.0731510" lon="10.4913830">
	<ele>2332.20</ele>
	<time>2023-08-06T11:04:54.000Z</time>
</trkpt>
<trkpt lat="46.0731540" lon="10.4913830">
	<ele>2332.00</ele>
	<time>2023-08-06T11:04:55.000Z</time>
</trkpt>
<trkpt lat="46.0731590" lon="10.4913840">
	<ele>2331.80</ele>
	<time>2023-08-06T11:04:56.000Z</time>
</trkpt>
<trkpt lat="46.0731620" lon="10.4913850">
	<ele>2331.80</ele>
	<time>2023-08-06T11:04:57.000Z</time>
</trkpt>
<trkpt lat="46.0731620" lon="10.4913870">
	<ele>2331.60</ele>
	<time>2023-08-06T11:04:58.000Z</time>
</trkpt>
<trkpt lat="46.0731630" lon="10.4913870">
	<ele>2331.60</ele>
	<time>2023-08-06T11:04:59.000Z</time>
</trkpt>
<trkpt lat="46.0731630" lon="10.4913870">
	<ele>2331.40</ele>
	<time>2023-08-06T11:05:00.000Z</time>
</trkpt>
<trkpt lat="46.0731630" lon="10.4913870">
	<ele>2331.40</ele>
	<time>2023-08-06T11:05:01.000Z</time>
</trkpt>
<trkpt lat="46.0731630" lon="10.4913870">
	<ele>2331.40</ele>
	<time>2023-08-06T11:05:02.000Z</time>
</trkpt>
<trkpt lat="46.0731630" lon="10.4913870">
	<ele>2331.00</ele>
	<time>2023-08-06T11:05:03.000Z</time>
</trkpt>
<trkpt lat="46.0731630" lon="10.4913870">
	<ele>2330.80</ele>
	<time>2023-08-06T11:05:04.000Z</time>
</trkpt>
<trkpt lat="46.0731630" lon="10.4913870">
	<ele>2330.40</ele>
	<time>2023-08-06T11:05:05.000Z</time>
</trkpt>
<trkpt lat="46.0731630" lon="10.4913870">
	<ele>2330.20</ele>
	<time>2023-08-06T11:05:06.000Z</time>
</trkpt>
<trkpt lat="46.0731630" lon="10.4913870">
	<ele>2330.20</ele>
	<time>2023-08-06T11:05:07.000Z</time>
</trkpt>
<trkpt lat="46.0731630" lon="10.4913860">
	<ele>2330.00</ele>
	<time>2023-08-06T11:05:08.000Z</time>
</trkpt>
<trkpt lat="46.0731630" lon="10.4913850">
	<ele>2329.80</ele>
	<time>2023-08-06T11:05:09.000Z</time>
</trkpt>
<trkpt lat="46.0731630" lon="10.4913840">
	<ele>2329.60</ele>
	<time>2023-08-06T11:05:10.000Z</time>
</trkpt>
<trkpt lat="46.0731630" lon="10.4913840">
	<ele>2329.40</ele>
	<time>2023-08-06T11:05:11.000Z</time>
</trkpt>
<trkpt lat="46.0731630" lon="10.4913830">
	<ele>2329.20</ele>
	<time>2023-08-06T11:05:12.000Z</time>
</trkpt>
<trkpt lat="46.0731630" lon="10.4913830">
	<ele>2329.00</ele>
	<time>2023-08-06T11:05:13.000Z</time>
</trkpt>
<trkpt lat="46.0731630" lon="10.4913810">
	<ele>2328.60</ele>
	<time>2023-08-06T11:05:14.000Z</time>
</trkpt>
<trkpt lat="46.0731630" lon="10.4913800">
	<ele>2328.40</ele>
	<time>2023-08-06T11:05:15.000Z</time>
</trkpt>
<trkpt lat="46.0731650" lon="10.4913780">
	<ele>2328.20</ele>
	<time>2023-08-06T11:05:16.000Z</time>
</trkpt>
<trkpt lat="46.0731670" lon="10.4913750">
	<ele>2328.00</ele>
	<time>2023-08-06T11:05:17.000Z</time>
</trkpt>
<trkpt lat="46.0731680" lon="10.4913730">
	<ele>2327.80</ele>
	<time>2023-08-06T11:05:18.000Z</time>
</trkpt>
<trkpt lat="46.0731700" lon="10.4913710">
	<ele>2327.80</ele>
	<time>2023-08-06T11:05:19.000Z</time>
</trkpt>
<trkpt lat="46.0731740" lon="10.4913690">
	<ele>2327.60</ele>
	<time>2023-08-06T11:05:20.000Z</time>
</trkpt>
<trkpt lat="46.0731750" lon="10.4913700">
	<ele>2327.40</ele>
	<time>2023-08-06T11:05:21.000Z</time>
</trkpt>
<trkpt lat="46.0731750" lon="10.4913700">
	<ele>2327.40</ele>
	<time>2023-08-06T11:05:22.000Z</time>
</trkpt>
<trkpt lat="46.0731760" lon="10.4913700">
	<ele>2327.00</ele>
	<time>2023-08-06T11:05:23.000Z</time>
</trkpt>
<trkpt lat="46.0731760" lon="10.4913700">
	<ele>2326.80</ele>
	<time>2023-08-06T11:05:24.000Z</time>
</trkpt>
<trkpt lat="46.0731780" lon="10.4913690">
	<ele>2326.60</ele>
	<time>2023-08-06T11:05:25.000Z</time>
</trkpt>
<trkpt lat="46.0731790" lon="10.4913680">
	<ele>2326.20</ele>
	<time>2023-08-06T11:05:26.000Z</time>
</trkpt>
<trkpt lat="46.0731830" lon="10.4913660">
	<ele>2326.00</ele>
	<time>2023-08-06T11:05:27.000Z</time>
</trkpt>
<trkpt lat="46.0731930" lon="10.4913640">
	<ele>2325.80</ele>
	<time>2023-08-06T11:05:28.000Z</time>
</trkpt>
<trkpt lat="46.0732020" lon="10.4913610">
	<ele>2325.60</ele>
	<time>2023-08-06T11:05:29.000Z</time>
</trkpt>
<trkpt lat="46.0732130" lon="10.4913570">
	<ele>2325.40</ele>
	<time>2023-08-06T11:05:30.000Z</time>
</trkpt>
<trkpt lat="46.0732230" lon="10.4913550">
	<ele>2325.20</ele>
	<time>2023-08-06T11:05:31.000Z</time>
</trkpt>
<trkpt lat="46.0732360" lon="10.4913520">
	<ele>2324.80</ele>
	<time>2023-08-06T11:05:32.000Z</time>
</trkpt>
<trkpt lat="46.0732440" lon="10.4913500">
	<ele>2324.40</ele>
	<time>2023-08-06T11:05:33.000Z</time>
</trkpt>
<trkpt lat="46.0732510" lon="10.4913500">
	<ele>2324.20</ele>
	<time>2023-08-06T11:05:34.000Z</time>
</trkpt>
<trkpt lat="46.0732610" lon="10.4913490">
	<ele>2324.00</ele>
	<time>2023-08-06T11:05:35.000Z</time>
</trkpt>
<trkpt lat="46.0732690" lon="10.4913450">
	<ele>2323.80</ele>
	<time>2023-08-06T11:05:36.000Z</time>
</trkpt>
<trkpt lat="46.0732740" lon="10.4913460">
	<ele>2323.60</ele>
	<time>2023-08-06T11:05:37.000Z</time>
</trkpt>
<trkpt lat="46.0732800" lon="10.4913440">
	<ele>2323.60</ele>
	<time>2023-08-06T11:05:38.000Z</time>
</trkpt>
<trkpt lat="46.0732880" lon="10.4913370">
	<ele>2323.40</ele>
	<time>2023-08-06T11:05:39.000Z</time>
</trkpt>
<trkpt lat="46.0732930" lon="10.4913350">
	<ele>2323.40</ele>
	<time>2023-08-06T11:05:40.000Z</time>
</trkpt>
<trkpt lat="46.0732980" lon="10.4913290">
	<ele>2323.20</ele>
	<time>2023-08-06T11:05:41.000Z</time>
</trkpt>
<trkpt lat="46.0733020" lon="10.4913260">
	<ele>2323.20</ele>
	<time>2023-08-06T11:05:42.000Z</time>
</trkpt>
<trkpt lat="46.0733060" lon="10.4913210">
	<ele>2323.00</ele>
	<time>2023-08-06T11:05:43.000Z</time>
</trkpt>
<trkpt lat="46.0733120" lon="10.4913170">
	<ele>2323.00</ele>
	<time>2023-08-06T11:05:44.000Z</time>
</trkpt>
<trkpt lat="46.0733170" lon="10.4913150">
	<ele>2323.00</ele>
	<time>2023-08-06T11:05:45.000Z</time>
</trkpt>
<trkpt lat="46.0733210" lon="10.4913160">
	<ele>2322.80</ele>
	<time>2023-08-06T11:05:46.000Z</time>
</trkpt>
<trkpt lat="46.0733250" lon="10.4913160">
	<ele>2322.60</ele>
	<time>2023-08-06T11:05:47.000Z</time>
</trkpt>
<trkpt lat="46.0733300" lon="10.4913130">
	<ele>2322.60</ele>
	<time>2023-08-06T11:05:48.000Z</time>
</trkpt>
<trkpt lat="46.0733340" lon="10.4913100">
	<ele>2322.40</ele>
	<time>2023-08-06T11:05:49.000Z</time>
</trkpt>
<trkpt lat="46.0733380" lon="10.4913090">
	<ele>2322.40</ele>
	<time>2023-08-06T11:05:50.000Z</time>
</trkpt>
<trkpt lat="46.0733430" lon="10.4913090">
	<ele>2322.00</ele>
	<time>2023-08-06T11:05:51.000Z</time>
</trkpt>
<trkpt lat="46.0733470" lon="10.4913060">
	<ele>2321.80</ele>
	<time>2023-08-06T11:05:52.000Z</time>
</trkpt>
<trkpt lat="46.0733510" lon="10.4913070">
	<ele>2321.60</ele>
	<time>2023-08-06T11:05:53.000Z</time>
</trkpt>
<trkpt lat="46.0733550" lon="10.4913100">
	<ele>2321.40</ele>
	<time>2023-08-06T11:05:54.000Z</time>
</trkpt>
<trkpt lat="46.0733600" lon="10.4913130">
	<ele>2321.40</ele>
	<time>2023-08-06T11:05:55.000Z</time>
</trkpt>
<trkpt lat="46.0733640" lon="10.4913160">
	<ele>2321.00</ele>
	<time>2023-08-06T11:05:56.000Z</time>
</trkpt>
<trkpt lat="46.0733670" lon="10.4913190">
	<ele>2320.80</ele>
	<time>2023-08-06T11:05:57.000Z</time>
</trkpt>
<trkpt lat="46.0733700" lon="10.4913240">
	<ele>2320.60</ele>
	<time>2023-08-06T11:05:58.000Z</time>
</trkpt>
<trkpt lat="46.0733710" lon="10.4913240">
	<ele>2320.40</ele>
	<time>2023-08-06T11:05:59.000Z</time>
</trkpt>
<trkpt lat="46.0733730" lon="10.4913240">
	<ele>2320.40</ele>
	<time>2023-08-06T11:06:00.000Z</time>
</trkpt>
<trkpt lat="46.0733740" lon="10.4913230">
	<ele>2320.20</ele>
	<time>2023-08-06T11:06:01.000Z</time>
</trkpt>
<trkpt lat="46.0733750" lon="10.4913210">
	<ele>2320.00</ele>
	<time>2023-08-06T11:06:02.000Z</time>
</trkpt>
<trkpt lat="46.0733720" lon="10.4913160">
	<ele>2319.80</ele>
	<time>2023-08-06T11:06:03.000Z</time>
</trkpt>
<trkpt lat="46.0733740" lon="10.4913120">
	<ele>2319.80</ele>
	<time>2023-08-06T11:06:04.000Z</time>
</trkpt>
<trkpt lat="46.0733740" lon="10.4913120">
	<ele>2319.40</ele>
	<time>2023-08-06T11:06:05.000Z</time>
</trkpt>
<trkpt lat="46.0733750" lon="10.4913110">
	<ele>2319.20</ele>
	<time>2023-08-06T11:06:06.000Z</time>
</trkpt>
<trkpt lat="46.0733750" lon="10.4913110">
	<ele>2319.00</ele>
	<time>2023-08-06T11:06:07.000Z</time>
</trkpt>
<trkpt lat="46.0733750" lon="10.4913110">
	<ele>2319.00</ele>
	<time>2023-08-06T11:06:08.000Z</time>
</trkpt>
<trkpt lat="46.0733750" lon="10.4913110">
	<ele>2318.80</ele>
	<time>2023-08-06T11:06:09.000Z</time>
</trkpt>
<trkpt lat="46.0733750" lon="10.4913110">
	<ele>2318.80</ele>
	<time>2023-08-06T11:06:10.000Z</time>
</trkpt>
<trkpt lat="46.0733750" lon="10.4913110">
	<ele>2318.60</ele>
	<time>2023-08-06T11:06:11.000Z</time>
</trkpt>
<trkpt lat="46.0733750" lon="10.4913110">
	<ele>2318.40</ele>
	<time>2023-08-06T11:06:12.000Z</time>
</trkpt>
<trkpt lat="46.0733750" lon="10.4913110">
	<ele>2318.20</ele>
	<time>2023-08-06T11:06:13.000Z</time>
</trkpt>
<trkpt lat="46.0733750" lon="10.4913110">
	<ele>2318.20</ele>
	<time>2023-08-06T11:06:14.000Z</time>
</trkpt>
<trkpt lat="46.0733750" lon="10.4913110">
	<ele>2317.80</ele>
	<time>2023-08-06T11:06:15.000Z</time>
</trkpt>
<trkpt lat="46.0733750" lon="10.4913110">
	<ele>2317.60</ele>
	<time>2023-08-06T11:06:16.000Z</time>
</trkpt>
<trkpt lat="46.0733750" lon="10.4913110">
	<ele>2317.40</ele>
	<time>2023-08-06T11:06:17.000Z</time>
</trkpt>
<trkpt lat="46.0733750" lon="10.4913110">
	<ele>2317.20</ele>
	<time>2023-08-06T11:06:18.000Z</time>
</trkpt>
<trkpt lat="46.0733750" lon="10.4913110">
	<ele>2317.00</ele>
	<time>2023-08-06T11:06:19.000Z</time>
</trkpt>
<trkpt lat="46.0733750" lon="10.4913110">
	<ele>2317.00</ele>
	<time>2023-08-06T11:06:20.000Z</time>
</trkpt>
<trkpt lat="46.0733750" lon="10.4913110">
	<ele>2316.80</ele>
	<time>2023-08-06T11:06:21.000Z</time>
</trkpt>
<trkpt lat="46.0733750" lon="10.4913110">
	<ele>2316.80</ele>
	<time>2023-08-06T11:06:22.000Z</time>
</trkpt>
<trkpt lat="46.0733770" lon="10.4913110">
	<ele>2316.60</ele>
	<time>2023-08-06T11:06:23.000Z</time>
</trkpt>
<trkpt lat="46.0733790" lon="10.4913110">
	<ele>2316.40</ele>
	<time>2023-08-06T11:06:24.000Z</time>
</trkpt>
<trkpt lat="46.0733790" lon="10.4913120">
	<ele>2316.40</ele>
	<time>2023-08-06T11:06:25.000Z</time>
</trkpt>
<trkpt lat="46.0733790" lon="10.4913160">
	<ele>2316.20</ele>
	<time>2023-08-06T11:06:26.000Z</time>
</trkpt>
<trkpt lat="46.0733790" lon="10.4913180">
	<ele>2316.00</ele>
	<time>2023-08-06T11:06:27.000Z</time>
</trkpt>
<trkpt lat="46.0733790" lon="10.4913190">
	<ele>2315.80</ele>
	<time>2023-08-06T11:06:28.000Z</time>
</trkpt>
<trkpt lat="46.0733790" lon="10.4913190">
	<ele>2315.80</ele>
	<time>2023-08-06T11:06:29.000Z</time>
</trkpt>
<trkpt lat="46.0733790" lon="10.4913190">
	<ele>2315.80</ele>
	<time>2023-08-06T11:06:30.000Z</time>
</trkpt>
<trkpt lat="46.0733790" lon="10.4913190">
	<ele>2315.60</ele>
	<time>2023-08-06T11:06:31.000Z</time>
</trkpt>
<trkpt lat="46.0733790" lon="10.4913190">
	<ele>2315.60</ele>
	<time>2023-08-06T11:06:32.000Z</time>
</trkpt>
<trkpt lat="46.0733790" lon="10.4913270">
	<ele>2315.60</ele>
	<time>2023-08-06T11:06:33.000Z</time>
</trkpt>
<trkpt lat="46.0733790" lon="10.4913360">
	<ele>2315.00</ele>
	<time>2023-08-06T11:06:34.000Z</time>
</trkpt>
<trkpt lat="46.0733790" lon="10.4913410">
	<ele>2314.80</ele>
	<time>2023-08-06T11:06:35.000Z</time>
</trkpt>
<trkpt lat="46.0733790" lon="10.4913470">
	<ele>2314.60</ele>
	<time>2023-08-06T11:06:36.000Z</time>
</trkpt>
<trkpt lat="46.0733790" lon="10.4913520">
	<ele>2314.40</ele>
	<time>2023-08-06T11:06:37.000Z</time>
</trkpt>
<trkpt lat="46.0733800" lon="10.4913530">
	<ele>2314.20</ele>
	<time>2023-08-06T11:06:38.000Z</time>
</trkpt>
<trkpt lat="46.0733860" lon="10.4913460">
	<ele>2314.00</ele>
	<time>2023-08-06T11:06:39.000Z</time>
</trkpt>
<trkpt lat="46.0733910" lon="10.4913400">
	<ele>2313.80</ele>
	<time>2023-08-06T11:06:40.000Z</time>
</trkpt>
<trkpt lat="46.0733960" lon="10.4913320">
	<ele>2313.80</ele>
	<time>2023-08-06T11:06:41.000Z</time>
</trkpt>
<trkpt lat="46.0734020" lon="10.4913220">
	<ele>2313.80</ele>
	<time>2023-08-06T11:06:42.000Z</time>
</trkpt>
<trkpt lat="46.0734100" lon="10.4913110">
	<ele>2313.60</ele>
	<time>2023-08-06T11:06:43.000Z</time>
</trkpt>
<trkpt lat="46.0734170" lon="10.4913020">
	<ele>2313.60</ele>
	<time>2023-08-06T11:06:44.000Z</time>
</trkpt>
<trkpt lat="46.0734250" lon="10.4912930">
	<ele>2313.40</ele>
	<time>2023-08-06T11:06:45.000Z</time>
</trkpt>
<trkpt lat="46.0734310" lon="10.4912820">
	<ele>2313.40</ele>
	<time>2023-08-06T11:06:46.000Z</time>
</trkpt>
<trkpt lat="46.0734400" lon="10.4912770">
	<ele>2313.20</ele>
	<time>2023-08-06T11:06:47.000Z</time>
</trkpt>
<trkpt lat="46.0734420" lon="10.4912730">
	<ele>2313.20</ele>
	<time>2023-08-06T11:06:48.000Z</time>
</trkpt>
<trkpt lat="46.0734420" lon="10.4912770">
	<ele>2313.20</ele>
	<time>2023-08-06T11:06:49.000Z</time>
</trkpt>
<trkpt lat="46.0734480" lon="10.4912620">
	<ele>2313.00</ele>
	<time>2023-08-06T11:06:50.000Z</time>
</trkpt>
<trkpt lat="46.0734530" lon="10.4912500">
	<ele>2312.80</ele>
	<time>2023-08-06T11:06:51.000Z</time>
</trkpt>
<trkpt lat="46.0734570" lon="10.4912400">
	<ele>2312.80</ele>
	<time>2023-08-06T11:06:52.000Z</time>
</trkpt>
<trkpt lat="46.0734660" lon="10.4912260">
	<ele>2312.60</ele>
	<time>2023-08-06T11:06:53.000Z</time>
</trkpt>
<trkpt lat="46.0734670" lon="10.4912190">
	<ele>2312.60</ele>
	<time>2023-08-06T11:06:54.000Z</time>
</trkpt>
<trkpt lat="46.0734700" lon="10.4912120">
	<ele>2312.60</ele>
	<time>2023-08-06T11:06:55.000Z</time>
</trkpt>
<trkpt lat="46.0734740" lon="10.4912130">
	<ele>2312.60</ele>
	<time>2023-08-06T11:06:56.000Z</time>
</trkpt>
<trkpt lat="46.0734770" lon="10.4912060">
	<ele>2312.40</ele>
	<time>2023-08-06T11:06:57.000Z</time>
</trkpt>
<trkpt lat="46.0734810" lon="10.4911980">
	<ele>2312.40</ele>
	<time>2023-08-06T11:06:58.000Z</time>
</trkpt>
<trkpt lat="46.0734880" lon="10.4911890">
	<ele>2312.00</ele>
	<time>2023-08-06T11:06:59.000Z</time>
</trkpt>
<trkpt lat="46.0734920" lon="10.4911840">
	<ele>2311.80</ele>
	<time>2023-08-06T11:07:00.000Z</time>
</trkpt>
<trkpt lat="46.0734940" lon="10.4911770">
	<ele>2311.60</ele>
	<time>2023-08-06T11:07:01.000Z</time>
</trkpt>
<trkpt lat="46.0734980" lon="10.4911730">
	<ele>2311.40</ele>
	<time>2023-08-06T11:07:02.000Z</time>
</trkpt>
<trkpt lat="46.0735000" lon="10.4911690">
	<ele>2311.20</ele>
	<time>2023-08-06T11:07:03.000Z</time>
</trkpt>
<trkpt lat="46.0734990" lon="10.4911660">
	<ele>2310.80</ele>
	<time>2023-08-06T11:07:04.000Z</time>
</trkpt>
<trkpt lat="46.0734970" lon="10.4911630">
	<ele>2310.80</ele>
	<time>2023-08-06T11:07:05.000Z</time>
</trkpt>
<trkpt lat="46.0734980" lon="10.4911620">
	<ele>2310.60</ele>
	<time>2023-08-06T11:07:06.000Z</time>
</trkpt>
<trkpt lat="46.0734980" lon="10.4911640">
	<ele>2310.60</ele>
	<time>2023-08-06T11:07:07.000Z</time>
</trkpt>
<trkpt lat="46.0734990" lon="10.4911610">
	<ele>2310.60</ele>
	<time>2023-08-06T11:07:08.000Z</time>
</trkpt>
<trkpt lat="46.0735010" lon="10.4911590">
	<ele>2310.40</ele>
	<time>2023-08-06T11:07:09.000Z</time>
</trkpt>
<trkpt lat="46.0735060" lon="10.4911600">
	<ele>2310.20</ele>
	<time>2023-08-06T11:07:10.000Z</time>
</trkpt>
<trkpt lat="46.0735060" lon="10.4911560">
	<ele>2310.00</ele>
	<time>2023-08-06T11:07:11.000Z</time>
</trkpt>
<trkpt lat="46.0735090" lon="10.4911520">
	<ele>2309.80</ele>
	<time>2023-08-06T11:07:12.000Z</time>
</trkpt>
<trkpt lat="46.0735110" lon="10.4911490">
	<ele>2309.60</ele>
	<time>2023-08-06T11:07:13.000Z</time>
</trkpt>
<trkpt lat="46.0735120" lon="10.4911430">
	<ele>2309.20</ele>
	<time>2023-08-06T11:07:14.000Z</time>
</trkpt>
<trkpt lat="46.0735090" lon="10.4911410">
	<ele>2308.80</ele>
	<time>2023-08-06T11:07:15.000Z</time>
</trkpt>
<trkpt lat="46.0735080" lon="10.4911340">
	<ele>2308.60</ele>
	<time>2023-08-06T11:07:16.000Z</time>
</trkpt>
<trkpt lat="46.0735060" lon="10.4911280">
	<ele>2308.20</ele>
	<time>2023-08-06T11:07:17.000Z</time>
</trkpt>
<trkpt lat="46.0735060" lon="10.4911220">
	<ele>2308.00</ele>
	<time>2023-08-06T11:07:18.000Z</time>
</trkpt>
<trkpt lat="46.0735080" lon="10.4911200">
	<ele>2307.80</ele>
	<time>2023-08-06T11:07:19.000Z</time>
</trkpt>
<trkpt lat="46.0735110" lon="10.4911180">
	<ele>2307.60</ele>
	<time>2023-08-06T11:07:20.000Z</time>
</trkpt>
<trkpt lat="46.0735110" lon="10.4911130">
	<ele>2307.40</ele>
	<time>2023-08-06T11:07:21.000Z</time>
</trkpt>
<trkpt lat="46.0735150" lon="10.4911110">
	<ele>2307.20</ele>
	<time>2023-08-06T11:07:22.000Z</time>
</trkpt>
<trkpt lat="46.0735190" lon="10.4911080">
	<ele>2307.00</ele>
	<time>2023-08-06T11:07:23.000Z</time>
</trkpt>
<trkpt lat="46.0735220" lon="10.4911070">
	<ele>2306.80</ele>
	<time>2023-08-06T11:07:24.000Z</time>
</trkpt>
<trkpt lat="46.0735250" lon="10.4911060">
	<ele>2306.60</ele>
	<time>2023-08-06T11:07:25.000Z</time>
</trkpt>
<trkpt lat="46.0735290" lon="10.4911040">
	<ele>2306.60</ele>
	<time>2023-08-06T11:07:26.000Z</time>
</trkpt>
<trkpt lat="46.0735330" lon="10.4911040">
	<ele>2306.40</ele>
	<time>2023-08-06T11:07:27.000Z</time>
</trkpt>
<trkpt lat="46.0735390" lon="10.4911070">
	<ele>2306.20</ele>
	<time>2023-08-06T11:07:28.000Z</time>
</trkpt>
<trkpt lat="46.0735420" lon="10.4911070">
	<ele>2306.00</ele>
	<time>2023-08-06T11:07:29.000Z</time>
</trkpt>
<trkpt lat="46.0735410" lon="10.4911090">
	<ele>2305.60</ele>
	<time>2023-08-06T11:07:30.000Z</time>
</trkpt>
<trkpt lat="46.0735440" lon="10.4911120">
	<ele>2305.60</ele>
	<time>2023-08-06T11:07:31.000Z</time>
</trkpt>
<trkpt lat="46.0735470" lon="10.4911140">
	<ele>2305.40</ele>
	<time>2023-08-06T11:07:32.000Z</time>
</trkpt>
<trkpt lat="46.0735510" lon="10.4911120">
	<ele>2305.20</ele>
	<time>2023-08-06T11:07:33.000Z</time>
</trkpt>
<trkpt lat="46.0735570" lon="10.4911100">
	<ele>2305.00</ele>
	<time>2023-08-06T11:07:34.000Z</time>
</trkpt>
<trkpt lat="46.0735600" lon="10.4911070">
	<ele>2304.60</ele>
	<time>2023-08-06T11:07:35.000Z</time>
</trkpt>
<trkpt lat="46.0735660" lon="10.4911060">
	<ele>2304.20</ele>
	<time>2023-08-06T11:07:36.000Z</time>
</trkpt>
<trkpt lat="46.0735730" lon="10.4911070">
	<ele>2304.20</ele>
	<time>2023-08-06T11:07:37.000Z</time>
</trkpt>
<trkpt lat="46.0735810" lon="10.4911090">
	<ele>2304.00</ele>
	<time>2023-08-06T11:07:38.000Z</time>
</trkpt>
<trkpt lat="46.0735880" lon="10.4911110">
	<ele>2303.80</ele>
	<time>2023-08-06T11:07:39.000Z</time>
</trkpt>
<trkpt lat="46.0735980" lon="10.4911100">
	<ele>2303.60</ele>
	<time>2023-08-06T11:07:40.000Z</time>
</trkpt>
<trkpt lat="46.0736020" lon="10.4911080">
	<ele>2303.40</ele>
	<time>2023-08-06T11:07:41.000Z</time>
</trkpt>
<trkpt lat="46.0736040" lon="10.4911080">
	<ele>2303.20</ele>
	<time>2023-08-06T11:07:42.000Z</time>
</trkpt>
<trkpt lat="46.0736060" lon="10.4911030">
	<ele>2303.20</ele>
	<time>2023-08-06T11:07:43.000Z</time>
</trkpt>
<trkpt lat="46.0736090" lon="10.4911040">
	<ele>2303.20</ele>
	<time>2023-08-06T11:07:44.000Z</time>
</trkpt>
<trkpt lat="46.0736120" lon="10.4911030">
	<ele>2303.00</ele>
	<time>2023-08-06T11:07:45.000Z</time>
</trkpt>
<trkpt lat="46.0736140" lon="10.4911060">
	<ele>2303.00</ele>
	<time>2023-08-06T11:07:46.000Z</time>
</trkpt>
<trkpt lat="46.0736200" lon="10.4911080">
	<ele>2302.80</ele>
	<time>2023-08-06T11:07:47.000Z</time>
</trkpt>
<trkpt lat="46.0736230" lon="10.4911090">
	<ele>2302.60</ele>
	<time>2023-08-06T11:07:48.000Z</time>
</trkpt>
<trkpt lat="46.0736270" lon="10.4911090">
	<ele>2302.40</ele>
	<time>2023-08-06T11:07:49.000Z</time>
</trkpt>
<trkpt lat="46.0736300" lon="10.4911120">
	<ele>2302.40</ele>
	<time>2023-08-06T11:07:50.000Z</time>
</trkpt>
<trkpt lat="46.0736340" lon="10.4911150">
	<ele>2302.00</ele>
	<time>2023-08-06T11:07:51.000Z</time>
</trkpt>
<trkpt lat="46.0736370" lon="10.4911160">
	<ele>2302.00</ele>
	<time>2023-08-06T11:07:52.000Z</time>
</trkpt>
<trkpt lat="46.0736370" lon="10.4911190">
	<ele>2301.80</ele>
	<time>2023-08-06T11:07:53.000Z</time>
</trkpt>
<trkpt lat="46.0736400" lon="10.4911220">
	<ele>2301.60</ele>
	<time>2023-08-06T11:07:54.000Z</time>
</trkpt>
<trkpt lat="46.0736430" lon="10.4911230">
	<ele>2301.40</ele>
	<time>2023-08-06T11:07:55.000Z</time>
</trkpt>
<trkpt lat="46.0736440" lon="10.4911240">
	<ele>2301.40</ele>
	<time>2023-08-06T11:07:56.000Z</time>
</trkpt>
<trkpt lat="46.0736460" lon="10.4911260">
	<ele>2301.20</ele>
	<time>2023-08-06T11:07:57.000Z</time>
</trkpt>
<trkpt lat="46.0736490" lon="10.4911300">
	<ele>2301.00</ele>
	<time>2023-08-06T11:07:58.000Z</time>
</trkpt>
<trkpt lat="46.0736510" lon="10.4911320">
	<ele>2301.00</ele>
	<time>2023-08-06T11:07:59.000Z</time>
</trkpt>
<trkpt lat="46.0736530" lon="10.4911310">
	<ele>2300.60</ele>
	<time>2023-08-06T11:08:00.000Z</time>
</trkpt>
<trkpt lat="46.0736570" lon="10.4911290">
	<ele>2300.40</ele>
	<time>2023-08-06T11:08:01.000Z</time>
</trkpt>
<trkpt lat="46.0736610" lon="10.4911260">
	<ele>2300.20</ele>
	<time>2023-08-06T11:08:02.000Z</time>
</trkpt>
<trkpt lat="46.0736630" lon="10.4911220">
	<ele>2300.00</ele>
	<time>2023-08-06T11:08:03.000Z</time>
</trkpt>
<trkpt lat="46.0736670" lon="10.4911160">
	<ele>2299.80</ele>
	<time>2023-08-06T11:08:04.000Z</time>
</trkpt>
<trkpt lat="46.0736650" lon="10.4911050">
	<ele>2299.60</ele>
	<time>2023-08-06T11:08:05.000Z</time>
</trkpt>
<trkpt lat="46.0736650" lon="10.4911000">
	<ele>2299.40</ele>
	<time>2023-08-06T11:08:06.000Z</time>
</trkpt>
<trkpt lat="46.0736650" lon="10.4910990">
	<ele>2298.80</ele>
	<time>2023-08-06T11:08:07.000Z</time>
</trkpt>
<trkpt lat="46.0736690" lon="10.4910970">
	<ele>2298.60</ele>
	<time>2023-08-06T11:08:08.000Z</time>
</trkpt>
<trkpt lat="46.0736710" lon="10.4910970">
	<ele>2298.40</ele>
	<time>2023-08-06T11:08:09.000Z</time>
</trkpt>
<trkpt lat="46.0736720" lon="10.4911000">
	<ele>2298.40</ele>
	<time>2023-08-06T11:08:10.000Z</time>
</trkpt>
<trkpt lat="46.0736750" lon="10.4911000">
	<ele>2298.20</ele>
	<time>2023-08-06T11:08:11.000Z</time>
</trkpt>
<trkpt lat="46.0736770" lon="10.4910990">
	<ele>2298.00</ele>
	<time>2023-08-06T11:08:12.000Z</time>
</trkpt>
<trkpt lat="46.0736780" lon="10.4910930">
	<ele>2298.00</ele>
	<time>2023-08-06T11:08:13.000Z</time>
</trkpt>
<trkpt lat="46.0736800" lon="10.4910850">
	<ele>2298.00</ele>
	<time>2023-08-06T11:08:14.000Z</time>
</trkpt>
<trkpt lat="46.0736840" lon="10.4910780">
	<ele>2298.00</ele>
	<time>2023-08-06T11:08:15.000Z</time>
</trkpt>
<trkpt lat="46.0736850" lon="10.4910740">
	<ele>2297.20</ele>
	<time>2023-08-06T11:08:16.000Z</time>
</trkpt>
<trkpt lat="46.0736860" lon="10.4910730">
	<ele>2296.80</ele>
	<time>2023-08-06T11:08:17.000Z</time>
</trkpt>
<trkpt lat="46.0736880" lon="10.4910720">
	<ele>2296.60</ele>
	<time>2023-08-06T11:08:18.000Z</time>
</trkpt>
<trkpt lat="46.0736900" lon="10.4910730">
	<ele>2296.20</ele>
	<time>2023-08-06T11:08:19.000Z</time>
</trkpt>
<trkpt lat="46.0736940" lon="10.4910730">
	<ele>2296.00</ele>
	<time>2023-08-06T11:08:20.000Z</time>
</trkpt>
<trkpt lat="46.0736940" lon="10.4910760">
	<ele>2295.80</ele>
	<time>2023-08-06T11:08:21.000Z</time>
</trkpt>
<trkpt lat="46.0736940" lon="10.4910760">
	<ele>2295.80</ele>
	<time>2023-08-06T11:08:22.000Z</time>
</trkpt>
<trkpt lat="46.0736950" lon="10.4910790">
	<ele>2295.40</ele>
	<time>2023-08-06T11:08:23.000Z</time>
</trkpt>
<trkpt lat="46.0736960" lon="10.4910810">
	<ele>2295.20</ele>
	<time>2023-08-06T11:08:24.000Z</time>
</trkpt>
<trkpt lat="46.0736970" lon="10.4910830">
	<ele>2295.00</ele>
	<time>2023-08-06T11:08:25.000Z</time>
</trkpt>
<trkpt lat="46.0736980" lon="10.4910840">
	<ele>2295.00</ele>
	<time>2023-08-06T11:08:26.000Z</time>
</trkpt>
<trkpt lat="46.0737030" lon="10.4910840">
	<ele>2295.00</ele>
	<time>2023-08-06T11:08:27.000Z</time>
</trkpt>
<trkpt lat="46.0737050" lon="10.4910810">
	<ele>2295.00</ele>
	<time>2023-08-06T11:08:28.000Z</time>
</trkpt>
<trkpt lat="46.0737080" lon="10.4910790">
	<ele>2295.00</ele>
	<time>2023-08-06T11:08:29.000Z</time>
</trkpt>
<trkpt lat="46.0737100" lon="10.4910770">
	<ele>2294.80</ele>
	<time>2023-08-06T11:08:30.000Z</time>
</trkpt>
<trkpt lat="46.0737120" lon="10.4910760">
	<ele>2294.80</ele>
	<time>2023-08-06T11:08:31.000Z</time>
</trkpt>
<trkpt lat="46.0737130" lon="10.4910770">
	<ele>2294.60</ele>
	<time>2023-08-06T11:08:32.000Z</time>
</trkpt>
<trkpt lat="46.0737140" lon="10.4910760">
	<ele>2294.40</ele>
	<time>2023-08-06T11:08:33.000Z</time>
</trkpt>
<trkpt lat="46.0737160" lon="10.4910750">
	<ele>2294.20</ele>
	<time>2023-08-06T11:08:34.000Z</time>
</trkpt>
<trkpt lat="46.0737190" lon="10.4910760">
	<ele>2294.00</ele>
	<time>2023-08-06T11:08:35.000Z</time>
</trkpt>
<trkpt lat="46.0737200" lon="10.4910750">
	<ele>2293.80</ele>
	<time>2023-08-06T11:08:36.000Z</time>
</trkpt>
<trkpt lat="46.0737210" lon="10.4910710">
	<ele>2293.60</ele>
	<time>2023-08-06T11:08:37.000Z</time>
</trkpt>
<trkpt lat="46.0737210" lon="10.4910680">
	<ele>2293.60</ele>
	<time>2023-08-06T11:08:38.000Z</time>
</trkpt>
<trkpt lat="46.0737210" lon="10.4910670">
	<ele>2293.40</ele>
	<time>2023-08-06T11:08:39.000Z</time>
</trkpt>
<trkpt lat="46.0737210" lon="10.4910670">
	<ele>2293.40</ele>
	<time>2023-08-06T11:08:40.000Z</time>
</trkpt>
<trkpt lat="46.0737210" lon="10.4910670">
	<ele>2293.20</ele>
	<time>2023-08-06T11:08:41.000Z</time>
</trkpt>
<trkpt lat="46.0737210" lon="10.4910670">
	<ele>2293.20</ele>
	<time>2023-08-06T11:08:42.000Z</time>
</trkpt>
<trkpt lat="46.0737210" lon="10.4910670">
	<ele>2293.20</ele>
	<time>2023-08-06T11:08:43.000Z</time>
</trkpt>
<trkpt lat="46.0737210" lon="10.4910670">
	<ele>2293.00</ele>
	<time>2023-08-06T11:08:44.000Z</time>
</trkpt>
<trkpt lat="46.0737210" lon="10.4910670">
	<ele>2293.00</ele>
	<time>2023-08-06T11:08:45.000Z</time>
</trkpt>
<trkpt lat="46.0737210" lon="10.4910670">
	<ele>2293.00</ele>
	<time>2023-08-06T11:08:46.000Z</time>
</trkpt>
<trkpt lat="46.0737210" lon="10.4910670">
	<ele>2292.80</ele>
	<time>2023-08-06T11:08:47.000Z</time>
</trkpt>
<trkpt lat="46.0737210" lon="10.4910670">
	<ele>2292.80</ele>
	<time>2023-08-06T11:08:48.000Z</time>
</trkpt>
<trkpt lat="46.0737210" lon="10.4910670">
	<ele>2292.60</ele>
	<time>2023-08-06T11:08:49.000Z</time>
</trkpt>
<trkpt lat="46.0737210" lon="10.4910670">
	<ele>2292.40</ele>
	<time>2023-08-06T11:08:50.000Z</time>
</trkpt>
<trkpt lat="46.0737210" lon="10.4910670">
	<ele>2292.40</ele>
	<time>2023-08-06T11:08:51.000Z</time>
</trkpt>
<trkpt lat="46.0737210" lon="10.4910670">
	<ele>2292.20</ele>
	<time>2023-08-06T11:08:52.000Z</time>
</trkpt>
<trkpt lat="46.0737210" lon="10.4910670">
	<ele>2292.00</ele>
	<time>2023-08-06T11:08:53.000Z</time>
</trkpt>
<trkpt lat="46.0737210" lon="10.4910670">
	<ele>2291.80</ele>
	<time>2023-08-06T11:08:54.000Z</time>
</trkpt>
<trkpt lat="46.0737220" lon="10.4910670">
	<ele>2291.60</ele>
	<time>2023-08-06T11:08:55.000Z</time>
</trkpt>
<trkpt lat="46.0737250" lon="10.4910640">
	<ele>2291.20</ele>
	<time>2023-08-06T11:08:56.000Z</time>
</trkpt>
<trkpt lat="46.0737290" lon="10.4910630">
	<ele>2290.80</ele>
	<time>2023-08-06T11:08:57.000Z</time>
</trkpt>
<trkpt lat="46.0737310" lon="10.4910620">
	<ele>2290.60</ele>
	<time>2023-08-06T11:08:58.000Z</time>
</trkpt>
<trkpt lat="46.0737330" lon="10.4910610">
	<ele>2290.40</ele>
	<time>2023-08-06T11:08:59.000Z</time>
</trkpt>
<trkpt lat="46.0737330" lon="10.4910590">
	<ele>2290.20</ele>
	<time>2023-08-06T11:09:00.000Z</time>
</trkpt>
<trkpt lat="46.0737340" lon="10.4910560">
	<ele>2290.00</ele>
	<time>2023-08-06T11:09:01.000Z</time>
</trkpt>
<trkpt lat="46.0737350" lon="10.4910520">
	<ele>2290.00</ele>
	<time>2023-08-06T11:09:02.000Z</time>
</trkpt>
<trkpt lat="46.0737360" lon="10.4910460">
	<ele>2289.80</ele>
	<time>2023-08-06T11:09:03.000Z</time>
</trkpt>
<trkpt lat="46.0737370" lon="10.4910420">
	<ele>2289.80</ele>
	<time>2023-08-06T11:09:04.000Z</time>
</trkpt>
<trkpt lat="46.0737370" lon="10.4910400">
	<ele>2289.80</ele>
	<time>2023-08-06T11:09:05.000Z</time>
</trkpt>
<trkpt lat="46.0737370" lon="10.4910340">
	<ele>2289.60</ele>
	<time>2023-08-06T11:09:06.000Z</time>
</trkpt>
<trkpt lat="46.0737370" lon="10.4910290">
	<ele>2289.60</ele>
	<time>2023-08-06T11:09:07.000Z</time>
</trkpt>
<trkpt lat="46.0737370" lon="10.4910290">
	<ele>2289.60</ele>
	<time>2023-08-06T11:09:08.000Z</time>
</trkpt>
<trkpt lat="46.0737380" lon="10.4910280">
	<ele>2289.60</ele>
	<time>2023-08-06T11:09:09.000Z</time>
</trkpt>
<trkpt lat="46.0737380" lon="10.4910280">
	<ele>2289.20</ele>
	<time>2023-08-06T11:09:10.000Z</time>
</trkpt>
<trkpt lat="46.0737380" lon="10.4910270">
	<ele>2289.00</ele>
	<time>2023-08-06T11:09:11.000Z</time>
</trkpt>
<trkpt lat="46.0737380" lon="10.4910260">
	<ele>2288.60</ele>
	<time>2023-08-06T11:09:12.000Z</time>
</trkpt>
<trkpt lat="46.0737380" lon="10.4910260">
	<ele>2288.40</ele>
	<time>2023-08-06T11:09:13.000Z</time>
</trkpt>
<trkpt lat="46.0737400" lon="10.4910260">
	<ele>2288.20</ele>
	<time>2023-08-06T11:09:14.000Z</time>
</trkpt>
<trkpt lat="46.0737430" lon="10.4910260">
	<ele>2288.00</ele>
	<time>2023-08-06T11:09:15.000Z</time>
</trkpt>
<trkpt lat="46.0737460" lon="10.4910260">
	<ele>2287.80</ele>
	<time>2023-08-06T11:09:16.000Z</time>
</trkpt>
<trkpt lat="46.0737490" lon="10.4910260">
	<ele>2287.60</ele>
	<time>2023-08-06T11:09:17.000Z</time>
</trkpt>
<trkpt lat="46.0737500" lon="10.4910260">
	<ele>2287.60</ele>
	<time>2023-08-06T11:09:18.000Z</time>
</trkpt>
<trkpt lat="46.0737500" lon="10.4910260">
	<ele>2287.40</ele>
	<time>2023-08-06T11:09:19.000Z</time>
</trkpt>
<trkpt lat="46.0737510" lon="10.4910260">
	<ele>2287.20</ele>
	<time>2023-08-06T11:09:20.000Z</time>
</trkpt>
<trkpt lat="46.0737520" lon="10.4910260">
	<ele>2287.20</ele>
	<time>2023-08-06T11:09:21.000Z</time>
</trkpt>
<trkpt lat="46.0737520" lon="10.4910260">
	<ele>2287.00</ele>
	<time>2023-08-06T11:09:22.000Z</time>
</trkpt>
<trkpt lat="46.0737530" lon="10.4910270">
	<ele>2286.80</ele>
	<time>2023-08-06T11:09:23.000Z</time>
</trkpt>
<trkpt lat="46.0737540" lon="10.4910280">
	<ele>2286.60</ele>
	<time>2023-08-06T11:09:24.000Z</time>
</trkpt>
<trkpt lat="46.0737560" lon="10.4910280">
	<ele>2286.40</ele>
	<time>2023-08-06T11:09:25.000Z</time>
</trkpt>
<trkpt lat="46.0737590" lon="10.4910290">
	<ele>2286.20</ele>
	<time>2023-08-06T11:09:26.000Z</time>
</trkpt>
<trkpt lat="46.0737630" lon="10.4910290">
	<ele>2286.20</ele>
	<time>2023-08-06T11:09:27.000Z</time>
</trkpt>
<trkpt lat="46.0737650" lon="10.4910290">
	<ele>2286.20</ele>
	<time>2023-08-06T11:09:28.000Z</time>
</trkpt>
<trkpt lat="46.0737710" lon="10.4910290">
	<ele>2285.40</ele>
	<time>2023-08-06T11:09:29.000Z</time>
</trkpt>
<trkpt lat="46.0737770" lon="10.4910290">
	<ele>2285.00</ele>
	<time>2023-08-06T11:09:30.000Z</time>
</trkpt>
<trkpt lat="46.0737790" lon="10.4910290">
	<ele>2284.60</ele>
	<time>2023-08-06T11:09:31.000Z</time>
</trkpt>
<trkpt lat="46.0737800" lon="10.4910290">
	<ele>2284.20</ele>
	<time>2023-08-06T11:09:32.000Z</time>
</trkpt>
<trkpt lat="46.0737800" lon="10.4910290">
	<ele>2284.00</ele>
	<time>2023-08-06T11:09:33.000Z</time>
</trkpt>
<trkpt lat="46.0737810" lon="10.4910290">
	<ele>2284.00</ele>
	<time>2023-08-06T11:09:34.000Z</time>
</trkpt>
<trkpt lat="46.0737850" lon="10.4910290">
	<ele>2283.80</ele>
	<time>2023-08-06T11:09:35.000Z</time>
</trkpt>
<trkpt lat="46.0737900" lon="10.4910280">
	<ele>2283.60</ele>
	<time>2023-08-06T11:09:36.000Z</time>
</trkpt>
<trkpt lat="46.0737980" lon="10.4910280">
	<ele>2283.60</ele>
	<time>2023-08-06T11:09:37.000Z</time>
</trkpt>
<trkpt lat="46.0738060" lon="10.4910280">
	<ele>2283.40</ele>
	<time>2023-08-06T11:09:38.000Z</time>
</trkpt>
<trkpt lat="46.0738150" lon="10.4910280">
	<ele>2283.20</ele>
	<time>2023-08-06T11:09:39.000Z</time>
</trkpt>
<trkpt lat="46.0738200" lon="10.4910280">
	<ele>2283.20</ele>
	<time>2023-08-06T11:09:40.000Z</time>
</trkpt>
<trkpt lat="46.0738250" lon="10.4910280">
	<ele>2283.00</ele>
	<time>2023-08-06T11:09:41.000Z</time>
</trkpt>
<trkpt lat="46.0738300" lon="10.4910260">
	<ele>2282.80</ele>
	<time>2023-08-06T11:09:42.000Z</time>
</trkpt>
<trkpt lat="46.0738340" lon="10.4910210">
	<ele>2282.40</ele>
	<time>2023-08-06T11:09:43.000Z</time>
</trkpt>
<trkpt lat="46.0738380" lon="10.4910180">
	<ele>2282.20</ele>
	<time>2023-08-06T11:09:44.000Z</time>
</trkpt>
<trkpt lat="46.0738450" lon="10.4910140">
	<ele>2282.00</ele>
	<time>2023-08-06T11:09:45.000Z</time>
</trkpt>
<trkpt lat="46.0738500" lon="10.4910130">
	<ele>2281.80</ele>
	<time>2023-08-06T11:09:46.000Z</time>
</trkpt>
<trkpt lat="46.0738540" lon="10.4910090">
	<ele>2281.60</ele>
	<time>2023-08-06T11:09:47.000Z</time>
</trkpt>
<trkpt lat="46.0738570" lon="10.4910040">
	<ele>2281.20</ele>
	<time>2023-08-06T11:09:48.000Z</time>
</trkpt>
<trkpt lat="46.0738600" lon="10.4910020">
	<ele>2280.80</ele>
	<time>2023-08-06T11:09:49.000Z</time>
</trkpt>
<trkpt lat="46.0738610" lon="10.4910000">
	<ele>2280.60</ele>
	<time>2023-08-06T11:09:50.000Z</time>
</trkpt>
<trkpt lat="46.0738630" lon="10.4909990">
	<ele>2280.40</ele>
	<time>2023-08-06T11:09:51.000Z</time>
</trkpt>
<trkpt lat="46.0738640" lon="10.4909980">
	<ele>2280.20</ele>
	<time>2023-08-06T11:09:52.000Z</time>
</trkpt>
<trkpt lat="46.0738650" lon="10.4909970">
	<ele>2280.00</ele>
	<time>2023-08-06T11:09:53.000Z</time>
</trkpt>
<trkpt lat="46.0738670" lon="10.4909900">
	<ele>2279.60</ele>
	<time>2023-08-06T11:09:54.000Z</time>
</trkpt>
<trkpt lat="46.0738700" lon="10.4909770">
	<ele>2279.40</ele>
	<time>2023-08-06T11:09:55.000Z</time>
</trkpt>
<trkpt lat="46.0738730" lon="10.4909650">
	<ele>2279.20</ele>
	<time>2023-08-06T11:09:56.000Z</time>
</trkpt>
<trkpt lat="46.0738720" lon="10.4909530">
	<ele>2279.00</ele>
	<time>2023-08-06T11:09:57.000Z</time>
</trkpt>
<trkpt lat="46.0738750" lon="10.4909390">
	<ele>2279.00</ele>
	<time>2023-08-06T11:09:58.000Z</time>
</trkpt>
<trkpt lat="46.0738790" lon="10.4909240">
	<ele>2278.60</ele>
	<time>2023-08-06T11:09:59.000Z</time>
</trkpt>
<trkpt lat="46.0738820" lon="10.4909120">
	<ele>2278.40</ele>
	<time>2023-08-06T11:10:00.000Z</time>
</trkpt>
<trkpt lat="46.0738870" lon="10.4909020">
	<ele>2278.20</ele>
	<time>2023-08-06T11:10:01.000Z</time>
</trkpt>
<trkpt lat="46.0738950" lon="10.4908900">
	<ele>2278.00</ele>
	<time>2023-08-06T11:10:02.000Z</time>
</trkpt>
<trkpt lat="46.0739000" lon="10.4908870">
	<ele>2277.60</ele>
	<time>2023-08-06T11:10:03.000Z</time>
</trkpt>
<trkpt lat="46.0738970" lon="10.4908900">
	<ele>2277.40</ele>
	<time>2023-08-06T11:10:04.000Z</time>
</trkpt>
<trkpt lat="46.0738980" lon="10.4908910">
	<ele>2277.20</ele>
	<time>2023-08-06T11:10:05.000Z</time>
</trkpt>
<trkpt lat="46.0739020" lon="10.4908930">
	<ele>2277.00</ele>
	<time>2023-08-06T11:10:06.000Z</time>
</trkpt>
<trkpt lat="46.0739060" lon="10.4908910">
	<ele>2276.80</ele>
	<time>2023-08-06T11:10:07.000Z</time>
</trkpt>
<trkpt lat="46.0739170" lon="10.4908900">
	<ele>2276.60</ele>
	<time>2023-08-06T11:10:08.000Z</time>
</trkpt>
<trkpt lat="46.0739300" lon="10.4908860">
	<ele>2276.60</ele>
	<time>2023-08-06T11:10:09.000Z</time>
</trkpt>
<trkpt lat="46.0739380" lon="10.4908840">
	<ele>2276.40</ele>
	<time>2023-08-06T11:10:10.000Z</time>
</trkpt>
<trkpt lat="46.0739520" lon="10.4908830">
	<ele>2276.20</ele>
	<time>2023-08-06T11:10:11.000Z</time>
</trkpt>
<trkpt lat="46.0739620" lon="10.4908770">
	<ele>2276.20</ele>
	<time>2023-08-06T11:10:12.000Z</time>
</trkpt>
<trkpt lat="46.0739680" lon="10.4908680">
	<ele>2276.00</ele>
	<time>2023-08-06T11:10:13.000Z</time>
</trkpt>
<trkpt lat="46.0739730" lon="10.4908580">
	<ele>2275.80</ele>
	<time>2023-08-06T11:10:14.000Z</time>
</trkpt>
<trkpt lat="46.0739780" lon="10.4908520">
	<ele>2275.60</ele>
	<time>2023-08-06T11:10:15.000Z</time>
</trkpt>
<trkpt lat="46.0739830" lon="10.4908500">
	<ele>2275.60</ele>
	<time>2023-08-06T11:10:16.000Z</time>
</trkpt>
<trkpt lat="46.0739910" lon="10.4908560">
	<ele>2275.40</ele>
	<time>2023-08-06T11:10:17.000Z</time>
</trkpt>
<trkpt lat="46.0740000" lon="10.4908570">
	<ele>2275.20</ele>
	<time>2023-08-06T11:10:18.000Z</time>
</trkpt>
<trkpt lat="46.0740040" lon="10.4908560">
	<ele>2275.20</ele>
	<time>2023-08-06T11:10:19.000Z</time>
</trkpt>
<trkpt lat="46.0740070" lon="10.4908560">
	<ele>2275.00</ele>
	<time>2023-08-06T11:10:20.000Z</time>
</trkpt>
<trkpt lat="46.0740090" lon="10.4908560">
	<ele>2275.00</ele>
	<time>2023-08-06T11:10:21.000Z</time>
</trkpt>
<trkpt lat="46.0740110" lon="10.4908560">
	<ele>2275.00</ele>
	<time>2023-08-06T11:10:22.000Z</time>
</trkpt>
<trkpt lat="46.0740110" lon="10.4908620">
	<ele>2275.00</ele>
	<time>2023-08-06T11:10:23.000Z</time>
</trkpt>
<trkpt lat="46.0740110" lon="10.4908620">
	<ele>2274.80</ele>
	<time>2023-08-06T11:10:24.000Z</time>
</trkpt>
<trkpt lat="46.0740150" lon="10.4908590">
	<ele>2274.80</ele>
	<time>2023-08-06T11:10:25.000Z</time>
</trkpt>
<trkpt lat="46.0740200" lon="10.4908580">
	<ele>2274.60</ele>
	<time>2023-08-06T11:10:26.000Z</time>
</trkpt>
<trkpt lat="46.0740230" lon="10.4908560">
	<ele>2274.40</ele>
	<time>2023-08-06T11:10:27.000Z</time>
</trkpt>
<trkpt lat="46.0740300" lon="10.4908570">
	<ele>2274.20</ele>
	<time>2023-08-06T11:10:28.000Z</time>
</trkpt>
<trkpt lat="46.0740360" lon="10.4908580">
	<ele>2274.20</ele>
	<time>2023-08-06T11:10:29.000Z</time>
</trkpt>
<trkpt lat="46.0740400" lon="10.4908580">
	<ele>2273.80</ele>
	<time>2023-08-06T11:10:30.000Z</time>
</trkpt>
<trkpt lat="46.0740440" lon="10.4908560">
	<ele>2273.40</ele>
	<time>2023-08-06T11:10:31.000Z</time>
</trkpt>
<trkpt lat="46.0740490" lon="10.4908540">
	<ele>2273.00</ele>
	<time>2023-08-06T11:10:32.000Z</time>
</trkpt>
<trkpt lat="46.0740520" lon="10.4908510">
	<ele>2272.60</ele>
	<time>2023-08-06T11:10:33.000Z</time>
</trkpt>
<trkpt lat="46.0740590" lon="10.4908500">
	<ele>2272.40</ele>
	<time>2023-08-06T11:10:34.000Z</time>
</trkpt>
<trkpt lat="46.0740660" lon="10.4908510">
	<ele>2272.40</ele>
	<time>2023-08-06T11:10:35.000Z</time>
</trkpt>
<trkpt lat="46.0740740" lon="10.4908490">
	<ele>2272.20</ele>
	<time>2023-08-06T11:10:36.000Z</time>
</trkpt>
<trkpt lat="46.0740790" lon="10.4908480">
	<ele>2271.80</ele>
	<time>2023-08-06T11:10:37.000Z</time>
</trkpt>
<trkpt lat="46.0740800" lon="10.4908490">
	<ele>2271.80</ele>
	<time>2023-08-06T11:10:38.000Z</time>
</trkpt>
<trkpt lat="46.0740810" lon="10.4908500">
	<ele>2271.60</ele>
	<time>2023-08-06T11:10:39.000Z</time>
</trkpt>
<trkpt lat="46.0740800" lon="10.4908480">
	<ele>2271.60</ele>
	<time>2023-08-06T11:10:40.000Z</time>
</trkpt>
<trkpt lat="46.0740840" lon="10.4908480">
	<ele>2271.40</ele>
	<time>2023-08-06T11:10:41.000Z</time>
</trkpt>
<trkpt lat="46.0740870" lon="10.4908470">
	<ele>2271.20</ele>
	<time>2023-08-06T11:10:42.000Z</time>
</trkpt>
<trkpt lat="46.0740860" lon="10.4908460">
	<ele>2271.00</ele>
	<time>2023-08-06T11:10:43.000Z</time>
</trkpt>
<trkpt lat="46.0740900" lon="10.4908480">
	<ele>2270.80</ele>
	<time>2023-08-06T11:10:44.000Z</time>
</trkpt>
<trkpt lat="46.0740980" lon="10.4908410">
	<ele>2270.40</ele>
	<time>2023-08-06T11:10:45.000Z</time>
</trkpt>
<trkpt lat="46.0741030" lon="10.4908360">
	<ele>2270.20</ele>
	<time>2023-08-06T11:10:46.000Z</time>
</trkpt>
<trkpt lat="46.0741060" lon="10.4908330">
	<ele>2270.00</ele>
	<time>2023-08-06T11:10:47.000Z</time>
</trkpt>
<trkpt lat="46.0741080" lon="10.4908330">
	<ele>2269.60</ele>
	<time>2023-08-06T11:10:48.000Z</time>
</trkpt>
<trkpt lat="46.0741110" lon="10.4908320">
	<ele>2269.40</ele>
	<time>2023-08-06T11:10:49.000Z</time>
</trkpt>
<trkpt lat="46.0741140" lon="10.4908320">
	<ele>2269.20</ele>
	<time>2023-08-06T11:10:50.000Z</time>
</trkpt>
<trkpt lat="46.0741180" lon="10.4908290">
	<ele>2269.00</ele>
	<time>2023-08-06T11:10:51.000Z</time>
</trkpt>
<trkpt lat="46.0741220" lon="10.4908250">
	<ele>2268.80</ele>
	<time>2023-08-06T11:10:52.000Z</time>
</trkpt>
<trkpt lat="46.0741250" lon="10.4908190">
	<ele>2268.60</ele>
	<time>2023-08-06T11:10:53.000Z</time>
</trkpt>
<trkpt lat="46.0741280" lon="10.4908160">
	<ele>2268.40</ele>
	<time>2023-08-06T11:10:54.000Z</time>
</trkpt>
<trkpt lat="46.0741330" lon="10.4908130">
	<ele>2268.20</ele>
	<time>2023-08-06T11:10:55.000Z</time>
</trkpt>
<trkpt lat="46.0741380" lon="10.4908140">
	<ele>2268.20</ele>
	<time>2023-08-06T11:10:56.000Z</time>
</trkpt>
<trkpt lat="46.0741400" lon="10.4908100">
	<ele>2268.00</ele>
	<time>2023-08-06T11:10:57.000Z</time>
</trkpt>
<trkpt lat="46.0741420" lon="10.4908050">
	<ele>2267.80</ele>
	<time>2023-08-06T11:10:58.000Z</time>
</trkpt>
<trkpt lat="46.0741450" lon="10.4907990">
	<ele>2267.80</ele>
	<time>2023-08-06T11:10:59.000Z</time>
</trkpt>
<trkpt lat="46.0741510" lon="10.4907950">
	<ele>2267.80</ele>
	<time>2023-08-06T11:11:00.000Z</time>
</trkpt>
<trkpt lat="46.0741550" lon="10.4907970">
	<ele>2267.60</ele>
	<time>2023-08-06T11:11:01.000Z</time>
</trkpt>
<trkpt lat="46.0741570" lon="10.4907970">
	<ele>2267.40</ele>
	<time>2023-08-06T11:11:02.000Z</time>
</trkpt>
<trkpt lat="46.0741590" lon="10.4907930">
	<ele>2267.20</ele>
	<time>2023-08-06T11:11:03.000Z</time>
</trkpt>
<trkpt lat="46.0741610" lon="10.4907880">
	<ele>2267.20</ele>
	<time>2023-08-06T11:11:04.000Z</time>
</trkpt>
<trkpt lat="46.0741620" lon="10.4907870">
	<ele>2267.00</ele>
	<time>2023-08-06T11:11:05.000Z</time>
</trkpt>
<trkpt lat="46.0741640" lon="10.4907860">
	<ele>2266.80</ele>
	<time>2023-08-06T11:11:06.000Z</time>
</trkpt>
<trkpt lat="46.0741650" lon="10.4907820">
	<ele>2266.20</ele>
	<time>2023-08-06T11:11:07.000Z</time>
</trkpt>
<trkpt lat="46.0741630" lon="10.4907780">
	<ele>2265.80</ele>
	<time>2023-08-06T11:11:08.000Z</time>
</trkpt>
<trkpt lat="46.0741630" lon="10.4907740">
	<ele>2265.80</ele>
	<time>2023-08-06T11:11:09.000Z</time>
</trkpt>
<trkpt lat="46.0741640" lon="10.4907700">
	<ele>2265.60</ele>
	<time>2023-08-06T11:11:10.000Z</time>
</trkpt>
<trkpt lat="46.0741630" lon="10.4907650">
	<ele>2265.40</ele>
	<time>2023-08-06T11:11:11.000Z</time>
</trkpt>
<trkpt lat="46.0741590" lon="10.4907550">
	<ele>2265.40</ele>
	<time>2023-08-06T11:11:12.000Z</time>
</trkpt>
<trkpt lat="46.0741570" lon="10.4907460">
	<ele>2265.20</ele>
	<time>2023-08-06T11:11:13.000Z</time>
</trkpt>
<trkpt lat="46.0741570" lon="10.4907370">
	<ele>2264.80</ele>
	<time>2023-08-06T11:11:14.000Z</time>
</trkpt>
<trkpt lat="46.0741560" lon="10.4907290">
	<ele>2264.40</ele>
	<time>2023-08-06T11:11:15.000Z</time>
</trkpt>
<trkpt lat="46.0741600" lon="10.4907240">
	<ele>2264.20</ele>
	<time>2023-08-06T11:11:16.000Z</time>
</trkpt>
<trkpt lat="46.0741710" lon="10.4907190">
	<ele>2263.80</ele>
	<time>2023-08-06T11:11:17.000Z</time>
</trkpt>
<trkpt lat="46.0741760" lon="10.4907160">
	<ele>2263.40</ele>
	<time>2023-08-06T11:11:18.000Z</time>
</trkpt>
<trkpt lat="46.0741840" lon="10.4907130">
	<ele>2263.20</ele>
	<time>2023-08-06T11:11:19.000Z</time>
</trkpt>
<trkpt lat="46.0741900" lon="10.4907140">
	<ele>2263.00</ele>
	<time>2023-08-06T11:11:20.000Z</time>
</trkpt>
<trkpt lat="46.0741880" lon="10.4907130">
	<ele>2262.80</ele>
	<time>2023-08-06T11:11:21.000Z</time>
</trkpt>
<trkpt lat="46.0741880" lon="10.4907100">
	<ele>2262.60</ele>
	<time>2023-08-06T11:11:22.000Z</time>
</trkpt>
<trkpt lat="46.0741900" lon="10.4907090">
	<ele>2262.60</ele>
	<time>2023-08-06T11:11:23.000Z</time>
</trkpt>
<trkpt lat="46.0741920" lon="10.4907090">
	<ele>2262.40</ele>
	<time>2023-08-06T11:11:24.000Z</time>
</trkpt>
<trkpt lat="46.0741940" lon="10.4907080">
	<ele>2261.80</ele>
	<time>2023-08-06T11:11:25.000Z</time>
</trkpt>
<trkpt lat="46.0741980" lon="10.4907070">
	<ele>2261.60</ele>
	<time>2023-08-06T11:11:26.000Z</time>
</trkpt>
<trkpt lat="46.0742060" lon="10.4906990">
	<ele>2261.40</ele>
	<time>2023-08-06T11:11:27.000Z</time>
</trkpt>
<trkpt lat="46.0742130" lon="10.4907000">
	<ele>2261.20</ele>
	<time>2023-08-06T11:11:28.000Z</time>
</trkpt>
<trkpt lat="46.0742170" lon="10.4907010">
	<ele>2260.80</ele>
	<time>2023-08-06T11:11:29.000Z</time>
</trkpt>
<trkpt lat="46.0742230" lon="10.4907000">
	<ele>2260.60</ele>
	<time>2023-08-06T11:11:30.000Z</time>
</trkpt>
<trkpt lat="46.0742290" lon="10.4907020">
	<ele>2260.60</ele>
	<time>2023-08-06T11:11:31.000Z</time>
</trkpt>
<trkpt lat="46.0742330" lon="10.4907040">
	<ele>2260.60</ele>
	<time>2023-08-06T11:11:32.000Z</time>
</trkpt>
<trkpt lat="46.0742360" lon="10.4907040">
	<ele>2260.40</ele>
	<time>2023-08-06T11:11:33.000Z</time>
</trkpt>
<trkpt lat="46.0742400" lon="10.4907000">
	<ele>2260.40</ele>
	<time>2023-08-06T11:11:34.000Z</time>
</trkpt>
<trkpt lat="46.0742420" lon="10.4906920">
	<ele>2260.40</ele>
	<time>2023-08-06T11:11:35.000Z</time>
</trkpt>
<trkpt lat="46.0742430" lon="10.4906880">
	<ele>2260.40</ele>
	<time>2023-08-06T11:11:36.000Z</time>
</trkpt>
<trkpt lat="46.0742450" lon="10.4906850">
	<ele>2260.20</ele>
	<time>2023-08-06T11:11:37.000Z</time>
</trkpt>
<trkpt lat="46.0742480" lon="10.4906820">
	<ele>2259.80</ele>
	<time>2023-08-06T11:11:38.000Z</time>
</trkpt>
<trkpt lat="46.0742510" lon="10.4906760">
	<ele>2259.40</ele>
	<time>2023-08-06T11:11:39.000Z</time>
</trkpt>
<trkpt lat="46.0742550" lon="10.4906690">
	<ele>2259.00</ele>
	<time>2023-08-06T11:11:40.000Z</time>
</trkpt>
<trkpt lat="46.0742570" lon="10.4906580">
	<ele>2258.80</ele>
	<time>2023-08-06T11:11:41.000Z</time>
</trkpt>
<trkpt lat="46.0742610" lon="10.4906500">
	<ele>2258.60</ele>
	<time>2023-08-06T11:11:42.000Z</time>
</trkpt>
<trkpt lat="46.0742670" lon="10.4906470">
	<ele>2258.60</ele>
	<time>2023-08-06T11:11:43.000Z</time>
</trkpt>
<trkpt lat="46.0742720" lon="10.4906480">
	<ele>2258.00</ele>
	<time>2023-08-06T11:11:44.000Z</time>
</trkpt>
<trkpt lat="46.0742760" lon="10.4906510">
	<ele>2257.80</ele>
	<time>2023-08-06T11:11:45.000Z</time>
</trkpt>
<trkpt lat="46.0742790" lon="10.4906510">
	<ele>2257.60</ele>
	<time>2023-08-06T11:11:46.000Z</time>
</trkpt>
<trkpt lat="46.0742820" lon="10.4906460">
	<ele>2257.40</ele>
	<time>2023-08-06T11:11:47.000Z</time>
</trkpt>
<trkpt lat="46.0742860" lon="10.4906430">
	<ele>2257.40</ele>
	<time>2023-08-06T11:11:48.000Z</time>
</trkpt>
<trkpt lat="46.0742900" lon="10.4906430">
	<ele>2257.40</ele>
	<time>2023-08-06T11:11:49.000Z</time>
</trkpt>
<trkpt lat="46.0742930" lon="10.4906430">
	<ele>2257.40</ele>
	<time>2023-08-06T11:11:50.000Z</time>
</trkpt>
<trkpt lat="46.0742950" lon="10.4906420">
	<ele>2257.00</ele>
	<time>2023-08-06T11:11:51.000Z</time>
</trkpt>
<trkpt lat="46.0742960" lon="10.4906360">
	<ele>2256.60</ele>
	<time>2023-08-06T11:11:52.000Z</time>
</trkpt>
<trkpt lat="46.0742990" lon="10.4906280">
	<ele>2256.40</ele>
	<time>2023-08-06T11:11:53.000Z</time>
</trkpt>
<trkpt lat="46.0743030" lon="10.4906290">
	<ele>2256.40</ele>
	<time>2023-08-06T11:11:54.000Z</time>
</trkpt>
<trkpt lat="46.0743080" lon="10.4906320">
	<ele>2256.20</ele>
	<time>2023-08-06T11:11:55.000Z</time>
</trkpt>
<trkpt lat="46.0743100" lon="10.4906330">
	<ele>2255.80</ele>
	<time>2023-08-06T11:11:56.000Z</time>
</trkpt>
<trkpt lat="46.0743110" lon="10.4906310">
	<ele>2255.60</ele>
	<time>2023-08-06T11:11:57.000Z</time>
</trkpt>
<trkpt lat="46.0743130" lon="10.4906270">
	<ele>2255.60</ele>
	<time>2023-08-06T11:11:58.000Z</time>
</trkpt>
<trkpt lat="46.0743130" lon="10.4906210">
	<ele>2255.40</ele>
	<time>2023-08-06T11:11:59.000Z</time>
</trkpt>
<trkpt lat="46.0743110" lon="10.4906100">
	<ele>2255.40</ele>
	<time>2023-08-06T11:12:00.000Z</time>
</trkpt>
<trkpt lat="46.0743080" lon="10.4906030">
	<ele>2255.40</ele>
	<time>2023-08-06T11:12:01.000Z</time>
</trkpt>
<trkpt lat="46.0743050" lon="10.4906020">
	<ele>2255.00</ele>
	<time>2023-08-06T11:12:02.000Z</time>
</trkpt>
<trkpt lat="46.0743020" lon="10.4905960">
	<ele>2254.80</ele>
	<time>2023-08-06T11:12:03.000Z</time>
</trkpt>
<trkpt lat="46.0742970" lon="10.4905900">
	<ele>2254.80</ele>
	<time>2023-08-06T11:12:04.000Z</time>
</trkpt>
<trkpt lat="46.0742930" lon="10.4905850">
	<ele>2254.60</ele>
	<time>2023-08-06T11:12:05.000Z</time>
</trkpt>
<trkpt lat="46.0742890" lon="10.4905810">
	<ele>2254.60</ele>
	<time>2023-08-06T11:12:06.000Z</time>
</trkpt>
<trkpt lat="46.0742850" lon="10.4905750">
	<ele>2254.60</ele>
	<time>2023-08-06T11:12:07.000Z</time>
</trkpt>
<trkpt lat="46.0742810" lon="10.4905700">
	<ele>2254.60</ele>
	<time>2023-08-06T11:12:08.000Z</time>
</trkpt>
<trkpt lat="46.0742780" lon="10.4905670">
	<ele>2254.60</ele>
	<time>2023-08-06T11:12:09.000Z</time>
</trkpt>
<trkpt lat="46.0742780" lon="10.4905640">
	<ele>2254.60</ele>
	<time>2023-08-06T11:12:10.000Z</time>
</trkpt>
<trkpt lat="46.0742780" lon="10.4905590">
	<ele>2254.60</ele>
	<time>2023-08-06T11:12:11.000Z</time>
</trkpt>
<trkpt lat="46.0742780" lon="10.4905510">
	<ele>2254.40</ele>
	<time>2023-08-06T11:12:12.000Z</time>
</trkpt>
<trkpt lat="46.0742800" lon="10.4905410">
	<ele>2254.20</ele>
	<time>2023-08-06T11:12:13.000Z</time>
</trkpt>
<trkpt lat="46.0742840" lon="10.4905340">
	<ele>2254.00</ele>
	<time>2023-08-06T11:12:14.000Z</time>
</trkpt>
<trkpt lat="46.0742880" lon="10.4905300">
	<ele>2253.60</ele>
	<time>2023-08-06T11:12:15.000Z</time>
</trkpt>
<trkpt lat="46.0742900" lon="10.4905240">
	<ele>2253.40</ele>
	<time>2023-08-06T11:12:16.000Z</time>
</trkpt>
<trkpt lat="46.0742920" lon="10.4905170">
	<ele>2253.40</ele>
	<time>2023-08-06T11:12:17.000Z</time>
</trkpt>
<trkpt lat="46.0742940" lon="10.4905090">
	<ele>2253.20</ele>
	<time>2023-08-06T11:12:18.000Z</time>
</trkpt>
<trkpt lat="46.0742990" lon="10.4905000">
	<ele>2253.20</ele>
	<time>2023-08-06T11:12:19.000Z</time>
</trkpt>
<trkpt lat="46.0743070" lon="10.4905000">
	<ele>2253.00</ele>
	<time>2023-08-06T11:12:20.000Z</time>
</trkpt>
<trkpt lat="46.0743100" lon="10.4905030">
	<ele>2253.00</ele>
	<time>2023-08-06T11:12:21.000Z</time>
</trkpt>
<trkpt lat="46.0743100" lon="10.4905050">
	<ele>2252.80</ele>
	<time>2023-08-06T11:12:22.000Z</time>
</trkpt>
<trkpt lat="46.0743080" lon="10.4905050">
	<ele>2252.80</ele>
	<time>2023-08-06T11:12:23.000Z</time>
</trkpt>
<trkpt lat="46.0743050" lon="10.4905030">
	<ele>2252.80</ele>
	<time>2023-08-06T11:12:24.000Z</time>
</trkpt>
<trkpt lat="46.0743040" lon="10.4904990">
	<ele>2252.80</ele>
	<time>2023-08-06T11:12:25.000Z</time>
</trkpt>
<trkpt lat="46.0742970" lon="10.4904960">
	<ele>2252.80</ele>
	<time>2023-08-06T11:12:26.000Z</time>
</trkpt>
<trkpt lat="46.0742930" lon="10.4904930">
	<ele>2252.80</ele>
	<time>2023-08-06T11:12:27.000Z</time>
</trkpt>
<trkpt lat="46.0742860" lon="10.4904850">
	<ele>2252.80</ele>
	<time>2023-08-06T11:12:28.000Z</time>
</trkpt>
<trkpt lat="46.0742830" lon="10.4904750">
	<ele>2252.60</ele>
	<time>2023-08-06T11:12:29.000Z</time>
</trkpt>
<trkpt lat="46.0742800" lon="10.4904610">
	<ele>2252.40</ele>
	<time>2023-08-06T11:12:30.000Z</time>
</trkpt>
<trkpt lat="46.0742800" lon="10.4904500">
	<ele>2252.40</ele>
	<time>2023-08-06T11:12:31.000Z</time>
</trkpt>
<trkpt lat="46.0742850" lon="10.4904400">
	<ele>2252.20</ele>
	<time>2023-08-06T11:12:32.000Z</time>
</trkpt>
<trkpt lat="46.0742960" lon="10.4904290">
	<ele>2252.20</ele>
	<time>2023-08-06T11:12:33.000Z</time>
</trkpt>
<trkpt lat="46.0743030" lon="10.4904210">
	<ele>2252.00</ele>
	<time>2023-08-06T11:12:34.000Z</time>
</trkpt>
<trkpt lat="46.0743140" lon="10.4904130">
	<ele>2251.80</ele>
	<time>2023-08-06T11:12:35.000Z</time>
</trkpt>
<trkpt lat="46.0743240" lon="10.4904050">
	<ele>2251.80</ele>
	<time>2023-08-06T11:12:36.000Z</time>
</trkpt>
<trkpt lat="46.0743310" lon="10.4903980">
	<ele>2251.60</ele>
	<time>2023-08-06T11:12:37.000Z</time>
</trkpt>
<trkpt lat="46.0743370" lon="10.4903900">
	<ele>2251.60</ele>
	<time>2023-08-06T11:12:38.000Z</time>
</trkpt>
<trkpt lat="46.0743410" lon="10.4903810">
	<ele>2251.60</ele>
	<time>2023-08-06T11:12:39.000Z</time>
</trkpt>
<trkpt lat="46.0743460" lon="10.4903740">
	<ele>2251.60</ele>
	<time>2023-08-06T11:12:40.000Z</time>
</trkpt>
<trkpt lat="46.0743510" lon="10.4903640">
	<ele>2251.40</ele>
	<time>2023-08-06T11:12:41.000Z</time>
</trkpt>
<trkpt lat="46.0743560" lon="10.4903510">
	<ele>2251.40</ele>
	<time>2023-08-06T11:12:42.000Z</time>
</trkpt>
<trkpt lat="46.0743580" lon="10.4903390">
	<ele>2251.40</ele>
	<time>2023-08-06T11:12:43.000Z</time>
</trkpt>
<trkpt lat="46.0743610" lon="10.4903250">
	<ele>2251.40</ele>
	<time>2023-08-06T11:12:44.000Z</time>
</trkpt>
<trkpt lat="46.0743650" lon="10.4903140">
	<ele>2251.40</ele>
	<time>2023-08-06T11:12:45.000Z</time>
</trkpt>
<trkpt lat="46.0743690" lon="10.4903070">
	<ele>2251.40</ele>
	<time>2023-08-06T11:12:46.000Z</time>
</trkpt>
<trkpt lat="46.0743720" lon="10.4903020">
	<ele>2251.40</ele>
	<time>2023-08-06T11:12:47.000Z</time>
</trkpt>
<trkpt lat="46.0743750" lon="10.4903000">
	<ele>2251.40</ele>
	<time>2023-08-06T11:12:48.000Z</time>
</trkpt>
<trkpt lat="46.0743770" lon="10.4902980">
	<ele>2251.40</ele>
	<time>2023-08-06T11:12:49.000Z</time>
</trkpt>
<trkpt lat="46.0743820" lon="10.4902980">
	<ele>2251.20</ele>
	<time>2023-08-06T11:12:50.000Z</time>
</trkpt>
<trkpt lat="46.0743860" lon="10.4902960">
	<ele>2250.80</ele>
	<time>2023-08-06T11:12:51.000Z</time>
</trkpt>
<trkpt lat="46.0743880" lon="10.4902890">
	<ele>2250.80</ele>
	<time>2023-08-06T11:12:52.000Z</time>
</trkpt>
<trkpt lat="46.0743940" lon="10.4902800">
	<ele>2250.60</ele>
	<time>2023-08-06T11:12:53.000Z</time>
</trkpt>
<trkpt lat="46.0744000" lon="10.4902760">
	<ele>2250.60</ele>
	<time>2023-08-06T11:12:54.000Z</time>
</trkpt>
<trkpt lat="46.0744040" lon="10.4902710">
	<ele>2250.40</ele>
	<time>2023-08-06T11:12:55.000Z</time>
</trkpt>
<trkpt lat="46.0744080" lon="10.4902680">
	<ele>2250.20</ele>
	<time>2023-08-06T11:12:56.000Z</time>
</trkpt>
<trkpt lat="46.0744100" lon="10.4902650">
	<ele>2250.20</ele>
	<time>2023-08-06T11:12:57.000Z</time>
</trkpt>
<trkpt lat="46.0744150" lon="10.4902640">
	<ele>2250.40</ele>
	<time>2023-08-06T11:12:58.000Z</time>
</trkpt>
<trkpt lat="46.0744170" lon="10.4902640">
	<ele>2250.40</ele>
	<time>2023-08-06T11:12:59.000Z</time>
</trkpt>
<trkpt lat="46.0744170" lon="10.4902650">
	<ele>2250.60</ele>
	<time>2023-08-06T11:13:00.000Z</time>
</trkpt>
<trkpt lat="46.0744170" lon="10.4902630">
	<ele>2250.60</ele>
	<time>2023-08-06T11:13:01.000Z</time>
</trkpt>
<trkpt lat="46.0744180" lon="10.4902630">
	<ele>2250.60</ele>
	<time>2023-08-06T11:13:02.000Z</time>
</trkpt>
<trkpt lat="46.0744200" lon="10.4902610">
	<ele>2250.60</ele>
	<time>2023-08-06T11:13:03.000Z</time>
</trkpt>
<trkpt lat="46.0744200" lon="10.4902570">
	<ele>2250.60</ele>
	<time>2023-08-06T11:13:04.000Z</time>
</trkpt>
<trkpt lat="46.0744220" lon="10.4902540">
	<ele>2250.40</ele>
	<time>2023-08-06T11:13:05.000Z</time>
</trkpt>
<trkpt lat="46.0744260" lon="10.4902490">
	<ele>2250.00</ele>
	<time>2023-08-06T11:13:06.000Z</time>
</trkpt>
<trkpt lat="46.0744290" lon="10.4902400">
	<ele>2249.80</ele>
	<time>2023-08-06T11:13:07.000Z</time>
</trkpt>
<trkpt lat="46.0744320" lon="10.4902320">
	<ele>2249.60</ele>
	<time>2023-08-06T11:13:08.000Z</time>
</trkpt>
<trkpt lat="46.0744380" lon="10.4902260">
	<ele>2249.60</ele>
	<time>2023-08-06T11:13:09.000Z</time>
</trkpt>
<trkpt lat="46.0744460" lon="10.4902200">
	<ele>2249.40</ele>
	<time>2023-08-06T11:13:10.000Z</time>
</trkpt>
<trkpt lat="46.0744530" lon="10.4902150">
	<ele>2249.40</ele>
	<time>2023-08-06T11:13:11.000Z</time>
</trkpt>
<trkpt lat="46.0744600" lon="10.4902120">
	<ele>2249.40</ele>
	<time>2023-08-06T11:13:12.000Z</time>
</trkpt>
<trkpt lat="46.0744690" lon="10.4902130">
	<ele>2249.20</ele>
	<time>2023-08-06T11:13:13.000Z</time>
</trkpt>
<trkpt lat="46.0744740" lon="10.4902150">
	<ele>2249.20</ele>
	<time>2023-08-06T11:13:14.000Z</time>
</trkpt>
<trkpt lat="46.0744800" lon="10.4902150">
	<ele>2249.20</ele>
	<time>2023-08-06T11:13:15.000Z</time>
</trkpt>
<trkpt lat="46.0744830" lon="10.4902160">
	<ele>2249.20</ele>
	<time>2023-08-06T11:13:16.000Z</time>
</trkpt>
<trkpt lat="46.0744860" lon="10.4902180">
	<ele>2249.00</ele>
	<time>2023-08-06T11:13:17.000Z</time>
</trkpt>
<trkpt lat="46.0744880" lon="10.4902190">
	<ele>2249.00</ele>
	<time>2023-08-06T11:13:18.000Z</time>
</trkpt>
<trkpt lat="46.0744890" lon="10.4902200">
	<ele>2248.80</ele>
	<time>2023-08-06T11:13:19.000Z</time>
</trkpt>
<trkpt lat="46.0744910" lon="10.4902210">
	<ele>2248.60</ele>
	<time>2023-08-06T11:13:20.000Z</time>
</trkpt>
<trkpt lat="46.0744950" lon="10.4902230">
	<ele>2248.40</ele>
	<time>2023-08-06T11:13:21.000Z</time>
</trkpt>
<trkpt lat="46.0744990" lon="10.4902270">
	<ele>2248.40</ele>
	<time>2023-08-06T11:13:22.000Z</time>
</trkpt>
<trkpt lat="46.0745040" lon="10.4902280">
	<ele>2248.20</ele>
	<time>2023-08-06T11:13:23.000Z</time>
</trkpt>
<trkpt lat="46.0745070" lon="10.4902290">
	<ele>2248.20</ele>
	<time>2023-08-06T11:13:24.000Z</time>
</trkpt>
<trkpt lat="46.0745110" lon="10.4902370">
	<ele>2247.80</ele>
	<time>2023-08-06T11:13:25.000Z</time>
</trkpt>
<trkpt lat="46.0745130" lon="10.4902410">
	<ele>2247.80</ele>
	<time>2023-08-06T11:13:26.000Z</time>
</trkpt>
<trkpt lat="46.0745140" lon="10.4902440">
	<ele>2247.60</ele>
	<time>2023-08-06T11:13:27.000Z</time>
</trkpt>
<trkpt lat="46.0745170" lon="10.4902470">
	<ele>2247.60</ele>
	<time>2023-08-06T11:13:28.000Z</time>
</trkpt>
<trkpt lat="46.0745200" lon="10.4902550">
	<ele>2247.40</ele>
	<time>2023-08-06T11:13:29.000Z</time>
</trkpt>
<trkpt lat="46.0745230" lon="10.4902610">
	<ele>2247.20</ele>
	<time>2023-08-06T11:13:30.000Z</time>
</trkpt>
<trkpt lat="46.0745270" lon="10.4902610">
	<ele>2246.80</ele>
	<time>2023-08-06T11:13:31.000Z</time>
</trkpt>
<trkpt lat="46.0745310" lon="10.4902640">
	<ele>2246.60</ele>
	<time>2023-08-06T11:13:32.000Z</time>
</trkpt>
<trkpt lat="46.0745330" lon="10.4902660">
	<ele>2246.40</ele>
	<time>2023-08-06T11:13:33.000Z</time>
</trkpt>
<trkpt lat="46.0745360" lon="10.4902660">
	<ele>2246.20</ele>
	<time>2023-08-06T11:13:34.000Z</time>
</trkpt>
<trkpt lat="46.0745370" lon="10.4902660">
	<ele>2246.20</ele>
	<time>2023-08-06T11:13:35.000Z</time>
</trkpt>
<trkpt lat="46.0745360" lon="10.4902620">
	<ele>2246.00</ele>
	<time>2023-08-06T11:13:36.000Z</time>
</trkpt>
<trkpt lat="46.0745330" lon="10.4902580">
	<ele>2245.80</ele>
	<time>2023-08-06T11:13:37.000Z</time>
</trkpt>
<trkpt lat="46.0745320" lon="10.4902530">
	<ele>2245.80</ele>
	<time>2023-08-06T11:13:38.000Z</time>
</trkpt>
<trkpt lat="46.0745340" lon="10.4902460">
	<ele>2245.80</ele>
	<time>2023-08-06T11:13:39.000Z</time>
</trkpt>
<trkpt lat="46.0745380" lon="10.4902340">
	<ele>2245.60</ele>
	<time>2023-08-06T11:13:40.000Z</time>
</trkpt>
<trkpt lat="46.0745410" lon="10.4902270">
	<ele>2245.60</ele>
	<time>2023-08-06T11:13:41.000Z</time>
</trkpt>
<trkpt lat="46.0745430" lon="10.4902230">
	<ele>2245.60</ele>
	<time>2023-08-06T11:13:42.000Z</time>
</trkpt>
<trkpt lat="46.0745460" lon="10.4902190">
	<ele>2245.40</ele>
	<time>2023-08-06T11:13:43.000Z</time>
</trkpt>
<trkpt lat="46.0745460" lon="10.4902150">
	<ele>2245.40</ele>
	<time>2023-08-06T11:13:44.000Z</time>
</trkpt>
<trkpt lat="46.0745470" lon="10.4902100">
	<ele>2245.20</ele>
	<time>2023-08-06T11:13:45.000Z</time>
</trkpt>
<trkpt lat="46.0745500" lon="10.4902050">
	<ele>2245.00</ele>
	<time>2023-08-06T11:13:46.000Z</time>
</trkpt>
<trkpt lat="46.0745510" lon="10.4902020">
	<ele>2244.80</ele>
	<time>2023-08-06T11:13:47.000Z</time>
</trkpt>
<trkpt lat="46.0745540" lon="10.4901990">
	<ele>2244.60</ele>
	<time>2023-08-06T11:13:48.000Z</time>
</trkpt>
<trkpt lat="46.0745570" lon="10.4901950">
	<ele>2244.40</ele>
	<time>2023-08-06T11:13:49.000Z</time>
</trkpt>
<trkpt lat="46.0745640" lon="10.4901930">
	<ele>2244.40</ele>
	<time>2023-08-06T11:13:50.000Z</time>
</trkpt>
<trkpt lat="46.0745670" lon="10.4901900">
	<ele>2244.00</ele>
	<time>2023-08-06T11:13:51.000Z</time>
</trkpt>
<trkpt lat="46.0745670" lon="10.4901880">
	<ele>2243.60</ele>
	<time>2023-08-06T11:13:52.000Z</time>
</trkpt>
<trkpt lat="46.0745650" lon="10.4901880">
	<ele>2243.60</ele>
	<time>2023-08-06T11:13:53.000Z</time>
</trkpt>
<trkpt lat="46.0745610" lon="10.4901880">
	<ele>2243.40</ele>
	<time>2023-08-06T11:13:54.000Z</time>
</trkpt>
<trkpt lat="46.0745600" lon="10.4901880">
	<ele>2243.40</ele>
	<time>2023-08-06T11:13:55.000Z</time>
</trkpt>
<trkpt lat="46.0745600" lon="10.4901880">
	<ele>2243.40</ele>
	<time>2023-08-06T11:13:56.000Z</time>
</trkpt>
<trkpt lat="46.0745600" lon="10.4901880">
	<ele>2243.40</ele>
	<time>2023-08-06T11:13:57.000Z</time>
</trkpt>
<trkpt lat="46.0745600" lon="10.4901880">
	<ele>2243.60</ele>
	<time>2023-08-06T11:13:58.000Z</time>
</trkpt>
<trkpt lat="46.0745600" lon="10.4901880">
	<ele>2243.60</ele>
	<time>2023-08-06T11:13:59.000Z</time>
</trkpt>
<trkpt lat="46.0745600" lon="10.4901880">
	<ele>2243.60</ele>
	<time>2023-08-06T11:14:00.000Z</time>
</trkpt>
<trkpt lat="46.0745600" lon="10.4901880">
	<ele>2243.60</ele>
	<time>2023-08-06T11:14:01.000Z</time>
</trkpt>
<trkpt lat="46.0745600" lon="10.4901880">
	<ele>2243.60</ele>
	<time>2023-08-06T11:14:02.000Z</time>
</trkpt>
<trkpt lat="46.0745600" lon="10.4901880">
	<ele>2243.60</ele>
	<time>2023-08-06T11:14:03.000Z</time>
</trkpt>
<trkpt lat="46.0745600" lon="10.4901880">
	<ele>2243.60</ele>
	<time>2023-08-06T11:14:04.000Z</time>
</trkpt>
<trkpt lat="46.0745600" lon="10.4901880">
	<ele>2243.60</ele>
	<time>2023-08-06T11:14:05.000Z</time>
</trkpt>
<trkpt lat="46.0745600" lon="10.4901880">
	<ele>2243.60</ele>
	<time>2023-08-06T11:14:06.000Z</time>
</trkpt>
<trkpt lat="46.0745600" lon="10.4901890">
	<ele>2243.60</ele>
	<time>2023-08-06T11:14:07.000Z</time>
</trkpt>
<trkpt lat="46.0745600" lon="10.4901900">
	<ele>2243.60</ele>
	<time>2023-08-06T11:14:08.000Z</time>
</trkpt>
<trkpt lat="46.0745600" lon="10.4901900">
	<ele>2243.60</ele>
	<time>2023-08-06T11:14:09.000Z</time>
</trkpt>
<trkpt lat="46.0745600" lon="10.4901910">
	<ele>2243.60</ele>
	<time>2023-08-06T11:14:10.000Z</time>
</trkpt>
<trkpt lat="46.0745600" lon="10.4901910">
	<ele>2243.80</ele>
	<time>2023-08-06T11:14:11.000Z</time>
</trkpt>
<trkpt lat="46.0745600" lon="10.4901910">
	<ele>2243.80</ele>
	<time>2023-08-06T11:14:12.000Z</time>
</trkpt>
<trkpt lat="46.0745600" lon="10.4901910">
	<ele>2243.80</ele>
	<time>2023-08-06T11:14:13.000Z</time>
</trkpt>
<trkpt lat="46.0745600" lon="10.4901910">
	<ele>2244.00</ele>
	<time>2023-08-06T11:14:14.000Z</time>
</trkpt>
<trkpt lat="46.0745600" lon="10.4901910">
	<ele>2244.00</ele>
	<time>2023-08-06T11:14:15.000Z</time>
</trkpt>
<trkpt lat="46.0745600" lon="10.4901920">
	<ele>2244.00</ele>
	<time>2023-08-06T11:14:16.000Z</time>
</trkpt>
<trkpt lat="46.0745590" lon="10.4901920">
	<ele>2244.00</ele>
	<time>2023-08-06T11:14:17.000Z</time>
</trkpt>
<trkpt lat="46.0745590" lon="10.4901920">
	<ele>2244.00</ele>
	<time>2023-08-06T11:14:18.000Z</time>
</trkpt>
<trkpt lat="46.0745590" lon="10.4901920">
	<ele>2244.00</ele>
	<time>2023-08-06T11:14:19.000Z</time>
</trkpt>
<trkpt lat="46.0745590" lon="10.4901920">
	<ele>2244.00</ele>
	<time>2023-08-06T11:14:20.000Z</time>
</trkpt>
<trkpt lat="46.0745580" lon="10.4901920">
	<ele>2244.00</ele>
	<time>2023-08-06T11:14:21.000Z</time>
</trkpt>
<trkpt lat="46.0745580" lon="10.4901920">
	<ele>2244.00</ele>
	<time>2023-08-06T11:14:22.000Z</time>
</trkpt>
<trkpt lat="46.0745580" lon="10.4901920">
	<ele>2244.00</ele>
	<time>2023-08-06T11:14:23.000Z</time>
</trkpt>
<trkpt lat="46.0745580" lon="10.4901930">
	<ele>2244.00</ele>
	<time>2023-08-06T11:14:24.000Z</time>
</trkpt>
<trkpt lat="46.0745570" lon="10.4901930">
	<ele>2244.00</ele>
	<time>2023-08-06T11:14:25.000Z</time>
</trkpt>
<trkpt lat="46.0745570" lon="10.4901930">
	<ele>2244.00</ele>
	<time>2023-08-06T11:14:26.000Z</time>
</trkpt>
<trkpt lat="46.0745560" lon="10.4901930">
	<ele>2243.80</ele>
	<time>2023-08-06T11:14:27.000Z</time>
</trkpt>
<trkpt lat="46.0745500" lon="10.4901930">
	<ele>2243.80</ele>
	<time>2023-08-06T11:14:28.000Z</time>
</trkpt>
<trkpt lat="46.0745500" lon="10.4901930">
	<ele>2243.80</ele>
	<time>2023-08-06T11:14:29.000Z</time>
</trkpt>
<trkpt lat="46.0745490" lon="10.4901930">
	<ele>2243.80</ele>
	<time>2023-08-06T11:14:30.000Z</time>
</trkpt>
<trkpt lat="46.0745490" lon="10.4901930">
	<ele>2243.80</ele>
	<time>2023-08-06T11:14:31.000Z</time>
</trkpt>
<trkpt lat="46.0745490" lon="10.4901930">
	<ele>2243.80</ele>
	<time>2023-08-06T11:14:32.000Z</time>
</trkpt>
<trkpt lat="46.0745490" lon="10.4901920">
	<ele>2243.80</ele>
	<time>2023-08-06T11:14:33.000Z</time>
</trkpt>
<trkpt lat="46.0745490" lon="10.4901920">
	<ele>2243.80</ele>
	<time>2023-08-06T11:14:34.000Z</time>
</trkpt>
<trkpt lat="46.0745490" lon="10.4901920">
	<ele>2243.80</ele>
	<time>2023-08-06T11:14:35.000Z</time>
</trkpt>
<trkpt lat="46.0745490" lon="10.4901910">
	<ele>2243.80</ele>
	<time>2023-08-06T11:14:36.000Z</time>
</trkpt>
<trkpt lat="46.0745490" lon="10.4901910">
	<ele>2243.80</ele>
	<time>2023-08-06T11:14:37.000Z</time>
</trkpt>
<trkpt lat="46.0745490" lon="10.4901910">
	<ele>2243.80</ele>
	<time>2023-08-06T11:14:38.000Z</time>
</trkpt>
<trkpt lat="46.0745490" lon="10.4901910">
	<ele>2243.80</ele>
	<time>2023-08-06T11:14:39.000Z</time>
</trkpt>
<trkpt lat="46.0745490" lon="10.4901910">
	<ele>2243.80</ele>
	<time>2023-08-06T11:14:40.000Z</time>
</trkpt>
<trkpt lat="46.0745490" lon="10.4901910">
	<ele>2243.80</ele>
	<time>2023-08-06T11:14:41.000Z</time>
</trkpt>
<trkpt lat="46.0745490" lon="10.4901910">
	<ele>2243.80</ele>
	<time>2023-08-06T11:14:42.000Z</time>
</trkpt>
<trkpt lat="46.0745500" lon="10.4901910">
	<ele>2243.80</ele>
	<time>2023-08-06T11:14:43.000Z</time>
</trkpt>
<trkpt lat="46.0745510" lon="10.4901900">
	<ele>2243.80</ele>
	<time>2023-08-06T11:14:44.000Z</time>
</trkpt>
<trkpt lat="46.0745520" lon="10.4901890">
	<ele>2243.80</ele>
	<time>2023-08-06T11:14:45.000Z</time>
</trkpt>
<trkpt lat="46.0745530" lon="10.4901870">
	<ele>2243.80</ele>
	<time>2023-08-06T11:14:46.000Z</time>
</trkpt>
<trkpt lat="46.0745540" lon="10.4901850">
	<ele>2243.80</ele>
	<time>2023-08-06T11:14:47.000Z</time>
</trkpt>
<trkpt lat="46.0745550" lon="10.4901830">
	<ele>2243.80</ele>
	<time>2023-08-06T11:14:48.000Z</time>
</trkpt>
<trkpt lat="46.0745550" lon="10.4901820">
	<ele>2243.60</ele>
	<time>2023-08-06T11:14:49.000Z</time>
</trkpt>
<trkpt lat="46.0745550" lon="10.4901800">
	<ele>2243.60</ele>
	<time>2023-08-06T11:14:50.000Z</time>
</trkpt>
<trkpt lat="46.0745550" lon="10.4901800">
	<ele>2243.60</ele>
	<time>2023-08-06T11:14:51.000Z</time>
</trkpt>
<trkpt lat="46.0745560" lon="10.4901790">
	<ele>2243.60</ele>
	<time>2023-08-06T11:14:52.000Z</time>
</trkpt>
<trkpt lat="46.0745560" lon="10.4901790">
	<ele>2243.60</ele>
	<time>2023-08-06T11:14:53.000Z</time>
</trkpt>
<trkpt lat="46.0745570" lon="10.4901790">
	<ele>2243.40</ele>
	<time>2023-08-06T11:14:54.000Z</time>
</trkpt>
<trkpt lat="46.0745570" lon="10.4901780">
	<ele>2243.40</ele>
	<time>2023-08-06T11:14:55.000Z</time>
</trkpt>
<trkpt lat="46.0745590" lon="10.4901770">
	<ele>2243.40</ele>
	<time>2023-08-06T11:14:56.000Z</time>
</trkpt>
<trkpt lat="46.0745610" lon="10.4901770">
	<ele>2243.40</ele>
	<time>2023-08-06T11:14:57.000Z</time>
</trkpt>
<trkpt lat="46.0745620" lon="10.4901760">
	<ele>2243.40</ele>
	<time>2023-08-06T11:14:58.000Z</time>
</trkpt>
<trkpt lat="46.0745630" lon="10.4901760">
	<ele>2243.40</ele>
	<time>2023-08-06T11:14:59.000Z</time>
</trkpt>
<trkpt lat="46.0745640" lon="10.4901760">
	<ele>2243.40</ele>
	<time>2023-08-06T11:15:00.000Z</time>
</trkpt>
<trkpt lat="46.0745640" lon="10.4901760">
	<ele>2243.40</ele>
	<time>2023-08-06T11:15:01.000Z</time>
</trkpt>
<trkpt lat="46.0745650" lon="10.4901760">
	<ele>2243.40</ele>
	<time>2023-08-06T11:15:02.000Z</time>
</trkpt>
<trkpt lat="46.0745650" lon="10.4901750">
	<ele>2243.40</ele>
	<time>2023-08-06T11:15:03.000Z</time>
</trkpt>
<trkpt lat="46.0745650" lon="10.4901750">
	<ele>2243.40</ele>
	<time>2023-08-06T11:15:04.000Z</time>
</trkpt>
<trkpt lat="46.0745650" lon="10.4901750">
	<ele>2243.40</ele>
	<time>2023-08-06T11:15:05.000Z</time>
</trkpt>
<trkpt lat="46.0745650" lon="10.4901750">
	<ele>2243.40</ele>
	<time>2023-08-06T11:15:06.000Z</time>
</trkpt>
<trkpt lat="46.0745650" lon="10.4901750">
	<ele>2243.20</ele>
	<time>2023-08-06T11:15:07.000Z</time>
</trkpt>
<trkpt lat="46.0745650" lon="10.4901750">
	<ele>2243.20</ele>
	<time>2023-08-06T11:15:08.000Z</time>
</trkpt>
<trkpt lat="46.0745660" lon="10.4901750">
	<ele>2243.20</ele>
	<time>2023-08-06T11:15:09.000Z</time>
</trkpt>
<trkpt lat="46.0745660" lon="10.4901740">
	<ele>2243.20</ele>
	<time>2023-08-06T11:15:10.000Z</time>
</trkpt>
<trkpt lat="46.0745660" lon="10.4901740">
	<ele>2243.20</ele>
	<time>2023-08-06T11:15:11.000Z</time>
</trkpt>
<trkpt lat="46.0745660" lon="10.4901740">
	<ele>2243.20</ele>
	<time>2023-08-06T11:15:12.000Z</time>
</trkpt>
<trkpt lat="46.0745670" lon="10.4901740">
	<ele>2243.20</ele>
	<time>2023-08-06T11:15:13.000Z</time>
</trkpt>
<trkpt lat="46.0745670" lon="10.4901740">
	<ele>2243.20</ele>
	<time>2023-08-06T11:15:14.000Z</time>
</trkpt>
<trkpt lat="46.0745670" lon="10.4901740">
	<ele>2243.20</ele>
	<time>2023-08-06T11:15:15.000Z</time>
</trkpt>
<trkpt lat="46.0745670" lon="10.4901740">
	<ele>2243.20</ele>
	<time>2023-08-06T11:15:16.000Z</time>
</trkpt>
<trkpt lat="46.0745670" lon="10.4901740">
	<ele>2243.20</ele>
	<time>2023-08-06T11:15:17.000Z</time>
</trkpt>
<trkpt lat="46.0745670" lon="10.4901730">
	<ele>2243.20</ele>
	<time>2023-08-06T11:15:18.000Z</time>
</trkpt>
<trkpt lat="46.0745670" lon="10.4901730">
	<ele>2243.20</ele>
	<time>2023-08-06T11:15:19.000Z</time>
</trkpt>
<trkpt lat="46.0745670" lon="10.4901730">
	<ele>2243.20</ele>
	<time>2023-08-06T11:15:20.000Z</time>
</trkpt>
<trkpt lat="46.0745670" lon="10.4901730">
	<ele>2243.20</ele>
	<time>2023-08-06T11:15:21.000Z</time>
</trkpt>
<trkpt lat="46.0745670" lon="10.4901720">
	<ele>2243.20</ele>
	<time>2023-08-06T11:15:22.000Z</time>
</trkpt>
<trkpt lat="46.0745670" lon="10.4901720">
	<ele>2243.20</ele>
	<time>2023-08-06T11:15:23.000Z</time>
</trkpt>
<trkpt lat="46.0745670" lon="10.4901720">
	<ele>2243.20</ele>
	<time>2023-08-06T11:15:24.000Z</time>
</trkpt>
<trkpt lat="46.0745670" lon="10.4901710">
	<ele>2243.20</ele>
	<time>2023-08-06T11:15:25.000Z</time>
</trkpt>
<trkpt lat="46.0745670" lon="10.4901710">
	<ele>2243.20</ele>
	<time>2023-08-06T11:15:26.000Z</time>
</trkpt>
<trkpt lat="46.0745670" lon="10.4901710">
	<ele>2243.20</ele>
	<time>2023-08-06T11:15:27.000Z</time>
</trkpt>
<trkpt lat="46.0745670" lon="10.4901710">
	<ele>2243.20</ele>
	<time>2023-08-06T11:15:28.000Z</time>
</trkpt>
<trkpt lat="46.0745670" lon="10.4901710">
	<ele>2243.20</ele>
	<time>2023-08-06T11:15:29.000Z</time>
</trkpt>
<trkpt lat="46.0745670" lon="10.4901710">
	<ele>2243.20</ele>
	<time>2023-08-06T11:15:30.000Z</time>
</trkpt>
<trkpt lat="46.0745670" lon="10.4901710">
	<ele>2243.20</ele>
	<time>2023-08-06T11:15:31.000Z</time>
</trkpt>
<trkpt lat="46.0745670" lon="10.4901710">
	<ele>2243.20</ele>
	<time>2023-08-06T11:15:32.000Z</time>
</trkpt>
<trkpt lat="46.0745670" lon="10.4901710">
	<ele>2243.20</ele>
	<time>2023-08-06T11:15:33.000Z</time>
</trkpt>
<trkpt lat="46.0745680" lon="10.4901710">
	<ele>2243.20</ele>
	<time>2023-08-06T11:15:34.000Z</time>
</trkpt>
<trkpt lat="46.0745680" lon="10.4901710">
	<ele>2243.20</ele>
	<time>2023-08-06T11:15:35.000Z</time>
</trkpt>
<trkpt lat="46.0745680" lon="10.4901710">
	<ele>2243.20</ele>
	<time>2023-08-06T11:15:36.000Z</time>
</trkpt>
<trkpt lat="46.0745680" lon="10.4901710">
	<ele>2243.20</ele>
	<time>2023-08-06T11:15:37.000Z</time>
</trkpt>
<trkpt lat="46.0745680" lon="10.4901710">
	<ele>2243.20</ele>
	<time>2023-08-06T11:15:38.000Z</time>
</trkpt>
<trkpt lat="46.0745680" lon="10.4901710">
	<ele>2243.20</ele>
	<time>2023-08-06T11:15:39.000Z</time>
</trkpt>
<trkpt lat="46.0745680" lon="10.4901710">
	<ele>2243.20</ele>
	<time>2023-08-06T11:15:40.000Z</time>
</trkpt>
<trkpt lat="46.0745670" lon="10.4901710">
	<ele>2243.20</ele>
	<time>2023-08-06T11:15:41.000Z</time>
</trkpt>
<trkpt lat="46.0745670" lon="10.4901710">
	<ele>2243.20</ele>
	<time>2023-08-06T11:15:42.000Z</time>
</trkpt>
<trkpt lat="46.0745670" lon="10.4901720">
	<ele>2243.20</ele>
	<time>2023-08-06T11:15:43.000Z</time>
</trkpt>
<trkpt lat="46.0745670" lon="10.4901720">
	<ele>2243.20</ele>
	<time>2023-08-06T11:15:44.000Z</time>
</trkpt>
<trkpt lat="46.0745670" lon="10.4901720">
	<ele>2243.20</ele>
	<time>2023-08-06T11:15:45.000Z</time>
</trkpt>
<trkpt lat="46.0745670" lon="10.4901720">
	<ele>2243.20</ele>
	<time>2023-08-06T11:15:46.000Z</time>
</trkpt>
<trkpt lat="46.0745670" lon="10.4901720">
	<ele>2243.20</ele>
	<time>2023-08-06T11:15:47.000Z</time>
</trkpt>
<trkpt lat="46.0745680" lon="10.4901720">
	<ele>2243.20</ele>
	<time>2023-08-06T11:15:48.000Z</time>
</trkpt>
<trkpt lat="46.0745680" lon="10.4901730">
	<ele>2243.20</ele>
	<time>2023-08-06T11:15:49.000Z</time>
</trkpt>
<trkpt lat="46.0745680" lon="10.4901730">
	<ele>2243.20</ele>
	<time>2023-08-06T11:15:50.000Z</time>
</trkpt>
<trkpt lat="46.0745670" lon="10.4901730">
	<ele>2243.20</ele>
	<time>2023-08-06T11:15:51.000Z</time>
</trkpt>
<trkpt lat="46.0745670" lon="10.4901740">
	<ele>2243.20</ele>
	<time>2023-08-06T11:15:52.000Z</time>
</trkpt>
<trkpt lat="46.0745670" lon="10.4901750">
	<ele>2243.20</ele>
	<time>2023-08-06T11:15:53.000Z</time>
</trkpt>
<trkpt lat="46.0745670" lon="10.4901770">
	<ele>2243.20</ele>
	<time>2023-08-06T11:15:54.000Z</time>
</trkpt>
<trkpt lat="46.0745670" lon="10.4901780">
	<ele>2243.20</ele>
	<time>2023-08-06T11:15:55.000Z</time>
</trkpt>
<trkpt lat="46.0745670" lon="10.4901790">
	<ele>2243.20</ele>
	<time>2023-08-06T11:15:56.000Z</time>
</trkpt>
<trkpt lat="46.0745670" lon="10.4901800">
	<ele>2243.20</ele>
	<time>2023-08-06T11:15:57.000Z</time>
</trkpt>
<trkpt lat="46.0745670" lon="10.4901810">
	<ele>2243.20</ele>
	<time>2023-08-06T11:15:58.000Z</time>
</trkpt>
<trkpt lat="46.0745670" lon="10.4901810">
	<ele>2243.20</ele>
	<time>2023-08-06T11:15:59.000Z</time>
</trkpt>
<trkpt lat="46.0745670" lon="10.4901820">
	<ele>2243.20</ele>
	<time>2023-08-06T11:16:00.000Z</time>
</trkpt>
<trkpt lat="46.0745680" lon="10.4901820">
	<ele>2243.20</ele>
	<time>2023-08-06T11:16:01.000Z</time>
</trkpt>
<trkpt lat="46.0745680" lon="10.4901820">
	<ele>2243.20</ele>
	<time>2023-08-06T11:16:02.000Z</time>
</trkpt>
<trkpt lat="46.0745680" lon="10.4901830">
	<ele>2243.20</ele>
	<time>2023-08-06T11:16:03.000Z</time>
</trkpt>
<trkpt lat="46.0745680" lon="10.4901830">
	<ele>2243.20</ele>
	<time>2023-08-06T11:16:04.000Z</time>
</trkpt>
<trkpt lat="46.0745690" lon="10.4901830">
	<ele>2243.20</ele>
	<time>2023-08-06T11:16:05.000Z</time>
</trkpt>
<trkpt lat="46.0745690" lon="10.4901830">
	<ele>2243.20</ele>
	<time>2023-08-06T11:16:06.000Z</time>
</trkpt>
<trkpt lat="46.0745700" lon="10.4901830">
	<ele>2243.20</ele>
	<time>2023-08-06T11:16:07.000Z</time>
</trkpt>
<trkpt lat="46.0745700" lon="10.4901830">
	<ele>2243.20</ele>
	<time>2023-08-06T11:16:08.000Z</time>
</trkpt>
<trkpt lat="46.0745700" lon="10.4901830">
	<ele>2243.20</ele>
	<time>2023-08-06T11:16:09.000Z</time>
</trkpt>
<trkpt lat="46.0745700" lon="10.4901830">
	<ele>2243.20</ele>
	<time>2023-08-06T11:16:10.000Z</time>
</trkpt>
<trkpt lat="46.0745710" lon="10.4901830">
	<ele>2243.20</ele>
	<time>2023-08-06T11:16:11.000Z</time>
</trkpt>
<trkpt lat="46.0745710" lon="10.4901830">
	<ele>2243.20</ele>
	<time>2023-08-06T11:16:12.000Z</time>
</trkpt>
<trkpt lat="46.0745720" lon="10.4901830">
	<ele>2243.20</ele>
	<time>2023-08-06T11:16:13.000Z</time>
</trkpt>
<trkpt lat="46.0745730" lon="10.4901830">
	<ele>2243.20</ele>
	<time>2023-08-06T11:16:14.000Z</time>
</trkpt>
<trkpt lat="46.0745740" lon="10.4901830">
	<ele>2243.20</ele>
	<time>2023-08-06T11:16:15.000Z</time>
</trkpt>
<trkpt lat="46.0745750" lon="10.4901830">
	<ele>2243.20</ele>
	<time>2023-08-06T11:16:16.000Z</time>
</trkpt>
<trkpt lat="46.0745760" lon="10.4901830">
	<ele>2243.20</ele>
	<time>2023-08-06T11:16:17.000Z</time>
</trkpt>
<trkpt lat="46.0745780" lon="10.4901820">
	<ele>2243.20</ele>
	<time>2023-08-06T11:16:18.000Z</time>
</trkpt>
<trkpt lat="46.0745800" lon="10.4901830">
	<ele>2243.20</ele>
	<time>2023-08-06T11:16:19.000Z</time>
</trkpt>
<trkpt lat="46.0745830" lon="10.4901830">
	<ele>2243.20</ele>
	<time>2023-08-06T11:16:20.000Z</time>
</trkpt>
<trkpt lat="46.0745860" lon="10.4901840">
	<ele>2243.20</ele>
	<time>2023-08-06T11:16:21.000Z</time>
</trkpt>
<trkpt lat="46.0745880" lon="10.4901850">
	<ele>2243.20</ele>
	<time>2023-08-06T11:16:22.000Z</time>
</trkpt>
<trkpt lat="46.0745900" lon="10.4901860">
	<ele>2243.20</ele>
	<time>2023-08-06T11:16:23.000Z</time>
</trkpt>
<trkpt lat="46.0745920" lon="10.4901860">
	<ele>2243.20</ele>
	<time>2023-08-06T11:16:24.000Z</time>
</trkpt>
<trkpt lat="46.0745950" lon="10.4901860">
	<ele>2243.20</ele>
	<time>2023-08-06T11:16:25.000Z</time>
</trkpt>
<trkpt lat="46.0745990" lon="10.4901870">
	<ele>2243.20</ele>
	<time>2023-08-06T11:16:26.000Z</time>
</trkpt>
<trkpt lat="46.0746020" lon="10.4901870">
	<ele>2243.20</ele>
	<time>2023-08-06T11:16:27.000Z</time>
</trkpt>
<trkpt lat="46.0746060" lon="10.4901870">
	<ele>2243.20</ele>
	<time>2023-08-06T11:16:28.000Z</time>
</trkpt>
<trkpt lat="46.0746100" lon="10.4901870">
	<ele>2243.20</ele>
	<time>2023-08-06T11:16:29.000Z</time>
</trkpt>
<trkpt lat="46.0746140" lon="10.4901870">
	<ele>2243.20</ele>
	<time>2023-08-06T11:16:30.000Z</time>
</trkpt>
<trkpt lat="46.0746180" lon="10.4901870">
	<ele>2243.20</ele>
	<time>2023-08-06T11:16:31.000Z</time>
</trkpt>
<trkpt lat="46.0746220" lon="10.4901870">
	<ele>2243.20</ele>
	<time>2023-08-06T11:16:32.000Z</time>
</trkpt>
<trkpt lat="46.0746260" lon="10.4901870">
	<ele>2243.20</ele>
	<time>2023-08-06T11:16:33.000Z</time>
</trkpt>
<trkpt lat="46.0746320" lon="10.4901910">
	<ele>2243.20</ele>
	<time>2023-08-06T11:16:34.000Z</time>
</trkpt>
<trkpt lat="46.0746430" lon="10.4902040">
	<ele>2243.20</ele>
	<time>2023-08-06T11:16:35.000Z</time>
</trkpt>
<trkpt lat="46.0746550" lon="10.4902150">
	<ele>2243.20</ele>
	<time>2023-08-06T11:16:36.000Z</time>
</trkpt>
<trkpt lat="46.0746680" lon="10.4902270">
	<ele>2243.20</ele>
	<time>2023-08-06T11:16:37.000Z</time>
</trkpt>
<trkpt lat="46.0746800" lon="10.4902390">
	<ele>2243.20</ele>
	<time>2023-08-06T11:16:38.000Z</time>
</trkpt>
<trkpt lat="46.0746930" lon="10.4902510">
	<ele>2243.20</ele>
	<time>2023-08-06T11:16:39.000Z</time>
</trkpt>
<trkpt lat="46.0747040" lon="10.4902620">
	<ele>2243.20</ele>
	<time>2023-08-06T11:16:40.000Z</time>
</trkpt>
<trkpt lat="46.0747170" lon="10.4902740">
	<ele>2243.20</ele>
	<time>2023-08-06T11:16:41.000Z</time>
</trkpt>
<trkpt lat="46.0747280" lon="10.4902900">
	<ele>2243.20</ele>
	<time>2023-08-06T11:16:42.000Z</time>
</trkpt>
<trkpt lat="46.0747370" lon="10.4903060">
	<ele>2243.20</ele>
	<time>2023-08-06T11:16:43.000Z</time>
</trkpt>
<trkpt lat="46.0747370" lon="10.4903180">
	<ele>2243.20</ele>
	<time>2023-08-06T11:16:44.000Z</time>
</trkpt>
<trkpt lat="46.0747420" lon="10.4903280">
	<ele>2243.20</ele>
	<time>2023-08-06T11:16:45.000Z</time>
</trkpt>
<trkpt lat="46.0747480" lon="10.4903340">
	<ele>2243.20</ele>
	<time>2023-08-06T11:16:46.000Z</time>
</trkpt>
<trkpt lat="46.0747500" lon="10.4903380">
	<ele>2243.20</ele>
	<time>2023-08-06T11:16:47.000Z</time>
</trkpt>
<trkpt lat="46.0747530" lon="10.4903430">
	<ele>2239.40</ele>
	<time>2023-08-06T11:16:48.000Z</time>
</trkpt>
<trkpt lat="46.0747530" lon="10.4903500">
	<ele>2237.40</ele>
	<time>2023-08-06T11:16:49.000Z</time>
</trkpt>
<trkpt lat="46.0747520" lon="10.4903590">
	<ele>2236.40</ele>
	<time>2023-08-06T11:16:50.000Z</time>
</trkpt>
<trkpt lat="46.0747520" lon="10.4903640">
	<ele>2235.80</ele>
	<time>2023-08-06T11:16:51.000Z</time>
</trkpt>
<trkpt lat="46.0747530" lon="10.4903660">
	<ele>2235.40</ele>
	<time>2023-08-06T11:16:52.000Z</time>
</trkpt>
<trkpt lat="46.0747550" lon="10.4903690">
	<ele>2235.00</ele>
	<time>2023-08-06T11:16:53.000Z</time>
</trkpt>
<trkpt lat="46.0747580" lon="10.4903750">
	<ele>2234.80</ele>
	<time>2023-08-06T11:16:54.000Z</time>
</trkpt>
<trkpt lat="46.0747580" lon="10.4903800">
	<ele>2234.60</ele>
	<time>2023-08-06T11:16:55.000Z</time>
</trkpt>
<trkpt lat="46.0747560" lon="10.4903860">
	<ele>2234.40</ele>
	<time>2023-08-06T11:16:56.000Z</time>
</trkpt>
<trkpt lat="46.0747540" lon="10.4903950">
	<ele>2234.20</ele>
	<time>2023-08-06T11:16:57.000Z</time>
</trkpt>
<trkpt lat="46.0747550" lon="10.4903970">
	<ele>2234.00</ele>
	<time>2023-08-06T11:16:58.000Z</time>
</trkpt>
<trkpt lat="46.0747610" lon="10.4903990">
	<ele>2234.00</ele>
	<time>2023-08-06T11:16:59.000Z</time>
</trkpt>
<trkpt lat="46.0747620" lon="10.4904030">
	<ele>2233.60</ele>
	<time>2023-08-06T11:17:00.000Z</time>
</trkpt>
<trkpt lat="46.0747620" lon="10.4904070">
	<ele>2233.20</ele>
	<time>2023-08-06T11:17:01.000Z</time>
</trkpt>
<trkpt lat="46.0747650" lon="10.4904080">
	<ele>2233.00</ele>
	<time>2023-08-06T11:17:02.000Z</time>
</trkpt>
<trkpt lat="46.0747670" lon="10.4904090">
	<ele>2233.00</ele>
	<time>2023-08-06T11:17:03.000Z</time>
</trkpt>
<trkpt lat="46.0747700" lon="10.4904100">
	<ele>2232.80</ele>
	<time>2023-08-06T11:17:04.000Z</time>
</trkpt>
<trkpt lat="46.0747690" lon="10.4904120">
	<ele>2232.60</ele>
	<time>2023-08-06T11:17:05.000Z</time>
</trkpt>
<trkpt lat="46.0747690" lon="10.4904140">
	<ele>2232.40</ele>
	<time>2023-08-06T11:17:06.000Z</time>
</trkpt>
<trkpt lat="46.0747690" lon="10.4904150">
	<ele>2232.40</ele>
	<time>2023-08-06T11:17:07.000Z</time>
</trkpt>
<trkpt lat="46.0747700" lon="10.4904160">
	<ele>2232.20</ele>
	<time>2023-08-06T11:17:08.000Z</time>
</trkpt>
<trkpt lat="46.0747730" lon="10.4904160">
	<ele>2231.80</ele>
	<time>2023-08-06T11:17:09.000Z</time>
</trkpt>
<trkpt lat="46.0747760" lon="10.4904150">
	<ele>2231.60</ele>
	<time>2023-08-06T11:17:10.000Z</time>
</trkpt>
<trkpt lat="46.0747780" lon="10.4904150">
	<ele>2231.20</ele>
	<time>2023-08-06T11:17:11.000Z</time>
</trkpt>
<trkpt lat="46.0747820" lon="10.4904160">
	<ele>2231.00</ele>
	<time>2023-08-06T11:17:12.000Z</time>
</trkpt>
<trkpt lat="46.0747880" lon="10.4904210">
	<ele>2230.80</ele>
	<time>2023-08-06T11:17:13.000Z</time>
</trkpt>
<trkpt lat="46.0747920" lon="10.4904270">
	<ele>2230.60</ele>
	<time>2023-08-06T11:17:14.000Z</time>
</trkpt>
<trkpt lat="46.0747940" lon="10.4904320">
	<ele>2230.40</ele>
	<time>2023-08-06T11:17:15.000Z</time>
</trkpt>
<trkpt lat="46.0747950" lon="10.4904380">
	<ele>2230.00</ele>
	<time>2023-08-06T11:17:16.000Z</time>
</trkpt>
<trkpt lat="46.0747930" lon="10.4904440">
	<ele>2229.80</ele>
	<time>2023-08-06T11:17:17.000Z</time>
</trkpt>
<trkpt lat="46.0747910" lon="10.4904490">
	<ele>2229.80</ele>
	<time>2023-08-06T11:17:18.000Z</time>
</trkpt>
<trkpt lat="46.0747850" lon="10.4904510">
	<ele>2229.60</ele>
	<time>2023-08-06T11:17:19.000Z</time>
</trkpt>
<trkpt lat="46.0747820" lon="10.4904530">
	<ele>2229.60</ele>
	<time>2023-08-06T11:17:20.000Z</time>
</trkpt>
<trkpt lat="46.0747790" lon="10.4904580">
	<ele>2229.40</ele>
	<time>2023-08-06T11:17:21.000Z</time>
</trkpt>
<trkpt lat="46.0747770" lon="10.4904620">
	<ele>2229.20</ele>
	<time>2023-08-06T11:17:22.000Z</time>
</trkpt>
<trkpt lat="46.0747800" lon="10.4904650">
	<ele>2229.00</ele>
	<time>2023-08-06T11:17:23.000Z</time>
</trkpt>
<trkpt lat="46.0747840" lon="10.4904650">
	<ele>2228.80</ele>
	<time>2023-08-06T11:17:24.000Z</time>
</trkpt>
<trkpt lat="46.0747860" lon="10.4904600">
	<ele>2228.60</ele>
	<time>2023-08-06T11:17:25.000Z</time>
</trkpt>
<trkpt lat="46.0747920" lon="10.4904530">
	<ele>2228.40</ele>
	<time>2023-08-06T11:17:26.000Z</time>
</trkpt>
<trkpt lat="46.0747970" lon="10.4904480">
	<ele>2228.20</ele>
	<time>2023-08-06T11:17:27.000Z</time>
</trkpt>
<trkpt lat="46.0748000" lon="10.4904450">
	<ele>2228.20</ele>
	<time>2023-08-06T11:17:28.000Z</time>
</trkpt>
<trkpt lat="46.0748010" lon="10.4904410">
	<ele>2227.80</ele>
	<time>2023-08-06T11:17:29.000Z</time>
</trkpt>
<trkpt lat="46.0748020" lon="10.4904370">
	<ele>2227.80</ele>
	<time>2023-08-06T11:17:30.000Z</time>
</trkpt>
<trkpt lat="46.0748030" lon="10.4904280">
	<ele>2227.60</ele>
	<time>2023-08-06T11:17:31.000Z</time>
</trkpt>
<trkpt lat="46.0748040" lon="10.4904200">
	<ele>2227.20</ele>
	<time>2023-08-06T11:17:32.000Z</time>
</trkpt>
<trkpt lat="46.0748030" lon="10.4904140">
	<ele>2227.20</ele>
	<time>2023-08-06T11:17:33.000Z</time>
</trkpt>
<trkpt lat="46.0748050" lon="10.4904050">
	<ele>2227.00</ele>
	<time>2023-08-06T11:17:34.000Z</time>
</trkpt>
<trkpt lat="46.0748040" lon="10.4903980">
	<ele>2227.00</ele>
	<time>2023-08-06T11:17:35.000Z</time>
</trkpt>
<trkpt lat="46.0748090" lon="10.4903920">
	<ele>2226.80</ele>
	<time>2023-08-06T11:17:36.000Z</time>
</trkpt>
<trkpt lat="46.0748100" lon="10.4903860">
	<ele>2226.40</ele>
	<time>2023-08-06T11:17:37.000Z</time>
</trkpt>
<trkpt lat="46.0748110" lon="10.4903810">
	<ele>2226.20</ele>
	<time>2023-08-06T11:17:38.000Z</time>
</trkpt>
<trkpt lat="46.0748190" lon="10.4903740">
	<ele>2226.00</ele>
	<time>2023-08-06T11:17:39.000Z</time>
</trkpt>
<trkpt lat="46.0748260" lon="10.4903660">
	<ele>2225.60</ele>
	<time>2023-08-06T11:17:40.000Z</time>
</trkpt>
<trkpt lat="46.0748250" lon="10.4903580">
	<ele>2225.20</ele>
	<time>2023-08-06T11:17:41.000Z</time>
</trkpt>
<trkpt lat="46.0748210" lon="10.4903540">
	<ele>2225.20</ele>
	<time>2023-08-06T11:17:42.000Z</time>
</trkpt>
<trkpt lat="46.0748220" lon="10.4903470">
	<ele>2225.00</ele>
	<time>2023-08-06T11:17:43.000Z</time>
</trkpt>
<trkpt lat="46.0748240" lon="10.4903420">
	<ele>2225.00</ele>
	<time>2023-08-06T11:17:44.000Z</time>
</trkpt>
<trkpt lat="46.0748260" lon="10.4903360">
	<ele>2224.80</ele>
	<time>2023-08-06T11:17:45.000Z</time>
</trkpt>
<trkpt lat="46.0748260" lon="10.4903320">
	<ele>2224.80</ele>
	<time>2023-08-06T11:17:46.000Z</time>
</trkpt>
<trkpt lat="46.0748310" lon="10.4903280">
	<ele>2224.80</ele>
	<time>2023-08-06T11:17:47.000Z</time>
</trkpt>
<trkpt lat="46.0748370" lon="10.4903250">
	<ele>2224.80</ele>
	<time>2023-08-06T11:17:48.000Z</time>
</trkpt>
<trkpt lat="46.0748410" lon="10.4903260">
	<ele>2224.60</ele>
	<time>2023-08-06T11:17:49.000Z</time>
</trkpt>
<trkpt lat="46.0748470" lon="10.4903270">
	<ele>2224.60</ele>
	<time>2023-08-06T11:17:50.000Z</time>
</trkpt>
<trkpt lat="46.0748540" lon="10.4903300">
	<ele>2224.20</ele>
	<time>2023-08-06T11:17:51.000Z</time>
</trkpt>
<trkpt lat="46.0748560" lon="10.4903360">
	<ele>2224.00</ele>
	<time>2023-08-06T11:17:52.000Z</time>
</trkpt>
<trkpt lat="46.0748590" lon="10.4903420">
	<ele>2223.80</ele>
	<time>2023-08-06T11:17:53.000Z</time>
</trkpt>
<trkpt lat="46.0748590" lon="10.4903480">
	<ele>2223.60</ele>
	<time>2023-08-06T11:17:54.000Z</time>
</trkpt>
<trkpt lat="46.0748590" lon="10.4903550">
	<ele>2223.20</ele>
	<time>2023-08-06T11:17:55.000Z</time>
</trkpt>
<trkpt lat="46.0748590" lon="10.4903590">
	<ele>2222.80</ele>
	<time>2023-08-06T11:17:56.000Z</time>
</trkpt>
<trkpt lat="46.0748590" lon="10.4903640">
	<ele>2222.40</ele>
	<time>2023-08-06T11:17:57.000Z</time>
</trkpt>
<trkpt lat="46.0748600" lon="10.4903690">
	<ele>2222.20</ele>
	<time>2023-08-06T11:17:58.000Z</time>
</trkpt>
<trkpt lat="46.0748600" lon="10.4903740">
	<ele>2222.00</ele>
	<time>2023-08-06T11:17:59.000Z</time>
</trkpt>
<trkpt lat="46.0748590" lon="10.4903780">
	<ele>2221.80</ele>
	<time>2023-08-06T11:18:00.000Z</time>
</trkpt>
<trkpt lat="46.0748610" lon="10.4903770">
	<ele>2221.60</ele>
	<time>2023-08-06T11:18:01.000Z</time>
</trkpt>
<trkpt lat="46.0748680" lon="10.4903720">
	<ele>2221.40</ele>
	<time>2023-08-06T11:18:02.000Z</time>
</trkpt>
<trkpt lat="46.0748750" lon="10.4903650">
	<ele>2221.20</ele>
	<time>2023-08-06T11:18:03.000Z</time>
</trkpt>
<trkpt lat="46.0748780" lon="10.4903560">
	<ele>2221.00</ele>
	<time>2023-08-06T11:18:04.000Z</time>
</trkpt>
<trkpt lat="46.0748780" lon="10.4903460">
	<ele>2220.80</ele>
	<time>2023-08-06T11:18:05.000Z</time>
</trkpt>
<trkpt lat="46.0748810" lon="10.4903370">
	<ele>2220.60</ele>
	<time>2023-08-06T11:18:06.000Z</time>
</trkpt>
<trkpt lat="46.0748830" lon="10.4903300">
	<ele>2220.40</ele>
	<time>2023-08-06T11:18:07.000Z</time>
</trkpt>
<trkpt lat="46.0748860" lon="10.4903200">
	<ele>2220.20</ele>
	<time>2023-08-06T11:18:08.000Z</time>
</trkpt>
<trkpt lat="46.0748890" lon="10.4903110">
	<ele>2220.00</ele>
	<time>2023-08-06T11:18:09.000Z</time>
</trkpt>
<trkpt lat="46.0748930" lon="10.4903040">
	<ele>2219.80</ele>
	<time>2023-08-06T11:18:10.000Z</time>
</trkpt>
<trkpt lat="46.0748960" lon="10.4903020">
	<ele>2219.80</ele>
	<time>2023-08-06T11:18:11.000Z</time>
</trkpt>
<trkpt lat="46.0748990" lon="10.4903060">
	<ele>2219.40</ele>
	<time>2023-08-06T11:18:12.000Z</time>
</trkpt>
<trkpt lat="46.0749040" lon="10.4903130">
	<ele>2219.20</ele>
	<time>2023-08-06T11:18:13.000Z</time>
</trkpt>
<trkpt lat="46.0749060" lon="10.4903220">
	<ele>2219.00</ele>
	<time>2023-08-06T11:18:14.000Z</time>
</trkpt>
<trkpt lat="46.0749080" lon="10.4903320">
	<ele>2218.80</ele>
	<time>2023-08-06T11:18:15.000Z</time>
</trkpt>
<trkpt lat="46.0749100" lon="10.4903370">
	<ele>2218.80</ele>
	<time>2023-08-06T11:18:16.000Z</time>
</trkpt>
<trkpt lat="46.0749110" lon="10.4903410">
	<ele>2218.60</ele>
	<time>2023-08-06T11:18:17.000Z</time>
</trkpt>
<trkpt lat="46.0749130" lon="10.4903510">
	<ele>2218.40</ele>
	<time>2023-08-06T11:18:18.000Z</time>
</trkpt>
<trkpt lat="46.0749110" lon="10.4903590">
	<ele>2218.20</ele>
	<time>2023-08-06T11:18:19.000Z</time>
</trkpt>
<trkpt lat="46.0749090" lon="10.4903630">
	<ele>2217.80</ele>
	<time>2023-08-06T11:18:20.000Z</time>
</trkpt>
<trkpt lat="46.0749070" lon="10.4903700">
	<ele>2217.60</ele>
	<time>2023-08-06T11:18:21.000Z</time>
</trkpt>
<trkpt lat="46.0749030" lon="10.4903780">
	<ele>2217.40</ele>
	<time>2023-08-06T11:18:22.000Z</time>
</trkpt>
<trkpt lat="46.0749020" lon="10.4903810">
	<ele>2217.40</ele>
	<time>2023-08-06T11:18:23.000Z</time>
</trkpt>
<trkpt lat="46.0749010" lon="10.4903880">
	<ele>2217.00</ele>
	<time>2023-08-06T11:18:24.000Z</time>
</trkpt>
<trkpt lat="46.0748990" lon="10.4903970">
	<ele>2216.80</ele>
	<time>2023-08-06T11:18:25.000Z</time>
</trkpt>
<trkpt lat="46.0748980" lon="10.4904070">
	<ele>2216.40</ele>
	<time>2023-08-06T11:18:26.000Z</time>
</trkpt>
<trkpt lat="46.0749010" lon="10.4904220">
	<ele>2216.20</ele>
	<time>2023-08-06T11:18:27.000Z</time>
</trkpt>
<trkpt lat="46.0749060" lon="10.4904350">
	<ele>2216.00</ele>
	<time>2023-08-06T11:18:28.000Z</time>
</trkpt>
<trkpt lat="46.0749110" lon="10.4904500">
	<ele>2215.80</ele>
	<time>2023-08-06T11:18:29.000Z</time>
</trkpt>
<trkpt lat="46.0749110" lon="10.4904610">
	<ele>2215.80</ele>
	<time>2023-08-06T11:18:30.000Z</time>
</trkpt>
<trkpt lat="46.0749120" lon="10.4904770">
	<ele>2215.60</ele>
	<time>2023-08-06T11:18:31.000Z</time>
</trkpt>
<trkpt lat="46.0749120" lon="10.4904900">
	<ele>2215.40</ele>
	<time>2023-08-06T11:18:32.000Z</time>
</trkpt>
<trkpt lat="46.0749090" lon="10.4904950">
	<ele>2215.20</ele>
	<time>2023-08-06T11:18:33.000Z</time>
</trkpt>
<trkpt lat="46.0749060" lon="10.4905010">
	<ele>2215.20</ele>
	<time>2023-08-06T11:18:34.000Z</time>
</trkpt>
<trkpt lat="46.0749060" lon="10.4905060">
	<ele>2215.00</ele>
	<time>2023-08-06T11:18:35.000Z</time>
</trkpt>
<trkpt lat="46.0749080" lon="10.4905100">
	<ele>2215.00</ele>
	<time>2023-08-06T11:18:36.000Z</time>
</trkpt>
<trkpt lat="46.0749190" lon="10.4905120">
	<ele>2214.80</ele>
	<time>2023-08-06T11:18:37.000Z</time>
</trkpt>
<trkpt lat="46.0749250" lon="10.4905160">
	<ele>2214.60</ele>
	<time>2023-08-06T11:18:38.000Z</time>
</trkpt>
<trkpt lat="46.0749320" lon="10.4905210">
	<ele>2214.20</ele>
	<time>2023-08-06T11:18:39.000Z</time>
</trkpt>
<trkpt lat="46.0749390" lon="10.4905250">
	<ele>2213.80</ele>
	<time>2023-08-06T11:18:40.000Z</time>
</trkpt>
<trkpt lat="46.0749410" lon="10.4905320">
	<ele>2213.40</ele>
	<time>2023-08-06T11:18:41.000Z</time>
</trkpt>
<trkpt lat="46.0749400" lon="10.4905440">
	<ele>2213.20</ele>
	<time>2023-08-06T11:18:42.000Z</time>
</trkpt>
<trkpt lat="46.0749380" lon="10.4905530">
	<ele>2213.00</ele>
	<time>2023-08-06T11:18:43.000Z</time>
</trkpt>
<trkpt lat="46.0749330" lon="10.4905630">
	<ele>2212.60</ele>
	<time>2023-08-06T11:18:44.000Z</time>
</trkpt>
<trkpt lat="46.0749270" lon="10.4905710">
	<ele>2212.40</ele>
	<time>2023-08-06T11:18:45.000Z</time>
</trkpt>
<trkpt lat="46.0749200" lon="10.4905820">
	<ele>2212.20</ele>
	<time>2023-08-06T11:18:46.000Z</time>
</trkpt>
<trkpt lat="46.0749160" lon="10.4905950">
	<ele>2212.00</ele>
	<time>2023-08-06T11:18:47.000Z</time>
</trkpt>
<trkpt lat="46.0749140" lon="10.4906020">
	<ele>2212.00</ele>
	<time>2023-08-06T11:18:48.000Z</time>
</trkpt>
<trkpt lat="46.0749120" lon="10.4906100">
	<ele>2211.80</ele>
	<time>2023-08-06T11:18:49.000Z</time>
</trkpt>
<trkpt lat="46.0749110" lon="10.4906210">
	<ele>2211.60</ele>
	<time>2023-08-06T11:18:50.000Z</time>
</trkpt>
<trkpt lat="46.0749100" lon="10.4906290">
	<ele>2211.60</ele>
	<time>2023-08-06T11:18:51.000Z</time>
</trkpt>
<trkpt lat="46.0749090" lon="10.4906360">
	<ele>2211.60</ele>
	<time>2023-08-06T11:18:52.000Z</time>
</trkpt>
<trkpt lat="46.0749060" lon="10.4906440">
	<ele>2211.40</ele>
	<time>2023-08-06T11:18:53.000Z</time>
</trkpt>
<trkpt lat="46.0749030" lon="10.4906490">
	<ele>2211.40</ele>
	<time>2023-08-06T11:18:54.000Z</time>
</trkpt>
<trkpt lat="46.0749010" lon="10.4906510">
	<ele>2211.20</ele>
	<time>2023-08-06T11:18:55.000Z</time>
</trkpt>
<trkpt lat="46.0748980" lon="10.4906550">
	<ele>2211.00</ele>
	<time>2023-08-06T11:18:56.000Z</time>
</trkpt>
<trkpt lat="46.0749010" lon="10.4906620">
	<ele>2210.80</ele>
	<time>2023-08-06T11:18:57.000Z</time>
</trkpt>
<trkpt lat="46.0749060" lon="10.4906700">
	<ele>2210.80</ele>
	<time>2023-08-06T11:18:58.000Z</time>
</trkpt>
<trkpt lat="46.0749090" lon="10.4906750">
	<ele>2210.80</ele>
	<time>2023-08-06T11:18:59.000Z</time>
</trkpt>
<trkpt lat="46.0749090" lon="10.4906770">
	<ele>2210.20</ele>
	<time>2023-08-06T11:19:00.000Z</time>
</trkpt>
<trkpt lat="46.0749080" lon="10.4906810">
	<ele>2210.00</ele>
	<time>2023-08-06T11:19:01.000Z</time>
</trkpt>
<trkpt lat="46.0749070" lon="10.4906860">
	<ele>2209.80</ele>
	<time>2023-08-06T11:19:02.000Z</time>
</trkpt>
<trkpt lat="46.0749080" lon="10.4906900">
	<ele>2209.60</ele>
	<time>2023-08-06T11:19:03.000Z</time>
</trkpt>
<trkpt lat="46.0749120" lon="10.4906940">
	<ele>2209.40</ele>
	<time>2023-08-06T11:19:04.000Z</time>
</trkpt>
<trkpt lat="46.0749130" lon="10.4906970">
	<ele>2209.20</ele>
	<time>2023-08-06T11:19:05.000Z</time>
</trkpt>
<trkpt lat="46.0749110" lon="10.4906990">
	<ele>2209.00</ele>
	<time>2023-08-06T11:19:06.000Z</time>
</trkpt>
<trkpt lat="46.0749140" lon="10.4907050">
	<ele>2209.00</ele>
	<time>2023-08-06T11:19:07.000Z</time>
</trkpt>
<trkpt lat="46.0749160" lon="10.4907090">
	<ele>2208.80</ele>
	<time>2023-08-06T11:19:08.000Z</time>
</trkpt>
<trkpt lat="46.0749160" lon="10.4907150">
	<ele>2208.80</ele>
	<time>2023-08-06T11:19:09.000Z</time>
</trkpt>
<trkpt lat="46.0749190" lon="10.4907220">
	<ele>2208.40</ele>
	<time>2023-08-06T11:19:10.000Z</time>
</trkpt>
<trkpt lat="46.0749250" lon="10.4907290">
	<ele>2208.20</ele>
	<time>2023-08-06T11:19:11.000Z</time>
</trkpt>
<trkpt lat="46.0749230" lon="10.4907320">
	<ele>2208.00</ele>
	<time>2023-08-06T11:19:12.000Z</time>
</trkpt>
<trkpt lat="46.0749220" lon="10.4907330">
	<ele>2207.60</ele>
	<time>2023-08-06T11:19:13.000Z</time>
</trkpt>
<trkpt lat="46.0749190" lon="10.4907380">
	<ele>2207.60</ele>
	<time>2023-08-06T11:19:14.000Z</time>
</trkpt>
<trkpt lat="46.0749230" lon="10.4907430">
	<ele>2207.40</ele>
	<time>2023-08-06T11:19:15.000Z</time>
</trkpt>
<trkpt lat="46.0749230" lon="10.4907460">
	<ele>2207.20</ele>
	<time>2023-08-06T11:19:16.000Z</time>
</trkpt>
<trkpt lat="46.0749210" lon="10.4907540">
	<ele>2207.20</ele>
	<time>2023-08-06T11:19:17.000Z</time>
</trkpt>
<trkpt lat="46.0749190" lon="10.4907560">
	<ele>2207.00</ele>
	<time>2023-08-06T11:19:18.000Z</time>
</trkpt>
<trkpt lat="46.0749160" lon="10.4907600">
	<ele>2206.80</ele>
	<time>2023-08-06T11:19:19.000Z</time>
</trkpt>
<trkpt lat="46.0749180" lon="10.4907610">
	<ele>2206.60</ele>
	<time>2023-08-06T11:19:20.000Z</time>
</trkpt>
<trkpt lat="46.0749140" lon="10.4907640">
	<ele>2206.40</ele>
	<time>2023-08-06T11:19:21.000Z</time>
</trkpt>
<trkpt lat="46.0749120" lon="10.4907660">
	<ele>2206.20</ele>
	<time>2023-08-06T11:19:22.000Z</time>
</trkpt>
<trkpt lat="46.0749080" lon="10.4907740">
	<ele>2206.00</ele>
	<time>2023-08-06T11:19:23.000Z</time>
</trkpt>
<trkpt lat="46.0748970" lon="10.4907790">
	<ele>2206.00</ele>
	<time>2023-08-06T11:19:24.000Z</time>
</trkpt>
<trkpt lat="46.0748900" lon="10.4907830">
	<ele>2205.80</ele>
	<time>2023-08-06T11:19:25.000Z</time>
</trkpt>
<trkpt lat="46.0748880" lon="10.4907850">
	<ele>2205.80</ele>
	<time>2023-08-06T11:19:26.000Z</time>
</trkpt>
<trkpt lat="46.0748880" lon="10.4907880">
	<ele>2205.20</ele>
	<time>2023-08-06T11:19:27.000Z</time>
</trkpt>
<trkpt lat="46.0748900" lon="10.4907910">
	<ele>2205.00</ele>
	<time>2023-08-06T11:19:28.000Z</time>
</trkpt>
<trkpt lat="46.0748900" lon="10.4907950">
	<ele>2204.80</ele>
	<time>2023-08-06T11:19:29.000Z</time>
</trkpt>
<trkpt lat="46.0748880" lon="10.4907990">
	<ele>2204.40</ele>
	<time>2023-08-06T11:19:30.000Z</time>
</trkpt>
<trkpt lat="46.0748870" lon="10.4908010">
	<ele>2204.20</ele>
	<time>2023-08-06T11:19:31.000Z</time>
</trkpt>
<trkpt lat="46.0748860" lon="10.4908030">
	<ele>2204.20</ele>
	<time>2023-08-06T11:19:32.000Z</time>
</trkpt>
<trkpt lat="46.0748890" lon="10.4908110">
	<ele>2204.00</ele>
	<time>2023-08-06T11:19:33.000Z</time>
</trkpt>
<trkpt lat="46.0748900" lon="10.4908200">
	<ele>2204.00</ele>
	<time>2023-08-06T11:19:34.000Z</time>
</trkpt>
<trkpt lat="46.0748870" lon="10.4908330">
	<ele>2203.80</ele>
	<time>2023-08-06T11:19:35.000Z</time>
</trkpt>
<trkpt lat="46.0748820" lon="10.4908420">
	<ele>2203.80</ele>
	<time>2023-08-06T11:19:36.000Z</time>
</trkpt>
<trkpt lat="46.0748780" lon="10.4908520">
	<ele>2203.60</ele>
	<time>2023-08-06T11:19:37.000Z</time>
</trkpt>
<trkpt lat="46.0748710" lon="10.4908650">
	<ele>2203.20</ele>
	<time>2023-08-06T11:19:38.000Z</time>
</trkpt>
<trkpt lat="46.0748700" lon="10.4908800">
	<ele>2203.00</ele>
	<time>2023-08-06T11:19:39.000Z</time>
</trkpt>
<trkpt lat="46.0748730" lon="10.4908970">
	<ele>2202.80</ele>
	<time>2023-08-06T11:19:40.000Z</time>
</trkpt>
<trkpt lat="46.0748740" lon="10.4909090">
	<ele>2202.60</ele>
	<time>2023-08-06T11:19:41.000Z</time>
</trkpt>
<trkpt lat="46.0748750" lon="10.4909200">
	<ele>2202.40</ele>
	<time>2023-08-06T11:19:42.000Z</time>
</trkpt>
<trkpt lat="46.0748780" lon="10.4909330">
	<ele>2202.40</ele>
	<time>2023-08-06T11:19:43.000Z</time>
</trkpt>
<trkpt lat="46.0748800" lon="10.4909430">
	<ele>2202.20</ele>
	<time>2023-08-06T11:19:44.000Z</time>
</trkpt>
<trkpt lat="46.0748820" lon="10.4909550">
	<ele>2202.20</ele>
	<time>2023-08-06T11:19:45.000Z</time>
</trkpt>
<trkpt lat="46.0748840" lon="10.4909660">
	<ele>2202.00</ele>
	<time>2023-08-06T11:19:46.000Z</time>
</trkpt>
<trkpt lat="46.0748820" lon="10.4909760">
	<ele>2202.00</ele>
	<time>2023-08-06T11:19:47.000Z</time>
</trkpt>
<trkpt lat="46.0748760" lon="10.4909830">
	<ele>2201.80</ele>
	<time>2023-08-06T11:19:48.000Z</time>
</trkpt>
<trkpt lat="46.0748730" lon="10.4909910">
	<ele>2201.60</ele>
	<time>2023-08-06T11:19:49.000Z</time>
</trkpt>
<trkpt lat="46.0748690" lon="10.4909990">
	<ele>2201.40</ele>
	<time>2023-08-06T11:19:50.000Z</time>
</trkpt>
<trkpt lat="46.0748620" lon="10.4910070">
	<ele>2201.40</ele>
	<time>2023-08-06T11:19:51.000Z</time>
</trkpt>
<trkpt lat="46.0748580" lon="10.4910120">
	<ele>2201.00</ele>
	<time>2023-08-06T11:19:52.000Z</time>
</trkpt>
<trkpt lat="46.0748530" lon="10.4910170">
	<ele>2200.80</ele>
	<time>2023-08-06T11:19:53.000Z</time>
</trkpt>
<trkpt lat="46.0748500" lon="10.4910220">
	<ele>2200.60</ele>
	<time>2023-08-06T11:19:54.000Z</time>
</trkpt>
<trkpt lat="46.0748480" lon="10.4910260">
	<ele>2200.40</ele>
	<time>2023-08-06T11:19:55.000Z</time>
</trkpt>
<trkpt lat="46.0748460" lon="10.4910280">
	<ele>2200.40</ele>
	<time>2023-08-06T11:19:56.000Z</time>
</trkpt>
<trkpt lat="46.0748430" lon="10.4910310">
	<ele>2200.20</ele>
	<time>2023-08-06T11:19:57.000Z</time>
</trkpt>
<trkpt lat="46.0748380" lon="10.4910360">
	<ele>2200.00</ele>
	<time>2023-08-06T11:19:58.000Z</time>
</trkpt>
<trkpt lat="46.0748330" lon="10.4910390">
	<ele>2199.60</ele>
	<time>2023-08-06T11:19:59.000Z</time>
</trkpt>
<trkpt lat="46.0748300" lon="10.4910410">
	<ele>2199.40</ele>
	<time>2023-08-06T11:20:00.000Z</time>
</trkpt>
<trkpt lat="46.0748290" lon="10.4910460">
	<ele>2199.20</ele>
	<time>2023-08-06T11:20:01.000Z</time>
</trkpt>
<trkpt lat="46.0748300" lon="10.4910520">
	<ele>2199.00</ele>
	<time>2023-08-06T11:20:02.000Z</time>
</trkpt>
<trkpt lat="46.0748270" lon="10.4910560">
	<ele>2199.00</ele>
	<time>2023-08-06T11:20:03.000Z</time>
</trkpt>
<trkpt lat="46.0748250" lon="10.4910590">
	<ele>2198.80</ele>
	<time>2023-08-06T11:20:04.000Z</time>
</trkpt>
<trkpt lat="46.0748230" lon="10.4910630">
	<ele>2198.60</ele>
	<time>2023-08-06T11:20:05.000Z</time>
</trkpt>
<trkpt lat="46.0748220" lon="10.4910680">
	<ele>2198.60</ele>
	<time>2023-08-06T11:20:06.000Z</time>
</trkpt>
<trkpt lat="46.0748240" lon="10.4910710">
	<ele>2198.40</ele>
	<time>2023-08-06T11:20:07.000Z</time>
</trkpt>
<trkpt lat="46.0748300" lon="10.4910730">
	<ele>2198.00</ele>
	<time>2023-08-06T11:20:08.000Z</time>
</trkpt>
<trkpt lat="46.0748300" lon="10.4910780">
	<ele>2197.80</ele>
	<time>2023-08-06T11:20:09.000Z</time>
</trkpt>
<trkpt lat="46.0748320" lon="10.4910830">
	<ele>2197.60</ele>
	<time>2023-08-06T11:20:10.000Z</time>
</trkpt>
<trkpt lat="46.0748320" lon="10.4910880">
	<ele>2197.40</ele>
	<time>2023-08-06T11:20:11.000Z</time>
</trkpt>
<trkpt lat="46.0748340" lon="10.4910900">
	<ele>2197.40</ele>
	<time>2023-08-06T11:20:12.000Z</time>
</trkpt>
<trkpt lat="46.0748370" lon="10.4910960">
	<ele>2197.20</ele>
	<time>2023-08-06T11:20:13.000Z</time>
</trkpt>
<trkpt lat="46.0748360" lon="10.4911020">
	<ele>2197.00</ele>
	<time>2023-08-06T11:20:14.000Z</time>
</trkpt>
<trkpt lat="46.0748350" lon="10.4911110">
	<ele>2196.60</ele>
	<time>2023-08-06T11:20:15.000Z</time>
</trkpt>
<trkpt lat="46.0748340" lon="10.4911210">
	<ele>2196.40</ele>
	<time>2023-08-06T11:20:16.000Z</time>
</trkpt>
<trkpt lat="46.0748330" lon="10.4911330">
	<ele>2196.20</ele>
	<time>2023-08-06T11:20:17.000Z</time>
</trkpt>
<trkpt lat="46.0748290" lon="10.4911450">
	<ele>2196.00</ele>
	<time>2023-08-06T11:20:18.000Z</time>
</trkpt>
<trkpt lat="46.0748240" lon="10.4911590">
	<ele>2195.60</ele>
	<time>2023-08-06T11:20:19.000Z</time>
</trkpt>
<trkpt lat="46.0748200" lon="10.4911670">
	<ele>2195.60</ele>
	<time>2023-08-06T11:20:20.000Z</time>
</trkpt>
<trkpt lat="46.0748160" lon="10.4911720">
	<ele>2195.40</ele>
	<time>2023-08-06T11:20:21.000Z</time>
</trkpt>
<trkpt lat="46.0748160" lon="10.4911720">
	<ele>2195.40</ele>
	<time>2023-08-06T11:20:22.000Z</time>
</trkpt>
<trkpt lat="46.0748130" lon="10.4911740">
	<ele>2195.20</ele>
	<time>2023-08-06T11:20:23.000Z</time>
</trkpt>
<trkpt lat="46.0748180" lon="10.4911750">
	<ele>2195.20</ele>
	<time>2023-08-06T11:20:24.000Z</time>
</trkpt>
<trkpt lat="46.0748280" lon="10.4911820">
	<ele>2195.20</ele>
	<time>2023-08-06T11:20:25.000Z</time>
</trkpt>
<trkpt lat="46.0748350" lon="10.4911950">
	<ele>2194.80</ele>
	<time>2023-08-06T11:20:26.000Z</time>
</trkpt>
<trkpt lat="46.0748310" lon="10.4912060">
	<ele>2194.40</ele>
	<time>2023-08-06T11:20:27.000Z</time>
</trkpt>
<trkpt lat="46.0748300" lon="10.4912200">
	<ele>2194.20</ele>
	<time>2023-08-06T11:20:28.000Z</time>
</trkpt>
<trkpt lat="46.0748250" lon="10.4912280">
	<ele>2194.20</ele>
	<time>2023-08-06T11:20:29.000Z</time>
</trkpt>
<trkpt lat="46.0748220" lon="10.4912340">
	<ele>2193.80</ele>
	<time>2023-08-06T11:20:30.000Z</time>
</trkpt>
<trkpt lat="46.0748200" lon="10.4912370">
	<ele>2193.60</ele>
	<time>2023-08-06T11:20:31.000Z</time>
</trkpt>
<trkpt lat="46.0748160" lon="10.4912400">
	<ele>2193.60</ele>
	<time>2023-08-06T11:20:32.000Z</time>
</trkpt>
<trkpt lat="46.0748150" lon="10.4912420">
	<ele>2193.40</ele>
	<time>2023-08-06T11:20:33.000Z</time>
</trkpt>
<trkpt lat="46.0748120" lon="10.4912400">
	<ele>2193.20</ele>
	<time>2023-08-06T11:20:34.000Z</time>
</trkpt>
<trkpt lat="46.0748130" lon="10.4912430">
	<ele>2193.20</ele>
	<time>2023-08-06T11:20:35.000Z</time>
</trkpt>
<trkpt lat="46.0748190" lon="10.4912470">
	<ele>2192.80</ele>
	<time>2023-08-06T11:20:36.000Z</time>
</trkpt>
<trkpt lat="46.0748260" lon="10.4912520">
	<ele>2192.40</ele>
	<time>2023-08-06T11:20:37.000Z</time>
</trkpt>
<trkpt lat="46.0748300" lon="10.4912580">
	<ele>2192.20</ele>
	<time>2023-08-06T11:20:38.000Z</time>
</trkpt>
<trkpt lat="46.0748310" lon="10.4912610">
	<ele>2192.00</ele>
	<time>2023-08-06T11:20:39.000Z</time>
</trkpt>
<trkpt lat="46.0748320" lon="10.4912680">
	<ele>2191.60</ele>
	<time>2023-08-06T11:20:40.000Z</time>
</trkpt>
<trkpt lat="46.0748290" lon="10.4912780">
	<ele>2191.40</ele>
	<time>2023-08-06T11:20:41.000Z</time>
</trkpt>
<trkpt lat="46.0748280" lon="10.4912880">
	<ele>2191.00</ele>
	<time>2023-08-06T11:20:42.000Z</time>
</trkpt>
<trkpt lat="46.0748270" lon="10.4912990">
	<ele>2190.80</ele>
	<time>2023-08-06T11:20:43.000Z</time>
</trkpt>
<trkpt lat="46.0748200" lon="10.4913110">
	<ele>2190.60</ele>
	<time>2023-08-06T11:20:44.000Z</time>
</trkpt>
<trkpt lat="46.0748120" lon="10.4913230">
	<ele>2190.60</ele>
	<time>2023-08-06T11:20:45.000Z</time>
</trkpt>
<trkpt lat="46.0748070" lon="10.4913310">
	<ele>2190.60</ele>
	<time>2023-08-06T11:20:46.000Z</time>
</trkpt>
<trkpt lat="46.0748060" lon="10.4913380">
	<ele>2190.40</ele>
	<time>2023-08-06T11:20:47.000Z</time>
</trkpt>
<trkpt lat="46.0748070" lon="10.4913470">
	<ele>2190.20</ele>
	<time>2023-08-06T11:20:48.000Z</time>
</trkpt>
<trkpt lat="46.0748090" lon="10.4913550">
	<ele>2190.20</ele>
	<time>2023-08-06T11:20:49.000Z</time>
</trkpt>
<trkpt lat="46.0748110" lon="10.4913610">
	<ele>2190.00</ele>
	<time>2023-08-06T11:20:50.000Z</time>
</trkpt>
<trkpt lat="46.0748060" lon="10.4913710">
	<ele>2189.80</ele>
	<time>2023-08-06T11:20:51.000Z</time>
</trkpt>
<trkpt lat="46.0748050" lon="10.4913820">
	<ele>2189.60</ele>
	<time>2023-08-06T11:20:52.000Z</time>
</trkpt>
<trkpt lat="46.0748090" lon="10.4913970">
	<ele>2189.40</ele>
	<time>2023-08-06T11:20:53.000Z</time>
</trkpt>
<trkpt lat="46.0748060" lon="10.4914090">
	<ele>2189.40</ele>
	<time>2023-08-06T11:20:54.000Z</time>
</trkpt>
<trkpt lat="46.0748060" lon="10.4914160">
	<ele>2189.20</ele>
	<time>2023-08-06T11:20:55.000Z</time>
</trkpt>
<trkpt lat="46.0748020" lon="10.4914190">
	<ele>2189.00</ele>
	<time>2023-08-06T11:20:56.000Z</time>
</trkpt>
<trkpt lat="46.0748050" lon="10.4914250">
	<ele>2189.00</ele>
	<time>2023-08-06T11:20:57.000Z</time>
</trkpt>
<trkpt lat="46.0748180" lon="10.4914370">
	<ele>2189.00</ele>
	<time>2023-08-06T11:20:58.000Z</time>
</trkpt>
<trkpt lat="46.0748260" lon="10.4914460">
	<ele>2188.80</ele>
	<time>2023-08-06T11:20:59.000Z</time>
</trkpt>
<trkpt lat="46.0748290" lon="10.4914530">
	<ele>2188.40</ele>
	<time>2023-08-06T11:21:00.000Z</time>
</trkpt>
<trkpt lat="46.0748330" lon="10.4914570">
	<ele>2188.20</ele>
	<time>2023-08-06T11:21:01.000Z</time>
</trkpt>
<trkpt lat="46.0748400" lon="10.4914650">
	<ele>2188.00</ele>
	<time>2023-08-06T11:21:02.000Z</time>
</trkpt>
<trkpt lat="46.0748500" lon="10.4914750">
	<ele>2188.00</ele>
	<time>2023-08-06T11:21:03.000Z</time>
</trkpt>
<trkpt lat="46.0748520" lon="10.4914860">
	<ele>2187.60</ele>
	<time>2023-08-06T11:21:04.000Z</time>
</trkpt>
<trkpt lat="46.0748540" lon="10.4914960">
	<ele>2187.40</ele>
	<time>2023-08-06T11:21:05.000Z</time>
</trkpt>
<trkpt lat="46.0748560" lon="10.4915050">
	<ele>2187.00</ele>
	<time>2023-08-06T11:21:06.000Z</time>
</trkpt>
<trkpt lat="46.0748570" lon="10.4915110">
	<ele>2186.60</ele>
	<time>2023-08-06T11:21:07.000Z</time>
</trkpt>
<trkpt lat="46.0748600" lon="10.4915190">
	<ele>2186.40</ele>
	<time>2023-08-06T11:21:08.000Z</time>
</trkpt>
<trkpt lat="46.0748630" lon="10.4915260">
	<ele>2186.40</ele>
	<time>2023-08-06T11:21:09.000Z</time>
</trkpt>
<trkpt lat="46.0748640" lon="10.4915310">
	<ele>2186.20</ele>
	<time>2023-08-06T11:21:10.000Z</time>
</trkpt>
<trkpt lat="46.0748650" lon="10.4915390">
	<ele>2186.00</ele>
	<time>2023-08-06T11:21:11.000Z</time>
</trkpt>
<trkpt lat="46.0748650" lon="10.4915480">
	<ele>2185.80</ele>
	<time>2023-08-06T11:21:12.000Z</time>
</trkpt>
<trkpt lat="46.0748670" lon="10.4915520">
	<ele>2185.80</ele>
	<time>2023-08-06T11:21:13.000Z</time>
</trkpt>
<trkpt lat="46.0748710" lon="10.4915580">
	<ele>2185.80</ele>
	<time>2023-08-06T11:21:14.000Z</time>
</trkpt>
<trkpt lat="46.0748720" lon="10.4915620">
	<ele>2185.60</ele>
	<time>2023-08-06T11:21:15.000Z</time>
</trkpt>
<trkpt lat="46.0748780" lon="10.4915620">
	<ele>2185.40</ele>
	<time>2023-08-06T11:21:16.000Z</time>
</trkpt>
<trkpt lat="46.0748870" lon="10.4915620">
	<ele>2185.40</ele>
	<time>2023-08-06T11:21:17.000Z</time>
</trkpt>
<trkpt lat="46.0748900" lon="10.4915660">
	<ele>2185.20</ele>
	<time>2023-08-06T11:21:18.000Z</time>
</trkpt>
<trkpt lat="46.0748950" lon="10.4915710">
	<ele>2185.20</ele>
	<time>2023-08-06T11:21:19.000Z</time>
</trkpt>
<trkpt lat="46.0748980" lon="10.4915760">
	<ele>2184.60</ele>
	<time>2023-08-06T11:21:20.000Z</time>
</trkpt>
<trkpt lat="46.0748990" lon="10.4915840">
	<ele>2184.40</ele>
	<time>2023-08-06T11:21:21.000Z</time>
</trkpt>
<trkpt lat="46.0748990" lon="10.4915890">
	<ele>2184.20</ele>
	<time>2023-08-06T11:21:22.000Z</time>
</trkpt>
<trkpt lat="46.0749020" lon="10.4915900">
	<ele>2184.00</ele>
	<time>2023-08-06T11:21:23.000Z</time>
</trkpt>
<trkpt lat="46.0749000" lon="10.4915850">
	<ele>2184.00</ele>
	<time>2023-08-06T11:21:24.000Z</time>
</trkpt>
<trkpt lat="46.0749050" lon="10.4915830">
	<ele>2184.00</ele>
	<time>2023-08-06T11:21:25.000Z</time>
</trkpt>
<trkpt lat="46.0749090" lon="10.4915830">
	<ele>2184.00</ele>
	<time>2023-08-06T11:21:26.000Z</time>
</trkpt>
<trkpt lat="46.0749120" lon="10.4915790">
	<ele>2183.60</ele>
	<time>2023-08-06T11:21:27.000Z</time>
</trkpt>
<trkpt lat="46.0749140" lon="10.4915700">
	<ele>2183.20</ele>
	<time>2023-08-06T11:21:28.000Z</time>
</trkpt>
<trkpt lat="46.0749170" lon="10.4915680">
	<ele>2182.80</ele>
	<time>2023-08-06T11:21:29.000Z</time>
</trkpt>
<trkpt lat="46.0749210" lon="10.4915710">
	<ele>2182.60</ele>
	<time>2023-08-06T11:21:30.000Z</time>
</trkpt>
<trkpt lat="46.0749250" lon="10.4915800">
	<ele>2182.60</ele>
	<time>2023-08-06T11:21:31.000Z</time>
</trkpt>
<trkpt lat="46.0749260" lon="10.4915960">
	<ele>2182.20</ele>
	<time>2023-08-06T11:21:32.000Z</time>
</trkpt>
<trkpt lat="46.0749210" lon="10.4916150">
	<ele>2182.00</ele>
	<time>2023-08-06T11:21:33.000Z</time>
</trkpt>
<trkpt lat="46.0749170" lon="10.4916260">
	<ele>2181.80</ele>
	<time>2023-08-06T11:21:34.000Z</time>
</trkpt>
<trkpt lat="46.0749180" lon="10.4916330">
	<ele>2181.80</ele>
	<time>2023-08-06T11:21:35.000Z</time>
</trkpt>
<trkpt lat="46.0749180" lon="10.4916400">
	<ele>2181.60</ele>
	<time>2023-08-06T11:21:36.000Z</time>
</trkpt>
<trkpt lat="46.0749190" lon="10.4916440">
	<ele>2181.60</ele>
	<time>2023-08-06T11:21:37.000Z</time>
</trkpt>
<trkpt lat="46.0749190" lon="10.4916450">
	<ele>2181.40</ele>
	<time>2023-08-06T11:21:38.000Z</time>
</trkpt>
<trkpt lat="46.0749190" lon="10.4916470">
	<ele>2181.40</ele>
	<time>2023-08-06T11:21:39.000Z</time>
</trkpt>
<trkpt lat="46.0749180" lon="10.4916490">
	<ele>2181.20</ele>
	<time>2023-08-06T11:21:40.000Z</time>
</trkpt>
<trkpt lat="46.0749160" lon="10.4916520">
	<ele>2181.20</ele>
	<time>2023-08-06T11:21:41.000Z</time>
</trkpt>
<trkpt lat="46.0749150" lon="10.4916520">
	<ele>2181.00</ele>
	<time>2023-08-06T11:21:42.000Z</time>
</trkpt>
<trkpt lat="46.0749140" lon="10.4916490">
	<ele>2181.00</ele>
	<time>2023-08-06T11:21:43.000Z</time>
</trkpt>
<trkpt lat="46.0749180" lon="10.4916490">
	<ele>2181.00</ele>
	<time>2023-08-06T11:21:44.000Z</time>
</trkpt>
<trkpt lat="46.0749200" lon="10.4916490">
	<ele>2180.80</ele>
	<time>2023-08-06T11:21:45.000Z</time>
</trkpt>
<trkpt lat="46.0749200" lon="10.4916490">
	<ele>2180.60</ele>
	<time>2023-08-06T11:21:46.000Z</time>
</trkpt>
<trkpt lat="46.0749210" lon="10.4916500">
	<ele>2180.40</ele>
	<time>2023-08-06T11:21:47.000Z</time>
</trkpt>
<trkpt lat="46.0749210" lon="10.4916480">
	<ele>2180.40</ele>
	<time>2023-08-06T11:21:48.000Z</time>
</trkpt>
<trkpt lat="46.0749230" lon="10.4916460">
	<ele>2180.40</ele>
	<time>2023-08-06T11:21:49.000Z</time>
</trkpt>
<trkpt lat="46.0749240" lon="10.4916430">
	<ele>2180.20</ele>
	<time>2023-08-06T11:21:50.000Z</time>
</trkpt>
<trkpt lat="46.0749230" lon="10.4916420">
	<ele>2180.20</ele>
	<time>2023-08-06T11:21:51.000Z</time>
</trkpt>
<trkpt lat="46.0749210" lon="10.4916360">
	<ele>2180.20</ele>
	<time>2023-08-06T11:21:52.000Z</time>
</trkpt>
<trkpt lat="46.0749250" lon="10.4916310">
	<ele>2180.00</ele>
	<time>2023-08-06T11:21:53.000Z</time>
</trkpt>
<trkpt lat="46.0749280" lon="10.4916240">
	<ele>2179.80</ele>
	<time>2023-08-06T11:21:54.000Z</time>
</trkpt>
<trkpt lat="46.0749300" lon="10.4916160">
	<ele>2179.60</ele>
	<time>2023-08-06T11:21:55.000Z</time>
</trkpt>
<trkpt lat="46.0749360" lon="10.4916070">
	<ele>2179.20</ele>
	<time>2023-08-06T11:21:56.000Z</time>
</trkpt>
<trkpt lat="46.0749430" lon="10.4916040">
	<ele>2179.00</ele>
	<time>2023-08-06T11:21:57.000Z</time>
</trkpt>
<trkpt lat="46.0749520" lon="10.4915980">
	<ele>2179.00</ele>
	<time>2023-08-06T11:21:58.000Z</time>
</trkpt>
<trkpt lat="46.0749600" lon="10.4915980">
	<ele>2178.60</ele>
	<time>2023-08-06T11:21:59.000Z</time>
</trkpt>
<trkpt lat="46.0749660" lon="10.4915970">
	<ele>2178.40</ele>
	<time>2023-08-06T11:22:00.000Z</time>
</trkpt>
<trkpt lat="46.0749710" lon="10.4915950">
	<ele>2178.20</ele>
	<time>2023-08-06T11:22:01.000Z</time>
</trkpt>
<trkpt lat="46.0749790" lon="10.4915990">
	<ele>2178.00</ele>
	<time>2023-08-06T11:22:02.000Z</time>
</trkpt>
<trkpt lat="46.0749860" lon="10.4916050">
	<ele>2177.60</ele>
	<time>2023-08-06T11:22:03.000Z</time>
</trkpt>
<trkpt lat="46.0749930" lon="10.4916130">
	<ele>2177.20</ele>
	<time>2023-08-06T11:22:04.000Z</time>
</trkpt>
<trkpt lat="46.0749920" lon="10.4916200">
	<ele>2177.00</ele>
	<time>2023-08-06T11:22:05.000Z</time>
</trkpt>
<trkpt lat="46.0749910" lon="10.4916240">
	<ele>2176.60</ele>
	<time>2023-08-06T11:22:06.000Z</time>
</trkpt>
<trkpt lat="46.0749910" lon="10.4916340">
	<ele>2176.40</ele>
	<time>2023-08-06T11:22:07.000Z</time>
</trkpt>
<trkpt lat="46.0749910" lon="10.4916340">
	<ele>2176.20</ele>
	<time>2023-08-06T11:22:08.000Z</time>
</trkpt>
<trkpt lat="46.0749930" lon="10.4916340">
	<ele>2175.80</ele>
	<time>2023-08-06T11:22:09.000Z</time>
</trkpt>
<trkpt lat="46.0749930" lon="10.4916320">
	<ele>2175.60</ele>
	<time>2023-08-06T11:22:10.000Z</time>
</trkpt>
<trkpt lat="46.0749920" lon="10.4916270">
	<ele>2175.40</ele>
	<time>2023-08-06T11:22:11.000Z</time>
</trkpt>
<trkpt lat="46.0749860" lon="10.4916220">
	<ele>2175.20</ele>
	<time>2023-08-06T11:22:12.000Z</time>
</trkpt>
<trkpt lat="46.0749880" lon="10.4916240">
	<ele>2174.80</ele>
	<time>2023-08-06T11:22:13.000Z</time>
</trkpt>
<trkpt lat="46.0749890" lon="10.4916310">
	<ele>2174.60</ele>
	<time>2023-08-06T11:22:14.000Z</time>
</trkpt>
<trkpt lat="46.0749900" lon="10.4916400">
	<ele>2174.40</ele>
	<time>2023-08-06T11:22:15.000Z</time>
</trkpt>
<trkpt lat="46.0749930" lon="10.4916500">
	<ele>2174.20</ele>
	<time>2023-08-06T11:22:16.000Z</time>
</trkpt>
<trkpt lat="46.0749940" lon="10.4916560">
	<ele>2174.00</ele>
	<time>2023-08-06T11:22:17.000Z</time>
</trkpt>
<trkpt lat="46.0749950" lon="10.4916600">
	<ele>2174.00</ele>
	<time>2023-08-06T11:22:18.000Z</time>
</trkpt>
<trkpt lat="46.0749960" lon="10.4916610">
	<ele>2174.00</ele>
	<time>2023-08-06T11:22:19.000Z</time>
</trkpt>
<trkpt lat="46.0749970" lon="10.4916570">
	<ele>2173.80</ele>
	<time>2023-08-06T11:22:20.000Z</time>
</trkpt>
<trkpt lat="46.0749960" lon="10.4916530">
	<ele>2173.80</ele>
	<time>2023-08-06T11:22:21.000Z</time>
</trkpt>
<trkpt lat="46.0749970" lon="10.4916470">
	<ele>2173.80</ele>
	<time>2023-08-06T11:22:22.000Z</time>
</trkpt>
<trkpt lat="46.0750010" lon="10.4916450">
	<ele>2173.20</ele>
	<time>2023-08-06T11:22:23.000Z</time>
</trkpt>
<trkpt lat="46.0750040" lon="10.4916500">
	<ele>2173.00</ele>
	<time>2023-08-06T11:22:24.000Z</time>
</trkpt>
<trkpt lat="46.0750060" lon="10.4916540">
	<ele>2172.60</ele>
	<time>2023-08-06T11:22:25.000Z</time>
</trkpt>
<trkpt lat="46.0750060" lon="10.4916540">
	<ele>2172.40</ele>
	<time>2023-08-06T11:22:26.000Z</time>
</trkpt>
<trkpt lat="46.0750080" lon="10.4916530">
	<ele>2172.00</ele>
	<time>2023-08-06T11:22:27.000Z</time>
</trkpt>
<trkpt lat="46.0750100" lon="10.4916530">
	<ele>2171.80</ele>
	<time>2023-08-06T11:22:28.000Z</time>
</trkpt>
<trkpt lat="46.0750100" lon="10.4916520">
	<ele>2171.80</ele>
	<time>2023-08-06T11:22:29.000Z</time>
</trkpt>
<trkpt lat="46.0750150" lon="10.4916510">
	<ele>2171.60</ele>
	<time>2023-08-06T11:22:30.000Z</time>
</trkpt>
<trkpt lat="46.0750200" lon="10.4916500">
	<ele>2171.60</ele>
	<time>2023-08-06T11:22:31.000Z</time>
</trkpt>
<trkpt lat="46.0750180" lon="10.4916530">
	<ele>2171.20</ele>
	<time>2023-08-06T11:22:32.000Z</time>
</trkpt>
<trkpt lat="46.0750160" lon="10.4916530">
	<ele>2171.00</ele>
	<time>2023-08-06T11:22:33.000Z</time>
</trkpt>
<trkpt lat="46.0750120" lon="10.4916500">
	<ele>2170.80</ele>
	<time>2023-08-06T11:22:34.000Z</time>
</trkpt>
<trkpt lat="46.0750170" lon="10.4916480">
	<ele>2170.80</ele>
	<time>2023-08-06T11:22:35.000Z</time>
</trkpt>
<trkpt lat="46.0750260" lon="10.4916500">
	<ele>2170.60</ele>
	<time>2023-08-06T11:22:36.000Z</time>
</trkpt>
<trkpt lat="46.0750340" lon="10.4916530">
	<ele>2170.20</ele>
	<time>2023-08-06T11:22:37.000Z</time>
</trkpt>
<trkpt lat="46.0750400" lon="10.4916540">
	<ele>2169.80</ele>
	<time>2023-08-06T11:22:38.000Z</time>
</trkpt>
<trkpt lat="46.0750500" lon="10.4916580">
	<ele>2169.40</ele>
	<time>2023-08-06T11:22:39.000Z</time>
</trkpt>
<trkpt lat="46.0750550" lon="10.4916600">
	<ele>2169.40</ele>
	<time>2023-08-06T11:22:40.000Z</time>
</trkpt>
<trkpt lat="46.0750610" lon="10.4916600">
	<ele>2169.20</ele>
	<time>2023-08-06T11:22:41.000Z</time>
</trkpt>
<trkpt lat="46.0750700" lon="10.4916540">
	<ele>2169.00</ele>
	<time>2023-08-06T11:22:42.000Z</time>
</trkpt>
<trkpt lat="46.0750770" lon="10.4916460">
	<ele>2168.80</ele>
	<time>2023-08-06T11:22:43.000Z</time>
</trkpt>
<trkpt lat="46.0750810" lon="10.4916420">
	<ele>2168.60</ele>
	<time>2023-08-06T11:22:44.000Z</time>
</trkpt>
<trkpt lat="46.0750850" lon="10.4916380">
	<ele>2168.40</ele>
	<time>2023-08-06T11:22:45.000Z</time>
</trkpt>
<trkpt lat="46.0750880" lon="10.4916310">
	<ele>2168.00</ele>
	<time>2023-08-06T11:22:46.000Z</time>
</trkpt>
<trkpt lat="46.0750890" lon="10.4916230">
	<ele>2167.80</ele>
	<time>2023-08-06T11:22:47.000Z</time>
</trkpt>
<trkpt lat="46.0750900" lon="10.4916190">
	<ele>2167.60</ele>
	<time>2023-08-06T11:22:48.000Z</time>
</trkpt>
<trkpt lat="46.0751000" lon="10.4916220">
	<ele>2167.40</ele>
	<time>2023-08-06T11:22:49.000Z</time>
</trkpt>
<trkpt lat="46.0751080" lon="10.4916290">
	<ele>2167.00</ele>
	<time>2023-08-06T11:22:50.000Z</time>
</trkpt>
<trkpt lat="46.0751140" lon="10.4916340">
	<ele>2166.80</ele>
	<time>2023-08-06T11:22:51.000Z</time>
</trkpt>
<trkpt lat="46.0751180" lon="10.4916380">
	<ele>2166.60</ele>
	<time>2023-08-06T11:22:52.000Z</time>
</trkpt>
<trkpt lat="46.0751210" lon="10.4916440">
	<ele>2166.60</ele>
	<time>2023-08-06T11:22:53.000Z</time>
</trkpt>
<trkpt lat="46.0751210" lon="10.4916490">
	<ele>2166.40</ele>
	<time>2023-08-06T11:22:54.000Z</time>
</trkpt>
<trkpt lat="46.0751210" lon="10.4916530">
	<ele>2166.20</ele>
	<time>2023-08-06T11:22:55.000Z</time>
</trkpt>
<trkpt lat="46.0751240" lon="10.4916580">
	<ele>2166.20</ele>
	<time>2023-08-06T11:22:56.000Z</time>
</trkpt>
<trkpt lat="46.0751250" lon="10.4916630">
	<ele>2165.80</ele>
	<time>2023-08-06T11:22:57.000Z</time>
</trkpt>
<trkpt lat="46.0751290" lon="10.4916690">
	<ele>2165.60</ele>
	<time>2023-08-06T11:22:58.000Z</time>
</trkpt>
<trkpt lat="46.0751340" lon="10.4916770">
	<ele>2165.40</ele>
	<time>2023-08-06T11:22:59.000Z</time>
</trkpt>
<trkpt lat="46.0751400" lon="10.4916870">
	<ele>2165.20</ele>
	<time>2023-08-06T11:23:00.000Z</time>
</trkpt>
<trkpt lat="46.0751460" lon="10.4916970">
	<ele>2165.00</ele>
	<time>2023-08-06T11:23:01.000Z</time>
</trkpt>
<trkpt lat="46.0751490" lon="10.4917020">
	<ele>2164.80</ele>
	<time>2023-08-06T11:23:02.000Z</time>
</trkpt>
<trkpt lat="46.0751480" lon="10.4917070">
	<ele>2164.60</ele>
	<time>2023-08-06T11:23:03.000Z</time>
</trkpt>
<trkpt lat="46.0751430" lon="10.4917080">
	<ele>2164.40</ele>
	<time>2023-08-06T11:23:04.000Z</time>
</trkpt>
<trkpt lat="46.0751450" lon="10.4917130">
	<ele>2164.20</ele>
	<time>2023-08-06T11:23:05.000Z</time>
</trkpt>
<trkpt lat="46.0751480" lon="10.4917160">
	<ele>2164.00</ele>
	<time>2023-08-06T11:23:06.000Z</time>
</trkpt>
<trkpt lat="46.0751530" lon="10.4917160">
	<ele>2163.80</ele>
	<time>2023-08-06T11:23:07.000Z</time>
</trkpt>
<trkpt lat="46.0751540" lon="10.4917150">
	<ele>2163.80</ele>
	<time>2023-08-06T11:23:08.000Z</time>
</trkpt>
<trkpt lat="46.0751620" lon="10.4917140">
	<ele>2163.80</ele>
	<time>2023-08-06T11:23:09.000Z</time>
</trkpt>
<trkpt lat="46.0751670" lon="10.4917120">
	<ele>2163.60</ele>
	<time>2023-08-06T11:23:10.000Z</time>
</trkpt>
<trkpt lat="46.0751780" lon="10.4917170">
	<ele>2163.60</ele>
	<time>2023-08-06T11:23:11.000Z</time>
</trkpt>
<trkpt lat="46.0751860" lon="10.4917200">
	<ele>2163.40</ele>
	<time>2023-08-06T11:23:12.000Z</time>
</trkpt>
<trkpt lat="46.0751950" lon="10.4917190">
	<ele>2163.40</ele>
	<time>2023-08-06T11:23:13.000Z</time>
</trkpt>
<trkpt lat="46.0752020" lon="10.4917190">
	<ele>2163.20</ele>
	<time>2023-08-06T11:23:14.000Z</time>
</trkpt>
<trkpt lat="46.0752080" lon="10.4917200">
	<ele>2163.00</ele>
	<time>2023-08-06T11:23:15.000Z</time>
</trkpt>
<trkpt lat="46.0752130" lon="10.4917200">
	<ele>2162.80</ele>
	<time>2023-08-06T11:23:16.000Z</time>
</trkpt>
<trkpt lat="46.0752200" lon="10.4917170">
	<ele>2162.60</ele>
	<time>2023-08-06T11:23:17.000Z</time>
</trkpt>
<trkpt lat="46.0752240" lon="10.4917140">
	<ele>2162.40</ele>
	<time>2023-08-06T11:23:18.000Z</time>
</trkpt>
<trkpt lat="46.0752280" lon="10.4917090">
	<ele>2162.20</ele>
	<time>2023-08-06T11:23:19.000Z</time>
</trkpt>
<trkpt lat="46.0752340" lon="10.4917040">
	<ele>2161.80</ele>
	<time>2023-08-06T11:23:20.000Z</time>
</trkpt>
<trkpt lat="46.0752400" lon="10.4917010">
	<ele>2161.60</ele>
	<time>2023-08-06T11:23:21.000Z</time>
</trkpt>
<trkpt lat="46.0752440" lon="10.4916930">
	<ele>2161.20</ele>
	<time>2023-08-06T11:23:22.000Z</time>
</trkpt>
<trkpt lat="46.0752510" lon="10.4916870">
	<ele>2161.00</ele>
	<time>2023-08-06T11:23:23.000Z</time>
</trkpt>
<trkpt lat="46.0752580" lon="10.4916840">
	<ele>2160.80</ele>
	<time>2023-08-06T11:23:24.000Z</time>
</trkpt>
<trkpt lat="46.0752620" lon="10.4916870">
	<ele>2160.80</ele>
	<time>2023-08-06T11:23:25.000Z</time>
</trkpt>
<trkpt lat="46.0752640" lon="10.4916890">
	<ele>2160.60</ele>
	<time>2023-08-06T11:23:26.000Z</time>
</trkpt>
<trkpt lat="46.0752710" lon="10.4916930">
	<ele>2160.40</ele>
	<time>2023-08-06T11:23:27.000Z</time>
</trkpt>
<trkpt lat="46.0752760" lon="10.4916970">
	<ele>2160.00</ele>
	<time>2023-08-06T11:23:28.000Z</time>
</trkpt>
<trkpt lat="46.0752830" lon="10.4917030">
	<ele>2159.80</ele>
	<time>2023-08-06T11:23:29.000Z</time>
</trkpt>
<trkpt lat="46.0752860" lon="10.4917100">
	<ele>2159.60</ele>
	<time>2023-08-06T11:23:30.000Z</time>
</trkpt>
<trkpt lat="46.0752920" lon="10.4917170">
	<ele>2159.20</ele>
	<time>2023-08-06T11:23:31.000Z</time>
</trkpt>
<trkpt lat="46.0752900" lon="10.4917210">
	<ele>2159.20</ele>
	<time>2023-08-06T11:23:32.000Z</time>
</trkpt>
<trkpt lat="46.0752910" lon="10.4917230">
	<ele>2159.00</ele>
	<time>2023-08-06T11:23:33.000Z</time>
</trkpt>
<trkpt lat="46.0752930" lon="10.4917270">
	<ele>2158.80</ele>
	<time>2023-08-06T11:23:34.000Z</time>
</trkpt>
<trkpt lat="46.0752980" lon="10.4917290">
	<ele>2158.60</ele>
	<time>2023-08-06T11:23:35.000Z</time>
</trkpt>
<trkpt lat="46.0753020" lon="10.4917330">
	<ele>2158.40</ele>
	<time>2023-08-06T11:23:36.000Z</time>
</trkpt>
<trkpt lat="46.0753040" lon="10.4917340">
	<ele>2158.20</ele>
	<time>2023-08-06T11:23:37.000Z</time>
</trkpt>
<trkpt lat="46.0753080" lon="10.4917360">
	<ele>2158.00</ele>
	<time>2023-08-06T11:23:38.000Z</time>
</trkpt>
<trkpt lat="46.0753110" lon="10.4917400">
	<ele>2157.80</ele>
	<time>2023-08-06T11:23:39.000Z</time>
</trkpt>
<trkpt lat="46.0753170" lon="10.4917430">
	<ele>2157.80</ele>
	<time>2023-08-06T11:23:40.000Z</time>
</trkpt>
<trkpt lat="46.0753230" lon="10.4917450">
	<ele>2157.60</ele>
	<time>2023-08-06T11:23:41.000Z</time>
</trkpt>
<trkpt lat="46.0753230" lon="10.4917520">
	<ele>2157.20</ele>
	<time>2023-08-06T11:23:42.000Z</time>
</trkpt>
<trkpt lat="46.0753230" lon="10.4917580">
	<ele>2157.00</ele>
	<time>2023-08-06T11:23:43.000Z</time>
</trkpt>
<trkpt lat="46.0753220" lon="10.4917660">
	<ele>2156.80</ele>
	<time>2023-08-06T11:23:44.000Z</time>
</trkpt>
<trkpt lat="46.0753160" lon="10.4917740">
	<ele>2156.60</ele>
	<time>2023-08-06T11:23:45.000Z</time>
</trkpt>
<trkpt lat="46.0753150" lon="10.4917790">
	<ele>2156.20</ele>
	<time>2023-08-06T11:23:46.000Z</time>
</trkpt>
<trkpt lat="46.0753130" lon="10.4917850">
	<ele>2155.80</ele>
	<time>2023-08-06T11:23:47.000Z</time>
</trkpt>
<trkpt lat="46.0753110" lon="10.4917900">
	<ele>2155.60</ele>
	<time>2023-08-06T11:23:48.000Z</time>
</trkpt>
<trkpt lat="46.0753120" lon="10.4917950">
	<ele>2155.40</ele>
	<time>2023-08-06T11:23:49.000Z</time>
</trkpt>
<trkpt lat="46.0753180" lon="10.4918010">
	<ele>2155.40</ele>
	<time>2023-08-06T11:23:50.000Z</time>
</trkpt>
<trkpt lat="46.0753220" lon="10.4918050">
	<ele>2155.20</ele>
	<time>2023-08-06T11:23:51.000Z</time>
</trkpt>
<trkpt lat="46.0753200" lon="10.4918120">
	<ele>2155.00</ele>
	<time>2023-08-06T11:23:52.000Z</time>
</trkpt>
<trkpt lat="46.0753180" lon="10.4918200">
	<ele>2154.80</ele>
	<time>2023-08-06T11:23:53.000Z</time>
</trkpt>
<trkpt lat="46.0753200" lon="10.4918270">
	<ele>2154.60</ele>
	<time>2023-08-06T11:23:54.000Z</time>
</trkpt>
<trkpt lat="46.0753230" lon="10.4918330">
	<ele>2154.40</ele>
	<time>2023-08-06T11:23:55.000Z</time>
</trkpt>
<trkpt lat="46.0753330" lon="10.4918360">
	<ele>2154.00</ele>
	<time>2023-08-06T11:23:56.000Z</time>
</trkpt>
<trkpt lat="46.0753410" lon="10.4918410">
	<ele>2153.80</ele>
	<time>2023-08-06T11:23:57.000Z</time>
</trkpt>
<trkpt lat="46.0753460" lon="10.4918470">
	<ele>2153.80</ele>
	<time>2023-08-06T11:23:58.000Z</time>
</trkpt>
<trkpt lat="46.0753510" lon="10.4918580">
	<ele>2153.60</ele>
	<time>2023-08-06T11:23:59.000Z</time>
</trkpt>
<trkpt lat="46.0753570" lon="10.4918650">
	<ele>2153.40</ele>
	<time>2023-08-06T11:24:00.000Z</time>
</trkpt>
<trkpt lat="46.0753580" lon="10.4918680">
	<ele>2153.20</ele>
	<time>2023-08-06T11:24:01.000Z</time>
</trkpt>
<trkpt lat="46.0753600" lon="10.4918660">
	<ele>2153.20</ele>
	<time>2023-08-06T11:24:02.000Z</time>
</trkpt>
<trkpt lat="46.0753640" lon="10.4918620">
	<ele>2153.00</ele>
	<time>2023-08-06T11:24:03.000Z</time>
</trkpt>
<trkpt lat="46.0753680" lon="10.4918600">
	<ele>2152.60</ele>
	<time>2023-08-06T11:24:04.000Z</time>
</trkpt>
<trkpt lat="46.0753660" lon="10.4918520">
	<ele>2152.60</ele>
	<time>2023-08-06T11:24:05.000Z</time>
</trkpt>
<trkpt lat="46.0753620" lon="10.4918420">
	<ele>2152.40</ele>
	<time>2023-08-06T11:24:06.000Z</time>
</trkpt>
<trkpt lat="46.0753640" lon="10.4918410">
	<ele>2152.20</ele>
	<time>2023-08-06T11:24:07.000Z</time>
</trkpt>
<trkpt lat="46.0753690" lon="10.4918370">
	<ele>2152.00</ele>
	<time>2023-08-06T11:24:08.000Z</time>
</trkpt>
<trkpt lat="46.0753720" lon="10.4918350">
	<ele>2152.00</ele>
	<time>2023-08-06T11:24:09.000Z</time>
</trkpt>
<trkpt lat="46.0753750" lon="10.4918350">
	<ele>2151.80</ele>
	<time>2023-08-06T11:24:10.000Z</time>
</trkpt>
<trkpt lat="46.0753760" lon="10.4918350">
	<ele>2151.80</ele>
	<time>2023-08-06T11:24:11.000Z</time>
</trkpt>
<trkpt lat="46.0753780" lon="10.4918340">
	<ele>2151.40</ele>
	<time>2023-08-06T11:24:12.000Z</time>
</trkpt>
<trkpt lat="46.0753760" lon="10.4918340">
	<ele>2151.20</ele>
	<time>2023-08-06T11:24:13.000Z</time>
</trkpt>
<trkpt lat="46.0753770" lon="10.4918330">
	<ele>2151.00</ele>
	<time>2023-08-06T11:24:14.000Z</time>
</trkpt>
<trkpt lat="46.0753800" lon="10.4918290">
	<ele>2150.80</ele>
	<time>2023-08-06T11:24:15.000Z</time>
</trkpt>
<trkpt lat="46.0753820" lon="10.4918260">
	<ele>2150.60</ele>
	<time>2023-08-06T11:24:16.000Z</time>
</trkpt>
<trkpt lat="46.0753810" lon="10.4918210">
	<ele>2150.40</ele>
	<time>2023-08-06T11:24:17.000Z</time>
</trkpt>
<trkpt lat="46.0753850" lon="10.4918210">
	<ele>2150.20</ele>
	<time>2023-08-06T11:24:18.000Z</time>
</trkpt>
<trkpt lat="46.0753890" lon="10.4918180">
	<ele>2149.80</ele>
	<time>2023-08-06T11:24:19.000Z</time>
</trkpt>
<trkpt lat="46.0753940" lon="10.4918170">
	<ele>2149.40</ele>
	<time>2023-08-06T11:24:20.000Z</time>
</trkpt>
<trkpt lat="46.0753970" lon="10.4918140">
	<ele>2149.20</ele>
	<time>2023-08-06T11:24:21.000Z</time>
</trkpt>
<trkpt lat="46.0753920" lon="10.4918120">
	<ele>2149.20</ele>
	<time>2023-08-06T11:24:22.000Z</time>
</trkpt>
<trkpt lat="46.0753930" lon="10.4918090">
	<ele>2149.00</ele>
	<time>2023-08-06T11:24:23.000Z</time>
</trkpt>
<trkpt lat="46.0754000" lon="10.4918080">
	<ele>2148.80</ele>
	<time>2023-08-06T11:24:24.000Z</time>
</trkpt>
<trkpt lat="46.0754050" lon="10.4918080">
	<ele>2148.40</ele>
	<time>2023-08-06T11:24:25.000Z</time>
</trkpt>
<trkpt lat="46.0754160" lon="10.4918100">
	<ele>2148.00</ele>
	<time>2023-08-06T11:24:26.000Z</time>
</trkpt>
<trkpt lat="46.0754230" lon="10.4918110">
	<ele>2148.00</ele>
	<time>2023-08-06T11:24:27.000Z</time>
</trkpt>
<trkpt lat="46.0754280" lon="10.4918130">
	<ele>2147.80</ele>
	<time>2023-08-06T11:24:28.000Z</time>
</trkpt>
<trkpt lat="46.0754320" lon="10.4918150">
	<ele>2147.60</ele>
	<time>2023-08-06T11:24:29.000Z</time>
</trkpt>
<trkpt lat="46.0754390" lon="10.4918160">
	<ele>2147.40</ele>
	<time>2023-08-06T11:24:30.000Z</time>
</trkpt>
<trkpt lat="46.0754420" lon="10.4918170">
	<ele>2147.00</ele>
	<time>2023-08-06T11:24:31.000Z</time>
</trkpt>
<trkpt lat="46.0754450" lon="10.4918200">
	<ele>2146.80</ele>
	<time>2023-08-06T11:24:32.000Z</time>
</trkpt>
<trkpt lat="46.0754480" lon="10.4918190">
	<ele>2146.60</ele>
	<time>2023-08-06T11:24:33.000Z</time>
</trkpt>
<trkpt lat="46.0754510" lon="10.4918160">
	<ele>2146.40</ele>
	<time>2023-08-06T11:24:34.000Z</time>
</trkpt>
<trkpt lat="46.0754560" lon="10.4918200">
	<ele>2146.20</ele>
	<time>2023-08-06T11:24:35.000Z</time>
</trkpt>
<trkpt lat="46.0754640" lon="10.4918270">
	<ele>2145.80</ele>
	<time>2023-08-06T11:24:36.000Z</time>
</trkpt>
<trkpt lat="46.0754670" lon="10.4918290">
	<ele>2145.60</ele>
	<time>2023-08-06T11:24:37.000Z</time>
</trkpt>
<trkpt lat="46.0754730" lon="10.4918290">
	<ele>2145.40</ele>
	<time>2023-08-06T11:24:38.000Z</time>
</trkpt>
<trkpt lat="46.0754770" lon="10.4918270">
	<ele>2145.20</ele>
	<time>2023-08-06T11:24:39.000Z</time>
</trkpt>
<trkpt lat="46.0754790" lon="10.4918270">
	<ele>2144.80</ele>
	<time>2023-08-06T11:24:40.000Z</time>
</trkpt>
<trkpt lat="46.0754820" lon="10.4918230">
	<ele>2144.40</ele>
	<time>2023-08-06T11:24:41.000Z</time>
</trkpt>
<trkpt lat="46.0754830" lon="10.4918200">
	<ele>2144.20</ele>
	<time>2023-08-06T11:24:42.000Z</time>
</trkpt>
<trkpt lat="46.0754850" lon="10.4918180">
	<ele>2144.20</ele>
	<time>2023-08-06T11:24:43.000Z</time>
</trkpt>
<trkpt lat="46.0754820" lon="10.4918140">
	<ele>2144.00</ele>
	<time>2023-08-06T11:24:44.000Z</time>
</trkpt>
<trkpt lat="46.0754750" lon="10.4918130">
	<ele>2144.00</ele>
	<time>2023-08-06T11:24:45.000Z</time>
</trkpt>
<trkpt lat="46.0754740" lon="10.4918140">
	<ele>2143.80</ele>
	<time>2023-08-06T11:24:46.000Z</time>
</trkpt>
<trkpt lat="46.0754830" lon="10.4918150">
	<ele>2143.60</ele>
	<time>2023-08-06T11:24:47.000Z</time>
</trkpt>
<trkpt lat="46.0754880" lon="10.4918120">
	<ele>2143.60</ele>
	<time>2023-08-06T11:24:48.000Z</time>
</trkpt>
<trkpt lat="46.0754930" lon="10.4918040">
	<ele>2143.40</ele>
	<time>2023-08-06T11:24:49.000Z</time>
</trkpt>
<trkpt lat="46.0754990" lon="10.4917990">
	<ele>2143.20</ele>
	<time>2023-08-06T11:24:50.000Z</time>
</trkpt>
<trkpt lat="46.0755090" lon="10.4917950">
	<ele>2143.00</ele>
	<time>2023-08-06T11:24:51.000Z</time>
</trkpt>
<trkpt lat="46.0755220" lon="10.4917950">
	<ele>2142.80</ele>
	<time>2023-08-06T11:24:52.000Z</time>
</trkpt>
<trkpt lat="46.0755250" lon="10.4918020">
	<ele>2142.80</ele>
	<time>2023-08-06T11:24:53.000Z</time>
</trkpt>
<trkpt lat="46.0755200" lon="10.4918100">
	<ele>2142.40</ele>
	<time>2023-08-06T11:24:54.000Z</time>
</trkpt>
<trkpt lat="46.0755210" lon="10.4918140">
	<ele>2142.20</ele>
	<time>2023-08-06T11:24:55.000Z</time>
</trkpt>
<trkpt lat="46.0755210" lon="10.4918190">
	<ele>2142.20</ele>
	<time>2023-08-06T11:24:56.000Z</time>
</trkpt>
<trkpt lat="46.0755190" lon="10.4918260">
	<ele>2141.80</ele>
	<time>2023-08-06T11:24:57.000Z</time>
</trkpt>
<trkpt lat="46.0755150" lon="10.4918370">
	<ele>2141.80</ele>
	<time>2023-08-06T11:24:58.000Z</time>
</trkpt>
<trkpt lat="46.0755140" lon="10.4918450">
	<ele>2141.60</ele>
	<time>2023-08-06T11:24:59.000Z</time>
</trkpt>
<trkpt lat="46.0755120" lon="10.4918480">
	<ele>2141.40</ele>
	<time>2023-08-06T11:25:00.000Z</time>
</trkpt>
<trkpt lat="46.0755100" lon="10.4918500">
	<ele>2141.20</ele>
	<time>2023-08-06T11:25:01.000Z</time>
</trkpt>
<trkpt lat="46.0755060" lon="10.4918490">
	<ele>2141.00</ele>
	<time>2023-08-06T11:25:02.000Z</time>
</trkpt>
<trkpt lat="46.0755020" lon="10.4918500">
	<ele>2140.80</ele>
	<time>2023-08-06T11:25:03.000Z</time>
</trkpt>
<trkpt lat="46.0755000" lon="10.4918480">
	<ele>2140.80</ele>
	<time>2023-08-06T11:25:04.000Z</time>
</trkpt>
<trkpt lat="46.0755010" lon="10.4918480">
	<ele>2140.80</ele>
	<time>2023-08-06T11:25:05.000Z</time>
</trkpt>
<trkpt lat="46.0755010" lon="10.4918480">
	<ele>2141.00</ele>
	<time>2023-08-06T11:25:06.000Z</time>
</trkpt>
<trkpt lat="46.0754980" lon="10.4918500">
	<ele>2141.00</ele>
	<time>2023-08-06T11:25:07.000Z</time>
</trkpt>
<trkpt lat="46.0754970" lon="10.4918510">
	<ele>2141.00</ele>
	<time>2023-08-06T11:25:08.000Z</time>
</trkpt>
<trkpt lat="46.0754970" lon="10.4918510">
	<ele>2141.00</ele>
	<time>2023-08-06T11:25:09.000Z</time>
</trkpt>
<trkpt lat="46.0754970" lon="10.4918510">
	<ele>2141.20</ele>
	<time>2023-08-06T11:25:10.000Z</time>
</trkpt>
<trkpt lat="46.0754970" lon="10.4918510">
	<ele>2141.20</ele>
	<time>2023-08-06T11:25:11.000Z</time>
</trkpt>
<trkpt lat="46.0754970" lon="10.4918510">
	<ele>2141.20</ele>
	<time>2023-08-06T11:25:12.000Z</time>
</trkpt>
<trkpt lat="46.0754970" lon="10.4918510">
	<ele>2141.00</ele>
	<time>2023-08-06T11:25:13.000Z</time>
</trkpt>
<trkpt lat="46.0754970" lon="10.4918510">
	<ele>2141.00</ele>
	<time>2023-08-06T11:25:14.000Z</time>
</trkpt>
<trkpt lat="46.0754970" lon="10.4918510">
	<ele>2141.00</ele>
	<time>2023-08-06T11:25:15.000Z</time>
</trkpt>
<trkpt lat="46.0754970" lon="10.4918510">
	<ele>2141.00</ele>
	<time>2023-08-06T11:25:16.000Z</time>
</trkpt>
<trkpt lat="46.0754970" lon="10.4918510">
	<ele>2141.00</ele>
	<time>2023-08-06T11:25:17.000Z</time>
</trkpt>
<trkpt lat="46.0754970" lon="10.4918500">
	<ele>2141.00</ele>
	<time>2023-08-06T11:25:18.000Z</time>
</trkpt>
<trkpt lat="46.0754970" lon="10.4918500">
	<ele>2141.20</ele>
	<time>2023-08-06T11:25:19.000Z</time>
</trkpt>
<trkpt lat="46.0754970" lon="10.4918500">
	<ele>2141.20</ele>
	<time>2023-08-06T11:25:20.000Z</time>
</trkpt>
<trkpt lat="46.0754970" lon="10.4918500">
	<ele>2141.20</ele>
	<time>2023-08-06T11:25:21.000Z</time>
</trkpt>
<trkpt lat="46.0754970" lon="10.4918490">
	<ele>2141.40</ele>
	<time>2023-08-06T11:25:22.000Z</time>
</trkpt>
<trkpt lat="46.0754970" lon="10.4918490">
	<ele>2141.20</ele>
	<time>2023-08-06T11:25:23.000Z</time>
</trkpt>
<trkpt lat="46.0754970" lon="10.4918480">
	<ele>2141.20</ele>
	<time>2023-08-06T11:25:24.000Z</time>
</trkpt>
<trkpt lat="46.0754950" lon="10.4918480">
	<ele>2141.20</ele>
	<time>2023-08-06T11:25:25.000Z</time>
</trkpt>
<trkpt lat="46.0754950" lon="10.4918480">
	<ele>2141.20</ele>
	<time>2023-08-06T11:25:26.000Z</time>
</trkpt>
<trkpt lat="46.0754950" lon="10.4918480">
	<ele>2141.20</ele>
	<time>2023-08-06T11:25:27.000Z</time>
</trkpt>
<trkpt lat="46.0754910" lon="10.4918480">
	<ele>2141.20</ele>
	<time>2023-08-06T11:25:28.000Z</time>
</trkpt>
<trkpt lat="46.0754890" lon="10.4918490">
	<ele>2141.20</ele>
	<time>2023-08-06T11:25:29.000Z</time>
</trkpt>
<trkpt lat="46.0754850" lon="10.4918500">
	<ele>2141.20</ele>
	<time>2023-08-06T11:25:30.000Z</time>
</trkpt>
<trkpt lat="46.0754810" lon="10.4918500">
	<ele>2141.20</ele>
	<time>2023-08-06T11:25:31.000Z</time>
</trkpt>
<trkpt lat="46.0754770" lon="10.4918500">
	<ele>2141.20</ele>
	<time>2023-08-06T11:25:32.000Z</time>
</trkpt>
<trkpt lat="46.0754770" lon="10.4918500">
	<ele>2141.20</ele>
	<time>2023-08-06T11:25:33.000Z</time>
</trkpt>
<trkpt lat="46.0754770" lon="10.4918500">
	<ele>2141.20</ele>
	<time>2023-08-06T11:25:34.000Z</time>
</trkpt>
<trkpt lat="46.0754770" lon="10.4918500">
	<ele>2141.20</ele>
	<time>2023-08-06T11:25:35.000Z</time>
</trkpt>
<trkpt lat="46.0754770" lon="10.4918500">
	<ele>2141.00</ele>
	<time>2023-08-06T11:25:36.000Z</time>
</trkpt>
<trkpt lat="46.0754770" lon="10.4918500">
	<ele>2141.00</ele>
	<time>2023-08-06T11:25:37.000Z</time>
</trkpt>
<trkpt lat="46.0754770" lon="10.4918500">
	<ele>2141.00</ele>
	<time>2023-08-06T11:25:38.000Z</time>
</trkpt>
<trkpt lat="46.0754750" lon="10.4918500">
	<ele>2141.00</ele>
	<time>2023-08-06T11:25:39.000Z</time>
</trkpt>
<trkpt lat="46.0754730" lon="10.4918500">
	<ele>2141.00</ele>
	<time>2023-08-06T11:25:40.000Z</time>
</trkpt>
<trkpt lat="46.0754720" lon="10.4918500">
	<ele>2141.00</ele>
	<time>2023-08-06T11:25:41.000Z</time>
</trkpt>
<trkpt lat="46.0754650" lon="10.4918500">
	<ele>2141.00</ele>
	<time>2023-08-06T11:25:42.000Z</time>
</trkpt>
<trkpt lat="46.0754620" lon="10.4918500">
	<ele>2141.00</ele>
	<time>2023-08-06T11:25:43.000Z</time>
</trkpt>
<trkpt lat="46.0754610" lon="10.4918500">
	<ele>2140.80</ele>
	<time>2023-08-06T11:25:44.000Z</time>
</trkpt>
<trkpt lat="46.0754610" lon="10.4918500">
	<ele>2140.80</ele>
	<time>2023-08-06T11:25:45.000Z</time>
</trkpt>
<trkpt lat="46.0754610" lon="10.4918500">
	<ele>2140.80</ele>
	<time>2023-08-06T11:25:46.000Z</time>
</trkpt>
<trkpt lat="46.0754600" lon="10.4918500">
	<ele>2140.60</ele>
	<time>2023-08-06T11:25:47.000Z</time>
</trkpt>
<trkpt lat="46.0754570" lon="10.4918510">
	<ele>2140.60</ele>
	<time>2023-08-06T11:25:48.000Z</time>
</trkpt>
<trkpt lat="46.0754560" lon="10.4918530">
	<ele>2140.60</ele>
	<time>2023-08-06T11:25:49.000Z</time>
</trkpt>
<trkpt lat="46.0754560" lon="10.4918540">
	<ele>2140.80</ele>
	<time>2023-08-06T11:25:50.000Z</time>
</trkpt>
<trkpt lat="46.0754560" lon="10.4918540">
	<ele>2140.80</ele>
	<time>2023-08-06T11:25:51.000Z</time>
</trkpt>
<trkpt lat="46.0754560" lon="10.4918550">
	<ele>2140.80</ele>
	<time>2023-08-06T11:25:52.000Z</time>
</trkpt>
<trkpt lat="46.0754560" lon="10.4918550">
	<ele>2140.80</ele>
	<time>2023-08-06T11:25:53.000Z</time>
</trkpt>
<trkpt lat="46.0754550" lon="10.4918550">
	<ele>2140.60</ele>
	<time>2023-08-06T11:25:54.000Z</time>
</trkpt>
<trkpt lat="46.0754550" lon="10.4918560">
	<ele>2140.60</ele>
	<time>2023-08-06T11:25:55.000Z</time>
</trkpt>
<trkpt lat="46.0754550" lon="10.4918560">
	<ele>2140.40</ele>
	<time>2023-08-06T11:25:56.000Z</time>
</trkpt>
<trkpt lat="46.0754550" lon="10.4918570">
	<ele>2140.40</ele>
	<time>2023-08-06T11:25:57.000Z</time>
</trkpt>
<trkpt lat="46.0754550" lon="10.4918570">
	<ele>2140.40</ele>
	<time>2023-08-06T11:25:58.000Z</time>
</trkpt>
<trkpt lat="46.0754550" lon="10.4918570">
	<ele>2140.40</ele>
	<time>2023-08-06T11:25:59.000Z</time>
</trkpt>
<trkpt lat="46.0754550" lon="10.4918570">
	<ele>2140.60</ele>
	<time>2023-08-06T11:26:00.000Z</time>
</trkpt>
<trkpt lat="46.0754550" lon="10.4918570">
	<ele>2140.80</ele>
	<time>2023-08-06T11:26:01.000Z</time>
</trkpt>
<trkpt lat="46.0754550" lon="10.4918580">
	<ele>2140.80</ele>
	<time>2023-08-06T11:26:02.000Z</time>
</trkpt>
<trkpt lat="46.0754560" lon="10.4918580">
	<ele>2140.80</ele>
	<time>2023-08-06T11:26:03.000Z</time>
</trkpt>
<trkpt lat="46.0754560" lon="10.4918590">
	<ele>2140.80</ele>
	<time>2023-08-06T11:26:04.000Z</time>
</trkpt>
<trkpt lat="46.0754560" lon="10.4918610">
	<ele>2140.60</ele>
	<time>2023-08-06T11:26:05.000Z</time>
</trkpt>
<trkpt lat="46.0754570" lon="10.4918610">
	<ele>2140.40</ele>
	<time>2023-08-06T11:26:06.000Z</time>
</trkpt>
<trkpt lat="46.0754570" lon="10.4918610">
	<ele>2140.20</ele>
	<time>2023-08-06T11:26:07.000Z</time>
</trkpt>
<trkpt lat="46.0754570" lon="10.4918610">
	<ele>2140.20</ele>
	<time>2023-08-06T11:26:08.000Z</time>
</trkpt>
<trkpt lat="46.0754590" lon="10.4918610">
	<ele>2140.00</ele>
	<time>2023-08-06T11:26:09.000Z</time>
</trkpt>
<trkpt lat="46.0754620" lon="10.4918610">
	<ele>2140.00</ele>
	<time>2023-08-06T11:26:10.000Z</time>
</trkpt>
<trkpt lat="46.0754630" lon="10.4918620">
	<ele>2140.00</ele>
	<time>2023-08-06T11:26:11.000Z</time>
</trkpt>
<trkpt lat="46.0754630" lon="10.4918640">
	<ele>2139.80</ele>
	<time>2023-08-06T11:26:12.000Z</time>
</trkpt>
<trkpt lat="46.0754640" lon="10.4918650">
	<ele>2139.80</ele>
	<time>2023-08-06T11:26:13.000Z</time>
</trkpt>
<trkpt lat="46.0754640" lon="10.4918660">
	<ele>2139.60</ele>
	<time>2023-08-06T11:26:14.000Z</time>
</trkpt>
<trkpt lat="46.0754640" lon="10.4918660">
	<ele>2139.40</ele>
	<time>2023-08-06T11:26:15.000Z</time>
</trkpt>
<trkpt lat="46.0754640" lon="10.4918670">
	<ele>2139.00</ele>
	<time>2023-08-06T11:26:16.000Z</time>
</trkpt>
<trkpt lat="46.0754640" lon="10.4918680">
	<ele>2138.80</ele>
	<time>2023-08-06T11:26:17.000Z</time>
</trkpt>
<trkpt lat="46.0754650" lon="10.4918750">
	<ele>2138.60</ele>
	<time>2023-08-06T11:26:18.000Z</time>
</trkpt>
<trkpt lat="46.0754630" lon="10.4918840">
	<ele>2138.20</ele>
	<time>2023-08-06T11:26:19.000Z</time>
</trkpt>
<trkpt lat="46.0754670" lon="10.4918980">
	<ele>2138.00</ele>
	<time>2023-08-06T11:26:20.000Z</time>
</trkpt>
<trkpt lat="46.0754690" lon="10.4919150">
	<ele>2137.80</ele>
	<time>2023-08-06T11:26:21.000Z</time>
</trkpt>
<trkpt lat="46.0754770" lon="10.4919320">
	<ele>2137.60</ele>
	<time>2023-08-06T11:26:22.000Z</time>
</trkpt>
<trkpt lat="46.0754830" lon="10.4919470">
	<ele>2137.60</ele>
	<time>2023-08-06T11:26:23.000Z</time>
</trkpt>
<trkpt lat="46.0754900" lon="10.4919620">
	<ele>2137.20</ele>
	<time>2023-08-06T11:26:24.000Z</time>
</trkpt>
<trkpt lat="46.0754920" lon="10.4919820">
	<ele>2137.00</ele>
	<time>2023-08-06T11:26:25.000Z</time>
</trkpt>
<trkpt lat="46.0754920" lon="10.4920030">
	<ele>2136.80</ele>
	<time>2023-08-06T11:26:26.000Z</time>
</trkpt>
<trkpt lat="46.0754940" lon="10.4920200">
	<ele>2136.60</ele>
	<time>2023-08-06T11:26:27.000Z</time>
</trkpt>
<trkpt lat="46.0754950" lon="10.4920290">
	<ele>2136.40</ele>
	<time>2023-08-06T11:26:28.000Z</time>
</trkpt>
<trkpt lat="46.0754970" lon="10.4920400">
	<ele>2136.20</ele>
	<time>2023-08-06T11:26:29.000Z</time>
</trkpt>
<trkpt lat="46.0754990" lon="10.4920470">
	<ele>2136.00</ele>
	<time>2023-08-06T11:26:30.000Z</time>
</trkpt>
<trkpt lat="46.0755050" lon="10.4920550">
	<ele>2136.00</ele>
	<time>2023-08-06T11:26:31.000Z</time>
</trkpt>
<trkpt lat="46.0755110" lon="10.4920640">
	<ele>2135.80</ele>
	<time>2023-08-06T11:26:32.000Z</time>
</trkpt>
<trkpt lat="46.0755180" lon="10.4920760">
	<ele>2135.60</ele>
	<time>2023-08-06T11:26:33.000Z</time>
</trkpt>
<trkpt lat="46.0755190" lon="10.4920870">
	<ele>2135.60</ele>
	<time>2023-08-06T11:26:34.000Z</time>
</trkpt>
<trkpt lat="46.0755200" lon="10.4920950">
	<ele>2135.40</ele>
	<time>2023-08-06T11:26:35.000Z</time>
</trkpt>
<trkpt lat="46.0755220" lon="10.4920980">
	<ele>2135.20</ele>
	<time>2023-08-06T11:26:36.000Z</time>
</trkpt>
<trkpt lat="46.0755270" lon="10.4921050">
	<ele>2135.00</ele>
	<time>2023-08-06T11:26:37.000Z</time>
</trkpt>
<trkpt lat="46.0755300" lon="10.4921090">
	<ele>2135.00</ele>
	<time>2023-08-06T11:26:38.000Z</time>
</trkpt>
<trkpt lat="46.0755320" lon="10.4921150">
	<ele>2134.80</ele>
	<time>2023-08-06T11:26:39.000Z</time>
</trkpt>
<trkpt lat="46.0755320" lon="10.4921190">
	<ele>2134.80</ele>
	<time>2023-08-06T11:26:40.000Z</time>
</trkpt>
<trkpt lat="46.0755340" lon="10.4921280">
	<ele>2134.20</ele>
	<time>2023-08-06T11:26:41.000Z</time>
</trkpt>
<trkpt lat="46.0755320" lon="10.4921390">
	<ele>2134.00</ele>
	<time>2023-08-06T11:26:42.000Z</time>
</trkpt>
<trkpt lat="46.0755290" lon="10.4921510">
	<ele>2133.80</ele>
	<time>2023-08-06T11:26:43.000Z</time>
</trkpt>
<trkpt lat="46.0755240" lon="10.4921610">
	<ele>2133.40</ele>
	<time>2023-08-06T11:26:44.000Z</time>
</trkpt>
<trkpt lat="46.0755170" lon="10.4921660">
	<ele>2133.20</ele>
	<time>2023-08-06T11:26:45.000Z</time>
</trkpt>
<trkpt lat="46.0755170" lon="10.4921700">
	<ele>2133.00</ele>
	<time>2023-08-06T11:26:46.000Z</time>
</trkpt>
<trkpt lat="46.0755190" lon="10.4921740">
	<ele>2132.80</ele>
	<time>2023-08-06T11:26:47.000Z</time>
</trkpt>
<trkpt lat="46.0755250" lon="10.4921760">
	<ele>2132.80</ele>
	<time>2023-08-06T11:26:48.000Z</time>
</trkpt>
<trkpt lat="46.0755290" lon="10.4921820">
	<ele>2132.80</ele>
	<time>2023-08-06T11:26:49.000Z</time>
</trkpt>
<trkpt lat="46.0755310" lon="10.4921880">
	<ele>2132.60</ele>
	<time>2023-08-06T11:26:50.000Z</time>
</trkpt>
<trkpt lat="46.0755310" lon="10.4921930">
	<ele>2132.40</ele>
	<time>2023-08-06T11:26:51.000Z</time>
</trkpt>
<trkpt lat="46.0755320" lon="10.4921950">
	<ele>2132.20</ele>
	<time>2023-08-06T11:26:52.000Z</time>
</trkpt>
<trkpt lat="46.0755330" lon="10.4921970">
	<ele>2132.20</ele>
	<time>2023-08-06T11:26:53.000Z</time>
</trkpt>
<trkpt lat="46.0755310" lon="10.4921980">
	<ele>2132.00</ele>
	<time>2023-08-06T11:26:54.000Z</time>
</trkpt>
<trkpt lat="46.0755310" lon="10.4922020">
	<ele>2132.00</ele>
	<time>2023-08-06T11:26:55.000Z</time>
</trkpt>
<trkpt lat="46.0755310" lon="10.4922050">
	<ele>2131.80</ele>
	<time>2023-08-06T11:26:56.000Z</time>
</trkpt>
<trkpt lat="46.0755320" lon="10.4922060">
	<ele>2131.80</ele>
	<time>2023-08-06T11:26:57.000Z</time>
</trkpt>
<trkpt lat="46.0755330" lon="10.4922060">
	<ele>2131.60</ele>
	<time>2023-08-06T11:26:58.000Z</time>
</trkpt>
<trkpt lat="46.0755310" lon="10.4922060">
	<ele>2131.60</ele>
	<time>2023-08-06T11:26:59.000Z</time>
</trkpt>
<trkpt lat="46.0755290" lon="10.4922080">
	<ele>2131.40</ele>
	<time>2023-08-06T11:27:00.000Z</time>
</trkpt>
<trkpt lat="46.0755300" lon="10.4922090">
	<ele>2131.20</ele>
	<time>2023-08-06T11:27:01.000Z</time>
</trkpt>
<trkpt lat="46.0755320" lon="10.4922080">
	<ele>2131.20</ele>
	<time>2023-08-06T11:27:02.000Z</time>
</trkpt>
<trkpt lat="46.0755320" lon="10.4922080">
	<ele>2131.20</ele>
	<time>2023-08-06T11:27:03.000Z</time>
</trkpt>
<trkpt lat="46.0755330" lon="10.4922060">
	<ele>2131.20</ele>
	<time>2023-08-06T11:27:04.000Z</time>
</trkpt>
<trkpt lat="46.0755320" lon="10.4922050">
	<ele>2131.00</ele>
	<time>2023-08-06T11:27:05.000Z</time>
</trkpt>
<trkpt lat="46.0755340" lon="10.4922050">
	<ele>2131.00</ele>
	<time>2023-08-06T11:27:06.000Z</time>
</trkpt>
<trkpt lat="46.0755360" lon="10.4922070">
	<ele>2131.00</ele>
	<time>2023-08-06T11:27:07.000Z</time>
</trkpt>
<trkpt lat="46.0755380" lon="10.4922110">
	<ele>2131.00</ele>
	<time>2023-08-06T11:27:08.000Z</time>
</trkpt>
<trkpt lat="46.0755400" lon="10.4922160">
	<ele>2131.00</ele>
	<time>2023-08-06T11:27:09.000Z</time>
</trkpt>
<trkpt lat="46.0755390" lon="10.4922230">
	<ele>2130.80</ele>
	<time>2023-08-06T11:27:10.000Z</time>
</trkpt>
<trkpt lat="46.0755390" lon="10.4922300">
	<ele>2130.60</ele>
	<time>2023-08-06T11:27:11.000Z</time>
</trkpt>
<trkpt lat="46.0755360" lon="10.4922330">
	<ele>2130.40</ele>
	<time>2023-08-06T11:27:12.000Z</time>
</trkpt>
<trkpt lat="46.0755330" lon="10.4922370">
	<ele>2130.20</ele>
	<time>2023-08-06T11:27:13.000Z</time>
</trkpt>
<trkpt lat="46.0755320" lon="10.4922420">
	<ele>2129.80</ele>
	<time>2023-08-06T11:27:14.000Z</time>
</trkpt>
<trkpt lat="46.0755340" lon="10.4922460">
	<ele>2129.60</ele>
	<time>2023-08-06T11:27:15.000Z</time>
</trkpt>
<trkpt lat="46.0755360" lon="10.4922540">
	<ele>2129.60</ele>
	<time>2023-08-06T11:27:16.000Z</time>
</trkpt>
<trkpt lat="46.0755370" lon="10.4922630">
	<ele>2129.20</ele>
	<time>2023-08-06T11:27:17.000Z</time>
</trkpt>
<trkpt lat="46.0755380" lon="10.4922690">
	<ele>2129.00</ele>
	<time>2023-08-06T11:27:18.000Z</time>
</trkpt>
<trkpt lat="46.0755350" lon="10.4922720">
	<ele>2128.80</ele>
	<time>2023-08-06T11:27:19.000Z</time>
</trkpt>
<trkpt lat="46.0755310" lon="10.4922730">
	<ele>2128.40</ele>
	<time>2023-08-06T11:27:20.000Z</time>
</trkpt>
<trkpt lat="46.0755300" lon="10.4922730">
	<ele>2128.00</ele>
	<time>2023-08-06T11:27:21.000Z</time>
</trkpt>
<trkpt lat="46.0755300" lon="10.4922750">
	<ele>2127.80</ele>
	<time>2023-08-06T11:27:22.000Z</time>
</trkpt>
<trkpt lat="46.0755290" lon="10.4922780">
	<ele>2127.60</ele>
	<time>2023-08-06T11:27:23.000Z</time>
</trkpt>
<trkpt lat="46.0755330" lon="10.4922830">
	<ele>2127.60</ele>
	<time>2023-08-06T11:27:24.000Z</time>
</trkpt>
<trkpt lat="46.0755380" lon="10.4922890">
	<ele>2127.40</ele>
	<time>2023-08-06T11:27:25.000Z</time>
</trkpt>
<trkpt lat="46.0755410" lon="10.4922940">
	<ele>2127.00</ele>
	<time>2023-08-06T11:27:26.000Z</time>
</trkpt>
<trkpt lat="46.0755410" lon="10.4922990">
	<ele>2126.80</ele>
	<time>2023-08-06T11:27:27.000Z</time>
</trkpt>
<trkpt lat="46.0755410" lon="10.4923030">
	<ele>2126.60</ele>
	<time>2023-08-06T11:27:28.000Z</time>
</trkpt>
<trkpt lat="46.0755410" lon="10.4923120">
	<ele>2126.40</ele>
	<time>2023-08-06T11:27:29.000Z</time>
</trkpt>
<trkpt lat="46.0755390" lon="10.4923190">
	<ele>2126.20</ele>
	<time>2023-08-06T11:27:30.000Z</time>
</trkpt>
<trkpt lat="46.0755410" lon="10.4923290">
	<ele>2126.00</ele>
	<time>2023-08-06T11:27:31.000Z</time>
</trkpt>
<trkpt lat="46.0755410" lon="10.4923360">
	<ele>2125.80</ele>
	<time>2023-08-06T11:27:32.000Z</time>
</trkpt>
<trkpt lat="46.0755380" lon="10.4923420">
	<ele>2125.80</ele>
	<time>2023-08-06T11:27:33.000Z</time>
</trkpt>
<trkpt lat="46.0755370" lon="10.4923480">
	<ele>2125.60</ele>
	<time>2023-08-06T11:27:34.000Z</time>
</trkpt>
<trkpt lat="46.0755380" lon="10.4923570">
	<ele>2125.00</ele>
	<time>2023-08-06T11:27:35.000Z</time>
</trkpt>
<trkpt lat="46.0755370" lon="10.4923630">
	<ele>2124.60</ele>
	<time>2023-08-06T11:27:36.000Z</time>
</trkpt>
<trkpt lat="46.0755400" lon="10.4923710">
	<ele>2124.40</ele>
	<time>2023-08-06T11:27:37.000Z</time>
</trkpt>
<trkpt lat="46.0755420" lon="10.4923780">
	<ele>2124.40</ele>
	<time>2023-08-06T11:27:38.000Z</time>
</trkpt>
<trkpt lat="46.0755390" lon="10.4923790">
	<ele>2124.20</ele>
	<time>2023-08-06T11:27:39.000Z</time>
</trkpt>
<trkpt lat="46.0755370" lon="10.4923790">
	<ele>2124.20</ele>
	<time>2023-08-06T11:27:40.000Z</time>
</trkpt>
<trkpt lat="46.0755340" lon="10.4923760">
	<ele>2124.20</ele>
	<time>2023-08-06T11:27:41.000Z</time>
</trkpt>
<trkpt lat="46.0755350" lon="10.4923740">
	<ele>2124.20</ele>
	<time>2023-08-06T11:27:42.000Z</time>
</trkpt>
<trkpt lat="46.0755280" lon="10.4923730">
	<ele>2124.00</ele>
	<time>2023-08-06T11:27:43.000Z</time>
</trkpt>
<trkpt lat="46.0755260" lon="10.4923720">
	<ele>2124.00</ele>
	<time>2023-08-06T11:27:44.000Z</time>
</trkpt>
<trkpt lat="46.0755260" lon="10.4923760">
	<ele>2124.00</ele>
	<time>2023-08-06T11:27:45.000Z</time>
</trkpt>
<trkpt lat="46.0755320" lon="10.4923850">
	<ele>2124.00</ele>
	<time>2023-08-06T11:27:46.000Z</time>
</trkpt>
<trkpt lat="46.0755390" lon="10.4923920">
	<ele>2124.00</ele>
	<time>2023-08-06T11:27:47.000Z</time>
</trkpt>
<trkpt lat="46.0755430" lon="10.4924010">
	<ele>2123.80</ele>
	<time>2023-08-06T11:27:48.000Z</time>
</trkpt>
<trkpt lat="46.0755460" lon="10.4924090">
	<ele>2123.80</ele>
	<time>2023-08-06T11:27:49.000Z</time>
</trkpt>
<trkpt lat="46.0755460" lon="10.4924140">
	<ele>2123.60</ele>
	<time>2023-08-06T11:27:50.000Z</time>
</trkpt>
<trkpt lat="46.0755470" lon="10.4924180">
	<ele>2123.40</ele>
	<time>2023-08-06T11:27:51.000Z</time>
</trkpt>
<trkpt lat="46.0755450" lon="10.4924220">
	<ele>2123.20</ele>
	<time>2023-08-06T11:27:52.000Z</time>
</trkpt>
<trkpt lat="46.0755440" lon="10.4924280">
	<ele>2123.20</ele>
	<time>2023-08-06T11:27:53.000Z</time>
</trkpt>
<trkpt lat="46.0755500" lon="10.4924340">
	<ele>2123.00</ele>
	<time>2023-08-06T11:27:54.000Z</time>
</trkpt>
<trkpt lat="46.0755550" lon="10.4924390">
	<ele>2122.80</ele>
	<time>2023-08-06T11:27:55.000Z</time>
</trkpt>
<trkpt lat="46.0755610" lon="10.4924430">
	<ele>2122.40</ele>
	<time>2023-08-06T11:27:56.000Z</time>
</trkpt>
<trkpt lat="46.0755640" lon="10.4924490">
	<ele>2122.20</ele>
	<time>2023-08-06T11:27:57.000Z</time>
</trkpt>
<trkpt lat="46.0755670" lon="10.4924530">
	<ele>2122.00</ele>
	<time>2023-08-06T11:27:58.000Z</time>
</trkpt>
<trkpt lat="46.0755680" lon="10.4924560">
	<ele>2121.80</ele>
	<time>2023-08-06T11:27:59.000Z</time>
</trkpt>
<trkpt lat="46.0755700" lon="10.4924610">
	<ele>2121.80</ele>
	<time>2023-08-06T11:28:00.000Z</time>
</trkpt>
<trkpt lat="46.0755750" lon="10.4924670">
	<ele>2121.40</ele>
	<time>2023-08-06T11:28:01.000Z</time>
</trkpt>
<trkpt lat="46.0755850" lon="10.4924730">
	<ele>2121.20</ele>
	<time>2023-08-06T11:28:02.000Z</time>
</trkpt>
<trkpt lat="46.0755870" lon="10.4924780">
	<ele>2121.20</ele>
	<time>2023-08-06T11:28:03.000Z</time>
</trkpt>
<trkpt lat="46.0755890" lon="10.4924870">
	<ele>2120.80</ele>
	<time>2023-08-06T11:28:04.000Z</time>
</trkpt>
<trkpt lat="46.0755930" lon="10.4925000">
	<ele>2120.60</ele>
	<time>2023-08-06T11:28:05.000Z</time>
</trkpt>
<trkpt lat="46.0755990" lon="10.4925080">
	<ele>2120.20</ele>
	<time>2023-08-06T11:28:06.000Z</time>
</trkpt>
<trkpt lat="46.0756010" lon="10.4925140">
	<ele>2120.20</ele>
	<time>2023-08-06T11:28:07.000Z</time>
</trkpt>
<trkpt lat="46.0756040" lon="10.4925250">
	<ele>2120.00</ele>
	<time>2023-08-06T11:28:08.000Z</time>
</trkpt>
<trkpt lat="46.0756000" lon="10.4925360">
	<ele>2120.00</ele>
	<time>2023-08-06T11:28:09.000Z</time>
</trkpt>
<trkpt lat="46.0756000" lon="10.4925440">
	<ele>2119.60</ele>
	<time>2023-08-06T11:28:10.000Z</time>
</trkpt>
<trkpt lat="46.0756000" lon="10.4925470">
	<ele>2119.40</ele>
	<time>2023-08-06T11:28:11.000Z</time>
</trkpt>
<trkpt lat="46.0756060" lon="10.4925540">
	<ele>2119.40</ele>
	<time>2023-08-06T11:28:12.000Z</time>
</trkpt>
<trkpt lat="46.0756060" lon="10.4925620">
	<ele>2119.20</ele>
	<time>2023-08-06T11:28:13.000Z</time>
</trkpt>
<trkpt lat="46.0756000" lon="10.4925700">
	<ele>2118.80</ele>
	<time>2023-08-06T11:28:14.000Z</time>
</trkpt>
<trkpt lat="46.0755960" lon="10.4925780">
	<ele>2118.60</ele>
	<time>2023-08-06T11:28:15.000Z</time>
</trkpt>
<trkpt lat="46.0755940" lon="10.4925880">
	<ele>2118.40</ele>
	<time>2023-08-06T11:28:16.000Z</time>
</trkpt>
<trkpt lat="46.0755940" lon="10.4925950">
	<ele>2118.20</ele>
	<time>2023-08-06T11:28:17.000Z</time>
</trkpt>
<trkpt lat="46.0755960" lon="10.4925990">
	<ele>2117.80</ele>
	<time>2023-08-06T11:28:18.000Z</time>
</trkpt>
<trkpt lat="46.0755940" lon="10.4926010">
	<ele>2117.60</ele>
	<time>2023-08-06T11:28:19.000Z</time>
</trkpt>
<trkpt lat="46.0755920" lon="10.4926030">
	<ele>2117.40</ele>
	<time>2023-08-06T11:28:20.000Z</time>
</trkpt>
<trkpt lat="46.0755940" lon="10.4926090">
	<ele>2117.20</ele>
	<time>2023-08-06T11:28:21.000Z</time>
</trkpt>
<trkpt lat="46.0755900" lon="10.4926250">
	<ele>2117.20</ele>
	<time>2023-08-06T11:28:22.000Z</time>
</trkpt>
<trkpt lat="46.0755860" lon="10.4926390">
	<ele>2117.00</ele>
	<time>2023-08-06T11:28:23.000Z</time>
</trkpt>
<trkpt lat="46.0755870" lon="10.4926520">
	<ele>2116.80</ele>
	<time>2023-08-06T11:28:24.000Z</time>
</trkpt>
<trkpt lat="46.0755950" lon="10.4926720">
	<ele>2116.60</ele>
	<time>2023-08-06T11:28:25.000Z</time>
</trkpt>
<trkpt lat="46.0755910" lon="10.4926860">
	<ele>2116.40</ele>
	<time>2023-08-06T11:28:26.000Z</time>
</trkpt>
<trkpt lat="46.0755900" lon="10.4926970">
	<ele>2116.40</ele>
	<time>2023-08-06T11:28:27.000Z</time>
</trkpt>
<trkpt lat="46.0755850" lon="10.4927070">
	<ele>2116.20</ele>
	<time>2023-08-06T11:28:28.000Z</time>
</trkpt>
<trkpt lat="46.0755820" lon="10.4927130">
	<ele>2116.20</ele>
	<time>2023-08-06T11:28:29.000Z</time>
</trkpt>
<trkpt lat="46.0755830" lon="10.4927180">
	<ele>2116.00</ele>
	<time>2023-08-06T11:28:30.000Z</time>
</trkpt>
<trkpt lat="46.0755820" lon="10.4927240">
	<ele>2116.00</ele>
	<time>2023-08-06T11:28:31.000Z</time>
</trkpt>
<trkpt lat="46.0755820" lon="10.4927310">
	<ele>2116.00</ele>
	<time>2023-08-06T11:28:32.000Z</time>
</trkpt>
<trkpt lat="46.0755820" lon="10.4927370">
	<ele>2116.00</ele>
	<time>2023-08-06T11:28:33.000Z</time>
</trkpt>
<trkpt lat="46.0755820" lon="10.4927420">
	<ele>2115.80</ele>
	<time>2023-08-06T11:28:34.000Z</time>
</trkpt>
<trkpt lat="46.0755850" lon="10.4927460">
	<ele>2115.60</ele>
	<time>2023-08-06T11:28:35.000Z</time>
</trkpt>
<trkpt lat="46.0755900" lon="10.4927490">
	<ele>2115.40</ele>
	<time>2023-08-06T11:28:36.000Z</time>
</trkpt>
<trkpt lat="46.0756020" lon="10.4927550">
	<ele>2115.20</ele>
	<time>2023-08-06T11:28:37.000Z</time>
</trkpt>
<trkpt lat="46.0756060" lon="10.4927620">
	<ele>2115.00</ele>
	<time>2023-08-06T11:28:38.000Z</time>
</trkpt>
<trkpt lat="46.0756130" lon="10.4927700">
	<ele>2115.00</ele>
	<time>2023-08-06T11:28:39.000Z</time>
</trkpt>
<trkpt lat="46.0756180" lon="10.4927770">
	<ele>2114.80</ele>
	<time>2023-08-06T11:28:40.000Z</time>
</trkpt>
<trkpt lat="46.0756200" lon="10.4927810">
	<ele>2114.60</ele>
	<time>2023-08-06T11:28:41.000Z</time>
</trkpt>
<trkpt lat="46.0756160" lon="10.4927830">
	<ele>2114.20</ele>
	<time>2023-08-06T11:28:42.000Z</time>
</trkpt>
<trkpt lat="46.0756140" lon="10.4927850">
	<ele>2114.00</ele>
	<time>2023-08-06T11:28:43.000Z</time>
</trkpt>
<trkpt lat="46.0756110" lon="10.4927900">
	<ele>2113.80</ele>
	<time>2023-08-06T11:28:44.000Z</time>
</trkpt>
<trkpt lat="46.0756100" lon="10.4927980">
	<ele>2113.60</ele>
	<time>2023-08-06T11:28:45.000Z</time>
</trkpt>
<trkpt lat="46.0756140" lon="10.4928100">
	<ele>2113.40</ele>
	<time>2023-08-06T11:28:46.000Z</time>
</trkpt>
<trkpt lat="46.0756220" lon="10.4928210">
	<ele>2113.20</ele>
	<time>2023-08-06T11:28:47.000Z</time>
</trkpt>
<trkpt lat="46.0756290" lon="10.4928270">
	<ele>2113.20</ele>
	<time>2023-08-06T11:28:48.000Z</time>
</trkpt>
<trkpt lat="46.0756370" lon="10.4928340">
	<ele>2113.00</ele>
	<time>2023-08-06T11:28:49.000Z</time>
</trkpt>
<trkpt lat="46.0756420" lon="10.4928340">
	<ele>2113.00</ele>
	<time>2023-08-06T11:28:50.000Z</time>
</trkpt>
<trkpt lat="46.0756480" lon="10.4928330">
	<ele>2112.40</ele>
	<time>2023-08-06T11:28:51.000Z</time>
</trkpt>
<trkpt lat="46.0756530" lon="10.4928310">
	<ele>2112.20</ele>
	<time>2023-08-06T11:28:52.000Z</time>
</trkpt>
<trkpt lat="46.0756620" lon="10.4928340">
	<ele>2112.00</ele>
	<time>2023-08-06T11:28:53.000Z</time>
</trkpt>
<trkpt lat="46.0756690" lon="10.4928410">
	<ele>2111.80</ele>
	<time>2023-08-06T11:28:54.000Z</time>
</trkpt>
<trkpt lat="46.0756720" lon="10.4928510">
	<ele>2111.60</ele>
	<time>2023-08-06T11:28:55.000Z</time>
</trkpt>
<trkpt lat="46.0756680" lon="10.4928540">
	<ele>2111.40</ele>
	<time>2023-08-06T11:28:56.000Z</time>
</trkpt>
<trkpt lat="46.0756580" lon="10.4928550">
	<ele>2111.40</ele>
	<time>2023-08-06T11:28:57.000Z</time>
</trkpt>
<trkpt lat="46.0756580" lon="10.4928610">
	<ele>2111.20</ele>
	<time>2023-08-06T11:28:58.000Z</time>
</trkpt>
<trkpt lat="46.0756470" lon="10.4928660">
	<ele>2111.20</ele>
	<time>2023-08-06T11:28:59.000Z</time>
</trkpt>
<trkpt lat="46.0756280" lon="10.4928690">
	<ele>2111.00</ele>
	<time>2023-08-06T11:29:00.000Z</time>
</trkpt>
<trkpt lat="46.0756230" lon="10.4928720">
	<ele>2110.80</ele>
	<time>2023-08-06T11:29:01.000Z</time>
</trkpt>
<trkpt lat="46.0756220" lon="10.4928750">
	<ele>2110.60</ele>
	<time>2023-08-06T11:29:02.000Z</time>
</trkpt>
<trkpt lat="46.0756270" lon="10.4928830">
	<ele>2110.40</ele>
	<time>2023-08-06T11:29:03.000Z</time>
</trkpt>
<trkpt lat="46.0756320" lon="10.4928990">
	<ele>2110.20</ele>
	<time>2023-08-06T11:29:04.000Z</time>
</trkpt>
<trkpt lat="46.0756350" lon="10.4929130">
	<ele>2110.00</ele>
	<time>2023-08-06T11:29:05.000Z</time>
</trkpt>
<trkpt lat="46.0756370" lon="10.4929210">
	<ele>2109.80</ele>
	<time>2023-08-06T11:29:06.000Z</time>
</trkpt>
<trkpt lat="46.0756400" lon="10.4929290">
	<ele>2109.60</ele>
	<time>2023-08-06T11:29:07.000Z</time>
</trkpt>
<trkpt lat="46.0756460" lon="10.4929420">
	<ele>2109.40</ele>
	<time>2023-08-06T11:29:08.000Z</time>
</trkpt>
<trkpt lat="46.0756500" lon="10.4929580">
	<ele>2109.20</ele>
	<time>2023-08-06T11:29:09.000Z</time>
</trkpt>
<trkpt lat="46.0756550" lon="10.4929660">
	<ele>2109.00</ele>
	<time>2023-08-06T11:29:10.000Z</time>
</trkpt>
<trkpt lat="46.0756590" lon="10.4929760">
	<ele>2109.00</ele>
	<time>2023-08-06T11:29:11.000Z</time>
</trkpt>
<trkpt lat="46.0756690" lon="10.4929940">
	<ele>2109.00</ele>
	<time>2023-08-06T11:29:12.000Z</time>
</trkpt>
<trkpt lat="46.0756740" lon="10.4930060">
	<ele>2109.00</ele>
	<time>2023-08-06T11:29:13.000Z</time>
</trkpt>
<trkpt lat="46.0756790" lon="10.4930130">
	<ele>2108.80</ele>
	<time>2023-08-06T11:29:14.000Z</time>
</trkpt>
<trkpt lat="46.0756920" lon="10.4930210">
	<ele>2108.60</ele>
	<time>2023-08-06T11:29:15.000Z</time>
</trkpt>
<trkpt lat="46.0757020" lon="10.4930220">
	<ele>2108.40</ele>
	<time>2023-08-06T11:29:16.000Z</time>
</trkpt>
<trkpt lat="46.0757100" lon="10.4930190">
	<ele>2108.20</ele>
	<time>2023-08-06T11:29:17.000Z</time>
</trkpt>
<trkpt lat="46.0757140" lon="10.4930200">
	<ele>2107.80</ele>
	<time>2023-08-06T11:29:18.000Z</time>
</trkpt>
<trkpt lat="46.0757160" lon="10.4930170">
	<ele>2107.60</ele>
	<time>2023-08-06T11:29:19.000Z</time>
</trkpt>
<trkpt lat="46.0757190" lon="10.4930100">
	<ele>2107.40</ele>
	<time>2023-08-06T11:29:20.000Z</time>
</trkpt>
<trkpt lat="46.0757240" lon="10.4930070">
	<ele>2107.20</ele>
	<time>2023-08-06T11:29:21.000Z</time>
</trkpt>
<trkpt lat="46.0757380" lon="10.4930090">
	<ele>2107.00</ele>
	<time>2023-08-06T11:29:22.000Z</time>
</trkpt>
<trkpt lat="46.0757430" lon="10.4930080">
	<ele>2106.60</ele>
	<time>2023-08-06T11:29:23.000Z</time>
</trkpt>
<trkpt lat="46.0757440" lon="10.4930100">
	<ele>2106.40</ele>
	<time>2023-08-06T11:29:24.000Z</time>
</trkpt>
<trkpt lat="46.0757490" lon="10.4930100">
	<ele>2106.20</ele>
	<time>2023-08-06T11:29:25.000Z</time>
</trkpt>
<trkpt lat="46.0757530" lon="10.4930120">
	<ele>2106.00</ele>
	<time>2023-08-06T11:29:26.000Z</time>
</trkpt>
<trkpt lat="46.0757540" lon="10.4930130">
	<ele>2105.60</ele>
	<time>2023-08-06T11:29:27.000Z</time>
</trkpt>
<trkpt lat="46.0757550" lon="10.4930120">
	<ele>2105.40</ele>
	<time>2023-08-06T11:29:28.000Z</time>
</trkpt>
<trkpt lat="46.0757540" lon="10.4930090">
	<ele>2105.00</ele>
	<time>2023-08-06T11:29:29.000Z</time>
</trkpt>
<trkpt lat="46.0757560" lon="10.4930060">
	<ele>2104.80</ele>
	<time>2023-08-06T11:29:30.000Z</time>
</trkpt>
<trkpt lat="46.0757580" lon="10.4930000">
	<ele>2104.60</ele>
	<time>2023-08-06T11:29:31.000Z</time>
</trkpt>
<trkpt lat="46.0757630" lon="10.4929940">
	<ele>2104.40</ele>
	<time>2023-08-06T11:29:32.000Z</time>
</trkpt>
<trkpt lat="46.0757680" lon="10.4929900">
	<ele>2104.20</ele>
	<time>2023-08-06T11:29:33.000Z</time>
</trkpt>
<trkpt lat="46.0757770" lon="10.4929920">
	<ele>2104.00</ele>
	<time>2023-08-06T11:29:34.000Z</time>
</trkpt>
<trkpt lat="46.0757850" lon="10.4929960">
	<ele>2103.80</ele>
	<time>2023-08-06T11:29:35.000Z</time>
</trkpt>
<trkpt lat="46.0757880" lon="10.4930020">
	<ele>2103.60</ele>
	<time>2023-08-06T11:29:36.000Z</time>
</trkpt>
<trkpt lat="46.0757920" lon="10.4930150">
	<ele>2103.40</ele>
	<time>2023-08-06T11:29:37.000Z</time>
</trkpt>
<trkpt lat="46.0757950" lon="10.4930250">
	<ele>2103.20</ele>
	<time>2023-08-06T11:29:38.000Z</time>
</trkpt>
<trkpt lat="46.0757920" lon="10.4930310">
	<ele>2103.00</ele>
	<time>2023-08-06T11:29:39.000Z</time>
</trkpt>
<trkpt lat="46.0757920" lon="10.4930360">
	<ele>2102.80</ele>
	<time>2023-08-06T11:29:40.000Z</time>
</trkpt>
<trkpt lat="46.0757910" lon="10.4930420">
	<ele>2102.60</ele>
	<time>2023-08-06T11:29:41.000Z</time>
</trkpt>
<trkpt lat="46.0757970" lon="10.4930520">
	<ele>2102.20</ele>
	<time>2023-08-06T11:29:42.000Z</time>
</trkpt>
<trkpt lat="46.0758010" lon="10.4930530">
	<ele>2102.00</ele>
	<time>2023-08-06T11:29:43.000Z</time>
</trkpt>
<trkpt lat="46.0758070" lon="10.4930540">
	<ele>2101.80</ele>
	<time>2023-08-06T11:29:44.000Z</time>
</trkpt>
<trkpt lat="46.0758140" lon="10.4930540">
	<ele>2101.80</ele>
	<time>2023-08-06T11:29:45.000Z</time>
</trkpt>
<trkpt lat="46.0758170" lon="10.4930500">
	<ele>2101.40</ele>
	<time>2023-08-06T11:29:46.000Z</time>
</trkpt>
<trkpt lat="46.0758190" lon="10.4930490">
	<ele>2101.20</ele>
	<time>2023-08-06T11:29:47.000Z</time>
</trkpt>
<trkpt lat="46.0758230" lon="10.4930510">
	<ele>2101.00</ele>
	<time>2023-08-06T11:29:48.000Z</time>
</trkpt>
<trkpt lat="46.0758210" lon="10.4930530">
	<ele>2100.80</ele>
	<time>2023-08-06T11:29:49.000Z</time>
</trkpt>
<trkpt lat="46.0758180" lon="10.4930550">
	<ele>2100.60</ele>
	<time>2023-08-06T11:29:50.000Z</time>
</trkpt>
<trkpt lat="46.0758190" lon="10.4930620">
	<ele>2100.40</ele>
	<time>2023-08-06T11:29:51.000Z</time>
</trkpt>
<trkpt lat="46.0758230" lon="10.4930680">
	<ele>2100.00</ele>
	<time>2023-08-06T11:29:52.000Z</time>
</trkpt>
<trkpt lat="46.0758210" lon="10.4930640">
	<ele>2100.00</ele>
	<time>2023-08-06T11:29:53.000Z</time>
</trkpt>
<trkpt lat="46.0758180" lon="10.4930590">
	<ele>2099.80</ele>
	<time>2023-08-06T11:29:54.000Z</time>
</trkpt>
<trkpt lat="46.0758180" lon="10.4930550">
	<ele>2099.60</ele>
	<time>2023-08-06T11:29:55.000Z</time>
</trkpt>
<trkpt lat="46.0758200" lon="10.4930550">
	<ele>2099.20</ele>
	<time>2023-08-06T11:29:56.000Z</time>
</trkpt>
<trkpt lat="46.0758230" lon="10.4930530">
	<ele>2098.80</ele>
	<time>2023-08-06T11:29:57.000Z</time>
</trkpt>
<trkpt lat="46.0758270" lon="10.4930520">
	<ele>2098.60</ele>
	<time>2023-08-06T11:29:58.000Z</time>
</trkpt>
<trkpt lat="46.0758260" lon="10.4930470">
	<ele>2098.20</ele>
	<time>2023-08-06T11:29:59.000Z</time>
</trkpt>
<trkpt lat="46.0758260" lon="10.4930430">
	<ele>2098.20</ele>
	<time>2023-08-06T11:30:00.000Z</time>
</trkpt>
<trkpt lat="46.0758300" lon="10.4930400">
	<ele>2098.00</ele>
	<time>2023-08-06T11:30:01.000Z</time>
</trkpt>
<trkpt lat="46.0758330" lon="10.4930380">
	<ele>2097.80</ele>
	<time>2023-08-06T11:30:02.000Z</time>
</trkpt>
<trkpt lat="46.0758410" lon="10.4930370">
	<ele>2097.40</ele>
	<time>2023-08-06T11:30:03.000Z</time>
</trkpt>
<trkpt lat="46.0758490" lon="10.4930360">
	<ele>2097.20</ele>
	<time>2023-08-06T11:30:04.000Z</time>
</trkpt>
<trkpt lat="46.0758540" lon="10.4930350">
	<ele>2097.00</ele>
	<time>2023-08-06T11:30:05.000Z</time>
</trkpt>
<trkpt lat="46.0758600" lon="10.4930360">
	<ele>2096.80</ele>
	<time>2023-08-06T11:30:06.000Z</time>
</trkpt>
<trkpt lat="46.0758680" lon="10.4930360">
	<ele>2096.60</ele>
	<time>2023-08-06T11:30:07.000Z</time>
</trkpt>
<trkpt lat="46.0758690" lon="10.4930350">
	<ele>2096.20</ele>
	<time>2023-08-06T11:30:08.000Z</time>
</trkpt>
<trkpt lat="46.0758680" lon="10.4930280">
	<ele>2096.20</ele>
	<time>2023-08-06T11:30:09.000Z</time>
</trkpt>
<trkpt lat="46.0758690" lon="10.4930270">
	<ele>2096.00</ele>
	<time>2023-08-06T11:30:10.000Z</time>
</trkpt>
<trkpt lat="46.0758710" lon="10.4930250">
	<ele>2095.60</ele>
	<time>2023-08-06T11:30:11.000Z</time>
</trkpt>
<trkpt lat="46.0758720" lon="10.4930200">
	<ele>2095.40</ele>
	<time>2023-08-06T11:30:12.000Z</time>
</trkpt>
<trkpt lat="46.0758750" lon="10.4930150">
	<ele>2095.20</ele>
	<time>2023-08-06T11:30:13.000Z</time>
</trkpt>
<trkpt lat="46.0758800" lon="10.4930050">
	<ele>2094.80</ele>
	<time>2023-08-06T11:30:14.000Z</time>
</trkpt>
<trkpt lat="46.0758910" lon="10.4930010">
	<ele>2094.60</ele>
	<time>2023-08-06T11:30:15.000Z</time>
</trkpt>
<trkpt lat="46.0759000" lon="10.4930010">
	<ele>2094.40</ele>
	<time>2023-08-06T11:30:16.000Z</time>
</trkpt>
<trkpt lat="46.0759100" lon="10.4930050">
	<ele>2094.20</ele>
	<time>2023-08-06T11:30:17.000Z</time>
</trkpt>
<trkpt lat="46.0759190" lon="10.4930130">
	<ele>2094.00</ele>
	<time>2023-08-06T11:30:18.000Z</time>
</trkpt>
<trkpt lat="46.0759240" lon="10.4930160">
	<ele>2093.60</ele>
	<time>2023-08-06T11:30:19.000Z</time>
</trkpt>
<trkpt lat="46.0759270" lon="10.4930160">
	<ele>2093.60</ele>
	<time>2023-08-06T11:30:20.000Z</time>
</trkpt>
<trkpt lat="46.0759420" lon="10.4930200">
	<ele>2093.40</ele>
	<time>2023-08-06T11:30:21.000Z</time>
</trkpt>
<trkpt lat="46.0759580" lon="10.4930300">
	<ele>2093.00</ele>
	<time>2023-08-06T11:30:22.000Z</time>
</trkpt>
<trkpt lat="46.0759760" lon="10.4930330">
	<ele>2093.00</ele>
	<time>2023-08-06T11:30:23.000Z</time>
</trkpt>
<trkpt lat="46.0759980" lon="10.4930420">
	<ele>2092.60</ele>
	<time>2023-08-06T11:30:24.000Z</time>
</trkpt>
<trkpt lat="46.0760030" lon="10.4930490">
	<ele>2092.40</ele>
	<time>2023-08-06T11:30:25.000Z</time>
</trkpt>
<trkpt lat="46.0760020" lon="10.4930550">
	<ele>2092.20</ele>
	<time>2023-08-06T11:30:26.000Z</time>
</trkpt>
<trkpt lat="46.0759990" lon="10.4930630">
	<ele>2092.00</ele>
	<time>2023-08-06T11:30:27.000Z</time>
</trkpt>
<trkpt lat="46.0760000" lon="10.4930690">
	<ele>2091.80</ele>
	<time>2023-08-06T11:30:28.000Z</time>
</trkpt>
<trkpt lat="46.0760030" lon="10.4930760">
	<ele>2091.60</ele>
	<time>2023-08-06T11:30:29.000Z</time>
</trkpt>
<trkpt lat="46.0760100" lon="10.4930860">
	<ele>2091.40</ele>
	<time>2023-08-06T11:30:30.000Z</time>
</trkpt>
<trkpt lat="46.0760180" lon="10.4930960">
	<ele>2091.20</ele>
	<time>2023-08-06T11:30:31.000Z</time>
</trkpt>
<trkpt lat="46.0760260" lon="10.4931050">
	<ele>2090.80</ele>
	<time>2023-08-06T11:30:32.000Z</time>
</trkpt>
<trkpt lat="46.0760320" lon="10.4931130">
	<ele>2090.60</ele>
	<time>2023-08-06T11:30:33.000Z</time>
</trkpt>
<trkpt lat="46.0760390" lon="10.4931200">
	<ele>2090.40</ele>
	<time>2023-08-06T11:30:34.000Z</time>
</trkpt>
<trkpt lat="46.0760460" lon="10.4931280">
	<ele>2090.20</ele>
	<time>2023-08-06T11:30:35.000Z</time>
</trkpt>
<trkpt lat="46.0760490" lon="10.4931370">
	<ele>2090.20</ele>
	<time>2023-08-06T11:30:36.000Z</time>
</trkpt>
<trkpt lat="46.0760520" lon="10.4931380">
	<ele>2089.80</ele>
	<time>2023-08-06T11:30:37.000Z</time>
</trkpt>
<trkpt lat="46.0760590" lon="10.4931440">
	<ele>2089.60</ele>
	<time>2023-08-06T11:30:38.000Z</time>
</trkpt>
<trkpt lat="46.0760680" lon="10.4931510">
	<ele>2089.40</ele>
	<time>2023-08-06T11:30:39.000Z</time>
</trkpt>
<trkpt lat="46.0760730" lon="10.4931600">
	<ele>2089.20</ele>
	<time>2023-08-06T11:30:40.000Z</time>
</trkpt>
<trkpt lat="46.0760790" lon="10.4931660">
	<ele>2089.00</ele>
	<time>2023-08-06T11:30:41.000Z</time>
</trkpt>
<trkpt lat="46.0760950" lon="10.4931720">
	<ele>2088.60</ele>
	<time>2023-08-06T11:30:42.000Z</time>
</trkpt>
<trkpt lat="46.0761030" lon="10.4931790">
	<ele>2088.60</ele>
	<time>2023-08-06T11:30:43.000Z</time>
</trkpt>
<trkpt lat="46.0761080" lon="10.4931880">
	<ele>2088.40</ele>
	<time>2023-08-06T11:30:44.000Z</time>
</trkpt>
<trkpt lat="46.0761150" lon="10.4931970">
	<ele>2088.20</ele>
	<time>2023-08-06T11:30:45.000Z</time>
</trkpt>
<trkpt lat="46.0761150" lon="10.4932080">
	<ele>2087.80</ele>
	<time>2023-08-06T11:30:46.000Z</time>
</trkpt>
<trkpt lat="46.0761190" lon="10.4932170">
	<ele>2087.60</ele>
	<time>2023-08-06T11:30:47.000Z</time>
</trkpt>
<trkpt lat="46.0761260" lon="10.4932260">
	<ele>2087.40</ele>
	<time>2023-08-06T11:30:48.000Z</time>
</trkpt>
<trkpt lat="46.0761370" lon="10.4932350">
	<ele>2087.40</ele>
	<time>2023-08-06T11:30:49.000Z</time>
</trkpt>
<trkpt lat="46.0761460" lon="10.4932400">
	<ele>2087.20</ele>
	<time>2023-08-06T11:30:50.000Z</time>
</trkpt>
<trkpt lat="46.0761520" lon="10.4932350">
	<ele>2087.00</ele>
	<time>2023-08-06T11:30:51.000Z</time>
</trkpt>
<trkpt lat="46.0761530" lon="10.4932220">
	<ele>2087.00</ele>
	<time>2023-08-06T11:30:52.000Z</time>
</trkpt>
<trkpt lat="46.0761560" lon="10.4932140">
	<ele>2086.60</ele>
	<time>2023-08-06T11:30:53.000Z</time>
</trkpt>
<trkpt lat="46.0761620" lon="10.4932090">
	<ele>2086.20</ele>
	<time>2023-08-06T11:30:54.000Z</time>
</trkpt>
<trkpt lat="46.0761710" lon="10.4932090">
	<ele>2086.00</ele>
	<time>2023-08-06T11:30:55.000Z</time>
</trkpt>
<trkpt lat="46.0761850" lon="10.4932140">
	<ele>2085.80</ele>
	<time>2023-08-06T11:30:56.000Z</time>
</trkpt>
<trkpt lat="46.0761870" lon="10.4932140">
	<ele>2085.60</ele>
	<time>2023-08-06T11:30:57.000Z</time>
</trkpt>
<trkpt lat="46.0761880" lon="10.4932170">
	<ele>2085.20</ele>
	<time>2023-08-06T11:30:58.000Z</time>
</trkpt>
<trkpt lat="46.0761910" lon="10.4932210">
	<ele>2085.00</ele>
	<time>2023-08-06T11:30:59.000Z</time>
</trkpt>
<trkpt lat="46.0762000" lon="10.4932270">
	<ele>2084.60</ele>
	<time>2023-08-06T11:31:00.000Z</time>
</trkpt>
<trkpt lat="46.0762120" lon="10.4932310">
	<ele>2084.60</ele>
	<time>2023-08-06T11:31:01.000Z</time>
</trkpt>
<trkpt lat="46.0762170" lon="10.4932370">
	<ele>2084.40</ele>
	<time>2023-08-06T11:31:02.000Z</time>
</trkpt>
<trkpt lat="46.0762230" lon="10.4932410">
	<ele>2084.00</ele>
	<time>2023-08-06T11:31:03.000Z</time>
</trkpt>
<trkpt lat="46.0762310" lon="10.4932500">
	<ele>2083.60</ele>
	<time>2023-08-06T11:31:04.000Z</time>
</trkpt>
<trkpt lat="46.0762360" lon="10.4932610">
	<ele>2083.40</ele>
	<time>2023-08-06T11:31:05.000Z</time>
</trkpt>
<trkpt lat="46.0762350" lon="10.4932650">
	<ele>2083.20</ele>
	<time>2023-08-06T11:31:06.000Z</time>
</trkpt>
<trkpt lat="46.0762350" lon="10.4932720">
	<ele>2083.00</ele>
	<time>2023-08-06T11:31:07.000Z</time>
</trkpt>
<trkpt lat="46.0762390" lon="10.4932810">
	<ele>2082.80</ele>
	<time>2023-08-06T11:31:08.000Z</time>
</trkpt>
<trkpt lat="46.0762440" lon="10.4932900">
	<ele>2082.60</ele>
	<time>2023-08-06T11:31:09.000Z</time>
</trkpt>
<trkpt lat="46.0762480" lon="10.4933000">
	<ele>2082.20</ele>
	<time>2023-08-06T11:31:10.000Z</time>
</trkpt>
<trkpt lat="46.0762500" lon="10.4933060">
	<ele>2082.00</ele>
	<time>2023-08-06T11:31:11.000Z</time>
</trkpt>
<trkpt lat="46.0762520" lon="10.4933120">
	<ele>2081.80</ele>
	<time>2023-08-06T11:31:12.000Z</time>
</trkpt>
<trkpt lat="46.0762570" lon="10.4933170">
	<ele>2081.60</ele>
	<time>2023-08-06T11:31:13.000Z</time>
</trkpt>
<trkpt lat="46.0762610" lon="10.4933200">
	<ele>2081.40</ele>
	<time>2023-08-06T11:31:14.000Z</time>
</trkpt>
<trkpt lat="46.0762650" lon="10.4933210">
	<ele>2081.20</ele>
	<time>2023-08-06T11:31:15.000Z</time>
</trkpt>
<trkpt lat="46.0762700" lon="10.4933250">
	<ele>2081.00</ele>
	<time>2023-08-06T11:31:16.000Z</time>
</trkpt>
<trkpt lat="46.0762720" lon="10.4933270">
	<ele>2081.00</ele>
	<time>2023-08-06T11:31:17.000Z</time>
</trkpt>
<trkpt lat="46.0762700" lon="10.4933260">
	<ele>2081.00</ele>
	<time>2023-08-06T11:31:18.000Z</time>
</trkpt>
<trkpt lat="46.0762650" lon="10.4933210">
	<ele>2080.80</ele>
	<time>2023-08-06T11:31:19.000Z</time>
</trkpt>
<trkpt lat="46.0762680" lon="10.4933180">
	<ele>2080.80</ele>
	<time>2023-08-06T11:31:20.000Z</time>
</trkpt>
<trkpt lat="46.0762720" lon="10.4933180">
	<ele>2080.60</ele>
	<time>2023-08-06T11:31:21.000Z</time>
</trkpt>
<trkpt lat="46.0762730" lon="10.4933200">
	<ele>2080.60</ele>
	<time>2023-08-06T11:31:22.000Z</time>
</trkpt>
<trkpt lat="46.0762770" lon="10.4933220">
	<ele>2080.60</ele>
	<time>2023-08-06T11:31:23.000Z</time>
</trkpt>
<trkpt lat="46.0762860" lon="10.4933240">
	<ele>2080.40</ele>
	<time>2023-08-06T11:31:24.000Z</time>
</trkpt>
<trkpt lat="46.0762910" lon="10.4933260">
	<ele>2080.40</ele>
	<time>2023-08-06T11:31:25.000Z</time>
</trkpt>
<trkpt lat="46.0762920" lon="10.4933290">
	<ele>2080.20</ele>
	<time>2023-08-06T11:31:26.000Z</time>
</trkpt>
<trkpt lat="46.0763010" lon="10.4933340">
	<ele>2080.00</ele>
	<time>2023-08-06T11:31:27.000Z</time>
</trkpt>
<trkpt lat="46.0763030" lon="10.4933340">
	<ele>2079.80</ele>
	<time>2023-08-06T11:31:28.000Z</time>
</trkpt>
<trkpt lat="46.0763010" lon="10.4933350">
	<ele>2079.60</ele>
	<time>2023-08-06T11:31:29.000Z</time>
</trkpt>
<trkpt lat="46.0763040" lon="10.4933370">
	<ele>2079.40</ele>
	<time>2023-08-06T11:31:30.000Z</time>
</trkpt>
<trkpt lat="46.0763080" lon="10.4933390">
	<ele>2079.20</ele>
	<time>2023-08-06T11:31:31.000Z</time>
</trkpt>
<trkpt lat="46.0763060" lon="10.4933360">
	<ele>2079.00</ele>
	<time>2023-08-06T11:31:32.000Z</time>
</trkpt>
<trkpt lat="46.0763030" lon="10.4933370">
	<ele>2079.00</ele>
	<time>2023-08-06T11:31:33.000Z</time>
</trkpt>
<trkpt lat="46.0763030" lon="10.4933410">
	<ele>2078.80</ele>
	<time>2023-08-06T11:31:34.000Z</time>
</trkpt>
<trkpt lat="46.0763010" lon="10.4933440">
	<ele>2078.60</ele>
	<time>2023-08-06T11:31:35.000Z</time>
</trkpt>
<trkpt lat="46.0763030" lon="10.4933430">
	<ele>2078.60</ele>
	<time>2023-08-06T11:31:36.000Z</time>
</trkpt>
<trkpt lat="46.0763080" lon="10.4933430">
	<ele>2078.40</ele>
	<time>2023-08-06T11:31:37.000Z</time>
</trkpt>
<trkpt lat="46.0763150" lon="10.4933430">
	<ele>2078.20</ele>
	<time>2023-08-06T11:31:38.000Z</time>
</trkpt>
<trkpt lat="46.0763240" lon="10.4933420">
	<ele>2078.00</ele>
	<time>2023-08-06T11:31:39.000Z</time>
</trkpt>
<trkpt lat="46.0763290" lon="10.4933430">
	<ele>2078.00</ele>
	<time>2023-08-06T11:31:40.000Z</time>
</trkpt>
<trkpt lat="46.0763340" lon="10.4933440">
	<ele>2077.80</ele>
	<time>2023-08-06T11:31:41.000Z</time>
</trkpt>
<trkpt lat="46.0763380" lon="10.4933410">
	<ele>2077.80</ele>
	<time>2023-08-06T11:31:42.000Z</time>
</trkpt>
<trkpt lat="46.0763420" lon="10.4933420">
	<ele>2077.60</ele>
	<time>2023-08-06T11:31:43.000Z</time>
</trkpt>
<trkpt lat="46.0763450" lon="10.4933440">
	<ele>2077.40</ele>
	<time>2023-08-06T11:31:44.000Z</time>
</trkpt>
<trkpt lat="46.0763480" lon="10.4933460">
	<ele>2077.20</ele>
	<time>2023-08-06T11:31:45.000Z</time>
</trkpt>
<trkpt lat="46.0763510" lon="10.4933480">
	<ele>2077.00</ele>
	<time>2023-08-06T11:31:46.000Z</time>
</trkpt>
<trkpt lat="46.0763550" lon="10.4933500">
	<ele>2076.80</ele>
	<time>2023-08-06T11:31:47.000Z</time>
</trkpt>
<trkpt lat="46.0763590" lon="10.4933530">
	<ele>2076.80</ele>
	<time>2023-08-06T11:31:48.000Z</time>
</trkpt>
<trkpt lat="46.0763640" lon="10.4933560">
	<ele>2076.60</ele>
	<time>2023-08-06T11:31:49.000Z</time>
</trkpt>
<trkpt lat="46.0763680" lon="10.4933570">
	<ele>2076.40</ele>
	<time>2023-08-06T11:31:50.000Z</time>
</trkpt>
<trkpt lat="46.0763690" lon="10.4933570">
	<ele>2076.20</ele>
	<time>2023-08-06T11:31:51.000Z</time>
</trkpt>
<trkpt lat="46.0763710" lon="10.4933540">
	<ele>2076.00</ele>
	<time>2023-08-06T11:31:52.000Z</time>
</trkpt>
<trkpt lat="46.0763700" lon="10.4933510">
	<ele>2075.80</ele>
	<time>2023-08-06T11:31:53.000Z</time>
</trkpt>
<trkpt lat="46.0763720" lon="10.4933540">
	<ele>2075.60</ele>
	<time>2023-08-06T11:31:54.000Z</time>
</trkpt>
<trkpt lat="46.0763800" lon="10.4933630">
	<ele>2075.40</ele>
	<time>2023-08-06T11:31:55.000Z</time>
</trkpt>
<trkpt lat="46.0763850" lon="10.4933670">
	<ele>2075.20</ele>
	<time>2023-08-06T11:31:56.000Z</time>
</trkpt>
<trkpt lat="46.0763850" lon="10.4933660">
	<ele>2075.00</ele>
	<time>2023-08-06T11:31:57.000Z</time>
</trkpt>
<trkpt lat="46.0763820" lon="10.4933630">
	<ele>2074.60</ele>
	<time>2023-08-06T11:31:58.000Z</time>
</trkpt>
<trkpt lat="46.0763850" lon="10.4933630">
	<ele>2074.40</ele>
	<time>2023-08-06T11:31:59.000Z</time>
</trkpt>
<trkpt lat="46.0763860" lon="10.4933610">
	<ele>2074.20</ele>
	<time>2023-08-06T11:32:00.000Z</time>
</trkpt>
<trkpt lat="46.0763870" lon="10.4933590">
	<ele>2074.20</ele>
	<time>2023-08-06T11:32:01.000Z</time>
</trkpt>
<trkpt lat="46.0763880" lon="10.4933580">
	<ele>2074.20</ele>
	<time>2023-08-06T11:32:02.000Z</time>
</trkpt>
<trkpt lat="46.0763940" lon="10.4933600">
	<ele>2074.00</ele>
	<time>2023-08-06T11:32:03.000Z</time>
</trkpt>
<trkpt lat="46.0763990" lon="10.4933640">
	<ele>2074.00</ele>
	<time>2023-08-06T11:32:04.000Z</time>
</trkpt>
<trkpt lat="46.0764030" lon="10.4933690">
	<ele>2074.00</ele>
	<time>2023-08-06T11:32:05.000Z</time>
</trkpt>
<trkpt lat="46.0764020" lon="10.4933770">
	<ele>2074.00</ele>
	<time>2023-08-06T11:32:06.000Z</time>
</trkpt>
<trkpt lat="46.0763990" lon="10.4933850">
	<ele>2073.80</ele>
	<time>2023-08-06T11:32:07.000Z</time>
</trkpt>
<trkpt lat="46.0763940" lon="10.4933880">
	<ele>2073.60</ele>
	<time>2023-08-06T11:32:08.000Z</time>
</trkpt>
<trkpt lat="46.0763930" lon="10.4933930">
	<ele>2073.40</ele>
	<time>2023-08-06T11:32:09.000Z</time>
</trkpt>
<trkpt lat="46.0763890" lon="10.4933970">
	<ele>2073.40</ele>
	<time>2023-08-06T11:32:10.000Z</time>
</trkpt>
<trkpt lat="46.0763860" lon="10.4934010">
	<ele>2073.00</ele>
	<time>2023-08-06T11:32:11.000Z</time>
</trkpt>
<trkpt lat="46.0763870" lon="10.4934070">
	<ele>2072.80</ele>
	<time>2023-08-06T11:32:12.000Z</time>
</trkpt>
<trkpt lat="46.0763870" lon="10.4934110">
	<ele>2072.80</ele>
	<time>2023-08-06T11:32:13.000Z</time>
</trkpt>
<trkpt lat="46.0763890" lon="10.4934120">
	<ele>2072.60</ele>
	<time>2023-08-06T11:32:14.000Z</time>
</trkpt>
<trkpt lat="46.0763880" lon="10.4934130">
	<ele>2072.40</ele>
	<time>2023-08-06T11:32:15.000Z</time>
</trkpt>
<trkpt lat="46.0763850" lon="10.4934130">
	<ele>2072.20</ele>
	<time>2023-08-06T11:32:16.000Z</time>
</trkpt>
<trkpt lat="46.0763920" lon="10.4934170">
	<ele>2072.00</ele>
	<time>2023-08-06T11:32:17.000Z</time>
</trkpt>
<trkpt lat="46.0764040" lon="10.4934230">
	<ele>2071.80</ele>
	<time>2023-08-06T11:32:18.000Z</time>
</trkpt>
<trkpt lat="46.0764100" lon="10.4934270">
	<ele>2071.80</ele>
	<time>2023-08-06T11:32:19.000Z</time>
</trkpt>
<trkpt lat="46.0764140" lon="10.4934250">
	<ele>2071.60</ele>
	<time>2023-08-06T11:32:20.000Z</time>
</trkpt>
<trkpt lat="46.0764270" lon="10.4934230">
	<ele>2071.00</ele>
	<time>2023-08-06T11:32:21.000Z</time>
</trkpt>
<trkpt lat="46.0764350" lon="10.4934250">
	<ele>2070.60</ele>
	<time>2023-08-06T11:32:22.000Z</time>
</trkpt>
<trkpt lat="46.0764360" lon="10.4934250">
	<ele>2070.40</ele>
	<time>2023-08-06T11:32:23.000Z</time>
</trkpt>
<trkpt lat="46.0764370" lon="10.4934240">
	<ele>2070.20</ele>
	<time>2023-08-06T11:32:24.000Z</time>
</trkpt>
<trkpt lat="46.0764390" lon="10.4934260">
	<ele>2070.00</ele>
	<time>2023-08-06T11:32:25.000Z</time>
</trkpt>
<trkpt lat="46.0764480" lon="10.4934300">
	<ele>2069.80</ele>
	<time>2023-08-06T11:32:26.000Z</time>
</trkpt>
<trkpt lat="46.0764560" lon="10.4934330">
	<ele>2069.60</ele>
	<time>2023-08-06T11:32:27.000Z</time>
</trkpt>
<trkpt lat="46.0764680" lon="10.4934360">
	<ele>2069.20</ele>
	<time>2023-08-06T11:32:28.000Z</time>
</trkpt>
<trkpt lat="46.0764760" lon="10.4934370">
	<ele>2069.00</ele>
	<time>2023-08-06T11:32:29.000Z</time>
</trkpt>
<trkpt lat="46.0764860" lon="10.4934380">
	<ele>2068.60</ele>
	<time>2023-08-06T11:32:30.000Z</time>
</trkpt>
<trkpt lat="46.0764960" lon="10.4934400">
	<ele>2068.40</ele>
	<time>2023-08-06T11:32:31.000Z</time>
</trkpt>
<trkpt lat="46.0765000" lon="10.4934390">
	<ele>2068.00</ele>
	<time>2023-08-06T11:32:32.000Z</time>
</trkpt>
<trkpt lat="46.0765020" lon="10.4934360">
	<ele>2067.80</ele>
	<time>2023-08-06T11:32:33.000Z</time>
</trkpt>
<trkpt lat="46.0765060" lon="10.4934330">
	<ele>2067.60</ele>
	<time>2023-08-06T11:32:34.000Z</time>
</trkpt>
<trkpt lat="46.0765120" lon="10.4934350">
	<ele>2067.60</ele>
	<time>2023-08-06T11:32:35.000Z</time>
</trkpt>
<trkpt lat="46.0765140" lon="10.4934430">
	<ele>2067.40</ele>
	<time>2023-08-06T11:32:36.000Z</time>
</trkpt>
<trkpt lat="46.0765130" lon="10.4934520">
	<ele>2067.20</ele>
	<time>2023-08-06T11:32:37.000Z</time>
</trkpt>
<trkpt lat="46.0765110" lon="10.4934550">
	<ele>2067.00</ele>
	<time>2023-08-06T11:32:38.000Z</time>
</trkpt>
<trkpt lat="46.0765150" lon="10.4934690">
	<ele>2066.60</ele>
	<time>2023-08-06T11:32:39.000Z</time>
</trkpt>
<trkpt lat="46.0765150" lon="10.4934800">
	<ele>2066.40</ele>
	<time>2023-08-06T11:32:40.000Z</time>
</trkpt>
<trkpt lat="46.0765150" lon="10.4934860">
	<ele>2066.20</ele>
	<time>2023-08-06T11:32:41.000Z</time>
</trkpt>
<trkpt lat="46.0765150" lon="10.4934900">
	<ele>2066.00</ele>
	<time>2023-08-06T11:32:42.000Z</time>
</trkpt>
<trkpt lat="46.0765160" lon="10.4934920">
	<ele>2066.00</ele>
	<time>2023-08-06T11:32:43.000Z</time>
</trkpt>
<trkpt lat="46.0765250" lon="10.4934950">
	<ele>2066.00</ele>
	<time>2023-08-06T11:32:44.000Z</time>
</trkpt>
<trkpt lat="46.0765340" lon="10.4934980">
	<ele>2065.80</ele>
	<time>2023-08-06T11:32:45.000Z</time>
</trkpt>
<trkpt lat="46.0765390" lon="10.4935030">
	<ele>2065.60</ele>
	<time>2023-08-06T11:32:46.000Z</time>
</trkpt>
<trkpt lat="46.0765440" lon="10.4935080">
	<ele>2065.40</ele>
	<time>2023-08-06T11:32:47.000Z</time>
</trkpt>
<trkpt lat="46.0765570" lon="10.4935090">
	<ele>2065.20</ele>
	<time>2023-08-06T11:32:48.000Z</time>
</trkpt>
<trkpt lat="46.0765690" lon="10.4935100">
	<ele>2065.20</ele>
	<time>2023-08-06T11:32:49.000Z</time>
</trkpt>
<trkpt lat="46.0765720" lon="10.4935090">
	<ele>2065.20</ele>
	<time>2023-08-06T11:32:50.000Z</time>
</trkpt>
<trkpt lat="46.0765780" lon="10.4935090">
	<ele>2065.00</ele>
	<time>2023-08-06T11:32:51.000Z</time>
</trkpt>
<trkpt lat="46.0765870" lon="10.4935100">
	<ele>2064.80</ele>
	<time>2023-08-06T11:32:52.000Z</time>
</trkpt>
<trkpt lat="46.0765950" lon="10.4935110">
	<ele>2064.60</ele>
	<time>2023-08-06T11:32:53.000Z</time>
</trkpt>
<trkpt lat="46.0766040" lon="10.4935150">
	<ele>2064.40</ele>
	<time>2023-08-06T11:32:54.000Z</time>
</trkpt>
<trkpt lat="46.0766080" lon="10.4935190">
	<ele>2064.20</ele>
	<time>2023-08-06T11:32:55.000Z</time>
</trkpt>
<trkpt lat="46.0766080" lon="10.4935260">
	<ele>2064.00</ele>
	<time>2023-08-06T11:32:56.000Z</time>
</trkpt>
<trkpt lat="46.0766090" lon="10.4935340">
	<ele>2063.80</ele>
	<time>2023-08-06T11:32:57.000Z</time>
</trkpt>
<trkpt lat="46.0766110" lon="10.4935430">
	<ele>2063.60</ele>
	<time>2023-08-06T11:32:58.000Z</time>
</trkpt>
<trkpt lat="46.0766130" lon="10.4935490">
	<ele>2063.60</ele>
	<time>2023-08-06T11:32:59.000Z</time>
</trkpt>
<trkpt lat="46.0766150" lon="10.4935510">
	<ele>2063.20</ele>
	<time>2023-08-06T11:33:00.000Z</time>
</trkpt>
<trkpt lat="46.0766210" lon="10.4935550">
	<ele>2063.00</ele>
	<time>2023-08-06T11:33:01.000Z</time>
</trkpt>
<trkpt lat="46.0766260" lon="10.4935600">
	<ele>2062.80</ele>
	<time>2023-08-06T11:33:02.000Z</time>
</trkpt>
<trkpt lat="46.0766310" lon="10.4935650">
	<ele>2062.60</ele>
	<time>2023-08-06T11:33:03.000Z</time>
</trkpt>
<trkpt lat="46.0766370" lon="10.4935690">
	<ele>2062.40</ele>
	<time>2023-08-06T11:33:04.000Z</time>
</trkpt>
<trkpt lat="46.0766420" lon="10.4935710">
	<ele>2062.20</ele>
	<time>2023-08-06T11:33:05.000Z</time>
</trkpt>
<trkpt lat="46.0766460" lon="10.4935720">
	<ele>2062.20</ele>
	<time>2023-08-06T11:33:06.000Z</time>
</trkpt>
<trkpt lat="46.0766510" lon="10.4935750">
	<ele>2061.80</ele>
	<time>2023-08-06T11:33:07.000Z</time>
</trkpt>
<trkpt lat="46.0766540" lon="10.4935800">
	<ele>2061.60</ele>
	<time>2023-08-06T11:33:08.000Z</time>
</trkpt>
<trkpt lat="46.0766590" lon="10.4935800">
	<ele>2061.40</ele>
	<time>2023-08-06T11:33:09.000Z</time>
</trkpt>
<trkpt lat="46.0766610" lon="10.4935810">
	<ele>2061.40</ele>
	<time>2023-08-06T11:33:10.000Z</time>
</trkpt>
<trkpt lat="46.0766650" lon="10.4935810">
	<ele>2061.20</ele>
	<time>2023-08-06T11:33:11.000Z</time>
</trkpt>
<trkpt lat="46.0766700" lon="10.4935840">
	<ele>2061.20</ele>
	<time>2023-08-06T11:33:12.000Z</time>
</trkpt>
<trkpt lat="46.0766760" lon="10.4935900">
	<ele>2061.00</ele>
	<time>2023-08-06T11:33:13.000Z</time>
</trkpt>
<trkpt lat="46.0766800" lon="10.4935960">
	<ele>2060.60</ele>
	<time>2023-08-06T11:33:14.000Z</time>
</trkpt>
<trkpt lat="46.0766830" lon="10.4936040">
	<ele>2060.40</ele>
	<time>2023-08-06T11:33:15.000Z</time>
</trkpt>
<trkpt lat="46.0766810" lon="10.4936110">
	<ele>2060.20</ele>
	<time>2023-08-06T11:33:16.000Z</time>
</trkpt>
<trkpt lat="46.0766800" lon="10.4936170">
	<ele>2060.00</ele>
	<time>2023-08-06T11:33:17.000Z</time>
</trkpt>
<trkpt lat="46.0766760" lon="10.4936240">
	<ele>2059.80</ele>
	<time>2023-08-06T11:33:18.000Z</time>
</trkpt>
<trkpt lat="46.0766740" lon="10.4936340">
	<ele>2059.60</ele>
	<time>2023-08-06T11:33:19.000Z</time>
</trkpt>
<trkpt lat="46.0766740" lon="10.4936440">
	<ele>2059.40</ele>
	<time>2023-08-06T11:33:20.000Z</time>
</trkpt>
<trkpt lat="46.0766710" lon="10.4936520">
	<ele>2059.40</ele>
	<time>2023-08-06T11:33:21.000Z</time>
</trkpt>
<trkpt lat="46.0766710" lon="10.4936570">
	<ele>2059.20</ele>
	<time>2023-08-06T11:33:22.000Z</time>
</trkpt>
<trkpt lat="46.0766720" lon="10.4936630">
	<ele>2059.00</ele>
	<time>2023-08-06T11:33:23.000Z</time>
</trkpt>
<trkpt lat="46.0766710" lon="10.4936710">
	<ele>2058.60</ele>
	<time>2023-08-06T11:33:24.000Z</time>
</trkpt>
<trkpt lat="46.0766710" lon="10.4936800">
	<ele>2058.40</ele>
	<time>2023-08-06T11:33:25.000Z</time>
</trkpt>
<trkpt lat="46.0766750" lon="10.4936840">
	<ele>2058.20</ele>
	<time>2023-08-06T11:33:26.000Z</time>
</trkpt>
<trkpt lat="46.0766800" lon="10.4936870">
	<ele>2058.00</ele>
	<time>2023-08-06T11:33:27.000Z</time>
</trkpt>
<trkpt lat="46.0766830" lon="10.4936890">
	<ele>2057.80</ele>
	<time>2023-08-06T11:33:28.000Z</time>
</trkpt>
<trkpt lat="46.0766850" lon="10.4936890">
	<ele>2057.60</ele>
	<time>2023-08-06T11:33:29.000Z</time>
</trkpt>
<trkpt lat="46.0766910" lon="10.4936910">
	<ele>2057.60</ele>
	<time>2023-08-06T11:33:30.000Z</time>
</trkpt>
<trkpt lat="46.0766960" lon="10.4936910">
	<ele>2057.20</ele>
	<time>2023-08-06T11:33:31.000Z</time>
</trkpt>
<trkpt lat="46.0767000" lon="10.4936920">
	<ele>2056.80</ele>
	<time>2023-08-06T11:33:32.000Z</time>
</trkpt>
<trkpt lat="46.0767070" lon="10.4936940">
	<ele>2056.60</ele>
	<time>2023-08-06T11:33:33.000Z</time>
</trkpt>
<trkpt lat="46.0767140" lon="10.4936960">
	<ele>2056.20</ele>
	<time>2023-08-06T11:33:34.000Z</time>
</trkpt>
<trkpt lat="46.0767130" lon="10.4937030">
	<ele>2055.80</ele>
	<time>2023-08-06T11:33:35.000Z</time>
</trkpt>
<trkpt lat="46.0767100" lon="10.4937090">
	<ele>2055.60</ele>
	<time>2023-08-06T11:33:36.000Z</time>
</trkpt>
<trkpt lat="46.0767080" lon="10.4937150">
	<ele>2055.40</ele>
	<time>2023-08-06T11:33:37.000Z</time>
</trkpt>
<trkpt lat="46.0767060" lon="10.4937200">
	<ele>2055.20</ele>
	<time>2023-08-06T11:33:38.000Z</time>
</trkpt>
<trkpt lat="46.0767050" lon="10.4937240">
	<ele>2055.00</ele>
	<time>2023-08-06T11:33:39.000Z</time>
</trkpt>
<trkpt lat="46.0767040" lon="10.4937270">
	<ele>2054.80</ele>
	<time>2023-08-06T11:33:40.000Z</time>
</trkpt>
<trkpt lat="46.0767040" lon="10.4937300">
	<ele>2054.60</ele>
	<time>2023-08-06T11:33:41.000Z</time>
</trkpt>
<trkpt lat="46.0767010" lon="10.4937320">
	<ele>2054.40</ele>
	<time>2023-08-06T11:33:42.000Z</time>
</trkpt>
<trkpt lat="46.0766980" lon="10.4937370">
	<ele>2054.40</ele>
	<time>2023-08-06T11:33:43.000Z</time>
</trkpt>
<trkpt lat="46.0766950" lon="10.4937380">
	<ele>2054.20</ele>
	<time>2023-08-06T11:33:44.000Z</time>
</trkpt>
<trkpt lat="46.0766950" lon="10.4937420">
	<ele>2054.00</ele>
	<time>2023-08-06T11:33:45.000Z</time>
</trkpt>
<trkpt lat="46.0766990" lon="10.4937470">
	<ele>2053.60</ele>
	<time>2023-08-06T11:33:46.000Z</time>
</trkpt>
<trkpt lat="46.0767000" lon="10.4937520">
	<ele>2053.40</ele>
	<time>2023-08-06T11:33:47.000Z</time>
</trkpt>
<trkpt lat="46.0766970" lon="10.4937560">
	<ele>2053.20</ele>
	<time>2023-08-06T11:33:48.000Z</time>
</trkpt>
<trkpt lat="46.0766960" lon="10.4937570">
	<ele>2052.80</ele>
	<time>2023-08-06T11:33:49.000Z</time>
</trkpt>
<trkpt lat="46.0766960" lon="10.4937570">
	<ele>2052.40</ele>
	<time>2023-08-06T11:33:50.000Z</time>
</trkpt>
<trkpt lat="46.0766960" lon="10.4937570">
	<ele>2052.00</ele>
	<time>2023-08-06T11:33:51.000Z</time>
</trkpt>
<trkpt lat="46.0766980" lon="10.4937590">
	<ele>2052.00</ele>
	<time>2023-08-06T11:33:52.000Z</time>
</trkpt>
<trkpt lat="46.0767020" lon="10.4937600">
	<ele>2051.80</ele>
	<time>2023-08-06T11:33:53.000Z</time>
</trkpt>
<trkpt lat="46.0767020" lon="10.4937620">
	<ele>2051.60</ele>
	<time>2023-08-06T11:33:54.000Z</time>
</trkpt>
<trkpt lat="46.0767030" lon="10.4937620">
	<ele>2051.40</ele>
	<time>2023-08-06T11:33:55.000Z</time>
</trkpt>
<trkpt lat="46.0767060" lon="10.4937600">
	<ele>2051.20</ele>
	<time>2023-08-06T11:33:56.000Z</time>
</trkpt>
<trkpt lat="46.0767090" lon="10.4937600">
	<ele>2051.00</ele>
	<time>2023-08-06T11:33:57.000Z</time>
</trkpt>
<trkpt lat="46.0767110" lon="10.4937580">
	<ele>2050.60</ele>
	<time>2023-08-06T11:33:58.000Z</time>
</trkpt>
<trkpt lat="46.0767160" lon="10.4937620">
	<ele>2050.40</ele>
	<time>2023-08-06T11:33:59.000Z</time>
</trkpt>
<trkpt lat="46.0767220" lon="10.4937640">
	<ele>2050.20</ele>
	<time>2023-08-06T11:34:00.000Z</time>
</trkpt>
<trkpt lat="46.0767280" lon="10.4937650">
	<ele>2050.20</ele>
	<time>2023-08-06T11:34:01.000Z</time>
</trkpt>
<trkpt lat="46.0767330" lon="10.4937670">
	<ele>2050.00</ele>
	<time>2023-08-06T11:34:02.000Z</time>
</trkpt>
<trkpt lat="46.0767370" lon="10.4937670">
	<ele>2049.80</ele>
	<time>2023-08-06T11:34:03.000Z</time>
</trkpt>
<trkpt lat="46.0767380" lon="10.4937660">
	<ele>2049.60</ele>
	<time>2023-08-06T11:34:04.000Z</time>
</trkpt>
<trkpt lat="46.0767440" lon="10.4937650">
	<ele>2049.60</ele>
	<time>2023-08-06T11:34:05.000Z</time>
</trkpt>
<trkpt lat="46.0767470" lon="10.4937660">
	<ele>2049.40</ele>
	<time>2023-08-06T11:34:06.000Z</time>
</trkpt>
<trkpt lat="46.0767510" lon="10.4937700">
	<ele>2049.20</ele>
	<time>2023-08-06T11:34:07.000Z</time>
</trkpt>
<trkpt lat="46.0767550" lon="10.4937750">
	<ele>2049.00</ele>
	<time>2023-08-06T11:34:08.000Z</time>
</trkpt>
<trkpt lat="46.0767580" lon="10.4937800">
	<ele>2049.00</ele>
	<time>2023-08-06T11:34:09.000Z</time>
</trkpt>
<trkpt lat="46.0767590" lon="10.4937830">
	<ele>2048.80</ele>
	<time>2023-08-06T11:34:10.000Z</time>
</trkpt>
<trkpt lat="46.0767610" lon="10.4937850">
	<ele>2048.40</ele>
	<time>2023-08-06T11:34:11.000Z</time>
</trkpt>
<trkpt lat="46.0767640" lon="10.4937880">
	<ele>2048.20</ele>
	<time>2023-08-06T11:34:12.000Z</time>
</trkpt>
<trkpt lat="46.0767680" lon="10.4937940">
	<ele>2048.00</ele>
	<time>2023-08-06T11:34:13.000Z</time>
</trkpt>
<trkpt lat="46.0767710" lon="10.4938010">
	<ele>2047.80</ele>
	<time>2023-08-06T11:34:14.000Z</time>
</trkpt>
<trkpt lat="46.0767750" lon="10.4938050">
	<ele>2047.40</ele>
	<time>2023-08-06T11:34:15.000Z</time>
</trkpt>
<trkpt lat="46.0767760" lon="10.4938070">
	<ele>2047.20</ele>
	<time>2023-08-06T11:34:16.000Z</time>
</trkpt>
<trkpt lat="46.0767790" lon="10.4938100">
	<ele>2047.00</ele>
	<time>2023-08-06T11:34:17.000Z</time>
</trkpt>
<trkpt lat="46.0767830" lon="10.4938140">
	<ele>2046.80</ele>
	<time>2023-08-06T11:34:18.000Z</time>
</trkpt>
<trkpt lat="46.0767870" lon="10.4938130">
	<ele>2046.60</ele>
	<time>2023-08-06T11:34:19.000Z</time>
</trkpt>
<trkpt lat="46.0767930" lon="10.4938120">
	<ele>2046.40</ele>
	<time>2023-08-06T11:34:20.000Z</time>
</trkpt>
<trkpt lat="46.0767970" lon="10.4938100">
	<ele>2046.20</ele>
	<time>2023-08-06T11:34:21.000Z</time>
</trkpt>
<trkpt lat="46.0767990" lon="10.4938100">
	<ele>2046.00</ele>
	<time>2023-08-06T11:34:22.000Z</time>
</trkpt>
<trkpt lat="46.0768000" lon="10.4938140">
	<ele>2045.80</ele>
	<time>2023-08-06T11:34:23.000Z</time>
</trkpt>
<trkpt lat="46.0768030" lon="10.4938170">
	<ele>2045.60</ele>
	<time>2023-08-06T11:34:24.000Z</time>
</trkpt>
<trkpt lat="46.0768070" lon="10.4938210">
	<ele>2045.60</ele>
	<time>2023-08-06T11:34:25.000Z</time>
</trkpt>
<trkpt lat="46.0768090" lon="10.4938260">
	<ele>2045.40</ele>
	<time>2023-08-06T11:34:26.000Z</time>
</trkpt>
<trkpt lat="46.0768090" lon="10.4938310">
	<ele>2045.00</ele>
	<time>2023-08-06T11:34:27.000Z</time>
</trkpt>
<trkpt lat="46.0768100" lon="10.4938350">
	<ele>2044.80</ele>
	<time>2023-08-06T11:34:28.000Z</time>
</trkpt>
<trkpt lat="46.0768120" lon="10.4938420">
	<ele>2044.60</ele>
	<time>2023-08-06T11:34:29.000Z</time>
</trkpt>
<trkpt lat="46.0768130" lon="10.4938470">
	<ele>2044.40</ele>
	<time>2023-08-06T11:34:30.000Z</time>
</trkpt>
<trkpt lat="46.0768150" lon="10.4938510">
	<ele>2044.40</ele>
	<time>2023-08-06T11:34:31.000Z</time>
</trkpt>
<trkpt lat="46.0768160" lon="10.4938550">
	<ele>2044.20</ele>
	<time>2023-08-06T11:34:32.000Z</time>
</trkpt>
<trkpt lat="46.0768190" lon="10.4938620">
	<ele>2044.00</ele>
	<time>2023-08-06T11:34:33.000Z</time>
</trkpt>
<trkpt lat="46.0768210" lon="10.4938670">
	<ele>2043.60</ele>
	<time>2023-08-06T11:34:34.000Z</time>
</trkpt>
<trkpt lat="46.0768270" lon="10.4938720">
	<ele>2043.60</ele>
	<time>2023-08-06T11:34:35.000Z</time>
</trkpt>
<trkpt lat="46.0768370" lon="10.4938750">
	<ele>2043.40</ele>
	<time>2023-08-06T11:34:36.000Z</time>
</trkpt>
<trkpt lat="46.0768450" lon="10.4938790">
	<ele>2043.40</ele>
	<time>2023-08-06T11:34:37.000Z</time>
</trkpt>
<trkpt lat="46.0768470" lon="10.4938790">
	<ele>2043.20</ele>
	<time>2023-08-06T11:34:38.000Z</time>
</trkpt>
<trkpt lat="46.0768500" lon="10.4938780">
	<ele>2043.20</ele>
	<time>2023-08-06T11:34:39.000Z</time>
</trkpt>
<trkpt lat="46.0768520" lon="10.4938790">
	<ele>2043.00</ele>
	<time>2023-08-06T11:34:40.000Z</time>
</trkpt>
<trkpt lat="46.0768520" lon="10.4938790">
	<ele>2042.40</ele>
	<time>2023-08-06T11:34:41.000Z</time>
</trkpt>
<trkpt lat="46.0768520" lon="10.4938820">
	<ele>2042.00</ele>
	<time>2023-08-06T11:34:42.000Z</time>
</trkpt>
<trkpt lat="46.0768540" lon="10.4938880">
	<ele>2041.80</ele>
	<time>2023-08-06T11:34:43.000Z</time>
</trkpt>
<trkpt lat="46.0768530" lon="10.4938930">
	<ele>2041.80</ele>
	<time>2023-08-06T11:34:44.000Z</time>
</trkpt>
<trkpt lat="46.0768560" lon="10.4938970">
	<ele>2041.60</ele>
	<time>2023-08-06T11:34:45.000Z</time>
</trkpt>
<trkpt lat="46.0768600" lon="10.4938980">
	<ele>2041.60</ele>
	<time>2023-08-06T11:34:46.000Z</time>
</trkpt>
<trkpt lat="46.0768610" lon="10.4939010">
	<ele>2041.40</ele>
	<time>2023-08-06T11:34:47.000Z</time>
</trkpt>
<trkpt lat="46.0768610" lon="10.4939020">
	<ele>2041.20</ele>
	<time>2023-08-06T11:34:48.000Z</time>
</trkpt>
<trkpt lat="46.0768560" lon="10.4939020">
	<ele>2041.20</ele>
	<time>2023-08-06T11:34:49.000Z</time>
</trkpt>
<trkpt lat="46.0768580" lon="10.4939010">
	<ele>2041.00</ele>
	<time>2023-08-06T11:34:50.000Z</time>
</trkpt>
<trkpt lat="46.0768570" lon="10.4938980">
	<ele>2041.00</ele>
	<time>2023-08-06T11:34:51.000Z</time>
</trkpt>
<trkpt lat="46.0768570" lon="10.4938940">
	<ele>2040.60</ele>
	<time>2023-08-06T11:34:52.000Z</time>
</trkpt>
<trkpt lat="46.0768640" lon="10.4938920">
	<ele>2040.20</ele>
	<time>2023-08-06T11:34:53.000Z</time>
</trkpt>
<trkpt lat="46.0768720" lon="10.4938910">
	<ele>2040.00</ele>
	<time>2023-08-06T11:34:54.000Z</time>
</trkpt>
<trkpt lat="46.0768770" lon="10.4938930">
	<ele>2039.80</ele>
	<time>2023-08-06T11:34:55.000Z</time>
</trkpt>
<trkpt lat="46.0768800" lon="10.4938980">
	<ele>2039.40</ele>
	<time>2023-08-06T11:34:56.000Z</time>
</trkpt>
<trkpt lat="46.0768830" lon="10.4939030">
	<ele>2039.20</ele>
	<time>2023-08-06T11:34:57.000Z</time>
</trkpt>
<trkpt lat="46.0768830" lon="10.4939080">
	<ele>2039.00</ele>
	<time>2023-08-06T11:34:58.000Z</time>
</trkpt>
<trkpt lat="46.0768830" lon="10.4939170">
	<ele>2039.00</ele>
	<time>2023-08-06T11:34:59.000Z</time>
</trkpt>
<trkpt lat="46.0768880" lon="10.4939220">
	<ele>2038.80</ele>
	<time>2023-08-06T11:35:00.000Z</time>
</trkpt>
<trkpt lat="46.0768930" lon="10.4939270">
	<ele>2038.60</ele>
	<time>2023-08-06T11:35:01.000Z</time>
</trkpt>
<trkpt lat="46.0768920" lon="10.4939280">
	<ele>2038.40</ele>
	<time>2023-08-06T11:35:02.000Z</time>
</trkpt>
<trkpt lat="46.0768910" lon="10.4939300">
	<ele>2038.20</ele>
	<time>2023-08-06T11:35:03.000Z</time>
</trkpt>
<trkpt lat="46.0768980" lon="10.4939350">
	<ele>2038.00</ele>
	<time>2023-08-06T11:35:04.000Z</time>
</trkpt>
<trkpt lat="46.0769010" lon="10.4939390">
	<ele>2037.80</ele>
	<time>2023-08-06T11:35:05.000Z</time>
</trkpt>
<trkpt lat="46.0768990" lon="10.4939390">
	<ele>2037.80</ele>
	<time>2023-08-06T11:35:06.000Z</time>
</trkpt>
<trkpt lat="46.0768980" lon="10.4939380">
	<ele>2037.40</ele>
	<time>2023-08-06T11:35:07.000Z</time>
</trkpt>
<trkpt lat="46.0768970" lon="10.4939390">
	<ele>2037.20</ele>
	<time>2023-08-06T11:35:08.000Z</time>
</trkpt>
<trkpt lat="46.0768990" lon="10.4939390">
	<ele>2037.00</ele>
	<time>2023-08-06T11:35:09.000Z</time>
</trkpt>
<trkpt lat="46.0769060" lon="10.4939390">
	<ele>2036.80</ele>
	<time>2023-08-06T11:35:10.000Z</time>
</trkpt>
<trkpt lat="46.0769140" lon="10.4939370">
	<ele>2036.60</ele>
	<time>2023-08-06T11:35:11.000Z</time>
</trkpt>
<trkpt lat="46.0769190" lon="10.4939350">
	<ele>2036.40</ele>
	<time>2023-08-06T11:35:12.000Z</time>
</trkpt>
<trkpt lat="46.0769200" lon="10.4939340">
	<ele>2036.40</ele>
	<time>2023-08-06T11:35:13.000Z</time>
</trkpt>
<trkpt lat="46.0769210" lon="10.4939350">
	<ele>2036.20</ele>
	<time>2023-08-06T11:35:14.000Z</time>
</trkpt>
<trkpt lat="46.0769230" lon="10.4939380">
	<ele>2036.00</ele>
	<time>2023-08-06T11:35:15.000Z</time>
</trkpt>
<trkpt lat="46.0769240" lon="10.4939410">
	<ele>2035.80</ele>
	<time>2023-08-06T11:35:16.000Z</time>
</trkpt>
<trkpt lat="46.0769260" lon="10.4939450">
	<ele>2035.60</ele>
	<time>2023-08-06T11:35:17.000Z</time>
</trkpt>
<trkpt lat="46.0769250" lon="10.4939470">
	<ele>2035.20</ele>
	<time>2023-08-06T11:35:18.000Z</time>
</trkpt>
<trkpt lat="46.0769240" lon="10.4939480">
	<ele>2035.00</ele>
	<time>2023-08-06T11:35:19.000Z</time>
</trkpt>
<trkpt lat="46.0769250" lon="10.4939470">
	<ele>2034.80</ele>
	<time>2023-08-06T11:35:20.000Z</time>
</trkpt>
<trkpt lat="46.0769270" lon="10.4939460">
	<ele>2034.60</ele>
	<time>2023-08-06T11:35:21.000Z</time>
</trkpt>
<trkpt lat="46.0769310" lon="10.4939470">
	<ele>2034.40</ele>
	<time>2023-08-06T11:35:22.000Z</time>
</trkpt>
<trkpt lat="46.0769350" lon="10.4939480">
	<ele>2034.20</ele>
	<time>2023-08-06T11:35:23.000Z</time>
</trkpt>
<trkpt lat="46.0769320" lon="10.4939540">
	<ele>2034.00</ele>
	<time>2023-08-06T11:35:24.000Z</time>
</trkpt>
<trkpt lat="46.0769280" lon="10.4939630">
	<ele>2033.80</ele>
	<time>2023-08-06T11:35:25.000Z</time>
</trkpt>
<trkpt lat="46.0769250" lon="10.4939690">
	<ele>2033.60</ele>
	<time>2023-08-06T11:35:26.000Z</time>
</trkpt>
<trkpt lat="46.0769290" lon="10.4939790">
	<ele>2033.40</ele>
	<time>2023-08-06T11:35:27.000Z</time>
</trkpt>
<trkpt lat="46.0769340" lon="10.4939860">
	<ele>2033.20</ele>
	<time>2023-08-06T11:35:28.000Z</time>
</trkpt>
<trkpt lat="46.0769350" lon="10.4939970">
	<ele>2032.80</ele>
	<time>2023-08-06T11:35:29.000Z</time>
</trkpt>
<trkpt lat="46.0769350" lon="10.4940040">
	<ele>2032.60</ele>
	<time>2023-08-06T11:35:30.000Z</time>
</trkpt>
<trkpt lat="46.0769320" lon="10.4940070">
	<ele>2032.60</ele>
	<time>2023-08-06T11:35:31.000Z</time>
</trkpt>
<trkpt lat="46.0769320" lon="10.4940090">
	<ele>2032.40</ele>
	<time>2023-08-06T11:35:32.000Z</time>
</trkpt>
<trkpt lat="46.0769360" lon="10.4940100">
	<ele>2032.00</ele>
	<time>2023-08-06T11:35:33.000Z</time>
</trkpt>
<trkpt lat="46.0769400" lon="10.4940090">
	<ele>2031.80</ele>
	<time>2023-08-06T11:35:34.000Z</time>
</trkpt>
<trkpt lat="46.0769440" lon="10.4940090">
	<ele>2031.60</ele>
	<time>2023-08-06T11:35:35.000Z</time>
</trkpt>
<trkpt lat="46.0769430" lon="10.4940100">
	<ele>2031.40</ele>
	<time>2023-08-06T11:35:36.000Z</time>
</trkpt>
<trkpt lat="46.0769440" lon="10.4940100">
	<ele>2031.40</ele>
	<time>2023-08-06T11:35:37.000Z</time>
</trkpt>
<trkpt lat="46.0769460" lon="10.4940110">
	<ele>2031.20</ele>
	<time>2023-08-06T11:35:38.000Z</time>
</trkpt>
<trkpt lat="46.0769620" lon="10.4940210">
	<ele>2031.20</ele>
	<time>2023-08-06T11:35:39.000Z</time>
</trkpt>
<trkpt lat="46.0769620" lon="10.4940230">
	<ele>2031.00</ele>
	<time>2023-08-06T11:35:40.000Z</time>
</trkpt>
<trkpt lat="46.0769630" lon="10.4940220">
	<ele>2030.80</ele>
	<time>2023-08-06T11:35:41.000Z</time>
</trkpt>
<trkpt lat="46.0769720" lon="10.4940230">
	<ele>2030.60</ele>
	<time>2023-08-06T11:35:42.000Z</time>
</trkpt>
<trkpt lat="46.0769820" lon="10.4940230">
	<ele>2030.40</ele>
	<time>2023-08-06T11:35:43.000Z</time>
</trkpt>
<trkpt lat="46.0769930" lon="10.4940220">
	<ele>2030.00</ele>
	<time>2023-08-06T11:35:44.000Z</time>
</trkpt>
<trkpt lat="46.0769960" lon="10.4940210">
	<ele>2029.60</ele>
	<time>2023-08-06T11:35:45.000Z</time>
</trkpt>
<trkpt lat="46.0769990" lon="10.4940150">
	<ele>2029.40</ele>
	<time>2023-08-06T11:35:46.000Z</time>
</trkpt>
<trkpt lat="46.0770000" lon="10.4940130">
	<ele>2029.00</ele>
	<time>2023-08-06T11:35:47.000Z</time>
</trkpt>
<trkpt lat="46.0770060" lon="10.4940130">
	<ele>2028.80</ele>
	<time>2023-08-06T11:35:48.000Z</time>
</trkpt>
<trkpt lat="46.0770200" lon="10.4940190">
	<ele>2028.60</ele>
	<time>2023-08-06T11:35:49.000Z</time>
</trkpt>
<trkpt lat="46.0770300" lon="10.4940250">
	<ele>2028.40</ele>
	<time>2023-08-06T11:35:50.000Z</time>
</trkpt>
<trkpt lat="46.0770330" lon="10.4940290">
	<ele>2028.20</ele>
	<time>2023-08-06T11:35:51.000Z</time>
</trkpt>
<trkpt lat="46.0770340" lon="10.4940290">
	<ele>2028.20</ele>
	<time>2023-08-06T11:35:52.000Z</time>
</trkpt>
<trkpt lat="46.0770380" lon="10.4940310">
	<ele>2028.00</ele>
	<time>2023-08-06T11:35:53.000Z</time>
</trkpt>
<trkpt lat="46.0770450" lon="10.4940320">
	<ele>2027.80</ele>
	<time>2023-08-06T11:35:54.000Z</time>
</trkpt>
<trkpt lat="46.0770530" lon="10.4940280">
	<ele>2027.80</ele>
	<time>2023-08-06T11:35:55.000Z</time>
</trkpt>
<trkpt lat="46.0770540" lon="10.4940260">
	<ele>2027.60</ele>
	<time>2023-08-06T11:35:56.000Z</time>
</trkpt>
<trkpt lat="46.0770570" lon="10.4940270">
	<ele>2027.40</ele>
	<time>2023-08-06T11:35:57.000Z</time>
</trkpt>
<trkpt lat="46.0770670" lon="10.4940290">
	<ele>2027.00</ele>
	<time>2023-08-06T11:35:58.000Z</time>
</trkpt>
<trkpt lat="46.0770730" lon="10.4940340">
	<ele>2026.80</ele>
	<time>2023-08-06T11:35:59.000Z</time>
</trkpt>
<trkpt lat="46.0770750" lon="10.4940360">
	<ele>2026.60</ele>
	<time>2023-08-06T11:36:00.000Z</time>
</trkpt>
<trkpt lat="46.0770800" lon="10.4940360">
	<ele>2026.20</ele>
	<time>2023-08-06T11:36:01.000Z</time>
</trkpt>
<trkpt lat="46.0770830" lon="10.4940370">
	<ele>2026.00</ele>
	<time>2023-08-06T11:36:02.000Z</time>
</trkpt>
<trkpt lat="46.0770840" lon="10.4940380">
	<ele>2025.80</ele>
	<time>2023-08-06T11:36:03.000Z</time>
</trkpt>
<trkpt lat="46.0770880" lon="10.4940390">
	<ele>2025.60</ele>
	<time>2023-08-06T11:36:04.000Z</time>
</trkpt>
<trkpt lat="46.0770930" lon="10.4940380">
	<ele>2025.40</ele>
	<time>2023-08-06T11:36:05.000Z</time>
</trkpt>
<trkpt lat="46.0770950" lon="10.4940380">
	<ele>2025.20</ele>
	<time>2023-08-06T11:36:06.000Z</time>
</trkpt>
<trkpt lat="46.0770950" lon="10.4940370">
	<ele>2024.80</ele>
	<time>2023-08-06T11:36:07.000Z</time>
</trkpt>
<trkpt lat="46.0770960" lon="10.4940380">
	<ele>2024.60</ele>
	<time>2023-08-06T11:36:08.000Z</time>
</trkpt>
<trkpt lat="46.0771000" lon="10.4940380">
	<ele>2024.60</ele>
	<time>2023-08-06T11:36:09.000Z</time>
</trkpt>
<trkpt lat="46.0771060" lon="10.4940350">
	<ele>2024.40</ele>
	<time>2023-08-06T11:36:10.000Z</time>
</trkpt>
<trkpt lat="46.0771130" lon="10.4940350">
	<ele>2024.40</ele>
	<time>2023-08-06T11:36:11.000Z</time>
</trkpt>
<trkpt lat="46.0771190" lon="10.4940370">
	<ele>2024.00</ele>
	<time>2023-08-06T11:36:12.000Z</time>
</trkpt>
<trkpt lat="46.0771240" lon="10.4940420">
	<ele>2023.80</ele>
	<time>2023-08-06T11:36:13.000Z</time>
</trkpt>
<trkpt lat="46.0771240" lon="10.4940440">
	<ele>2023.40</ele>
	<time>2023-08-06T11:36:14.000Z</time>
</trkpt>
<trkpt lat="46.0771230" lon="10.4940470">
	<ele>2023.20</ele>
	<time>2023-08-06T11:36:15.000Z</time>
</trkpt>
<trkpt lat="46.0771260" lon="10.4940540">
	<ele>2023.00</ele>
	<time>2023-08-06T11:36:16.000Z</time>
</trkpt>
<trkpt lat="46.0771290" lon="10.4940580">
	<ele>2022.80</ele>
	<time>2023-08-06T11:36:17.000Z</time>
</trkpt>
<trkpt lat="46.0771220" lon="10.4940580">
	<ele>2022.40</ele>
	<time>2023-08-06T11:36:18.000Z</time>
</trkpt>
<trkpt lat="46.0771180" lon="10.4940600">
	<ele>2022.20</ele>
	<time>2023-08-06T11:36:19.000Z</time>
</trkpt>
<trkpt lat="46.0771160" lon="10.4940640">
	<ele>2022.00</ele>
	<time>2023-08-06T11:36:20.000Z</time>
</trkpt>
<trkpt lat="46.0771150" lon="10.4940660">
	<ele>2021.80</ele>
	<time>2023-08-06T11:36:21.000Z</time>
</trkpt>
<trkpt lat="46.0771150" lon="10.4940660">
	<ele>2021.60</ele>
	<time>2023-08-06T11:36:22.000Z</time>
</trkpt>
<trkpt lat="46.0771210" lon="10.4940610">
	<ele>2021.40</ele>
	<time>2023-08-06T11:36:23.000Z</time>
</trkpt>
<trkpt lat="46.0771280" lon="10.4940590">
	<ele>2021.20</ele>
	<time>2023-08-06T11:36:24.000Z</time>
</trkpt>
<trkpt lat="46.0771370" lon="10.4940580">
	<ele>2021.00</ele>
	<time>2023-08-06T11:36:25.000Z</time>
</trkpt>
<trkpt lat="46.0771400" lon="10.4940540">
	<ele>2020.80</ele>
	<time>2023-08-06T11:36:26.000Z</time>
</trkpt>
<trkpt lat="46.0771450" lon="10.4940480">
	<ele>2020.80</ele>
	<time>2023-08-06T11:36:27.000Z</time>
</trkpt>
<trkpt lat="46.0771500" lon="10.4940410">
	<ele>2020.80</ele>
	<time>2023-08-06T11:36:28.000Z</time>
</trkpt>
<trkpt lat="46.0771520" lon="10.4940350">
	<ele>2020.60</ele>
	<time>2023-08-06T11:36:29.000Z</time>
</trkpt>
<trkpt lat="46.0771590" lon="10.4940330">
	<ele>2020.60</ele>
	<time>2023-08-06T11:36:30.000Z</time>
</trkpt>
<trkpt lat="46.0771620" lon="10.4940310">
	<ele>2020.40</ele>
	<time>2023-08-06T11:36:31.000Z</time>
</trkpt>
<trkpt lat="46.0771640" lon="10.4940290">
	<ele>2020.20</ele>
	<time>2023-08-06T11:36:32.000Z</time>
</trkpt>
<trkpt lat="46.0771650" lon="10.4940260">
	<ele>2020.00</ele>
	<time>2023-08-06T11:36:33.000Z</time>
</trkpt>
<trkpt lat="46.0771680" lon="10.4940230">
	<ele>2019.80</ele>
	<time>2023-08-06T11:36:34.000Z</time>
</trkpt>
<trkpt lat="46.0771720" lon="10.4940200">
	<ele>2019.60</ele>
	<time>2023-08-06T11:36:35.000Z</time>
</trkpt>
<trkpt lat="46.0771770" lon="10.4940190">
	<ele>2019.60</ele>
	<time>2023-08-06T11:36:36.000Z</time>
</trkpt>
<trkpt lat="46.0771790" lon="10.4940200">
	<ele>2019.60</ele>
	<time>2023-08-06T11:36:37.000Z</time>
</trkpt>
<trkpt lat="46.0771810" lon="10.4940220">
	<ele>2019.40</ele>
	<time>2023-08-06T11:36:38.000Z</time>
</trkpt>
<trkpt lat="46.0771810" lon="10.4940210">
	<ele>2019.40</ele>
	<time>2023-08-06T11:36:39.000Z</time>
</trkpt>
<trkpt lat="46.0771830" lon="10.4940190">
	<ele>2019.20</ele>
	<time>2023-08-06T11:36:40.000Z</time>
</trkpt>
<trkpt lat="46.0771870" lon="10.4940180">
	<ele>2019.20</ele>
	<time>2023-08-06T11:36:41.000Z</time>
</trkpt>
<trkpt lat="46.0771880" lon="10.4940180">
	<ele>2019.20</ele>
	<time>2023-08-06T11:36:42.000Z</time>
</trkpt>
<trkpt lat="46.0771870" lon="10.4940190">
	<ele>2019.20</ele>
	<time>2023-08-06T11:36:43.000Z</time>
</trkpt>
<trkpt lat="46.0771890" lon="10.4940210">
	<ele>2019.20</ele>
	<time>2023-08-06T11:36:44.000Z</time>
</trkpt>
<trkpt lat="46.0771920" lon="10.4940220">
	<ele>2019.00</ele>
	<time>2023-08-06T11:36:45.000Z</time>
</trkpt>
<trkpt lat="46.0771910" lon="10.4940210">
	<ele>2019.00</ele>
	<time>2023-08-06T11:36:46.000Z</time>
</trkpt>
<trkpt lat="46.0771940" lon="10.4940200">
	<ele>2019.00</ele>
	<time>2023-08-06T11:36:47.000Z</time>
</trkpt>
<trkpt lat="46.0771970" lon="10.4940210">
	<ele>2019.00</ele>
	<time>2023-08-06T11:36:48.000Z</time>
</trkpt>
<trkpt lat="46.0772010" lon="10.4940210">
	<ele>2019.00</ele>
	<time>2023-08-06T11:36:49.000Z</time>
</trkpt>
<trkpt lat="46.0772050" lon="10.4940200">
	<ele>2019.00</ele>
	<time>2023-08-06T11:36:50.000Z</time>
</trkpt>
<trkpt lat="46.0772080" lon="10.4940200">
	<ele>2019.00</ele>
	<time>2023-08-06T11:36:51.000Z</time>
</trkpt>
<trkpt lat="46.0772080" lon="10.4940180">
	<ele>2019.00</ele>
	<time>2023-08-06T11:36:52.000Z</time>
</trkpt>
<trkpt lat="46.0772080" lon="10.4940160">
	<ele>2018.60</ele>
	<time>2023-08-06T11:36:53.000Z</time>
</trkpt>
<trkpt lat="46.0772110" lon="10.4940160">
	<ele>2018.40</ele>
	<time>2023-08-06T11:36:54.000Z</time>
</trkpt>
<trkpt lat="46.0772110" lon="10.4940160">
	<ele>2018.20</ele>
	<time>2023-08-06T11:36:55.000Z</time>
</trkpt>
<trkpt lat="46.0772100" lon="10.4940160">
	<ele>2017.80</ele>
	<time>2023-08-06T11:36:56.000Z</time>
</trkpt>
<trkpt lat="46.0772100" lon="10.4940160">
	<ele>2017.60</ele>
	<time>2023-08-06T11:36:57.000Z</time>
</trkpt>
<trkpt lat="46.0772100" lon="10.4940190">
	<ele>2017.40</ele>
	<time>2023-08-06T11:36:58.000Z</time>
</trkpt>
<trkpt lat="46.0772100" lon="10.4940200">
	<ele>2017.20</ele>
	<time>2023-08-06T11:36:59.000Z</time>
</trkpt>
<trkpt lat="46.0772080" lon="10.4940220">
	<ele>2017.20</ele>
	<time>2023-08-06T11:37:00.000Z</time>
</trkpt>
<trkpt lat="46.0772040" lon="10.4940230">
	<ele>2017.00</ele>
	<time>2023-08-06T11:37:01.000Z</time>
</trkpt>
<trkpt lat="46.0772040" lon="10.4940230">
	<ele>2017.00</ele>
	<time>2023-08-06T11:37:02.000Z</time>
</trkpt>
<trkpt lat="46.0772050" lon="10.4940230">
	<ele>2017.00</ele>
	<time>2023-08-06T11:37:03.000Z</time>
</trkpt>
<trkpt lat="46.0772050" lon="10.4940230">
	<ele>2016.80</ele>
	<time>2023-08-06T11:37:04.000Z</time>
</trkpt>
<trkpt lat="46.0772050" lon="10.4940230">
	<ele>2016.60</ele>
	<time>2023-08-06T11:37:05.000Z</time>
</trkpt>
<trkpt lat="46.0772050" lon="10.4940230">
	<ele>2016.60</ele>
	<time>2023-08-06T11:37:06.000Z</time>
</trkpt>
<trkpt lat="46.0772070" lon="10.4940240">
	<ele>2016.40</ele>
	<time>2023-08-06T11:37:07.000Z</time>
</trkpt>
<trkpt lat="46.0772110" lon="10.4940270">
	<ele>2016.00</ele>
	<time>2023-08-06T11:37:08.000Z</time>
</trkpt>
<trkpt lat="46.0772150" lon="10.4940290">
	<ele>2015.60</ele>
	<time>2023-08-06T11:37:09.000Z</time>
</trkpt>
<trkpt lat="46.0772190" lon="10.4940310">
	<ele>2015.40</ele>
	<time>2023-08-06T11:37:10.000Z</time>
</trkpt>
<trkpt lat="46.0772220" lon="10.4940330">
	<ele>2015.20</ele>
	<time>2023-08-06T11:37:11.000Z</time>
</trkpt>
<trkpt lat="46.0772190" lon="10.4940300">
	<ele>2015.20</ele>
	<time>2023-08-06T11:37:12.000Z</time>
</trkpt>
<trkpt lat="46.0772200" lon="10.4940250">
	<ele>2015.20</ele>
	<time>2023-08-06T11:37:13.000Z</time>
</trkpt>
<trkpt lat="46.0772250" lon="10.4940260">
	<ele>2015.20</ele>
	<time>2023-08-06T11:37:14.000Z</time>
</trkpt>
<trkpt lat="46.0772270" lon="10.4940270">
	<ele>2015.00</ele>
	<time>2023-08-06T11:37:15.000Z</time>
</trkpt>
<trkpt lat="46.0772310" lon="10.4940270">
	<ele>2014.80</ele>
	<time>2023-08-06T11:37:16.000Z</time>
</trkpt>
<trkpt lat="46.0772320" lon="10.4940260">
	<ele>2014.80</ele>
	<time>2023-08-06T11:37:17.000Z</time>
</trkpt>
<trkpt lat="46.0772320" lon="10.4940260">
	<ele>2014.80</ele>
	<time>2023-08-06T11:37:18.000Z</time>
</trkpt>
<trkpt lat="46.0772320" lon="10.4940260">
	<ele>2014.80</ele>
	<time>2023-08-06T11:37:19.000Z</time>
</trkpt>
<trkpt lat="46.0772320" lon="10.4940260">
	<ele>2014.80</ele>
	<time>2023-08-06T11:37:20.000Z</time>
</trkpt>
<trkpt lat="46.0772320" lon="10.4940260">
	<ele>2014.80</ele>
	<time>2023-08-06T11:37:21.000Z</time>
</trkpt>
<trkpt lat="46.0772320" lon="10.4940260">
	<ele>2014.80</ele>
	<time>2023-08-06T11:37:22.000Z</time>
</trkpt>
<trkpt lat="46.0772320" lon="10.4940260">
	<ele>2014.80</ele>
	<time>2023-08-06T11:37:23.000Z</time>
</trkpt>
<trkpt lat="46.0772320" lon="10.4940260">
	<ele>2014.80</ele>
	<time>2023-08-06T11:37:24.000Z</time>
</trkpt>
<trkpt lat="46.0772320" lon="10.4940260">
	<ele>2014.80</ele>
	<time>2023-08-06T11:37:25.000Z</time>
</trkpt>
<trkpt lat="46.0772320" lon="10.4940260">
	<ele>2014.80</ele>
	<time>2023-08-06T11:37:26.000Z</time>
</trkpt>
<trkpt lat="46.0772320" lon="10.4940260">
	<ele>2014.60</ele>
	<time>2023-08-06T11:37:27.000Z</time>
</trkpt>
<trkpt lat="46.0772320" lon="10.4940260">
	<ele>2014.40</ele>
	<time>2023-08-06T11:37:28.000Z</time>
</trkpt>
<trkpt lat="46.0772320" lon="10.4940260">
	<ele>2014.20</ele>
	<time>2023-08-06T11:37:29.000Z</time>
</trkpt>
<trkpt lat="46.0772320" lon="10.4940260">
	<ele>2014.00</ele>
	<time>2023-08-06T11:37:30.000Z</time>
</trkpt>
<trkpt lat="46.0772330" lon="10.4940260">
	<ele>2014.00</ele>
	<time>2023-08-06T11:37:31.000Z</time>
</trkpt>
<trkpt lat="46.0772340" lon="10.4940260">
	<ele>2013.80</ele>
	<time>2023-08-06T11:37:32.000Z</time>
</trkpt>
<trkpt lat="46.0772340" lon="10.4940260">
	<ele>2013.80</ele>
	<time>2023-08-06T11:37:33.000Z</time>
</trkpt>
<trkpt lat="46.0772350" lon="10.4940260">
	<ele>2013.60</ele>
	<time>2023-08-06T11:37:34.000Z</time>
</trkpt>
<trkpt lat="46.0772380" lon="10.4940250">
	<ele>2013.60</ele>
	<time>2023-08-06T11:37:35.000Z</time>
</trkpt>
<trkpt lat="46.0772400" lon="10.4940240">
	<ele>2013.20</ele>
	<time>2023-08-06T11:37:36.000Z</time>
</trkpt>
<trkpt lat="46.0772410" lon="10.4940240">
	<ele>2013.00</ele>
	<time>2023-08-06T11:37:37.000Z</time>
</trkpt>
<trkpt lat="46.0772440" lon="10.4940230">
	<ele>2012.80</ele>
	<time>2023-08-06T11:37:38.000Z</time>
</trkpt>
<trkpt lat="46.0772460" lon="10.4940230">
	<ele>2012.60</ele>
	<time>2023-08-06T11:37:39.000Z</time>
</trkpt>
<trkpt lat="46.0772480" lon="10.4940220">
	<ele>2012.60</ele>
	<time>2023-08-06T11:37:40.000Z</time>
</trkpt>
<trkpt lat="46.0772510" lon="10.4940210">
	<ele>2012.40</ele>
	<time>2023-08-06T11:37:41.000Z</time>
</trkpt>
<trkpt lat="46.0772520" lon="10.4940180">
	<ele>2012.40</ele>
	<time>2023-08-06T11:37:42.000Z</time>
</trkpt>
<trkpt lat="46.0772550" lon="10.4940160">
	<ele>2012.40</ele>
	<time>2023-08-06T11:37:43.000Z</time>
</trkpt>
<trkpt lat="46.0772590" lon="10.4940140">
	<ele>2012.20</ele>
	<time>2023-08-06T11:37:44.000Z</time>
</trkpt>
<trkpt lat="46.0772600" lon="10.4940130">
	<ele>2012.20</ele>
	<time>2023-08-06T11:37:45.000Z</time>
</trkpt>
<trkpt lat="46.0772620" lon="10.4940120">
	<ele>2012.00</ele>
	<time>2023-08-06T11:37:46.000Z</time>
</trkpt>
<trkpt lat="46.0772620" lon="10.4940120">
	<ele>2012.00</ele>
	<time>2023-08-06T11:37:47.000Z</time>
</trkpt>
<trkpt lat="46.0772630" lon="10.4940110">
	<ele>2011.80</ele>
	<time>2023-08-06T11:37:48.000Z</time>
</trkpt>
<trkpt lat="46.0772630" lon="10.4940100">
	<ele>2011.80</ele>
	<time>2023-08-06T11:37:49.000Z</time>
</trkpt>
<trkpt lat="46.0772630" lon="10.4940090">
	<ele>2011.60</ele>
	<time>2023-08-06T11:37:50.000Z</time>
</trkpt>
<trkpt lat="46.0772640" lon="10.4940080">
	<ele>2011.60</ele>
	<time>2023-08-06T11:37:51.000Z</time>
</trkpt>
<trkpt lat="46.0772640" lon="10.4940060">
	<ele>2011.20</ele>
	<time>2023-08-06T11:37:52.000Z</time>
</trkpt>
<trkpt lat="46.0772640" lon="10.4940030">
	<ele>2011.20</ele>
	<time>2023-08-06T11:37:53.000Z</time>
</trkpt>
<trkpt lat="46.0772650" lon="10.4940020">
	<ele>2011.00</ele>
	<time>2023-08-06T11:37:54.000Z</time>
</trkpt>
<trkpt lat="46.0772660" lon="10.4940010">
	<ele>2011.00</ele>
	<time>2023-08-06T11:37:55.000Z</time>
</trkpt>
<trkpt lat="46.0772660" lon="10.4940010">
	<ele>2010.60</ele>
	<time>2023-08-06T11:37:56.000Z</time>
</trkpt>
<trkpt lat="46.0772660" lon="10.4940000">
	<ele>2010.40</ele>
	<time>2023-08-06T11:37:57.000Z</time>
</trkpt>
<trkpt lat="46.0772680" lon="10.4939990">
	<ele>2010.20</ele>
	<time>2023-08-06T11:37:58.000Z</time>
</trkpt>
<trkpt lat="46.0772690" lon="10.4939990">
	<ele>2010.00</ele>
	<time>2023-08-06T11:37:59.000Z</time>
</trkpt>
<trkpt lat="46.0772720" lon="10.4939980">
	<ele>2009.80</ele>
	<time>2023-08-06T11:38:00.000Z</time>
</trkpt>
<trkpt lat="46.0772740" lon="10.4939960">
	<ele>2009.80</ele>
	<time>2023-08-06T11:38:01.000Z</time>
</trkpt>
<trkpt lat="46.0772770" lon="10.4939930">
	<ele>2009.80</ele>
	<time>2023-08-06T11:38:02.000Z</time>
</trkpt>
<trkpt lat="46.0772820" lon="10.4939900">
	<ele>2009.60</ele>
	<time>2023-08-06T11:38:03.000Z</time>
</trkpt>
<trkpt lat="46.0772830" lon="10.4939890">
	<ele>2009.40</ele>
	<time>2023-08-06T11:38:04.000Z</time>
</trkpt>
<trkpt lat="46.0772840" lon="10.4939890">
	<ele>2009.00</ele>
	<time>2023-08-06T11:38:05.000Z</time>
</trkpt>
<trkpt lat="46.0772850" lon="10.4939880">
	<ele>2008.80</ele>
	<time>2023-08-06T11:38:06.000Z</time>
</trkpt>
<trkpt lat="46.0772860" lon="10.4939880">
	<ele>2008.60</ele>
	<time>2023-08-06T11:38:07.000Z</time>
</trkpt>
<trkpt lat="46.0772860" lon="10.4939870">
	<ele>2008.40</ele>
	<time>2023-08-06T11:38:08.000Z</time>
</trkpt>
<trkpt lat="46.0772870" lon="10.4939870">
	<ele>2008.00</ele>
	<time>2023-08-06T11:38:09.000Z</time>
</trkpt>
<trkpt lat="46.0772870" lon="10.4939870">
	<ele>2007.80</ele>
	<time>2023-08-06T11:38:10.000Z</time>
</trkpt>
<trkpt lat="46.0772910" lon="10.4939870">
	<ele>2007.80</ele>
	<time>2023-08-06T11:38:11.000Z</time>
</trkpt>
<trkpt lat="46.0772950" lon="10.4939870">
	<ele>2007.60</ele>
	<time>2023-08-06T11:38:12.000Z</time>
</trkpt>
<trkpt lat="46.0772970" lon="10.4939870">
	<ele>2007.60</ele>
	<time>2023-08-06T11:38:13.000Z</time>
</trkpt>
<trkpt lat="46.0773010" lon="10.4939870">
	<ele>2007.40</ele>
	<time>2023-08-06T11:38:14.000Z</time>
</trkpt>
<trkpt lat="46.0773040" lon="10.4939870">
	<ele>2007.20</ele>
	<time>2023-08-06T11:38:15.000Z</time>
</trkpt>
<trkpt lat="46.0773070" lon="10.4939870">
	<ele>2006.80</ele>
	<time>2023-08-06T11:38:16.000Z</time>
</trkpt>
<trkpt lat="46.0773130" lon="10.4939870">
	<ele>2006.60</ele>
	<time>2023-08-06T11:38:17.000Z</time>
</trkpt>
<trkpt lat="46.0773190" lon="10.4939880">
	<ele>2006.40</ele>
	<time>2023-08-06T11:38:18.000Z</time>
</trkpt>
<trkpt lat="46.0773250" lon="10.4939890">
	<ele>2006.20</ele>
	<time>2023-08-06T11:38:19.000Z</time>
</trkpt>
<trkpt lat="46.0773280" lon="10.4939890">
	<ele>2006.20</ele>
	<time>2023-08-06T11:38:20.000Z</time>
</trkpt>
<trkpt lat="46.0773300" lon="10.4939890">
	<ele>2006.00</ele>
	<time>2023-08-06T11:38:21.000Z</time>
</trkpt>
<trkpt lat="46.0773310" lon="10.4939930">
	<ele>2005.80</ele>
	<time>2023-08-06T11:38:22.000Z</time>
</trkpt>
<trkpt lat="46.0773310" lon="10.4939980">
	<ele>2005.60</ele>
	<time>2023-08-06T11:38:23.000Z</time>
</trkpt>
<trkpt lat="46.0773320" lon="10.4940050">
	<ele>2005.60</ele>
	<time>2023-08-06T11:38:24.000Z</time>
</trkpt>
<trkpt lat="46.0773320" lon="10.4940120">
	<ele>2005.40</ele>
	<time>2023-08-06T11:38:25.000Z</time>
</trkpt>
<trkpt lat="46.0773320" lon="10.4940150">
	<ele>2005.20</ele>
	<time>2023-08-06T11:38:26.000Z</time>
</trkpt>
<trkpt lat="46.0773320" lon="10.4940180">
	<ele>2004.80</ele>
	<time>2023-08-06T11:38:27.000Z</time>
</trkpt>
<trkpt lat="46.0773330" lon="10.4940210">
	<ele>2004.60</ele>
	<time>2023-08-06T11:38:28.000Z</time>
</trkpt>
<trkpt lat="46.0773350" lon="10.4940310">
	<ele>2004.60</ele>
	<time>2023-08-06T11:38:29.000Z</time>
</trkpt>
<trkpt lat="46.0773340" lon="10.4940490">
	<ele>2004.40</ele>
	<time>2023-08-06T11:38:30.000Z</time>
</trkpt>
<trkpt lat="46.0773330" lon="10.4940660">
	<ele>2004.40</ele>
	<time>2023-08-06T11:38:31.000Z</time>
</trkpt>
<trkpt lat="46.0773350" lon="10.4940830">
	<ele>2004.20</ele>
	<time>2023-08-06T11:38:32.000Z</time>
</trkpt>
<trkpt lat="46.0773340" lon="10.4940970">
	<ele>2004.20</ele>
	<time>2023-08-06T11:38:33.000Z</time>
</trkpt>
<trkpt lat="46.0773380" lon="10.4941120">
	<ele>2004.00</ele>
	<time>2023-08-06T11:38:34.000Z</time>
</trkpt>
<trkpt lat="46.0773430" lon="10.4941300">
	<ele>2003.80</ele>
	<time>2023-08-06T11:38:35.000Z</time>
</trkpt>
<trkpt lat="46.0773440" lon="10.4941500">
	<ele>2003.80</ele>
	<time>2023-08-06T11:38:36.000Z</time>
</trkpt>
<trkpt lat="46.0773430" lon="10.4941680">
	<ele>2003.60</ele>
	<time>2023-08-06T11:38:37.000Z</time>
</trkpt>
<trkpt lat="46.0773470" lon="10.4941850">
	<ele>2003.40</ele>
	<time>2023-08-06T11:38:38.000Z</time>
</trkpt>
<trkpt lat="46.0773480" lon="10.4941920">
	<ele>2003.40</ele>
	<time>2023-08-06T11:38:39.000Z</time>
</trkpt>
<trkpt lat="46.0773490" lon="10.4941960">
	<ele>2003.00</ele>
	<time>2023-08-06T11:38:40.000Z</time>
</trkpt>
<trkpt lat="46.0773490" lon="10.4942020">
	<ele>2002.80</ele>
	<time>2023-08-06T11:38:41.000Z</time>
</trkpt>
<trkpt lat="46.0773480" lon="10.4942060">
	<ele>2002.80</ele>
	<time>2023-08-06T11:38:42.000Z</time>
</trkpt>
<trkpt lat="46.0773490" lon="10.4942110">
	<ele>2002.60</ele>
	<time>2023-08-06T11:38:43.000Z</time>
</trkpt>
<trkpt lat="46.0773470" lon="10.4942130">
	<ele>2002.40</ele>
	<time>2023-08-06T11:38:44.000Z</time>
</trkpt>
<trkpt lat="46.0773440" lon="10.4942150">
	<ele>2002.40</ele>
	<time>2023-08-06T11:38:45.000Z</time>
</trkpt>
<trkpt lat="46.0773370" lon="10.4942180">
	<ele>2002.40</ele>
	<time>2023-08-06T11:38:46.000Z</time>
</trkpt>
<trkpt lat="46.0773330" lon="10.4942220">
	<ele>2002.40</ele>
	<time>2023-08-06T11:38:47.000Z</time>
</trkpt>
<trkpt lat="46.0773240" lon="10.4942280">
	<ele>2002.20</ele>
	<time>2023-08-06T11:38:48.000Z</time>
</trkpt>
<trkpt lat="46.0773210" lon="10.4942330">
	<ele>2002.20</ele>
	<time>2023-08-06T11:38:49.000Z</time>
</trkpt>
<trkpt lat="46.0773190" lon="10.4942360">
	<ele>2002.20</ele>
	<time>2023-08-06T11:38:50.000Z</time>
</trkpt>
<trkpt lat="46.0773180" lon="10.4942420">
	<ele>2002.00</ele>
	<time>2023-08-06T11:38:51.000Z</time>
</trkpt>
<trkpt lat="46.0773140" lon="10.4942500">
	<ele>2002.00</ele>
	<time>2023-08-06T11:38:52.000Z</time>
</trkpt>
<trkpt lat="46.0773110" lon="10.4942590">
	<ele>2002.20</ele>
	<time>2023-08-06T11:38:53.000Z</time>
</trkpt>
<trkpt lat="46.0773090" lon="10.4942700">
	<ele>2002.20</ele>
	<time>2023-08-06T11:38:54.000Z</time>
</trkpt>
<trkpt lat="46.0773070" lon="10.4942830">
	<ele>2002.20</ele>
	<time>2023-08-06T11:38:55.000Z</time>
</trkpt>
<trkpt lat="46.0773050" lon="10.4942920">
	<ele>2002.20</ele>
	<time>2023-08-06T11:38:56.000Z</time>
</trkpt>
<trkpt lat="46.0773010" lon="10.4943000">
	<ele>2002.40</ele>
	<time>2023-08-06T11:38:57.000Z</time>
</trkpt>
<trkpt lat="46.0773000" lon="10.4943080">
	<ele>2002.60</ele>
	<time>2023-08-06T11:38:58.000Z</time>
</trkpt>
<trkpt lat="46.0772970" lon="10.4943150">
	<ele>2002.60</ele>
	<time>2023-08-06T11:38:59.000Z</time>
</trkpt>
<trkpt lat="46.0772950" lon="10.4943250">
	<ele>2002.80</ele>
	<time>2023-08-06T11:39:00.000Z</time>
</trkpt>
<trkpt lat="46.0772950" lon="10.4943330">
	<ele>2002.80</ele>
	<time>2023-08-06T11:39:01.000Z</time>
</trkpt>
<trkpt lat="46.0772950" lon="10.4943410">
	<ele>2003.00</ele>
	<time>2023-08-06T11:39:02.000Z</time>
</trkpt>
<trkpt lat="46.0772940" lon="10.4943460">
	<ele>2003.00</ele>
	<time>2023-08-06T11:39:03.000Z</time>
</trkpt>
<trkpt lat="46.0772940" lon="10.4943490">
	<ele>2003.00</ele>
	<time>2023-08-06T11:39:04.000Z</time>
</trkpt>
<trkpt lat="46.0772930" lon="10.4943520">
	<ele>2003.00</ele>
	<time>2023-08-06T11:39:05.000Z</time>
</trkpt>
<trkpt lat="46.0772870" lon="10.4943540">
	<ele>2003.00</ele>
	<time>2023-08-06T11:39:06.000Z</time>
</trkpt>
<trkpt lat="46.0772830" lon="10.4943560">
	<ele>2003.00</ele>
	<time>2023-08-06T11:39:07.000Z</time>
</trkpt>
<trkpt lat="46.0772770" lon="10.4943570">
	<ele>2003.00</ele>
	<time>2023-08-06T11:39:08.000Z</time>
</trkpt>
<trkpt lat="46.0772760" lon="10.4943580">
	<ele>2002.80</ele>
	<time>2023-08-06T11:39:09.000Z</time>
</trkpt>
<trkpt lat="46.0772750" lon="10.4943590">
	<ele>2002.80</ele>
	<time>2023-08-06T11:39:10.000Z</time>
</trkpt>
<trkpt lat="46.0772750" lon="10.4943610">
	<ele>2002.60</ele>
	<time>2023-08-06T11:39:11.000Z</time>
</trkpt>
<trkpt lat="46.0772650" lon="10.4943610">
	<ele>2002.40</ele>
	<time>2023-08-06T11:39:12.000Z</time>
</trkpt>
<trkpt lat="46.0772600" lon="10.4943600">
	<ele>2002.20</ele>
	<time>2023-08-06T11:39:13.000Z</time>
</trkpt>
<trkpt lat="46.0772600" lon="10.4943600">
	<ele>2002.20</ele>
	<time>2023-08-06T11:39:14.000Z</time>
</trkpt>
<trkpt lat="46.0772600" lon="10.4943580">
	<ele>2002.20</ele>
	<time>2023-08-06T11:39:15.000Z</time>
</trkpt>
<trkpt lat="46.0772570" lon="10.4943570">
	<ele>2002.20</ele>
	<time>2023-08-06T11:39:16.000Z</time>
</trkpt>
<trkpt lat="46.0772560" lon="10.4943560">
	<ele>2002.20</ele>
	<time>2023-08-06T11:39:17.000Z</time>
</trkpt>
<trkpt lat="46.0772560" lon="10.4943560">
	<ele>2002.20</ele>
	<time>2023-08-06T11:39:18.000Z</time>
</trkpt>
<trkpt lat="46.0772560" lon="10.4943560">
	<ele>2002.20</ele>
	<time>2023-08-06T11:39:19.000Z</time>
</trkpt>
<trkpt lat="46.0772560" lon="10.4943560">
	<ele>2002.20</ele>
	<time>2023-08-06T11:39:20.000Z</time>
</trkpt>
<trkpt lat="46.0772560" lon="10.4943560">
	<ele>2002.20</ele>
	<time>2023-08-06T11:39:21.000Z</time>
</trkpt>
<trkpt lat="46.0772560" lon="10.4943560">
	<ele>2002.40</ele>
	<time>2023-08-06T11:39:22.000Z</time>
</trkpt>
<trkpt lat="46.0772560" lon="10.4943560">
	<ele>2002.40</ele>
	<time>2023-08-06T11:39:23.000Z</time>
</trkpt>
<trkpt lat="46.0772560" lon="10.4943560">
	<ele>2002.40</ele>
	<time>2023-08-06T11:39:24.000Z</time>
</trkpt>
<trkpt lat="46.0772560" lon="10.4943560">
	<ele>2002.40</ele>
	<time>2023-08-06T11:39:25.000Z</time>
</trkpt>
<trkpt lat="46.0772560" lon="10.4943560">
	<ele>2002.40</ele>
	<time>2023-08-06T11:39:26.000Z</time>
</trkpt>
<trkpt lat="46.0772560" lon="10.4943560">
	<ele>2002.40</ele>
	<time>2023-08-06T11:39:27.000Z</time>
</trkpt>
<trkpt lat="46.0772560" lon="10.4943570">
	<ele>2002.60</ele>
	<time>2023-08-06T11:39:28.000Z</time>
</trkpt>
<trkpt lat="46.0772560" lon="10.4943580">
	<ele>2002.80</ele>
	<time>2023-08-06T11:39:29.000Z</time>
</trkpt>
<trkpt lat="46.0772560" lon="10.4943590">
	<ele>2002.80</ele>
	<time>2023-08-06T11:39:30.000Z</time>
</trkpt>
<trkpt lat="46.0772560" lon="10.4943590">
	<ele>2002.80</ele>
	<time>2023-08-06T11:39:31.000Z</time>
</trkpt>
<trkpt lat="46.0772560" lon="10.4943590">
	<ele>2002.80</ele>
	<time>2023-08-06T11:39:32.000Z</time>
</trkpt>
<trkpt lat="46.0772560" lon="10.4943600">
	<ele>2002.80</ele>
	<time>2023-08-06T11:39:33.000Z</time>
</trkpt>
<trkpt lat="46.0772560" lon="10.4943610">
	<ele>2002.80</ele>
	<time>2023-08-06T11:39:34.000Z</time>
</trkpt>
<trkpt lat="46.0772540" lon="10.4943610">
	<ele>2002.80</ele>
	<time>2023-08-06T11:39:35.000Z</time>
</trkpt>
<trkpt lat="46.0772500" lon="10.4943630">
	<ele>2002.80</ele>
	<time>2023-08-06T11:39:36.000Z</time>
</trkpt>
<trkpt lat="46.0772460" lon="10.4943630">
	<ele>2002.80</ele>
	<time>2023-08-06T11:39:37.000Z</time>
</trkpt>
<trkpt lat="46.0772430" lon="10.4943640">
	<ele>2002.60</ele>
	<time>2023-08-06T11:39:38.000Z</time>
</trkpt>
<trkpt lat="46.0772350" lon="10.4943640">
	<ele>2002.60</ele>
	<time>2023-08-06T11:39:39.000Z</time>
</trkpt>
<trkpt lat="46.0772290" lon="10.4943650">
	<ele>2002.20</ele>
	<time>2023-08-06T11:39:40.000Z</time>
</trkpt>
<trkpt lat="46.0772220" lon="10.4943660">
	<ele>2002.00</ele>
	<time>2023-08-06T11:39:41.000Z</time>
</trkpt>
<trkpt lat="46.0772200" lon="10.4943660">
	<ele>2001.80</ele>
	<time>2023-08-06T11:39:42.000Z</time>
</trkpt>
<trkpt lat="46.0772190" lon="10.4943660">
	<ele>2001.60</ele>
	<time>2023-08-06T11:39:43.000Z</time>
</trkpt>
<trkpt lat="46.0772180" lon="10.4943660">
	<ele>2001.60</ele>
	<time>2023-08-06T11:39:44.000Z</time>
</trkpt>
<trkpt lat="46.0772180" lon="10.4943670">
	<ele>2001.40</ele>
	<time>2023-08-06T11:39:45.000Z</time>
</trkpt>
<trkpt lat="46.0772170" lon="10.4943670">
	<ele>2001.40</ele>
	<time>2023-08-06T11:39:46.000Z</time>
</trkpt>
<trkpt lat="46.0772160" lon="10.4943670">
	<ele>2001.40</ele>
	<time>2023-08-06T11:39:47.000Z</time>
</trkpt>
<trkpt lat="46.0772150" lon="10.4943680">
	<ele>2001.40</ele>
	<time>2023-08-06T11:39:48.000Z</time>
</trkpt>
<trkpt lat="46.0772150" lon="10.4943680">
	<ele>2001.40</ele>
	<time>2023-08-06T11:39:49.000Z</time>
</trkpt>
<trkpt lat="46.0772150" lon="10.4943690">
	<ele>2001.40</ele>
	<time>2023-08-06T11:39:50.000Z</time>
</trkpt>
<trkpt lat="46.0772150" lon="10.4943690">
	<ele>2001.40</ele>
	<time>2023-08-06T11:39:51.000Z</time>
</trkpt>
<trkpt lat="46.0772150" lon="10.4943690">
	<ele>2001.40</ele>
	<time>2023-08-06T11:39:52.000Z</time>
</trkpt>
<trkpt lat="46.0772140" lon="10.4943690">
	<ele>2001.20</ele>
	<time>2023-08-06T11:39:53.000Z</time>
</trkpt>
<trkpt lat="46.0772130" lon="10.4943690">
	<ele>2001.20</ele>
	<time>2023-08-06T11:39:54.000Z</time>
</trkpt>
<trkpt lat="46.0772130" lon="10.4943690">
	<ele>2001.20</ele>
	<time>2023-08-06T11:39:55.000Z</time>
</trkpt>
<trkpt lat="46.0772130" lon="10.4943690">
	<ele>2001.00</ele>
	<time>2023-08-06T11:39:56.000Z</time>
</trkpt>
<trkpt lat="46.0772130" lon="10.4943710">
	<ele>2001.00</ele>
	<time>2023-08-06T11:39:57.000Z</time>
</trkpt>
<trkpt lat="46.0772130" lon="10.4943710">
	<ele>2000.40</ele>
	<time>2023-08-06T11:39:58.000Z</time>
</trkpt>
<trkpt lat="46.0772130" lon="10.4943720">
	<ele>2000.20</ele>
	<time>2023-08-06T11:39:59.000Z</time>
</trkpt>
<trkpt lat="46.0772130" lon="10.4943740">
	<ele>2000.00</ele>
	<time>2023-08-06T11:40:00.000Z</time>
</trkpt>
<trkpt lat="46.0772120" lon="10.4943760">
	<ele>2000.00</ele>
	<time>2023-08-06T11:40:01.000Z</time>
</trkpt>
<trkpt lat="46.0772120" lon="10.4943790">
	<ele>1999.80</ele>
	<time>2023-08-06T11:40:02.000Z</time>
</trkpt>
<trkpt lat="46.0772110" lon="10.4943810">
	<ele>1999.80</ele>
	<time>2023-08-06T11:40:03.000Z</time>
</trkpt>
<trkpt lat="46.0772110" lon="10.4943810">
	<ele>1999.80</ele>
	<time>2023-08-06T11:40:04.000Z</time>
</trkpt>
<trkpt lat="46.0772110" lon="10.4943810">
	<ele>1999.80</ele>
	<time>2023-08-06T11:40:05.000Z</time>
</trkpt>
<trkpt lat="46.0772100" lon="10.4943820">
	<ele>1999.80</ele>
	<time>2023-08-06T11:40:06.000Z</time>
</trkpt>
<trkpt lat="46.0772090" lon="10.4943820">
	<ele>1999.80</ele>
	<time>2023-08-06T11:40:07.000Z</time>
</trkpt>
<trkpt lat="46.0772080" lon="10.4943830">
	<ele>1999.80</ele>
	<time>2023-08-06T11:40:08.000Z</time>
</trkpt>
<trkpt lat="46.0772080" lon="10.4943830">
	<ele>1999.80</ele>
	<time>2023-08-06T11:40:09.000Z</time>
</trkpt>
<trkpt lat="46.0772080" lon="10.4943830">
	<ele>1999.80</ele>
	<time>2023-08-06T11:40:10.000Z</time>
</trkpt>
<trkpt lat="46.0772070" lon="10.4943850">
	<ele>1999.80</ele>
	<time>2023-08-06T11:40:11.000Z</time>
</trkpt>
<trkpt lat="46.0772070" lon="10.4943850">
	<ele>1999.80</ele>
	<time>2023-08-06T11:40:12.000Z</time>
</trkpt>
<trkpt lat="46.0772070" lon="10.4943860">
	<ele>1999.80</ele>
	<time>2023-08-06T11:40:13.000Z</time>
</trkpt>
<trkpt lat="46.0772070" lon="10.4943860">
	<ele>1999.60</ele>
	<time>2023-08-06T11:40:14.000Z</time>
</trkpt>
<trkpt lat="46.0772070" lon="10.4943870">
	<ele>1999.60</ele>
	<time>2023-08-06T11:40:15.000Z</time>
</trkpt>
<trkpt lat="46.0772070" lon="10.4943870">
	<ele>1999.60</ele>
	<time>2023-08-06T11:40:16.000Z</time>
</trkpt>
<trkpt lat="46.0772070" lon="10.4943870">
	<ele>1999.60</ele>
	<time>2023-08-06T11:40:17.000Z</time>
</trkpt>
<trkpt lat="46.0772070" lon="10.4943870">
	<ele>1999.60</ele>
	<time>2023-08-06T11:40:18.000Z</time>
</trkpt>
<trkpt lat="46.0772080" lon="10.4943870">
	<ele>1999.40</ele>
	<time>2023-08-06T11:40:19.000Z</time>
</trkpt>
<trkpt lat="46.0772080" lon="10.4943870">
	<ele>1999.40</ele>
	<time>2023-08-06T11:40:20.000Z</time>
</trkpt>
<trkpt lat="46.0772080" lon="10.4943870">
	<ele>1999.20</ele>
	<time>2023-08-06T11:40:21.000Z</time>
</trkpt>
<trkpt lat="46.0772110" lon="10.4943870">
	<ele>1999.20</ele>
	<time>2023-08-06T11:40:22.000Z</time>
</trkpt>
<trkpt lat="46.0772120" lon="10.4943870">
	<ele>1999.20</ele>
	<time>2023-08-06T11:40:23.000Z</time>
</trkpt>
<trkpt lat="46.0772140" lon="10.4943870">
	<ele>1999.20</ele>
	<time>2023-08-06T11:40:24.000Z</time>
</trkpt>
<trkpt lat="46.0772160" lon="10.4943870">
	<ele>1999.40</ele>
	<time>2023-08-06T11:40:25.000Z</time>
</trkpt>
<trkpt lat="46.0772170" lon="10.4943870">
	<ele>1999.80</ele>
	<time>2023-08-06T11:40:26.000Z</time>
</trkpt>
<trkpt lat="46.0772170" lon="10.4943870">
	<ele>2000.00</ele>
	<time>2023-08-06T11:40:27.000Z</time>
</trkpt>
<trkpt lat="46.0772180" lon="10.4943870">
	<ele>2000.00</ele>
	<time>2023-08-06T11:40:28.000Z</time>
</trkpt>
<trkpt lat="46.0772180" lon="10.4943870">
	<ele>2000.20</ele>
	<time>2023-08-06T11:40:29.000Z</time>
</trkpt>
<trkpt lat="46.0772180" lon="10.4943860">
	<ele>2000.20</ele>
	<time>2023-08-06T11:40:30.000Z</time>
</trkpt>
<trkpt lat="46.0772180" lon="10.4943860">
	<ele>2000.20</ele>
	<time>2023-08-06T11:40:31.000Z</time>
</trkpt>
<trkpt lat="46.0772180" lon="10.4943850">
	<ele>2000.20</ele>
	<time>2023-08-06T11:40:32.000Z</time>
</trkpt>
<trkpt lat="46.0772180" lon="10.4943850">
	<ele>2000.20</ele>
	<time>2023-08-06T11:40:33.000Z</time>
</trkpt>
<trkpt lat="46.0772190" lon="10.4943850">
	<ele>2000.00</ele>
	<time>2023-08-06T11:40:34.000Z</time>
</trkpt>
<trkpt lat="46.0772200" lon="10.4943830">
	<ele>2000.00</ele>
	<time>2023-08-06T11:40:35.000Z</time>
</trkpt>
<trkpt lat="46.0772210" lon="10.4943830">
	<ele>2000.00</ele>
	<time>2023-08-06T11:40:36.000Z</time>
</trkpt>
<trkpt lat="46.0772210" lon="10.4943820">
	<ele>2000.00</ele>
	<time>2023-08-06T11:40:37.000Z</time>
</trkpt>
<trkpt lat="46.0772210" lon="10.4943820">
	<ele>2000.00</ele>
	<time>2023-08-06T11:40:38.000Z</time>
</trkpt>
<trkpt lat="46.0772210" lon="10.4943820">
	<ele>2000.00</ele>
	<time>2023-08-06T11:40:39.000Z</time>
</trkpt>
<trkpt lat="46.0772210" lon="10.4943820">
	<ele>1999.80</ele>
	<time>2023-08-06T11:40:40.000Z</time>
</trkpt>
<trkpt lat="46.0772210" lon="10.4943820">
	<ele>2000.00</ele>
	<time>2023-08-06T11:40:41.000Z</time>
</trkpt>
<trkpt lat="46.0772210" lon="10.4943820">
	<ele>2000.00</ele>
	<time>2023-08-06T11:40:42.000Z</time>
</trkpt>
<trkpt lat="46.0772210" lon="10.4943820">
	<ele>1999.80</ele>
	<time>2023-08-06T11:40:43.000Z</time>
</trkpt>
<trkpt lat="46.0772210" lon="10.4943820">
	<ele>1999.80</ele>
	<time>2023-08-06T11:40:44.000Z</time>
</trkpt>
<trkpt lat="46.0772210" lon="10.4943820">
	<ele>1999.80</ele>
	<time>2023-08-06T11:40:45.000Z</time>
</trkpt>
<trkpt lat="46.0772210" lon="10.4943810">
	<ele>1999.80</ele>
	<time>2023-08-06T11:40:46.000Z</time>
</trkpt>
<trkpt lat="46.0772200" lon="10.4943810">
	<ele>1999.80</ele>
	<time>2023-08-06T11:40:47.000Z</time>
</trkpt>
<trkpt lat="46.0772200" lon="10.4943810">
	<ele>1999.80</ele>
	<time>2023-08-06T11:40:48.000Z</time>
</trkpt>
<trkpt lat="46.0772190" lon="10.4943810">
	<ele>1999.60</ele>
	<time>2023-08-06T11:40:49.000Z</time>
</trkpt>
<trkpt lat="46.0772180" lon="10.4943810">
	<ele>1999.60</ele>
	<time>2023-08-06T11:40:50.000Z</time>
</trkpt>
<trkpt lat="46.0772180" lon="10.4943810">
	<ele>1999.60</ele>
	<time>2023-08-06T11:40:51.000Z</time>
</trkpt>
<trkpt lat="46.0772180" lon="10.4943810">
	<ele>1999.60</ele>
	<time>2023-08-06T11:40:52.000Z</time>
</trkpt>
<trkpt lat="46.0772180" lon="10.4943810">
	<ele>1999.60</ele>
	<time>2023-08-06T11:40:53.000Z</time>
</trkpt>
<trkpt lat="46.0772200" lon="10.4943810">
	<ele>1999.60</ele>
	<time>2023-08-06T11:40:54.000Z</time>
</trkpt>
<trkpt lat="46.0772200" lon="10.4943810">
	<ele>1999.60</ele>
	<time>2023-08-06T11:40:55.000Z</time>
</trkpt>
<trkpt lat="46.0772200" lon="10.4943810">
	<ele>1999.60</ele>
	<time>2023-08-06T11:40:56.000Z</time>
</trkpt>
<trkpt lat="46.0772200" lon="10.4943810">
	<ele>1999.60</ele>
	<time>2023-08-06T11:40:57.000Z</time>
</trkpt>
<trkpt lat="46.0772200" lon="10.4943810">
	<ele>1999.60</ele>
	<time>2023-08-06T11:40:58.000Z</time>
</trkpt>
<trkpt lat="46.0772200" lon="10.4943810">
	<ele>1999.40</ele>
	<time>2023-08-06T11:40:59.000Z</time>
</trkpt>
<trkpt lat="46.0772200" lon="10.4943810">
	<ele>1999.40</ele>
	<time>2023-08-06T11:41:00.000Z</time>
</trkpt>
<trkpt lat="46.0772200" lon="10.4943810">
	<ele>1999.20</ele>
	<time>2023-08-06T11:41:01.000Z</time>
</trkpt>
<trkpt lat="46.0772200" lon="10.4943810">
	<ele>1999.20</ele>
	<time>2023-08-06T11:41:02.000Z</time>
</trkpt>
<trkpt lat="46.0772200" lon="10.4943810">
	<ele>1999.20</ele>
	<time>2023-08-06T11:41:03.000Z</time>
</trkpt>
<trkpt lat="46.0772200" lon="10.4943810">
	<ele>1999.20</ele>
	<time>2023-08-06T11:41:04.000Z</time>
</trkpt>
<trkpt lat="46.0772220" lon="10.4943810">
	<ele>1999.00</ele>
	<time>2023-08-06T11:41:05.000Z</time>
</trkpt>
<trkpt lat="46.0772270" lon="10.4943810">
	<ele>1999.00</ele>
	<time>2023-08-06T11:41:06.000Z</time>
</trkpt>
<trkpt lat="46.0772280" lon="10.4943810">
	<ele>1998.60</ele>
	<time>2023-08-06T11:41:07.000Z</time>
</trkpt>
<trkpt lat="46.0772290" lon="10.4943810">
	<ele>1998.40</ele>
	<time>2023-08-06T11:41:08.000Z</time>
</trkpt>
<trkpt lat="46.0772340" lon="10.4943810">
	<ele>1998.20</ele>
	<time>2023-08-06T11:41:09.000Z</time>
</trkpt>
<trkpt lat="46.0772360" lon="10.4943810">
	<ele>1998.00</ele>
	<time>2023-08-06T11:41:10.000Z</time>
</trkpt>
<trkpt lat="46.0772400" lon="10.4943810">
	<ele>1998.00</ele>
	<time>2023-08-06T11:41:11.000Z</time>
</trkpt>
<trkpt lat="46.0772420" lon="10.4943810">
	<ele>1997.80</ele>
	<time>2023-08-06T11:41:12.000Z</time>
</trkpt>
<trkpt lat="46.0772420" lon="10.4943810">
	<ele>1997.80</ele>
	<time>2023-08-06T11:41:13.000Z</time>
</trkpt>
<trkpt lat="46.0772440" lon="10.4943810">
	<ele>1997.60</ele>
	<time>2023-08-06T11:41:14.000Z</time>
</trkpt>
<trkpt lat="46.0772450" lon="10.4943810">
	<ele>1997.40</ele>
	<time>2023-08-06T11:41:15.000Z</time>
</trkpt>
<trkpt lat="46.0772470" lon="10.4943810">
	<ele>1997.20</ele>
	<time>2023-08-06T11:41:16.000Z</time>
</trkpt>
<trkpt lat="46.0772610" lon="10.4943810">
	<ele>1997.00</ele>
	<time>2023-08-06T11:41:17.000Z</time>
</trkpt>
<trkpt lat="46.0772730" lon="10.4943810">
	<ele>1996.80</ele>
	<time>2023-08-06T11:41:18.000Z</time>
</trkpt>
<trkpt lat="46.0772830" lon="10.4943810">
	<ele>1996.40</ele>
	<time>2023-08-06T11:41:19.000Z</time>
</trkpt>
<trkpt lat="46.0772900" lon="10.4943810">
	<ele>1996.20</ele>
	<time>2023-08-06T11:41:20.000Z</time>
</trkpt>
<trkpt lat="46.0772920" lon="10.4943810">
	<ele>1996.20</ele>
	<time>2023-08-06T11:41:21.000Z</time>
</trkpt>
<trkpt lat="46.0772940" lon="10.4943810">
	<ele>1996.20</ele>
	<time>2023-08-06T11:41:22.000Z</time>
</trkpt>
<trkpt lat="46.0772940" lon="10.4943810">
	<ele>1996.00</ele>
	<time>2023-08-06T11:41:23.000Z</time>
</trkpt>
<trkpt lat="46.0772980" lon="10.4943830">
	<ele>1996.00</ele>
	<time>2023-08-06T11:41:24.000Z</time>
</trkpt>
<trkpt lat="46.0773000" lon="10.4943830">
	<ele>1996.00</ele>
	<time>2023-08-06T11:41:25.000Z</time>
</trkpt>
<trkpt lat="46.0773060" lon="10.4943830">
	<ele>1996.20</ele>
	<time>2023-08-06T11:41:26.000Z</time>
</trkpt>
<trkpt lat="46.0773090" lon="10.4943850">
	<ele>1996.20</ele>
	<time>2023-08-06T11:41:27.000Z</time>
</trkpt>
<trkpt lat="46.0773200" lon="10.4943900">
	<ele>1996.20</ele>
	<time>2023-08-06T11:41:28.000Z</time>
</trkpt>
<trkpt lat="46.0773320" lon="10.4943920">
	<ele>1996.40</ele>
	<time>2023-08-06T11:41:29.000Z</time>
</trkpt>
<trkpt lat="46.0773400" lon="10.4943930">
	<ele>1996.40</ele>
	<time>2023-08-06T11:41:30.000Z</time>
</trkpt>
<trkpt lat="46.0773460" lon="10.4943930">
	<ele>1996.20</ele>
	<time>2023-08-06T11:41:31.000Z</time>
</trkpt>
<trkpt lat="46.0773490" lon="10.4943960">
	<ele>1996.20</ele>
	<time>2023-08-06T11:41:32.000Z</time>
</trkpt>
<trkpt lat="46.0773520" lon="10.4943960">
	<ele>1996.00</ele>
	<time>2023-08-06T11:41:33.000Z</time>
</trkpt>
<trkpt lat="46.0773540" lon="10.4943970">
	<ele>1996.00</ele>
	<time>2023-08-06T11:41:34.000Z</time>
</trkpt>
<trkpt lat="46.0773560" lon="10.4943970">
	<ele>1996.00</ele>
	<time>2023-08-06T11:41:35.000Z</time>
</trkpt>
<trkpt lat="46.0773590" lon="10.4943980">
	<ele>1995.80</ele>
	<time>2023-08-06T11:41:36.000Z</time>
</trkpt>
<trkpt lat="46.0773670" lon="10.4943980">
	<ele>1995.80</ele>
	<time>2023-08-06T11:41:37.000Z</time>
</trkpt>
<trkpt lat="46.0773690" lon="10.4943980">
	<ele>1995.60</ele>
	<time>2023-08-06T11:41:38.000Z</time>
</trkpt>
<trkpt lat="46.0773760" lon="10.4944040">
	<ele>1995.40</ele>
	<time>2023-08-06T11:41:39.000Z</time>
</trkpt>
<trkpt lat="46.0773880" lon="10.4944170">
	<ele>1995.40</ele>
	<time>2023-08-06T11:41:40.000Z</time>
</trkpt>
<trkpt lat="46.0773970" lon="10.4944240">
	<ele>1995.20</ele>
	<time>2023-08-06T11:41:41.000Z</time>
</trkpt>
<trkpt lat="46.0774040" lon="10.4944330">
	<ele>1995.20</ele>
	<time>2023-08-06T11:41:42.000Z</time>
</trkpt>
<trkpt lat="46.0774240" lon="10.4944440">
	<ele>1995.20</ele>
	<time>2023-08-06T11:41:43.000Z</time>
</trkpt>
<trkpt lat="46.0774400" lon="10.4944540">
	<ele>1995.00</ele>
	<time>2023-08-06T11:41:44.000Z</time>
</trkpt>
<trkpt lat="46.0774550" lon="10.4944680">
	<ele>1995.00</ele>
	<time>2023-08-06T11:41:45.000Z</time>
</trkpt>
<trkpt lat="46.0774700" lon="10.4944760">
	<ele>1994.80</ele>
	<time>2023-08-06T11:41:46.000Z</time>
</trkpt>
<trkpt lat="46.0774840" lon="10.4944860">
	<ele>1994.80</ele>
	<time>2023-08-06T11:41:47.000Z</time>
</trkpt>
<trkpt lat="46.0775010" lon="10.4945000">
	<ele>1994.60</ele>
	<time>2023-08-06T11:41:48.000Z</time>
</trkpt>
<trkpt lat="46.0775090" lon="10.4944990">
	<ele>1994.40</ele>
	<time>2023-08-06T11:41:49.000Z</time>
</trkpt>
<trkpt lat="46.0775200" lon="10.4944960">
	<ele>1994.20</ele>
	<time>2023-08-06T11:41:50.000Z</time>
</trkpt>
<trkpt lat="46.0775350" lon="10.4944920">
	<ele>1993.80</ele>
	<time>2023-08-06T11:41:51.000Z</time>
</trkpt>
<trkpt lat="46.0775510" lon="10.4944860">
	<ele>1993.60</ele>
	<time>2023-08-06T11:41:52.000Z</time>
</trkpt>
<trkpt lat="46.0775640" lon="10.4944820">
	<ele>1993.20</ele>
	<time>2023-08-06T11:41:53.000Z</time>
</trkpt>
<trkpt lat="46.0775770" lon="10.4944880">
	<ele>1993.00</ele>
	<time>2023-08-06T11:41:54.000Z</time>
</trkpt>
<trkpt lat="46.0775860" lon="10.4944940">
	<ele>1992.80</ele>
	<time>2023-08-06T11:41:55.000Z</time>
</trkpt>
<trkpt lat="46.0775930" lon="10.4945010">
	<ele>1992.80</ele>
	<time>2023-08-06T11:41:56.000Z</time>
</trkpt>
<trkpt lat="46.0775960" lon="10.4945040">
	<ele>1992.80</ele>
	<time>2023-08-06T11:41:57.000Z</time>
</trkpt>
<trkpt lat="46.0775970" lon="10.4945000">
	<ele>1992.80</ele>
	<time>2023-08-06T11:41:58.000Z</time>
</trkpt>
<trkpt lat="46.0776040" lon="10.4945010">
	<ele>1992.80</ele>
	<time>2023-08-06T11:41:59.000Z</time>
</trkpt>
<trkpt lat="46.0776130" lon="10.4945100">
	<ele>1992.80</ele>
	<time>2023-08-06T11:42:00.000Z</time>
</trkpt>
<trkpt lat="46.0776290" lon="10.4945210">
	<ele>1992.80</ele>
	<time>2023-08-06T11:42:01.000Z</time>
</trkpt>
<trkpt lat="46.0776430" lon="10.4945310">
	<ele>1992.80</ele>
	<time>2023-08-06T11:42:02.000Z</time>
</trkpt>
<trkpt lat="46.0776600" lon="10.4945370">
	<ele>1993.00</ele>
	<time>2023-08-06T11:42:03.000Z</time>
</trkpt>
<trkpt lat="46.0776630" lon="10.4945240">
	<ele>1993.00</ele>
	<time>2023-08-06T11:42:04.000Z</time>
</trkpt>
<trkpt lat="46.0776700" lon="10.4945140">
	<ele>1993.00</ele>
	<time>2023-08-06T11:42:05.000Z</time>
</trkpt>
<trkpt lat="46.0776830" lon="10.4945130">
	<ele>1993.20</ele>
	<time>2023-08-06T11:42:06.000Z</time>
</trkpt>
<trkpt lat="46.0777050" lon="10.4945220">
	<ele>1993.20</ele>
	<time>2023-08-06T11:42:07.000Z</time>
</trkpt>
<trkpt lat="46.0777220" lon="10.4945310">
	<ele>1993.20</ele>
	<time>2023-08-06T11:42:08.000Z</time>
</trkpt>
<trkpt lat="46.0777430" lon="10.4945380">
	<ele>1993.40</ele>
	<time>2023-08-06T11:42:09.000Z</time>
</trkpt>
<trkpt lat="46.0777590" lon="10.4945500">
	<ele>1993.40</ele>
	<time>2023-08-06T11:42:10.000Z</time>
</trkpt>
<trkpt lat="46.0777750" lon="10.4945620">
	<ele>1993.60</ele>
	<time>2023-08-06T11:42:11.000Z</time>
</trkpt>
<trkpt lat="46.0777940" lon="10.4945850">
	<ele>1993.60</ele>
	<time>2023-08-06T11:42:12.000Z</time>
</trkpt>
<trkpt lat="46.0778130" lon="10.4946060">
	<ele>1993.80</ele>
	<time>2023-08-06T11:42:13.000Z</time>
</trkpt>
<trkpt lat="46.0778390" lon="10.4946340">
	<ele>1993.80</ele>
	<time>2023-08-06T11:42:14.000Z</time>
</trkpt>
<trkpt lat="46.0778580" lon="10.4946560">
	<ele>1993.80</ele>
	<time>2023-08-06T11:42:15.000Z</time>
</trkpt>
<trkpt lat="46.0778670" lon="10.4946700">
	<ele>1993.80</ele>
	<time>2023-08-06T11:42:16.000Z</time>
</trkpt>
<trkpt lat="46.0778700" lon="10.4946840">
	<ele>1993.60</ele>
	<time>2023-08-06T11:42:17.000Z</time>
</trkpt>
<trkpt lat="46.0778760" lon="10.4946930">
	<ele>1993.40</ele>
	<time>2023-08-06T11:42:18.000Z</time>
</trkpt>
<trkpt lat="46.0778790" lon="10.4947070">
	<ele>1993.20</ele>
	<time>2023-08-06T11:42:19.000Z</time>
</trkpt>
<trkpt lat="46.0778910" lon="10.4947240">
	<ele>1993.00</ele>
	<time>2023-08-06T11:42:20.000Z</time>
</trkpt>
<trkpt lat="46.0779100" lon="10.4947440">
	<ele>1993.00</ele>
	<time>2023-08-06T11:42:21.000Z</time>
</trkpt>
<trkpt lat="46.0779220" lon="10.4947660">
	<ele>1993.00</ele>
	<time>2023-08-06T11:42:22.000Z</time>
</trkpt>
<trkpt lat="46.0779290" lon="10.4947850">
	<ele>1992.80</ele>
	<time>2023-08-06T11:42:23.000Z</time>
</trkpt>
<trkpt lat="46.0779270" lon="10.4947960">
	<ele>1992.80</ele>
	<time>2023-08-06T11:42:24.000Z</time>
</trkpt>
<trkpt lat="46.0779450" lon="10.4948140">
	<ele>1992.80</ele>
	<time>2023-08-06T11:42:25.000Z</time>
</trkpt>
<trkpt lat="46.0779660" lon="10.4948280">
	<ele>1992.80</ele>
	<time>2023-08-06T11:42:26.000Z</time>
</trkpt>
<trkpt lat="46.0779750" lon="10.4948420">
	<ele>1992.80</ele>
	<time>2023-08-06T11:42:27.000Z</time>
</trkpt>
<trkpt lat="46.0779700" lon="10.4948530">
	<ele>1993.00</ele>
	<time>2023-08-06T11:42:28.000Z</time>
</trkpt>
<trkpt lat="46.0779610" lon="10.4948650">
	<ele>1993.00</ele>
	<time>2023-08-06T11:42:29.000Z</time>
</trkpt>
<trkpt lat="46.0779630" lon="10.4948730">
	<ele>1993.00</ele>
	<time>2023-08-06T11:42:30.000Z</time>
</trkpt>
<trkpt lat="46.0779750" lon="10.4948810">
	<ele>1993.20</ele>
	<time>2023-08-06T11:42:31.000Z</time>
</trkpt>
<trkpt lat="46.0779960" lon="10.4948890">
	<ele>1993.20</ele>
	<time>2023-08-06T11:42:32.000Z</time>
</trkpt>
<trkpt lat="46.0780090" lon="10.4948920">
	<ele>1993.20</ele>
	<time>2023-08-06T11:42:33.000Z</time>
</trkpt>
<trkpt lat="46.0780270" lon="10.4949060">
	<ele>1993.40</ele>
	<time>2023-08-06T11:42:34.000Z</time>
</trkpt>
<trkpt lat="46.0780300" lon="10.4949230">
	<ele>1993.40</ele>
	<time>2023-08-06T11:42:35.000Z</time>
</trkpt>
<trkpt lat="46.0780420" lon="10.4949370">
	<ele>1993.60</ele>
	<time>2023-08-06T11:42:36.000Z</time>
</trkpt>
<trkpt lat="46.0780590" lon="10.4949520">
	<ele>1993.80</ele>
	<time>2023-08-06T11:42:37.000Z</time>
</trkpt>
<trkpt lat="46.0780730" lon="10.4949570">
	<ele>1993.80</ele>
	<time>2023-08-06T11:42:38.000Z</time>
</trkpt>
<trkpt lat="46.0780890" lon="10.4949650">
	<ele>1994.00</ele>
	<time>2023-08-06T11:42:39.000Z</time>
</trkpt>
<trkpt lat="46.0781070" lon="10.4949740">
	<ele>1994.00</ele>
	<time>2023-08-06T11:42:40.000Z</time>
</trkpt>
<trkpt lat="46.0781230" lon="10.4949860">
	<ele>1994.00</ele>
	<time>2023-08-06T11:42:41.000Z</time>
</trkpt>
<trkpt lat="46.0781320" lon="10.4950010">
	<ele>1994.00</ele>
	<time>2023-08-06T11:42:42.000Z</time>
</trkpt>
<trkpt lat="46.0781310" lon="10.4950110">
	<ele>1993.80</ele>
	<time>2023-08-06T11:42:43.000Z</time>
</trkpt>
<trkpt lat="46.0781360" lon="10.4950230">
	<ele>1993.80</ele>
	<time>2023-08-06T11:42:44.000Z</time>
</trkpt>
<trkpt lat="46.0781350" lon="10.4950370">
	<ele>1993.80</ele>
	<time>2023-08-06T11:42:45.000Z</time>
</trkpt>
<trkpt lat="46.0781360" lon="10.4950510">
	<ele>1993.80</ele>
	<time>2023-08-06T11:42:46.000Z</time>
</trkpt>
<trkpt lat="46.0781390" lon="10.4950580">
	<ele>1993.80</ele>
	<time>2023-08-06T11:42:47.000Z</time>
</trkpt>
<trkpt lat="46.0781450" lon="10.4950680">
	<ele>1993.80</ele>
	<time>2023-08-06T11:42:48.000Z</time>
</trkpt>
<trkpt lat="46.0781570" lon="10.4950810">
	<ele>1993.60</ele>
	<time>2023-08-06T11:42:49.000Z</time>
</trkpt>
<trkpt lat="46.0781610" lon="10.4950980">
	<ele>1993.60</ele>
	<time>2023-08-06T11:42:50.000Z</time>
</trkpt>
<trkpt lat="46.0781700" lon="10.4951130">
	<ele>1993.60</ele>
	<time>2023-08-06T11:42:51.000Z</time>
</trkpt>
<trkpt lat="46.0781790" lon="10.4951230">
	<ele>1993.60</ele>
	<time>2023-08-06T11:42:52.000Z</time>
</trkpt>
<trkpt lat="46.0781870" lon="10.4951330">
	<ele>1993.60</ele>
	<time>2023-08-06T11:42:53.000Z</time>
</trkpt>
<trkpt lat="46.0781910" lon="10.4951420">
	<ele>1993.60</ele>
	<time>2023-08-06T11:42:54.000Z</time>
</trkpt>
<trkpt lat="46.0781940" lon="10.4951550">
	<ele>1993.60</ele>
	<time>2023-08-06T11:42:55.000Z</time>
</trkpt>
<trkpt lat="46.0781960" lon="10.4951700">
	<ele>1993.60</ele>
	<time>2023-08-06T11:42:56.000Z</time>
</trkpt>
<trkpt lat="46.0782010" lon="10.4951820">
	<ele>1993.60</ele>
	<time>2023-08-06T11:42:57.000Z</time>
</trkpt>
<trkpt lat="46.0782110" lon="10.4951930">
	<ele>1993.60</ele>
	<time>2023-08-06T11:42:58.000Z</time>
</trkpt>
<trkpt lat="46.0782200" lon="10.4952040">
	<ele>1993.60</ele>
	<time>2023-08-06T11:42:59.000Z</time>
</trkpt>
<trkpt lat="46.0782270" lon="10.4952150">
	<ele>1993.60</ele>
	<time>2023-08-06T11:43:00.000Z</time>
</trkpt>
<trkpt lat="46.0782400" lon="10.4952330">
	<ele>1993.60</ele>
	<time>2023-08-06T11:43:01.000Z</time>
</trkpt>
<trkpt lat="46.0782500" lon="10.4952480">
	<ele>1993.60</ele>
	<time>2023-08-06T11:43:02.000Z</time>
</trkpt>
<trkpt lat="46.0782520" lon="10.4952580">
	<ele>1993.60</ele>
	<time>2023-08-06T11:43:03.000Z</time>
</trkpt>
<trkpt lat="46.0782590" lon="10.4952720">
	<ele>1993.60</ele>
	<time>2023-08-06T11:43:04.000Z</time>
</trkpt>
<trkpt lat="46.0782700" lon="10.4952930">
	<ele>1993.60</ele>
	<time>2023-08-06T11:43:05.000Z</time>
</trkpt>
<trkpt lat="46.0782730" lon="10.4953100">
	<ele>1993.60</ele>
	<time>2023-08-06T11:43:06.000Z</time>
</trkpt>
<trkpt lat="46.0782830" lon="10.4953310">
	<ele>1993.60</ele>
	<time>2023-08-06T11:43:07.000Z</time>
</trkpt>
<trkpt lat="46.0782890" lon="10.4953520">
	<ele>1993.80</ele>
	<time>2023-08-06T11:43:08.000Z</time>
</trkpt>
<trkpt lat="46.0783010" lon="10.4953630">
	<ele>1993.80</ele>
	<time>2023-08-06T11:43:09.000Z</time>
</trkpt>
<trkpt lat="46.0782910" lon="10.4953860">
	<ele>1993.80</ele>
	<time>2023-08-06T11:43:10.000Z</time>
</trkpt>
<trkpt lat="46.0782890" lon="10.4954060">
	<ele>1993.80</ele>
	<time>2023-08-06T11:43:11.000Z</time>
</trkpt>
<trkpt lat="46.0782840" lon="10.4954260">
	<ele>1993.80</ele>
	<time>2023-08-06T11:43:12.000Z</time>
</trkpt>
<trkpt lat="46.0782800" lon="10.4954430">
	<ele>1993.80</ele>
	<time>2023-08-06T11:43:13.000Z</time>
</trkpt>
<trkpt lat="46.0782760" lon="10.4954630">
	<ele>1993.60</ele>
	<time>2023-08-06T11:43:14.000Z</time>
</trkpt>
<trkpt lat="46.0782720" lon="10.4954840">
	<ele>1993.60</ele>
	<time>2023-08-06T11:43:15.000Z</time>
</trkpt>
<trkpt lat="46.0782550" lon="10.4954990">
	<ele>1993.60</ele>
	<time>2023-08-06T11:43:16.000Z</time>
</trkpt>
<trkpt lat="46.0782340" lon="10.4955170">
	<ele>1993.60</ele>
	<time>2023-08-06T11:43:17.000Z</time>
</trkpt>
<trkpt lat="46.0782340" lon="10.4955310">
	<ele>1993.60</ele>
	<time>2023-08-06T11:43:18.000Z</time>
</trkpt>
<trkpt lat="46.0782240" lon="10.4955370">
	<ele>1993.40</ele>
	<time>2023-08-06T11:43:19.000Z</time>
</trkpt>
<trkpt lat="46.0782170" lon="10.4955560">
	<ele>1993.40</ele>
	<time>2023-08-06T11:43:20.000Z</time>
</trkpt>
<trkpt lat="46.0782280" lon="10.4955620">
	<ele>1993.40</ele>
	<time>2023-08-06T11:43:21.000Z</time>
</trkpt>
<trkpt lat="46.0782220" lon="10.4955710">
	<ele>1993.40</ele>
	<time>2023-08-06T11:43:22.000Z</time>
</trkpt>
<trkpt lat="46.0782210" lon="10.4955790">
	<ele>1993.40</ele>
	<time>2023-08-06T11:43:23.000Z</time>
</trkpt>
<trkpt lat="46.0782210" lon="10.4955930">
	<ele>1993.40</ele>
	<time>2023-08-06T11:43:24.000Z</time>
</trkpt>
<trkpt lat="46.0782190" lon="10.4956120">
	<ele>1993.40</ele>
	<time>2023-08-06T11:43:25.000Z</time>
</trkpt>
<trkpt lat="46.0782170" lon="10.4956250">
	<ele>1993.40</ele>
	<time>2023-08-06T11:43:26.000Z</time>
</trkpt>
<trkpt lat="46.0782150" lon="10.4956420">
	<ele>1993.60</ele>
	<time>2023-08-06T11:43:27.000Z</time>
</trkpt>
<trkpt lat="46.0782120" lon="10.4956610">
	<ele>1993.60</ele>
	<time>2023-08-06T11:43:28.000Z</time>
</trkpt>
<trkpt lat="46.0782120" lon="10.4956790">
	<ele>1993.60</ele>
	<time>2023-08-06T11:43:29.000Z</time>
</trkpt>
<trkpt lat="46.0782090" lon="10.4956940">
	<ele>1993.60</ele>
	<time>2023-08-06T11:43:30.000Z</time>
</trkpt>
<trkpt lat="46.0782090" lon="10.4957070">
	<ele>1993.60</ele>
	<time>2023-08-06T11:43:31.000Z</time>
</trkpt>
<trkpt lat="46.0782040" lon="10.4957250">
	<ele>1993.60</ele>
	<time>2023-08-06T11:43:32.000Z</time>
</trkpt>
<trkpt lat="46.0782010" lon="10.4957450">
	<ele>1993.60</ele>
	<time>2023-08-06T11:43:33.000Z</time>
</trkpt>
<trkpt lat="46.0781960" lon="10.4957660">
	<ele>1993.80</ele>
	<time>2023-08-06T11:43:34.000Z</time>
</trkpt>
<trkpt lat="46.0781860" lon="10.4957730">
	<ele>1994.00</ele>
	<time>2023-08-06T11:43:35.000Z</time>
</trkpt>
<trkpt lat="46.0781830" lon="10.4957690">
	<ele>1994.00</ele>
	<time>2023-08-06T11:43:36.000Z</time>
</trkpt>
<trkpt lat="46.0781750" lon="10.4957720">
	<ele>1994.00</ele>
	<time>2023-08-06T11:43:37.000Z</time>
</trkpt>
<trkpt lat="46.0781720" lon="10.4957780">
	<ele>1994.40</ele>
	<time>2023-08-06T11:43:38.000Z</time>
</trkpt>
<trkpt lat="46.0781600" lon="10.4957790">
	<ele>1994.60</ele>
	<time>2023-08-06T11:43:39.000Z</time>
</trkpt>
<trkpt lat="46.0781500" lon="10.4957890">
	<ele>1994.80</ele>
	<time>2023-08-06T11:43:40.000Z</time>
</trkpt>
<trkpt lat="46.0781430" lon="10.4957980">
	<ele>1994.80</ele>
	<time>2023-08-06T11:43:41.000Z</time>
</trkpt>
<trkpt lat="46.0781370" lon="10.4958090">
	<ele>1995.00</ele>
	<time>2023-08-06T11:43:42.000Z</time>
</trkpt>
<trkpt lat="46.0781360" lon="10.4958000">
	<ele>1995.60</ele>
	<time>2023-08-06T11:43:43.000Z</time>
</trkpt>
<trkpt lat="46.0781350" lon="10.4958050">
	<ele>1995.80</ele>
	<time>2023-08-06T11:43:44.000Z</time>
</trkpt>
<trkpt lat="46.0781350" lon="10.4958090">
	<ele>1996.00</ele>
	<time>2023-08-06T11:43:45.000Z</time>
</trkpt>
<trkpt lat="46.0781350" lon="10.4958140">
	<ele>1996.00</ele>
	<time>2023-08-06T11:43:46.000Z</time>
</trkpt>
<trkpt lat="46.0781350" lon="10.4958200">
	<ele>1996.20</ele>
	<time>2023-08-06T11:43:47.000Z</time>
</trkpt>
<trkpt lat="46.0781350" lon="10.4958250">
	<ele>1996.20</ele>
	<time>2023-08-06T11:43:48.000Z</time>
</trkpt>
<trkpt lat="46.0781360" lon="10.4958280">
	<ele>1996.20</ele>
	<time>2023-08-06T11:43:49.000Z</time>
</trkpt>
<trkpt lat="46.0781350" lon="10.4958320">
	<ele>1996.20</ele>
	<time>2023-08-06T11:43:50.000Z</time>
</trkpt>
<trkpt lat="46.0781330" lon="10.4958440">
	<ele>1996.40</ele>
	<time>2023-08-06T11:43:51.000Z</time>
</trkpt>
<trkpt lat="46.0781290" lon="10.4958510">
	<ele>1996.60</ele>
	<time>2023-08-06T11:43:52.000Z</time>
</trkpt>
<trkpt lat="46.0781300" lon="10.4958590">
	<ele>1996.60</ele>
	<time>2023-08-06T11:43:53.000Z</time>
</trkpt>
<trkpt lat="46.0781270" lon="10.4958610">
	<ele>1997.00</ele>
	<time>2023-08-06T11:43:54.000Z</time>
</trkpt>
<trkpt lat="46.0781250" lon="10.4958640">
	<ele>1997.20</ele>
	<time>2023-08-06T11:43:55.000Z</time>
</trkpt>
<trkpt lat="46.0781230" lon="10.4958670">
	<ele>1997.40</ele>
	<time>2023-08-06T11:43:56.000Z</time>
</trkpt>
<trkpt lat="46.0781250" lon="10.4958650">
	<ele>1997.60</ele>
	<time>2023-08-06T11:43:57.000Z</time>
</trkpt>
<trkpt lat="46.0781200" lon="10.4958610">
	<ele>1997.80</ele>
	<time>2023-08-06T11:43:58.000Z</time>
</trkpt>
<trkpt lat="46.0781170" lon="10.4958620">
	<ele>1997.80</ele>
	<time>2023-08-06T11:43:59.000Z</time>
</trkpt>
<trkpt lat="46.0781150" lon="10.4958620">
	<ele>1997.80</ele>
	<time>2023-08-06T11:44:00.000Z</time>
</trkpt>
<trkpt lat="46.0781140" lon="10.4958620">
	<ele>1998.00</ele>
	<time>2023-08-06T11:44:01.000Z</time>
</trkpt>
<trkpt lat="46.0781120" lon="10.4958630">
	<ele>1998.00</ele>
	<time>2023-08-06T11:44:02.000Z</time>
</trkpt>
<trkpt lat="46.0781100" lon="10.4958660">
	<ele>1998.00</ele>
	<time>2023-08-06T11:44:03.000Z</time>
</trkpt>
<trkpt lat="46.0781090" lon="10.4958680">
	<ele>1998.00</ele>
	<time>2023-08-06T11:44:04.000Z</time>
</trkpt>
<trkpt lat="46.0781090" lon="10.4958740">
	<ele>1998.00</ele>
	<time>2023-08-06T11:44:05.000Z</time>
</trkpt>
<trkpt lat="46.0781030" lon="10.4958730">
	<ele>1998.00</ele>
	<time>2023-08-06T11:44:06.000Z</time>
</trkpt>
<trkpt lat="46.0781040" lon="10.4958760">
	<ele>1998.00</ele>
	<time>2023-08-06T11:44:07.000Z</time>
</trkpt>
<trkpt lat="46.0781030" lon="10.4958810">
	<ele>1998.20</ele>
	<time>2023-08-06T11:44:08.000Z</time>
</trkpt>
<trkpt lat="46.0781010" lon="10.4958870">
	<ele>1998.40</ele>
	<time>2023-08-06T11:44:09.000Z</time>
</trkpt>
<trkpt lat="46.0781010" lon="10.4958910">
	<ele>1998.40</ele>
	<time>2023-08-06T11:44:10.000Z</time>
</trkpt>
<trkpt lat="46.0781060" lon="10.4959010">
	<ele>1998.60</ele>
	<time>2023-08-06T11:44:11.000Z</time>
</trkpt>
<trkpt lat="46.0781060" lon="10.4959040">
	<ele>1998.80</ele>
	<time>2023-08-06T11:44:12.000Z</time>
</trkpt>
<trkpt lat="46.0781050" lon="10.4959060">
	<ele>1999.00</ele>
	<time>2023-08-06T11:44:13.000Z</time>
</trkpt>
<trkpt lat="46.0781050" lon="10.4959060">
	<ele>1999.20</ele>
	<time>2023-08-06T11:44:14.000Z</time>
</trkpt>
<trkpt lat="46.0781050" lon="10.4959060">
	<ele>1999.20</ele>
	<time>2023-08-06T11:44:15.000Z</time>
</trkpt>
<trkpt lat="46.0781050" lon="10.4959060">
	<ele>1999.20</ele>
	<time>2023-08-06T11:44:16.000Z</time>
</trkpt>
<trkpt lat="46.0781050" lon="10.4959060">
	<ele>1999.40</ele>
	<time>2023-08-06T11:44:17.000Z</time>
</trkpt>
<trkpt lat="46.0781050" lon="10.4959060">
	<ele>1999.40</ele>
	<time>2023-08-06T11:44:18.000Z</time>
</trkpt>
<trkpt lat="46.0781050" lon="10.4959060">
	<ele>1999.40</ele>
	<time>2023-08-06T11:44:19.000Z</time>
</trkpt>
<trkpt lat="46.0781050" lon="10.4959060">
	<ele>1999.40</ele>
	<time>2023-08-06T11:44:20.000Z</time>
</trkpt>
<trkpt lat="46.0781050" lon="10.4959060">
	<ele>1999.20</ele>
	<time>2023-08-06T11:44:21.000Z</time>
</trkpt>
<trkpt lat="46.0781050" lon="10.4959060">
	<ele>1999.20</ele>
	<time>2023-08-06T11:44:22.000Z</time>
</trkpt>
<trkpt lat="46.0781050" lon="10.4959060">
	<ele>1999.20</ele>
	<time>2023-08-06T11:44:23.000Z</time>
</trkpt>
<trkpt lat="46.0781050" lon="10.4959060">
	<ele>1999.00</ele>
	<time>2023-08-06T11:44:24.000Z</time>
</trkpt>
<trkpt lat="46.0781050" lon="10.4959060">
	<ele>1999.00</ele>
	<time>2023-08-06T11:44:25.000Z</time>
</trkpt>
<trkpt lat="46.0781050" lon="10.4959060">
	<ele>1999.00</ele>
	<time>2023-08-06T11:44:26.000Z</time>
</trkpt>
<trkpt lat="46.0781050" lon="10.4959060">
	<ele>1999.00</ele>
	<time>2023-08-06T11:44:27.000Z</time>
</trkpt>
<trkpt lat="46.0781050" lon="10.4959060">
	<ele>1998.80</ele>
	<time>2023-08-06T11:44:28.000Z</time>
</trkpt>
<trkpt lat="46.0781050" lon="10.4959080">
	<ele>1998.80</ele>
	<time>2023-08-06T11:44:29.000Z</time>
</trkpt>
<trkpt lat="46.0781050" lon="10.4959120">
	<ele>1998.80</ele>
	<time>2023-08-06T11:44:30.000Z</time>
</trkpt>
<trkpt lat="46.0781060" lon="10.4959130">
	<ele>1998.80</ele>
	<time>2023-08-06T11:44:31.000Z</time>
</trkpt>
<trkpt lat="46.0781060" lon="10.4959130">
	<ele>1998.80</ele>
	<time>2023-08-06T11:44:32.000Z</time>
</trkpt>
<trkpt lat="46.0781060" lon="10.4959130">
	<ele>1998.80</ele>
	<time>2023-08-06T11:44:33.000Z</time>
</trkpt>
<trkpt lat="46.0781070" lon="10.4959130">
	<ele>1998.60</ele>
	<time>2023-08-06T11:44:34.000Z</time>
</trkpt>
<trkpt lat="46.0781070" lon="10.4959140">
	<ele>1998.40</ele>
	<time>2023-08-06T11:44:35.000Z</time>
</trkpt>
<trkpt lat="46.0781090" lon="10.4959140">
	<ele>1998.20</ele>
	<time>2023-08-06T11:44:36.000Z</time>
</trkpt>
<trkpt lat="46.0781090" lon="10.4959150">
	<ele>1998.20</ele>
	<time>2023-08-06T11:44:37.000Z</time>
</trkpt>
<trkpt lat="46.0781090" lon="10.4959150">
	<ele>1998.00</ele>
	<time>2023-08-06T11:44:38.000Z</time>
</trkpt>
<trkpt lat="46.0781090" lon="10.4959150">
	<ele>1998.00</ele>
	<time>2023-08-06T11:44:39.000Z</time>
</trkpt>
<trkpt lat="46.0781100" lon="10.4959160">
	<ele>1998.00</ele>
	<time>2023-08-06T11:44:40.000Z</time>
</trkpt>
<trkpt lat="46.0781100" lon="10.4959160">
	<ele>1997.80</ele>
	<time>2023-08-06T11:44:41.000Z</time>
</trkpt>
<trkpt lat="46.0781100" lon="10.4959160">
	<ele>1997.80</ele>
	<time>2023-08-06T11:44:42.000Z</time>
</trkpt>
<trkpt lat="46.0781110" lon="10.4959170">
	<ele>1997.80</ele>
	<time>2023-08-06T11:44:43.000Z</time>
</trkpt>
<trkpt lat="46.0781110" lon="10.4959170">
	<ele>1997.60</ele>
	<time>2023-08-06T11:44:44.000Z</time>
</trkpt>
<trkpt lat="46.0781120" lon="10.4959180">
	<ele>1997.60</ele>
	<time>2023-08-06T11:44:45.000Z</time>
</trkpt>
<trkpt lat="46.0781140" lon="10.4959190">
	<ele>1997.60</ele>
	<time>2023-08-06T11:44:46.000Z</time>
</trkpt>
<trkpt lat="46.0781160" lon="10.4959200">
	<ele>1997.60</ele>
	<time>2023-08-06T11:44:47.000Z</time>
</trkpt>
<trkpt lat="46.0781180" lon="10.4959260">
	<ele>1997.40</ele>
	<time>2023-08-06T11:44:48.000Z</time>
</trkpt>
<trkpt lat="46.0781200" lon="10.4959330">
	<ele>1997.40</ele>
	<time>2023-08-06T11:44:49.000Z</time>
</trkpt>
<trkpt lat="46.0781230" lon="10.4959370">
	<ele>1997.40</ele>
	<time>2023-08-06T11:44:50.000Z</time>
</trkpt>
<trkpt lat="46.0781160" lon="10.4959210">
	<ele>1997.40</ele>
	<time>2023-08-06T11:44:51.000Z</time>
</trkpt>
<trkpt lat="46.0781190" lon="10.4959180">
	<ele>1997.20</ele>
	<time>2023-08-06T11:44:52.000Z</time>
</trkpt>
<trkpt lat="46.0781210" lon="10.4959100">
	<ele>1997.00</ele>
	<time>2023-08-06T11:44:53.000Z</time>
</trkpt>
<trkpt lat="46.0781210" lon="10.4959050">
	<ele>1996.80</ele>
	<time>2023-08-06T11:44:54.000Z</time>
</trkpt>
<trkpt lat="46.0781140" lon="10.4958960">
	<ele>1996.60</ele>
	<time>2023-08-06T11:44:55.000Z</time>
</trkpt>
<trkpt lat="46.0781070" lon="10.4958890">
	<ele>1996.40</ele>
	<time>2023-08-06T11:44:56.000Z</time>
</trkpt>
<trkpt lat="46.0781060" lon="10.4958930">
	<ele>1996.60</ele>
	<time>2023-08-06T11:44:57.000Z</time>
</trkpt>
<trkpt lat="46.0781120" lon="10.4958990">
	<ele>1996.60</ele>
	<time>2023-08-06T11:44:58.000Z</time>
</trkpt>
<trkpt lat="46.0781200" lon="10.4959010">
	<ele>1996.60</ele>
	<time>2023-08-06T11:44:59.000Z</time>
</trkpt>
<trkpt lat="46.0781270" lon="10.4958970">
	<ele>1996.40</ele>
	<time>2023-08-06T11:45:00.000Z</time>
</trkpt>
<trkpt lat="46.0781330" lon="10.4958920">
	<ele>1996.40</ele>
	<time>2023-08-06T11:45:01.000Z</time>
</trkpt>
<trkpt lat="46.0781380" lon="10.4958850">
	<ele>1996.20</ele>
	<time>2023-08-06T11:45:02.000Z</time>
</trkpt>
<trkpt lat="46.0781480" lon="10.4958860">
	<ele>1996.20</ele>
	<time>2023-08-06T11:45:03.000Z</time>
</trkpt>
<trkpt lat="46.0781510" lon="10.4958870">
	<ele>1996.00</ele>
	<time>2023-08-06T11:45:04.000Z</time>
</trkpt>
<trkpt lat="46.0781540" lon="10.4958860">
	<ele>1995.80</ele>
	<time>2023-08-06T11:45:05.000Z</time>
</trkpt>
<trkpt lat="46.0781550" lon="10.4958840">
	<ele>1995.60</ele>
	<time>2023-08-06T11:45:06.000Z</time>
</trkpt>
<trkpt lat="46.0781570" lon="10.4958840">
	<ele>1995.40</ele>
	<time>2023-08-06T11:45:07.000Z</time>
</trkpt>
<trkpt lat="46.0781590" lon="10.4958840">
	<ele>1995.00</ele>
	<time>2023-08-06T11:45:08.000Z</time>
</trkpt>
<trkpt lat="46.0781610" lon="10.4958870">
	<ele>1994.80</ele>
	<time>2023-08-06T11:45:09.000Z</time>
</trkpt>
<trkpt lat="46.0781620" lon="10.4958930">
	<ele>1994.60</ele>
	<time>2023-08-06T11:45:10.000Z</time>
</trkpt>
<trkpt lat="46.0781650" lon="10.4959010">
	<ele>1994.60</ele>
	<time>2023-08-06T11:45:11.000Z</time>
</trkpt>
<trkpt lat="46.0781670" lon="10.4959120">
	<ele>1994.40</ele>
	<time>2023-08-06T11:45:12.000Z</time>
</trkpt>
<trkpt lat="46.0781690" lon="10.4959150">
	<ele>1994.20</ele>
	<time>2023-08-06T11:45:13.000Z</time>
</trkpt>
<trkpt lat="46.0781720" lon="10.4959150">
	<ele>1994.20</ele>
	<time>2023-08-06T11:45:14.000Z</time>
</trkpt>
<trkpt lat="46.0781730" lon="10.4959170">
	<ele>1994.00</ele>
	<time>2023-08-06T11:45:15.000Z</time>
</trkpt>
<trkpt lat="46.0781710" lon="10.4959140">
	<ele>1994.00</ele>
	<time>2023-08-06T11:45:16.000Z</time>
</trkpt>
<trkpt lat="46.0781650" lon="10.4959130">
	<ele>1994.00</ele>
	<time>2023-08-06T11:45:17.000Z</time>
</trkpt>
<trkpt lat="46.0781600" lon="10.4959050">
	<ele>1994.00</ele>
	<time>2023-08-06T11:45:18.000Z</time>
</trkpt>
<trkpt lat="46.0781560" lon="10.4959020">
	<ele>1994.20</ele>
	<time>2023-08-06T11:45:19.000Z</time>
</trkpt>
<trkpt lat="46.0781550" lon="10.4959050">
	<ele>1994.20</ele>
	<time>2023-08-06T11:45:20.000Z</time>
</trkpt>
<trkpt lat="46.0781620" lon="10.4959070">
	<ele>1994.40</ele>
	<time>2023-08-06T11:45:21.000Z</time>
</trkpt>
<trkpt lat="46.0781670" lon="10.4959020">
	<ele>1994.60</ele>
	<time>2023-08-06T11:45:22.000Z</time>
</trkpt>
<trkpt lat="46.0781660" lon="10.4958850">
	<ele>1994.60</ele>
	<time>2023-08-06T11:45:23.000Z</time>
</trkpt>
<trkpt lat="46.0781580" lon="10.4958820">
	<ele>1994.60</ele>
	<time>2023-08-06T11:45:24.000Z</time>
</trkpt>
<trkpt lat="46.0781440" lon="10.4958730">
	<ele>1994.40</ele>
	<time>2023-08-06T11:45:25.000Z</time>
</trkpt>
<trkpt lat="46.0781260" lon="10.4958600">
	<ele>1993.80</ele>
	<time>2023-08-06T11:45:26.000Z</time>
</trkpt>
<trkpt lat="46.0781100" lon="10.4958420">
	<ele>1993.40</ele>
	<time>2023-08-06T11:45:27.000Z</time>
</trkpt>
<trkpt lat="46.0781030" lon="10.4958340">
	<ele>1993.40</ele>
	<time>2023-08-06T11:45:28.000Z</time>
</trkpt>
<trkpt lat="46.0780970" lon="10.4958260">
	<ele>1993.20</ele>
	<time>2023-08-06T11:45:29.000Z</time>
</trkpt>
<trkpt lat="46.0780970" lon="10.4958200">
	<ele>1993.20</ele>
	<time>2023-08-06T11:45:30.000Z</time>
</trkpt>
<trkpt lat="46.0780970" lon="10.4958150">
	<ele>1993.40</ele>
	<time>2023-08-06T11:45:31.000Z</time>
</trkpt>
<trkpt lat="46.0780960" lon="10.4958140">
	<ele>1993.60</ele>
	<time>2023-08-06T11:45:32.000Z</time>
</trkpt>
<trkpt lat="46.0780970" lon="10.4958120">
	<ele>1993.60</ele>
	<time>2023-08-06T11:45:33.000Z</time>
</trkpt>
<trkpt lat="46.0781040" lon="10.4958190">
	<ele>1993.80</ele>
	<time>2023-08-06T11:45:34.000Z</time>
</trkpt>
<trkpt lat="46.0781140" lon="10.4958380">
	<ele>1994.00</ele>
	<time>2023-08-06T11:45:35.000Z</time>
</trkpt>
<trkpt lat="46.0781210" lon="10.4958530">
	<ele>1994.00</ele>
	<time>2023-08-06T11:45:36.000Z</time>
</trkpt>
<trkpt lat="46.0781280" lon="10.4958650">
	<ele>1994.20</ele>
	<time>2023-08-06T11:45:37.000Z</time>
</trkpt>
<trkpt lat="46.0781400" lon="10.4958770">
	<ele>1994.20</ele>
	<time>2023-08-06T11:45:38.000Z</time>
</trkpt>
<trkpt lat="46.0781550" lon="10.4958980">
	<ele>1994.20</ele>
	<time>2023-08-06T11:45:39.000Z</time>
</trkpt>
<trkpt lat="46.0781630" lon="10.4959110">
	<ele>1994.20</ele>
	<time>2023-08-06T11:45:40.000Z</time>
</trkpt>
<trkpt lat="46.0781510" lon="10.4958910">
	<ele>1994.20</ele>
	<time>2023-08-06T11:45:41.000Z</time>
</trkpt>
<trkpt lat="46.0781500" lon="10.4958800">
	<ele>1994.20</ele>
	<time>2023-08-06T11:45:42.000Z</time>
</trkpt>
<trkpt lat="46.0781510" lon="10.4958620">
	<ele>1994.20</ele>
	<time>2023-08-06T11:45:43.000Z</time>
</trkpt>
<trkpt lat="46.0781330" lon="10.4958210">
	<ele>1994.20</ele>
	<time>2023-08-06T11:45:44.000Z</time>
</trkpt>
<trkpt lat="46.0781310" lon="10.4958170">
	<ele>1994.00</ele>
	<time>2023-08-06T11:45:45.000Z</time>
</trkpt>
<trkpt lat="46.0781240" lon="10.4958010">
	<ele>1994.00</ele>
	<time>2023-08-06T11:45:46.000Z</time>
</trkpt>
<trkpt lat="46.0781230" lon="10.4958010">
	<ele>1994.00</ele>
	<time>2023-08-06T11:45:47.000Z</time>
</trkpt>
<trkpt lat="46.0781240" lon="10.4958050">
	<ele>1994.00</ele>
	<time>2023-08-06T11:45:48.000Z</time>
</trkpt>
<trkpt lat="46.0781260" lon="10.4958080">
	<ele>1994.00</ele>
	<time>2023-08-06T11:45:49.000Z</time>
</trkpt>
<trkpt lat="46.0781330" lon="10.4958180">
	<ele>1994.20</ele>
	<time>2023-08-06T11:45:50.000Z</time>
</trkpt>
<trkpt lat="46.0781340" lon="10.4958160">
	<ele>1994.40</ele>
	<time>2023-08-06T11:45:51.000Z</time>
</trkpt>
<trkpt lat="46.0781410" lon="10.4958230">
	<ele>1994.60</ele>
	<time>2023-08-06T11:45:52.000Z</time>
</trkpt>
<trkpt lat="46.0781450" lon="10.4958320">
	<ele>1994.60</ele>
	<time>2023-08-06T11:45:53.000Z</time>
</trkpt>
<trkpt lat="46.0781420" lon="10.4958370">
	<ele>1994.80</ele>
	<time>2023-08-06T11:45:54.000Z</time>
</trkpt>
<trkpt lat="46.0781460" lon="10.4958450">
	<ele>1994.40</ele>
	<time>2023-08-06T11:45:55.000Z</time>
</trkpt>
<trkpt lat="46.0781440" lon="10.4958410">
	<ele>1994.20</ele>
	<time>2023-08-06T11:45:56.000Z</time>
</trkpt>
<trkpt lat="46.0781440" lon="10.4958400">
	<ele>1994.00</ele>
	<time>2023-08-06T11:45:57.000Z</time>
</trkpt>
<trkpt lat="46.0781320" lon="10.4958410">
	<ele>1994.00</ele>
	<time>2023-08-06T11:45:58.000Z</time>
</trkpt>
<trkpt lat="46.0781210" lon="10.4958230">
	<ele>1994.00</ele>
	<time>2023-08-06T11:45:59.000Z</time>
</trkpt>
<trkpt lat="46.0781090" lon="10.4958120">
	<ele>1993.80</ele>
	<time>2023-08-06T11:46:00.000Z</time>
</trkpt>
<trkpt lat="46.0781030" lon="10.4958030">
	<ele>1994.00</ele>
	<time>2023-08-06T11:46:01.000Z</time>
</trkpt>
<trkpt lat="46.0781030" lon="10.4958060">
	<ele>1994.00</ele>
	<time>2023-08-06T11:46:02.000Z</time>
</trkpt>
<trkpt lat="46.0781030" lon="10.4958080">
	<ele>1994.20</ele>
	<time>2023-08-06T11:46:03.000Z</time>
</trkpt>
<trkpt lat="46.0781030" lon="10.4958080">
	<ele>1994.20</ele>
	<time>2023-08-06T11:46:04.000Z</time>
</trkpt>
<trkpt lat="46.0781030" lon="10.4958080">
	<ele>1994.00</ele>
	<time>2023-08-06T11:46:05.000Z</time>
</trkpt>
<trkpt lat="46.0781030" lon="10.4958080">
	<ele>1994.00</ele>
	<time>2023-08-06T11:46:06.000Z</time>
</trkpt>
<trkpt lat="46.0781030" lon="10.4958080">
	<ele>1994.00</ele>
	<time>2023-08-06T11:46:07.000Z</time>
</trkpt>
<trkpt lat="46.0781030" lon="10.4958080">
	<ele>1994.00</ele>
	<time>2023-08-06T11:46:08.000Z</time>
</trkpt>
<trkpt lat="46.0781030" lon="10.4958080">
	<ele>1993.80</ele>
	<time>2023-08-06T11:46:09.000Z</time>
</trkpt>
<trkpt lat="46.0781030" lon="10.4958080">
	<ele>1993.80</ele>
	<time>2023-08-06T11:46:10.000Z</time>
</trkpt>
<trkpt lat="46.0781030" lon="10.4958080">
	<ele>1993.80</ele>
	<time>2023-08-06T11:46:11.000Z</time>
</trkpt>
<trkpt lat="46.0781030" lon="10.4958080">
	<ele>1993.80</ele>
	<time>2023-08-06T11:46:12.000Z</time>
</trkpt>
<trkpt lat="46.0781040" lon="10.4958040">
	<ele>1993.80</ele>
	<time>2023-08-06T11:46:13.000Z</time>
</trkpt>
<trkpt lat="46.0781010" lon="10.4957830">
	<ele>1993.80</ele>
	<time>2023-08-06T11:46:14.000Z</time>
</trkpt>
<trkpt lat="46.0780960" lon="10.4957650">
	<ele>1993.80</ele>
	<time>2023-08-06T11:46:15.000Z</time>
</trkpt>
<trkpt lat="46.0780960" lon="10.4957530">
	<ele>1993.80</ele>
	<time>2023-08-06T11:46:16.000Z</time>
</trkpt>
<trkpt lat="46.0781000" lon="10.4957490">
	<ele>1993.60</ele>
	<time>2023-08-06T11:46:17.000Z</time>
</trkpt>
<trkpt lat="46.0781070" lon="10.4957460">
	<ele>1993.60</ele>
	<time>2023-08-06T11:46:18.000Z</time>
</trkpt>
<trkpt lat="46.0781110" lon="10.4957380">
	<ele>1993.60</ele>
	<time>2023-08-06T11:46:19.000Z</time>
</trkpt>
<trkpt lat="46.0781170" lon="10.4957320">
	<ele>1993.80</ele>
	<time>2023-08-06T11:46:20.000Z</time>
</trkpt>
<trkpt lat="46.0781130" lon="10.4957200">
	<ele>1993.80</ele>
	<time>2023-08-06T11:46:21.000Z</time>
</trkpt>
<trkpt lat="46.0781100" lon="10.4957130">
	<ele>1993.80</ele>
	<time>2023-08-06T11:46:22.000Z</time>
</trkpt>
<trkpt lat="46.0781080" lon="10.4957110">
	<ele>1994.00</ele>
	<time>2023-08-06T11:46:23.000Z</time>
</trkpt>
<trkpt lat="46.0781090" lon="10.4957080">
	<ele>1994.00</ele>
	<time>2023-08-06T11:46:24.000Z</time>
</trkpt>
<trkpt lat="46.0781110" lon="10.4957060">
	<ele>1994.20</ele>
	<time>2023-08-06T11:46:25.000Z</time>
</trkpt>
<trkpt lat="46.0781140" lon="10.4957030">
	<ele>1994.20</ele>
	<time>2023-08-06T11:46:26.000Z</time>
</trkpt>
<trkpt lat="46.0781230" lon="10.4957090">
	<ele>1994.20</ele>
	<time>2023-08-06T11:46:27.000Z</time>
</trkpt>
<trkpt lat="46.0781320" lon="10.4957170">
	<ele>1994.40</ele>
	<time>2023-08-06T11:46:28.000Z</time>
</trkpt>
<trkpt lat="46.0781340" lon="10.4957220">
	<ele>1994.40</ele>
	<time>2023-08-06T11:46:29.000Z</time>
</trkpt>
<trkpt lat="46.0781290" lon="10.4957240">
	<ele>1994.40</ele>
	<time>2023-08-06T11:46:30.000Z</time>
</trkpt>
<trkpt lat="46.0781240" lon="10.4957200">
	<ele>1994.40</ele>
	<time>2023-08-06T11:46:31.000Z</time>
</trkpt>
<trkpt lat="46.0781410" lon="10.4957400">
	<ele>1994.40</ele>
	<time>2023-08-06T11:46:32.000Z</time>
</trkpt>
<trkpt lat="46.0781630" lon="10.4957710">
	<ele>1994.40</ele>
	<time>2023-08-06T11:46:33.000Z</time>
</trkpt>
<trkpt lat="46.0781640" lon="10.4957850">
	<ele>1994.40</ele>
	<time>2023-08-06T11:46:34.000Z</time>
</trkpt>
<trkpt lat="46.0781650" lon="10.4957840">
	<ele>1994.40</ele>
	<time>2023-08-06T11:46:35.000Z</time>
</trkpt>
<trkpt lat="46.0781640" lon="10.4957850">
	<ele>1994.20</ele>
	<time>2023-08-06T11:46:36.000Z</time>
</trkpt>
<trkpt lat="46.0781640" lon="10.4957750">
	<ele>1994.20</ele>
	<time>2023-08-06T11:46:37.000Z</time>
</trkpt>
<trkpt lat="46.0781810" lon="10.4957930">
	<ele>1993.80</ele>
	<time>2023-08-06T11:46:38.000Z</time>
</trkpt>
<trkpt lat="46.0781840" lon="10.4957940">
	<ele>1993.60</ele>
	<time>2023-08-06T11:46:39.000Z</time>
</trkpt>
<trkpt lat="46.0782010" lon="10.4958170">
	<ele>1993.60</ele>
	<time>2023-08-06T11:46:40.000Z</time>
</trkpt>
<trkpt lat="46.0782050" lon="10.4958150">
	<ele>1993.40</ele>
	<time>2023-08-06T11:46:41.000Z</time>
</trkpt>
<trkpt lat="46.0782120" lon="10.4958180">
	<ele>1993.40</ele>
	<time>2023-08-06T11:46:42.000Z</time>
</trkpt>
<trkpt lat="46.0782130" lon="10.4958180">
	<ele>1993.40</ele>
	<time>2023-08-06T11:46:43.000Z</time>
</trkpt>
<trkpt lat="46.0782220" lon="10.4958410">
	<ele>1994.00</ele>
	<time>2023-08-06T11:46:44.000Z</time>
</trkpt>
<trkpt lat="46.0782140" lon="10.4958320">
	<ele>1994.20</ele>
	<time>2023-08-06T11:46:45.000Z</time>
</trkpt>
<trkpt lat="46.0782050" lon="10.4958370">
	<ele>1994.20</ele>
	<time>2023-08-06T11:46:46.000Z</time>
</trkpt>
<trkpt lat="46.0782080" lon="10.4958430">
	<ele>1994.40</ele>
	<time>2023-08-06T11:46:47.000Z</time>
</trkpt>
<trkpt lat="46.0782100" lon="10.4958450">
	<ele>1994.40</ele>
	<time>2023-08-06T11:46:48.000Z</time>
</trkpt>
<trkpt lat="46.0782010" lon="10.4958430">
	<ele>1994.20</ele>
	<time>2023-08-06T11:46:49.000Z</time>
</trkpt>
<trkpt lat="46.0781990" lon="10.4958440">
	<ele>1994.00</ele>
	<time>2023-08-06T11:46:50.000Z</time>
</trkpt>
<trkpt lat="46.0782000" lon="10.4958500">
	<ele>1994.00</ele>
	<time>2023-08-06T11:46:51.000Z</time>
</trkpt>
<trkpt lat="46.0781990" lon="10.4958530">
	<ele>1994.00</ele>
	<time>2023-08-06T11:46:52.000Z</time>
</trkpt>
<trkpt lat="46.0782000" lon="10.4958600">
	<ele>1994.00</ele>
	<time>2023-08-06T11:46:53.000Z</time>
</trkpt>
<trkpt lat="46.0782040" lon="10.4958700">
	<ele>1994.00</ele>
	<time>2023-08-06T11:46:54.000Z</time>
</trkpt>
<trkpt lat="46.0782050" lon="10.4958770">
	<ele>1994.00</ele>
	<time>2023-08-06T11:46:55.000Z</time>
</trkpt>
<trkpt lat="46.0782030" lon="10.4958860">
	<ele>1994.00</ele>
	<time>2023-08-06T11:46:56.000Z</time>
</trkpt>
<trkpt lat="46.0782030" lon="10.4958970">
	<ele>1994.00</ele>
	<time>2023-08-06T11:46:57.000Z</time>
</trkpt>
<trkpt lat="46.0782070" lon="10.4959100">
	<ele>1994.00</ele>
	<time>2023-08-06T11:46:58.000Z</time>
</trkpt>
<trkpt lat="46.0782090" lon="10.4959160">
	<ele>1994.00</ele>
	<time>2023-08-06T11:46:59.000Z</time>
</trkpt>
<trkpt lat="46.0782120" lon="10.4959200">
	<ele>1994.00</ele>
	<time>2023-08-06T11:47:00.000Z</time>
</trkpt>
<trkpt lat="46.0782120" lon="10.4959170">
	<ele>1994.00</ele>
	<time>2023-08-06T11:47:01.000Z</time>
</trkpt>
<trkpt lat="46.0782130" lon="10.4959130">
	<ele>1994.00</ele>
	<time>2023-08-06T11:47:02.000Z</time>
</trkpt>
<trkpt lat="46.0782210" lon="10.4959180">
	<ele>1994.00</ele>
	<time>2023-08-06T11:47:03.000Z</time>
</trkpt>
<trkpt lat="46.0782290" lon="10.4959260">
	<ele>1994.00</ele>
	<time>2023-08-06T11:47:04.000Z</time>
</trkpt>
<trkpt lat="46.0782220" lon="10.4959150">
	<ele>1994.00</ele>
	<time>2023-08-06T11:47:05.000Z</time>
</trkpt>
<trkpt lat="46.0782210" lon="10.4959110">
	<ele>1994.00</ele>
	<time>2023-08-06T11:47:06.000Z</time>
</trkpt>
<trkpt lat="46.0782270" lon="10.4959150">
	<ele>1993.80</ele>
	<time>2023-08-06T11:47:07.000Z</time>
</trkpt>
<trkpt lat="46.0782280" lon="10.4959180">
	<ele>1993.80</ele>
	<time>2023-08-06T11:47:08.000Z</time>
</trkpt>
<trkpt lat="46.0782260" lon="10.4959180">
	<ele>1993.80</ele>
	<time>2023-08-06T11:47:09.000Z</time>
</trkpt>
<trkpt lat="46.0782230" lon="10.4959150">
	<ele>1993.80</ele>
	<time>2023-08-06T11:47:10.000Z</time>
</trkpt>
<trkpt lat="46.0782180" lon="10.4959110">
	<ele>1993.80</ele>
	<time>2023-08-06T11:47:11.000Z</time>
</trkpt>
<trkpt lat="46.0782140" lon="10.4959090">
	<ele>1993.60</ele>
	<time>2023-08-06T11:47:12.000Z</time>
</trkpt>
<trkpt lat="46.0782120" lon="10.4959080">
	<ele>1993.60</ele>
	<time>2023-08-06T11:47:13.000Z</time>
</trkpt>
<trkpt lat="46.0782070" lon="10.4959020">
	<ele>1993.40</ele>
	<time>2023-08-06T11:47:14.000Z</time>
</trkpt>
<trkpt lat="46.0781990" lon="10.4958900">
	<ele>1993.40</ele>
	<time>2023-08-06T11:47:15.000Z</time>
</trkpt>
<trkpt lat="46.0781920" lon="10.4958850">
	<ele>1993.40</ele>
	<time>2023-08-06T11:47:16.000Z</time>
</trkpt>
<trkpt lat="46.0781850" lon="10.4958830">
	<ele>1993.40</ele>
	<time>2023-08-06T11:47:17.000Z</time>
</trkpt>
<trkpt lat="46.0781740" lon="10.4958770">
	<ele>1993.40</ele>
	<time>2023-08-06T11:47:18.000Z</time>
</trkpt>
<trkpt lat="46.0781570" lon="10.4958620">
	<ele>1993.40</ele>
	<time>2023-08-06T11:47:19.000Z</time>
</trkpt>
<trkpt lat="46.0781440" lon="10.4958440">
	<ele>1993.40</ele>
	<time>2023-08-06T11:47:20.000Z</time>
</trkpt>
<trkpt lat="46.0781480" lon="10.4958390">
	<ele>1993.40</ele>
	<time>2023-08-06T11:47:21.000Z</time>
</trkpt>
<trkpt lat="46.0781450" lon="10.4958300">
	<ele>1993.20</ele>
	<time>2023-08-06T11:47:22.000Z</time>
</trkpt>
<trkpt lat="46.0781350" lon="10.4958170">
	<ele>1993.20</ele>
	<time>2023-08-06T11:47:23.000Z</time>
</trkpt>
<trkpt lat="46.0781350" lon="10.4958240">
	<ele>1993.20</ele>
	<time>2023-08-06T11:47:24.000Z</time>
</trkpt>
<trkpt lat="46.0781340" lon="10.4958000">
	<ele>1993.20</ele>
	<time>2023-08-06T11:47:25.000Z</time>
</trkpt>
<trkpt lat="46.0781460" lon="10.4957960">
	<ele>1993.20</ele>
	<time>2023-08-06T11:47:26.000Z</time>
</trkpt>
<trkpt lat="46.0781550" lon="10.4957910">
	<ele>1993.20</ele>
	<time>2023-08-06T11:47:27.000Z</time>
</trkpt>
<trkpt lat="46.0781580" lon="10.4957910">
	<ele>1993.20</ele>
	<time>2023-08-06T11:47:28.000Z</time>
</trkpt>
<trkpt lat="46.0781620" lon="10.4957950">
	<ele>1993.40</ele>
	<time>2023-08-06T11:47:29.000Z</time>
</trkpt>
<trkpt lat="46.0781580" lon="10.4957890">
	<ele>1993.60</ele>
	<time>2023-08-06T11:47:30.000Z</time>
</trkpt>
<trkpt lat="46.0781570" lon="10.4957910">
	<ele>1993.60</ele>
	<time>2023-08-06T11:47:31.000Z</time>
</trkpt>
<trkpt lat="46.0781590" lon="10.4957860">
	<ele>1993.60</ele>
	<time>2023-08-06T11:47:32.000Z</time>
</trkpt>
<trkpt lat="46.0781610" lon="10.4957770">
	<ele>1993.60</ele>
	<time>2023-08-06T11:47:33.000Z</time>
</trkpt>
<trkpt lat="46.0781640" lon="10.4957770">
	<ele>1993.60</ele>
	<time>2023-08-06T11:47:34.000Z</time>
</trkpt>
<trkpt lat="46.0781660" lon="10.4957770">
	<ele>1993.60</ele>
	<time>2023-08-06T11:47:35.000Z</time>
</trkpt>
<trkpt lat="46.0781680" lon="10.4957740">
	<ele>1993.60</ele>
	<time>2023-08-06T11:47:36.000Z</time>
</trkpt>
<trkpt lat="46.0781670" lon="10.4957700">
	<ele>1993.40</ele>
	<time>2023-08-06T11:47:37.000Z</time>
</trkpt>
<trkpt lat="46.0781650" lon="10.4957590">
	<ele>1993.40</ele>
	<time>2023-08-06T11:47:38.000Z</time>
</trkpt>
<trkpt lat="46.0781630" lon="10.4957500">
	<ele>1993.40</ele>
	<time>2023-08-06T11:47:39.000Z</time>
</trkpt>
<trkpt lat="46.0781720" lon="10.4957570">
	<ele>1993.40</ele>
	<time>2023-08-06T11:47:40.000Z</time>
</trkpt>
<trkpt lat="46.0781830" lon="10.4957630">
	<ele>1993.40</ele>
	<time>2023-08-06T11:47:41.000Z</time>
</trkpt>
<trkpt lat="46.0781950" lon="10.4957670">
	<ele>1993.40</ele>
	<time>2023-08-06T11:47:42.000Z</time>
</trkpt>
<trkpt lat="46.0782110" lon="10.4957750">
	<ele>1993.60</ele>
	<time>2023-08-06T11:47:43.000Z</time>
</trkpt>
<trkpt lat="46.0782390" lon="10.4957820">
	<ele>1993.60</ele>
	<time>2023-08-06T11:47:44.000Z</time>
</trkpt>
<trkpt lat="46.0782720" lon="10.4957930">
	<ele>1993.60</ele>
	<time>2023-08-06T11:47:45.000Z</time>
</trkpt>
<trkpt lat="46.0783040" lon="10.4957980">
	<ele>1993.60</ele>
	<time>2023-08-06T11:47:46.000Z</time>
</trkpt>
<trkpt lat="46.0783140" lon="10.4957900">
	<ele>1993.60</ele>
	<time>2023-08-06T11:47:47.000Z</time>
</trkpt>
<trkpt lat="46.0782850" lon="10.4957690">
	<ele>1993.80</ele>
	<time>2023-08-06T11:47:48.000Z</time>
</trkpt>
<trkpt lat="46.0782830" lon="10.4957720">
	<ele>1993.80</ele>
	<time>2023-08-06T11:47:49.000Z</time>
</trkpt>
<trkpt lat="46.0782990" lon="10.4957990">
	<ele>1994.40</ele>
	<time>2023-08-06T11:47:50.000Z</time>
</trkpt>
<trkpt lat="46.0783220" lon="10.4958190">
	<ele>1994.40</ele>
	<time>2023-08-06T11:47:51.000Z</time>
</trkpt>
<trkpt lat="46.0783270" lon="10.4958240">
	<ele>1994.40</ele>
	<time>2023-08-06T11:47:52.000Z</time>
</trkpt>
<trkpt lat="46.0783290" lon="10.4958250">
	<ele>1994.40</ele>
	<time>2023-08-06T11:47:53.000Z</time>
</trkpt>
<trkpt lat="46.0783310" lon="10.4958250">
	<ele>1994.40</ele>
	<time>2023-08-06T11:47:54.000Z</time>
</trkpt>
<trkpt lat="46.0783320" lon="10.4958250">
	<ele>1994.40</ele>
	<time>2023-08-06T11:47:55.000Z</time>
</trkpt>
<trkpt lat="46.0783330" lon="10.4958260">
	<ele>1994.40</ele>
	<time>2023-08-06T11:47:56.000Z</time>
</trkpt>
<trkpt lat="46.0783340" lon="10.4958260">
	<ele>1994.40</ele>
	<time>2023-08-06T11:47:57.000Z</time>
</trkpt>
<trkpt lat="46.0783380" lon="10.4958270">
	<ele>1994.40</ele>
	<time>2023-08-06T11:47:58.000Z</time>
</trkpt>
<trkpt lat="46.0783350" lon="10.4958270">
	<ele>1994.40</ele>
	<time>2023-08-06T11:47:59.000Z</time>
</trkpt>
<trkpt lat="46.0783420" lon="10.4958380">
	<ele>1994.40</ele>
	<time>2023-08-06T11:48:00.000Z</time>
</trkpt>
<trkpt lat="46.0783440" lon="10.4958380">
	<ele>1994.40</ele>
	<time>2023-08-06T11:48:01.000Z</time>
</trkpt>
<trkpt lat="46.0783540" lon="10.4958470">
	<ele>1994.40</ele>
	<time>2023-08-06T11:48:02.000Z</time>
</trkpt>
<trkpt lat="46.0783640" lon="10.4958610">
	<ele>1994.40</ele>
	<time>2023-08-06T11:48:03.000Z</time>
</trkpt>
<trkpt lat="46.0783710" lon="10.4958720">
	<ele>1994.40</ele>
	<time>2023-08-06T11:48:04.000Z</time>
</trkpt>
<trkpt lat="46.0783830" lon="10.4958830">
	<ele>1994.40</ele>
	<time>2023-08-06T11:48:05.000Z</time>
</trkpt>
<trkpt lat="46.0784050" lon="10.4958990">
	<ele>1994.40</ele>
	<time>2023-08-06T11:48:06.000Z</time>
</trkpt>
<trkpt lat="46.0784230" lon="10.4959130">
	<ele>1994.40</ele>
	<time>2023-08-06T11:48:07.000Z</time>
</trkpt>
<trkpt lat="46.0784390" lon="10.4959330">
	<ele>1994.40</ele>
	<time>2023-08-06T11:48:08.000Z</time>
</trkpt>
<trkpt lat="46.0784500" lon="10.4959440">
	<ele>1994.40</ele>
	<time>2023-08-06T11:48:09.000Z</time>
</trkpt>
<trkpt lat="46.0784530" lon="10.4959690">
	<ele>1994.40</ele>
	<time>2023-08-06T11:48:10.000Z</time>
</trkpt>
<trkpt lat="46.0784550" lon="10.4959770">
	<ele>1994.40</ele>
	<time>2023-08-06T11:48:11.000Z</time>
</trkpt>
<trkpt lat="46.0784510" lon="10.4959960">
	<ele>1994.40</ele>
	<time>2023-08-06T11:48:12.000Z</time>
</trkpt>
<trkpt lat="46.0784540" lon="10.4960080">
	<ele>1994.40</ele>
	<time>2023-08-06T11:48:13.000Z</time>
</trkpt>
<trkpt lat="46.0784590" lon="10.4960260">
	<ele>1994.40</ele>
	<time>2023-08-06T11:48:14.000Z</time>
</trkpt>
<trkpt lat="46.0784650" lon="10.4960360">
	<ele>1994.40</ele>
	<time>2023-08-06T11:48:15.000Z</time>
</trkpt>
<trkpt lat="46.0784680" lon="10.4960480">
	<ele>1994.40</ele>
	<time>2023-08-06T11:48:16.000Z</time>
</trkpt>
<trkpt lat="46.0784750" lon="10.4960620">
	<ele>1994.40</ele>
	<time>2023-08-06T11:48:17.000Z</time>
</trkpt>
<trkpt lat="46.0784800" lon="10.4960760">
	<ele>1994.40</ele>
	<time>2023-08-06T11:48:18.000Z</time>
</trkpt>
<trkpt lat="46.0784850" lon="10.4960900">
	<ele>1994.40</ele>
	<time>2023-08-06T11:48:19.000Z</time>
</trkpt>
<trkpt lat="46.0784890" lon="10.4961000">
	<ele>1994.40</ele>
	<time>2023-08-06T11:48:20.000Z</time>
</trkpt>
<trkpt lat="46.0784950" lon="10.4961080">
	<ele>1994.40</ele>
	<time>2023-08-06T11:48:21.000Z</time>
</trkpt>
<trkpt lat="46.0784990" lon="10.4961190">
	<ele>1994.40</ele>
	<time>2023-08-06T11:48:22.000Z</time>
</trkpt>
<trkpt lat="46.0784980" lon="10.4961310">
	<ele>1994.40</ele>
	<time>2023-08-06T11:48:23.000Z</time>
</trkpt>
<trkpt lat="46.0785030" lon="10.4961440">
	<ele>1994.40</ele>
	<time>2023-08-06T11:48:24.000Z</time>
</trkpt>
<trkpt lat="46.0785090" lon="10.4961520">
	<ele>1994.40</ele>
	<time>2023-08-06T11:48:25.000Z</time>
</trkpt>
<trkpt lat="46.0785160" lon="10.4961630">
	<ele>1994.40</ele>
	<time>2023-08-06T11:48:26.000Z</time>
</trkpt>
<trkpt lat="46.0785200" lon="10.4961770">
	<ele>1994.40</ele>
	<time>2023-08-06T11:48:27.000Z</time>
</trkpt>
<trkpt lat="46.0785270" lon="10.4961900">
	<ele>1994.40</ele>
	<time>2023-08-06T11:48:28.000Z</time>
</trkpt>
<trkpt lat="46.0785360" lon="10.4962010">
	<ele>1994.40</ele>
	<time>2023-08-06T11:48:29.000Z</time>
</trkpt>
<trkpt lat="46.0785470" lon="10.4962110">
	<ele>1994.40</ele>
	<time>2023-08-06T11:48:30.000Z</time>
</trkpt>
<trkpt lat="46.0785560" lon="10.4962210">
	<ele>1994.40</ele>
	<time>2023-08-06T11:48:31.000Z</time>
</trkpt>
<trkpt lat="46.0785680" lon="10.4962270">
	<ele>1994.40</ele>
	<time>2023-08-06T11:48:32.000Z</time>
</trkpt>
<trkpt lat="46.0785770" lon="10.4962360">
	<ele>1994.40</ele>
	<time>2023-08-06T11:48:33.000Z</time>
</trkpt>
<trkpt lat="46.0785860" lon="10.4962460">
	<ele>1994.40</ele>
	<time>2023-08-06T11:48:34.000Z</time>
</trkpt>
<trkpt lat="46.0785920" lon="10.4962560">
	<ele>1994.40</ele>
	<time>2023-08-06T11:48:35.000Z</time>
</trkpt>
<trkpt lat="46.0785980" lon="10.4962680">
	<ele>1994.40</ele>
	<time>2023-08-06T11:48:36.000Z</time>
</trkpt>
<trkpt lat="46.0786060" lon="10.4962800">
	<ele>1994.40</ele>
	<time>2023-08-06T11:48:37.000Z</time>
</trkpt>
<trkpt lat="46.0786110" lon="10.4962930">
	<ele>1994.40</ele>
	<time>2023-08-06T11:48:38.000Z</time>
</trkpt>
<trkpt lat="46.0786170" lon="10.4963070">
	<ele>1994.40</ele>
	<time>2023-08-06T11:48:39.000Z</time>
</trkpt>
<trkpt lat="46.0786220" lon="10.4963200">
	<ele>1994.40</ele>
	<time>2023-08-06T11:48:40.000Z</time>
</trkpt>
<trkpt lat="46.0786260" lon="10.4963380">
	<ele>1994.40</ele>
	<time>2023-08-06T11:48:41.000Z</time>
</trkpt>
<trkpt lat="46.0786290" lon="10.4963590">
	<ele>1994.60</ele>
	<time>2023-08-06T11:48:42.000Z</time>
</trkpt>
<trkpt lat="46.0786320" lon="10.4963720">
	<ele>1994.80</ele>
	<time>2023-08-06T11:48:43.000Z</time>
</trkpt>
<trkpt lat="46.0786330" lon="10.4963850">
	<ele>1995.00</ele>
	<time>2023-08-06T11:48:44.000Z</time>
</trkpt>
<trkpt lat="46.0786340" lon="10.4964000">
	<ele>1995.00</ele>
	<time>2023-08-06T11:48:45.000Z</time>
</trkpt>
<trkpt lat="46.0786400" lon="10.4964150">
	<ele>1995.00</ele>
	<time>2023-08-06T11:48:46.000Z</time>
</trkpt>
<trkpt lat="46.0786460" lon="10.4964310">
	<ele>1995.00</ele>
	<time>2023-08-06T11:48:47.000Z</time>
</trkpt>
<trkpt lat="46.0786520" lon="10.4964420">
	<ele>1995.20</ele>
	<time>2023-08-06T11:48:48.000Z</time>
</trkpt>
<trkpt lat="46.0786580" lon="10.4964530">
	<ele>1995.20</ele>
	<time>2023-08-06T11:48:49.000Z</time>
</trkpt>
<trkpt lat="46.0786640" lon="10.4964700">
	<ele>1995.20</ele>
	<time>2023-08-06T11:48:50.000Z</time>
</trkpt>
<trkpt lat="46.0786710" lon="10.4964830">
	<ele>1995.00</ele>
	<time>2023-08-06T11:48:51.000Z</time>
</trkpt>
<trkpt lat="46.0786760" lon="10.4964960">
	<ele>1995.00</ele>
	<time>2023-08-06T11:48:52.000Z</time>
</trkpt>
<trkpt lat="46.0786790" lon="10.4965050">
	<ele>1995.00</ele>
	<time>2023-08-06T11:48:53.000Z</time>
</trkpt>
<trkpt lat="46.0786820" lon="10.4965140">
	<ele>1995.00</ele>
	<time>2023-08-06T11:48:54.000Z</time>
</trkpt>
<trkpt lat="46.0786870" lon="10.4965240">
	<ele>1995.00</ele>
	<time>2023-08-06T11:48:55.000Z</time>
</trkpt>
<trkpt lat="46.0786910" lon="10.4965340">
	<ele>1995.00</ele>
	<time>2023-08-06T11:48:56.000Z</time>
</trkpt>
<trkpt lat="46.0786980" lon="10.4965470">
	<ele>1995.00</ele>
	<time>2023-08-06T11:48:57.000Z</time>
</trkpt>
<trkpt lat="46.0787080" lon="10.4965600">
	<ele>1995.20</ele>
	<time>2023-08-06T11:48:58.000Z</time>
</trkpt>
<trkpt lat="46.0787150" lon="10.4965710">
	<ele>1995.20</ele>
	<time>2023-08-06T11:48:59.000Z</time>
</trkpt>
<trkpt lat="46.0787190" lon="10.4965830">
	<ele>1995.20</ele>
	<time>2023-08-06T11:49:00.000Z</time>
</trkpt>
<trkpt lat="46.0787280" lon="10.4965960">
	<ele>1995.20</ele>
	<time>2023-08-06T11:49:01.000Z</time>
</trkpt>
<trkpt lat="46.0787360" lon="10.4966050">
	<ele>1995.20</ele>
	<time>2023-08-06T11:49:02.000Z</time>
</trkpt>
<trkpt lat="46.0787430" lon="10.4966130">
	<ele>1995.40</ele>
	<time>2023-08-06T11:49:03.000Z</time>
</trkpt>
<trkpt lat="46.0787520" lon="10.4966240">
	<ele>1995.40</ele>
	<time>2023-08-06T11:49:04.000Z</time>
</trkpt>
<trkpt lat="46.0787590" lon="10.4966370">
	<ele>1995.40</ele>
	<time>2023-08-06T11:49:05.000Z</time>
</trkpt>
<trkpt lat="46.0787690" lon="10.4966540">
	<ele>1995.40</ele>
	<time>2023-08-06T11:49:06.000Z</time>
</trkpt>
<trkpt lat="46.0787790" lon="10.4966710">
	<ele>1995.20</ele>
	<time>2023-08-06T11:49:07.000Z</time>
</trkpt>
<trkpt lat="46.0787870" lon="10.4966810">
	<ele>1995.20</ele>
	<time>2023-08-06T11:49:08.000Z</time>
</trkpt>
<trkpt lat="46.0787950" lon="10.4966940">
	<ele>1995.20</ele>
	<time>2023-08-06T11:49:09.000Z</time>
</trkpt>
<trkpt lat="46.0788030" lon="10.4967040">
	<ele>1995.20</ele>
	<time>2023-08-06T11:49:10.000Z</time>
</trkpt>
<trkpt lat="46.0788120" lon="10.4967160">
	<ele>1995.00</ele>
	<time>2023-08-06T11:49:11.000Z</time>
</trkpt>
<trkpt lat="46.0788170" lon="10.4967320">
	<ele>1995.00</ele>
	<time>2023-08-06T11:49:12.000Z</time>
</trkpt>
<trkpt lat="46.0788240" lon="10.4967470">
	<ele>1995.00</ele>
	<time>2023-08-06T11:49:13.000Z</time>
</trkpt>
<trkpt lat="46.0788310" lon="10.4967550">
	<ele>1995.20</ele>
	<time>2023-08-06T11:49:14.000Z</time>
</trkpt>
<trkpt lat="46.0788370" lon="10.4967620">
	<ele>1995.20</ele>
	<time>2023-08-06T11:49:15.000Z</time>
</trkpt>
<trkpt lat="46.0788450" lon="10.4967770">
	<ele>1995.40</ele>
	<time>2023-08-06T11:49:16.000Z</time>
</trkpt>
<trkpt lat="46.0788510" lon="10.4967930">
	<ele>1995.40</ele>
	<time>2023-08-06T11:49:17.000Z</time>
</trkpt>
<trkpt lat="46.0788570" lon="10.4968050">
	<ele>1995.40</ele>
	<time>2023-08-06T11:49:18.000Z</time>
</trkpt>
<trkpt lat="46.0788610" lon="10.4968140">
	<ele>1995.60</ele>
	<time>2023-08-06T11:49:19.000Z</time>
</trkpt>
<trkpt lat="46.0788660" lon="10.4968270">
	<ele>1995.60</ele>
	<time>2023-08-06T11:49:20.000Z</time>
</trkpt>
<trkpt lat="46.0788690" lon="10.4968430">
	<ele>1995.60</ele>
	<time>2023-08-06T11:49:21.000Z</time>
</trkpt>
<trkpt lat="46.0788720" lon="10.4968550">
	<ele>1995.40</ele>
	<time>2023-08-06T11:49:22.000Z</time>
</trkpt>
<trkpt lat="46.0788740" lon="10.4968660">
	<ele>1995.20</ele>
	<time>2023-08-06T11:49:23.000Z</time>
</trkpt>
<trkpt lat="46.0788770" lon="10.4968820">
	<ele>1995.20</ele>
	<time>2023-08-06T11:49:24.000Z</time>
</trkpt>
<trkpt lat="46.0788790" lon="10.4968980">
	<ele>1995.00</ele>
	<time>2023-08-06T11:49:25.000Z</time>
</trkpt>
<trkpt lat="46.0788800" lon="10.4969170">
	<ele>1995.00</ele>
	<time>2023-08-06T11:49:26.000Z</time>
</trkpt>
<trkpt lat="46.0788810" lon="10.4969320">
	<ele>1995.00</ele>
	<time>2023-08-06T11:49:27.000Z</time>
</trkpt>
<trkpt lat="46.0788820" lon="10.4969410">
	<ele>1995.00</ele>
	<time>2023-08-06T11:49:28.000Z</time>
</trkpt>
<trkpt lat="46.0788810" lon="10.4969540">
	<ele>1995.00</ele>
	<time>2023-08-06T11:49:29.000Z</time>
</trkpt>
<trkpt lat="46.0788820" lon="10.4969730">
	<ele>1995.00</ele>
	<time>2023-08-06T11:49:30.000Z</time>
</trkpt>
<trkpt lat="46.0788830" lon="10.4969900">
	<ele>1995.00</ele>
	<time>2023-08-06T11:49:31.000Z</time>
</trkpt>
<trkpt lat="46.0788810" lon="10.4970060">
	<ele>1995.00</ele>
	<time>2023-08-06T11:49:32.000Z</time>
</trkpt>
<trkpt lat="46.0788870" lon="10.4970230">
	<ele>1995.00</ele>
	<time>2023-08-06T11:49:33.000Z</time>
</trkpt>
<trkpt lat="46.0788960" lon="10.4970410">
	<ele>1995.00</ele>
	<time>2023-08-06T11:49:34.000Z</time>
</trkpt>
<trkpt lat="46.0789000" lon="10.4970580">
	<ele>1994.80</ele>
	<time>2023-08-06T11:49:35.000Z</time>
</trkpt>
<trkpt lat="46.0789020" lon="10.4970710">
	<ele>1994.60</ele>
	<time>2023-08-06T11:49:36.000Z</time>
</trkpt>
<trkpt lat="46.0789030" lon="10.4970850">
	<ele>1994.60</ele>
	<time>2023-08-06T11:49:37.000Z</time>
</trkpt>
<trkpt lat="46.0789090" lon="10.4971000">
	<ele>1994.60</ele>
	<time>2023-08-06T11:49:38.000Z</time>
</trkpt>
<trkpt lat="46.0789150" lon="10.4971180">
	<ele>1994.40</ele>
	<time>2023-08-06T11:49:39.000Z</time>
</trkpt>
<trkpt lat="46.0789210" lon="10.4971370">
	<ele>1994.40</ele>
	<time>2023-08-06T11:49:40.000Z</time>
</trkpt>
<trkpt lat="46.0789270" lon="10.4971540">
	<ele>1994.40</ele>
	<time>2023-08-06T11:49:41.000Z</time>
</trkpt>
<trkpt lat="46.0789340" lon="10.4971700">
	<ele>1994.40</ele>
	<time>2023-08-06T11:49:42.000Z</time>
</trkpt>
<trkpt lat="46.0789390" lon="10.4971860">
	<ele>1994.40</ele>
	<time>2023-08-06T11:49:43.000Z</time>
</trkpt>
<trkpt lat="46.0789410" lon="10.4971980">
	<ele>1994.60</ele>
	<time>2023-08-06T11:49:44.000Z</time>
</trkpt>
<trkpt lat="46.0789420" lon="10.4972090">
	<ele>1994.60</ele>
	<time>2023-08-06T11:49:45.000Z</time>
</trkpt>
<trkpt lat="46.0789490" lon="10.4972270">
	<ele>1994.80</ele>
	<time>2023-08-06T11:49:46.000Z</time>
</trkpt>
<trkpt lat="46.0789620" lon="10.4972490">
	<ele>1994.80</ele>
	<time>2023-08-06T11:49:47.000Z</time>
</trkpt>
<trkpt lat="46.0789730" lon="10.4972670">
	<ele>1994.80</ele>
	<time>2023-08-06T11:49:48.000Z</time>
</trkpt>
<trkpt lat="46.0789900" lon="10.4972880">
	<ele>1994.80</ele>
	<time>2023-08-06T11:49:49.000Z</time>
</trkpt>
<trkpt lat="46.0789980" lon="10.4972980">
	<ele>1994.80</ele>
	<time>2023-08-06T11:49:50.000Z</time>
</trkpt>
<trkpt lat="46.0790030" lon="10.4973100">
	<ele>1994.80</ele>
	<time>2023-08-06T11:49:51.000Z</time>
</trkpt>
<trkpt lat="46.0790060" lon="10.4973190">
	<ele>1994.80</ele>
	<time>2023-08-06T11:49:52.000Z</time>
</trkpt>
<trkpt lat="46.0790170" lon="10.4973390">
	<ele>1994.80</ele>
	<time>2023-08-06T11:49:53.000Z</time>
</trkpt>
<trkpt lat="46.0790110" lon="10.4973500">
	<ele>1994.80</ele>
	<time>2023-08-06T11:49:54.000Z</time>
</trkpt>
<trkpt lat="46.0790190" lon="10.4973640">
	<ele>1994.80</ele>
	<time>2023-08-06T11:49:55.000Z</time>
</trkpt>
<trkpt lat="46.0790280" lon="10.4973770">
	<ele>1994.80</ele>
	<time>2023-08-06T11:49:56.000Z</time>
</trkpt>
<trkpt lat="46.0790310" lon="10.4973870">
	<ele>1994.80</ele>
	<time>2023-08-06T11:49:57.000Z</time>
</trkpt>
<trkpt lat="46.0790380" lon="10.4974070">
	<ele>1994.80</ele>
	<time>2023-08-06T11:49:58.000Z</time>
</trkpt>
<trkpt lat="46.0790430" lon="10.4974170">
	<ele>1995.00</ele>
	<time>2023-08-06T11:49:59.000Z</time>
</trkpt>
<trkpt lat="46.0790450" lon="10.4974300">
	<ele>1995.00</ele>
	<time>2023-08-06T11:50:00.000Z</time>
</trkpt>
<trkpt lat="46.0790400" lon="10.4974360">
	<ele>1995.00</ele>
	<time>2023-08-06T11:50:01.000Z</time>
</trkpt>
<trkpt lat="46.0790420" lon="10.4974450">
	<ele>1995.00</ele>
	<time>2023-08-06T11:50:02.000Z</time>
</trkpt>
<trkpt lat="46.0790340" lon="10.4974470">
	<ele>1995.00</ele>
	<time>2023-08-06T11:50:03.000Z</time>
</trkpt>
<trkpt lat="46.0790310" lon="10.4974510">
	<ele>1995.20</ele>
	<time>2023-08-06T11:50:04.000Z</time>
</trkpt>
<trkpt lat="46.0790190" lon="10.4974500">
	<ele>1995.20</ele>
	<time>2023-08-06T11:50:05.000Z</time>
</trkpt>
<trkpt lat="46.0790090" lon="10.4974420">
	<ele>1995.20</ele>
	<time>2023-08-06T11:50:06.000Z</time>
</trkpt>
<trkpt lat="46.0790040" lon="10.4974320">
	<ele>1995.20</ele>
	<time>2023-08-06T11:50:07.000Z</time>
</trkpt>
<trkpt lat="46.0789940" lon="10.4974280">
	<ele>1995.20</ele>
	<time>2023-08-06T11:50:08.000Z</time>
</trkpt>
<trkpt lat="46.0789870" lon="10.4974340">
	<ele>1995.20</ele>
	<time>2023-08-06T11:50:09.000Z</time>
</trkpt>
<trkpt lat="46.0789840" lon="10.4974450">
	<ele>1995.20</ele>
	<time>2023-08-06T11:50:10.000Z</time>
</trkpt>
<trkpt lat="46.0789850" lon="10.4974510">
	<ele>1995.00</ele>
	<time>2023-08-06T11:50:11.000Z</time>
</trkpt>
<trkpt lat="46.0789890" lon="10.4974600">
	<ele>1994.80</ele>
	<time>2023-08-06T11:50:12.000Z</time>
</trkpt>
<trkpt lat="46.0789880" lon="10.4974680">
	<ele>1994.60</ele>
	<time>2023-08-06T11:50:13.000Z</time>
</trkpt>
<trkpt lat="46.0789850" lon="10.4974780">
	<ele>1994.40</ele>
	<time>2023-08-06T11:50:14.000Z</time>
</trkpt>
<trkpt lat="46.0789780" lon="10.4974840">
	<ele>1994.20</ele>
	<time>2023-08-06T11:50:15.000Z</time>
</trkpt>
<trkpt lat="46.0789740" lon="10.4974970">
	<ele>1994.00</ele>
	<time>2023-08-06T11:50:16.000Z</time>
</trkpt>
<trkpt lat="46.0789720" lon="10.4975070">
	<ele>1993.80</ele>
	<time>2023-08-06T11:50:17.000Z</time>
</trkpt>
<trkpt lat="46.0789690" lon="10.4975160">
	<ele>1993.60</ele>
	<time>2023-08-06T11:50:18.000Z</time>
</trkpt>
<trkpt lat="46.0789650" lon="10.4975180">
	<ele>1993.40</ele>
	<time>2023-08-06T11:50:19.000Z</time>
</trkpt>
<trkpt lat="46.0789610" lon="10.4975260">
	<ele>1993.20</ele>
	<time>2023-08-06T11:50:20.000Z</time>
</trkpt>
<trkpt lat="46.0789620" lon="10.4975380">
	<ele>1993.20</ele>
	<time>2023-08-06T11:50:21.000Z</time>
</trkpt>
<trkpt lat="46.0789690" lon="10.4975560">
	<ele>1993.00</ele>
	<time>2023-08-06T11:50:22.000Z</time>
</trkpt>
<trkpt lat="46.0789790" lon="10.4975760">
	<ele>1992.80</ele>
	<time>2023-08-06T11:50:23.000Z</time>
</trkpt>
<trkpt lat="46.0789760" lon="10.4975840">
	<ele>1992.60</ele>
	<time>2023-08-06T11:50:24.000Z</time>
</trkpt>
<trkpt lat="46.0789660" lon="10.4975870">
	<ele>1992.40</ele>
	<time>2023-08-06T11:50:25.000Z</time>
</trkpt>
<trkpt lat="46.0789700" lon="10.4975990">
	<ele>1992.20</ele>
	<time>2023-08-06T11:50:26.000Z</time>
</trkpt>
<trkpt lat="46.0789700" lon="10.4976090">
	<ele>1991.80</ele>
	<time>2023-08-06T11:50:27.000Z</time>
</trkpt>
<trkpt lat="46.0789610" lon="10.4976070">
	<ele>1991.80</ele>
	<time>2023-08-06T11:50:28.000Z</time>
</trkpt>
<trkpt lat="46.0789560" lon="10.4976060">
	<ele>1991.40</ele>
	<time>2023-08-06T11:50:29.000Z</time>
</trkpt>
<trkpt lat="46.0789540" lon="10.4976050">
	<ele>1991.20</ele>
	<time>2023-08-06T11:50:30.000Z</time>
</trkpt>
<trkpt lat="46.0789570" lon="10.4976090">
	<ele>1991.00</ele>
	<time>2023-08-06T11:50:31.000Z</time>
</trkpt>
<trkpt lat="46.0789570" lon="10.4976140">
	<ele>1991.00</ele>
	<time>2023-08-06T11:50:32.000Z</time>
</trkpt>
<trkpt lat="46.0789660" lon="10.4976250">
	<ele>1990.60</ele>
	<time>2023-08-06T11:50:33.000Z</time>
</trkpt>
<trkpt lat="46.0789680" lon="10.4976330">
	<ele>1990.60</ele>
	<time>2023-08-06T11:50:34.000Z</time>
</trkpt>
<trkpt lat="46.0789650" lon="10.4976330">
	<ele>1990.40</ele>
	<time>2023-08-06T11:50:35.000Z</time>
</trkpt>
<trkpt lat="46.0789680" lon="10.4976340">
	<ele>1990.40</ele>
	<time>2023-08-06T11:50:36.000Z</time>
</trkpt>
<trkpt lat="46.0789780" lon="10.4976490">
	<ele>1990.60</ele>
	<time>2023-08-06T11:50:37.000Z</time>
</trkpt>
<trkpt lat="46.0789790" lon="10.4976480">
	<ele>1990.60</ele>
	<time>2023-08-06T11:50:38.000Z</time>
</trkpt>
<trkpt lat="46.0789860" lon="10.4976640">
	<ele>1990.60</ele>
	<time>2023-08-06T11:50:39.000Z</time>
</trkpt>
<trkpt lat="46.0789850" lon="10.4976650">
	<ele>1990.60</ele>
	<time>2023-08-06T11:50:40.000Z</time>
</trkpt>
<trkpt lat="46.0789820" lon="10.4976620">
	<ele>1990.40</ele>
	<time>2023-08-06T11:50:41.000Z</time>
</trkpt>
<trkpt lat="46.0789820" lon="10.4976630">
	<ele>1990.20</ele>
	<time>2023-08-06T11:50:42.000Z</time>
</trkpt>
<trkpt lat="46.0789810" lon="10.4976660">
	<ele>1990.00</ele>
	<time>2023-08-06T11:50:43.000Z</time>
</trkpt>
<trkpt lat="46.0789810" lon="10.4976680">
	<ele>1990.00</ele>
	<time>2023-08-06T11:50:44.000Z</time>
</trkpt>
<trkpt lat="46.0789800" lon="10.4976680">
	<ele>1990.00</ele>
	<time>2023-08-06T11:50:45.000Z</time>
</trkpt>
<trkpt lat="46.0789790" lon="10.4976680">
	<ele>1990.00</ele>
	<time>2023-08-06T11:50:46.000Z</time>
</trkpt>
<trkpt lat="46.0789920" lon="10.4976840">
	<ele>1990.20</ele>
	<time>2023-08-06T11:50:47.000Z</time>
</trkpt>
<trkpt lat="46.0789990" lon="10.4976930">
	<ele>1990.20</ele>
	<time>2023-08-06T11:50:48.000Z</time>
</trkpt>
<trkpt lat="46.0790060" lon="10.4976960">
	<ele>1990.20</ele>
	<time>2023-08-06T11:50:49.000Z</time>
</trkpt>
<trkpt lat="46.0790090" lon="10.4976950">
	<ele>1990.20</ele>
	<time>2023-08-06T11:50:50.000Z</time>
</trkpt>
<trkpt lat="46.0790030" lon="10.4976930">
	<ele>1990.40</ele>
	<time>2023-08-06T11:50:51.000Z</time>
</trkpt>
<trkpt lat="46.0790010" lon="10.4976950">
	<ele>1990.20</ele>
	<time>2023-08-06T11:50:52.000Z</time>
</trkpt>
<trkpt lat="46.0789950" lon="10.4976950">
	<ele>1990.20</ele>
	<time>2023-08-06T11:50:53.000Z</time>
</trkpt>
<trkpt lat="46.0789890" lon="10.4976970">
	<ele>1990.00</ele>
	<time>2023-08-06T11:50:54.000Z</time>
</trkpt>
<trkpt lat="46.0789920" lon="10.4977080">
	<ele>1990.00</ele>
	<time>2023-08-06T11:50:55.000Z</time>
</trkpt>
<trkpt lat="46.0789890" lon="10.4977170">
	<ele>1989.80</ele>
	<time>2023-08-06T11:50:56.000Z</time>
</trkpt>
<trkpt lat="46.0789820" lon="10.4977210">
	<ele>1989.80</ele>
	<time>2023-08-06T11:50:57.000Z</time>
</trkpt>
<trkpt lat="46.0789750" lon="10.4977290">
	<ele>1989.80</ele>
	<time>2023-08-06T11:50:58.000Z</time>
</trkpt>
<trkpt lat="46.0789690" lon="10.4977330">
	<ele>1989.60</ele>
	<time>2023-08-06T11:50:59.000Z</time>
</trkpt>
<trkpt lat="46.0789660" lon="10.4977370">
	<ele>1989.40</ele>
	<time>2023-08-06T11:51:00.000Z</time>
</trkpt>
<trkpt lat="46.0789570" lon="10.4977450">
	<ele>1989.40</ele>
	<time>2023-08-06T11:51:01.000Z</time>
</trkpt>
<trkpt lat="46.0789490" lon="10.4977480">
	<ele>1989.20</ele>
	<time>2023-08-06T11:51:02.000Z</time>
</trkpt>
<trkpt lat="46.0789390" lon="10.4977530">
	<ele>1989.00</ele>
	<time>2023-08-06T11:51:03.000Z</time>
</trkpt>
<trkpt lat="46.0789290" lon="10.4977580">
	<ele>1988.80</ele>
	<time>2023-08-06T11:51:04.000Z</time>
</trkpt>
<trkpt lat="46.0789150" lon="10.4977610">
	<ele>1988.60</ele>
	<time>2023-08-06T11:51:05.000Z</time>
</trkpt>
<trkpt lat="46.0789080" lon="10.4977670">
	<ele>1988.40</ele>
	<time>2023-08-06T11:51:06.000Z</time>
</trkpt>
<trkpt lat="46.0789030" lon="10.4977730">
	<ele>1988.40</ele>
	<time>2023-08-06T11:51:07.000Z</time>
</trkpt>
<trkpt lat="46.0789020" lon="10.4977800">
	<ele>1988.20</ele>
	<time>2023-08-06T11:51:08.000Z</time>
</trkpt>
<trkpt lat="46.0788970" lon="10.4977870">
	<ele>1988.20</ele>
	<time>2023-08-06T11:51:09.000Z</time>
</trkpt>
<trkpt lat="46.0788940" lon="10.4977900">
	<ele>1988.00</ele>
	<time>2023-08-06T11:51:10.000Z</time>
</trkpt>
<trkpt lat="46.0788960" lon="10.4978020">
	<ele>1988.00</ele>
	<time>2023-08-06T11:51:11.000Z</time>
</trkpt>
<trkpt lat="46.0789000" lon="10.4978090">
	<ele>1988.00</ele>
	<time>2023-08-06T11:51:12.000Z</time>
</trkpt>
<trkpt lat="46.0788910" lon="10.4978070">
	<ele>1987.80</ele>
	<time>2023-08-06T11:51:13.000Z</time>
</trkpt>
<trkpt lat="46.0788860" lon="10.4978120">
	<ele>1987.60</ele>
	<time>2023-08-06T11:51:14.000Z</time>
</trkpt>
<trkpt lat="46.0788830" lon="10.4978210">
	<ele>1987.40</ele>
	<time>2023-08-06T11:51:15.000Z</time>
</trkpt>
<trkpt lat="46.0788790" lon="10.4978240">
	<ele>1987.20</ele>
	<time>2023-08-06T11:51:16.000Z</time>
</trkpt>
<trkpt lat="46.0788760" lon="10.4978250">
	<ele>1987.20</ele>
	<time>2023-08-06T11:51:17.000Z</time>
</trkpt>
<trkpt lat="46.0788770" lon="10.4978290">
	<ele>1987.00</ele>
	<time>2023-08-06T11:51:18.000Z</time>
</trkpt>
<trkpt lat="46.0788790" lon="10.4978320">
	<ele>1987.00</ele>
	<time>2023-08-06T11:51:19.000Z</time>
</trkpt>
<trkpt lat="46.0788770" lon="10.4978330">
	<ele>1987.00</ele>
	<time>2023-08-06T11:51:20.000Z</time>
</trkpt>
<trkpt lat="46.0788720" lon="10.4978350">
	<ele>1987.00</ele>
	<time>2023-08-06T11:51:21.000Z</time>
</trkpt>
<trkpt lat="46.0788680" lon="10.4978370">
	<ele>1987.00</ele>
	<time>2023-08-06T11:51:22.000Z</time>
</trkpt>
<trkpt lat="46.0788700" lon="10.4978520">
	<ele>1986.80</ele>
	<time>2023-08-06T11:51:23.000Z</time>
</trkpt>
<trkpt lat="46.0788720" lon="10.4978680">
	<ele>1986.80</ele>
	<time>2023-08-06T11:51:24.000Z</time>
</trkpt>
<trkpt lat="46.0788560" lon="10.4978690">
	<ele>1986.80</ele>
	<time>2023-08-06T11:51:25.000Z</time>
</trkpt>
<trkpt lat="46.0788420" lon="10.4978650">
	<ele>1986.80</ele>
	<time>2023-08-06T11:51:26.000Z</time>
</trkpt>
<trkpt lat="46.0788330" lon="10.4978740">
	<ele>1986.80</ele>
	<time>2023-08-06T11:51:27.000Z</time>
</trkpt>
<trkpt lat="46.0788250" lon="10.4978810">
	<ele>1986.80</ele>
	<time>2023-08-06T11:51:28.000Z</time>
</trkpt>
<trkpt lat="46.0788160" lon="10.4978840">
	<ele>1986.80</ele>
	<time>2023-08-06T11:51:29.000Z</time>
</trkpt>
<trkpt lat="46.0788100" lon="10.4978890">
	<ele>1986.80</ele>
	<time>2023-08-06T11:51:30.000Z</time>
</trkpt>
<trkpt lat="46.0788000" lon="10.4978900">
	<ele>1986.80</ele>
	<time>2023-08-06T11:51:31.000Z</time>
</trkpt>
<trkpt lat="46.0787920" lon="10.4978930">
	<ele>1987.00</ele>
	<time>2023-08-06T11:51:32.000Z</time>
</trkpt>
<trkpt lat="46.0787880" lon="10.4978940">
	<ele>1987.00</ele>
	<time>2023-08-06T11:51:33.000Z</time>
</trkpt>
<trkpt lat="46.0787900" lon="10.4978990">
	<ele>1987.00</ele>
	<time>2023-08-06T11:51:34.000Z</time>
</trkpt>
<trkpt lat="46.0787950" lon="10.4979090">
	<ele>1987.20</ele>
	<time>2023-08-06T11:51:35.000Z</time>
</trkpt>
<trkpt lat="46.0787990" lon="10.4979180">
	<ele>1987.20</ele>
	<time>2023-08-06T11:51:36.000Z</time>
</trkpt>
<trkpt lat="46.0788130" lon="10.4979380">
	<ele>1987.20</ele>
	<time>2023-08-06T11:51:37.000Z</time>
</trkpt>
<trkpt lat="46.0788270" lon="10.4979570">
	<ele>1987.40</ele>
	<time>2023-08-06T11:51:38.000Z</time>
</trkpt>
<trkpt lat="46.0788300" lon="10.4979620">
	<ele>1987.40</ele>
	<time>2023-08-06T11:51:39.000Z</time>
</trkpt>
<trkpt lat="46.0788240" lon="10.4979530">
	<ele>1987.60</ele>
	<time>2023-08-06T11:51:40.000Z</time>
</trkpt>
<trkpt lat="46.0788000" lon="10.4979220">
	<ele>1987.60</ele>
	<time>2023-08-06T11:51:41.000Z</time>
</trkpt>
<trkpt lat="46.0787780" lon="10.4979040">
	<ele>1987.60</ele>
	<time>2023-08-06T11:51:42.000Z</time>
</trkpt>
<trkpt lat="46.0787580" lon="10.4978960">
	<ele>1987.40</ele>
	<time>2023-08-06T11:51:43.000Z</time>
</trkpt>
<trkpt lat="46.0787520" lon="10.4978910">
	<ele>1987.40</ele>
	<time>2023-08-06T11:51:44.000Z</time>
</trkpt>
<trkpt lat="46.0787520" lon="10.4978910">
	<ele>1987.20</ele>
	<time>2023-08-06T11:51:45.000Z</time>
</trkpt>
<trkpt lat="46.0787530" lon="10.4978930">
	<ele>1987.20</ele>
	<time>2023-08-06T11:51:46.000Z</time>
</trkpt>
<trkpt lat="46.0787550" lon="10.4978960">
	<ele>1987.40</ele>
	<time>2023-08-06T11:51:47.000Z</time>
</trkpt>
<trkpt lat="46.0787550" lon="10.4978960">
	<ele>1987.40</ele>
	<time>2023-08-06T11:51:48.000Z</time>
</trkpt>
<trkpt lat="46.0787660" lon="10.4979130">
	<ele>1987.40</ele>
	<time>2023-08-06T11:51:49.000Z</time>
</trkpt>
<trkpt lat="46.0787650" lon="10.4979200">
	<ele>1987.40</ele>
	<time>2023-08-06T11:51:50.000Z</time>
</trkpt>
<trkpt lat="46.0787560" lon="10.4979190">
	<ele>1987.40</ele>
	<time>2023-08-06T11:51:51.000Z</time>
</trkpt>
<trkpt lat="46.0787650" lon="10.4979320">
	<ele>1987.20</ele>
	<time>2023-08-06T11:51:52.000Z</time>
</trkpt>
<trkpt lat="46.0787620" lon="10.4979390">
	<ele>1987.20</ele>
	<time>2023-08-06T11:51:53.000Z</time>
</trkpt>
<trkpt lat="46.0787570" lon="10.4979460">
	<ele>1987.20</ele>
	<time>2023-08-06T11:51:54.000Z</time>
</trkpt>
<trkpt lat="46.0787600" lon="10.4979630">
	<ele>1987.20</ele>
	<time>2023-08-06T11:51:55.000Z</time>
</trkpt>
<trkpt lat="46.0787670" lon="10.4979820">
	<ele>1987.20</ele>
	<time>2023-08-06T11:51:56.000Z</time>
</trkpt>
<trkpt lat="46.0787670" lon="10.4979860">
	<ele>1987.20</ele>
	<time>2023-08-06T11:51:57.000Z</time>
</trkpt>
<trkpt lat="46.0787730" lon="10.4979960">
	<ele>1987.20</ele>
	<time>2023-08-06T11:51:58.000Z</time>
</trkpt>
<trkpt lat="46.0787870" lon="10.4980100">
	<ele>1987.20</ele>
	<time>2023-08-06T11:51:59.000Z</time>
</trkpt>
<trkpt lat="46.0787950" lon="10.4980180">
	<ele>1987.20</ele>
	<time>2023-08-06T11:52:00.000Z</time>
</trkpt>
<trkpt lat="46.0788000" lon="10.4980200">
	<ele>1987.20</ele>
	<time>2023-08-06T11:52:01.000Z</time>
</trkpt>
<trkpt lat="46.0788080" lon="10.4980290">
	<ele>1987.20</ele>
	<time>2023-08-06T11:52:02.000Z</time>
</trkpt>
<trkpt lat="46.0788170" lon="10.4980380">
	<ele>1987.20</ele>
	<time>2023-08-06T11:52:03.000Z</time>
</trkpt>
<trkpt lat="46.0788050" lon="10.4980220">
	<ele>1987.20</ele>
	<time>2023-08-06T11:52:04.000Z</time>
</trkpt>
<trkpt lat="46.0788280" lon="10.4980430">
	<ele>1987.20</ele>
	<time>2023-08-06T11:52:05.000Z</time>
</trkpt>
<trkpt lat="46.0788430" lon="10.4980600">
	<ele>1987.20</ele>
	<time>2023-08-06T11:52:06.000Z</time>
</trkpt>
<trkpt lat="46.0788510" lon="10.4980720">
	<ele>1987.00</ele>
	<time>2023-08-06T11:52:07.000Z</time>
</trkpt>
<trkpt lat="46.0788570" lon="10.4980810">
	<ele>1987.00</ele>
	<time>2023-08-06T11:52:08.000Z</time>
</trkpt>
<trkpt lat="46.0788690" lon="10.4980910">
	<ele>1987.00</ele>
	<time>2023-08-06T11:52:09.000Z</time>
</trkpt>
<trkpt lat="46.0788870" lon="10.4981090">
	<ele>1987.00</ele>
	<time>2023-08-06T11:52:10.000Z</time>
</trkpt>
<trkpt lat="46.0788790" lon="10.4981030">
	<ele>1987.00</ele>
	<time>2023-08-06T11:52:11.000Z</time>
</trkpt>
<trkpt lat="46.0788750" lon="10.4980970">
	<ele>1987.20</ele>
	<time>2023-08-06T11:52:12.000Z</time>
</trkpt>
<trkpt lat="46.0788650" lon="10.4980890">
	<ele>1987.20</ele>
	<time>2023-08-06T11:52:13.000Z</time>
</trkpt>
<trkpt lat="46.0788570" lon="10.4980840">
	<ele>1987.20</ele>
	<time>2023-08-06T11:52:14.000Z</time>
</trkpt>
<trkpt lat="46.0788520" lon="10.4980810">
	<ele>1987.20</ele>
	<time>2023-08-06T11:52:15.000Z</time>
</trkpt>
<trkpt lat="46.0788580" lon="10.4980880">
	<ele>1987.20</ele>
	<time>2023-08-06T11:52:16.000Z</time>
</trkpt>
<trkpt lat="46.0788580" lon="10.4980860">
	<ele>1987.20</ele>
	<time>2023-08-06T11:52:17.000Z</time>
</trkpt>
<trkpt lat="46.0788570" lon="10.4980840">
	<ele>1987.20</ele>
	<time>2023-08-06T11:52:18.000Z</time>
</trkpt>
<trkpt lat="46.0788440" lon="10.4980720">
	<ele>1987.20</ele>
	<time>2023-08-06T11:52:19.000Z</time>
</trkpt>
<trkpt lat="46.0788430" lon="10.4980720">
	<ele>1987.00</ele>
	<time>2023-08-06T11:52:20.000Z</time>
</trkpt>
<trkpt lat="46.0788400" lon="10.4980680">
	<ele>1987.00</ele>
	<time>2023-08-06T11:52:21.000Z</time>
</trkpt>
<trkpt lat="46.0788530" lon="10.4980850">
	<ele>1987.00</ele>
	<time>2023-08-06T11:52:22.000Z</time>
</trkpt>
<trkpt lat="46.0788520" lon="10.4980840">
	<ele>1987.20</ele>
	<time>2023-08-06T11:52:23.000Z</time>
</trkpt>
<trkpt lat="46.0788400" lon="10.4980790">
	<ele>1987.20</ele>
	<time>2023-08-06T11:52:24.000Z</time>
</trkpt>
<trkpt lat="46.0788450" lon="10.4980850">
	<ele>1987.20</ele>
	<time>2023-08-06T11:52:25.000Z</time>
</trkpt>
<trkpt lat="46.0788530" lon="10.4980980">
	<ele>1987.20</ele>
	<time>2023-08-06T11:52:26.000Z</time>
</trkpt>
<trkpt lat="46.0788620" lon="10.4981070">
	<ele>1987.20</ele>
	<time>2023-08-06T11:52:27.000Z</time>
</trkpt>
<trkpt lat="46.0788760" lon="10.4981230">
	<ele>1987.20</ele>
	<time>2023-08-06T11:52:28.000Z</time>
</trkpt>
<trkpt lat="46.0788700" lon="10.4981250">
	<ele>1987.40</ele>
	<time>2023-08-06T11:52:29.000Z</time>
</trkpt>
<trkpt lat="46.0788640" lon="10.4981210">
	<ele>1987.60</ele>
	<time>2023-08-06T11:52:30.000Z</time>
</trkpt>
<trkpt lat="46.0788440" lon="10.4980910">
	<ele>1987.40</ele>
	<time>2023-08-06T11:52:31.000Z</time>
</trkpt>
<trkpt lat="46.0788460" lon="10.4980920">
	<ele>1987.40</ele>
	<time>2023-08-06T11:52:32.000Z</time>
</trkpt>
<trkpt lat="46.0788530" lon="10.4981070">
	<ele>1987.40</ele>
	<time>2023-08-06T11:52:33.000Z</time>
</trkpt>
<trkpt lat="46.0788500" lon="10.4981040">
	<ele>1987.40</ele>
	<time>2023-08-06T11:52:34.000Z</time>
</trkpt>
<trkpt lat="46.0788410" lon="10.4981050">
	<ele>1987.40</ele>
	<time>2023-08-06T11:52:35.000Z</time>
</trkpt>
<trkpt lat="46.0788390" lon="10.4981100">
	<ele>1987.20</ele>
	<time>2023-08-06T11:52:36.000Z</time>
</trkpt>
<trkpt lat="46.0788370" lon="10.4981090">
	<ele>1987.20</ele>
	<time>2023-08-06T11:52:37.000Z</time>
</trkpt>
<trkpt lat="46.0788350" lon="10.4981070">
	<ele>1987.00</ele>
	<time>2023-08-06T11:52:38.000Z</time>
</trkpt>
<trkpt lat="46.0788280" lon="10.4981000">
	<ele>1987.20</ele>
	<time>2023-08-06T11:52:39.000Z</time>
</trkpt>
<trkpt lat="46.0788200" lon="10.4980940">
	<ele>1987.20</ele>
	<time>2023-08-06T11:52:40.000Z</time>
</trkpt>
<trkpt lat="46.0788180" lon="10.4980970">
	<ele>1987.20</ele>
	<time>2023-08-06T11:52:41.000Z</time>
</trkpt>
<trkpt lat="46.0788150" lon="10.4980950">
	<ele>1987.20</ele>
	<time>2023-08-06T11:52:42.000Z</time>
</trkpt>
<trkpt lat="46.0788110" lon="10.4980990">
	<ele>1987.20</ele>
	<time>2023-08-06T11:52:43.000Z</time>
</trkpt>
<trkpt lat="46.0788150" lon="10.4981090">
	<ele>1987.40</ele>
	<time>2023-08-06T11:52:44.000Z</time>
</trkpt>
<trkpt lat="46.0788200" lon="10.4981200">
	<ele>1987.40</ele>
	<time>2023-08-06T11:52:45.000Z</time>
</trkpt>
<trkpt lat="46.0788010" lon="10.4981120">
	<ele>1987.40</ele>
	<time>2023-08-06T11:52:46.000Z</time>
</trkpt>
<trkpt lat="46.0787970" lon="10.4981180">
	<ele>1987.40</ele>
	<time>2023-08-06T11:52:47.000Z</time>
</trkpt>
<trkpt lat="46.0787820" lon="10.4981110">
	<ele>1987.40</ele>
	<time>2023-08-06T11:52:48.000Z</time>
</trkpt>
<trkpt lat="46.0787720" lon="10.4981090">
	<ele>1987.40</ele>
	<time>2023-08-06T11:52:49.000Z</time>
</trkpt>
<trkpt lat="46.0787670" lon="10.4981040">
	<ele>1987.40</ele>
	<time>2023-08-06T11:52:50.000Z</time>
</trkpt>
<trkpt lat="46.0787570" lon="10.4980910">
	<ele>1987.40</ele>
	<time>2023-08-06T11:52:51.000Z</time>
</trkpt>
<trkpt lat="46.0787470" lon="10.4980830">
	<ele>1987.40</ele>
	<time>2023-08-06T11:52:52.000Z</time>
</trkpt>
<trkpt lat="46.0787390" lon="10.4980790">
	<ele>1987.40</ele>
	<time>2023-08-06T11:52:53.000Z</time>
</trkpt>
<trkpt lat="46.0787350" lon="10.4980760">
	<ele>1987.40</ele>
	<time>2023-08-06T11:52:54.000Z</time>
</trkpt>
<trkpt lat="46.0787270" lon="10.4980750">
	<ele>1987.40</ele>
	<time>2023-08-06T11:52:55.000Z</time>
</trkpt>
<trkpt lat="46.0787280" lon="10.4980800">
	<ele>1987.40</ele>
	<time>2023-08-06T11:52:56.000Z</time>
</trkpt>
<trkpt lat="46.0787240" lon="10.4980810">
	<ele>1987.20</ele>
	<time>2023-08-06T11:52:57.000Z</time>
</trkpt>
<trkpt lat="46.0787420" lon="10.4980910">
	<ele>1987.20</ele>
	<time>2023-08-06T11:52:58.000Z</time>
</trkpt>
<trkpt lat="46.0787460" lon="10.4980960">
	<ele>1987.40</ele>
	<time>2023-08-06T11:52:59.000Z</time>
</trkpt>
<trkpt lat="46.0787460" lon="10.4980960">
	<ele>1987.40</ele>
	<time>2023-08-06T11:53:00.000Z</time>
</trkpt>
<trkpt lat="46.0787520" lon="10.4981000">
	<ele>1987.40</ele>
	<time>2023-08-06T11:53:01.000Z</time>
</trkpt>
<trkpt lat="46.0787590" lon="10.4981080">
	<ele>1987.60</ele>
	<time>2023-08-06T11:53:02.000Z</time>
</trkpt>
<trkpt lat="46.0787440" lon="10.4980900">
	<ele>1987.60</ele>
	<time>2023-08-06T11:53:03.000Z</time>
</trkpt>
<trkpt lat="46.0787350" lon="10.4980760">
	<ele>1987.60</ele>
	<time>2023-08-06T11:53:04.000Z</time>
</trkpt>
<trkpt lat="46.0787290" lon="10.4980680">
	<ele>1987.60</ele>
	<time>2023-08-06T11:53:05.000Z</time>
</trkpt>
<trkpt lat="46.0787270" lon="10.4980650">
	<ele>1987.60</ele>
	<time>2023-08-06T11:53:06.000Z</time>
</trkpt>
<trkpt lat="46.0787350" lon="10.4980730">
	<ele>1987.60</ele>
	<time>2023-08-06T11:53:07.000Z</time>
</trkpt>
<trkpt lat="46.0787350" lon="10.4980730">
	<ele>1987.60</ele>
	<time>2023-08-06T11:53:08.000Z</time>
</trkpt>
<trkpt lat="46.0787350" lon="10.4980730">
	<ele>1987.60</ele>
	<time>2023-08-06T11:53:09.000Z</time>
</trkpt>
<trkpt lat="46.0787350" lon="10.4980730">
	<ele>1987.60</ele>
	<time>2023-08-06T11:53:10.000Z</time>
</trkpt>
<trkpt lat="46.0787350" lon="10.4980730">
	<ele>1987.60</ele>
	<time>2023-08-06T11:53:11.000Z</time>
</trkpt>
<trkpt lat="46.0787350" lon="10.4980730">
	<ele>1987.60</ele>
	<time>2023-08-06T11:53:12.000Z</time>
</trkpt>
<trkpt lat="46.0787350" lon="10.4980730">
	<ele>1987.60</ele>
	<time>2023-08-06T11:53:13.000Z</time>
</trkpt>
<trkpt lat="46.0787350" lon="10.4980730">
	<ele>1987.60</ele>
	<time>2023-08-06T11:53:14.000Z</time>
</trkpt>
<trkpt lat="46.0787350" lon="10.4980730">
	<ele>1987.60</ele>
	<time>2023-08-06T11:53:15.000Z</time>
</trkpt>
<trkpt lat="46.0787350" lon="10.4980730">
	<ele>1987.60</ele>
	<time>2023-08-06T11:53:16.000Z</time>
</trkpt>
<trkpt lat="46.0787350" lon="10.4980730">
	<ele>1987.60</ele>
	<time>2023-08-06T11:53:17.000Z</time>
</trkpt>
<trkpt lat="46.0787350" lon="10.4980730">
	<ele>1987.60</ele>
	<time>2023-08-06T11:53:18.000Z</time>
</trkpt>
<trkpt lat="46.0787350" lon="10.4980730">
	<ele>1987.60</ele>
	<time>2023-08-06T11:53:19.000Z</time>
</trkpt>
<trkpt lat="46.0787350" lon="10.4980730">
	<ele>1987.60</ele>
	<time>2023-08-06T11:53:20.000Z</time>
</trkpt>
<trkpt lat="46.0787350" lon="10.4980730">
	<ele>1987.60</ele>
	<time>2023-08-06T11:53:21.000Z</time>
</trkpt>
<trkpt lat="46.0787350" lon="10.4980730">
	<ele>1987.60</ele>
	<time>2023-08-06T11:53:22.000Z</time>
</trkpt>
<trkpt lat="46.0787350" lon="10.4980730">
	<ele>1987.60</ele>
	<time>2023-08-06T11:53:23.000Z</time>
</trkpt>
<trkpt lat="46.0787350" lon="10.4980730">
	<ele>1987.60</ele>
	<time>2023-08-06T11:53:24.000Z</time>
</trkpt>
<trkpt lat="46.0787350" lon="10.4980740">
	<ele>1987.60</ele>
	<time>2023-08-06T11:53:25.000Z</time>
</trkpt>
<trkpt lat="46.0787350" lon="10.4980750">
	<ele>1987.60</ele>
	<time>2023-08-06T11:53:26.000Z</time>
</trkpt>
<trkpt lat="46.0787350" lon="10.4980750">
	<ele>1987.60</ele>
	<time>2023-08-06T11:53:27.000Z</time>
</trkpt>
<trkpt lat="46.0787370" lon="10.4980750">
	<ele>1987.60</ele>
	<time>2023-08-06T11:53:28.000Z</time>
</trkpt>
<trkpt lat="46.0787370" lon="10.4980750">
	<ele>1987.60</ele>
	<time>2023-08-06T11:53:29.000Z</time>
</trkpt>
<trkpt lat="46.0787370" lon="10.4980750">
	<ele>1987.60</ele>
	<time>2023-08-06T11:53:30.000Z</time>
</trkpt>
<trkpt lat="46.0787370" lon="10.4980750">
	<ele>1987.40</ele>
	<time>2023-08-06T11:53:31.000Z</time>
</trkpt>
<trkpt lat="46.0787370" lon="10.4980750">
	<ele>1987.40</ele>
	<time>2023-08-06T11:53:32.000Z</time>
</trkpt>
<trkpt lat="46.0787370" lon="10.4980750">
	<ele>1987.60</ele>
	<time>2023-08-06T11:53:33.000Z</time>
</trkpt>
<trkpt lat="46.0787370" lon="10.4980750">
	<ele>1987.60</ele>
	<time>2023-08-06T11:53:34.000Z</time>
</trkpt>
<trkpt lat="46.0787380" lon="10.4980770">
	<ele>1987.80</ele>
	<time>2023-08-06T11:53:35.000Z</time>
</trkpt>
<trkpt lat="46.0787390" lon="10.4980810">
	<ele>1987.60</ele>
	<time>2023-08-06T11:53:36.000Z</time>
</trkpt>
<trkpt lat="46.0787440" lon="10.4980820">
	<ele>1987.80</ele>
	<time>2023-08-06T11:53:37.000Z</time>
</trkpt>
<trkpt lat="46.0787460" lon="10.4980830">
	<ele>1987.80</ele>
	<time>2023-08-06T11:53:38.000Z</time>
</trkpt>
<trkpt lat="46.0787460" lon="10.4980830">
	<ele>1987.80</ele>
	<time>2023-08-06T11:53:39.000Z</time>
</trkpt>
<trkpt lat="46.0787510" lon="10.4980830">
	<ele>1987.80</ele>
	<time>2023-08-06T11:53:40.000Z</time>
</trkpt>
<trkpt lat="46.0787550" lon="10.4980830">
	<ele>1987.80</ele>
	<time>2023-08-06T11:53:41.000Z</time>
</trkpt>
<trkpt lat="46.0787560" lon="10.4980830">
	<ele>1987.80</ele>
	<time>2023-08-06T11:53:42.000Z</time>
</trkpt>
<trkpt lat="46.0787580" lon="10.4980880">
	<ele>1988.20</ele>
	<time>2023-08-06T11:53:43.000Z</time>
</trkpt>
<trkpt lat="46.0787610" lon="10.4980990">
	<ele>1988.20</ele>
	<time>2023-08-06T11:53:44.000Z</time>
</trkpt>
<trkpt lat="46.0787660" lon="10.4981100">
	<ele>1988.20</ele>
	<time>2023-08-06T11:53:45.000Z</time>
</trkpt>
<trkpt lat="46.0787670" lon="10.4981160">
	<ele>1988.20</ele>
	<time>2023-08-06T11:53:46.000Z</time>
</trkpt>
<trkpt lat="46.0787670" lon="10.4981220">
	<ele>1988.20</ele>
	<time>2023-08-06T11:53:47.000Z</time>
</trkpt>
<trkpt lat="46.0787670" lon="10.4981250">
	<ele>1988.20</ele>
	<time>2023-08-06T11:53:48.000Z</time>
</trkpt>
<trkpt lat="46.0787680" lon="10.4981280">
	<ele>1988.20</ele>
	<time>2023-08-06T11:53:49.000Z</time>
</trkpt>
<trkpt lat="46.0787690" lon="10.4981280">
	<ele>1988.20</ele>
	<time>2023-08-06T11:53:50.000Z</time>
</trkpt>
<trkpt lat="46.0787700" lon="10.4981290">
	<ele>1988.20</ele>
	<time>2023-08-06T11:53:51.000Z</time>
</trkpt>
<trkpt lat="46.0787700" lon="10.4981310">
	<ele>1988.20</ele>
	<time>2023-08-06T11:53:52.000Z</time>
</trkpt>
<trkpt lat="46.0787750" lon="10.4981320">
	<ele>1988.20</ele>
	<time>2023-08-06T11:53:53.000Z</time>
</trkpt>
<trkpt lat="46.0787780" lon="10.4981320">
	<ele>1988.20</ele>
	<time>2023-08-06T11:53:54.000Z</time>
</trkpt>
<trkpt lat="46.0787800" lon="10.4981320">
	<ele>1988.20</ele>
	<time>2023-08-06T11:53:55.000Z</time>
</trkpt>
<trkpt lat="46.0787800" lon="10.4981330">
	<ele>1988.20</ele>
	<time>2023-08-06T11:53:56.000Z</time>
</trkpt>
<trkpt lat="46.0787820" lon="10.4981340">
	<ele>1988.20</ele>
	<time>2023-08-06T11:53:57.000Z</time>
</trkpt>
<trkpt lat="46.0787820" lon="10.4981340">
	<ele>1988.20</ele>
	<time>2023-08-06T11:53:58.000Z</time>
</trkpt>
<trkpt lat="46.0787820" lon="10.4981350">
	<ele>1988.20</ele>
	<time>2023-08-06T11:53:59.000Z</time>
</trkpt>
<trkpt lat="46.0787840" lon="10.4981350">
	<ele>1988.20</ele>
	<time>2023-08-06T11:54:00.000Z</time>
</trkpt>
<trkpt lat="46.0787860" lon="10.4981360">
	<ele>1988.20</ele>
	<time>2023-08-06T11:54:01.000Z</time>
</trkpt>
<trkpt lat="46.0787880" lon="10.4981380">
	<ele>1988.20</ele>
	<time>2023-08-06T11:54:02.000Z</time>
</trkpt>
<trkpt lat="46.0787900" lon="10.4981380">
	<ele>1988.20</ele>
	<time>2023-08-06T11:54:03.000Z</time>
</trkpt>
<trkpt lat="46.0787910" lon="10.4981390">
	<ele>1988.20</ele>
	<time>2023-08-06T11:54:04.000Z</time>
</trkpt>
<trkpt lat="46.0787920" lon="10.4981390">
	<ele>1988.20</ele>
	<time>2023-08-06T11:54:05.000Z</time>
</trkpt>
<trkpt lat="46.0787920" lon="10.4981390">
	<ele>1988.20</ele>
	<time>2023-08-06T11:54:06.000Z</time>
</trkpt>
<trkpt lat="46.0787890" lon="10.4981370">
	<ele>1988.20</ele>
	<time>2023-08-06T11:54:07.000Z</time>
</trkpt>
<trkpt lat="46.0787890" lon="10.4981340">
	<ele>1988.20</ele>
	<time>2023-08-06T11:54:08.000Z</time>
</trkpt>
<trkpt lat="46.0787930" lon="10.4981390">
	<ele>1988.20</ele>
	<time>2023-08-06T11:54:09.000Z</time>
</trkpt>
<trkpt lat="46.0787960" lon="10.4981410">
	<ele>1988.20</ele>
	<time>2023-08-06T11:54:10.000Z</time>
</trkpt>
<trkpt lat="46.0787960" lon="10.4981430">
	<ele>1988.20</ele>
	<time>2023-08-06T11:54:11.000Z</time>
</trkpt>
<trkpt lat="46.0787950" lon="10.4981410">
	<ele>1988.20</ele>
	<time>2023-08-06T11:54:12.000Z</time>
</trkpt>
<trkpt lat="46.0787980" lon="10.4981460">
	<ele>1988.20</ele>
	<time>2023-08-06T11:54:13.000Z</time>
</trkpt>
<trkpt lat="46.0788000" lon="10.4981490">
	<ele>1988.20</ele>
	<time>2023-08-06T11:54:14.000Z</time>
</trkpt>
<trkpt lat="46.0787960" lon="10.4981460">
	<ele>1988.20</ele>
	<time>2023-08-06T11:54:15.000Z</time>
</trkpt>
<trkpt lat="46.0787920" lon="10.4981430">
	<ele>1988.20</ele>
	<time>2023-08-06T11:54:16.000Z</time>
</trkpt>
<trkpt lat="46.0787930" lon="10.4981540">
	<ele>1988.20</ele>
	<time>2023-08-06T11:54:17.000Z</time>
</trkpt>
<trkpt lat="46.0787940" lon="10.4981600">
	<ele>1988.20</ele>
	<time>2023-08-06T11:54:18.000Z</time>
</trkpt>
<trkpt lat="46.0787930" lon="10.4981640">
	<ele>1988.20</ele>
	<time>2023-08-06T11:54:19.000Z</time>
</trkpt>
<trkpt lat="46.0787920" lon="10.4981650">
	<ele>1988.20</ele>
	<time>2023-08-06T11:54:20.000Z</time>
</trkpt>
<trkpt lat="46.0787920" lon="10.4981650">
	<ele>1988.20</ele>
	<time>2023-08-06T11:54:21.000Z</time>
</trkpt>
<trkpt lat="46.0787930" lon="10.4981670">
	<ele>1988.20</ele>
	<time>2023-08-06T11:54:22.000Z</time>
</trkpt>
<trkpt lat="46.0788040" lon="10.4981760">
	<ele>1988.20</ele>
	<time>2023-08-06T11:54:23.000Z</time>
</trkpt>
<trkpt lat="46.0788040" lon="10.4981750">
	<ele>1988.20</ele>
	<time>2023-08-06T11:54:24.000Z</time>
</trkpt>
<trkpt lat="46.0787980" lon="10.4981690">
	<ele>1988.20</ele>
	<time>2023-08-06T11:54:25.000Z</time>
</trkpt>
<trkpt lat="46.0787900" lon="10.4981590">
	<ele>1988.20</ele>
	<time>2023-08-06T11:54:26.000Z</time>
</trkpt>
<trkpt lat="46.0787880" lon="10.4981590">
	<ele>1988.20</ele>
	<time>2023-08-06T11:54:27.000Z</time>
</trkpt>
<trkpt lat="46.0787840" lon="10.4981540">
	<ele>1988.20</ele>
	<time>2023-08-06T11:54:28.000Z</time>
</trkpt>
<trkpt lat="46.0787810" lon="10.4981560">
	<ele>1988.20</ele>
	<time>2023-08-06T11:54:29.000Z</time>
</trkpt>
<trkpt lat="46.0787780" lon="10.4981530">
	<ele>1988.20</ele>
	<time>2023-08-06T11:54:30.000Z</time>
</trkpt>
<trkpt lat="46.0787780" lon="10.4981590">
	<ele>1988.20</ele>
	<time>2023-08-06T11:54:31.000Z</time>
</trkpt>
<trkpt lat="46.0787790" lon="10.4981610">
	<ele>1988.20</ele>
	<time>2023-08-06T11:54:32.000Z</time>
</trkpt>
<trkpt lat="46.0787750" lon="10.4981560">
	<ele>1988.20</ele>
	<time>2023-08-06T11:54:33.000Z</time>
</trkpt>
<trkpt lat="46.0787730" lon="10.4981520">
	<ele>1988.20</ele>
	<time>2023-08-06T11:54:34.000Z</time>
</trkpt>
<trkpt lat="46.0787720" lon="10.4981510">
	<ele>1988.20</ele>
	<time>2023-08-06T11:54:35.000Z</time>
</trkpt>
<trkpt lat="46.0787700" lon="10.4981470">
	<ele>1988.20</ele>
	<time>2023-08-06T11:54:36.000Z</time>
</trkpt>
<trkpt lat="46.0787650" lon="10.4981410">
	<ele>1988.20</ele>
	<time>2023-08-06T11:54:37.000Z</time>
</trkpt>
<trkpt lat="46.0787590" lon="10.4981430">
	<ele>1988.20</ele>
	<time>2023-08-06T11:54:38.000Z</time>
</trkpt>
<trkpt lat="46.0787600" lon="10.4981560">
	<ele>1988.20</ele>
	<time>2023-08-06T11:54:39.000Z</time>
</trkpt>
<trkpt lat="46.0787610" lon="10.4981570">
	<ele>1988.20</ele>
	<time>2023-08-06T11:54:40.000Z</time>
</trkpt>
<trkpt lat="46.0787620" lon="10.4981600">
	<ele>1988.20</ele>
	<time>2023-08-06T11:54:41.000Z</time>
</trkpt>
<trkpt lat="46.0787680" lon="10.4981720">
	<ele>1988.20</ele>
	<time>2023-08-06T11:54:42.000Z</time>
</trkpt>
<trkpt lat="46.0787820" lon="10.4981920">
	<ele>1988.20</ele>
	<time>2023-08-06T11:54:43.000Z</time>
</trkpt>
<trkpt lat="46.0788070" lon="10.4982140">
	<ele>1988.20</ele>
	<time>2023-08-06T11:54:44.000Z</time>
</trkpt>
<trkpt lat="46.0788360" lon="10.4982450">
	<ele>1988.20</ele>
	<time>2023-08-06T11:54:45.000Z</time>
</trkpt>
<trkpt lat="46.0788610" lon="10.4982790">
	<ele>1988.20</ele>
	<time>2023-08-06T11:54:46.000Z</time>
</trkpt>
<trkpt lat="46.0788750" lon="10.4982980">
	<ele>1988.20</ele>
	<time>2023-08-06T11:54:47.000Z</time>
</trkpt>
<trkpt lat="46.0788770" lon="10.4983050">
	<ele>1988.20</ele>
	<time>2023-08-06T11:54:48.000Z</time>
</trkpt>
<trkpt lat="46.0788870" lon="10.4983140">
	<ele>1988.20</ele>
	<time>2023-08-06T11:54:49.000Z</time>
</trkpt>
<trkpt lat="46.0788870" lon="10.4983140">
	<ele>1988.20</ele>
	<time>2023-08-06T11:54:50.000Z</time>
</trkpt>
<trkpt lat="46.0788880" lon="10.4983130">
	<ele>1988.20</ele>
	<time>2023-08-06T11:54:51.000Z</time>
</trkpt>
<trkpt lat="46.0788880" lon="10.4983120">
	<ele>1988.20</ele>
	<time>2023-08-06T11:54:52.000Z</time>
</trkpt>
<trkpt lat="46.0788910" lon="10.4983140">
	<ele>1988.20</ele>
	<time>2023-08-06T11:54:53.000Z</time>
</trkpt>
<trkpt lat="46.0788920" lon="10.4983160">
	<ele>1988.20</ele>
	<time>2023-08-06T11:54:54.000Z</time>
</trkpt>
<trkpt lat="46.0788940" lon="10.4983170">
	<ele>1988.20</ele>
	<time>2023-08-06T11:54:55.000Z</time>
</trkpt>
<trkpt lat="46.0788860" lon="10.4983060">
	<ele>1988.20</ele>
	<time>2023-08-06T11:54:56.000Z</time>
</trkpt>
<trkpt lat="46.0788930" lon="10.4983120">
	<ele>1988.20</ele>
	<time>2023-08-06T11:54:57.000Z</time>
</trkpt>
<trkpt lat="46.0788980" lon="10.4983170">
	<ele>1988.20</ele>
	<time>2023-08-06T11:54:58.000Z</time>
</trkpt>
<trkpt lat="46.0788990" lon="10.4983170">
	<ele>1988.20</ele>
	<time>2023-08-06T11:54:59.000Z</time>
</trkpt>
<trkpt lat="46.0789000" lon="10.4983180">
	<ele>1988.20</ele>
	<time>2023-08-06T11:55:00.000Z</time>
</trkpt>
<trkpt lat="46.0789150" lon="10.4983340">
	<ele>1988.20</ele>
	<time>2023-08-06T11:55:01.000Z</time>
</trkpt>
<trkpt lat="46.0789180" lon="10.4983340">
	<ele>1988.20</ele>
	<time>2023-08-06T11:55:02.000Z</time>
</trkpt>
<trkpt lat="46.0789110" lon="10.4983230">
	<ele>1988.20</ele>
	<time>2023-08-06T11:55:03.000Z</time>
</trkpt>
<trkpt lat="46.0789070" lon="10.4983180">
	<ele>1988.20</ele>
	<time>2023-08-06T11:55:04.000Z</time>
</trkpt>
<trkpt lat="46.0789050" lon="10.4983160">
	<ele>1988.20</ele>
	<time>2023-08-06T11:55:05.000Z</time>
</trkpt>
<trkpt lat="46.0789020" lon="10.4983120">
	<ele>1988.20</ele>
	<time>2023-08-06T11:55:06.000Z</time>
</trkpt>
<trkpt lat="46.0789020" lon="10.4983120">
	<ele>1988.20</ele>
	<time>2023-08-06T11:55:07.000Z</time>
</trkpt>
<trkpt lat="46.0789010" lon="10.4983110">
	<ele>1988.20</ele>
	<time>2023-08-06T11:55:08.000Z</time>
</trkpt>
<trkpt lat="46.0789010" lon="10.4983100">
	<ele>1988.20</ele>
	<time>2023-08-06T11:55:09.000Z</time>
</trkpt>
<trkpt lat="46.0789020" lon="10.4983120">
	<ele>1988.20</ele>
	<time>2023-08-06T11:55:10.000Z</time>
</trkpt>
<trkpt lat="46.0789020" lon="10.4983120">
	<ele>1988.20</ele>
	<time>2023-08-06T11:55:11.000Z</time>
</trkpt>
<trkpt lat="46.0789020" lon="10.4983120">
	<ele>1988.20</ele>
	<time>2023-08-06T11:55:12.000Z</time>
</trkpt>
<trkpt lat="46.0789020" lon="10.4983120">
	<ele>1988.20</ele>
	<time>2023-08-06T11:55:13.000Z</time>
</trkpt>
<trkpt lat="46.0789020" lon="10.4983120">
	<ele>1988.20</ele>
	<time>2023-08-06T11:55:14.000Z</time>
</trkpt>
<trkpt lat="46.0789020" lon="10.4983120">
	<ele>1988.20</ele>
	<time>2023-08-06T11:55:15.000Z</time>
</trkpt>
<trkpt lat="46.0789020" lon="10.4983120">
	<ele>1988.20</ele>
	<time>2023-08-06T11:55:16.000Z</time>
</trkpt>
<trkpt lat="46.0789020" lon="10.4983120">
	<ele>1988.20</ele>
	<time>2023-08-06T11:55:17.000Z</time>
</trkpt>
<trkpt lat="46.0789020" lon="10.4983120">
	<ele>1988.20</ele>
	<time>2023-08-06T11:55:18.000Z</time>
</trkpt>
<trkpt lat="46.0789020" lon="10.4983120">
	<ele>1988.20</ele>
	<time>2023-08-06T11:55:19.000Z</time>
</trkpt>
<trkpt lat="46.0789020" lon="10.4983120">
	<ele>1988.20</ele>
	<time>2023-08-06T11:55:20.000Z</time>
</trkpt>
<trkpt lat="46.0789020" lon="10.4983120">
	<ele>1988.20</ele>
	<time>2023-08-06T11:55:21.000Z</time>
</trkpt>
<trkpt lat="46.0789020" lon="10.4983120">
	<ele>1988.20</ele>
	<time>2023-08-06T11:55:22.000Z</time>
</trkpt>
<trkpt lat="46.0789020" lon="10.4983120">
	<ele>1988.20</ele>
	<time>2023-08-06T11:55:23.000Z</time>
</trkpt>
<trkpt lat="46.0789020" lon="10.4983110">
	<ele>1988.20</ele>
	<time>2023-08-06T11:55:24.000Z</time>
</trkpt>
<trkpt lat="46.0789000" lon="10.4983100">
	<ele>1988.20</ele>
	<time>2023-08-06T11:55:25.000Z</time>
</trkpt>
<trkpt lat="46.0788970" lon="10.4983070">
	<ele>1988.20</ele>
	<time>2023-08-06T11:55:26.000Z</time>
</trkpt>
<trkpt lat="46.0788820" lon="10.4982860">
	<ele>1988.20</ele>
	<time>2023-08-06T11:55:27.000Z</time>
</trkpt>
<trkpt lat="46.0788740" lon="10.4982740">
	<ele>1988.20</ele>
	<time>2023-08-06T11:55:28.000Z</time>
</trkpt>
<trkpt lat="46.0788630" lon="10.4982590">
	<ele>1988.20</ele>
	<time>2023-08-06T11:55:29.000Z</time>
</trkpt>
<trkpt lat="46.0788550" lon="10.4982500">
	<ele>1988.20</ele>
	<time>2023-08-06T11:55:30.000Z</time>
</trkpt>
<trkpt lat="46.0788440" lon="10.4982380">
	<ele>1988.20</ele>
	<time>2023-08-06T11:55:31.000Z</time>
</trkpt>
<trkpt lat="46.0788390" lon="10.4982340">
	<ele>1988.20</ele>
	<time>2023-08-06T11:55:32.000Z</time>
</trkpt>
<trkpt lat="46.0788370" lon="10.4982330">
	<ele>1988.20</ele>
	<time>2023-08-06T11:55:33.000Z</time>
</trkpt>
<trkpt lat="46.0788370" lon="10.4982320">
	<ele>1988.20</ele>
	<time>2023-08-06T11:55:34.000Z</time>
</trkpt>
<trkpt lat="46.0788360" lon="10.4982330">
	<ele>1988.20</ele>
	<time>2023-08-06T11:55:35.000Z</time>
</trkpt>
<trkpt lat="46.0788360" lon="10.4982340">
	<ele>1988.20</ele>
	<time>2023-08-06T11:55:36.000Z</time>
</trkpt>
<trkpt lat="46.0788360" lon="10.4982340">
	<ele>1988.20</ele>
	<time>2023-08-06T11:55:37.000Z</time>
</trkpt>
<trkpt lat="46.0788260" lon="10.4982260">
	<ele>1988.20</ele>
	<time>2023-08-06T11:55:38.000Z</time>
</trkpt>
<trkpt lat="46.0788100" lon="10.4982100">
	<ele>1988.20</ele>
	<time>2023-08-06T11:55:39.000Z</time>
</trkpt>
<trkpt lat="46.0788010" lon="10.4982010">
	<ele>1988.20</ele>
	<time>2023-08-06T11:55:40.000Z</time>
</trkpt>
<trkpt lat="46.0788000" lon="10.4981970">
	<ele>1988.20</ele>
	<time>2023-08-06T11:55:41.000Z</time>
</trkpt>
<trkpt lat="46.0787990" lon="10.4981990">
	<ele>1988.20</ele>
	<time>2023-08-06T11:55:42.000Z</time>
</trkpt>
<trkpt lat="46.0787990" lon="10.4981990">
	<ele>1988.20</ele>
	<time>2023-08-06T11:55:43.000Z</time>
</trkpt>
<trkpt lat="46.0787990" lon="10.4981980">
	<ele>1988.20</ele>
	<time>2023-08-06T11:55:44.000Z</time>
</trkpt>
<trkpt lat="46.0788050" lon="10.4982040">
	<ele>1984.40</ele>
	<time>2023-08-06T11:55:45.000Z</time>
</trkpt>
<trkpt lat="46.0788050" lon="10.4982030">
	<ele>1984.40</ele>
	<time>2023-08-06T11:55:46.000Z</time>
</trkpt>
<trkpt lat="46.0788020" lon="10.4981990">
	<ele>1984.40</ele>
	<time>2023-08-06T11:55:47.000Z</time>
</trkpt>
<trkpt lat="46.0787970" lon="10.4981920">
	<ele>1984.40</ele>
	<time>2023-08-06T11:55:48.000Z</time>
</trkpt>
<trkpt lat="46.0787960" lon="10.4981920">
	<ele>1984.40</ele>
	<time>2023-08-06T11:55:49.000Z</time>
</trkpt>
<trkpt lat="46.0787920" lon="10.4981890">
	<ele>1984.20</ele>
	<time>2023-08-06T11:55:50.000Z</time>
</trkpt>
<trkpt lat="46.0787880" lon="10.4981860">
	<ele>1984.20</ele>
	<time>2023-08-06T11:55:51.000Z</time>
</trkpt>
<trkpt lat="46.0787850" lon="10.4981810">
	<ele>1984.20</ele>
	<time>2023-08-06T11:55:52.000Z</time>
</trkpt>
<trkpt lat="46.0787850" lon="10.4981800">
	<ele>1984.20</ele>
	<time>2023-08-06T11:55:53.000Z</time>
</trkpt>
<trkpt lat="46.0787890" lon="10.4981830">
	<ele>1984.20</ele>
	<time>2023-08-06T11:55:54.000Z</time>
</trkpt>
<trkpt lat="46.0787880" lon="10.4981810">
	<ele>1984.20</ele>
	<time>2023-08-06T11:55:55.000Z</time>
</trkpt>
<trkpt lat="46.0787880" lon="10.4981840">
	<ele>1984.20</ele>
	<time>2023-08-06T11:55:56.000Z</time>
</trkpt>
<trkpt lat="46.0787830" lon="10.4981870">
	<ele>1984.20</ele>
	<time>2023-08-06T11:55:57.000Z</time>
</trkpt>
<trkpt lat="46.0787820" lon="10.4981920">
	<ele>1984.40</ele>
	<time>2023-08-06T11:55:58.000Z</time>
</trkpt>
<trkpt lat="46.0787810" lon="10.4981930">
	<ele>1984.40</ele>
	<time>2023-08-06T11:55:59.000Z</time>
</trkpt>
<trkpt lat="46.0787770" lon="10.4981920">
	<ele>1984.60</ele>
	<time>2023-08-06T11:56:00.000Z</time>
</trkpt>
<trkpt lat="46.0787750" lon="10.4981900">
	<ele>1984.80</ele>
	<time>2023-08-06T11:56:01.000Z</time>
</trkpt>
<trkpt lat="46.0787720" lon="10.4981870">
	<ele>1984.80</ele>
	<time>2023-08-06T11:56:02.000Z</time>
</trkpt>
<trkpt lat="46.0787710" lon="10.4981870">
	<ele>1984.80</ele>
	<time>2023-08-06T11:56:03.000Z</time>
</trkpt>
<trkpt lat="46.0787700" lon="10.4981880">
	<ele>1985.00</ele>
	<time>2023-08-06T11:56:04.000Z</time>
</trkpt>
<trkpt lat="46.0787710" lon="10.4981860">
	<ele>1985.00</ele>
	<time>2023-08-06T11:56:05.000Z</time>
</trkpt>
<trkpt lat="46.0787690" lon="10.4981820">
	<ele>1984.80</ele>
	<time>2023-08-06T11:56:06.000Z</time>
</trkpt>
<trkpt lat="46.0787700" lon="10.4981770">
	<ele>1984.80</ele>
	<time>2023-08-06T11:56:07.000Z</time>
</trkpt>
<trkpt lat="46.0787690" lon="10.4981770">
	<ele>1984.80</ele>
	<time>2023-08-06T11:56:08.000Z</time>
</trkpt>
<trkpt lat="46.0787770" lon="10.4981820">
	<ele>1984.60</ele>
	<time>2023-08-06T11:56:09.000Z</time>
</trkpt>
<trkpt lat="46.0787730" lon="10.4981780">
	<ele>1984.60</ele>
	<time>2023-08-06T11:56:10.000Z</time>
</trkpt>
<trkpt lat="46.0787760" lon="10.4981790">
	<ele>1984.80</ele>
	<time>2023-08-06T11:56:11.000Z</time>
</trkpt>
<trkpt lat="46.0787760" lon="10.4981770">
	<ele>1984.60</ele>
	<time>2023-08-06T11:56:12.000Z</time>
</trkpt>
<trkpt lat="46.0787760" lon="10.4981750">
	<ele>1984.80</ele>
	<time>2023-08-06T11:56:13.000Z</time>
</trkpt>
<trkpt lat="46.0787810" lon="10.4981810">
	<ele>1984.80</ele>
	<time>2023-08-06T11:56:14.000Z</time>
</trkpt>
<trkpt lat="46.0787830" lon="10.4981830">
	<ele>1984.80</ele>
	<time>2023-08-06T11:56:15.000Z</time>
</trkpt>
<trkpt lat="46.0787830" lon="10.4981830">
	<ele>1984.80</ele>
	<time>2023-08-06T11:56:16.000Z</time>
</trkpt>
<trkpt lat="46.0787880" lon="10.4981890">
	<ele>1984.80</ele>
	<time>2023-08-06T11:56:17.000Z</time>
</trkpt>
<trkpt lat="46.0787940" lon="10.4981970">
	<ele>1984.80</ele>
	<time>2023-08-06T11:56:18.000Z</time>
</trkpt>
<trkpt lat="46.0788010" lon="10.4982070">
	<ele>1984.80</ele>
	<time>2023-08-06T11:56:19.000Z</time>
</trkpt>
<trkpt lat="46.0788120" lon="10.4982160">
	<ele>1984.80</ele>
	<time>2023-08-06T11:56:20.000Z</time>
</trkpt>
<trkpt lat="46.0788210" lon="10.4982250">
	<ele>1984.80</ele>
	<time>2023-08-06T11:56:21.000Z</time>
</trkpt>
<trkpt lat="46.0788310" lon="10.4982300">
	<ele>1984.80</ele>
	<time>2023-08-06T11:56:22.000Z</time>
</trkpt>
<trkpt lat="46.0788410" lon="10.4982330">
	<ele>1984.60</ele>
	<time>2023-08-06T11:56:23.000Z</time>
</trkpt>
<trkpt lat="46.0788440" lon="10.4982350">
	<ele>1984.60</ele>
	<time>2023-08-06T11:56:24.000Z</time>
</trkpt>
<trkpt lat="46.0788430" lon="10.4982380">
	<ele>1984.60</ele>
	<time>2023-08-06T11:56:25.000Z</time>
</trkpt>
<trkpt lat="46.0788480" lon="10.4982470">
	<ele>1984.60</ele>
	<time>2023-08-06T11:56:26.000Z</time>
</trkpt>
<trkpt lat="46.0788560" lon="10.4982670">
	<ele>1984.40</ele>
	<time>2023-08-06T11:56:27.000Z</time>
</trkpt>
<trkpt lat="46.0788630" lon="10.4982790">
	<ele>1984.60</ele>
	<time>2023-08-06T11:56:28.000Z</time>
</trkpt>
<trkpt lat="46.0788700" lon="10.4982960">
	<ele>1984.60</ele>
	<time>2023-08-06T11:56:29.000Z</time>
</trkpt>
<trkpt lat="46.0788400" lon="10.4982710">
	<ele>1984.60</ele>
	<time>2023-08-06T11:56:30.000Z</time>
</trkpt>
<trkpt lat="46.0788510" lon="10.4982850">
	<ele>1984.60</ele>
	<time>2023-08-06T11:56:31.000Z</time>
</trkpt>
<trkpt lat="46.0788630" lon="10.4982960">
	<ele>1984.60</ele>
	<time>2023-08-06T11:56:32.000Z</time>
</trkpt>
<trkpt lat="46.0788710" lon="10.4983030">
	<ele>1984.60</ele>
	<time>2023-08-06T11:56:33.000Z</time>
</trkpt>
<trkpt lat="46.0788740" lon="10.4983050">
	<ele>1984.60</ele>
	<time>2023-08-06T11:56:34.000Z</time>
</trkpt>
<trkpt lat="46.0788830" lon="10.4983140">
	<ele>1984.60</ele>
	<time>2023-08-06T11:56:35.000Z</time>
</trkpt>
<trkpt lat="46.0788970" lon="10.4983290">
	<ele>1984.60</ele>
	<time>2023-08-06T11:56:36.000Z</time>
</trkpt>
<trkpt lat="46.0789080" lon="10.4983400">
	<ele>1984.60</ele>
	<time>2023-08-06T11:56:37.000Z</time>
</trkpt>
<trkpt lat="46.0789080" lon="10.4983410">
	<ele>1984.60</ele>
	<time>2023-08-06T11:56:38.000Z</time>
</trkpt>
<trkpt lat="46.0789000" lon="10.4983340">
	<ele>1984.60</ele>
	<time>2023-08-06T11:56:39.000Z</time>
</trkpt>
<trkpt lat="46.0788880" lon="10.4983210">
	<ele>1984.60</ele>
	<time>2023-08-06T11:56:40.000Z</time>
</trkpt>
<trkpt lat="46.0788790" lon="10.4983120">
	<ele>1984.60</ele>
	<time>2023-08-06T11:56:41.000Z</time>
</trkpt>
<trkpt lat="46.0788780" lon="10.4983120">
	<ele>1984.60</ele>
	<time>2023-08-06T11:56:42.000Z</time>
</trkpt>
<trkpt lat="46.0788740" lon="10.4983080">
	<ele>1984.60</ele>
	<time>2023-08-06T11:56:43.000Z</time>
</trkpt>
<trkpt lat="46.0788720" lon="10.4983060">
	<ele>1984.60</ele>
	<time>2023-08-06T11:56:44.000Z</time>
</trkpt>
<trkpt lat="46.0788720" lon="10.4983050">
	<ele>1984.40</ele>
	<time>2023-08-06T11:56:45.000Z</time>
</trkpt>
<trkpt lat="46.0788770" lon="10.4983090">
	<ele>1984.60</ele>
	<time>2023-08-06T11:56:46.000Z</time>
</trkpt>
<trkpt lat="46.0788730" lon="10.4983050">
	<ele>1984.60</ele>
	<time>2023-08-06T11:56:47.000Z</time>
</trkpt>
<trkpt lat="46.0788720" lon="10.4983040">
	<ele>1984.60</ele>
	<time>2023-08-06T11:56:48.000Z</time>
</trkpt>
<trkpt lat="46.0788720" lon="10.4983040">
	<ele>1984.60</ele>
	<time>2023-08-06T11:56:49.000Z</time>
</trkpt>
<trkpt lat="46.0788720" lon="10.4983040">
	<ele>1984.60</ele>
	<time>2023-08-06T11:56:50.000Z</time>
</trkpt>
<trkpt lat="46.0788720" lon="10.4983040">
	<ele>1984.60</ele>
	<time>2023-08-06T11:56:51.000Z</time>
</trkpt>
<trkpt lat="46.0788720" lon="10.4983040">
	<ele>1984.60</ele>
	<time>2023-08-06T11:56:52.000Z</time>
</trkpt>
<trkpt lat="46.0788720" lon="10.4983040">
	<ele>1984.60</ele>
	<time>2023-08-06T11:56:53.000Z</time>
</trkpt>
<trkpt lat="46.0788720" lon="10.4983040">
	<ele>1984.60</ele>
	<time>2023-08-06T11:56:54.000Z</time>
</trkpt>
<trkpt lat="46.0788710" lon="10.4983040">
	<ele>1984.60</ele>
	<time>2023-08-06T11:56:55.000Z</time>
</trkpt>
<trkpt lat="46.0788760" lon="10.4983140">
	<ele>1984.60</ele>
	<time>2023-08-06T11:56:56.000Z</time>
</trkpt>
<trkpt lat="46.0788760" lon="10.4983150">
	<ele>1984.60</ele>
	<time>2023-08-06T11:56:57.000Z</time>
</trkpt>
<trkpt lat="46.0788740" lon="10.4983070">
	<ele>1984.60</ele>
	<time>2023-08-06T11:56:58.000Z</time>
</trkpt>
<trkpt lat="46.0788730" lon="10.4983030">
	<ele>1984.60</ele>
	<time>2023-08-06T11:56:59.000Z</time>
</trkpt>
<trkpt lat="46.0788720" lon="10.4982980">
	<ele>1984.60</ele>
	<time>2023-08-06T11:57:00.000Z</time>
</trkpt>
<trkpt lat="46.0788750" lon="10.4982980">
	<ele>1984.60</ele>
	<time>2023-08-06T11:57:01.000Z</time>
</trkpt>
<trkpt lat="46.0788770" lon="10.4983000">
	<ele>1984.60</ele>
	<time>2023-08-06T11:57:02.000Z</time>
</trkpt>
<trkpt lat="46.0788750" lon="10.4982910">
	<ele>1984.60</ele>
	<time>2023-08-06T11:57:03.000Z</time>
</trkpt>
<trkpt lat="46.0788780" lon="10.4982920">
	<ele>1984.60</ele>
	<time>2023-08-06T11:57:04.000Z</time>
</trkpt>
<trkpt lat="46.0788710" lon="10.4982830">
	<ele>1984.60</ele>
	<time>2023-08-06T11:57:05.000Z</time>
</trkpt>
<trkpt lat="46.0788660" lon="10.4982760">
	<ele>1984.60</ele>
	<time>2023-08-06T11:57:06.000Z</time>
</trkpt>
<trkpt lat="46.0788650" lon="10.4982710">
	<ele>1984.60</ele>
	<time>2023-08-06T11:57:07.000Z</time>
</trkpt>
<trkpt lat="46.0788730" lon="10.4982740">
	<ele>1984.60</ele>
	<time>2023-08-06T11:57:08.000Z</time>
</trkpt>
<trkpt lat="46.0788770" lon="10.4982740">
	<ele>1984.60</ele>
	<time>2023-08-06T11:57:09.000Z</time>
</trkpt>
<trkpt lat="46.0788780" lon="10.4982720">
	<ele>1984.60</ele>
	<time>2023-08-06T11:57:10.000Z</time>
</trkpt>
<trkpt lat="46.0788790" lon="10.4982720">
	<ele>1984.60</ele>
	<time>2023-08-06T11:57:11.000Z</time>
</trkpt>
<trkpt lat="46.0788700" lon="10.4982640">
	<ele>1984.60</ele>
	<time>2023-08-06T11:57:12.000Z</time>
</trkpt>
<trkpt lat="46.0788680" lon="10.4982580">
	<ele>1984.60</ele>
	<time>2023-08-06T11:57:13.000Z</time>
</trkpt>
<trkpt lat="46.0788690" lon="10.4982570">
	<ele>1984.60</ele>
	<time>2023-08-06T11:57:14.000Z</time>
</trkpt>
<trkpt lat="46.0788700" lon="10.4982540">
	<ele>1984.60</ele>
	<time>2023-08-06T11:57:15.000Z</time>
</trkpt>
<trkpt lat="46.0788540" lon="10.4982340">
	<ele>1984.60</ele>
	<time>2023-08-06T11:57:16.000Z</time>
</trkpt>
<trkpt lat="46.0788500" lon="10.4982230">
	<ele>1984.60</ele>
	<time>2023-08-06T11:57:17.000Z</time>
</trkpt>
<trkpt lat="46.0788510" lon="10.4982200">
	<ele>1984.60</ele>
	<time>2023-08-06T11:57:18.000Z</time>
</trkpt>
<trkpt lat="46.0788530" lon="10.4982200">
	<ele>1984.60</ele>
	<time>2023-08-06T11:57:19.000Z</time>
</trkpt>
<trkpt lat="46.0788540" lon="10.4982210">
	<ele>1984.60</ele>
	<time>2023-08-06T11:57:20.000Z</time>
</trkpt>
<trkpt lat="46.0788510" lon="10.4982180">
	<ele>1984.60</ele>
	<time>2023-08-06T11:57:21.000Z</time>
</trkpt>
<trkpt lat="46.0788500" lon="10.4982190">
	<ele>1984.60</ele>
	<time>2023-08-06T11:57:22.000Z</time>
</trkpt>
<trkpt lat="46.0788420" lon="10.4982160">
	<ele>1984.60</ele>
	<time>2023-08-06T11:57:23.000Z</time>
</trkpt>
<trkpt lat="46.0788430" lon="10.4982180">
	<ele>1984.60</ele>
	<time>2023-08-06T11:57:24.000Z</time>
</trkpt>
<trkpt lat="46.0788280" lon="10.4982050">
	<ele>1984.60</ele>
	<time>2023-08-06T11:57:25.000Z</time>
</trkpt>
<trkpt lat="46.0788230" lon="10.4982020">
	<ele>1984.60</ele>
	<time>2023-08-06T11:57:26.000Z</time>
</trkpt>
<trkpt lat="46.0788190" lon="10.4981990">
	<ele>1984.60</ele>
	<time>2023-08-06T11:57:27.000Z</time>
</trkpt>
<trkpt lat="46.0788180" lon="10.4981980">
	<ele>1984.60</ele>
	<time>2023-08-06T11:57:28.000Z</time>
</trkpt>
<trkpt lat="46.0788150" lon="10.4981970">
	<ele>1984.60</ele>
	<time>2023-08-06T11:57:29.000Z</time>
</trkpt>
<trkpt lat="46.0788100" lon="10.4981950">
	<ele>1984.60</ele>
	<time>2023-08-06T11:57:30.000Z</time>
</trkpt>
<trkpt lat="46.0788060" lon="10.4981910">
	<ele>1984.60</ele>
	<time>2023-08-06T11:57:31.000Z</time>
</trkpt>
<trkpt lat="46.0788070" lon="10.4981910">
	<ele>1984.60</ele>
	<time>2023-08-06T11:57:32.000Z</time>
</trkpt>
<trkpt lat="46.0788050" lon="10.4981880">
	<ele>1984.60</ele>
	<time>2023-08-06T11:57:33.000Z</time>
</trkpt>
<trkpt lat="46.0788100" lon="10.4981930">
	<ele>1984.60</ele>
	<time>2023-08-06T11:57:34.000Z</time>
</trkpt>
<trkpt lat="46.0788090" lon="10.4981930">
	<ele>1984.60</ele>
	<time>2023-08-06T11:57:35.000Z</time>
</trkpt>
<trkpt lat="46.0788120" lon="10.4981940">
	<ele>1984.60</ele>
	<time>2023-08-06T11:57:36.000Z</time>
</trkpt>
<trkpt lat="46.0788170" lon="10.4981980">
	<ele>1984.60</ele>
	<time>2023-08-06T11:57:37.000Z</time>
</trkpt>
<trkpt lat="46.0788190" lon="10.4982020">
	<ele>1984.60</ele>
	<time>2023-08-06T11:57:38.000Z</time>
</trkpt>
<trkpt lat="46.0788180" lon="10.4982010">
	<ele>1984.60</ele>
	<time>2023-08-06T11:57:39.000Z</time>
</trkpt>
<trkpt lat="46.0788180" lon="10.4982010">
	<ele>1984.60</ele>
	<time>2023-08-06T11:57:40.000Z</time>
</trkpt>
<trkpt lat="46.0788180" lon="10.4982010">
	<ele>1984.60</ele>
	<time>2023-08-06T11:57:41.000Z</time>
</trkpt>
<trkpt lat="46.0788180" lon="10.4982010">
	<ele>1984.60</ele>
	<time>2023-08-06T11:57:42.000Z</time>
</trkpt>
<trkpt lat="46.0788180" lon="10.4982010">
	<ele>1984.60</ele>
	<time>2023-08-06T11:57:43.000Z</time>
</trkpt>
<trkpt lat="46.0788210" lon="10.4982040">
	<ele>1984.60</ele>
	<time>2023-08-06T11:57:44.000Z</time>
</trkpt>
<trkpt lat="46.0788290" lon="10.4982060">
	<ele>1984.60</ele>
	<time>2023-08-06T11:57:45.000Z</time>
</trkpt>
<trkpt lat="46.0788300" lon="10.4982020">
	<ele>1984.60</ele>
	<time>2023-08-06T11:57:46.000Z</time>
</trkpt>
<trkpt lat="46.0788240" lon="10.4981930">
	<ele>1984.60</ele>
	<time>2023-08-06T11:57:47.000Z</time>
</trkpt>
<trkpt lat="46.0788310" lon="10.4982000">
	<ele>1984.60</ele>
	<time>2023-08-06T11:57:48.000Z</time>
</trkpt>
<trkpt lat="46.0788340" lon="10.4982040">
	<ele>1984.60</ele>
	<time>2023-08-06T11:57:49.000Z</time>
</trkpt>
<trkpt lat="46.0788350" lon="10.4982080">
	<ele>1984.60</ele>
	<time>2023-08-06T11:57:50.000Z</time>
</trkpt>
<trkpt lat="46.0788420" lon="10.4982110">
	<ele>1984.60</ele>
	<time>2023-08-06T11:57:51.000Z</time>
</trkpt>
<trkpt lat="46.0788460" lon="10.4982130">
	<ele>1984.60</ele>
	<time>2023-08-06T11:57:52.000Z</time>
</trkpt>
<trkpt lat="46.0788530" lon="10.4982140">
	<ele>1984.60</ele>
	<time>2023-08-06T11:57:53.000Z</time>
</trkpt>
<trkpt lat="46.0788510" lon="10.4982060">
	<ele>1984.60</ele>
	<time>2023-08-06T11:57:54.000Z</time>
</trkpt>
<trkpt lat="46.0788580" lon="10.4982090">
	<ele>1984.60</ele>
	<time>2023-08-06T11:57:55.000Z</time>
</trkpt>
<trkpt lat="46.0788680" lon="10.4982130">
	<ele>1984.60</ele>
	<time>2023-08-06T11:57:56.000Z</time>
</trkpt>
<trkpt lat="46.0788720" lon="10.4982110">
	<ele>1984.60</ele>
	<time>2023-08-06T11:57:57.000Z</time>
</trkpt>
<trkpt lat="46.0788820" lon="10.4982160">
	<ele>1984.60</ele>
	<time>2023-08-06T11:57:58.000Z</time>
</trkpt>
<trkpt lat="46.0788900" lon="10.4982210">
	<ele>1984.60</ele>
	<time>2023-08-06T11:57:59.000Z</time>
</trkpt>
<trkpt lat="46.0788920" lon="10.4982130">
	<ele>1984.60</ele>
	<time>2023-08-06T11:58:00.000Z</time>
</trkpt>
<trkpt lat="46.0789020" lon="10.4982110">
	<ele>1984.60</ele>
	<time>2023-08-06T11:58:01.000Z</time>
</trkpt>
<trkpt lat="46.0789010" lon="10.4981990">
	<ele>1984.60</ele>
	<time>2023-08-06T11:58:02.000Z</time>
</trkpt>
<trkpt lat="46.0789100" lon="10.4982000">
	<ele>1984.60</ele>
	<time>2023-08-06T11:58:03.000Z</time>
</trkpt>
<trkpt lat="46.0789190" lon="10.4981960">
	<ele>1984.60</ele>
	<time>2023-08-06T11:58:04.000Z</time>
</trkpt>
<trkpt lat="46.0789250" lon="10.4981880">
	<ele>1984.60</ele>
	<time>2023-08-06T11:58:05.000Z</time>
</trkpt>
<trkpt lat="46.0789370" lon="10.4981900">
	<ele>1984.60</ele>
	<time>2023-08-06T11:58:06.000Z</time>
</trkpt>
<trkpt lat="46.0789510" lon="10.4981940">
	<ele>1984.60</ele>
	<time>2023-08-06T11:58:07.000Z</time>
</trkpt>
<trkpt lat="46.0789690" lon="10.4981990">
	<ele>1984.60</ele>
	<time>2023-08-06T11:58:08.000Z</time>
</trkpt>
<trkpt lat="46.0789760" lon="10.4981940">
	<ele>1984.60</ele>
	<time>2023-08-06T11:58:09.000Z</time>
</trkpt>
<trkpt lat="46.0789790" lon="10.4981830">
	<ele>1984.60</ele>
	<time>2023-08-06T11:58:10.000Z</time>
</trkpt>
<trkpt lat="46.0789860" lon="10.4981780">
	<ele>1984.60</ele>
	<time>2023-08-06T11:58:11.000Z</time>
</trkpt>
<trkpt lat="46.0789930" lon="10.4981780">
	<ele>1984.60</ele>
	<time>2023-08-06T11:58:12.000Z</time>
</trkpt>
<trkpt lat="46.0789930" lon="10.4981660">
	<ele>1984.60</ele>
	<time>2023-08-06T11:58:13.000Z</time>
</trkpt>
<trkpt lat="46.0789930" lon="10.4981550">
	<ele>1984.60</ele>
	<time>2023-08-06T11:58:14.000Z</time>
</trkpt>
<trkpt lat="46.0789980" lon="10.4981470">
	<ele>1984.60</ele>
	<time>2023-08-06T11:58:15.000Z</time>
</trkpt>
<trkpt lat="46.0790000" lon="10.4981360">
	<ele>1984.60</ele>
	<time>2023-08-06T11:58:16.000Z</time>
</trkpt>
<trkpt lat="46.0790050" lon="10.4981280">
	<ele>1984.60</ele>
	<time>2023-08-06T11:58:17.000Z</time>
</trkpt>
<trkpt lat="46.0790110" lon="10.4981200">
	<ele>1984.60</ele>
	<time>2023-08-06T11:58:18.000Z</time>
</trkpt>
<trkpt lat="46.0790150" lon="10.4981050">
	<ele>1984.60</ele>
	<time>2023-08-06T11:58:19.000Z</time>
</trkpt>
<trkpt lat="46.0790150" lon="10.4980930">
	<ele>1984.60</ele>
	<time>2023-08-06T11:58:20.000Z</time>
</trkpt>
<trkpt lat="46.0790110" lon="10.4980810">
	<ele>1984.60</ele>
	<time>2023-08-06T11:58:21.000Z</time>
</trkpt>
<trkpt lat="46.0790090" lon="10.4980780">
	<ele>1984.60</ele>
	<time>2023-08-06T11:58:22.000Z</time>
</trkpt>
<trkpt lat="46.0790060" lon="10.4980770">
	<ele>1984.60</ele>
	<time>2023-08-06T11:58:23.000Z</time>
</trkpt>
<trkpt lat="46.0790060" lon="10.4980800">
	<ele>1984.60</ele>
	<time>2023-08-06T11:58:24.000Z</time>
</trkpt>
<trkpt lat="46.0790060" lon="10.4980800">
	<ele>1984.60</ele>
	<time>2023-08-06T11:58:25.000Z</time>
</trkpt>
<trkpt lat="46.0790050" lon="10.4980840">
	<ele>1984.60</ele>
	<time>2023-08-06T11:58:26.000Z</time>
</trkpt>
<trkpt lat="46.0790030" lon="10.4980860">
	<ele>1984.60</ele>
	<time>2023-08-06T11:58:27.000Z</time>
</trkpt>
<trkpt lat="46.0790020" lon="10.4980870">
	<ele>1984.60</ele>
	<time>2023-08-06T11:58:28.000Z</time>
</trkpt>
<trkpt lat="46.0790000" lon="10.4980890">
	<ele>1984.60</ele>
	<time>2023-08-06T11:58:29.000Z</time>
</trkpt>
<trkpt lat="46.0790000" lon="10.4980900">
	<ele>1984.60</ele>
	<time>2023-08-06T11:58:30.000Z</time>
</trkpt>
<trkpt lat="46.0790020" lon="10.4980850">
	<ele>1984.60</ele>
	<time>2023-08-06T11:58:31.000Z</time>
</trkpt>
<trkpt lat="46.0790080" lon="10.4980870">
	<ele>1984.60</ele>
	<time>2023-08-06T11:58:32.000Z</time>
</trkpt>
<trkpt lat="46.0790100" lon="10.4980790">
	<ele>1984.60</ele>
	<time>2023-08-06T11:58:33.000Z</time>
</trkpt>
<trkpt lat="46.0790120" lon="10.4980680">
	<ele>1984.60</ele>
	<time>2023-08-06T11:58:34.000Z</time>
</trkpt>
<trkpt lat="46.0790110" lon="10.4980520">
	<ele>1984.60</ele>
	<time>2023-08-06T11:58:35.000Z</time>
</trkpt>
<trkpt lat="46.0790120" lon="10.4980410">
	<ele>1984.60</ele>
	<time>2023-08-06T11:58:36.000Z</time>
</trkpt>
<trkpt lat="46.0790170" lon="10.4980390">
	<ele>1984.60</ele>
	<time>2023-08-06T11:58:37.000Z</time>
</trkpt>
<trkpt lat="46.0790210" lon="10.4980370">
	<ele>1984.60</ele>
	<time>2023-08-06T11:58:38.000Z</time>
</trkpt>
<trkpt lat="46.0790240" lon="10.4980350">
	<ele>1984.60</ele>
	<time>2023-08-06T11:58:39.000Z</time>
</trkpt>
<trkpt lat="46.0790210" lon="10.4980210">
	<ele>1984.60</ele>
	<time>2023-08-06T11:58:40.000Z</time>
</trkpt>
<trkpt lat="46.0790310" lon="10.4980200">
	<ele>1984.60</ele>
	<time>2023-08-06T11:58:41.000Z</time>
</trkpt>
<trkpt lat="46.0790330" lon="10.4980100">
	<ele>1984.60</ele>
	<time>2023-08-06T11:58:42.000Z</time>
</trkpt>
<trkpt lat="46.0790450" lon="10.4980140">
	<ele>1984.60</ele>
	<time>2023-08-06T11:58:43.000Z</time>
</trkpt>
<trkpt lat="46.0790520" lon="10.4980130">
	<ele>1984.60</ele>
	<time>2023-08-06T11:58:44.000Z</time>
</trkpt>
<trkpt lat="46.0790580" lon="10.4980110">
	<ele>1984.60</ele>
	<time>2023-08-06T11:58:45.000Z</time>
</trkpt>
<trkpt lat="46.0790670" lon="10.4980060">
	<ele>1984.60</ele>
	<time>2023-08-06T11:58:46.000Z</time>
</trkpt>
<trkpt lat="46.0790770" lon="10.4980060">
	<ele>1984.60</ele>
	<time>2023-08-06T11:58:47.000Z</time>
</trkpt>
<trkpt lat="46.0790850" lon="10.4980170">
	<ele>1980.60</ele>
	<time>2023-08-06T11:58:48.000Z</time>
</trkpt>
<trkpt lat="46.0790900" lon="10.4980200">
	<ele>1980.60</ele>
	<time>2023-08-06T11:58:49.000Z</time>
</trkpt>
<trkpt lat="46.0790970" lon="10.4980300">
	<ele>1980.60</ele>
	<time>2023-08-06T11:58:50.000Z</time>
</trkpt>
<trkpt lat="46.0790950" lon="10.4980280">
	<ele>1980.60</ele>
	<time>2023-08-06T11:58:51.000Z</time>
</trkpt>
<trkpt lat="46.0790950" lon="10.4980310">
	<ele>1980.60</ele>
	<time>2023-08-06T11:58:52.000Z</time>
</trkpt>
<trkpt lat="46.0790940" lon="10.4980350">
	<ele>1980.60</ele>
	<time>2023-08-06T11:58:53.000Z</time>
</trkpt>
<trkpt lat="46.0790870" lon="10.4980260">
	<ele>1980.60</ele>
	<time>2023-08-06T11:58:54.000Z</time>
</trkpt>
<trkpt lat="46.0790830" lon="10.4980350">
	<ele>1980.60</ele>
	<time>2023-08-06T11:58:55.000Z</time>
</trkpt>
<trkpt lat="46.0790820" lon="10.4980450">
	<ele>1980.60</ele>
	<time>2023-08-06T11:58:56.000Z</time>
</trkpt>
<trkpt lat="46.0790850" lon="10.4980590">
	<ele>1980.60</ele>
	<time>2023-08-06T11:58:57.000Z</time>
</trkpt>
<trkpt lat="46.0790880" lon="10.4980740">
	<ele>1980.60</ele>
	<time>2023-08-06T11:58:58.000Z</time>
</trkpt>
<trkpt lat="46.0790940" lon="10.4980880">
	<ele>1980.80</ele>
	<time>2023-08-06T11:58:59.000Z</time>
</trkpt>
<trkpt lat="46.0790930" lon="10.4980980">
	<ele>1980.80</ele>
	<time>2023-08-06T11:59:00.000Z</time>
</trkpt>
<trkpt lat="46.0790910" lon="10.4981000">
	<ele>1981.00</ele>
	<time>2023-08-06T11:59:01.000Z</time>
</trkpt>
<trkpt lat="46.0790920" lon="10.4981030">
	<ele>1981.40</ele>
	<time>2023-08-06T11:59:02.000Z</time>
</trkpt>
<trkpt lat="46.0790920" lon="10.4981110">
	<ele>1981.40</ele>
	<time>2023-08-06T11:59:03.000Z</time>
</trkpt>
<trkpt lat="46.0790930" lon="10.4981200">
	<ele>1981.60</ele>
	<time>2023-08-06T11:59:04.000Z</time>
</trkpt>
<trkpt lat="46.0791030" lon="10.4981390">
	<ele>1981.60</ele>
	<time>2023-08-06T11:59:05.000Z</time>
</trkpt>
<trkpt lat="46.0791080" lon="10.4981530">
	<ele>1981.60</ele>
	<time>2023-08-06T11:59:06.000Z</time>
</trkpt>
<trkpt lat="46.0791150" lon="10.4981650">
	<ele>1981.60</ele>
	<time>2023-08-06T11:59:07.000Z</time>
</trkpt>
<trkpt lat="46.0791200" lon="10.4981730">
	<ele>1981.60</ele>
	<time>2023-08-06T11:59:08.000Z</time>
</trkpt>
<trkpt lat="46.0791280" lon="10.4981780">
	<ele>1981.20</ele>
	<time>2023-08-06T11:59:09.000Z</time>
</trkpt>
<trkpt lat="46.0791450" lon="10.4981850">
	<ele>1981.20</ele>
	<time>2023-08-06T11:59:10.000Z</time>
</trkpt>
<trkpt lat="46.0791660" lon="10.4982080">
	<ele>1981.00</ele>
	<time>2023-08-06T11:59:11.000Z</time>
</trkpt>
<trkpt lat="46.0791770" lon="10.4982180">
	<ele>1980.80</ele>
	<time>2023-08-06T11:59:12.000Z</time>
</trkpt>
<trkpt lat="46.0791860" lon="10.4982280">
	<ele>1980.80</ele>
	<time>2023-08-06T11:59:13.000Z</time>
</trkpt>
<trkpt lat="46.0791800" lon="10.4982170">
	<ele>1980.80</ele>
	<time>2023-08-06T11:59:14.000Z</time>
</trkpt>
<trkpt lat="46.0791780" lon="10.4982050">
	<ele>1980.60</ele>
	<time>2023-08-06T11:59:15.000Z</time>
</trkpt>
<trkpt lat="46.0791630" lon="10.4981960">
	<ele>1980.60</ele>
	<time>2023-08-06T11:59:16.000Z</time>
</trkpt>
<trkpt lat="46.0791400" lon="10.4981810">
	<ele>1980.60</ele>
	<time>2023-08-06T11:59:17.000Z</time>
</trkpt>
<trkpt lat="46.0791380" lon="10.4981860">
	<ele>1980.40</ele>
	<time>2023-08-06T11:59:18.000Z</time>
</trkpt>
<trkpt lat="46.0791420" lon="10.4981940">
	<ele>1980.40</ele>
	<time>2023-08-06T11:59:19.000Z</time>
</trkpt>
<trkpt lat="46.0791520" lon="10.4982070">
	<ele>1980.40</ele>
	<time>2023-08-06T11:59:20.000Z</time>
</trkpt>
<trkpt lat="46.0791520" lon="10.4982150">
	<ele>1980.20</ele>
	<time>2023-08-06T11:59:21.000Z</time>
</trkpt>
<trkpt lat="46.0791560" lon="10.4982240">
	<ele>1980.00</ele>
	<time>2023-08-06T11:59:22.000Z</time>
</trkpt>
<trkpt lat="46.0791610" lon="10.4982370">
	<ele>1980.00</ele>
	<time>2023-08-06T11:59:23.000Z</time>
</trkpt>
<trkpt lat="46.0791650" lon="10.4982440">
	<ele>1979.80</ele>
	<time>2023-08-06T11:59:24.000Z</time>
</trkpt>
<trkpt lat="46.0791680" lon="10.4982370">
	<ele>1979.80</ele>
	<time>2023-08-06T11:59:25.000Z</time>
</trkpt>
<trkpt lat="46.0791690" lon="10.4982340">
	<ele>1979.80</ele>
	<time>2023-08-06T11:59:26.000Z</time>
</trkpt>
<trkpt lat="46.0791680" lon="10.4982310">
	<ele>1979.80</ele>
	<time>2023-08-06T11:59:27.000Z</time>
</trkpt>
<trkpt lat="46.0791790" lon="10.4982420">
	<ele>1979.60</ele>
	<time>2023-08-06T11:59:28.000Z</time>
</trkpt>
<trkpt lat="46.0791970" lon="10.4982590">
	<ele>1979.60</ele>
	<time>2023-08-06T11:59:29.000Z</time>
</trkpt>
<trkpt lat="46.0792040" lon="10.4982720">
	<ele>1979.60</ele>
	<time>2023-08-06T11:59:30.000Z</time>
</trkpt>
<trkpt lat="46.0792150" lon="10.4982940">
	<ele>1979.40</ele>
	<time>2023-08-06T11:59:31.000Z</time>
</trkpt>
<trkpt lat="46.0792130" lon="10.4983150">
	<ele>1979.40</ele>
	<time>2023-08-06T11:59:32.000Z</time>
</trkpt>
<trkpt lat="46.0792240" lon="10.4983350">
	<ele>1979.40</ele>
	<time>2023-08-06T11:59:33.000Z</time>
</trkpt>
<trkpt lat="46.0792240" lon="10.4983230">
	<ele>1979.20</ele>
	<time>2023-08-06T11:59:34.000Z</time>
</trkpt>
<trkpt lat="46.0792200" lon="10.4983130">
	<ele>1979.20</ele>
	<time>2023-08-06T11:59:35.000Z</time>
</trkpt>
<trkpt lat="46.0792180" lon="10.4983140">
	<ele>1979.00</ele>
	<time>2023-08-06T11:59:36.000Z</time>
</trkpt>
<trkpt lat="46.0792210" lon="10.4983140">
	<ele>1979.00</ele>
	<time>2023-08-06T11:59:37.000Z</time>
</trkpt>
<trkpt lat="46.0792250" lon="10.4983150">
	<ele>1979.20</ele>
	<time>2023-08-06T11:59:38.000Z</time>
</trkpt>
<trkpt lat="46.0792250" lon="10.4983180">
	<ele>1979.20</ele>
	<time>2023-08-06T11:59:39.000Z</time>
</trkpt>
<trkpt lat="46.0792240" lon="10.4983150">
	<ele>1979.20</ele>
	<time>2023-08-06T11:59:40.000Z</time>
</trkpt>
<trkpt lat="46.0792220" lon="10.4983120">
	<ele>1979.20</ele>
	<time>2023-08-06T11:59:41.000Z</time>
</trkpt>
<trkpt lat="46.0792310" lon="10.4983150">
	<ele>1979.20</ele>
	<time>2023-08-06T11:59:42.000Z</time>
</trkpt>
<trkpt lat="46.0792360" lon="10.4983170">
	<ele>1979.20</ele>
	<time>2023-08-06T11:59:43.000Z</time>
</trkpt>
<trkpt lat="46.0792320" lon="10.4983070">
	<ele>1979.20</ele>
	<time>2023-08-06T11:59:44.000Z</time>
</trkpt>
<trkpt lat="46.0792300" lon="10.4983070">
	<ele>1979.20</ele>
	<time>2023-08-06T11:59:45.000Z</time>
</trkpt>
<trkpt lat="46.0792210" lon="10.4982930">
	<ele>1979.20</ele>
	<time>2023-08-06T11:59:46.000Z</time>
</trkpt>
<trkpt lat="46.0792180" lon="10.4982910">
	<ele>1979.20</ele>
	<time>2023-08-06T11:59:47.000Z</time>
</trkpt>
<trkpt lat="46.0792130" lon="10.4982920">
	<ele>1979.20</ele>
	<time>2023-08-06T11:59:48.000Z</time>
</trkpt>
<trkpt lat="46.0792090" lon="10.4982920">
	<ele>1979.20</ele>
	<time>2023-08-06T11:59:49.000Z</time>
</trkpt>
<trkpt lat="46.0792060" lon="10.4982930">
	<ele>1979.20</ele>
	<time>2023-08-06T11:59:50.000Z</time>
</trkpt>
<trkpt lat="46.0792060" lon="10.4983020">
	<ele>1979.20</ele>
	<time>2023-08-06T11:59:51.000Z</time>
</trkpt>
<trkpt lat="46.0792080" lon="10.4983070">
	<ele>1979.20</ele>
	<time>2023-08-06T11:59:52.000Z</time>
</trkpt>
<trkpt lat="46.0792040" lon="10.4983120">
	<ele>1979.20</ele>
	<time>2023-08-06T11:59:53.000Z</time>
</trkpt>
<trkpt lat="46.0792010" lon="10.4982980">
	<ele>1979.20</ele>
	<time>2023-08-06T11:59:54.000Z</time>
</trkpt>
<trkpt lat="46.0791960" lon="10.4982990">
	<ele>1979.40</ele>
	<time>2023-08-06T11:59:55.000Z</time>
</trkpt>
<trkpt lat="46.0791960" lon="10.4982960">
	<ele>1979.40</ele>
	<time>2023-08-06T11:59:56.000Z</time>
</trkpt>
<trkpt lat="46.0792100" lon="10.4983130">
	<ele>1979.60</ele>
	<time>2023-08-06T11:59:57.000Z</time>
</trkpt>
<trkpt lat="46.0792170" lon="10.4983230">
	<ele>1979.80</ele>
	<time>2023-08-06T11:59:58.000Z</time>
</trkpt>
<trkpt lat="46.0792230" lon="10.4983340">
	<ele>1979.80</ele>
	<time>2023-08-06T11:59:59.000Z</time>
</trkpt>
<trkpt lat="46.0792190" lon="10.4983340">
	<ele>1979.80</ele>
	<time>2023-08-06T12:00:00.000Z</time>
</trkpt>
<trkpt lat="46.0792140" lon="10.4983270">
	<ele>1979.80</ele>
	<time>2023-08-06T12:00:01.000Z</time>
</trkpt>
<trkpt lat="46.0792120" lon="10.4983220">
	<ele>1979.80</ele>
	<time>2023-08-06T12:00:02.000Z</time>
</trkpt>
<trkpt lat="46.0791940" lon="10.4983110">
	<ele>1979.60</ele>
	<time>2023-08-06T12:00:03.000Z</time>
</trkpt>
<trkpt lat="46.0791890" lon="10.4983160">
	<ele>1979.60</ele>
	<time>2023-08-06T12:00:04.000Z</time>
</trkpt>
<trkpt lat="46.0792000" lon="10.4983160">
	<ele>1979.60</ele>
	<time>2023-08-06T12:00:05.000Z</time>
</trkpt>
<trkpt lat="46.0791990" lon="10.4983210">
	<ele>1979.40</ele>
	<time>2023-08-06T12:00:06.000Z</time>
</trkpt>
<trkpt lat="46.0792020" lon="10.4983270">
	<ele>1979.40</ele>
	<time>2023-08-06T12:00:07.000Z</time>
</trkpt>
<trkpt lat="46.0792040" lon="10.4983230">
	<ele>1979.40</ele>
	<time>2023-08-06T12:00:08.000Z</time>
</trkpt>
<trkpt lat="46.0792030" lon="10.4983180">
	<ele>1979.40</ele>
	<time>2023-08-06T12:00:09.000Z</time>
</trkpt>
<trkpt lat="46.0791980" lon="10.4983150">
	<ele>1979.20</ele>
	<time>2023-08-06T12:00:10.000Z</time>
</trkpt>
<trkpt lat="46.0791960" lon="10.4983130">
	<ele>1979.20</ele>
	<time>2023-08-06T12:00:11.000Z</time>
</trkpt>
<trkpt lat="46.0791990" lon="10.4983040">
	<ele>1979.20</ele>
	<time>2023-08-06T12:00:12.000Z</time>
</trkpt>
<trkpt lat="46.0792020" lon="10.4983020">
	<ele>1979.20</ele>
	<time>2023-08-06T12:00:13.000Z</time>
</trkpt>
<trkpt lat="46.0792020" lon="10.4983010">
	<ele>1979.20</ele>
	<time>2023-08-06T12:00:14.000Z</time>
</trkpt>
<trkpt lat="46.0792000" lon="10.4983010">
	<ele>1979.20</ele>
	<time>2023-08-06T12:00:15.000Z</time>
</trkpt>
<trkpt lat="46.0792000" lon="10.4983000">
	<ele>1979.20</ele>
	<time>2023-08-06T12:00:16.000Z</time>
</trkpt>
<trkpt lat="46.0792070" lon="10.4983010">
	<ele>1979.20</ele>
	<time>2023-08-06T12:00:17.000Z</time>
</trkpt>
<trkpt lat="46.0791980" lon="10.4982720">
	<ele>1979.20</ele>
	<time>2023-08-06T12:00:18.000Z</time>
</trkpt>
<trkpt lat="46.0791990" lon="10.4982550">
	<ele>1979.20</ele>
	<time>2023-08-06T12:00:19.000Z</time>
</trkpt>
<trkpt lat="46.0791990" lon="10.4982420">
	<ele>1979.00</ele>
	<time>2023-08-06T12:00:20.000Z</time>
</trkpt>
<trkpt lat="46.0792010" lon="10.4982430">
	<ele>1979.00</ele>
	<time>2023-08-06T12:00:21.000Z</time>
</trkpt>
<trkpt lat="46.0792000" lon="10.4982400">
	<ele>1979.00</ele>
	<time>2023-08-06T12:00:22.000Z</time>
</trkpt>
<trkpt lat="46.0791960" lon="10.4982310">
	<ele>1979.00</ele>
	<time>2023-08-06T12:00:23.000Z</time>
</trkpt>
<trkpt lat="46.0791920" lon="10.4982310">
	<ele>1979.00</ele>
	<time>2023-08-06T12:00:24.000Z</time>
</trkpt>
<trkpt lat="46.0791920" lon="10.4982320">
	<ele>1978.80</ele>
	<time>2023-08-06T12:00:25.000Z</time>
</trkpt>
<trkpt lat="46.0791900" lon="10.4982280">
	<ele>1978.80</ele>
	<time>2023-08-06T12:00:26.000Z</time>
</trkpt>
<trkpt lat="46.0791870" lon="10.4982210">
	<ele>1978.80</ele>
	<time>2023-08-06T12:00:27.000Z</time>
</trkpt>
<trkpt lat="46.0791910" lon="10.4982260">
	<ele>1978.60</ele>
	<time>2023-08-06T12:00:28.000Z</time>
</trkpt>
<trkpt lat="46.0791910" lon="10.4982290">
	<ele>1978.60</ele>
	<time>2023-08-06T12:00:29.000Z</time>
</trkpt>
<trkpt lat="46.0791890" lon="10.4982310">
	<ele>1978.60</ele>
	<time>2023-08-06T12:00:30.000Z</time>
</trkpt>
<trkpt lat="46.0791910" lon="10.4982320">
	<ele>1978.40</ele>
	<time>2023-08-06T12:00:31.000Z</time>
</trkpt>
<trkpt lat="46.0791800" lon="10.4982090">
	<ele>1978.40</ele>
	<time>2023-08-06T12:00:32.000Z</time>
</trkpt>
<trkpt lat="46.0791770" lon="10.4982080">
	<ele>1978.40</ele>
	<time>2023-08-06T12:00:33.000Z</time>
</trkpt>
<trkpt lat="46.0791740" lon="10.4982050">
	<ele>1978.20</ele>
	<time>2023-08-06T12:00:34.000Z</time>
</trkpt>
<trkpt lat="46.0791720" lon="10.4982020">
	<ele>1978.20</ele>
	<time>2023-08-06T12:00:35.000Z</time>
</trkpt>
<trkpt lat="46.0791700" lon="10.4982050">
	<ele>1978.20</ele>
	<time>2023-08-06T12:00:36.000Z</time>
</trkpt>
<trkpt lat="46.0791700" lon="10.4982100">
	<ele>1978.20</ele>
	<time>2023-08-06T12:00:37.000Z</time>
</trkpt>
<trkpt lat="46.0791670" lon="10.4982110">
	<ele>1978.00</ele>
	<time>2023-08-06T12:00:38.000Z</time>
</trkpt>
<trkpt lat="46.0791630" lon="10.4982110">
	<ele>1978.00</ele>
	<time>2023-08-06T12:00:39.000Z</time>
</trkpt>
<trkpt lat="46.0791600" lon="10.4982110">
	<ele>1978.00</ele>
	<time>2023-08-06T12:00:40.000Z</time>
</trkpt>
<trkpt lat="46.0791580" lon="10.4982120">
	<ele>1978.00</ele>
	<time>2023-08-06T12:00:41.000Z</time>
</trkpt>
<trkpt lat="46.0791690" lon="10.4982170">
	<ele>1978.00</ele>
	<time>2023-08-06T12:00:42.000Z</time>
</trkpt>
<trkpt lat="46.0791700" lon="10.4982170">
	<ele>1978.00</ele>
	<time>2023-08-06T12:00:43.000Z</time>
</trkpt>
<trkpt lat="46.0791710" lon="10.4982190">
	<ele>1978.00</ele>
	<time>2023-08-06T12:00:44.000Z</time>
</trkpt>
<trkpt lat="46.0791700" lon="10.4982220">
	<ele>1978.20</ele>
	<time>2023-08-06T12:00:45.000Z</time>
</trkpt>
<trkpt lat="46.0791810" lon="10.4982260">
	<ele>1978.40</ele>
	<time>2023-08-06T12:00:46.000Z</time>
</trkpt>
<trkpt lat="46.0791800" lon="10.4982250">
	<ele>1978.40</ele>
	<time>2023-08-06T12:00:47.000Z</time>
</trkpt>
<trkpt lat="46.0791790" lon="10.4982290">
	<ele>1978.60</ele>
	<time>2023-08-06T12:00:48.000Z</time>
</trkpt>
<trkpt lat="46.0791800" lon="10.4982330">
	<ele>1978.60</ele>
	<time>2023-08-06T12:00:49.000Z</time>
</trkpt>
<trkpt lat="46.0791810" lon="10.4982380">
	<ele>1978.80</ele>
	<time>2023-08-06T12:00:50.000Z</time>
</trkpt>
<trkpt lat="46.0791830" lon="10.4982420">
	<ele>1978.80</ele>
	<time>2023-08-06T12:00:51.000Z</time>
</trkpt>
<trkpt lat="46.0791870" lon="10.4982570">
	<ele>1978.80</ele>
	<time>2023-08-06T12:00:52.000Z</time>
</trkpt>
<trkpt lat="46.0791780" lon="10.4982570">
	<ele>1978.80</ele>
	<time>2023-08-06T12:00:53.000Z</time>
</trkpt>
<trkpt lat="46.0791710" lon="10.4982550">
	<ele>1978.80</ele>
	<time>2023-08-06T12:00:54.000Z</time>
</trkpt>
<trkpt lat="46.0791680" lon="10.4982550">
	<ele>1978.80</ele>
	<time>2023-08-06T12:00:55.000Z</time>
</trkpt>
<trkpt lat="46.0791610" lon="10.4982510">
	<ele>1978.80</ele>
	<time>2023-08-06T12:00:56.000Z</time>
</trkpt>
<trkpt lat="46.0791690" lon="10.4982570">
	<ele>1978.80</ele>
	<time>2023-08-06T12:00:57.000Z</time>
</trkpt>
<trkpt lat="46.0791770" lon="10.4982660">
	<ele>1978.80</ele>
	<time>2023-08-06T12:00:58.000Z</time>
</trkpt>
<trkpt lat="46.0791900" lon="10.4982810">
	<ele>1978.80</ele>
	<time>2023-08-06T12:00:59.000Z</time>
</trkpt>
<trkpt lat="46.0791910" lon="10.4982730">
	<ele>1978.80</ele>
	<time>2023-08-06T12:01:00.000Z</time>
</trkpt>
<trkpt lat="46.0791900" lon="10.4982740">
	<ele>1978.80</ele>
	<time>2023-08-06T12:01:01.000Z</time>
</trkpt>
<trkpt lat="46.0791820" lon="10.4982640">
	<ele>1978.80</ele>
	<time>2023-08-06T12:01:02.000Z</time>
</trkpt>
<trkpt lat="46.0791810" lon="10.4982660">
	<ele>1978.80</ele>
	<time>2023-08-06T12:01:03.000Z</time>
</trkpt>
<trkpt lat="46.0791800" lon="10.4982650">
	<ele>1978.80</ele>
	<time>2023-08-06T12:01:04.000Z</time>
</trkpt>
<trkpt lat="46.0791810" lon="10.4982680">
	<ele>1978.80</ele>
	<time>2023-08-06T12:01:05.000Z</time>
</trkpt>
<trkpt lat="46.0791790" lon="10.4982660">
	<ele>1978.80</ele>
	<time>2023-08-06T12:01:06.000Z</time>
</trkpt>
<trkpt lat="46.0791770" lon="10.4982640">
	<ele>1978.80</ele>
	<time>2023-08-06T12:01:07.000Z</time>
</trkpt>
<trkpt lat="46.0791690" lon="10.4982510">
	<ele>1978.80</ele>
	<time>2023-08-06T12:01:08.000Z</time>
</trkpt>
<trkpt lat="46.0791650" lon="10.4982430">
	<ele>1978.80</ele>
	<time>2023-08-06T12:01:09.000Z</time>
</trkpt>
<trkpt lat="46.0791680" lon="10.4982390">
	<ele>1978.80</ele>
	<time>2023-08-06T12:01:10.000Z</time>
</trkpt>
<trkpt lat="46.0791700" lon="10.4982390">
	<ele>1978.80</ele>
	<time>2023-08-06T12:01:11.000Z</time>
</trkpt>
<trkpt lat="46.0791590" lon="10.4982300">
	<ele>1978.80</ele>
	<time>2023-08-06T12:01:12.000Z</time>
</trkpt>
<trkpt lat="46.0791540" lon="10.4982240">
	<ele>1978.80</ele>
	<time>2023-08-06T12:01:13.000Z</time>
</trkpt>
<trkpt lat="46.0791530" lon="10.4982220">
	<ele>1978.80</ele>
	<time>2023-08-06T12:01:14.000Z</time>
</trkpt>
<trkpt lat="46.0791530" lon="10.4982240">
	<ele>1978.80</ele>
	<time>2023-08-06T12:01:15.000Z</time>
</trkpt>
<trkpt lat="46.0791530" lon="10.4982260">
	<ele>1978.80</ele>
	<time>2023-08-06T12:01:16.000Z</time>
</trkpt>
<trkpt lat="46.0791540" lon="10.4982160">
	<ele>1978.80</ele>
	<time>2023-08-06T12:01:17.000Z</time>
</trkpt>
<trkpt lat="46.0791560" lon="10.4982140">
	<ele>1978.80</ele>
	<time>2023-08-06T12:01:18.000Z</time>
</trkpt>
<trkpt lat="46.0791510" lon="10.4982100">
	<ele>1978.80</ele>
	<time>2023-08-06T12:01:19.000Z</time>
</trkpt>
<trkpt lat="46.0791470" lon="10.4982060">
	<ele>1978.80</ele>
	<time>2023-08-06T12:01:20.000Z</time>
</trkpt>
<trkpt lat="46.0791370" lon="10.4981920">
	<ele>1978.80</ele>
	<time>2023-08-06T12:01:21.000Z</time>
</trkpt>
<trkpt lat="46.0791270" lon="10.4981850">
	<ele>1978.80</ele>
	<time>2023-08-06T12:01:22.000Z</time>
</trkpt>
<trkpt lat="46.0791330" lon="10.4981880">
	<ele>1978.80</ele>
	<time>2023-08-06T12:01:23.000Z</time>
</trkpt>
<trkpt lat="46.0791250" lon="10.4981820">
	<ele>1978.80</ele>
	<time>2023-08-06T12:01:24.000Z</time>
</trkpt>
<trkpt lat="46.0791300" lon="10.4982010">
	<ele>1978.80</ele>
	<time>2023-08-06T12:01:25.000Z</time>
</trkpt>
<trkpt lat="46.0791300" lon="10.4982100">
	<ele>1978.80</ele>
	<time>2023-08-06T12:01:26.000Z</time>
</trkpt>
<trkpt lat="46.0791290" lon="10.4982150">
	<ele>1978.80</ele>
	<time>2023-08-06T12:01:27.000Z</time>
</trkpt>
<trkpt lat="46.0791240" lon="10.4982140">
	<ele>1978.80</ele>
	<time>2023-08-06T12:01:28.000Z</time>
</trkpt>
<trkpt lat="46.0791140" lon="10.4982070">
	<ele>1978.80</ele>
	<time>2023-08-06T12:01:29.000Z</time>
</trkpt>
<trkpt lat="46.0791020" lon="10.4981970">
	<ele>1978.80</ele>
	<time>2023-08-06T12:01:30.000Z</time>
</trkpt>
<trkpt lat="46.0790920" lon="10.4981900">
	<ele>1978.80</ele>
	<time>2023-08-06T12:01:31.000Z</time>
</trkpt>
<trkpt lat="46.0790890" lon="10.4981870">
	<ele>1978.80</ele>
	<time>2023-08-06T12:01:32.000Z</time>
</trkpt>
<trkpt lat="46.0790790" lon="10.4981750">
	<ele>1978.80</ele>
	<time>2023-08-06T12:01:33.000Z</time>
</trkpt>
<trkpt lat="46.0790720" lon="10.4981680">
	<ele>1978.80</ele>
	<time>2023-08-06T12:01:34.000Z</time>
</trkpt>
<trkpt lat="46.0790650" lon="10.4981630">
	<ele>1978.80</ele>
	<time>2023-08-06T12:01:35.000Z</time>
</trkpt>
<trkpt lat="46.0790580" lon="10.4981500">
	<ele>1978.80</ele>
	<time>2023-08-06T12:01:36.000Z</time>
</trkpt>
<trkpt lat="46.0790510" lon="10.4981430">
	<ele>1978.80</ele>
	<time>2023-08-06T12:01:37.000Z</time>
</trkpt>
<trkpt lat="46.0790380" lon="10.4981270">
	<ele>1978.80</ele>
	<time>2023-08-06T12:01:39.000Z</time>
</trkpt>
<trkpt lat="46.0790310" lon="10.4981190">
	<ele>1978.80</ele>
	<time>2023-08-06T12:01:40.000Z</time>
</trkpt>
<trkpt lat="46.0790240" lon="10.4981100">
	<ele>1978.80</ele>
	<time>2023-08-06T12:01:41.000Z</time>
</trkpt>
<trkpt lat="46.0790110" lon="10.4980950">
	<ele>1978.80</ele>
	<time>2023-08-06T12:01:43.000Z</time>
</trkpt>
<trkpt lat="46.0790030" lon="10.4980950">
	<ele>1978.80</ele>
	<time>2023-08-06T12:01:44.000Z</time>
</trkpt>
<trkpt lat="46.0789940" lon="10.4981020">
	<ele>1978.80</ele>
	<time>2023-08-06T12:01:46.000Z</time>
</trkpt>
<trkpt lat="46.0789990" lon="10.4980940">
	<ele>1978.80</ele>
	<time>2023-08-06T12:01:47.000Z</time>
</trkpt>
<trkpt lat="46.0790040" lon="10.4980930">
	<ele>1978.80</ele>
	<time>2023-08-06T12:01:48.000Z</time>
</trkpt>
<trkpt lat="46.0790140" lon="10.4981050">
	<ele>1978.80</ele>
	<time>2023-08-06T12:01:49.000Z</time>
</trkpt>
<trkpt lat="46.0790180" lon="10.4981090">
	<ele>1978.80</ele>
	<time>2023-08-06T12:01:50.000Z</time>
</trkpt>
<trkpt lat="46.0790200" lon="10.4981070">
	<ele>1978.80</ele>
	<time>2023-08-06T12:01:52.000Z</time>
</trkpt>
<trkpt lat="46.0790150" lon="10.4980920">
	<ele>1978.80</ele>
	<time>2023-08-06T12:01:53.000Z</time>
</trkpt>
<trkpt lat="46.0790140" lon="10.4980800">
	<ele>1978.80</ele>
	<time>2023-08-06T12:01:54.000Z</time>
</trkpt>
<trkpt lat="46.0790010" lon="10.4980510">
	<ele>1978.80</ele>
	<time>2023-08-06T12:01:55.000Z</time>
</trkpt>
<trkpt lat="46.0790040" lon="10.4980390">
	<ele>1978.80</ele>
	<time>2023-08-06T12:01:56.000Z</time>
</trkpt>
<trkpt lat="46.0790140" lon="10.4980340">
	<ele>1978.80</ele>
	<time>2023-08-06T12:01:57.000Z</time>
</trkpt>
<trkpt lat="46.0790050" lon="10.4980090">
	<ele>1978.80</ele>
	<time>2023-08-06T12:01:58.000Z</time>
</trkpt>
<trkpt lat="46.0790050" lon="10.4979910">
	<ele>1978.80</ele>
	<time>2023-08-06T12:01:59.000Z</time>
</trkpt>
<trkpt lat="46.0790110" lon="10.4979780">
	<ele>1978.80</ele>
	<time>2023-08-06T12:02:00.000Z</time>
</trkpt>
<trkpt lat="46.0790120" lon="10.4979600">
	<ele>1978.80</ele>
	<time>2023-08-06T12:02:01.000Z</time>
</trkpt>
<trkpt lat="46.0790110" lon="10.4979460">
	<ele>1978.80</ele>
	<time>2023-08-06T12:02:02.000Z</time>
</trkpt>
<trkpt lat="46.0790220" lon="10.4979460">
	<ele>1978.80</ele>
	<time>2023-08-06T12:02:03.000Z</time>
</trkpt>
<trkpt lat="46.0790250" lon="10.4979380">
	<ele>1978.80</ele>
	<time>2023-08-06T12:02:04.000Z</time>
</trkpt>
<trkpt lat="46.0790230" lon="10.4979190">
	<ele>1978.80</ele>
	<time>2023-08-06T12:02:05.000Z</time>
</trkpt>
<trkpt lat="46.0790230" lon="10.4979040">
	<ele>1978.80</ele>
	<time>2023-08-06T12:02:06.000Z</time>
</trkpt>
<trkpt lat="46.0790280" lon="10.4978920">
	<ele>1978.80</ele>
	<time>2023-08-06T12:02:07.000Z</time>
</trkpt>
<trkpt lat="46.0790360" lon="10.4978830">
	<ele>1978.80</ele>
	<time>2023-08-06T12:02:08.000Z</time>
</trkpt>
<trkpt lat="46.0790380" lon="10.4978770">
	<ele>1978.80</ele>
	<time>2023-08-06T12:02:09.000Z</time>
</trkpt>
<trkpt lat="46.0790390" lon="10.4978730">
	<ele>1978.80</ele>
	<time>2023-08-06T12:02:10.000Z</time>
</trkpt>
<trkpt lat="46.0790660" lon="10.4978890">
	<ele>1978.80</ele>
	<time>2023-08-06T12:02:11.000Z</time>
</trkpt>
<trkpt lat="46.0790700" lon="10.4978860">
	<ele>1978.80</ele>
	<time>2023-08-06T12:02:12.000Z</time>
</trkpt>
<trkpt lat="46.0790850" lon="10.4978920">
	<ele>1978.80</ele>
	<time>2023-08-06T12:02:13.000Z</time>
</trkpt>
<trkpt lat="46.0790850" lon="10.4978870">
	<ele>1978.80</ele>
	<time>2023-08-06T12:02:14.000Z</time>
</trkpt>
<trkpt lat="46.0790940" lon="10.4978780">
	<ele>1978.80</ele>
	<time>2023-08-06T12:02:15.000Z</time>
</trkpt>
<trkpt lat="46.0791090" lon="10.4978830">
	<ele>1978.80</ele>
	<time>2023-08-06T12:02:16.000Z</time>
</trkpt>
<trkpt lat="46.0791110" lon="10.4978790">
	<ele>1978.80</ele>
	<time>2023-08-06T12:02:17.000Z</time>
</trkpt>
<trkpt lat="46.0791240" lon="10.4978900">
	<ele>1978.80</ele>
	<time>2023-08-06T12:02:18.000Z</time>
</trkpt>
<trkpt lat="46.0791280" lon="10.4978920">
	<ele>1978.80</ele>
	<time>2023-08-06T12:02:19.000Z</time>
</trkpt>
<trkpt lat="46.0791450" lon="10.4978970">
	<ele>1978.80</ele>
	<time>2023-08-06T12:02:20.000Z</time>
</trkpt>
<trkpt lat="46.0791600" lon="10.4978950">
	<ele>1978.80</ele>
	<time>2023-08-06T12:02:21.000Z</time>
</trkpt>
<trkpt lat="46.0791710" lon="10.4978820">
	<ele>1978.80</ele>
	<time>2023-08-06T12:02:22.000Z</time>
</trkpt>
<trkpt lat="46.0791840" lon="10.4978760">
	<ele>1978.80</ele>
	<time>2023-08-06T12:02:23.000Z</time>
</trkpt>
<trkpt lat="46.0791920" lon="10.4978630">
	<ele>1978.80</ele>
	<time>2023-08-06T12:02:24.000Z</time>
</trkpt>
<trkpt lat="46.0791960" lon="10.4978570">
	<ele>1978.80</ele>
	<time>2023-08-06T12:02:25.000Z</time>
</trkpt>
<trkpt lat="46.0792100" lon="10.4978660">
	<ele>1978.80</ele>
	<time>2023-08-06T12:02:26.000Z</time>
</trkpt>
<trkpt lat="46.0792250" lon="10.4978670">
	<ele>1978.80</ele>
	<time>2023-08-06T12:02:27.000Z</time>
</trkpt>
<trkpt lat="46.0792370" lon="10.4978710">
	<ele>1978.80</ele>
	<time>2023-08-06T12:02:28.000Z</time>
</trkpt>
<trkpt lat="46.0792420" lon="10.4978650">
	<ele>1978.80</ele>
	<time>2023-08-06T12:02:29.000Z</time>
</trkpt>
<trkpt lat="46.0792550" lon="10.4978510">
	<ele>1978.80</ele>
	<time>2023-08-06T12:02:30.000Z</time>
</trkpt>
<trkpt lat="46.0792700" lon="10.4978440">
	<ele>1978.80</ele>
	<time>2023-08-06T12:02:31.000Z</time>
</trkpt>
<trkpt lat="46.0792830" lon="10.4978350">
	<ele>1978.80</ele>
	<time>2023-08-06T12:02:32.000Z</time>
</trkpt>
<trkpt lat="46.0792950" lon="10.4978350">
	<ele>1978.80</ele>
	<time>2023-08-06T12:02:33.000Z</time>
</trkpt>
<trkpt lat="46.0793080" lon="10.4978420">
	<ele>1978.80</ele>
	<time>2023-08-06T12:02:34.000Z</time>
</trkpt>
<trkpt lat="46.0793170" lon="10.4978410">
	<ele>1978.80</ele>
	<time>2023-08-06T12:02:35.000Z</time>
</trkpt>
<trkpt lat="46.0793230" lon="10.4978310">
	<ele>1978.80</ele>
	<time>2023-08-06T12:02:36.000Z</time>
</trkpt>
<trkpt lat="46.0793310" lon="10.4978290">
	<ele>1977.20</ele>
	<time>2023-08-06T12:02:37.000Z</time>
</trkpt>
<trkpt lat="46.0793380" lon="10.4978220">
	<ele>1976.40</ele>
	<time>2023-08-06T12:02:38.000Z</time>
</trkpt>
<trkpt lat="46.0793470" lon="10.4978240">
	<ele>1976.00</ele>
	<time>2023-08-06T12:02:39.000Z</time>
</trkpt>
<trkpt lat="46.0793570" lon="10.4978260">
	<ele>1975.60</ele>
	<time>2023-08-06T12:02:40.000Z</time>
</trkpt>
<trkpt lat="46.0793610" lon="10.4978230">
	<ele>1975.20</ele>
	<time>2023-08-06T12:02:41.000Z</time>
</trkpt>
<trkpt lat="46.0793650" lon="10.4978190">
	<ele>1975.00</ele>
	<time>2023-08-06T12:02:42.000Z</time>
</trkpt>
<trkpt lat="46.0793720" lon="10.4978110">
	<ele>1974.80</ele>
	<time>2023-08-06T12:02:43.000Z</time>
</trkpt>
<trkpt lat="46.0793750" lon="10.4977990">
	<ele>1974.60</ele>
	<time>2023-08-06T12:02:44.000Z</time>
</trkpt>
<trkpt lat="46.0793860" lon="10.4977890">
	<ele>1974.40</ele>
	<time>2023-08-06T12:02:45.000Z</time>
</trkpt>
<trkpt lat="46.0793960" lon="10.4977830">
	<ele>1974.20</ele>
	<time>2023-08-06T12:02:46.000Z</time>
</trkpt>
<trkpt lat="46.0794080" lon="10.4977750">
	<ele>1974.00</ele>
	<time>2023-08-06T12:02:47.000Z</time>
</trkpt>
<trkpt lat="46.0794170" lon="10.4977710">
	<ele>1973.80</ele>
	<time>2023-08-06T12:02:48.000Z</time>
</trkpt>
<trkpt lat="46.0794320" lon="10.4977770">
	<ele>1973.60</ele>
	<time>2023-08-06T12:02:49.000Z</time>
</trkpt>
<trkpt lat="46.0794440" lon="10.4977740">
	<ele>1973.60</ele>
	<time>2023-08-06T12:02:50.000Z</time>
</trkpt>
<trkpt lat="46.0794480" lon="10.4977780">
	<ele>1973.40</ele>
	<time>2023-08-06T12:02:51.000Z</time>
</trkpt>
<trkpt lat="46.0794570" lon="10.4977870">
	<ele>1973.40</ele>
	<time>2023-08-06T12:02:52.000Z</time>
</trkpt>
<trkpt lat="46.0794650" lon="10.4977840">
	<ele>1973.40</ele>
	<time>2023-08-06T12:02:53.000Z</time>
</trkpt>
<trkpt lat="46.0794710" lon="10.4977800">
	<ele>1973.40</ele>
	<time>2023-08-06T12:02:54.000Z</time>
</trkpt>
<trkpt lat="46.0794750" lon="10.4977760">
	<ele>1973.60</ele>
	<time>2023-08-06T12:02:55.000Z</time>
</trkpt>
<trkpt lat="46.0794770" lon="10.4977750">
	<ele>1973.60</ele>
	<time>2023-08-06T12:02:56.000Z</time>
</trkpt>
<trkpt lat="46.0794800" lon="10.4977750">
	<ele>1973.60</ele>
	<time>2023-08-06T12:02:57.000Z</time>
</trkpt>
<trkpt lat="46.0794840" lon="10.4977750">
	<ele>1973.60</ele>
	<time>2023-08-06T12:02:58.000Z</time>
</trkpt>
<trkpt lat="46.0794900" lon="10.4977740">
	<ele>1973.80</ele>
	<time>2023-08-06T12:02:59.000Z</time>
</trkpt>
<trkpt lat="46.0794940" lon="10.4977710">
	<ele>1974.00</ele>
	<time>2023-08-06T12:03:00.000Z</time>
</trkpt>
<trkpt lat="46.0794980" lon="10.4977700">
	<ele>1974.20</ele>
	<time>2023-08-06T12:03:01.000Z</time>
</trkpt>
<trkpt lat="46.0795030" lon="10.4977700">
	<ele>1974.40</ele>
	<time>2023-08-06T12:03:02.000Z</time>
</trkpt>
<trkpt lat="46.0795070" lon="10.4977700">
	<ele>1974.80</ele>
	<time>2023-08-06T12:03:03.000Z</time>
</trkpt>
<trkpt lat="46.0795080" lon="10.4977700">
	<ele>1975.00</ele>
	<time>2023-08-06T12:03:04.000Z</time>
</trkpt>
<trkpt lat="46.0795080" lon="10.4977690">
	<ele>1975.00</ele>
	<time>2023-08-06T12:03:05.000Z</time>
</trkpt>
<trkpt lat="46.0795080" lon="10.4977670">
	<ele>1975.00</ele>
	<time>2023-08-06T12:03:06.000Z</time>
</trkpt>
<trkpt lat="46.0795070" lon="10.4977640">
	<ele>1975.00</ele>
	<time>2023-08-06T12:03:07.000Z</time>
</trkpt>
<trkpt lat="46.0795080" lon="10.4977610">
	<ele>1975.00</ele>
	<time>2023-08-06T12:03:08.000Z</time>
</trkpt>
<trkpt lat="46.0795050" lon="10.4977570">
	<ele>1975.00</ele>
	<time>2023-08-06T12:03:09.000Z</time>
</trkpt>
<trkpt lat="46.0795070" lon="10.4977520">
	<ele>1975.00</ele>
	<time>2023-08-06T12:03:10.000Z</time>
</trkpt>
<trkpt lat="46.0795080" lon="10.4977480">
	<ele>1975.00</ele>
	<time>2023-08-06T12:03:11.000Z</time>
</trkpt>
<trkpt lat="46.0795080" lon="10.4977440">
	<ele>1975.00</ele>
	<time>2023-08-06T12:03:12.000Z</time>
</trkpt>
<trkpt lat="46.0795080" lon="10.4977420">
	<ele>1975.20</ele>
	<time>2023-08-06T12:03:13.000Z</time>
</trkpt>
<trkpt lat="46.0795090" lon="10.4977400">
	<ele>1975.20</ele>
	<time>2023-08-06T12:03:14.000Z</time>
</trkpt>
<trkpt lat="46.0795110" lon="10.4977360">
	<ele>1975.20</ele>
	<time>2023-08-06T12:03:15.000Z</time>
</trkpt>
<trkpt lat="46.0795170" lon="10.4977400">
	<ele>1975.20</ele>
	<time>2023-08-06T12:03:16.000Z</time>
</trkpt>
<trkpt lat="46.0795200" lon="10.4977400">
	<ele>1975.40</ele>
	<time>2023-08-06T12:03:17.000Z</time>
</trkpt>
<trkpt lat="46.0795230" lon="10.4977300">
	<ele>1975.40</ele>
	<time>2023-08-06T12:03:18.000Z</time>
</trkpt>
<trkpt lat="46.0795270" lon="10.4977250">
	<ele>1975.40</ele>
	<time>2023-08-06T12:03:19.000Z</time>
</trkpt>
<trkpt lat="46.0795290" lon="10.4977200">
	<ele>1975.40</ele>
	<time>2023-08-06T12:03:20.000Z</time>
</trkpt>
<trkpt lat="46.0795290" lon="10.4977130">
	<ele>1975.40</ele>
	<time>2023-08-06T12:03:21.000Z</time>
</trkpt>
<trkpt lat="46.0795330" lon="10.4977140">
	<ele>1975.20</ele>
	<time>2023-08-06T12:03:22.000Z</time>
</trkpt>
<trkpt lat="46.0795330" lon="10.4977110">
	<ele>1975.20</ele>
	<time>2023-08-06T12:03:23.000Z</time>
</trkpt>
<trkpt lat="46.0795330" lon="10.4977050">
	<ele>1975.00</ele>
	<time>2023-08-06T12:03:24.000Z</time>
</trkpt>
<trkpt lat="46.0795360" lon="10.4977020">
	<ele>1975.00</ele>
	<time>2023-08-06T12:03:25.000Z</time>
</trkpt>
<trkpt lat="46.0795410" lon="10.4977000">
	<ele>1974.80</ele>
	<time>2023-08-06T12:03:26.000Z</time>
</trkpt>
<trkpt lat="46.0795500" lon="10.4977010">
	<ele>1974.80</ele>
	<time>2023-08-06T12:03:27.000Z</time>
</trkpt>
<trkpt lat="46.0795610" lon="10.4977000">
	<ele>1974.60</ele>
	<time>2023-08-06T12:03:28.000Z</time>
</trkpt>
<trkpt lat="46.0795700" lon="10.4977000">
	<ele>1974.40</ele>
	<time>2023-08-06T12:03:29.000Z</time>
</trkpt>
<trkpt lat="46.0795840" lon="10.4977020">
	<ele>1974.20</ele>
	<time>2023-08-06T12:03:30.000Z</time>
</trkpt>
<trkpt lat="46.0795940" lon="10.4977040">
	<ele>1974.20</ele>
	<time>2023-08-06T12:03:31.000Z</time>
</trkpt>
<trkpt lat="46.0796050" lon="10.4977090">
	<ele>1974.20</ele>
	<time>2023-08-06T12:03:32.000Z</time>
</trkpt>
<trkpt lat="46.0796160" lon="10.4977180">
	<ele>1974.00</ele>
	<time>2023-08-06T12:03:33.000Z</time>
</trkpt>
<trkpt lat="46.0796230" lon="10.4977110">
	<ele>1973.80</ele>
	<time>2023-08-06T12:03:34.000Z</time>
</trkpt>
<trkpt lat="46.0796270" lon="10.4977030">
	<ele>1973.80</ele>
	<time>2023-08-06T12:03:35.000Z</time>
</trkpt>
<trkpt lat="46.0796340" lon="10.4977050">
	<ele>1973.80</ele>
	<time>2023-08-06T12:03:36.000Z</time>
</trkpt>
<trkpt lat="46.0796430" lon="10.4977060">
	<ele>1973.60</ele>
	<time>2023-08-06T12:03:37.000Z</time>
</trkpt>
<trkpt lat="46.0796520" lon="10.4976970">
	<ele>1973.60</ele>
	<time>2023-08-06T12:03:38.000Z</time>
</trkpt>
<trkpt lat="46.0796600" lon="10.4976820">
	<ele>1973.60</ele>
	<time>2023-08-06T12:03:39.000Z</time>
</trkpt>
<trkpt lat="46.0796650" lon="10.4976670">
	<ele>1973.40</ele>
	<time>2023-08-06T12:03:40.000Z</time>
</trkpt>
<trkpt lat="46.0796690" lon="10.4976530">
	<ele>1973.40</ele>
	<time>2023-08-06T12:03:41.000Z</time>
</trkpt>
<trkpt lat="46.0796730" lon="10.4976380">
	<ele>1973.20</ele>
	<time>2023-08-06T12:03:42.000Z</time>
</trkpt>
<trkpt lat="46.0796750" lon="10.4976340">
	<ele>1973.20</ele>
	<time>2023-08-06T12:03:43.000Z</time>
</trkpt>
<trkpt lat="46.0796770" lon="10.4976330">
	<ele>1973.20</ele>
	<time>2023-08-06T12:03:44.000Z</time>
</trkpt>
<trkpt lat="46.0796800" lon="10.4976250">
	<ele>1973.20</ele>
	<time>2023-08-06T12:03:45.000Z</time>
</trkpt>
<trkpt lat="46.0796830" lon="10.4976190">
	<ele>1973.20</ele>
	<time>2023-08-06T12:03:46.000Z</time>
</trkpt>
<trkpt lat="46.0796810" lon="10.4976070">
	<ele>1973.40</ele>
	<time>2023-08-06T12:03:47.000Z</time>
</trkpt>
<trkpt lat="46.0796800" lon="10.4976110">
	<ele>1973.40</ele>
	<time>2023-08-06T12:03:48.000Z</time>
</trkpt>
<trkpt lat="46.0796740" lon="10.4976140">
	<ele>1973.40</ele>
	<time>2023-08-06T12:03:49.000Z</time>
</trkpt>
<trkpt lat="46.0796710" lon="10.4976150">
	<ele>1973.40</ele>
	<time>2023-08-06T12:03:50.000Z</time>
</trkpt>
<trkpt lat="46.0796700" lon="10.4976180">
	<ele>1973.40</ele>
	<time>2023-08-06T12:03:51.000Z</time>
</trkpt>
<trkpt lat="46.0796700" lon="10.4976180">
	<ele>1973.40</ele>
	<time>2023-08-06T12:03:52.000Z</time>
</trkpt>
<trkpt lat="46.0796700" lon="10.4976180">
	<ele>1973.40</ele>
	<time>2023-08-06T12:03:53.000Z</time>
</trkpt>
<trkpt lat="46.0796690" lon="10.4976140">
	<ele>1973.40</ele>
	<time>2023-08-06T12:03:54.000Z</time>
</trkpt>
<trkpt lat="46.0796670" lon="10.4976130">
	<ele>1973.40</ele>
	<time>2023-08-06T12:03:55.000Z</time>
</trkpt>
<trkpt lat="46.0796660" lon="10.4976150">
	<ele>1973.40</ele>
	<time>2023-08-06T12:03:56.000Z</time>
</trkpt>
<trkpt lat="46.0796650" lon="10.4976190">
	<ele>1973.40</ele>
	<time>2023-08-06T12:03:57.000Z</time>
</trkpt>
<trkpt lat="46.0796630" lon="10.4976210">
	<ele>1973.40</ele>
	<time>2023-08-06T12:03:58.000Z</time>
</trkpt>
<trkpt lat="46.0796620" lon="10.4976210">
	<ele>1973.40</ele>
	<time>2023-08-06T12:03:59.000Z</time>
</trkpt>
<trkpt lat="46.0796650" lon="10.4976180">
	<ele>1973.40</ele>
	<time>2023-08-06T12:04:00.000Z</time>
</trkpt>
<trkpt lat="46.0796700" lon="10.4976090">
	<ele>1973.60</ele>
	<time>2023-08-06T12:04:01.000Z</time>
</trkpt>
<trkpt lat="46.0796770" lon="10.4976000">
	<ele>1973.80</ele>
	<time>2023-08-06T12:04:02.000Z</time>
</trkpt>
<trkpt lat="46.0796820" lon="10.4975880">
	<ele>1974.00</ele>
	<time>2023-08-06T12:04:03.000Z</time>
</trkpt>
<trkpt lat="46.0796900" lon="10.4975870">
	<ele>1974.40</ele>
	<time>2023-08-06T12:04:04.000Z</time>
</trkpt>
<trkpt lat="46.0796880" lon="10.4975920">
	<ele>1974.60</ele>
	<time>2023-08-06T12:04:05.000Z</time>
</trkpt>
<trkpt lat="46.0796890" lon="10.4975950">
	<ele>1974.60</ele>
	<time>2023-08-06T12:04:06.000Z</time>
</trkpt>
<trkpt lat="46.0796900" lon="10.4975920">
	<ele>1974.80</ele>
	<time>2023-08-06T12:04:07.000Z</time>
</trkpt>
<trkpt lat="46.0796900" lon="10.4975900">
	<ele>1975.00</ele>
	<time>2023-08-06T12:04:08.000Z</time>
</trkpt>
<trkpt lat="46.0796920" lon="10.4975930">
	<ele>1975.20</ele>
	<time>2023-08-06T12:04:09.000Z</time>
</trkpt>
<trkpt lat="46.0796960" lon="10.4975940">
	<ele>1975.40</ele>
	<time>2023-08-06T12:04:10.000Z</time>
</trkpt>
<trkpt lat="46.0797020" lon="10.4975940">
	<ele>1975.60</ele>
	<time>2023-08-06T12:04:11.000Z</time>
</trkpt>
<trkpt lat="46.0797040" lon="10.4975940">
	<ele>1975.80</ele>
	<time>2023-08-06T12:04:12.000Z</time>
</trkpt>
<trkpt lat="46.0797060" lon="10.4975960">
	<ele>1975.80</ele>
	<time>2023-08-06T12:04:13.000Z</time>
</trkpt>
<trkpt lat="46.0797100" lon="10.4975930">
	<ele>1975.80</ele>
	<time>2023-08-06T12:04:14.000Z</time>
</trkpt>
<trkpt lat="46.0797130" lon="10.4975910">
	<ele>1976.00</ele>
	<time>2023-08-06T12:04:15.000Z</time>
</trkpt>
<trkpt lat="46.0797170" lon="10.4975930">
	<ele>1976.20</ele>
	<time>2023-08-06T12:04:16.000Z</time>
</trkpt>
<trkpt lat="46.0797230" lon="10.4975970">
	<ele>1976.40</ele>
	<time>2023-08-06T12:04:17.000Z</time>
</trkpt>
<trkpt lat="46.0797270" lon="10.4975950">
	<ele>1976.40</ele>
	<time>2023-08-06T12:04:18.000Z</time>
</trkpt>
<trkpt lat="46.0797290" lon="10.4975990">
	<ele>1976.40</ele>
	<time>2023-08-06T12:04:19.000Z</time>
</trkpt>
<trkpt lat="46.0797330" lon="10.4976000">
	<ele>1976.60</ele>
	<time>2023-08-06T12:04:20.000Z</time>
</trkpt>
<trkpt lat="46.0797350" lon="10.4976010">
	<ele>1976.80</ele>
	<time>2023-08-06T12:04:21.000Z</time>
</trkpt>
<trkpt lat="46.0797310" lon="10.4975980">
	<ele>1977.00</ele>
	<time>2023-08-06T12:04:22.000Z</time>
</trkpt>
<trkpt lat="46.0797330" lon="10.4975960">
	<ele>1977.00</ele>
	<time>2023-08-06T12:04:23.000Z</time>
</trkpt>
<trkpt lat="46.0797340" lon="10.4975970">
	<ele>1977.20</ele>
	<time>2023-08-06T12:04:24.000Z</time>
</trkpt>
<trkpt lat="46.0797390" lon="10.4975960">
	<ele>1977.40</ele>
	<time>2023-08-06T12:04:25.000Z</time>
</trkpt>
<trkpt lat="46.0797420" lon="10.4975960">
	<ele>1977.40</ele>
	<time>2023-08-06T12:04:26.000Z</time>
</trkpt>
<trkpt lat="46.0797450" lon="10.4975940">
	<ele>1977.40</ele>
	<time>2023-08-06T12:04:27.000Z</time>
</trkpt>
<trkpt lat="46.0797460" lon="10.4975930">
	<ele>1977.60</ele>
	<time>2023-08-06T12:04:28.000Z</time>
</trkpt>
<trkpt lat="46.0797420" lon="10.4975800">
	<ele>1977.80</ele>
	<time>2023-08-06T12:04:29.000Z</time>
</trkpt>
<trkpt lat="46.0797450" lon="10.4975760">
	<ele>1978.00</ele>
	<time>2023-08-06T12:04:30.000Z</time>
</trkpt>
<trkpt lat="46.0797470" lon="10.4975750">
	<ele>1978.20</ele>
	<time>2023-08-06T12:04:31.000Z</time>
</trkpt>
<trkpt lat="46.0797530" lon="10.4975740">
	<ele>1978.40</ele>
	<time>2023-08-06T12:04:32.000Z</time>
</trkpt>
<trkpt lat="46.0797550" lon="10.4975680">
	<ele>1978.60</ele>
	<time>2023-08-06T12:04:33.000Z</time>
</trkpt>
<trkpt lat="46.0797580" lon="10.4975620">
	<ele>1978.80</ele>
	<time>2023-08-06T12:04:34.000Z</time>
</trkpt>
<trkpt lat="46.0797570" lon="10.4975550">
	<ele>1979.00</ele>
	<time>2023-08-06T12:04:35.000Z</time>
</trkpt>
<trkpt lat="46.0797560" lon="10.4975440">
	<ele>1979.20</ele>
	<time>2023-08-06T12:04:36.000Z</time>
</trkpt>
<trkpt lat="46.0797600" lon="10.4975450">
	<ele>1979.40</ele>
	<time>2023-08-06T12:04:37.000Z</time>
</trkpt>
<trkpt lat="46.0797620" lon="10.4975440">
	<ele>1979.60</ele>
	<time>2023-08-06T12:04:38.000Z</time>
</trkpt>
<trkpt lat="46.0797700" lon="10.4975380">
	<ele>1979.60</ele>
	<time>2023-08-06T12:04:39.000Z</time>
</trkpt>
<trkpt lat="46.0797780" lon="10.4975370">
	<ele>1979.60</ele>
	<time>2023-08-06T12:04:40.000Z</time>
</trkpt>
<trkpt lat="46.0797820" lon="10.4975270">
	<ele>1979.80</ele>
	<time>2023-08-06T12:04:41.000Z</time>
</trkpt>
<trkpt lat="46.0797880" lon="10.4975250">
	<ele>1979.80</ele>
	<time>2023-08-06T12:04:42.000Z</time>
</trkpt>
<trkpt lat="46.0797940" lon="10.4975340">
	<ele>1980.00</ele>
	<time>2023-08-06T12:04:43.000Z</time>
</trkpt>
<trkpt lat="46.0798010" lon="10.4975320">
	<ele>1980.00</ele>
	<time>2023-08-06T12:04:44.000Z</time>
</trkpt>
<trkpt lat="46.0798070" lon="10.4975310">
	<ele>1980.00</ele>
	<time>2023-08-06T12:04:45.000Z</time>
</trkpt>
<trkpt lat="46.0798140" lon="10.4975290">
	<ele>1980.00</ele>
	<time>2023-08-06T12:04:46.000Z</time>
</trkpt>
<trkpt lat="46.0798160" lon="10.4975170">
	<ele>1980.00</ele>
	<time>2023-08-06T12:04:47.000Z</time>
</trkpt>
<trkpt lat="46.0798170" lon="10.4975050">
	<ele>1980.20</ele>
	<time>2023-08-06T12:04:48.000Z</time>
</trkpt>
<trkpt lat="46.0798210" lon="10.4974920">
	<ele>1980.20</ele>
	<time>2023-08-06T12:04:49.000Z</time>
</trkpt>
<trkpt lat="46.0798240" lon="10.4974820">
	<ele>1980.40</ele>
	<time>2023-08-06T12:04:50.000Z</time>
</trkpt>
<trkpt lat="46.0798260" lon="10.4974740">
	<ele>1980.40</ele>
	<time>2023-08-06T12:04:51.000Z</time>
</trkpt>
<trkpt lat="46.0798300" lon="10.4974680">
	<ele>1980.40</ele>
	<time>2023-08-06T12:04:52.000Z</time>
</trkpt>
<trkpt lat="46.0798360" lon="10.4974640">
	<ele>1980.40</ele>
	<time>2023-08-06T12:04:53.000Z</time>
</trkpt>
<trkpt lat="46.0798420" lon="10.4974570">
	<ele>1980.60</ele>
	<time>2023-08-06T12:04:54.000Z</time>
</trkpt>
<trkpt lat="46.0798490" lon="10.4974510">
	<ele>1980.60</ele>
	<time>2023-08-06T12:04:55.000Z</time>
</trkpt>
<trkpt lat="46.0798560" lon="10.4974420">
	<ele>1980.80</ele>
	<time>2023-08-06T12:04:56.000Z</time>
</trkpt>
<trkpt lat="46.0798620" lon="10.4974390">
	<ele>1981.00</ele>
	<time>2023-08-06T12:04:57.000Z</time>
</trkpt>
<trkpt lat="46.0798640" lon="10.4974370">
	<ele>1981.00</ele>
	<time>2023-08-06T12:04:58.000Z</time>
</trkpt>
<trkpt lat="46.0798680" lon="10.4974390">
	<ele>1981.20</ele>
	<time>2023-08-06T12:04:59.000Z</time>
</trkpt>
<trkpt lat="46.0798740" lon="10.4974460">
	<ele>1981.40</ele>
	<time>2023-08-06T12:05:00.000Z</time>
</trkpt>
<trkpt lat="46.0798790" lon="10.4974550">
	<ele>1981.40</ele>
	<time>2023-08-06T12:05:01.000Z</time>
</trkpt>
<trkpt lat="46.0798820" lon="10.4974640">
	<ele>1981.60</ele>
	<time>2023-08-06T12:05:02.000Z</time>
</trkpt>
<trkpt lat="46.0798820" lon="10.4974720">
	<ele>1982.00</ele>
	<time>2023-08-06T12:05:03.000Z</time>
</trkpt>
<trkpt lat="46.0798830" lon="10.4974770">
	<ele>1982.20</ele>
	<time>2023-08-06T12:05:04.000Z</time>
</trkpt>
<trkpt lat="46.0798820" lon="10.4974780">
	<ele>1982.40</ele>
	<time>2023-08-06T12:05:05.000Z</time>
</trkpt>
<trkpt lat="46.0798810" lon="10.4974770">
	<ele>1982.60</ele>
	<time>2023-08-06T12:05:06.000Z</time>
</trkpt>
<trkpt lat="46.0798820" lon="10.4974730">
	<ele>1982.60</ele>
	<time>2023-08-06T12:05:07.000Z</time>
</trkpt>
<trkpt lat="46.0798830" lon="10.4974700">
	<ele>1982.80</ele>
	<time>2023-08-06T12:05:08.000Z</time>
</trkpt>
<trkpt lat="46.0798850" lon="10.4974690">
	<ele>1983.00</ele>
	<time>2023-08-06T12:05:09.000Z</time>
</trkpt>
<trkpt lat="46.0798870" lon="10.4974730">
	<ele>1983.00</ele>
	<time>2023-08-06T12:05:10.000Z</time>
</trkpt>
<trkpt lat="46.0798900" lon="10.4974760">
	<ele>1983.00</ele>
	<time>2023-08-06T12:05:11.000Z</time>
</trkpt>
<trkpt lat="46.0798900" lon="10.4974740">
	<ele>1983.40</ele>
	<time>2023-08-06T12:05:12.000Z</time>
</trkpt>
<trkpt lat="46.0798860" lon="10.4974660">
	<ele>1983.60</ele>
	<time>2023-08-06T12:05:13.000Z</time>
</trkpt>
<trkpt lat="46.0798830" lon="10.4974550">
	<ele>1983.80</ele>
	<time>2023-08-06T12:05:14.000Z</time>
</trkpt>
<trkpt lat="46.0798840" lon="10.4974500">
	<ele>1983.80</ele>
	<time>2023-08-06T12:05:15.000Z</time>
</trkpt>
<trkpt lat="46.0798840" lon="10.4974480">
	<ele>1983.80</ele>
	<time>2023-08-06T12:05:16.000Z</time>
</trkpt>
<trkpt lat="46.0798890" lon="10.4974490">
	<ele>1983.80</ele>
	<time>2023-08-06T12:05:17.000Z</time>
</trkpt>
<trkpt lat="46.0798930" lon="10.4974480">
	<ele>1983.80</ele>
	<time>2023-08-06T12:05:18.000Z</time>
</trkpt>
<trkpt lat="46.0798960" lon="10.4974470">
	<ele>1984.00</ele>
	<time>2023-08-06T12:05:19.000Z</time>
</trkpt>
<trkpt lat="46.0798980" lon="10.4974500">
	<ele>1984.00</ele>
	<time>2023-08-06T12:05:20.000Z</time>
</trkpt>
<trkpt lat="46.0799000" lon="10.4974580">
	<ele>1984.20</ele>
	<time>2023-08-06T12:05:21.000Z</time>
</trkpt>
<trkpt lat="46.0799030" lon="10.4974680">
	<ele>1984.20</ele>
	<time>2023-08-06T12:05:22.000Z</time>
</trkpt>
<trkpt lat="46.0799030" lon="10.4974720">
	<ele>1984.40</ele>
	<time>2023-08-06T12:05:23.000Z</time>
</trkpt>
<trkpt lat="46.0799030" lon="10.4974770">
	<ele>1984.60</ele>
	<time>2023-08-06T12:05:24.000Z</time>
</trkpt>
<trkpt lat="46.0799000" lon="10.4974840">
	<ele>1984.80</ele>
	<time>2023-08-06T12:05:25.000Z</time>
</trkpt>
<trkpt lat="46.0798940" lon="10.4974790">
	<ele>1985.00</ele>
	<time>2023-08-06T12:05:26.000Z</time>
</trkpt>
<trkpt lat="46.0798980" lon="10.4974870">
	<ele>1985.20</ele>
	<time>2023-08-06T12:05:27.000Z</time>
</trkpt>
<trkpt lat="46.0799000" lon="10.4974960">
	<ele>1985.20</ele>
	<time>2023-08-06T12:05:28.000Z</time>
</trkpt>
<trkpt lat="46.0799030" lon="10.4975090">
	<ele>1985.20</ele>
	<time>2023-08-06T12:05:29.000Z</time>
</trkpt>
<trkpt lat="46.0799010" lon="10.4975110">
	<ele>1985.40</ele>
	<time>2023-08-06T12:05:30.000Z</time>
</trkpt>
<trkpt lat="46.0799020" lon="10.4975160">
	<ele>1985.40</ele>
	<time>2023-08-06T12:05:31.000Z</time>
</trkpt>
<trkpt lat="46.0799070" lon="10.4975250">
	<ele>1985.60</ele>
	<time>2023-08-06T12:05:32.000Z</time>
</trkpt>
<trkpt lat="46.0799100" lon="10.4975310">
	<ele>1985.80</ele>
	<time>2023-08-06T12:05:33.000Z</time>
</trkpt>
<trkpt lat="46.0799090" lon="10.4975310">
	<ele>1985.80</ele>
	<time>2023-08-06T12:05:34.000Z</time>
</trkpt>
<trkpt lat="46.0799120" lon="10.4975310">
	<ele>1986.00</ele>
	<time>2023-08-06T12:05:35.000Z</time>
</trkpt>
<trkpt lat="46.0799070" lon="10.4975250">
	<ele>1986.00</ele>
	<time>2023-08-06T12:05:36.000Z</time>
</trkpt>
<trkpt lat="46.0799020" lon="10.4975160">
	<ele>1986.00</ele>
	<time>2023-08-06T12:05:37.000Z</time>
</trkpt>
<trkpt lat="46.0799010" lon="10.4975130">
	<ele>1986.00</ele>
	<time>2023-08-06T12:05:38.000Z</time>
</trkpt>
<trkpt lat="46.0799000" lon="10.4975100">
	<ele>1986.00</ele>
	<time>2023-08-06T12:05:39.000Z</time>
</trkpt>
<trkpt lat="46.0798980" lon="10.4974980">
	<ele>1986.00</ele>
	<time>2023-08-06T12:05:40.000Z</time>
</trkpt>
<trkpt lat="46.0799020" lon="10.4974930">
	<ele>1986.00</ele>
	<time>2023-08-06T12:05:41.000Z</time>
</trkpt>
<trkpt lat="46.0799100" lon="10.4974960">
	<ele>1986.00</ele>
	<time>2023-08-06T12:05:42.000Z</time>
</trkpt>
<trkpt lat="46.0799100" lon="10.4974930">
	<ele>1986.00</ele>
	<time>2023-08-06T12:05:43.000Z</time>
</trkpt>
<trkpt lat="46.0799140" lon="10.4975060">
	<ele>1986.00</ele>
	<time>2023-08-06T12:05:44.000Z</time>
</trkpt>
<trkpt lat="46.0799090" lon="10.4975110">
	<ele>1986.00</ele>
	<time>2023-08-06T12:05:45.000Z</time>
</trkpt>
<trkpt lat="46.0799030" lon="10.4975120">
	<ele>1986.20</ele>
	<time>2023-08-06T12:05:46.000Z</time>
</trkpt>
<trkpt lat="46.0799040" lon="10.4975260">
	<ele>1986.20</ele>
	<time>2023-08-06T12:05:47.000Z</time>
</trkpt>
<trkpt lat="46.0799000" lon="10.4975320">
	<ele>1986.40</ele>
	<time>2023-08-06T12:05:48.000Z</time>
</trkpt>
<trkpt lat="46.0798980" lon="10.4975320">
	<ele>1986.40</ele>
	<time>2023-08-06T12:05:49.000Z</time>
</trkpt>
<trkpt lat="46.0798960" lon="10.4975340">
	<ele>1986.40</ele>
	<time>2023-08-06T12:05:50.000Z</time>
</trkpt>
<trkpt lat="46.0798960" lon="10.4975320">
	<ele>1986.40</ele>
	<time>2023-08-06T12:05:51.000Z</time>
</trkpt>
<trkpt lat="46.0798950" lon="10.4975310">
	<ele>1986.20</ele>
	<time>2023-08-06T12:05:52.000Z</time>
</trkpt>
<trkpt lat="46.0798950" lon="10.4975310">
	<ele>1986.20</ele>
	<time>2023-08-06T12:05:53.000Z</time>
</trkpt>
<trkpt lat="46.0798950" lon="10.4975310">
	<ele>1986.20</ele>
	<time>2023-08-06T12:05:54.000Z</time>
</trkpt>
<trkpt lat="46.0798950" lon="10.4975310">
	<ele>1986.20</ele>
	<time>2023-08-06T12:05:55.000Z</time>
</trkpt>
<trkpt lat="46.0798950" lon="10.4975310">
	<ele>1986.20</ele>
	<time>2023-08-06T12:05:56.000Z</time>
</trkpt>
<trkpt lat="46.0798950" lon="10.4975310">
	<ele>1986.20</ele>
	<time>2023-08-06T12:05:57.000Z</time>
</trkpt>
<trkpt lat="46.0798950" lon="10.4975310">
	<ele>1986.20</ele>
	<time>2023-08-06T12:05:58.000Z</time>
</trkpt>
<trkpt lat="46.0798950" lon="10.4975310">
	<ele>1986.20</ele>
	<time>2023-08-06T12:05:59.000Z</time>
</trkpt>
<trkpt lat="46.0798950" lon="10.4975310">
	<ele>1986.20</ele>
	<time>2023-08-06T12:06:00.000Z</time>
</trkpt>
<trkpt lat="46.0798950" lon="10.4975310">
	<ele>1986.20</ele>
	<time>2023-08-06T12:06:01.000Z</time>
</trkpt>
<trkpt lat="46.0798950" lon="10.4975310">
	<ele>1986.00</ele>
	<time>2023-08-06T12:06:02.000Z</time>
</trkpt>
<trkpt lat="46.0798950" lon="10.4975310">
	<ele>1986.20</ele>
	<time>2023-08-06T12:06:03.000Z</time>
</trkpt>
<trkpt lat="46.0798950" lon="10.4975310">
	<ele>1986.20</ele>
	<time>2023-08-06T12:06:04.000Z</time>
</trkpt>
<trkpt lat="46.0798950" lon="10.4975310">
	<ele>1986.20</ele>
	<time>2023-08-06T12:06:05.000Z</time>
</trkpt>
<trkpt lat="46.0798950" lon="10.4975310">
	<ele>1986.20</ele>
	<time>2023-08-06T12:06:06.000Z</time>
</trkpt>
<trkpt lat="46.0798950" lon="10.4975310">
	<ele>1986.20</ele>
	<time>2023-08-06T12:06:07.000Z</time>
</trkpt>
<trkpt lat="46.0798950" lon="10.4975300">
	<ele>1986.00</ele>
	<time>2023-08-06T12:06:08.000Z</time>
</trkpt>
<trkpt lat="46.0798950" lon="10.4975260">
	<ele>1986.00</ele>
	<time>2023-08-06T12:06:09.000Z</time>
</trkpt>
<trkpt lat="46.0798950" lon="10.4975250">
	<ele>1986.00</ele>
	<time>2023-08-06T12:06:10.000Z</time>
</trkpt>
<trkpt lat="46.0798950" lon="10.4975240">
	<ele>1986.00</ele>
	<time>2023-08-06T12:06:11.000Z</time>
</trkpt>
<trkpt lat="46.0798960" lon="10.4975230">
	<ele>1986.00</ele>
	<time>2023-08-06T12:06:12.000Z</time>
</trkpt>
<trkpt lat="46.0798960" lon="10.4975230">
	<ele>1986.00</ele>
	<time>2023-08-06T12:06:13.000Z</time>
</trkpt>
<trkpt lat="46.0798960" lon="10.4975210">
	<ele>1986.00</ele>
	<time>2023-08-06T12:06:14.000Z</time>
</trkpt>
<trkpt lat="46.0798960" lon="10.4975210">
	<ele>1986.00</ele>
	<time>2023-08-06T12:06:15.000Z</time>
</trkpt>
<trkpt lat="46.0798960" lon="10.4975220">
	<ele>1986.00</ele>
	<time>2023-08-06T12:06:16.000Z</time>
</trkpt>
<trkpt lat="46.0798960" lon="10.4975230">
	<ele>1986.00</ele>
	<time>2023-08-06T12:06:17.000Z</time>
</trkpt>
<trkpt lat="46.0798960" lon="10.4975230">
	<ele>1986.00</ele>
	<time>2023-08-06T12:06:18.000Z</time>
</trkpt>
<trkpt lat="46.0798950" lon="10.4975220">
	<ele>1986.00</ele>
	<time>2023-08-06T12:06:19.000Z</time>
</trkpt>
<trkpt lat="46.0798950" lon="10.4975220">
	<ele>1986.00</ele>
	<time>2023-08-06T12:06:20.000Z</time>
</trkpt>
<trkpt lat="46.0798950" lon="10.4975220">
	<ele>1986.00</ele>
	<time>2023-08-06T12:06:21.000Z</time>
</trkpt>
<trkpt lat="46.0798950" lon="10.4975220">
	<ele>1986.00</ele>
	<time>2023-08-06T12:06:22.000Z</time>
</trkpt>
<trkpt lat="46.0798960" lon="10.4975220">
	<ele>1986.00</ele>
	<time>2023-08-06T12:06:23.000Z</time>
</trkpt>
<trkpt lat="46.0798960" lon="10.4975220">
	<ele>1986.00</ele>
	<time>2023-08-06T12:06:24.000Z</time>
</trkpt>
<trkpt lat="46.0798960" lon="10.4975210">
	<ele>1986.00</ele>
	<time>2023-08-06T12:06:25.000Z</time>
</trkpt>
<trkpt lat="46.0798960" lon="10.4975210">
	<ele>1986.00</ele>
	<time>2023-08-06T12:06:26.000Z</time>
</trkpt>
<trkpt lat="46.0798970" lon="10.4975210">
	<ele>1986.00</ele>
	<time>2023-08-06T12:06:27.000Z</time>
</trkpt>
<trkpt lat="46.0798970" lon="10.4975210">
	<ele>1986.00</ele>
	<time>2023-08-06T12:06:28.000Z</time>
</trkpt>
<trkpt lat="46.0798980" lon="10.4975210">
	<ele>1986.00</ele>
	<time>2023-08-06T12:06:29.000Z</time>
</trkpt>
<trkpt lat="46.0798980" lon="10.4975210">
	<ele>1986.00</ele>
	<time>2023-08-06T12:06:30.000Z</time>
</trkpt>
<trkpt lat="46.0798980" lon="10.4975220">
	<ele>1986.00</ele>
	<time>2023-08-06T12:06:31.000Z</time>
</trkpt>
<trkpt lat="46.0798980" lon="10.4975230">
	<ele>1986.00</ele>
	<time>2023-08-06T12:06:32.000Z</time>
</trkpt>
<trkpt lat="46.0798980" lon="10.4975230">
	<ele>1986.00</ele>
	<time>2023-08-06T12:06:33.000Z</time>
</trkpt>
<trkpt lat="46.0798980" lon="10.4975230">
	<ele>1986.00</ele>
	<time>2023-08-06T12:06:34.000Z</time>
</trkpt>
<trkpt lat="46.0798980" lon="10.4975230">
	<ele>1986.00</ele>
	<time>2023-08-06T12:06:35.000Z</time>
</trkpt>
<trkpt lat="46.0798970" lon="10.4975230">
	<ele>1986.00</ele>
	<time>2023-08-06T12:06:36.000Z</time>
</trkpt>
<trkpt lat="46.0798970" lon="10.4975230">
	<ele>1986.00</ele>
	<time>2023-08-06T12:06:37.000Z</time>
</trkpt>
<trkpt lat="46.0798970" lon="10.4975240">
	<ele>1986.00</ele>
	<time>2023-08-06T12:06:38.000Z</time>
</trkpt>
<trkpt lat="46.0798970" lon="10.4975240">
	<ele>1985.80</ele>
	<time>2023-08-06T12:06:39.000Z</time>
</trkpt>
<trkpt lat="46.0798970" lon="10.4975240">
	<ele>1985.80</ele>
	<time>2023-08-06T12:06:40.000Z</time>
</trkpt>
<trkpt lat="46.0798970" lon="10.4975240">
	<ele>1985.80</ele>
	<time>2023-08-06T12:06:41.000Z</time>
</trkpt>
<trkpt lat="46.0798980" lon="10.4975240">
	<ele>1985.80</ele>
	<time>2023-08-06T12:06:42.000Z</time>
</trkpt>
<trkpt lat="46.0798980" lon="10.4975250">
	<ele>1985.80</ele>
	<time>2023-08-06T12:06:43.000Z</time>
</trkpt>
<trkpt lat="46.0798980" lon="10.4975260">
	<ele>1985.80</ele>
	<time>2023-08-06T12:06:44.000Z</time>
</trkpt>
<trkpt lat="46.0798980" lon="10.4975260">
	<ele>1985.80</ele>
	<time>2023-08-06T12:06:45.000Z</time>
</trkpt>
<trkpt lat="46.0798990" lon="10.4975260">
	<ele>1985.80</ele>
	<time>2023-08-06T12:06:46.000Z</time>
</trkpt>
<trkpt lat="46.0798990" lon="10.4975270">
	<ele>1985.80</ele>
	<time>2023-08-06T12:06:47.000Z</time>
</trkpt>
<trkpt lat="46.0798990" lon="10.4975290">
	<ele>1985.80</ele>
	<time>2023-08-06T12:06:48.000Z</time>
</trkpt>
<trkpt lat="46.0799000" lon="10.4975290">
	<ele>1985.80</ele>
	<time>2023-08-06T12:06:49.000Z</time>
</trkpt>
<trkpt lat="46.0799000" lon="10.4975320">
	<ele>1985.80</ele>
	<time>2023-08-06T12:06:50.000Z</time>
</trkpt>
<trkpt lat="46.0799020" lon="10.4975400">
	<ele>1985.80</ele>
	<time>2023-08-06T12:06:51.000Z</time>
</trkpt>
<trkpt lat="46.0799020" lon="10.4975430">
	<ele>1986.00</ele>
	<time>2023-08-06T12:06:52.000Z</time>
</trkpt>
<trkpt lat="46.0799040" lon="10.4975450">
	<ele>1986.00</ele>
	<time>2023-08-06T12:06:53.000Z</time>
</trkpt>
<trkpt lat="46.0799110" lon="10.4975500">
	<ele>1986.00</ele>
	<time>2023-08-06T12:06:54.000Z</time>
</trkpt>
<trkpt lat="46.0799140" lon="10.4975510">
	<ele>1986.00</ele>
	<time>2023-08-06T12:06:55.000Z</time>
</trkpt>
<trkpt lat="46.0799140" lon="10.4975560">
	<ele>1986.00</ele>
	<time>2023-08-06T12:06:56.000Z</time>
</trkpt>
<trkpt lat="46.0799130" lon="10.4975640">
	<ele>1986.00</ele>
	<time>2023-08-06T12:06:57.000Z</time>
</trkpt>
<trkpt lat="46.0799180" lon="10.4975680">
	<ele>1986.00</ele>
	<time>2023-08-06T12:06:58.000Z</time>
</trkpt>
<trkpt lat="46.0799210" lon="10.4975720">
	<ele>1986.00</ele>
	<time>2023-08-06T12:06:59.000Z</time>
</trkpt>
<trkpt lat="46.0799230" lon="10.4975740">
	<ele>1986.00</ele>
	<time>2023-08-06T12:07:00.000Z</time>
</trkpt>
<trkpt lat="46.0799230" lon="10.4975740">
	<ele>1986.20</ele>
	<time>2023-08-06T12:07:01.000Z</time>
</trkpt>
<trkpt lat="46.0799230" lon="10.4975740">
	<ele>1986.40</ele>
	<time>2023-08-06T12:07:02.000Z</time>
</trkpt>
<trkpt lat="46.0799230" lon="10.4975740">
	<ele>1986.40</ele>
	<time>2023-08-06T12:07:03.000Z</time>
</trkpt>
<trkpt lat="46.0799230" lon="10.4975740">
	<ele>1986.40</ele>
	<time>2023-08-06T12:07:04.000Z</time>
</trkpt>
<trkpt lat="46.0799230" lon="10.4975740">
	<ele>1986.60</ele>
	<time>2023-08-06T12:07:05.000Z</time>
</trkpt>
<trkpt lat="46.0799230" lon="10.4975740">
	<ele>1986.60</ele>
	<time>2023-08-06T12:07:06.000Z</time>
</trkpt>
<trkpt lat="46.0799230" lon="10.4975740">
	<ele>1986.60</ele>
	<time>2023-08-06T12:07:07.000Z</time>
</trkpt>
<trkpt lat="46.0799230" lon="10.4975740">
	<ele>1986.60</ele>
	<time>2023-08-06T12:07:08.000Z</time>
</trkpt>
<trkpt lat="46.0799230" lon="10.4975740">
	<ele>1986.60</ele>
	<time>2023-08-06T12:07:09.000Z</time>
</trkpt>
<trkpt lat="46.0799230" lon="10.4975740">
	<ele>1986.60</ele>
	<time>2023-08-06T12:07:10.000Z</time>
</trkpt>
<trkpt lat="46.0799230" lon="10.4975740">
	<ele>1986.60</ele>
	<time>2023-08-06T12:07:11.000Z</time>
</trkpt>
<trkpt lat="46.0799230" lon="10.4975740">
	<ele>1986.40</ele>
	<time>2023-08-06T12:07:12.000Z</time>
</trkpt>
<trkpt lat="46.0799230" lon="10.4975740">
	<ele>1986.60</ele>
	<time>2023-08-06T12:07:13.000Z</time>
</trkpt>
<trkpt lat="46.0799230" lon="10.4975750">
	<ele>1986.60</ele>
	<time>2023-08-06T12:07:14.000Z</time>
</trkpt>
<trkpt lat="46.0799230" lon="10.4975750">
	<ele>1986.60</ele>
	<time>2023-08-06T12:07:15.000Z</time>
</trkpt>
<trkpt lat="46.0799230" lon="10.4975750">
	<ele>1986.60</ele>
	<time>2023-08-06T12:07:16.000Z</time>
</trkpt>
<trkpt lat="46.0799230" lon="10.4975750">
	<ele>1986.60</ele>
	<time>2023-08-06T12:07:17.000Z</time>
</trkpt>
<trkpt lat="46.0799230" lon="10.4975750">
	<ele>1986.60</ele>
	<time>2023-08-06T12:07:18.000Z</time>
</trkpt>
<trkpt lat="46.0799230" lon="10.4975750">
	<ele>1986.60</ele>
	<time>2023-08-06T12:07:19.000Z</time>
</trkpt>
<trkpt lat="46.0799230" lon="10.4975750">
	<ele>1986.40</ele>
	<time>2023-08-06T12:07:20.000Z</time>
</trkpt>
<trkpt lat="46.0799230" lon="10.4975750">
	<ele>1986.40</ele>
	<time>2023-08-06T12:07:21.000Z</time>
</trkpt>
<trkpt lat="46.0799230" lon="10.4975750">
	<ele>1986.40</ele>
	<time>2023-08-06T12:07:22.000Z</time>
</trkpt>
<trkpt lat="46.0799220" lon="10.4975750">
	<ele>1986.20</ele>
	<time>2023-08-06T12:07:23.000Z</time>
</trkpt>
<trkpt lat="46.0799220" lon="10.4975750">
	<ele>1986.20</ele>
	<time>2023-08-06T12:07:24.000Z</time>
</trkpt>
<trkpt lat="46.0799220" lon="10.4975750">
	<ele>1986.20</ele>
	<time>2023-08-06T12:07:25.000Z</time>
</trkpt>
<trkpt lat="46.0799220" lon="10.4975750">
	<ele>1986.40</ele>
	<time>2023-08-06T12:07:26.000Z</time>
</trkpt>
<trkpt lat="46.0799220" lon="10.4975760">
	<ele>1986.60</ele>
	<time>2023-08-06T12:07:27.000Z</time>
</trkpt>
<trkpt lat="46.0799220" lon="10.4975760">
	<ele>1986.60</ele>
	<time>2023-08-06T12:07:28.000Z</time>
</trkpt>
<trkpt lat="46.0799220" lon="10.4975760">
	<ele>1986.60</ele>
	<time>2023-08-06T12:07:29.000Z</time>
</trkpt>
<trkpt lat="46.0799220" lon="10.4975750">
	<ele>1986.60</ele>
	<time>2023-08-06T12:07:30.000Z</time>
</trkpt>
<trkpt lat="46.0799220" lon="10.4975750">
	<ele>1986.60</ele>
	<time>2023-08-06T12:07:31.000Z</time>
</trkpt>
<trkpt lat="46.0799220" lon="10.4975750">
	<ele>1986.40</ele>
	<time>2023-08-06T12:07:32.000Z</time>
</trkpt>
<trkpt lat="46.0799220" lon="10.4975740">
	<ele>1986.20</ele>
	<time>2023-08-06T12:07:33.000Z</time>
</trkpt>
<trkpt lat="46.0799220" lon="10.4975730">
	<ele>1986.20</ele>
	<time>2023-08-06T12:07:34.000Z</time>
</trkpt>
<trkpt lat="46.0799220" lon="10.4975730">
	<ele>1986.20</ele>
	<time>2023-08-06T12:07:35.000Z</time>
</trkpt>
<trkpt lat="46.0799220" lon="10.4975730">
	<ele>1986.20</ele>
	<time>2023-08-06T12:07:36.000Z</time>
</trkpt>
<trkpt lat="46.0799220" lon="10.4975720">
	<ele>1986.20</ele>
	<time>2023-08-06T12:07:37.000Z</time>
</trkpt>
<trkpt lat="46.0799220" lon="10.4975720">
	<ele>1986.20</ele>
	<time>2023-08-06T12:07:38.000Z</time>
</trkpt>
<trkpt lat="46.0799220" lon="10.4975720">
	<ele>1986.20</ele>
	<time>2023-08-06T12:07:39.000Z</time>
</trkpt>
<trkpt lat="46.0799220" lon="10.4975710">
	<ele>1986.20</ele>
	<time>2023-08-06T12:07:40.000Z</time>
</trkpt>
<trkpt lat="46.0799220" lon="10.4975710">
	<ele>1986.40</ele>
	<time>2023-08-06T12:07:41.000Z</time>
</trkpt>
<trkpt lat="46.0799220" lon="10.4975710">
	<ele>1986.40</ele>
	<time>2023-08-06T12:07:42.000Z</time>
</trkpt>
<trkpt lat="46.0799210" lon="10.4975690">
	<ele>1986.60</ele>
	<time>2023-08-06T12:07:43.000Z</time>
</trkpt>
<trkpt lat="46.0799210" lon="10.4975680">
	<ele>1986.60</ele>
	<time>2023-08-06T12:07:44.000Z</time>
</trkpt>
<trkpt lat="46.0799200" lon="10.4975660">
	<ele>1986.60</ele>
	<time>2023-08-06T12:07:45.000Z</time>
</trkpt>
<trkpt lat="46.0799200" lon="10.4975660">
	<ele>1986.60</ele>
	<time>2023-08-06T12:07:46.000Z</time>
</trkpt>
<trkpt lat="46.0799180" lon="10.4975650">
	<ele>1986.60</ele>
	<time>2023-08-06T12:07:47.000Z</time>
</trkpt>
<trkpt lat="46.0799170" lon="10.4975640">
	<ele>1986.40</ele>
	<time>2023-08-06T12:07:48.000Z</time>
</trkpt>
<trkpt lat="46.0799170" lon="10.4975610">
	<ele>1986.40</ele>
	<time>2023-08-06T12:07:49.000Z</time>
</trkpt>
<trkpt lat="46.0799170" lon="10.4975600">
	<ele>1986.60</ele>
	<time>2023-08-06T12:07:50.000Z</time>
</trkpt>
<trkpt lat="46.0799170" lon="10.4975600">
	<ele>1986.60</ele>
	<time>2023-08-06T12:07:51.000Z</time>
</trkpt>
<trkpt lat="46.0799170" lon="10.4975590">
	<ele>1986.60</ele>
	<time>2023-08-06T12:07:52.000Z</time>
</trkpt>
<trkpt lat="46.0799160" lon="10.4975570">
	<ele>1986.60</ele>
	<time>2023-08-06T12:07:53.000Z</time>
</trkpt>
<trkpt lat="46.0799150" lon="10.4975550">
	<ele>1986.60</ele>
	<time>2023-08-06T12:07:54.000Z</time>
</trkpt>
<trkpt lat="46.0799150" lon="10.4975520">
	<ele>1986.60</ele>
	<time>2023-08-06T12:07:55.000Z</time>
</trkpt>
<trkpt lat="46.0799150" lon="10.4975490">
	<ele>1986.80</ele>
	<time>2023-08-06T12:07:56.000Z</time>
</trkpt>
<trkpt lat="46.0799150" lon="10.4975480">
	<ele>1987.00</ele>
	<time>2023-08-06T12:07:57.000Z</time>
</trkpt>
<trkpt lat="46.0799150" lon="10.4975460">
	<ele>1987.00</ele>
	<time>2023-08-06T12:07:58.000Z</time>
</trkpt>
<trkpt lat="46.0799150" lon="10.4975460">
	<ele>1987.00</ele>
	<time>2023-08-06T12:07:59.000Z</time>
</trkpt>
<trkpt lat="46.0799150" lon="10.4975450">
	<ele>1987.20</ele>
	<time>2023-08-06T12:08:00.000Z</time>
</trkpt>
<trkpt lat="46.0799150" lon="10.4975450">
	<ele>1987.60</ele>
	<time>2023-08-06T12:08:01.000Z</time>
</trkpt>
<trkpt lat="46.0799150" lon="10.4975450">
	<ele>1987.60</ele>
	<time>2023-08-06T12:08:02.000Z</time>
</trkpt>
<trkpt lat="46.0799150" lon="10.4975450">
	<ele>1987.80</ele>
	<time>2023-08-06T12:08:03.000Z</time>
</trkpt>
<trkpt lat="46.0799150" lon="10.4975450">
	<ele>1988.00</ele>
	<time>2023-08-06T12:08:04.000Z</time>
</trkpt>
<trkpt lat="46.0799210" lon="10.4975500">
	<ele>1988.00</ele>
	<time>2023-08-06T12:08:05.000Z</time>
</trkpt>
<trkpt lat="46.0799230" lon="10.4975620">
	<ele>1988.20</ele>
	<time>2023-08-06T12:08:06.000Z</time>
</trkpt>
<trkpt lat="46.0799230" lon="10.4975690">
	<ele>1988.40</ele>
	<time>2023-08-06T12:08:07.000Z</time>
</trkpt>
<trkpt lat="46.0799250" lon="10.4975760">
	<ele>1988.60</ele>
	<time>2023-08-06T12:08:08.000Z</time>
</trkpt>
<trkpt lat="46.0799340" lon="10.4975870">
	<ele>1988.60</ele>
	<time>2023-08-06T12:08:09.000Z</time>
</trkpt>
<trkpt lat="46.0799430" lon="10.4975990">
	<ele>1988.80</ele>
	<time>2023-08-06T12:08:10.000Z</time>
</trkpt>
<trkpt lat="46.0799470" lon="10.4976110">
	<ele>1988.80</ele>
	<time>2023-08-06T12:08:11.000Z</time>
</trkpt>
<trkpt lat="46.0799530" lon="10.4976210">
	<ele>1989.00</ele>
	<time>2023-08-06T12:08:12.000Z</time>
</trkpt>
<trkpt lat="46.0799610" lon="10.4976300">
	<ele>1989.00</ele>
	<time>2023-08-06T12:08:13.000Z</time>
</trkpt>
<trkpt lat="46.0799710" lon="10.4976450">
	<ele>1989.20</ele>
	<time>2023-08-06T12:08:14.000Z</time>
</trkpt>
<trkpt lat="46.0799740" lon="10.4976530">
	<ele>1989.40</ele>
	<time>2023-08-06T12:08:15.000Z</time>
</trkpt>
<trkpt lat="46.0799780" lon="10.4976530">
	<ele>1989.60</ele>
	<time>2023-08-06T12:08:16.000Z</time>
</trkpt>
<trkpt lat="46.0799800" lon="10.4976540">
	<ele>1989.60</ele>
	<time>2023-08-06T12:08:17.000Z</time>
</trkpt>
<trkpt lat="46.0799860" lon="10.4976500">
	<ele>1989.80</ele>
	<time>2023-08-06T12:08:18.000Z</time>
</trkpt>
<trkpt lat="46.0799920" lon="10.4976480">
	<ele>1990.00</ele>
	<time>2023-08-06T12:08:19.000Z</time>
</trkpt>
<trkpt lat="46.0799960" lon="10.4976470">
	<ele>1990.00</ele>
	<time>2023-08-06T12:08:20.000Z</time>
</trkpt>
<trkpt lat="46.0800000" lon="10.4976450">
	<ele>1990.00</ele>
	<time>2023-08-06T12:08:21.000Z</time>
</trkpt>
<trkpt lat="46.0800070" lon="10.4976480">
	<ele>1990.20</ele>
	<time>2023-08-06T12:08:22.000Z</time>
</trkpt>
<trkpt lat="46.0800100" lon="10.4976450">
	<ele>1990.40</ele>
	<time>2023-08-06T12:08:23.000Z</time>
</trkpt>
<trkpt lat="46.0800140" lon="10.4976420">
	<ele>1990.60</ele>
	<time>2023-08-06T12:08:24.000Z</time>
</trkpt>
<trkpt lat="46.0800160" lon="10.4976350">
	<ele>1990.80</ele>
	<time>2023-08-06T12:08:25.000Z</time>
</trkpt>
<trkpt lat="46.0800150" lon="10.4976270">
	<ele>1991.00</ele>
	<time>2023-08-06T12:08:26.000Z</time>
</trkpt>
<trkpt lat="46.0800240" lon="10.4976300">
	<ele>1991.00</ele>
	<time>2023-08-06T12:08:27.000Z</time>
</trkpt>
<trkpt lat="46.0800290" lon="10.4976320">
	<ele>1991.20</ele>
	<time>2023-08-06T12:08:28.000Z</time>
</trkpt>
<trkpt lat="46.0800330" lon="10.4976380">
	<ele>1991.40</ele>
	<time>2023-08-06T12:08:29.000Z</time>
</trkpt>
<trkpt lat="46.0800410" lon="10.4976530">
	<ele>1991.60</ele>
	<time>2023-08-06T12:08:30.000Z</time>
</trkpt>
<trkpt lat="46.0800500" lon="10.4976780">
	<ele>1991.80</ele>
	<time>2023-08-06T12:08:31.000Z</time>
</trkpt>
<trkpt lat="46.0800530" lon="10.4976840">
	<ele>1992.00</ele>
	<time>2023-08-06T12:08:32.000Z</time>
</trkpt>
<trkpt lat="46.0800560" lon="10.4976860">
	<ele>1992.00</ele>
	<time>2023-08-06T12:08:33.000Z</time>
</trkpt>
<trkpt lat="46.0800550" lon="10.4976850">
	<ele>1992.20</ele>
	<time>2023-08-06T12:08:34.000Z</time>
</trkpt>
<trkpt lat="46.0800550" lon="10.4976860">
	<ele>1992.20</ele>
	<time>2023-08-06T12:08:35.000Z</time>
</trkpt>
<trkpt lat="46.0800550" lon="10.4976890">
	<ele>1992.40</ele>
	<time>2023-08-06T12:08:36.000Z</time>
</trkpt>
<trkpt lat="46.0800510" lon="10.4976930">
	<ele>1992.40</ele>
	<time>2023-08-06T12:08:37.000Z</time>
</trkpt>
<trkpt lat="46.0800480" lon="10.4977010">
	<ele>1992.60</ele>
	<time>2023-08-06T12:08:38.000Z</time>
</trkpt>
<trkpt lat="46.0800420" lon="10.4977090">
	<ele>1992.80</ele>
	<time>2023-08-06T12:08:39.000Z</time>
</trkpt>
<trkpt lat="46.0800380" lon="10.4977110">
	<ele>1993.00</ele>
	<time>2023-08-06T12:08:40.000Z</time>
</trkpt>
<trkpt lat="46.0800360" lon="10.4977130">
	<ele>1993.20</ele>
	<time>2023-08-06T12:08:41.000Z</time>
</trkpt>
<trkpt lat="46.0800360" lon="10.4977150">
	<ele>1993.20</ele>
	<time>2023-08-06T12:08:42.000Z</time>
</trkpt>
<trkpt lat="46.0800380" lon="10.4977180">
	<ele>1993.40</ele>
	<time>2023-08-06T12:08:43.000Z</time>
</trkpt>
<trkpt lat="46.0800430" lon="10.4977270">
	<ele>1993.60</ele>
	<time>2023-08-06T12:08:44.000Z</time>
</trkpt>
<trkpt lat="46.0800460" lon="10.4977330">
	<ele>1993.80</ele>
	<time>2023-08-06T12:08:45.000Z</time>
</trkpt>
<trkpt lat="46.0800480" lon="10.4977380">
	<ele>1993.80</ele>
	<time>2023-08-06T12:08:46.000Z</time>
</trkpt>
<trkpt lat="46.0800540" lon="10.4977460">
	<ele>1994.00</ele>
	<time>2023-08-06T12:08:47.000Z</time>
</trkpt>
<trkpt lat="46.0800580" lon="10.4977540">
	<ele>1994.00</ele>
	<time>2023-08-06T12:08:48.000Z</time>
</trkpt>
<trkpt lat="46.0800630" lon="10.4977580">
	<ele>1994.20</ele>
	<time>2023-08-06T12:08:49.000Z</time>
</trkpt>
<trkpt lat="46.0800650" lon="10.4977560">
	<ele>1994.20</ele>
	<time>2023-08-06T12:08:50.000Z</time>
</trkpt>
<trkpt lat="46.0800680" lon="10.4977510">
	<ele>1994.40</ele>
	<time>2023-08-06T12:08:51.000Z</time>
</trkpt>
<trkpt lat="46.0800750" lon="10.4977520">
	<ele>1994.60</ele>
	<time>2023-08-06T12:08:52.000Z</time>
</trkpt>
<trkpt lat="46.0800830" lon="10.4977580">
	<ele>1994.60</ele>
	<time>2023-08-06T12:08:53.000Z</time>
</trkpt>
<trkpt lat="46.0800930" lon="10.4977650">
	<ele>1994.60</ele>
	<time>2023-08-06T12:08:54.000Z</time>
</trkpt>
<trkpt lat="46.0800970" lon="10.4977600">
	<ele>1994.60</ele>
	<time>2023-08-06T12:08:55.000Z</time>
</trkpt>
<trkpt lat="46.0801000" lon="10.4977570">
	<ele>1994.60</ele>
	<time>2023-08-06T12:08:56.000Z</time>
</trkpt>
<trkpt lat="46.0801040" lon="10.4977530">
	<ele>1994.60</ele>
	<time>2023-08-06T12:08:57.000Z</time>
</trkpt>
<trkpt lat="46.0801100" lon="10.4977490">
	<ele>1994.40</ele>
	<time>2023-08-06T12:08:58.000Z</time>
</trkpt>
<trkpt lat="46.0801160" lon="10.4977420">
	<ele>1994.40</ele>
	<time>2023-08-06T12:08:59.000Z</time>
</trkpt>
<trkpt lat="46.0801200" lon="10.4977420">
	<ele>1994.40</ele>
	<time>2023-08-06T12:09:00.000Z</time>
</trkpt>
<trkpt lat="46.0801200" lon="10.4977410">
	<ele>1994.40</ele>
	<time>2023-08-06T12:09:01.000Z</time>
</trkpt>
<trkpt lat="46.0801200" lon="10.4977410">
	<ele>1994.40</ele>
	<time>2023-08-06T12:09:02.000Z</time>
</trkpt>
<trkpt lat="46.0801190" lon="10.4977410">
	<ele>1994.80</ele>
	<time>2023-08-06T12:09:03.000Z</time>
</trkpt>
<trkpt lat="46.0801190" lon="10.4977410">
	<ele>1995.00</ele>
	<time>2023-08-06T12:09:04.000Z</time>
</trkpt>
<trkpt lat="46.0801200" lon="10.4977400">
	<ele>1995.00</ele>
	<time>2023-08-06T12:09:05.000Z</time>
</trkpt>
<trkpt lat="46.0801240" lon="10.4977430">
	<ele>1995.00</ele>
	<time>2023-08-06T12:09:06.000Z</time>
</trkpt>
<trkpt lat="46.0801290" lon="10.4977480">
	<ele>1995.00</ele>
	<time>2023-08-06T12:09:07.000Z</time>
</trkpt>
<trkpt lat="46.0801380" lon="10.4977470">
	<ele>1994.80</ele>
	<time>2023-08-06T12:09:08.000Z</time>
</trkpt>
<trkpt lat="46.0801450" lon="10.4977440">
	<ele>1994.80</ele>
	<time>2023-08-06T12:09:09.000Z</time>
</trkpt>
<trkpt lat="46.0801570" lon="10.4977450">
	<ele>1994.80</ele>
	<time>2023-08-06T12:09:10.000Z</time>
</trkpt>
<trkpt lat="46.0801670" lon="10.4977410">
	<ele>1994.80</ele>
	<time>2023-08-06T12:09:11.000Z</time>
</trkpt>
<trkpt lat="46.0801780" lon="10.4977380">
	<ele>1994.80</ele>
	<time>2023-08-06T12:09:12.000Z</time>
</trkpt>
<trkpt lat="46.0801910" lon="10.4977370">
	<ele>1994.80</ele>
	<time>2023-08-06T12:09:13.000Z</time>
</trkpt>
<trkpt lat="46.0802040" lon="10.4977350">
	<ele>1994.80</ele>
	<time>2023-08-06T12:09:14.000Z</time>
</trkpt>
<trkpt lat="46.0802150" lon="10.4977280">
	<ele>1994.80</ele>
	<time>2023-08-06T12:09:15.000Z</time>
</trkpt>
<trkpt lat="46.0802290" lon="10.4977260">
	<ele>1994.80</ele>
	<time>2023-08-06T12:09:16.000Z</time>
</trkpt>
<trkpt lat="46.0802430" lon="10.4977260">
	<ele>1994.80</ele>
	<time>2023-08-06T12:09:17.000Z</time>
</trkpt>
<trkpt lat="46.0802580" lon="10.4977320">
	<ele>1994.60</ele>
	<time>2023-08-06T12:09:18.000Z</time>
</trkpt>
<trkpt lat="46.0802710" lon="10.4977350">
	<ele>1994.60</ele>
	<time>2023-08-06T12:09:19.000Z</time>
</trkpt>
<trkpt lat="46.0802810" lon="10.4977340">
	<ele>1994.60</ele>
	<time>2023-08-06T12:09:20.000Z</time>
</trkpt>
<trkpt lat="46.0802900" lon="10.4977370">
	<ele>1994.40</ele>
	<time>2023-08-06T12:09:21.000Z</time>
</trkpt>
<trkpt lat="46.0803010" lon="10.4977400">
	<ele>1994.60</ele>
	<time>2023-08-06T12:09:22.000Z</time>
</trkpt>
<trkpt lat="46.0803100" lon="10.4977390">
	<ele>1994.60</ele>
	<time>2023-08-06T12:09:23.000Z</time>
</trkpt>
<trkpt lat="46.0803170" lon="10.4977370">
	<ele>1994.60</ele>
	<time>2023-08-06T12:09:24.000Z</time>
</trkpt>
<trkpt lat="46.0803250" lon="10.4977380">
	<ele>1994.80</ele>
	<time>2023-08-06T12:09:25.000Z</time>
</trkpt>
<trkpt lat="46.0803370" lon="10.4977410">
	<ele>1994.80</ele>
	<time>2023-08-06T12:09:26.000Z</time>
</trkpt>
<trkpt lat="46.0803480" lon="10.4977430">
	<ele>1994.80</ele>
	<time>2023-08-06T12:09:27.000Z</time>
</trkpt>
<trkpt lat="46.0803590" lon="10.4977440">
	<ele>1994.80</ele>
	<time>2023-08-06T12:09:28.000Z</time>
</trkpt>
<trkpt lat="46.0803710" lon="10.4977410">
	<ele>1994.80</ele>
	<time>2023-08-06T12:09:29.000Z</time>
</trkpt>
<trkpt lat="46.0803830" lon="10.4977380">
	<ele>1994.80</ele>
	<time>2023-08-06T12:09:30.000Z</time>
</trkpt>
<trkpt lat="46.0803990" lon="10.4977480">
	<ele>1994.80</ele>
	<time>2023-08-06T12:09:31.000Z</time>
</trkpt>
<trkpt lat="46.0804080" lon="10.4977520">
	<ele>1994.80</ele>
	<time>2023-08-06T12:09:32.000Z</time>
</trkpt>
<trkpt lat="46.0804210" lon="10.4977590">
	<ele>1994.80</ele>
	<time>2023-08-06T12:09:33.000Z</time>
</trkpt>
<trkpt lat="46.0804320" lon="10.4977670">
	<ele>1994.80</ele>
	<time>2023-08-06T12:09:34.000Z</time>
</trkpt>
<trkpt lat="46.0804510" lon="10.4977800">
	<ele>1994.80</ele>
	<time>2023-08-06T12:09:35.000Z</time>
</trkpt>
<trkpt lat="46.0804680" lon="10.4977900">
	<ele>1994.60</ele>
	<time>2023-08-06T12:09:36.000Z</time>
</trkpt>
<trkpt lat="46.0804780" lon="10.4977960">
	<ele>1994.60</ele>
	<time>2023-08-06T12:09:37.000Z</time>
</trkpt>
<trkpt lat="46.0804860" lon="10.4977940">
	<ele>1994.40</ele>
	<time>2023-08-06T12:09:38.000Z</time>
</trkpt>
<trkpt lat="46.0804980" lon="10.4977980">
	<ele>1994.40</ele>
	<time>2023-08-06T12:09:39.000Z</time>
</trkpt>
<trkpt lat="46.0805080" lon="10.4978020">
	<ele>1994.40</ele>
	<time>2023-08-06T12:09:40.000Z</time>
</trkpt>
<trkpt lat="46.0805200" lon="10.4978070">
	<ele>1994.40</ele>
	<time>2023-08-06T12:09:41.000Z</time>
</trkpt>
<trkpt lat="46.0805310" lon="10.4978180">
	<ele>1994.40</ele>
	<time>2023-08-06T12:09:42.000Z</time>
</trkpt>
<trkpt lat="46.0805370" lon="10.4978220">
	<ele>1994.40</ele>
	<time>2023-08-06T12:09:43.000Z</time>
</trkpt>
<trkpt lat="46.0805460" lon="10.4978300">
	<ele>1994.40</ele>
	<time>2023-08-06T12:09:44.000Z</time>
</trkpt>
<trkpt lat="46.0805580" lon="10.4978430">
	<ele>1994.40</ele>
	<time>2023-08-06T12:09:45.000Z</time>
</trkpt>
<trkpt lat="46.0805650" lon="10.4978500">
	<ele>1994.20</ele>
	<time>2023-08-06T12:09:46.000Z</time>
</trkpt>
<trkpt lat="46.0805690" lon="10.4978550">
	<ele>1994.00</ele>
	<time>2023-08-06T12:09:47.000Z</time>
</trkpt>
<trkpt lat="46.0805740" lon="10.4978570">
	<ele>1994.00</ele>
	<time>2023-08-06T12:09:48.000Z</time>
</trkpt>
<trkpt lat="46.0805860" lon="10.4978610">
	<ele>1994.00</ele>
	<time>2023-08-06T12:09:49.000Z</time>
</trkpt>
<trkpt lat="46.0805930" lon="10.4978600">
	<ele>1994.00</ele>
	<time>2023-08-06T12:09:50.000Z</time>
</trkpt>
<trkpt lat="46.0806040" lon="10.4978660">
	<ele>1994.20</ele>
	<time>2023-08-06T12:09:51.000Z</time>
</trkpt>
<trkpt lat="46.0806090" lon="10.4978690">
	<ele>1994.20</ele>
	<time>2023-08-06T12:09:52.000Z</time>
</trkpt>
<trkpt lat="46.0806210" lon="10.4978740">
	<ele>1994.40</ele>
	<time>2023-08-06T12:09:53.000Z</time>
</trkpt>
<trkpt lat="46.0806340" lon="10.4978770">
	<ele>1994.40</ele>
	<time>2023-08-06T12:09:54.000Z</time>
</trkpt>
<trkpt lat="46.0806460" lon="10.4978850">
	<ele>1994.40</ele>
	<time>2023-08-06T12:09:55.000Z</time>
</trkpt>
<trkpt lat="46.0806570" lon="10.4978950">
	<ele>1994.40</ele>
	<time>2023-08-06T12:09:56.000Z</time>
</trkpt>
<trkpt lat="46.0806660" lon="10.4979040">
	<ele>1994.40</ele>
	<time>2023-08-06T12:09:57.000Z</time>
</trkpt>
<trkpt lat="46.0806780" lon="10.4979130">
	<ele>1994.40</ele>
	<time>2023-08-06T12:09:58.000Z</time>
</trkpt>
<trkpt lat="46.0806910" lon="10.4979180">
	<ele>1994.60</ele>
	<time>2023-08-06T12:09:59.000Z</time>
</trkpt>
<trkpt lat="46.0807030" lon="10.4979180">
	<ele>1994.60</ele>
	<time>2023-08-06T12:10:00.000Z</time>
</trkpt>
<trkpt lat="46.0807160" lon="10.4979250">
	<ele>1994.60</ele>
	<time>2023-08-06T12:10:01.000Z</time>
</trkpt>
<trkpt lat="46.0807290" lon="10.4979320">
	<ele>1994.60</ele>
	<time>2023-08-06T12:10:02.000Z</time>
</trkpt>
<trkpt lat="46.0807400" lon="10.4979350">
	<ele>1994.60</ele>
	<time>2023-08-06T12:10:03.000Z</time>
</trkpt>
<trkpt lat="46.0807570" lon="10.4979420">
	<ele>1994.40</ele>
	<time>2023-08-06T12:10:04.000Z</time>
</trkpt>
<trkpt lat="46.0807710" lon="10.4979490">
	<ele>1994.60</ele>
	<time>2023-08-06T12:10:05.000Z</time>
</trkpt>
<trkpt lat="46.0807850" lon="10.4979500">
	<ele>1994.60</ele>
	<time>2023-08-06T12:10:06.000Z</time>
</trkpt>
<trkpt lat="46.0807960" lon="10.4979520">
	<ele>1994.80</ele>
	<time>2023-08-06T12:10:07.000Z</time>
</trkpt>
<trkpt lat="46.0808070" lon="10.4979530">
	<ele>1994.80</ele>
	<time>2023-08-06T12:10:08.000Z</time>
</trkpt>
<trkpt lat="46.0808190" lon="10.4979500">
	<ele>1994.80</ele>
	<time>2023-08-06T12:10:09.000Z</time>
</trkpt>
<trkpt lat="46.0808300" lon="10.4979470">
	<ele>1995.00</ele>
	<time>2023-08-06T12:10:10.000Z</time>
</trkpt>
<trkpt lat="46.0808390" lon="10.4979420">
	<ele>1995.00</ele>
	<time>2023-08-06T12:10:11.000Z</time>
</trkpt>
<trkpt lat="46.0808460" lon="10.4979410">
	<ele>1995.00</ele>
	<time>2023-08-06T12:10:12.000Z</time>
</trkpt>
<trkpt lat="46.0808550" lon="10.4979510">
	<ele>1995.00</ele>
	<time>2023-08-06T12:10:13.000Z</time>
</trkpt>
<trkpt lat="46.0808610" lon="10.4979540">
	<ele>1995.20</ele>
	<time>2023-08-06T12:10:14.000Z</time>
</trkpt>
<trkpt lat="46.0808640" lon="10.4979450">
	<ele>1995.20</ele>
	<time>2023-08-06T12:10:15.000Z</time>
</trkpt>
<trkpt lat="46.0808710" lon="10.4979380">
	<ele>1995.20</ele>
	<time>2023-08-06T12:10:16.000Z</time>
</trkpt>
<trkpt lat="46.0808800" lon="10.4979370">
	<ele>1995.20</ele>
	<time>2023-08-06T12:10:17.000Z</time>
</trkpt>
<trkpt lat="46.0808890" lon="10.4979380">
	<ele>1995.20</ele>
	<time>2023-08-06T12:10:18.000Z</time>
</trkpt>
<trkpt lat="46.0809020" lon="10.4979470">
	<ele>1995.40</ele>
	<time>2023-08-06T12:10:19.000Z</time>
</trkpt>
<trkpt lat="46.0809170" lon="10.4979560">
	<ele>1995.40</ele>
	<time>2023-08-06T12:10:20.000Z</time>
</trkpt>
<trkpt lat="46.0809310" lon="10.4979590">
	<ele>1995.40</ele>
	<time>2023-08-06T12:10:21.000Z</time>
</trkpt>
<trkpt lat="46.0809420" lon="10.4979590">
	<ele>1995.40</ele>
	<time>2023-08-06T12:10:22.000Z</time>
</trkpt>
<trkpt lat="46.0809540" lon="10.4979560">
	<ele>1995.40</ele>
	<time>2023-08-06T12:10:23.000Z</time>
</trkpt>
<trkpt lat="46.0809640" lon="10.4979530">
	<ele>1995.40</ele>
	<time>2023-08-06T12:10:24.000Z</time>
</trkpt>
<trkpt lat="46.0809730" lon="10.4979490">
	<ele>1995.40</ele>
	<time>2023-08-06T12:10:25.000Z</time>
</trkpt>
<trkpt lat="46.0809830" lon="10.4979470">
	<ele>1995.20</ele>
	<time>2023-08-06T12:10:26.000Z</time>
</trkpt>
<trkpt lat="46.0809990" lon="10.4979480">
	<ele>1995.20</ele>
	<time>2023-08-06T12:10:27.000Z</time>
</trkpt>
<trkpt lat="46.0810130" lon="10.4979470">
	<ele>1995.20</ele>
	<time>2023-08-06T12:10:28.000Z</time>
</trkpt>
<trkpt lat="46.0810260" lon="10.4979510">
	<ele>1995.00</ele>
	<time>2023-08-06T12:10:29.000Z</time>
</trkpt>
<trkpt lat="46.0810390" lon="10.4979520">
	<ele>1995.00</ele>
	<time>2023-08-06T12:10:30.000Z</time>
</trkpt>
<trkpt lat="46.0810500" lon="10.4979500">
	<ele>1995.00</ele>
	<time>2023-08-06T12:10:31.000Z</time>
</trkpt>
<trkpt lat="46.0810610" lon="10.4979530">
	<ele>1995.00</ele>
	<time>2023-08-06T12:10:32.000Z</time>
</trkpt>
<trkpt lat="46.0810730" lon="10.4979540">
	<ele>1995.00</ele>
	<time>2023-08-06T12:10:33.000Z</time>
</trkpt>
<trkpt lat="46.0810920" lon="10.4979590">
	<ele>1995.00</ele>
	<time>2023-08-06T12:10:34.000Z</time>
</trkpt>
<trkpt lat="46.0811040" lon="10.4979600">
	<ele>1995.00</ele>
	<time>2023-08-06T12:10:35.000Z</time>
</trkpt>
<trkpt lat="46.0811170" lon="10.4979610">
	<ele>1995.00</ele>
	<time>2023-08-06T12:10:36.000Z</time>
</trkpt>
<trkpt lat="46.0811260" lon="10.4979610">
	<ele>1995.20</ele>
	<time>2023-08-06T12:10:37.000Z</time>
</trkpt>
<trkpt lat="46.0811420" lon="10.4979670">
	<ele>1995.40</ele>
	<time>2023-08-06T12:10:38.000Z</time>
</trkpt>
<trkpt lat="46.0811550" lon="10.4979640">
	<ele>1995.40</ele>
	<time>2023-08-06T12:10:39.000Z</time>
</trkpt>
<trkpt lat="46.0811640" lon="10.4979640">
	<ele>1995.60</ele>
	<time>2023-08-06T12:10:40.000Z</time>
</trkpt>
<trkpt lat="46.0811760" lon="10.4979690">
	<ele>1995.60</ele>
	<time>2023-08-06T12:10:41.000Z</time>
</trkpt>
<trkpt lat="46.0811900" lon="10.4979790">
	<ele>1995.60</ele>
	<time>2023-08-06T12:10:42.000Z</time>
</trkpt>
<trkpt lat="46.0812020" lon="10.4979850">
	<ele>1995.40</ele>
	<time>2023-08-06T12:10:43.000Z</time>
</trkpt>
<trkpt lat="46.0812120" lon="10.4979900">
	<ele>1995.40</ele>
	<time>2023-08-06T12:10:44.000Z</time>
</trkpt>
<trkpt lat="46.0812270" lon="10.4979980">
	<ele>1995.40</ele>
	<time>2023-08-06T12:10:45.000Z</time>
</trkpt>
<trkpt lat="46.0812400" lon="10.4980050">
	<ele>1995.40</ele>
	<time>2023-08-06T12:10:46.000Z</time>
</trkpt>
<trkpt lat="46.0812540" lon="10.4980110">
	<ele>1995.40</ele>
	<time>2023-08-06T12:10:47.000Z</time>
</trkpt>
<trkpt lat="46.0812690" lon="10.4980130">
	<ele>1995.40</ele>
	<time>2023-08-06T12:10:48.000Z</time>
</trkpt>
<trkpt lat="46.0812800" lon="10.4980140">
	<ele>1995.40</ele>
	<time>2023-08-06T12:10:49.000Z</time>
</trkpt>
<trkpt lat="46.0812920" lon="10.4980180">
	<ele>1995.40</ele>
	<time>2023-08-06T12:10:50.000Z</time>
</trkpt>
<trkpt lat="46.0813030" lon="10.4980220">
	<ele>1995.20</ele>
	<time>2023-08-06T12:10:51.000Z</time>
</trkpt>
<trkpt lat="46.0813130" lon="10.4980250">
	<ele>1995.20</ele>
	<time>2023-08-06T12:10:52.000Z</time>
</trkpt>
<trkpt lat="46.0813200" lon="10.4980300">
	<ele>1995.40</ele>
	<time>2023-08-06T12:10:53.000Z</time>
</trkpt>
<trkpt lat="46.0813320" lon="10.4980350">
	<ele>1995.40</ele>
	<time>2023-08-06T12:10:54.000Z</time>
</trkpt>
<trkpt lat="46.0813430" lon="10.4980360">
	<ele>1995.60</ele>
	<time>2023-08-06T12:10:55.000Z</time>
</trkpt>
<trkpt lat="46.0813530" lon="10.4980340">
	<ele>1995.60</ele>
	<time>2023-08-06T12:10:56.000Z</time>
</trkpt>
<trkpt lat="46.0813630" lon="10.4980320">
	<ele>1995.40</ele>
	<time>2023-08-06T12:10:57.000Z</time>
</trkpt>
<trkpt lat="46.0813710" lon="10.4980310">
	<ele>1995.40</ele>
	<time>2023-08-06T12:10:58.000Z</time>
</trkpt>
<trkpt lat="46.0813810" lon="10.4980300">
	<ele>1995.40</ele>
	<time>2023-08-06T12:10:59.000Z</time>
</trkpt>
<trkpt lat="46.0813960" lon="10.4980310">
	<ele>1995.40</ele>
	<time>2023-08-06T12:11:00.000Z</time>
</trkpt>
<trkpt lat="46.0814080" lon="10.4980350">
	<ele>1995.20</ele>
	<time>2023-08-06T12:11:01.000Z</time>
</trkpt>
<trkpt lat="46.0814200" lon="10.4980380">
	<ele>1995.20</ele>
	<time>2023-08-06T12:11:02.000Z</time>
</trkpt>
<trkpt lat="46.0814300" lon="10.4980360">
	<ele>1995.20</ele>
	<time>2023-08-06T12:11:03.000Z</time>
</trkpt>
<trkpt lat="46.0814430" lon="10.4980330">
	<ele>1995.20</ele>
	<time>2023-08-06T12:11:04.000Z</time>
</trkpt>
<trkpt lat="46.0814560" lon="10.4980320">
	<ele>1995.20</ele>
	<time>2023-08-06T12:11:05.000Z</time>
</trkpt>
<trkpt lat="46.0814640" lon="10.4980280">
	<ele>1995.20</ele>
	<time>2023-08-06T12:11:06.000Z</time>
</trkpt>
<trkpt lat="46.0814700" lon="10.4980260">
	<ele>1995.80</ele>
	<time>2023-08-06T12:11:07.000Z</time>
</trkpt>
<trkpt lat="46.0814720" lon="10.4980250">
	<ele>1996.20</ele>
	<time>2023-08-06T12:11:08.000Z</time>
</trkpt>
<trkpt lat="46.0814730" lon="10.4980220">
	<ele>1996.40</ele>
	<time>2023-08-06T12:11:09.000Z</time>
</trkpt>
<trkpt lat="46.0814760" lon="10.4980190">
	<ele>1996.40</ele>
	<time>2023-08-06T12:11:10.000Z</time>
</trkpt>
<trkpt lat="46.0814800" lon="10.4980190">
	<ele>1996.60</ele>
	<time>2023-08-06T12:11:11.000Z</time>
</trkpt>
<trkpt lat="46.0814820" lon="10.4980190">
	<ele>1996.60</ele>
	<time>2023-08-06T12:11:12.000Z</time>
</trkpt>
<trkpt lat="46.0814850" lon="10.4980230">
	<ele>1996.40</ele>
	<time>2023-08-06T12:11:13.000Z</time>
</trkpt>
<trkpt lat="46.0814860" lon="10.4980260">
	<ele>1996.60</ele>
	<time>2023-08-06T12:11:14.000Z</time>
</trkpt>
<trkpt lat="46.0814860" lon="10.4980270">
	<ele>1996.60</ele>
	<time>2023-08-06T12:11:15.000Z</time>
</trkpt>
<trkpt lat="46.0814860" lon="10.4980260">
	<ele>1996.40</ele>
	<time>2023-08-06T12:11:16.000Z</time>
</trkpt>
<trkpt lat="46.0814850" lon="10.4980220">
	<ele>1996.40</ele>
	<time>2023-08-06T12:11:17.000Z</time>
</trkpt>
<trkpt lat="46.0814850" lon="10.4980160">
	<ele>1996.40</ele>
	<time>2023-08-06T12:11:18.000Z</time>
</trkpt>
<trkpt lat="46.0814850" lon="10.4980130">
	<ele>1996.40</ele>
	<time>2023-08-06T12:11:19.000Z</time>
</trkpt>
<trkpt lat="46.0814850" lon="10.4980160">
	<ele>1996.40</ele>
	<time>2023-08-06T12:11:20.000Z</time>
</trkpt>
<trkpt lat="46.0814830" lon="10.4980150">
	<ele>1996.40</ele>
	<time>2023-08-06T12:11:21.000Z</time>
</trkpt>
<trkpt lat="46.0814820" lon="10.4980160">
	<ele>1996.20</ele>
	<time>2023-08-06T12:11:22.000Z</time>
</trkpt>
<trkpt lat="46.0814800" lon="10.4980150">
	<ele>1996.20</ele>
	<time>2023-08-06T12:11:23.000Z</time>
</trkpt>
<trkpt lat="46.0814790" lon="10.4980130">
	<ele>1996.00</ele>
	<time>2023-08-06T12:11:24.000Z</time>
</trkpt>
<trkpt lat="46.0814790" lon="10.4980120">
	<ele>1995.80</ele>
	<time>2023-08-06T12:11:25.000Z</time>
</trkpt>
<trkpt lat="46.0814780" lon="10.4980110">
	<ele>1995.60</ele>
	<time>2023-08-06T12:11:26.000Z</time>
</trkpt>
<trkpt lat="46.0814770" lon="10.4980100">
	<ele>1995.60</ele>
	<time>2023-08-06T12:11:27.000Z</time>
</trkpt>
<trkpt lat="46.0814770" lon="10.4980100">
	<ele>1995.60</ele>
	<time>2023-08-06T12:11:28.000Z</time>
</trkpt>
<trkpt lat="46.0814780" lon="10.4980110">
	<ele>1995.60</ele>
	<time>2023-08-06T12:11:29.000Z</time>
</trkpt>
<trkpt lat="46.0814780" lon="10.4980120">
	<ele>1995.60</ele>
	<time>2023-08-06T12:11:30.000Z</time>
</trkpt>
<trkpt lat="46.0814790" lon="10.4980110">
	<ele>1995.80</ele>
	<time>2023-08-06T12:11:31.000Z</time>
</trkpt>
<trkpt lat="46.0814820" lon="10.4980110">
	<ele>1996.00</ele>
	<time>2023-08-06T12:11:32.000Z</time>
</trkpt>
<trkpt lat="46.0814840" lon="10.4980110">
	<ele>1996.00</ele>
	<time>2023-08-06T12:11:33.000Z</time>
</trkpt>
<trkpt lat="46.0814850" lon="10.4980120">
	<ele>1996.00</ele>
	<time>2023-08-06T12:11:34.000Z</time>
</trkpt>
<trkpt lat="46.0814870" lon="10.4980140">
	<ele>1996.00</ele>
	<time>2023-08-06T12:11:35.000Z</time>
</trkpt>
<trkpt lat="46.0814830" lon="10.4980100">
	<ele>1996.00</ele>
	<time>2023-08-06T12:11:36.000Z</time>
</trkpt>
<trkpt lat="46.0814820" lon="10.4980070">
	<ele>1996.20</ele>
	<time>2023-08-06T12:11:37.000Z</time>
</trkpt>
<trkpt lat="46.0814810" lon="10.4980070">
	<ele>1996.20</ele>
	<time>2023-08-06T12:11:38.000Z</time>
</trkpt>
<trkpt lat="46.0814740" lon="10.4979990">
	<ele>1996.20</ele>
	<time>2023-08-06T12:11:39.000Z</time>
</trkpt>
<trkpt lat="46.0814700" lon="10.4979900">
	<ele>1996.40</ele>
	<time>2023-08-06T12:11:40.000Z</time>
</trkpt>
<trkpt lat="46.0814720" lon="10.4979890">
	<ele>1996.60</ele>
	<time>2023-08-06T12:11:41.000Z</time>
</trkpt>
<trkpt lat="46.0814730" lon="10.4979850">
	<ele>1996.60</ele>
	<time>2023-08-06T12:11:42.000Z</time>
</trkpt>
<trkpt lat="46.0814770" lon="10.4979780">
	<ele>1996.60</ele>
	<time>2023-08-06T12:11:43.000Z</time>
</trkpt>
<trkpt lat="46.0814840" lon="10.4979690">
	<ele>1996.60</ele>
	<time>2023-08-06T12:11:44.000Z</time>
</trkpt>
<trkpt lat="46.0814940" lon="10.4979640">
	<ele>1996.60</ele>
	<time>2023-08-06T12:11:45.000Z</time>
</trkpt>
<trkpt lat="46.0815060" lon="10.4979580">
	<ele>1996.60</ele>
	<time>2023-08-06T12:11:46.000Z</time>
</trkpt>
<trkpt lat="46.0815180" lon="10.4979450">
	<ele>1996.60</ele>
	<time>2023-08-06T12:11:47.000Z</time>
</trkpt>
<trkpt lat="46.0815270" lon="10.4979330">
	<ele>1996.60</ele>
	<time>2023-08-06T12:11:48.000Z</time>
</trkpt>
<trkpt lat="46.0815390" lon="10.4979190">
	<ele>1996.80</ele>
	<time>2023-08-06T12:11:49.000Z</time>
</trkpt>
<trkpt lat="46.0815510" lon="10.4979130">
	<ele>1996.80</ele>
	<time>2023-08-06T12:11:50.000Z</time>
</trkpt>
<trkpt lat="46.0815650" lon="10.4979120">
	<ele>1996.80</ele>
	<time>2023-08-06T12:11:51.000Z</time>
</trkpt>
<trkpt lat="46.0815770" lon="10.4979090">
	<ele>1997.00</ele>
	<time>2023-08-06T12:11:52.000Z</time>
</trkpt>
<trkpt lat="46.0815890" lon="10.4979070">
	<ele>1997.00</ele>
	<time>2023-08-06T12:11:53.000Z</time>
</trkpt>
<trkpt lat="46.0816010" lon="10.4979040">
	<ele>1997.00</ele>
	<time>2023-08-06T12:11:54.000Z</time>
</trkpt>
<trkpt lat="46.0816140" lon="10.4979000">
	<ele>1997.00</ele>
	<time>2023-08-06T12:11:55.000Z</time>
</trkpt>
<trkpt lat="46.0816260" lon="10.4978990">
	<ele>1997.00</ele>
	<time>2023-08-06T12:11:56.000Z</time>
</trkpt>
<trkpt lat="46.0816310" lon="10.4978920">
	<ele>1997.00</ele>
	<time>2023-08-06T12:11:57.000Z</time>
</trkpt>
<trkpt lat="46.0816410" lon="10.4978920">
	<ele>1997.00</ele>
	<time>2023-08-06T12:11:58.000Z</time>
</trkpt>
<trkpt lat="46.0816540" lon="10.4978950">
	<ele>1997.00</ele>
	<time>2023-08-06T12:11:59.000Z</time>
</trkpt>
<trkpt lat="46.0816660" lon="10.4978960">
	<ele>1997.00</ele>
	<time>2023-08-06T12:12:00.000Z</time>
</trkpt>
<trkpt lat="46.0816780" lon="10.4978930">
	<ele>1997.00</ele>
	<time>2023-08-06T12:12:01.000Z</time>
</trkpt>
<trkpt lat="46.0816850" lon="10.4978830">
	<ele>1997.00</ele>
	<time>2023-08-06T12:12:02.000Z</time>
</trkpt>
<trkpt lat="46.0816890" lon="10.4978730">
	<ele>1997.00</ele>
	<time>2023-08-06T12:12:03.000Z</time>
</trkpt>
<trkpt lat="46.0816980" lon="10.4978550">
	<ele>1997.00</ele>
	<time>2023-08-06T12:12:04.000Z</time>
</trkpt>
<trkpt lat="46.0817090" lon="10.4978450">
	<ele>1997.00</ele>
	<time>2023-08-06T12:12:05.000Z</time>
</trkpt>
<trkpt lat="46.0817170" lon="10.4978380">
	<ele>1997.00</ele>
	<time>2023-08-06T12:12:06.000Z</time>
</trkpt>
<trkpt lat="46.0817300" lon="10.4978320">
	<ele>1997.00</ele>
	<time>2023-08-06T12:12:07.000Z</time>
</trkpt>
<trkpt lat="46.0817430" lon="10.4978290">
	<ele>1997.00</ele>
	<time>2023-08-06T12:12:08.000Z</time>
</trkpt>
<trkpt lat="46.0817530" lon="10.4978180">
	<ele>1997.00</ele>
	<time>2023-08-06T12:12:09.000Z</time>
</trkpt>
<trkpt lat="46.0817580" lon="10.4977980">
	<ele>1997.00</ele>
	<time>2023-08-06T12:12:10.000Z</time>
</trkpt>
<trkpt lat="46.0817610" lon="10.4977840">
	<ele>1997.00</ele>
	<time>2023-08-06T12:12:11.000Z</time>
</trkpt>
<trkpt lat="46.0817640" lon="10.4977680">
	<ele>1997.00</ele>
	<time>2023-08-06T12:12:12.000Z</time>
</trkpt>
<trkpt lat="46.0817670" lon="10.4977560">
	<ele>1996.80</ele>
	<time>2023-08-06T12:12:13.000Z</time>
</trkpt>
<trkpt lat="46.0817710" lon="10.4977440">
	<ele>1996.80</ele>
	<time>2023-08-06T12:12:14.000Z</time>
</trkpt>
<trkpt lat="46.0817790" lon="10.4977310">
	<ele>1997.00</ele>
	<time>2023-08-06T12:12:15.000Z</time>
</trkpt>
<trkpt lat="46.0817850" lon="10.4977160">
	<ele>1997.00</ele>
	<time>2023-08-06T12:12:16.000Z</time>
</trkpt>
<trkpt lat="46.0817930" lon="10.4977000">
	<ele>1997.20</ele>
	<time>2023-08-06T12:12:17.000Z</time>
</trkpt>
<trkpt lat="46.0818010" lon="10.4976850">
	<ele>1997.40</ele>
	<time>2023-08-06T12:12:18.000Z</time>
</trkpt>
<trkpt lat="46.0818070" lon="10.4976700">
	<ele>1997.40</ele>
	<time>2023-08-06T12:12:19.000Z</time>
</trkpt>
<trkpt lat="46.0818130" lon="10.4976550">
	<ele>1997.40</ele>
	<time>2023-08-06T12:12:20.000Z</time>
</trkpt>
<trkpt lat="46.0818220" lon="10.4976450">
	<ele>1997.40</ele>
	<time>2023-08-06T12:12:21.000Z</time>
</trkpt>
<trkpt lat="46.0818320" lon="10.4976330">
	<ele>1997.40</ele>
	<time>2023-08-06T12:12:22.000Z</time>
</trkpt>
<trkpt lat="46.0818390" lon="10.4976200">
	<ele>1997.40</ele>
	<time>2023-08-06T12:12:23.000Z</time>
</trkpt>
<trkpt lat="46.0818460" lon="10.4976040">
	<ele>1997.40</ele>
	<time>2023-08-06T12:12:24.000Z</time>
</trkpt>
<trkpt lat="46.0818530" lon="10.4975890">
	<ele>1997.60</ele>
	<time>2023-08-06T12:12:25.000Z</time>
</trkpt>
<trkpt lat="46.0818600" lon="10.4975770">
	<ele>1997.60</ele>
	<time>2023-08-06T12:12:26.000Z</time>
</trkpt>
<trkpt lat="46.0818690" lon="10.4975680">
	<ele>1997.60</ele>
	<time>2023-08-06T12:12:27.000Z</time>
</trkpt>
<trkpt lat="46.0818770" lon="10.4975590">
	<ele>1997.60</ele>
	<time>2023-08-06T12:12:28.000Z</time>
</trkpt>
<trkpt lat="46.0818890" lon="10.4975540">
	<ele>1997.60</ele>
	<time>2023-08-06T12:12:29.000Z</time>
</trkpt>
<trkpt lat="46.0818980" lon="10.4975470">
	<ele>1997.40</ele>
	<time>2023-08-06T12:12:30.000Z</time>
</trkpt>
<trkpt lat="46.0819070" lon="10.4975380">
	<ele>1997.40</ele>
	<time>2023-08-06T12:12:31.000Z</time>
</trkpt>
<trkpt lat="46.0819150" lon="10.4975250">
	<ele>1997.20</ele>
	<time>2023-08-06T12:12:32.000Z</time>
</trkpt>
<trkpt lat="46.0819240" lon="10.4975140">
	<ele>1997.20</ele>
	<time>2023-08-06T12:12:33.000Z</time>
</trkpt>
<trkpt lat="46.0819330" lon="10.4975060">
	<ele>1997.20</ele>
	<time>2023-08-06T12:12:34.000Z</time>
</trkpt>
<trkpt lat="46.0819410" lon="10.4975000">
	<ele>1997.20</ele>
	<time>2023-08-06T12:12:35.000Z</time>
</trkpt>
<trkpt lat="46.0819470" lon="10.4974900">
	<ele>1997.20</ele>
	<time>2023-08-06T12:12:36.000Z</time>
</trkpt>
<trkpt lat="46.0819540" lon="10.4974800">
	<ele>1997.40</ele>
	<time>2023-08-06T12:12:37.000Z</time>
</trkpt>
<trkpt lat="46.0819640" lon="10.4974720">
	<ele>1997.40</ele>
	<time>2023-08-06T12:12:38.000Z</time>
</trkpt>
<trkpt lat="46.0819730" lon="10.4974610">
	<ele>1997.60</ele>
	<time>2023-08-06T12:12:39.000Z</time>
</trkpt>
<trkpt lat="46.0819820" lon="10.4974480">
	<ele>1997.80</ele>
	<time>2023-08-06T12:12:40.000Z</time>
</trkpt>
<trkpt lat="46.0819950" lon="10.4974410">
	<ele>1998.00</ele>
	<time>2023-08-06T12:12:41.000Z</time>
</trkpt>
<trkpt lat="46.0820070" lon="10.4974390">
	<ele>1998.00</ele>
	<time>2023-08-06T12:12:42.000Z</time>
</trkpt>
<trkpt lat="46.0820160" lon="10.4974310">
	<ele>1998.20</ele>
	<time>2023-08-06T12:12:43.000Z</time>
</trkpt>
<trkpt lat="46.0820180" lon="10.4974120">
	<ele>1998.20</ele>
	<time>2023-08-06T12:12:44.000Z</time>
</trkpt>
<trkpt lat="46.0820210" lon="10.4973910">
	<ele>1998.20</ele>
	<time>2023-08-06T12:12:45.000Z</time>
</trkpt>
<trkpt lat="46.0820230" lon="10.4973710">
	<ele>1998.20</ele>
	<time>2023-08-06T12:12:46.000Z</time>
</trkpt>
<trkpt lat="46.0820330" lon="10.4973660">
	<ele>1998.20</ele>
	<time>2023-08-06T12:12:47.000Z</time>
</trkpt>
<trkpt lat="46.0820400" lon="10.4973610">
	<ele>1998.20</ele>
	<time>2023-08-06T12:12:48.000Z</time>
</trkpt>
<trkpt lat="46.0820470" lon="10.4973550">
	<ele>1998.20</ele>
	<time>2023-08-06T12:12:49.000Z</time>
</trkpt>
<trkpt lat="46.0820590" lon="10.4973580">
	<ele>1998.20</ele>
	<time>2023-08-06T12:12:50.000Z</time>
</trkpt>
<trkpt lat="46.0820740" lon="10.4973600">
	<ele>1998.20</ele>
	<time>2023-08-06T12:12:51.000Z</time>
</trkpt>
<trkpt lat="46.0820890" lon="10.4973600">
	<ele>1998.20</ele>
	<time>2023-08-06T12:12:52.000Z</time>
</trkpt>
<trkpt lat="46.0821050" lon="10.4973570">
	<ele>1998.20</ele>
	<time>2023-08-06T12:12:53.000Z</time>
</trkpt>
<trkpt lat="46.0821170" lon="10.4973560">
	<ele>1998.20</ele>
	<time>2023-08-06T12:12:54.000Z</time>
</trkpt>
<trkpt lat="46.0821270" lon="10.4973530">
	<ele>1998.40</ele>
	<time>2023-08-06T12:12:55.000Z</time>
</trkpt>
<trkpt lat="46.0821360" lon="10.4973540">
	<ele>1998.40</ele>
	<time>2023-08-06T12:12:56.000Z</time>
</trkpt>
<trkpt lat="46.0821510" lon="10.4973590">
	<ele>1998.40</ele>
	<time>2023-08-06T12:12:57.000Z</time>
</trkpt>
<trkpt lat="46.0821620" lon="10.4973560">
	<ele>1998.40</ele>
	<time>2023-08-06T12:12:58.000Z</time>
</trkpt>
<trkpt lat="46.0821730" lon="10.4973560">
	<ele>1998.40</ele>
	<time>2023-08-06T12:12:59.000Z</time>
</trkpt>
<trkpt lat="46.0821860" lon="10.4973600">
	<ele>1998.40</ele>
	<time>2023-08-06T12:13:00.000Z</time>
</trkpt>
<trkpt lat="46.0821980" lon="10.4973600">
	<ele>1998.40</ele>
	<time>2023-08-06T12:13:01.000Z</time>
</trkpt>
<trkpt lat="46.0822110" lon="10.4973630">
	<ele>1998.40</ele>
	<time>2023-08-06T12:13:02.000Z</time>
</trkpt>
<trkpt lat="46.0822220" lon="10.4973660">
	<ele>1998.40</ele>
	<time>2023-08-06T12:13:03.000Z</time>
</trkpt>
<trkpt lat="46.0822340" lon="10.4973660">
	<ele>1998.40</ele>
	<time>2023-08-06T12:13:04.000Z</time>
</trkpt>
<trkpt lat="46.0822470" lon="10.4973700">
	<ele>1998.40</ele>
	<time>2023-08-06T12:13:05.000Z</time>
</trkpt>
<trkpt lat="46.0822580" lon="10.4973710">
	<ele>1998.40</ele>
	<time>2023-08-06T12:13:06.000Z</time>
</trkpt>
<trkpt lat="46.0822690" lon="10.4973710">
	<ele>1998.40</ele>
	<time>2023-08-06T12:13:07.000Z</time>
</trkpt>
<trkpt lat="46.0822810" lon="10.4973710">
	<ele>1998.40</ele>
	<time>2023-08-06T12:13:08.000Z</time>
</trkpt>
<trkpt lat="46.0822960" lon="10.4973730">
	<ele>1998.60</ele>
	<time>2023-08-06T12:13:09.000Z</time>
</trkpt>
<trkpt lat="46.0823040" lon="10.4973750">
	<ele>1998.60</ele>
	<time>2023-08-06T12:13:10.000Z</time>
</trkpt>
<trkpt lat="46.0823170" lon="10.4973780">
	<ele>1998.60</ele>
	<time>2023-08-06T12:13:11.000Z</time>
</trkpt>
<trkpt lat="46.0823310" lon="10.4973830">
	<ele>1998.60</ele>
	<time>2023-08-06T12:13:12.000Z</time>
</trkpt>
<trkpt lat="46.0823430" lon="10.4973870">
	<ele>1998.60</ele>
	<time>2023-08-06T12:13:13.000Z</time>
</trkpt>
<trkpt lat="46.0823540" lon="10.4973860">
	<ele>1998.40</ele>
	<time>2023-08-06T12:13:14.000Z</time>
</trkpt>
<trkpt lat="46.0823640" lon="10.4973790">
	<ele>1998.60</ele>
	<time>2023-08-06T12:13:15.000Z</time>
</trkpt>
<trkpt lat="46.0823740" lon="10.4973700">
	<ele>1998.60</ele>
	<time>2023-08-06T12:13:16.000Z</time>
</trkpt>
<trkpt lat="46.0823840" lon="10.4973660">
	<ele>1998.60</ele>
	<time>2023-08-06T12:13:17.000Z</time>
</trkpt>
<trkpt lat="46.0823940" lon="10.4973630">
	<ele>1998.60</ele>
	<time>2023-08-06T12:13:18.000Z</time>
</trkpt>
<trkpt lat="46.0824040" lon="10.4973570">
	<ele>1998.60</ele>
	<time>2023-08-06T12:13:19.000Z</time>
</trkpt>
<trkpt lat="46.0824150" lon="10.4973540">
	<ele>1998.60</ele>
	<time>2023-08-06T12:13:20.000Z</time>
</trkpt>
<trkpt lat="46.0824260" lon="10.4973480">
	<ele>1998.60</ele>
	<time>2023-08-06T12:13:21.000Z</time>
</trkpt>
<trkpt lat="46.0824380" lon="10.4973410">
	<ele>1998.60</ele>
	<time>2023-08-06T12:13:22.000Z</time>
</trkpt>
<trkpt lat="46.0824490" lon="10.4973360">
	<ele>1998.60</ele>
	<time>2023-08-06T12:13:23.000Z</time>
</trkpt>
<trkpt lat="46.0824580" lon="10.4973270">
	<ele>1998.60</ele>
	<time>2023-08-06T12:13:24.000Z</time>
</trkpt>
<trkpt lat="46.0824680" lon="10.4973240">
	<ele>1998.60</ele>
	<time>2023-08-06T12:13:25.000Z</time>
</trkpt>
<trkpt lat="46.0824790" lon="10.4973200">
	<ele>1998.60</ele>
	<time>2023-08-06T12:13:26.000Z</time>
</trkpt>
<trkpt lat="46.0824900" lon="10.4973150">
	<ele>1998.80</ele>
	<time>2023-08-06T12:13:27.000Z</time>
</trkpt>
<trkpt lat="46.0825010" lon="10.4973100">
	<ele>1998.80</ele>
	<time>2023-08-06T12:13:28.000Z</time>
</trkpt>
<trkpt lat="46.0825160" lon="10.4973080">
	<ele>1999.00</ele>
	<time>2023-08-06T12:13:29.000Z</time>
</trkpt>
<trkpt lat="46.0825240" lon="10.4973110">
	<ele>1999.00</ele>
	<time>2023-08-06T12:13:30.000Z</time>
</trkpt>
<trkpt lat="46.0825330" lon="10.4973120">
	<ele>1999.00</ele>
	<time>2023-08-06T12:13:31.000Z</time>
</trkpt>
<trkpt lat="46.0825430" lon="10.4973090">
	<ele>1999.00</ele>
	<time>2023-08-06T12:13:32.000Z</time>
</trkpt>
<trkpt lat="46.0825520" lon="10.4973040">
	<ele>1999.00</ele>
	<time>2023-08-06T12:13:33.000Z</time>
</trkpt>
<trkpt lat="46.0825640" lon="10.4972930">
	<ele>1999.20</ele>
	<time>2023-08-06T12:13:34.000Z</time>
</trkpt>
<trkpt lat="46.0825720" lon="10.4972840">
	<ele>1999.20</ele>
	<time>2023-08-06T12:13:35.000Z</time>
</trkpt>
<trkpt lat="46.0825770" lon="10.4972800">
	<ele>1999.40</ele>
	<time>2023-08-06T12:13:36.000Z</time>
</trkpt>
<trkpt lat="46.0825860" lon="10.4972730">
	<ele>1999.40</ele>
	<time>2023-08-06T12:13:37.000Z</time>
</trkpt>
<trkpt lat="46.0825950" lon="10.4972650">
	<ele>1999.40</ele>
	<time>2023-08-06T12:13:38.000Z</time>
</trkpt>
<trkpt lat="46.0826040" lon="10.4972520">
	<ele>1999.60</ele>
	<time>2023-08-06T12:13:39.000Z</time>
</trkpt>
<trkpt lat="46.0826150" lon="10.4972440">
	<ele>1999.60</ele>
	<time>2023-08-06T12:13:40.000Z</time>
</trkpt>
<trkpt lat="46.0826250" lon="10.4972350">
	<ele>1999.60</ele>
	<time>2023-08-06T12:13:41.000Z</time>
</trkpt>
<trkpt lat="46.0826330" lon="10.4972230">
	<ele>1999.60</ele>
	<time>2023-08-06T12:13:42.000Z</time>
</trkpt>
<trkpt lat="46.0826400" lon="10.4972100">
	<ele>1999.60</ele>
	<time>2023-08-06T12:13:43.000Z</time>
</trkpt>
<trkpt lat="46.0826510" lon="10.4972020">
	<ele>1999.60</ele>
	<time>2023-08-06T12:13:44.000Z</time>
</trkpt>
<trkpt lat="46.0826570" lon="10.4971980">
	<ele>1999.40</ele>
	<time>2023-08-06T12:13:45.000Z</time>
</trkpt>
<trkpt lat="46.0826620" lon="10.4971900">
	<ele>1999.60</ele>
	<time>2023-08-06T12:13:46.000Z</time>
</trkpt>
<trkpt lat="46.0826650" lon="10.4971810">
	<ele>1999.60</ele>
	<time>2023-08-06T12:13:47.000Z</time>
</trkpt>
<trkpt lat="46.0826730" lon="10.4971740">
	<ele>1999.60</ele>
	<time>2023-08-06T12:13:48.000Z</time>
</trkpt>
<trkpt lat="46.0826800" lon="10.4971670">
	<ele>1999.60</ele>
	<time>2023-08-06T12:13:49.000Z</time>
</trkpt>
<trkpt lat="46.0826900" lon="10.4971600">
	<ele>1999.60</ele>
	<time>2023-08-06T12:13:50.000Z</time>
</trkpt>
<trkpt lat="46.0827000" lon="10.4971600">
	<ele>1999.60</ele>
	<time>2023-08-06T12:13:51.000Z</time>
</trkpt>
<trkpt lat="46.0827100" lon="10.4971580">
	<ele>1999.80</ele>
	<time>2023-08-06T12:13:52.000Z</time>
</trkpt>
<trkpt lat="46.0827180" lon="10.4971570">
	<ele>1999.80</ele>
	<time>2023-08-06T12:13:53.000Z</time>
</trkpt>
<trkpt lat="46.0827260" lon="10.4971570">
	<ele>2000.00</ele>
	<time>2023-08-06T12:13:54.000Z</time>
</trkpt>
<trkpt lat="46.0827320" lon="10.4971550">
	<ele>2000.20</ele>
	<time>2023-08-06T12:13:55.000Z</time>
</trkpt>
<trkpt lat="46.0827340" lon="10.4971540">
	<ele>2000.60</ele>
	<time>2023-08-06T12:13:56.000Z</time>
</trkpt>
<trkpt lat="46.0827370" lon="10.4971540">
	<ele>2000.80</ele>
	<time>2023-08-06T12:13:57.000Z</time>
</trkpt>
<trkpt lat="46.0827430" lon="10.4971550">
	<ele>2001.00</ele>
	<time>2023-08-06T12:13:58.000Z</time>
</trkpt>
<trkpt lat="46.0827480" lon="10.4971470">
	<ele>2001.20</ele>
	<time>2023-08-06T12:13:59.000Z</time>
</trkpt>
<trkpt lat="46.0827500" lon="10.4971420">
	<ele>2001.20</ele>
	<time>2023-08-06T12:14:00.000Z</time>
</trkpt>
<trkpt lat="46.0827570" lon="10.4971370">
	<ele>2001.20</ele>
	<time>2023-08-06T12:14:01.000Z</time>
</trkpt>
<trkpt lat="46.0827640" lon="10.4971310">
	<ele>2001.40</ele>
	<time>2023-08-06T12:14:02.000Z</time>
</trkpt>
<trkpt lat="46.0827680" lon="10.4971270">
	<ele>2001.40</ele>
	<time>2023-08-06T12:14:03.000Z</time>
</trkpt>
<trkpt lat="46.0827700" lon="10.4971230">
	<ele>2001.40</ele>
	<time>2023-08-06T12:14:04.000Z</time>
</trkpt>
<trkpt lat="46.0827730" lon="10.4971160">
	<ele>2001.60</ele>
	<time>2023-08-06T12:14:05.000Z</time>
</trkpt>
<trkpt lat="46.0827730" lon="10.4971060">
	<ele>2002.00</ele>
	<time>2023-08-06T12:14:06.000Z</time>
</trkpt>
<trkpt lat="46.0827770" lon="10.4970990">
	<ele>2002.20</ele>
	<time>2023-08-06T12:14:07.000Z</time>
</trkpt>
<trkpt lat="46.0827840" lon="10.4970950">
	<ele>2002.80</ele>
	<time>2023-08-06T12:14:08.000Z</time>
</trkpt>
<trkpt lat="46.0827910" lon="10.4970890">
	<ele>2003.20</ele>
	<time>2023-08-06T12:14:09.000Z</time>
</trkpt>
<trkpt lat="46.0827990" lon="10.4970870">
	<ele>2003.40</ele>
	<time>2023-08-06T12:14:10.000Z</time>
</trkpt>
<trkpt lat="46.0828010" lon="10.4970800">
	<ele>2003.40</ele>
	<time>2023-08-06T12:14:11.000Z</time>
</trkpt>
<trkpt lat="46.0828040" lon="10.4970700">
	<ele>2003.60</ele>
	<time>2023-08-06T12:14:12.000Z</time>
</trkpt>
<trkpt lat="46.0828100" lon="10.4970610">
	<ele>2003.80</ele>
	<time>2023-08-06T12:14:13.000Z</time>
</trkpt>
<trkpt lat="46.0828140" lon="10.4970530">
	<ele>2004.00</ele>
	<time>2023-08-06T12:14:14.000Z</time>
</trkpt>
<trkpt lat="46.0828170" lon="10.4970470">
	<ele>2004.00</ele>
	<time>2023-08-06T12:14:15.000Z</time>
</trkpt>
<trkpt lat="46.0828190" lon="10.4970390">
	<ele>2004.20</ele>
	<time>2023-08-06T12:14:16.000Z</time>
</trkpt>
<trkpt lat="46.0828240" lon="10.4970300">
	<ele>2004.40</ele>
	<time>2023-08-06T12:14:17.000Z</time>
</trkpt>
<trkpt lat="46.0828270" lon="10.4970230">
	<ele>2004.40</ele>
	<time>2023-08-06T12:14:18.000Z</time>
</trkpt>
<trkpt lat="46.0828350" lon="10.4970160">
	<ele>2004.60</ele>
	<time>2023-08-06T12:14:19.000Z</time>
</trkpt>
<trkpt lat="46.0828440" lon="10.4970040">
	<ele>2004.60</ele>
	<time>2023-08-06T12:14:20.000Z</time>
</trkpt>
<trkpt lat="46.0828490" lon="10.4970010">
	<ele>2004.60</ele>
	<time>2023-08-06T12:14:21.000Z</time>
</trkpt>
<trkpt lat="46.0828510" lon="10.4969960">
	<ele>2004.80</ele>
	<time>2023-08-06T12:14:22.000Z</time>
</trkpt>
<trkpt lat="46.0828540" lon="10.4969960">
	<ele>2005.00</ele>
	<time>2023-08-06T12:14:23.000Z</time>
</trkpt>
<trkpt lat="46.0828570" lon="10.4969920">
	<ele>2005.20</ele>
	<time>2023-08-06T12:14:24.000Z</time>
</trkpt>
<trkpt lat="46.0828610" lon="10.4969890">
	<ele>2005.40</ele>
	<time>2023-08-06T12:14:25.000Z</time>
</trkpt>
<trkpt lat="46.0828620" lon="10.4969840">
	<ele>2005.60</ele>
	<time>2023-08-06T12:14:26.000Z</time>
</trkpt>
<trkpt lat="46.0828630" lon="10.4969800">
	<ele>2005.80</ele>
	<time>2023-08-06T12:14:27.000Z</time>
</trkpt>
<trkpt lat="46.0828690" lon="10.4969750">
	<ele>2005.80</ele>
	<time>2023-08-06T12:14:28.000Z</time>
</trkpt>
<trkpt lat="46.0828750" lon="10.4969710">
	<ele>2006.00</ele>
	<time>2023-08-06T12:14:29.000Z</time>
</trkpt>
<trkpt lat="46.0828810" lon="10.4969570">
	<ele>2006.20</ele>
	<time>2023-08-06T12:14:30.000Z</time>
</trkpt>
<trkpt lat="46.0828850" lon="10.4969430">
	<ele>2006.20</ele>
	<time>2023-08-06T12:14:31.000Z</time>
</trkpt>
<trkpt lat="46.0828900" lon="10.4969390">
	<ele>2006.60</ele>
	<time>2023-08-06T12:14:32.000Z</time>
</trkpt>
<trkpt lat="46.0828940" lon="10.4969390">
	<ele>2007.00</ele>
	<time>2023-08-06T12:14:33.000Z</time>
</trkpt>
<trkpt lat="46.0828990" lon="10.4969410">
	<ele>2007.00</ele>
	<time>2023-08-06T12:14:34.000Z</time>
</trkpt>
<trkpt lat="46.0829050" lon="10.4969390">
	<ele>2007.20</ele>
	<time>2023-08-06T12:14:35.000Z</time>
</trkpt>
<trkpt lat="46.0829100" lon="10.4969390">
	<ele>2007.40</ele>
	<time>2023-08-06T12:14:36.000Z</time>
</trkpt>
<trkpt lat="46.0829140" lon="10.4969400">
	<ele>2007.40</ele>
	<time>2023-08-06T12:14:37.000Z</time>
</trkpt>
<trkpt lat="46.0829200" lon="10.4969410">
	<ele>2007.40</ele>
	<time>2023-08-06T12:14:38.000Z</time>
</trkpt>
<trkpt lat="46.0829250" lon="10.4969410">
	<ele>2007.60</ele>
	<time>2023-08-06T12:14:39.000Z</time>
</trkpt>
<trkpt lat="46.0829340" lon="10.4969360">
	<ele>2007.60</ele>
	<time>2023-08-06T12:14:40.000Z</time>
</trkpt>
<trkpt lat="46.0829380" lon="10.4969330">
	<ele>2007.80</ele>
	<time>2023-08-06T12:14:41.000Z</time>
</trkpt>
<trkpt lat="46.0829420" lon="10.4969260">
	<ele>2008.00</ele>
	<time>2023-08-06T12:14:42.000Z</time>
</trkpt>
<trkpt lat="46.0829430" lon="10.4969110">
	<ele>2008.00</ele>
	<time>2023-08-06T12:14:43.000Z</time>
</trkpt>
<trkpt lat="46.0829500" lon="10.4969080">
	<ele>2008.20</ele>
	<time>2023-08-06T12:14:44.000Z</time>
</trkpt>
<trkpt lat="46.0829530" lon="10.4968950">
	<ele>2008.40</ele>
	<time>2023-08-06T12:14:45.000Z</time>
</trkpt>
<trkpt lat="46.0829640" lon="10.4968950">
	<ele>2008.40</ele>
	<time>2023-08-06T12:14:46.000Z</time>
</trkpt>
<trkpt lat="46.0829710" lon="10.4968900">
	<ele>2008.60</ele>
	<time>2023-08-06T12:14:47.000Z</time>
</trkpt>
<trkpt lat="46.0829760" lon="10.4968860">
	<ele>2008.60</ele>
	<time>2023-08-06T12:14:48.000Z</time>
</trkpt>
<trkpt lat="46.0829830" lon="10.4968830">
	<ele>2008.60</ele>
	<time>2023-08-06T12:14:49.000Z</time>
</trkpt>
<trkpt lat="46.0829920" lon="10.4968790">
	<ele>2008.60</ele>
	<time>2023-08-06T12:14:50.000Z</time>
</trkpt>
<trkpt lat="46.0830030" lon="10.4968720">
	<ele>2008.60</ele>
	<time>2023-08-06T12:14:51.000Z</time>
</trkpt>
<trkpt lat="46.0830110" lon="10.4968660">
	<ele>2008.60</ele>
	<time>2023-08-06T12:14:52.000Z</time>
</trkpt>
<trkpt lat="46.0830170" lon="10.4968560">
	<ele>2008.60</ele>
	<time>2023-08-06T12:14:53.000Z</time>
</trkpt>
<trkpt lat="46.0830240" lon="10.4968470">
	<ele>2008.60</ele>
	<time>2023-08-06T12:14:54.000Z</time>
</trkpt>
<trkpt lat="46.0830310" lon="10.4968380">
	<ele>2008.60</ele>
	<time>2023-08-06T12:14:55.000Z</time>
</trkpt>
<trkpt lat="46.0830370" lon="10.4968300">
	<ele>2008.60</ele>
	<time>2023-08-06T12:14:56.000Z</time>
</trkpt>
<trkpt lat="46.0830440" lon="10.4968180">
	<ele>2008.80</ele>
	<time>2023-08-06T12:14:57.000Z</time>
</trkpt>
<trkpt lat="46.0830550" lon="10.4968060">
	<ele>2008.80</ele>
	<time>2023-08-06T12:14:58.000Z</time>
</trkpt>
<trkpt lat="46.0830660" lon="10.4967960">
	<ele>2008.80</ele>
	<time>2023-08-06T12:14:59.000Z</time>
</trkpt>
<trkpt lat="46.0830740" lon="10.4967890">
	<ele>2009.20</ele>
	<time>2023-08-06T12:15:00.000Z</time>
</trkpt>
<trkpt lat="46.0830800" lon="10.4967810">
	<ele>2009.20</ele>
	<time>2023-08-06T12:15:01.000Z</time>
</trkpt>
<trkpt lat="46.0830850" lon="10.4967690">
	<ele>2009.40</ele>
	<time>2023-08-06T12:15:02.000Z</time>
</trkpt>
<trkpt lat="46.0830910" lon="10.4967560">
	<ele>2009.60</ele>
	<time>2023-08-06T12:15:03.000Z</time>
</trkpt>
<trkpt lat="46.0830960" lon="10.4967430">
	<ele>2009.60</ele>
	<time>2023-08-06T12:15:04.000Z</time>
</trkpt>
<trkpt lat="46.0831020" lon="10.4967340">
	<ele>2009.60</ele>
	<time>2023-08-06T12:15:05.000Z</time>
</trkpt>
<trkpt lat="46.0831120" lon="10.4967300">
	<ele>2009.40</ele>
	<time>2023-08-06T12:15:06.000Z</time>
</trkpt>
<trkpt lat="46.0831230" lon="10.4967280">
	<ele>2009.40</ele>
	<time>2023-08-06T12:15:07.000Z</time>
</trkpt>
<trkpt lat="46.0831310" lon="10.4967240">
	<ele>2009.60</ele>
	<time>2023-08-06T12:15:08.000Z</time>
</trkpt>
<trkpt lat="46.0831370" lon="10.4967170">
	<ele>2009.60</ele>
	<time>2023-08-06T12:15:09.000Z</time>
</trkpt>
<trkpt lat="46.0831420" lon="10.4967150">
	<ele>2009.60</ele>
	<time>2023-08-06T12:15:10.000Z</time>
</trkpt>
<trkpt lat="46.0831430" lon="10.4967120">
	<ele>2009.60</ele>
	<time>2023-08-06T12:15:11.000Z</time>
</trkpt>
<trkpt lat="46.0831430" lon="10.4967100">
	<ele>2009.80</ele>
	<time>2023-08-06T12:15:12.000Z</time>
</trkpt>
<trkpt lat="46.0831450" lon="10.4967090">
	<ele>2010.00</ele>
	<time>2023-08-06T12:15:13.000Z</time>
</trkpt>
<trkpt lat="46.0831470" lon="10.4967100">
	<ele>2010.20</ele>
	<time>2023-08-06T12:15:14.000Z</time>
</trkpt>
<trkpt lat="46.0831480" lon="10.4967100">
	<ele>2010.40</ele>
	<time>2023-08-06T12:15:15.000Z</time>
</trkpt>
<trkpt lat="46.0831510" lon="10.4967100">
	<ele>2010.40</ele>
	<time>2023-08-06T12:15:16.000Z</time>
</trkpt>
<trkpt lat="46.0831530" lon="10.4967110">
	<ele>2010.60</ele>
	<time>2023-08-06T12:15:17.000Z</time>
</trkpt>
<trkpt lat="46.0831550" lon="10.4967130">
	<ele>2010.80</ele>
	<time>2023-08-06T12:15:18.000Z</time>
</trkpt>
<trkpt lat="46.0831560" lon="10.4967140">
	<ele>2011.00</ele>
	<time>2023-08-06T12:15:19.000Z</time>
</trkpt>
<trkpt lat="46.0831580" lon="10.4967150">
	<ele>2011.20</ele>
	<time>2023-08-06T12:15:20.000Z</time>
</trkpt>
<trkpt lat="46.0831590" lon="10.4967190">
	<ele>2011.20</ele>
	<time>2023-08-06T12:15:21.000Z</time>
</trkpt>
<trkpt lat="46.0831610" lon="10.4967210">
	<ele>2011.20</ele>
	<time>2023-08-06T12:15:22.000Z</time>
</trkpt>
<trkpt lat="46.0831610" lon="10.4967230">
	<ele>2011.20</ele>
	<time>2023-08-06T12:15:23.000Z</time>
</trkpt>
<trkpt lat="46.0831600" lon="10.4967230">
	<ele>2011.20</ele>
	<time>2023-08-06T12:15:24.000Z</time>
</trkpt>
<trkpt lat="46.0831600" lon="10.4967230">
	<ele>2011.20</ele>
	<time>2023-08-06T12:15:25.000Z</time>
</trkpt>
<trkpt lat="46.0831600" lon="10.4967230">
	<ele>2011.20</ele>
	<time>2023-08-06T12:15:26.000Z</time>
</trkpt>
<trkpt lat="46.0831600" lon="10.4967230">
	<ele>2011.00</ele>
	<time>2023-08-06T12:15:27.000Z</time>
</trkpt>
<trkpt lat="46.0831600" lon="10.4967230">
	<ele>2010.80</ele>
	<time>2023-08-06T12:15:28.000Z</time>
</trkpt>
<trkpt lat="46.0831600" lon="10.4967230">
	<ele>2010.60</ele>
	<time>2023-08-06T12:15:29.000Z</time>
</trkpt>
<trkpt lat="46.0831600" lon="10.4967230">
	<ele>2010.60</ele>
	<time>2023-08-06T12:15:30.000Z</time>
</trkpt>
<trkpt lat="46.0831600" lon="10.4967230">
	<ele>2010.60</ele>
	<time>2023-08-06T12:15:31.000Z</time>
</trkpt>
<trkpt lat="46.0831600" lon="10.4967230">
	<ele>2010.60</ele>
	<time>2023-08-06T12:15:32.000Z</time>
</trkpt>
<trkpt lat="46.0831600" lon="10.4967230">
	<ele>2010.60</ele>
	<time>2023-08-06T12:15:33.000Z</time>
</trkpt>
<trkpt lat="46.0831600" lon="10.4967230">
	<ele>2010.60</ele>
	<time>2023-08-06T12:15:34.000Z</time>
</trkpt>
<trkpt lat="46.0831600" lon="10.4967230">
	<ele>2010.40</ele>
	<time>2023-08-06T12:15:35.000Z</time>
</trkpt>
<trkpt lat="46.0831600" lon="10.4967230">
	<ele>2010.40</ele>
	<time>2023-08-06T12:15:36.000Z</time>
</trkpt>
<trkpt lat="46.0831600" lon="10.4967230">
	<ele>2010.40</ele>
	<time>2023-08-06T12:15:37.000Z</time>
</trkpt>
<trkpt lat="46.0831600" lon="10.4967230">
	<ele>2010.40</ele>
	<time>2023-08-06T12:15:38.000Z</time>
</trkpt>
<trkpt lat="46.0831610" lon="10.4967230">
	<ele>2010.40</ele>
	<time>2023-08-06T12:15:39.000Z</time>
</trkpt>
<trkpt lat="46.0831610" lon="10.4967260">
	<ele>2010.40</ele>
	<time>2023-08-06T12:15:40.000Z</time>
</trkpt>
<trkpt lat="46.0831610" lon="10.4967310">
	<ele>2010.60</ele>
	<time>2023-08-06T12:15:41.000Z</time>
</trkpt>
<trkpt lat="46.0831610" lon="10.4967310">
	<ele>2010.60</ele>
	<time>2023-08-06T12:15:42.000Z</time>
</trkpt>
<trkpt lat="46.0831610" lon="10.4967310">
	<ele>2010.60</ele>
	<time>2023-08-06T12:15:43.000Z</time>
</trkpt>
<trkpt lat="46.0831610" lon="10.4967310">
	<ele>2010.80</ele>
	<time>2023-08-06T12:15:44.000Z</time>
</trkpt>
<trkpt lat="46.0831610" lon="10.4967310">
	<ele>2011.00</ele>
	<time>2023-08-06T12:15:45.000Z</time>
</trkpt>
<trkpt lat="46.0831610" lon="10.4967310">
	<ele>2011.40</ele>
	<time>2023-08-06T12:15:46.000Z</time>
</trkpt>
<trkpt lat="46.0831610" lon="10.4967310">
	<ele>2011.80</ele>
	<time>2023-08-06T12:15:47.000Z</time>
</trkpt>
<trkpt lat="46.0831610" lon="10.4967310">
	<ele>2012.00</ele>
	<time>2023-08-06T12:15:48.000Z</time>
</trkpt>
<trkpt lat="46.0831610" lon="10.4967310">
	<ele>2012.00</ele>
	<time>2023-08-06T12:15:49.000Z</time>
</trkpt>
<trkpt lat="46.0831610" lon="10.4967310">
	<ele>2012.00</ele>
	<time>2023-08-06T12:15:50.000Z</time>
</trkpt>
<trkpt lat="46.0831610" lon="10.4967310">
	<ele>2011.60</ele>
	<time>2023-08-06T12:15:51.000Z</time>
</trkpt>
<trkpt lat="46.0831600" lon="10.4967310">
	<ele>2011.20</ele>
	<time>2023-08-06T12:15:52.000Z</time>
</trkpt>
<trkpt lat="46.0831600" lon="10.4967310">
	<ele>2010.80</ele>
	<time>2023-08-06T12:15:53.000Z</time>
</trkpt>
<trkpt lat="46.0831590" lon="10.4967310">
	<ele>2010.60</ele>
	<time>2023-08-06T12:15:54.000Z</time>
</trkpt>
<trkpt lat="46.0831590" lon="10.4967310">
	<ele>2010.40</ele>
	<time>2023-08-06T12:15:55.000Z</time>
</trkpt>
<trkpt lat="46.0831580" lon="10.4967280">
	<ele>2010.40</ele>
	<time>2023-08-06T12:15:56.000Z</time>
</trkpt>
<trkpt lat="46.0831580" lon="10.4967260">
	<ele>2010.40</ele>
	<time>2023-08-06T12:15:57.000Z</time>
</trkpt>
<trkpt lat="46.0831570" lon="10.4967250">
	<ele>2010.20</ele>
	<time>2023-08-06T12:15:58.000Z</time>
</trkpt>
<trkpt lat="46.0831570" lon="10.4967240">
	<ele>2010.20</ele>
	<time>2023-08-06T12:15:59.000Z</time>
</trkpt>
<trkpt lat="46.0831570" lon="10.4967240">
	<ele>2010.20</ele>
	<time>2023-08-06T12:16:00.000Z</time>
</trkpt>
<trkpt lat="46.0831570" lon="10.4967240">
	<ele>2010.20</ele>
	<time>2023-08-06T12:16:01.000Z</time>
</trkpt>
<trkpt lat="46.0831570" lon="10.4967240">
	<ele>2010.40</ele>
	<time>2023-08-06T12:16:02.000Z</time>
</trkpt>
<trkpt lat="46.0831570" lon="10.4967240">
	<ele>2010.60</ele>
	<time>2023-08-06T12:16:03.000Z</time>
</trkpt>
<trkpt lat="46.0831570" lon="10.4967240">
	<ele>2010.60</ele>
	<time>2023-08-06T12:16:04.000Z</time>
</trkpt>
<trkpt lat="46.0831570" lon="10.4967240">
	<ele>2010.80</ele>
	<time>2023-08-06T12:16:05.000Z</time>
</trkpt>
<trkpt lat="46.0831570" lon="10.4967240">
	<ele>2010.80</ele>
	<time>2023-08-06T12:16:06.000Z</time>
</trkpt>
<trkpt lat="46.0831570" lon="10.4967240">
	<ele>2010.80</ele>
	<time>2023-08-06T12:16:07.000Z</time>
</trkpt>
<trkpt lat="46.0831570" lon="10.4967240">
	<ele>2011.00</ele>
	<time>2023-08-06T12:16:08.000Z</time>
</trkpt>
<trkpt lat="46.0831570" lon="10.4967240">
	<ele>2011.20</ele>
	<time>2023-08-06T12:16:09.000Z</time>
</trkpt>
<trkpt lat="46.0831570" lon="10.4967240">
	<ele>2011.00</ele>
	<time>2023-08-06T12:16:10.000Z</time>
</trkpt>
<trkpt lat="46.0831570" lon="10.4967240">
	<ele>2011.00</ele>
	<time>2023-08-06T12:16:11.000Z</time>
</trkpt>
<trkpt lat="46.0831570" lon="10.4967240">
	<ele>2011.00</ele>
	<time>2023-08-06T12:16:12.000Z</time>
</trkpt>
<trkpt lat="46.0831570" lon="10.4967240">
	<ele>2010.80</ele>
	<time>2023-08-06T12:16:13.000Z</time>
</trkpt>
<trkpt lat="46.0831580" lon="10.4967260">
	<ele>2011.00</ele>
	<time>2023-08-06T12:16:14.000Z</time>
</trkpt>
<trkpt lat="46.0831580" lon="10.4967280">
	<ele>2011.00</ele>
	<time>2023-08-06T12:16:15.000Z</time>
</trkpt>
<trkpt lat="46.0831610" lon="10.4967300">
	<ele>2011.00</ele>
	<time>2023-08-06T12:16:16.000Z</time>
</trkpt>
<trkpt lat="46.0831640" lon="10.4967330">
	<ele>2011.40</ele>
	<time>2023-08-06T12:16:17.000Z</time>
</trkpt>
<trkpt lat="46.0831660" lon="10.4967350">
	<ele>2011.80</ele>
	<time>2023-08-06T12:16:18.000Z</time>
</trkpt>
<trkpt lat="46.0831660" lon="10.4967370">
	<ele>2012.00</ele>
	<time>2023-08-06T12:16:19.000Z</time>
</trkpt>
<trkpt lat="46.0831680" lon="10.4967400">
	<ele>2012.20</ele>
	<time>2023-08-06T12:16:20.000Z</time>
</trkpt>
<trkpt lat="46.0831690" lon="10.4967410">
	<ele>2012.40</ele>
	<time>2023-08-06T12:16:21.000Z</time>
</trkpt>
<trkpt lat="46.0831690" lon="10.4967420">
	<ele>2012.40</ele>
	<time>2023-08-06T12:16:22.000Z</time>
</trkpt>
<trkpt lat="46.0831690" lon="10.4967420">
	<ele>2012.20</ele>
	<time>2023-08-06T12:16:23.000Z</time>
</trkpt>
<trkpt lat="46.0831690" lon="10.4967450">
	<ele>2011.80</ele>
	<time>2023-08-06T12:16:24.000Z</time>
</trkpt>
<trkpt lat="46.0831700" lon="10.4967490">
	<ele>2011.40</ele>
	<time>2023-08-06T12:16:25.000Z</time>
</trkpt>
<trkpt lat="46.0831700" lon="10.4967510">
	<ele>2011.20</ele>
	<time>2023-08-06T12:16:26.000Z</time>
</trkpt>
<trkpt lat="46.0831700" lon="10.4967520">
	<ele>2011.00</ele>
	<time>2023-08-06T12:16:27.000Z</time>
</trkpt>
<trkpt lat="46.0831700" lon="10.4967520">
	<ele>2011.00</ele>
	<time>2023-08-06T12:16:28.000Z</time>
</trkpt>
<trkpt lat="46.0831710" lon="10.4967550">
	<ele>2011.00</ele>
	<time>2023-08-06T12:16:29.000Z</time>
</trkpt>
<trkpt lat="46.0831710" lon="10.4967590">
	<ele>2011.00</ele>
	<time>2023-08-06T12:16:30.000Z</time>
</trkpt>
<trkpt lat="46.0831710" lon="10.4967600">
	<ele>2011.00</ele>
	<time>2023-08-06T12:16:31.000Z</time>
</trkpt>
<trkpt lat="46.0831710" lon="10.4967620">
	<ele>2011.00</ele>
	<time>2023-08-06T12:16:32.000Z</time>
</trkpt>
<trkpt lat="46.0831720" lon="10.4967620">
	<ele>2011.00</ele>
	<time>2023-08-06T12:16:33.000Z</time>
</trkpt>
<trkpt lat="46.0831720" lon="10.4967630">
	<ele>2011.00</ele>
	<time>2023-08-06T12:16:34.000Z</time>
</trkpt>
<trkpt lat="46.0831720" lon="10.4967630">
	<ele>2011.00</ele>
	<time>2023-08-06T12:16:35.000Z</time>
</trkpt>
<trkpt lat="46.0831730" lon="10.4967630">
	<ele>2011.00</ele>
	<time>2023-08-06T12:16:36.000Z</time>
</trkpt>
<trkpt lat="46.0831730" lon="10.4967630">
	<ele>2011.00</ele>
	<time>2023-08-06T12:16:37.000Z</time>
</trkpt>
<trkpt lat="46.0831740" lon="10.4967630">
	<ele>2011.40</ele>
	<time>2023-08-06T12:16:38.000Z</time>
</trkpt>
<trkpt lat="46.0831740" lon="10.4967630">
	<ele>2011.60</ele>
	<time>2023-08-06T12:16:39.000Z</time>
</trkpt>
<trkpt lat="46.0831760" lon="10.4967610">
	<ele>2011.80</ele>
	<time>2023-08-06T12:16:40.000Z</time>
</trkpt>
<trkpt lat="46.0831790" lon="10.4967550">
	<ele>2011.80</ele>
	<time>2023-08-06T12:16:41.000Z</time>
</trkpt>
<trkpt lat="46.0831800" lon="10.4967520">
	<ele>2011.80</ele>
	<time>2023-08-06T12:16:42.000Z</time>
</trkpt>
<trkpt lat="46.0831810" lon="10.4967490">
	<ele>2011.80</ele>
	<time>2023-08-06T12:16:43.000Z</time>
</trkpt>
<trkpt lat="46.0831820" lon="10.4967440">
	<ele>2011.80</ele>
	<time>2023-08-06T12:16:44.000Z</time>
</trkpt>
<trkpt lat="46.0831830" lon="10.4967400">
	<ele>2011.80</ele>
	<time>2023-08-06T12:16:45.000Z</time>
</trkpt>
<trkpt lat="46.0831850" lon="10.4967370">
	<ele>2011.60</ele>
	<time>2023-08-06T12:16:46.000Z</time>
</trkpt>
<trkpt lat="46.0831870" lon="10.4967330">
	<ele>2011.60</ele>
	<time>2023-08-06T12:16:47.000Z</time>
</trkpt>
<trkpt lat="46.0831880" lon="10.4967300">
	<ele>2011.60</ele>
	<time>2023-08-06T12:16:48.000Z</time>
</trkpt>
<trkpt lat="46.0831880" lon="10.4967300">
	<ele>2011.60</ele>
	<time>2023-08-06T12:16:49.000Z</time>
</trkpt>
<trkpt lat="46.0831880" lon="10.4967300">
	<ele>2011.60</ele>
	<time>2023-08-06T12:16:50.000Z</time>
</trkpt>
<trkpt lat="46.0831880" lon="10.4967300">
	<ele>2011.60</ele>
	<time>2023-08-06T12:16:51.000Z</time>
</trkpt>
<trkpt lat="46.0831880" lon="10.4967300">
	<ele>2011.60</ele>
	<time>2023-08-06T12:16:52.000Z</time>
</trkpt>
<trkpt lat="46.0831880" lon="10.4967300">
	<ele>2011.60</ele>
	<time>2023-08-06T12:16:53.000Z</time>
</trkpt>
<trkpt lat="46.0831880" lon="10.4967300">
	<ele>2011.60</ele>
	<time>2023-08-06T12:16:54.000Z</time>
</trkpt>
<trkpt lat="46.0831880" lon="10.4967300">
	<ele>2011.60</ele>
	<time>2023-08-06T12:16:55.000Z</time>
</trkpt>
<trkpt lat="46.0831880" lon="10.4967300">
	<ele>2011.80</ele>
	<time>2023-08-06T12:16:56.000Z</time>
</trkpt>
<trkpt lat="46.0831880" lon="10.4967300">
	<ele>2011.80</ele>
	<time>2023-08-06T12:16:57.000Z</time>
</trkpt>
<trkpt lat="46.0831880" lon="10.4967300">
	<ele>2012.20</ele>
	<time>2023-08-06T12:16:58.000Z</time>
</trkpt>
<trkpt lat="46.0831880" lon="10.4967300">
	<ele>2012.40</ele>
	<time>2023-08-06T12:16:59.000Z</time>
</trkpt>
<trkpt lat="46.0831880" lon="10.4967300">
	<ele>2012.60</ele>
	<time>2023-08-06T12:17:00.000Z</time>
</trkpt>
<trkpt lat="46.0831880" lon="10.4967290">
	<ele>2012.60</ele>
	<time>2023-08-06T12:17:01.000Z</time>
</trkpt>
<trkpt lat="46.0831880" lon="10.4967290">
	<ele>2012.80</ele>
	<time>2023-08-06T12:17:02.000Z</time>
</trkpt>
<trkpt lat="46.0831880" lon="10.4967280">
	<ele>2012.60</ele>
	<time>2023-08-06T12:17:03.000Z</time>
</trkpt>
<trkpt lat="46.0831880" lon="10.4967280">
	<ele>2012.40</ele>
	<time>2023-08-06T12:17:04.000Z</time>
</trkpt>
<trkpt lat="46.0831880" lon="10.4967280">
	<ele>2011.80</ele>
	<time>2023-08-06T12:17:05.000Z</time>
</trkpt>
<trkpt lat="46.0831880" lon="10.4967280">
	<ele>2011.40</ele>
	<time>2023-08-06T12:17:06.000Z</time>
</trkpt>
<trkpt lat="46.0831880" lon="10.4967280">
	<ele>2011.20</ele>
	<time>2023-08-06T12:17:07.000Z</time>
</trkpt>
<trkpt lat="46.0831880" lon="10.4967280">
	<ele>2011.20</ele>
	<time>2023-08-06T12:17:08.000Z</time>
</trkpt>
<trkpt lat="46.0831880" lon="10.4967280">
	<ele>2011.20</ele>
	<time>2023-08-06T12:17:09.000Z</time>
</trkpt>
<trkpt lat="46.0831880" lon="10.4967280">
	<ele>2011.20</ele>
	<time>2023-08-06T12:17:10.000Z</time>
</trkpt>
<trkpt lat="46.0831880" lon="10.4967280">
	<ele>2011.20</ele>
	<time>2023-08-06T12:17:11.000Z</time>
</trkpt>
<trkpt lat="46.0831880" lon="10.4967280">
	<ele>2011.40</ele>
	<time>2023-08-06T12:17:12.000Z</time>
</trkpt>
<trkpt lat="46.0831870" lon="10.4967280">
	<ele>2011.40</ele>
	<time>2023-08-06T12:17:13.000Z</time>
</trkpt>
<trkpt lat="46.0831870" lon="10.4967280">
	<ele>2011.20</ele>
	<time>2023-08-06T12:17:14.000Z</time>
</trkpt>
<trkpt lat="46.0831870" lon="10.4967280">
	<ele>2011.20</ele>
	<time>2023-08-06T12:17:15.000Z</time>
</trkpt>
<trkpt lat="46.0831870" lon="10.4967280">
	<ele>2011.20</ele>
	<time>2023-08-06T12:17:16.000Z</time>
</trkpt>
<trkpt lat="46.0831870" lon="10.4967280">
	<ele>2011.20</ele>
	<time>2023-08-06T12:17:17.000Z</time>
</trkpt>
<trkpt lat="46.0831870" lon="10.4967280">
	<ele>2011.20</ele>
	<time>2023-08-06T12:17:18.000Z</time>
</trkpt>
<trkpt lat="46.0831870" lon="10.4967280">
	<ele>2011.00</ele>
	<time>2023-08-06T12:17:19.000Z</time>
</trkpt>
<trkpt lat="46.0831870" lon="10.4967300">
	<ele>2011.00</ele>
	<time>2023-08-06T12:17:20.000Z</time>
</trkpt>
<trkpt lat="46.0831870" lon="10.4967310">
	<ele>2011.00</ele>
	<time>2023-08-06T12:17:21.000Z</time>
</trkpt>
<trkpt lat="46.0831870" lon="10.4967330">
	<ele>2011.00</ele>
	<time>2023-08-06T12:17:22.000Z</time>
</trkpt>
<trkpt lat="46.0831870" lon="10.4967350">
	<ele>2011.00</ele>
	<time>2023-08-06T12:17:23.000Z</time>
</trkpt>
<trkpt lat="46.0831870" lon="10.4967360">
	<ele>2010.80</ele>
	<time>2023-08-06T12:17:24.000Z</time>
</trkpt>
<trkpt lat="46.0831880" lon="10.4967380">
	<ele>2010.80</ele>
	<time>2023-08-06T12:17:25.000Z</time>
</trkpt>
<trkpt lat="46.0831880" lon="10.4967380">
	<ele>2010.80</ele>
	<time>2023-08-06T12:17:26.000Z</time>
</trkpt>
<trkpt lat="46.0831880" lon="10.4967390">
	<ele>2010.80</ele>
	<time>2023-08-06T12:17:27.000Z</time>
</trkpt>
<trkpt lat="46.0831880" lon="10.4967410">
	<ele>2010.80</ele>
	<time>2023-08-06T12:17:28.000Z</time>
</trkpt>
<trkpt lat="46.0831880" lon="10.4967430">
	<ele>2010.80</ele>
	<time>2023-08-06T12:17:29.000Z</time>
</trkpt>
<trkpt lat="46.0831880" lon="10.4967450">
	<ele>2010.80</ele>
	<time>2023-08-06T12:17:30.000Z</time>
</trkpt>
<trkpt lat="46.0831890" lon="10.4967450">
	<ele>2010.80</ele>
	<time>2023-08-06T12:17:31.000Z</time>
</trkpt>
<trkpt lat="46.0831900" lon="10.4967460">
	<ele>2010.80</ele>
	<time>2023-08-06T12:17:32.000Z</time>
</trkpt>
<trkpt lat="46.0831900" lon="10.4967460">
	<ele>2010.80</ele>
	<time>2023-08-06T12:17:33.000Z</time>
</trkpt>
<trkpt lat="46.0831900" lon="10.4967460">
	<ele>2010.80</ele>
	<time>2023-08-06T12:17:34.000Z</time>
</trkpt>
<trkpt lat="46.0831900" lon="10.4967460">
	<ele>2010.80</ele>
	<time>2023-08-06T12:17:35.000Z</time>
</trkpt>
<trkpt lat="46.0831900" lon="10.4967460">
	<ele>2010.80</ele>
	<time>2023-08-06T12:17:36.000Z</time>
</trkpt>
<trkpt lat="46.0831900" lon="10.4967460">
	<ele>2010.80</ele>
	<time>2023-08-06T12:17:37.000Z</time>
</trkpt>
<trkpt lat="46.0831900" lon="10.4967460">
	<ele>2010.80</ele>
	<time>2023-08-06T12:17:38.000Z</time>
</trkpt>
<trkpt lat="46.0831900" lon="10.4967460">
	<ele>2010.80</ele>
	<time>2023-08-06T12:17:39.000Z</time>
</trkpt>
<trkpt lat="46.0831900" lon="10.4967460">
	<ele>2010.80</ele>
	<time>2023-08-06T12:17:40.000Z</time>
</trkpt>
<trkpt lat="46.0831900" lon="10.4967470">
	<ele>2010.80</ele>
	<time>2023-08-06T12:17:41.000Z</time>
</trkpt>
<trkpt lat="46.0831900" lon="10.4967470">
	<ele>2010.80</ele>
	<time>2023-08-06T12:17:42.000Z</time>
</trkpt>
<trkpt lat="46.0831900" lon="10.4967470">
	<ele>2010.80</ele>
	<time>2023-08-06T12:17:43.000Z</time>
</trkpt>
<trkpt lat="46.0831900" lon="10.4967470">
	<ele>2010.80</ele>
	<time>2023-08-06T12:17:44.000Z</time>
</trkpt>
<trkpt lat="46.0831910" lon="10.4967470">
	<ele>2010.80</ele>
	<time>2023-08-06T12:17:45.000Z</time>
</trkpt>
<trkpt lat="46.0831910" lon="10.4967480">
	<ele>2010.80</ele>
	<time>2023-08-06T12:17:46.000Z</time>
</trkpt>
<trkpt lat="46.0831920" lon="10.4967490">
	<ele>2010.80</ele>
	<time>2023-08-06T12:17:47.000Z</time>
</trkpt>
<trkpt lat="46.0831920" lon="10.4967490">
	<ele>2010.80</ele>
	<time>2023-08-06T12:17:48.000Z</time>
</trkpt>
<trkpt lat="46.0831920" lon="10.4967490">
	<ele>2010.80</ele>
	<time>2023-08-06T12:17:49.000Z</time>
</trkpt>
<trkpt lat="46.0831920" lon="10.4967490">
	<ele>2010.80</ele>
	<time>2023-08-06T12:17:50.000Z</time>
</trkpt>
<trkpt lat="46.0831930" lon="10.4967490">
	<ele>2010.80</ele>
	<time>2023-08-06T12:17:51.000Z</time>
</trkpt>
<trkpt lat="46.0831930" lon="10.4967490">
	<ele>2010.80</ele>
	<time>2023-08-06T12:17:52.000Z</time>
</trkpt>
<trkpt lat="46.0831930" lon="10.4967490">
	<ele>2010.80</ele>
	<time>2023-08-06T12:17:53.000Z</time>
</trkpt>
<trkpt lat="46.0831930" lon="10.4967490">
	<ele>2010.80</ele>
	<time>2023-08-06T12:17:54.000Z</time>
</trkpt>
<trkpt lat="46.0831930" lon="10.4967560">
	<ele>2010.80</ele>
	<time>2023-08-06T12:17:55.000Z</time>
</trkpt>
<trkpt lat="46.0831930" lon="10.4967610">
	<ele>2010.80</ele>
	<time>2023-08-06T12:17:56.000Z</time>
</trkpt>
<trkpt lat="46.0831930" lon="10.4967640">
	<ele>2010.80</ele>
	<time>2023-08-06T12:17:57.000Z</time>
</trkpt>
<trkpt lat="46.0831930" lon="10.4967660">
	<ele>2010.80</ele>
	<time>2023-08-06T12:17:58.000Z</time>
</trkpt>
<trkpt lat="46.0831940" lon="10.4967670">
	<ele>2010.80</ele>
	<time>2023-08-06T12:17:59.000Z</time>
</trkpt>
<trkpt lat="46.0831950" lon="10.4967680">
	<ele>2010.80</ele>
	<time>2023-08-06T12:18:00.000Z</time>
</trkpt>
<trkpt lat="46.0831950" lon="10.4967680">
	<ele>2010.80</ele>
	<time>2023-08-06T12:18:01.000Z</time>
</trkpt>
<trkpt lat="46.0831950" lon="10.4967690">
	<ele>2010.80</ele>
	<time>2023-08-06T12:18:02.000Z</time>
</trkpt>
<trkpt lat="46.0831950" lon="10.4967690">
	<ele>2010.80</ele>
	<time>2023-08-06T12:18:03.000Z</time>
</trkpt>
<trkpt lat="46.0831950" lon="10.4967700">
	<ele>2010.80</ele>
	<time>2023-08-06T12:18:04.000Z</time>
</trkpt>
<trkpt lat="46.0831950" lon="10.4967700">
	<ele>2010.80</ele>
	<time>2023-08-06T12:18:05.000Z</time>
</trkpt>
<trkpt lat="46.0831950" lon="10.4967700">
	<ele>2010.80</ele>
	<time>2023-08-06T12:18:06.000Z</time>
</trkpt>
<trkpt lat="46.0831950" lon="10.4967700">
	<ele>2010.80</ele>
	<time>2023-08-06T12:18:07.000Z</time>
</trkpt>
<trkpt lat="46.0831950" lon="10.4967700">
	<ele>2010.80</ele>
	<time>2023-08-06T12:18:08.000Z</time>
</trkpt>
<trkpt lat="46.0831950" lon="10.4967710">
	<ele>2010.80</ele>
	<time>2023-08-06T12:18:09.000Z</time>
</trkpt>
<trkpt lat="46.0831950" lon="10.4967710">
	<ele>2010.80</ele>
	<time>2023-08-06T12:18:10.000Z</time>
</trkpt>
<trkpt lat="46.0831950" lon="10.4967710">
	<ele>2010.80</ele>
	<time>2023-08-06T12:18:11.000Z</time>
</trkpt>
<trkpt lat="46.0831950" lon="10.4967710">
	<ele>2010.80</ele>
	<time>2023-08-06T12:18:12.000Z</time>
</trkpt>
<trkpt lat="46.0831950" lon="10.4967710">
	<ele>2010.80</ele>
	<time>2023-08-06T12:18:13.000Z</time>
</trkpt>
<trkpt lat="46.0831950" lon="10.4967710">
	<ele>2010.80</ele>
	<time>2023-08-06T12:18:14.000Z</time>
</trkpt>
<trkpt lat="46.0831950" lon="10.4967710">
	<ele>2010.80</ele>
	<time>2023-08-06T12:18:15.000Z</time>
</trkpt>
<trkpt lat="46.0831950" lon="10.4967710">
	<ele>2010.80</ele>
	<time>2023-08-06T12:18:16.000Z</time>
</trkpt>
<trkpt lat="46.0831950" lon="10.4967710">
	<ele>2010.80</ele>
	<time>2023-08-06T12:18:17.000Z</time>
</trkpt>
<trkpt lat="46.0831950" lon="10.4967710">
	<ele>2010.80</ele>
	<time>2023-08-06T12:18:18.000Z</time>
</trkpt>
<trkpt lat="46.0831950" lon="10.4967710">
	<ele>2010.80</ele>
	<time>2023-08-06T12:18:19.000Z</time>
</trkpt>
<trkpt lat="46.0831950" lon="10.4967710">
	<ele>2010.80</ele>
	<time>2023-08-06T12:18:20.000Z</time>
</trkpt>
<trkpt lat="46.0831950" lon="10.4967710">
	<ele>2010.80</ele>
	<time>2023-08-06T12:18:21.000Z</time>
</trkpt>
<trkpt lat="46.0831940" lon="10.4967710">
	<ele>2010.80</ele>
	<time>2023-08-06T12:18:22.000Z</time>
</trkpt>
<trkpt lat="46.0831940" lon="10.4967710">
	<ele>2010.80</ele>
	<time>2023-08-06T12:18:23.000Z</time>
</trkpt>
<trkpt lat="46.0831930" lon="10.4967710">
	<ele>2010.80</ele>
	<time>2023-08-06T12:18:24.000Z</time>
</trkpt>
<trkpt lat="46.0831930" lon="10.4967710">
	<ele>2010.80</ele>
	<time>2023-08-06T12:18:25.000Z</time>
</trkpt>
<trkpt lat="46.0831930" lon="10.4967710">
	<ele>2010.80</ele>
	<time>2023-08-06T12:18:26.000Z</time>
</trkpt>
<trkpt lat="46.0831920" lon="10.4967710">
	<ele>2010.80</ele>
	<time>2023-08-06T12:18:27.000Z</time>
</trkpt>
<trkpt lat="46.0831940" lon="10.4967690">
	<ele>2010.80</ele>
	<time>2023-08-06T12:18:28.000Z</time>
</trkpt>
<trkpt lat="46.0832020" lon="10.4967610">
	<ele>2010.80</ele>
	<time>2023-08-06T12:18:29.000Z</time>
</trkpt>
<trkpt lat="46.0832060" lon="10.4967560">
	<ele>2013.20</ele>
	<time>2023-08-06T12:18:30.000Z</time>
</trkpt>
<trkpt lat="46.0832080" lon="10.4967520">
	<ele>2013.20</ele>
	<time>2023-08-06T12:18:31.000Z</time>
</trkpt>
<trkpt lat="46.0832090" lon="10.4967420">
	<ele>2013.20</ele>
	<time>2023-08-06T12:18:32.000Z</time>
</trkpt>
<trkpt lat="46.0832120" lon="10.4967290">
	<ele>2013.20</ele>
	<time>2023-08-06T12:18:33.000Z</time>
</trkpt>
<trkpt lat="46.0832190" lon="10.4967160">
	<ele>2012.80</ele>
	<time>2023-08-06T12:18:34.000Z</time>
</trkpt>
<trkpt lat="46.0832290" lon="10.4967020">
	<ele>2012.60</ele>
	<time>2023-08-06T12:18:35.000Z</time>
</trkpt>
<trkpt lat="46.0832360" lon="10.4966870">
	<ele>2012.40</ele>
	<time>2023-08-06T12:18:36.000Z</time>
</trkpt>
<trkpt lat="46.0832480" lon="10.4966780">
	<ele>2012.20</ele>
	<time>2023-08-06T12:18:37.000Z</time>
</trkpt>
<trkpt lat="46.0832580" lon="10.4966720">
	<ele>2012.00</ele>
	<time>2023-08-06T12:18:38.000Z</time>
</trkpt>
<trkpt lat="46.0832660" lon="10.4966640">
	<ele>2012.20</ele>
	<time>2023-08-06T12:18:39.000Z</time>
</trkpt>
<trkpt lat="46.0832700" lon="10.4966580">
	<ele>2012.20</ele>
	<time>2023-08-06T12:18:40.000Z</time>
</trkpt>
<trkpt lat="46.0832730" lon="10.4966540">
	<ele>2012.60</ele>
	<time>2023-08-06T12:18:41.000Z</time>
</trkpt>
<trkpt lat="46.0832790" lon="10.4966510">
	<ele>2012.60</ele>
	<time>2023-08-06T12:18:42.000Z</time>
</trkpt>
<trkpt lat="46.0832850" lon="10.4966470">
	<ele>2012.80</ele>
	<time>2023-08-06T12:18:43.000Z</time>
</trkpt>
<trkpt lat="46.0832860" lon="10.4966350">
	<ele>2012.80</ele>
	<time>2023-08-06T12:18:44.000Z</time>
</trkpt>
<trkpt lat="46.0832850" lon="10.4966240">
	<ele>2012.80</ele>
	<time>2023-08-06T12:18:45.000Z</time>
</trkpt>
<trkpt lat="46.0832850" lon="10.4966280">
	<ele>2012.60</ele>
	<time>2023-08-06T12:18:46.000Z</time>
</trkpt>
<trkpt lat="46.0832850" lon="10.4966280">
	<ele>2012.60</ele>
	<time>2023-08-06T12:18:47.000Z</time>
</trkpt>
<trkpt lat="46.0832850" lon="10.4966200">
	<ele>2012.60</ele>
	<time>2023-08-06T12:18:48.000Z</time>
</trkpt>
<trkpt lat="46.0832820" lon="10.4966110">
	<ele>2012.60</ele>
	<time>2023-08-06T12:18:49.000Z</time>
</trkpt>
<trkpt lat="46.0832790" lon="10.4965990">
	<ele>2012.60</ele>
	<time>2023-08-06T12:18:50.000Z</time>
</trkpt>
</trkseg>
</trk>
</gpx>
